<?xml version='1.0' encoding='UTF-8'?><gpx version="1.1" creator="JPX - https://github.com/jenetics/jpx" xmlns="http://www.topografix.com/GPX/1/1"><trk><trkseg><trkpt lat="48.12344419688014" lon="11.620496665315615"><ele>536.0</ele><time>2026-04-18T07:16:38Z</time></trkpt><trkpt lat="48.12347323987712" lon="11.620362110423688"><ele>536.0</ele><time>2026-04-18T07:16:40.999Z</time></trkpt><trkpt lat="48.12355600655146" lon="11.620339260539987"><ele>536.0</ele><time>2026-04-18T07:17:12.999Z</time></trkpt><trkpt lat="48.12355939892706" lon="11.620436427608594"><ele>536.0</ele><time>2026-04-18T07:17:14.999Z</time></trkpt><trkpt lat="48.12351464096225" lon="11.62050429291947"><ele>536.0</ele><time>2026-04-18T07:17:19.999Z</time></trkpt><trkpt lat="48.123449281506055" lon="11.620516579214332"><ele>536.0</ele><time>2026-04-18T07:17:27.999Z</time></trkpt><trkpt lat="48.12341536299523" lon="11.620609832662172"><ele>536.0</ele><time>2026-04-18T07:17:41.999Z</time></trkpt><trkpt lat="48.12332459287342" lon="11.620640743070647"><ele>536.0</ele><time>2026-04-18T07:17:57.999Z</time></trkpt><trkpt lat="48.12324615689452" lon="11.620636114289937"><ele>536.0</ele><time>2026-04-18T07:17:58.999Z</time></trkpt><trkpt lat="48.12315617464908" lon="11.620618025627207"><ele>536.0</ele><time>2026-04-18T07:17:59.999Z</time></trkpt><trkpt lat="48.123084074261435" lon="11.620607942064789"><ele>536.0</ele><time>2026-04-18T07:18:00.999Z</time></trkpt><trkpt lat="48.123010421428525" lon="11.620602977314203"><ele>536.0</ele><time>2026-04-18T07:18:01.999Z</time></trkpt><trkpt lat="48.12292955120346" lon="11.620598575620551"><ele>536.0</ele><time>2026-04-18T07:18:02.999Z</time></trkpt><trkpt lat="48.12285300713482" lon="11.620592915052587"><ele>536.6</ele><time>2026-04-18T07:18:03.999Z</time></trkpt><trkpt lat="48.12278590595788" lon="11.62059176094293"><ele>537.2</ele><time>2026-04-18T07:18:04.999Z</time></trkpt><trkpt lat="48.12267663595521" lon="11.620579072749408"><ele>537.8</ele><time>2026-04-18T07:18:06.999Z</time></trkpt><trkpt lat="48.1226016660839" lon="11.620567890007527"><ele>538.4</ele><time>2026-04-18T07:18:07.999Z</time></trkpt><trkpt lat="48.12250290588228" lon="11.620560217562248"><ele>539.0</ele><time>2026-04-18T07:18:08.999Z</time></trkpt><trkpt lat="48.12240169449083" lon="11.620550973028442"><ele>538.6</ele><time>2026-04-18T07:18:09.999Z</time></trkpt><trkpt lat="48.12228644987458" lon="11.620534452562984"><ele>538.2</ele><time>2026-04-18T07:18:10.999Z</time></trkpt><trkpt lat="48.12216552342031" lon="11.620515886828198"><ele>537.8000000000001</ele><time>2026-04-18T07:18:11.999Z</time></trkpt><trkpt lat="48.12207154879375" lon="11.620499699348779"><ele>537.4</ele><time>2026-04-18T07:18:12.999Z</time></trkpt><trkpt lat="48.121982420548875" lon="11.62048137644291"><ele>537.0</ele><time>2026-04-18T07:18:13.999Z</time></trkpt><trkpt lat="48.12188746547969" lon="11.620462361208437"><ele>537.0</ele><time>2026-04-18T07:18:14.999Z</time></trkpt><trkpt lat="48.121776764631804" lon="11.620436978461779"><ele>537.0</ele><time>2026-04-18T07:18:15.999Z</time></trkpt><trkpt lat="48.121651060214155" lon="11.620408946403384"><ele>537.0</ele><time>2026-04-18T07:18:16.999Z</time></trkpt><trkpt lat="48.12154877378462" lon="11.62039370710416"><ele>537.0</ele><time>2026-04-18T07:18:17.999Z</time></trkpt><trkpt lat="48.12147399838047" lon="11.620381881916986"><ele>537.0</ele><time>2026-04-18T07:18:18.998Z</time></trkpt><trkpt lat="48.121400747308854" lon="11.620355483391219"><ele>536.2</ele><time>2026-04-18T07:18:19.998Z</time></trkpt><trkpt lat="48.12133037892686" lon="11.620346165742113"><ele>535.4000000000001</ele><time>2026-04-18T07:18:20.998Z</time></trkpt><trkpt lat="48.12126599869555" lon="11.620332183527498"><ele>534.5999999999999</ele><time>2026-04-18T07:18:21.998Z</time></trkpt><trkpt lat="48.121142712494695" lon="11.620305889617775"><ele>533.8</ele><time>2026-04-18T07:18:23.998Z</time></trkpt><trkpt lat="48.121029311345865" lon="11.620272575488473"><ele>533.0</ele><time>2026-04-18T07:18:25.999Z</time></trkpt><trkpt lat="48.120943872438076" lon="11.620254332069123"><ele>532.8333333333333</ele><time>2026-04-18T07:18:27.999Z</time></trkpt><trkpt lat="48.120877647263036" lon="11.620240149481324"><ele>532.6666666666666</ele><time>2026-04-18T07:18:29.999Z</time></trkpt><trkpt lat="48.1208156057562" lon="11.62022345871406"><ele>532.5</ele><time>2026-04-18T07:18:31.999Z</time></trkpt><trkpt lat="48.12075276577443" lon="11.620205476938938"><ele>532.3333333333334</ele><time>2026-04-18T07:18:33.999Z</time></trkpt><trkpt lat="48.120689734500516" lon="11.620184146688278"><ele>532.1666666666667</ele><time>2026-04-18T07:18:37.999Z</time></trkpt><trkpt lat="48.12059407453598" lon="11.620157602437654"><ele>532.0</ele><time>2026-04-18T07:19:08.998Z</time></trkpt><trkpt lat="48.12045969710269" lon="11.62010171261589"><ele>531.5</ele><time>2026-04-18T07:19:10.998Z</time></trkpt><trkpt lat="48.12038032211268" lon="11.620067311247217"><ele>531.0</ele><time>2026-04-18T07:19:11.998Z</time></trkpt><trkpt lat="48.12030002309364" lon="11.620033938326278"><ele>530.5</ele><time>2026-04-18T07:19:12.998Z</time></trkpt><trkpt lat="48.12021878395644" lon="11.61999799447978"><ele>530.0</ele><time>2026-04-18T07:19:13.998Z</time></trkpt><trkpt lat="48.1201368088628" lon="11.619958409340658"><ele>529.5</ele><time>2026-04-18T07:19:14.998Z</time></trkpt><trkpt lat="48.12005401219044" lon="11.619911424393905"><ele>529.0</ele><time>2026-04-18T07:19:15.998Z</time></trkpt><trkpt lat="48.119967221422634" lon="11.619857317497088"><ele>529.8</ele><time>2026-04-18T07:19:16.998Z</time></trkpt><trkpt lat="48.11986856422519" lon="11.619797108921349"><ele>530.5999999999999</ele><time>2026-04-18T07:19:17.998Z</time></trkpt><trkpt lat="48.11976348170625" lon="11.619736213629713"><ele>531.4</ele><time>2026-04-18T07:19:18.998Z</time></trkpt><trkpt lat="48.11966774181467" lon="11.619683397436777"><ele>532.1999999999999</ele><time>2026-04-18T07:19:19.998Z</time></trkpt><trkpt lat="48.11957359285166" lon="11.619628497815174"><ele>533.0</ele><time>2026-04-18T07:19:20.998Z</time></trkpt><trkpt lat="48.119474900428756" lon="11.619572035036695"><ele>533.0</ele><time>2026-04-18T07:19:21.998Z</time></trkpt><trkpt lat="48.11936744779671" lon="11.619513125213299"><ele>533.0</ele><time>2026-04-18T07:19:22.998Z</time></trkpt><trkpt lat="48.11925532102364" lon="11.6194488262278"><ele>533.0</ele><time>2026-04-18T07:19:23.998Z</time></trkpt><trkpt lat="48.11913017862853" lon="11.619380764784271"><ele>533.0</ele><time>2026-04-18T07:19:24.998Z</time></trkpt><trkpt lat="48.119010892456686" lon="11.619314897512382"><ele>533.75</ele><time>2026-04-18T07:19:25.998Z</time></trkpt><trkpt lat="48.11889901236022" lon="11.619253098558586"><ele>534.5</ele><time>2026-04-18T07:19:26.998Z</time></trkpt><trkpt lat="48.118790322633316" lon="11.61919350539598"><ele>535.25</ele><time>2026-04-18T07:19:27.998Z</time></trkpt><trkpt lat="48.11868180153492" lon="11.61913664333504"><ele>536.0</ele><time>2026-04-18T07:19:28.998Z</time></trkpt><trkpt lat="48.11857114759018" lon="11.619079501962773"><ele>536.0</ele><time>2026-04-18T07:19:29.998Z</time></trkpt><trkpt lat="48.11845724669433" lon="11.619023592452564"><ele>536.0</ele><time>2026-04-18T07:19:30.998Z</time></trkpt><trkpt lat="48.11834546586866" lon="11.618970076713948"><ele>536.0</ele><time>2026-04-18T07:19:31.998Z</time></trkpt><trkpt lat="48.11823528376456" lon="11.61892504308385"><ele>536.0</ele><time>2026-04-18T07:19:32.998Z</time></trkpt><trkpt lat="48.11812752353367" lon="11.61889000437783"><ele>535.2</ele><time>2026-04-18T07:19:33.998Z</time></trkpt><trkpt lat="48.11802238603445" lon="11.618853238932573"><ele>534.4000000000001</ele><time>2026-04-18T07:19:34.998Z</time></trkpt><trkpt lat="48.11792035978592" lon="11.618810553608972"><ele>533.6</ele><time>2026-04-18T07:19:35.998Z</time></trkpt><trkpt lat="48.11781957644577" lon="11.618766705198606"><ele>532.8000000000001</ele><time>2026-04-18T07:19:36.998Z</time></trkpt><trkpt lat="48.117719829372554" lon="11.618721037779094"><ele>532.0</ele><time>2026-04-18T07:19:37.998Z</time></trkpt><trkpt lat="48.11761936252208" lon="11.618678575599992"><ele>531.75</ele><time>2026-04-18T07:19:38.998Z</time></trkpt><trkpt lat="48.11751747499189" lon="11.618635928049677"><ele>531.5</ele><time>2026-04-18T07:19:39.998Z</time></trkpt><trkpt lat="48.117414544770824" lon="11.61858970989306"><ele>531.25</ele><time>2026-04-18T07:19:40.998Z</time></trkpt><trkpt lat="48.11729701926447" lon="11.618537533987631"><ele>531.0</ele><time>2026-04-18T07:19:41.998Z</time></trkpt><trkpt lat="48.117165625937666" lon="11.618480911844768"><ele>531.0</ele><time>2026-04-18T07:19:42.998Z</time></trkpt><trkpt lat="48.11704465196149" lon="11.618429023736802"><ele>531.0</ele><time>2026-04-18T07:19:43.998Z</time></trkpt><trkpt lat="48.116920947050204" lon="11.61837478481377"><ele>531.0</ele><time>2026-04-18T07:19:44.998Z</time></trkpt><trkpt lat="48.11680059468323" lon="11.618318628457153"><ele>531.0</ele><time>2026-04-18T07:19:45.998Z</time></trkpt><trkpt lat="48.11669064073985" lon="11.6182696396846"><ele>531.0</ele><time>2026-04-18T07:19:46.998Z</time></trkpt><trkpt lat="48.116591427366295" lon="11.618227018732352"><ele>531.0</ele><time>2026-04-18T07:19:47.998Z</time></trkpt><trkpt lat="48.116501905760785" lon="11.618188334373347"><ele>531.0</ele><time>2026-04-18T07:19:48.998Z</time></trkpt><trkpt lat="48.11642231191247" lon="11.618153109649223"><ele>531.0</ele><time>2026-04-18T07:19:49.998Z</time></trkpt><trkpt lat="48.11634758472942" lon="11.618119632561422"><ele>531.0</ele><time>2026-04-18T07:19:50.998Z</time></trkpt><trkpt lat="48.116279610890516" lon="11.618091333374304"><ele>531.0</ele><time>2026-04-18T07:19:51.998Z</time></trkpt><trkpt lat="48.11617887296989" lon="11.618047185520885"><ele>531.0</ele><time>2026-04-18T07:19:53.998Z</time></trkpt><trkpt lat="48.11610921170517" lon="11.618015346329885"><ele>531.0</ele><time>2026-04-18T07:19:55.998Z</time></trkpt><trkpt lat="48.1160385833067" lon="11.617984918483685"><ele>531.0</ele><time>2026-04-18T07:19:58.998Z</time></trkpt><trkpt lat="48.11595930097867" lon="11.617948004010485"><ele>531.0</ele><time>2026-04-18T07:20:02.998Z</time></trkpt><trkpt lat="48.11589139977106" lon="11.617924759024904"><ele>531.0</ele><time>2026-04-18T07:20:06.998Z</time></trkpt><trkpt lat="48.1157884538135" lon="11.617873991891715"><ele>531.0</ele><time>2026-04-18T07:20:09.998Z</time></trkpt><trkpt lat="48.115717379723264" lon="11.617842457541363"><ele>531.3333333333334</ele><time>2026-04-18T07:20:10.998Z</time></trkpt><trkpt lat="48.11562868850344" lon="11.61780360667705"><ele>531.6666666666666</ele><time>2026-04-18T07:20:11.998Z</time></trkpt><trkpt lat="48.11554628847118" lon="11.617763557966578"><ele>532.0</ele><time>2026-04-18T07:20:12.998Z</time></trkpt><trkpt lat="48.11546889546217" lon="11.617723409852777"><ele>532.3333333333333</ele><time>2026-04-18T07:20:13.999Z</time></trkpt><trkpt lat="48.11539065495153" lon="11.617681128491913"><ele>532.6666666666666</ele><time>2026-04-18T07:20:14.999Z</time></trkpt><trkpt lat="48.115310815221605" lon="11.617637088596627"><ele>533.0</ele><time>2026-04-18T07:20:15.999Z</time></trkpt><trkpt lat="48.11522613261642" lon="11.617591160237339"><ele>533.0</ele><time>2026-04-18T07:20:16.999Z</time></trkpt><trkpt lat="48.11513557797757" lon="11.617542311827123"><ele>533.0</ele><time>2026-04-18T07:20:17.999Z</time></trkpt><trkpt lat="48.11504187973031" lon="11.617490979942824"><ele>533.0</ele><time>2026-04-18T07:20:18.999Z</time></trkpt><trkpt lat="48.11494288342526" lon="11.617436636710863"><ele>533.0</ele><time>2026-04-18T07:20:19.999Z</time></trkpt><trkpt lat="48.11484451215472" lon="11.617382447634345"><ele>533.0</ele><time>2026-04-18T07:20:20.999Z</time></trkpt><trkpt lat="48.11475155098247" lon="11.617331949831458"><ele>533.0</ele><time>2026-04-18T07:20:21.999Z</time></trkpt><trkpt lat="48.1146639311309" lon="11.617283088471865"><ele>533.0</ele><time>2026-04-18T07:20:22.999Z</time></trkpt><trkpt lat="48.114577192168156" lon="11.617234277061417"><ele>533.0</ele><time>2026-04-18T07:20:23.999Z</time></trkpt><trkpt lat="48.1144836482169" lon="11.617180016191677"><ele>533.0</ele><time>2026-04-18T07:20:24.999Z</time></trkpt><trkpt lat="48.11438520150441" lon="11.617119032105185"><ele>533.0</ele><time>2026-04-18T07:20:25.999Z</time></trkpt><trkpt lat="48.11429254976153" lon="11.617059614074627"><ele>533.0</ele><time>2026-04-18T07:20:26.999Z</time></trkpt><trkpt lat="48.11420426713346" lon="11.616999712241327"><ele>533.0</ele><time>2026-04-18T07:20:27.999Z</time></trkpt><trkpt lat="48.11411918398641" lon="11.61694224166369"><ele>533.0</ele><time>2026-04-18T07:20:28.999Z</time></trkpt><trkpt lat="48.11403163676464" lon="11.616881846787457"><ele>533.0</ele><time>2026-04-18T07:20:29.999Z</time></trkpt><trkpt lat="48.113939207252855" lon="11.616810050040364"><ele>533.0</ele><time>2026-04-18T07:20:30.999Z</time></trkpt><trkpt lat="48.11383584886201" lon="11.616729203510866"><ele>534.0</ele><time>2026-04-18T07:20:31.999Z</time></trkpt><trkpt lat="48.113729759872086" lon="11.616642795523314"><ele>535.0</ele><time>2026-04-18T07:20:32.999Z</time></trkpt><trkpt lat="48.11362385668193" lon="11.616554121534554"><ele>536.0</ele><time>2026-04-18T07:20:33.999Z</time></trkpt><trkpt lat="48.11352268303617" lon="11.616465661034413"><ele>537.0</ele><time>2026-04-18T07:20:34.999Z</time></trkpt><trkpt lat="48.11342137052922" lon="11.616378263632127"><ele>537.0</ele><time>2026-04-18T07:20:35.999Z</time></trkpt><trkpt lat="48.1133230430416" lon="11.616290810632433"><ele>537.0</ele><time>2026-04-18T07:20:36.999Z</time></trkpt><trkpt lat="48.11322426319159" lon="11.616210380477682"><ele>537.0</ele><time>2026-04-18T07:20:37.999Z</time></trkpt><trkpt lat="48.11312198542647" lon="11.616153470609971"><ele>537.0</ele><time>2026-04-18T07:20:38.999Z</time></trkpt><trkpt lat="48.11302321700206" lon="11.616088323294747"><ele>537.0</ele><time>2026-04-18T07:20:39.999Z</time></trkpt><trkpt lat="48.112942993077105" lon="11.616017995183983"><ele>536.5</ele><time>2026-04-18T07:20:40.999Z</time></trkpt><trkpt lat="48.11287658049067" lon="11.615951330254868"><ele>536.0</ele><time>2026-04-18T07:20:41.999Z</time></trkpt><trkpt lat="48.112812776692266" lon="11.615886684722915"><ele>535.5</ele><time>2026-04-18T07:20:42.999Z</time></trkpt><trkpt lat="48.1127550468682" lon="11.61582655413016"><ele>535.0</ele><time>2026-04-18T07:20:43.999Z</time></trkpt><trkpt lat="48.11270154597556" lon="11.61576987473893"><ele>534.5</ele><time>2026-04-18T07:20:44.999Z</time></trkpt><trkpt lat="48.1126038809645" lon="11.615669366007504"><ele>534.0</ele><time>2026-04-18T07:20:46.999Z</time></trkpt><trkpt lat="48.112534586143404" lon="11.615597012211484"><ele>534.0</ele><time>2026-04-18T07:20:48.999Z</time></trkpt><trkpt lat="48.11247619961412" lon="11.615528293552803"><ele>534.0</ele><time>2026-04-18T07:20:51.999Z</time></trkpt><trkpt lat="48.11240832322038" lon="11.615446545568835"><ele>534.0</ele><time>2026-04-18T07:21:13.999Z</time></trkpt><trkpt lat="48.112313336323645" lon="11.615327461239552"><ele>534.0</ele><time>2026-04-18T07:21:15.999Z</time></trkpt><trkpt lat="48.11226035229589" lon="11.615267937380466"><ele>534.0</ele><time>2026-04-18T07:21:16.999Z</time></trkpt><trkpt lat="48.11218828153104" lon="11.61518395215413"><ele>534.0</ele><time>2026-04-18T07:21:18.999Z</time></trkpt><trkpt lat="48.11212108795283" lon="11.615104717884872"><ele>534.5</ele><time>2026-04-18T07:21:20.999Z</time></trkpt><trkpt lat="48.11206332892805" lon="11.61502956078919"><ele>535.0</ele><time>2026-04-18T07:21:22.999Z</time></trkpt><trkpt lat="48.11201162276825" lon="11.614965136928882"><ele>535.5</ele><time>2026-04-18T07:21:24.999Z</time></trkpt><trkpt lat="48.111954350086464" lon="11.614899485474826"><ele>536.0</ele><time>2026-04-18T07:21:27.999Z</time></trkpt><trkpt lat="48.11188453567844" lon="11.614811086273884"><ele>536.5</ele><time>2026-04-18T07:22:11.999Z</time></trkpt><trkpt lat="48.1117901466914" lon="11.614682093936546"><ele>537.0</ele><time>2026-04-18T07:22:13.999Z</time></trkpt><trkpt lat="48.111704806774604" lon="11.614569586626338"><ele>537.0</ele><time>2026-04-18T07:22:15.999Z</time></trkpt><trkpt lat="48.11162899683348" lon="11.614474191829016"><ele>537.0</ele><time>2026-04-18T07:22:17.999Z</time></trkpt><trkpt lat="48.11154051401899" lon="11.614403784956421"><ele>537.0</ele><time>2026-04-18T07:22:19.999Z</time></trkpt><trkpt lat="48.111428438590075" lon="11.61444354057082"><ele>537.0</ele><time>2026-04-18T07:22:21.999Z</time></trkpt><trkpt lat="48.11136091370927" lon="11.614498735351306"><ele>537.0</ele><time>2026-04-18T07:22:22.999Z</time></trkpt><trkpt lat="48.111279477289656" lon="11.614561299696131"><ele>537.0</ele><time>2026-04-18T07:22:23.999Z</time></trkpt><trkpt lat="48.11117700184917" lon="11.614639759042742"><ele>537.0</ele><time>2026-04-18T07:22:24.999Z</time></trkpt><trkpt lat="48.11106277297389" lon="11.61472624854142"><ele>537.0</ele><time>2026-04-18T07:22:25.999Z</time></trkpt><trkpt lat="48.11095828878159" lon="11.614797753505458"><ele>537.0</ele><time>2026-04-18T07:22:26.999Z</time></trkpt><trkpt lat="48.11084874990302" lon="11.614863901543467"><ele>537.25</ele><time>2026-04-18T07:22:27.999Z</time></trkpt><trkpt lat="48.11072315272763" lon="11.614923504293387"><ele>537.5</ele><time>2026-04-18T07:22:28.999Z</time></trkpt><trkpt lat="48.11057895529777" lon="11.614969223680387"><ele>537.75</ele><time>2026-04-18T07:22:29.999Z</time></trkpt><trkpt lat="48.11042482398358" lon="11.61499183449091"><ele>538.0</ele><time>2026-04-18T07:22:30.999Z</time></trkpt><trkpt lat="48.11026303801486" lon="11.614995800494206"><ele>538.0</ele><time>2026-04-18T07:22:31.999Z</time></trkpt><trkpt lat="48.110092899400826" lon="11.614978653797001"><ele>538.0</ele><time>2026-04-18T07:22:32.999Z</time></trkpt><trkpt lat="48.10992132149969" lon="11.614943539539395"><ele>538.0</ele><time>2026-04-18T07:22:33.999Z</time></trkpt><trkpt lat="48.10975220569872" lon="11.614907815005667"><ele>538.0</ele><time>2026-04-18T07:22:34.999Z</time></trkpt><trkpt lat="48.1095859944847" lon="11.614872336161966"><ele>538.0</ele><time>2026-04-18T07:22:35.999Z</time></trkpt><trkpt lat="48.109423023059556" lon="11.614832333039297"><ele>538.0</ele><time>2026-04-18T07:22:36.999Z</time></trkpt><trkpt lat="48.109263992398944" lon="11.61479266229501"><ele>538.0</ele><time>2026-04-18T07:22:37.999Z</time></trkpt><trkpt lat="48.10910685638761" lon="11.61475434737018"><ele>538.0</ele><time>2026-04-18T07:22:38.999Z</time></trkpt><trkpt lat="48.10894460239181" lon="11.614712681262892"><ele>538.0</ele><time>2026-04-18T07:22:39.999Z</time></trkpt><trkpt lat="48.10876203307301" lon="11.61466505694833"><ele>538.0</ele><time>2026-04-18T07:22:40.999Z</time></trkpt><trkpt lat="48.10857892442437" lon="11.614621520595934"><ele>538.0</ele><time>2026-04-18T07:22:41.999Z</time></trkpt><trkpt lat="48.10838903450462" lon="11.614575606070119"><ele>538.0</ele><time>2026-04-18T07:22:42.999Z</time></trkpt><trkpt lat="48.10819159202902" lon="11.614526417521729"><ele>537.3333333333334</ele><time>2026-04-18T07:22:43.999Z</time></trkpt><trkpt lat="48.1079863297125" lon="11.61447627685482"><ele>536.6666666666666</ele><time>2026-04-18T07:22:44.999Z</time></trkpt><trkpt lat="48.10777291005956" lon="11.614424159595716"><ele>536.0</ele><time>2026-04-18T07:22:45.999Z</time></trkpt><trkpt lat="48.107547844983415" lon="11.614372863621584"><ele>537.0</ele><time>2026-04-18T07:22:46.999Z</time></trkpt><trkpt lat="48.107314050984044" lon="11.614319737517725"><ele>538.0</ele><time>2026-04-18T07:22:47.999Z</time></trkpt><trkpt lat="48.10709022224557" lon="11.614264671197619"><ele>538.0</ele><time>2026-04-18T07:22:48.999Z</time></trkpt><trkpt lat="48.106870537506076" lon="11.614210722859424"><ele>538.0</ele><time>2026-04-18T07:22:49.999Z</time></trkpt><trkpt lat="48.106648002751136" lon="11.614160411308726"><ele>538.0</ele><time>2026-04-18T07:22:50.999Z</time></trkpt><trkpt lat="48.10642278068629" lon="11.614109742117366"><ele>539.0</ele><time>2026-04-18T07:22:51.999Z</time></trkpt><trkpt lat="48.10619431742" lon="11.614054250234236"><ele>540.0</ele><time>2026-04-18T07:22:52.999Z</time></trkpt><trkpt lat="48.105970307869164" lon="11.613999287379583"><ele>540.0</ele><time>2026-04-18T07:22:53.999Z</time></trkpt><trkpt lat="48.10574883617497" lon="11.613944551070228"><ele>540.0</ele><time>2026-04-18T07:22:54.999Z</time></trkpt><trkpt lat="48.10553217755484" lon="11.613887639874829"><ele>540.0</ele><time>2026-04-18T07:22:55.999Z</time></trkpt><trkpt lat="48.10531553778227" lon="11.613834791118489"><ele>539.0</ele><time>2026-04-18T07:22:56.999Z</time></trkpt><trkpt lat="48.1050978679322" lon="11.61378721612042"><ele>538.0</ele><time>2026-04-18T07:22:57.999Z</time></trkpt><trkpt lat="48.10488093548121" lon="11.613736667192315"><ele>537.0</ele><time>2026-04-18T07:22:58.999Z</time></trkpt><trkpt lat="48.104654172972275" lon="11.613684019797255"><ele>539.0</ele><time>2026-04-18T07:22:59.999Z</time></trkpt><trkpt lat="48.104422113613" lon="11.61363232634027"><ele>541.0</ele><time>2026-04-18T07:23:00.999Z</time></trkpt><trkpt lat="48.104189912326156" lon="11.613583904386601"><ele>540.0</ele><time>2026-04-18T07:23:01.999Z</time></trkpt><trkpt lat="48.10395702678177" lon="11.613541637548678"><ele>539.0</ele><time>2026-04-18T07:23:02.999Z</time></trkpt><trkpt lat="48.10372255011638" lon="11.613504188995169"><ele>539.0</ele><time>2026-04-18T07:23:03.999Z</time></trkpt><trkpt lat="48.10348682546964" lon="11.613470099058363"><ele>539.0</ele><time>2026-04-18T07:23:04.999Z</time></trkpt><trkpt lat="48.10325116309347" lon="11.613438634653063"><ele>538.5</ele><time>2026-04-18T07:23:05.999Z</time></trkpt><trkpt lat="48.10301580663478" lon="11.613411263330338"><ele>538.0</ele><time>2026-04-18T07:23:06.999Z</time></trkpt><trkpt lat="48.10278149805418" lon="11.61338880465248"><ele>538.0</ele><time>2026-04-18T07:23:07.999Z</time></trkpt><trkpt lat="48.10255109339483" lon="11.613373069353756"><ele>538.0</ele><time>2026-04-18T07:23:08.999Z</time></trkpt><trkpt lat="48.1023253901037" lon="11.613361608206814"><ele>539.3333333333334</ele><time>2026-04-18T07:23:09.999Z</time></trkpt><trkpt lat="48.10210294529767" lon="11.613356140989714"><ele>540.6666666666666</ele><time>2026-04-18T07:23:10.999Z</time></trkpt><trkpt lat="48.101881487338915" lon="11.613354689331855"><ele>542.0</ele><time>2026-04-18T07:23:11.999Z</time></trkpt><trkpt lat="48.10166295417353" lon="11.613357105278034"><ele>543.0</ele><time>2026-04-18T07:23:12.999Z</time></trkpt><trkpt lat="48.10144384127854" lon="11.613362297546754"><ele>544.0</ele><time>2026-04-18T07:23:13.999Z</time></trkpt><trkpt lat="48.1012272055236" lon="11.613371078095039"><ele>545.0</ele><time>2026-04-18T07:23:14.999Z</time></trkpt><trkpt lat="48.10101304400506" lon="11.613383476720486"><ele>545.0</ele><time>2026-04-18T07:23:15.999Z</time></trkpt><trkpt lat="48.10079959488855" lon="11.613397034807237"><ele>545.0</ele><time>2026-04-18T07:23:16.999Z</time></trkpt><trkpt lat="48.10059352687699" lon="11.613416422702503"><ele>545.0</ele><time>2026-04-18T07:23:17.999Z</time></trkpt><trkpt lat="48.10038659730687" lon="11.613441538120453"><ele>544.0</ele><time>2026-04-18T07:23:18.999Z</time></trkpt><trkpt lat="48.10017801928971" lon="11.613469138610359"><ele>543.0</ele><time>2026-04-18T07:23:19.999Z</time></trkpt><trkpt lat="48.099966735282834" lon="11.613503010702614"><ele>542.0</ele><time>2026-04-18T07:23:20.999Z</time></trkpt><trkpt lat="48.09975329156817" lon="11.613546635402745"><ele>541.6666666666666</ele><time>2026-04-18T07:23:21.999Z</time></trkpt><trkpt lat="48.09953462161781" lon="11.613586750864906"><ele>541.3333333333334</ele><time>2026-04-18T07:23:22.999Z</time></trkpt><trkpt lat="48.09931732611496" lon="11.61362969564077"><ele>541.0</ele><time>2026-04-18T07:23:23.999Z</time></trkpt><trkpt lat="48.099103419427834" lon="11.61367063042752"><ele>540.6666666666667</ele><time>2026-04-18T07:23:24.999Z</time></trkpt><trkpt lat="48.09889225875323" lon="11.613721378267671"><ele>540.3333333333334</ele><time>2026-04-18T07:23:25.999Z</time></trkpt><trkpt lat="48.09868214599469" lon="11.613771076282807"><ele>540.0</ele><time>2026-04-18T07:23:26.999Z</time></trkpt><trkpt lat="48.09847216794961" lon="11.613813137077802"><ele>540.0</ele><time>2026-04-18T07:23:27.999Z</time></trkpt><trkpt lat="48.09826825498749" lon="11.613864630466336"><ele>540.0</ele><time>2026-04-18T07:23:28.999Z</time></trkpt><trkpt lat="48.09806242643795" lon="11.613914473449027"><ele>540.0</ele><time>2026-04-18T07:23:29.999Z</time></trkpt><trkpt lat="48.09786183190696" lon="11.613960594463503"><ele>540.5</ele><time>2026-04-18T07:23:30.999Z</time></trkpt><trkpt lat="48.09757159836784" lon="11.614050085821402"><ele>541.0</ele><time>2026-04-18T07:23:31.999Z</time></trkpt><trkpt lat="48.09733894985475" lon="11.61412175464203"><ele>541.0</ele><time>2026-04-18T07:23:32.999Z</time></trkpt><trkpt lat="48.0971105593017" lon="11.614190532602558"><ele>541.0</ele><time>2026-04-18T07:23:33.999Z</time></trkpt><trkpt lat="48.096884693543544" lon="11.614260600275285"><ele>541.0</ele><time>2026-04-18T07:23:34.999Z</time></trkpt><trkpt lat="48.09667061539188" lon="11.61432699544661"><ele>541.0</ele><time>2026-04-18T07:23:35.999Z</time></trkpt><trkpt lat="48.09647468525695" lon="11.61439642626265"><ele>541.0</ele><time>2026-04-18T07:23:36.999Z</time></trkpt><trkpt lat="48.09628616881086" lon="11.614452447958827"><ele>540.3333333333334</ele><time>2026-04-18T07:23:37.999Z</time></trkpt><trkpt lat="48.09611212279227" lon="11.614496895322933"><ele>539.6666666666666</ele><time>2026-04-18T07:23:38.999Z</time></trkpt><trkpt lat="48.095943758253114" lon="11.614538847247477"><ele>539.0</ele><time>2026-04-18T07:23:39.999Z</time></trkpt><trkpt lat="48.0957618650439" lon="11.614586984845362"><ele>540.0</ele><time>2026-04-18T07:23:40.999Z</time></trkpt><trkpt lat="48.09556362474217" lon="11.614637809755804"><ele>541.0</ele><time>2026-04-18T07:23:41.999Z</time></trkpt><trkpt lat="48.09536067523036" lon="11.614688723771614"><ele>542.0</ele><time>2026-04-18T07:23:42.999Z</time></trkpt><trkpt lat="48.09515546423253" lon="11.614734919147757"><ele>542.0</ele><time>2026-04-18T07:23:43.999Z</time></trkpt><trkpt lat="48.09494734577952" lon="11.614787643139412"><ele>542.0</ele><time>2026-04-18T07:23:44.999Z</time></trkpt><trkpt lat="48.094735366123054" lon="11.614845875141125"><ele>542.0</ele><time>2026-04-18T07:23:45.999Z</time></trkpt><trkpt lat="48.09452324164314" lon="11.614906431326435"><ele>542.3333333333333</ele><time>2026-04-18T07:23:46.999Z</time></trkpt><trkpt lat="48.09430492562663" lon="11.614958846307058"><ele>542.6666666666666</ele><time>2026-04-18T07:23:47.999Z</time></trkpt><trkpt lat="48.09408057112029" lon="11.615015877567862"><ele>543.0</ele><time>2026-04-18T07:23:48.999Z</time></trkpt><trkpt lat="48.09384733589608" lon="11.615078903506825"><ele>541.0</ele><time>2026-04-18T07:23:49.999Z</time></trkpt><trkpt lat="48.09361653979034" lon="11.615143210537827"><ele>539.0</ele><time>2026-04-18T07:23:50.999Z</time></trkpt><trkpt lat="48.09338678620175" lon="11.61520232927158"><ele>541.0</ele><time>2026-04-18T07:23:51.999Z</time></trkpt><trkpt lat="48.09316103106018" lon="11.615256737411146"><ele>543.0</ele><time>2026-04-18T07:23:52.999Z</time></trkpt><trkpt lat="48.09292783281077" lon="11.615316499367038"><ele>542.6666666666666</ele><time>2026-04-18T07:23:53.999Z</time></trkpt><trkpt lat="48.092712901828506" lon="11.615371779419057"><ele>542.3333333333333</ele><time>2026-04-18T07:23:54.999Z</time></trkpt><trkpt lat="48.09250516728658" lon="11.61542309237242"><ele>542.0</ele><time>2026-04-18T07:23:55.999Z</time></trkpt><trkpt lat="48.092301912642014" lon="11.615471108873704"><ele>543.0</ele><time>2026-04-18T07:23:56.999Z</time></trkpt><trkpt lat="48.09209992604761" lon="11.615517759936607"><ele>544.0</ele><time>2026-04-18T07:23:57.999Z</time></trkpt><trkpt lat="48.091900000127204" lon="11.615569538378724"><ele>545.0</ele><time>2026-04-18T07:23:58.999Z</time></trkpt><trkpt lat="48.09169975539391" lon="11.615622721377012"><ele>544.6666666666666</ele><time>2026-04-18T07:23:59.999Z</time></trkpt><trkpt lat="48.091500979911885" lon="11.615676864301536"><ele>544.3333333333334</ele><time>2026-04-18T07:24:00.999Z</time></trkpt><trkpt lat="48.091307236192044" lon="11.615734429988233"><ele>544.0</ele><time>2026-04-18T07:24:01.999Z</time></trkpt><trkpt lat="48.09111134554932" lon="11.615785091316333"><ele>544.0</ele><time>2026-04-18T07:24:02.999Z</time></trkpt><trkpt lat="48.090918129977865" lon="11.615835405697906"><ele>544.0</ele><time>2026-04-18T07:24:03.999Z</time></trkpt><trkpt lat="48.09071896020865" lon="11.615885095719591"><ele>544.0</ele><time>2026-04-18T07:24:04.999Z</time></trkpt><trkpt lat="48.09051313398508" lon="11.615934977383533"><ele>544.3333333333334</ele><time>2026-04-18T07:24:05.999Z</time></trkpt><trkpt lat="48.09029828038472" lon="11.615992349206564"><ele>544.6666666666666</ele><time>2026-04-18T07:24:06.999Z</time></trkpt><trkpt lat="48.09008547417713" lon="11.616044143417565"><ele>545.0</ele><time>2026-04-18T07:24:07.999Z</time></trkpt><trkpt lat="48.08987176751536" lon="11.616102049086303"><ele>545.0</ele><time>2026-04-18T07:24:08.999Z</time></trkpt><trkpt lat="48.08966196302354" lon="11.616155461452344"><ele>545.0</ele><time>2026-04-18T07:24:09.999Z</time></trkpt><trkpt lat="48.089451679095184" lon="11.616209256704606"><ele>545.0</ele><time>2026-04-18T07:24:10.999Z</time></trkpt><trkpt lat="48.08924356836336" lon="11.616263319417543"><ele>545.0</ele><time>2026-04-18T07:24:11.999Z</time></trkpt><trkpt lat="48.089036189927945" lon="11.616313859810827"><ele>545.0</ele><time>2026-04-18T07:24:12.999Z</time></trkpt><trkpt lat="48.088825421046224" lon="11.616367151472671"><ele>545.0</ele><time>2026-04-18T07:24:13.999Z</time></trkpt><trkpt lat="48.08860640472761" lon="11.616422003425898"><ele>545.0</ele><time>2026-04-18T07:24:14.999Z</time></trkpt><trkpt lat="48.08837767703797" lon="11.616479065385425"><ele>545.0</ele><time>2026-04-18T07:24:15.999Z</time></trkpt><trkpt lat="48.08814210481796" lon="11.616536798485095"><ele>545.5</ele><time>2026-04-18T07:24:16.999Z</time></trkpt><trkpt lat="48.08790268368263" lon="11.616598264356853"><ele>546.0</ele><time>2026-04-18T07:24:17.999Z</time></trkpt><trkpt lat="48.08766777866179" lon="11.61666016261065"><ele>546.0</ele><time>2026-04-18T07:24:18.999Z</time></trkpt><trkpt lat="48.08742984878625" lon="11.616720358408038"><ele>546.0</ele><time>2026-04-18T07:24:19.999Z</time></trkpt><trkpt lat="48.087195519002435" lon="11.616777486854751"><ele>543.5</ele><time>2026-04-18T07:24:20.999Z</time></trkpt><trkpt lat="48.08696397568307" lon="11.616838110306622"><ele>541.0</ele><time>2026-04-18T07:24:21.999Z</time></trkpt><trkpt lat="48.08673863239833" lon="11.61689824020478"><ele>542.0</ele><time>2026-04-18T07:24:22.999Z</time></trkpt><trkpt lat="48.08651978984288" lon="11.616956686859185"><ele>543.0</ele><time>2026-04-18T07:24:23.999Z</time></trkpt><trkpt lat="48.08630480551704" lon="11.617011717785136"><ele>544.0</ele><time>2026-04-18T07:24:24.999Z</time></trkpt><trkpt lat="48.086091118217695" lon="11.617065465135187"><ele>544.0</ele><time>2026-04-18T07:24:25.999Z</time></trkpt><trkpt lat="48.08587288740605" lon="11.617119894732394"><ele>544.0</ele><time>2026-04-18T07:24:26.999Z</time></trkpt><trkpt lat="48.08565463531028" lon="11.617174007748684"><ele>544.0</ele><time>2026-04-18T07:24:27.999Z</time></trkpt><trkpt lat="48.085435572126165" lon="11.617229787455091"><ele>544.3333333333334</ele><time>2026-04-18T07:24:28.999Z</time></trkpt><trkpt lat="48.08521287525139" lon="11.617286161150847"><ele>544.6666666666666</ele><time>2026-04-18T07:24:29.999Z</time></trkpt><trkpt lat="48.08499429362508" lon="11.617342963957459"><ele>545.0</ele><time>2026-04-18T07:24:30.999Z</time></trkpt><trkpt lat="48.084780883236185" lon="11.617400307207701"><ele>545.0</ele><time>2026-04-18T07:24:31.999Z</time></trkpt><trkpt lat="48.08456975800102" lon="11.617454202678383"><ele>545.0</ele><time>2026-04-18T07:24:32.999Z</time></trkpt><trkpt lat="48.084361719643134" lon="11.617506943833094"><ele>545.0</ele><time>2026-04-18T07:24:33.999Z</time></trkpt><trkpt lat="48.08414817364617" lon="11.61756473080884"><ele>545.0</ele><time>2026-04-18T07:24:34.999Z</time></trkpt><trkpt lat="48.08393598116054" lon="11.617624659932773"><ele>545.0</ele><time>2026-04-18T07:24:35.999Z</time></trkpt><trkpt lat="48.08372151884919" lon="11.617691428511238"><ele>545.0</ele><time>2026-04-18T07:24:36.999Z</time></trkpt><trkpt lat="48.08350677884591" lon="11.617761257978545"><ele>545.0</ele><time>2026-04-18T07:24:37.999Z</time></trkpt><trkpt lat="48.08328955437671" lon="11.617840891920935"><ele>545.0</ele><time>2026-04-18T07:24:38.999Z</time></trkpt><trkpt lat="48.08307152073577" lon="11.61792727722678"><ele>545.0</ele><time>2026-04-18T07:24:39.999Z</time></trkpt><trkpt lat="48.08285382744031" lon="11.618017132020501"><ele>545.5</ele><time>2026-04-18T07:24:40.999Z</time></trkpt><trkpt lat="48.08263604237099" lon="11.618105114300493"><ele>546.0</ele><time>2026-04-18T07:24:41.999Z</time></trkpt><trkpt lat="48.082415517514235" lon="11.618197718225089"><ele>547.0</ele><time>2026-04-18T07:24:42.999Z</time></trkpt><trkpt lat="48.082193068589646" lon="11.618297186737438"><ele>548.0</ele><time>2026-04-18T07:24:43.999Z</time></trkpt><trkpt lat="48.081971390352855" lon="11.61840184918455"><ele>548.0</ele><time>2026-04-18T07:24:44.999Z</time></trkpt><trkpt lat="48.08174770996226" lon="11.618511750232836"><ele>548.0</ele><time>2026-04-18T07:24:46Z</time></trkpt><trkpt lat="48.08152166213519" lon="11.618630209072705"><ele>547.5</ele><time>2026-04-18T07:24:47Z</time></trkpt><trkpt lat="48.08129742732047" lon="11.618750012549812"><ele>547.0</ele><time>2026-04-18T07:24:48Z</time></trkpt><trkpt lat="48.08106874691287" lon="11.618878237148127"><ele>547.0</ele><time>2026-04-18T07:24:49Z</time></trkpt><trkpt lat="48.08084019318251" lon="11.619015791022118"><ele>547.0</ele><time>2026-04-18T07:24:50Z</time></trkpt><trkpt lat="48.08060990536166" lon="11.619156602134307"><ele>547.0</ele><time>2026-04-18T07:24:51Z</time></trkpt><trkpt lat="48.08037847391424" lon="11.619304557437236"><ele>547.0</ele><time>2026-04-18T07:24:52Z</time></trkpt><trkpt lat="48.08014664962677" lon="11.619456731040009"><ele>547.0</ele><time>2026-04-18T07:24:53Z</time></trkpt><trkpt lat="48.07991527888626" lon="11.61961479163525"><ele>547.0</ele><time>2026-04-18T07:24:54Z</time></trkpt><trkpt lat="48.07968701898535" lon="11.619776028799574"><ele>547.0</ele><time>2026-04-18T07:24:55Z</time></trkpt><trkpt lat="48.07945985457435" lon="11.619943608032683"><ele>547.0</ele><time>2026-04-18T07:24:56Z</time></trkpt><trkpt lat="48.07923318630032" lon="11.620118100163127"><ele>547.5</ele><time>2026-04-18T07:24:57Z</time></trkpt><trkpt lat="48.07900543211535" lon="11.620298774182318"><ele>548.0</ele><time>2026-04-18T07:24:58Z</time></trkpt><trkpt lat="48.078776285431154" lon="11.620487018649174"><ele>546.5</ele><time>2026-04-18T07:24:59Z</time></trkpt><trkpt lat="48.07854521296546" lon="11.620688157341553"><ele>545.0</ele><time>2026-04-18T07:25:00Z</time></trkpt><trkpt lat="48.07831518871808" lon="11.620892190545446"><ele>546.5</ele><time>2026-04-18T07:25:01Z</time></trkpt><trkpt lat="48.07808362657216" lon="11.62109705498678"><ele>548.0</ele><time>2026-04-18T07:25:02Z</time></trkpt><trkpt lat="48.07785856278262" lon="11.621299608876942"><ele>549.0</ele><time>2026-04-18T07:25:03Z</time></trkpt><trkpt lat="48.07764778687808" lon="11.621500800101986"><ele>550.0</ele><time>2026-04-18T07:25:04Z</time></trkpt><trkpt lat="48.07744048855529" lon="11.621703350644163"><ele>550.0</ele><time>2026-04-18T07:25:05Z</time></trkpt><trkpt lat="48.07723683097838" lon="11.621901210322237"><ele>550.0</ele><time>2026-04-18T07:25:06Z</time></trkpt><trkpt lat="48.07703607646756" lon="11.622095095986104"><ele>550.5</ele><time>2026-04-18T07:25:07Z</time></trkpt><trkpt lat="48.076832863668045" lon="11.622287359751255"><ele>551.0</ele><time>2026-04-18T07:25:08Z</time></trkpt><trkpt lat="48.07662795517916" lon="11.622481800671974"><ele>550.5</ele><time>2026-04-18T07:25:09Z</time></trkpt><trkpt lat="48.076411329637544" lon="11.622687353891635"><ele>550.0</ele><time>2026-04-18T07:25:10Z</time></trkpt><trkpt lat="48.076184235109906" lon="11.6228976593847"><ele>549.5</ele><time>2026-04-18T07:25:11Z</time></trkpt><trkpt lat="48.07595762766418" lon="11.62311786594174"><ele>549.0</ele><time>2026-04-18T07:25:12Z</time></trkpt><trkpt lat="48.07573471772683" lon="11.623328039065912"><ele>548.5</ele><time>2026-04-18T07:25:13Z</time></trkpt><trkpt lat="48.07552019050504" lon="11.623528521426827"><ele>548.0</ele><time>2026-04-18T07:25:14Z</time></trkpt><trkpt lat="48.07531146248793" lon="11.62372856000891"><ele>549.0</ele><time>2026-04-18T07:25:15Z</time></trkpt><trkpt lat="48.0751074817448" lon="11.62392448298087"><ele>550.0</ele><time>2026-04-18T07:25:16Z</time></trkpt><trkpt lat="48.074902528707355" lon="11.624124096880939"><ele>550.0</ele><time>2026-04-18T07:25:17Z</time></trkpt><trkpt lat="48.07469975285305" lon="11.624322127275455"><ele>550.0</ele><time>2026-04-18T07:25:18Z</time></trkpt><trkpt lat="48.07450449115911" lon="11.624509145665266"><ele>550.0</ele><time>2026-04-18T07:25:19Z</time></trkpt><trkpt lat="48.07431788260216" lon="11.624692395497652"><ele>550.0</ele><time>2026-04-18T07:25:20Z</time></trkpt><trkpt lat="48.07414289397972" lon="11.62485871141795"><ele>550.0</ele><time>2026-04-18T07:25:21Z</time></trkpt><trkpt lat="48.073984392155566" lon="11.625010326501718"><ele>550.0</ele><time>2026-04-18T07:25:22Z</time></trkpt><trkpt lat="48.07382908815721" lon="11.625160921959313"><ele>550.0</ele><time>2026-04-18T07:25:23Z</time></trkpt><trkpt lat="48.07366873294816" lon="11.6253130965161"><ele>550.0</ele><time>2026-04-18T07:25:24Z</time></trkpt><trkpt lat="48.073511319748654" lon="11.625466132110956"><ele>550.0</ele><time>2026-04-18T07:25:25Z</time></trkpt><trkpt lat="48.07335594391475" lon="11.625618730954455"><ele>550.0</ele><time>2026-04-18T07:25:26Z</time></trkpt><trkpt lat="48.073194694628135" lon="11.625773274226077"><ele>550.0</ele><time>2026-04-18T07:25:27Z</time></trkpt><trkpt lat="48.07303419850744" lon="11.625916025439835"><ele>550.0</ele><time>2026-04-18T07:25:28Z</time></trkpt><trkpt lat="48.0728716383741" lon="11.626056912002298"><ele>550.0</ele><time>2026-04-18T07:25:29Z</time></trkpt><trkpt lat="48.07271225928144" lon="11.62620135722641"><ele>550.0</ele><time>2026-04-18T07:25:30Z</time></trkpt><trkpt lat="48.072559700055194" lon="11.626354875782482"><ele>549.0</ele><time>2026-04-18T07:25:31Z</time></trkpt><trkpt lat="48.07240558422366" lon="11.626508755130837"><ele>548.0</ele><time>2026-04-18T07:25:32Z</time></trkpt><trkpt lat="48.072248572350496" lon="11.62664631678873"><ele>547.0</ele><time>2026-04-18T07:25:33Z</time></trkpt><trkpt lat="48.07208873482315" lon="11.626776576241163"><ele>547.0</ele><time>2026-04-18T07:25:34Z</time></trkpt><trkpt lat="48.07192487783252" lon="11.626901670318077"><ele>547.0</ele><time>2026-04-18T07:25:35Z</time></trkpt><trkpt lat="48.071751572780805" lon="11.627039477540839"><ele>547.0</ele><time>2026-04-18T07:25:36Z</time></trkpt><trkpt lat="48.071601421017654" lon="11.627209240973517"><ele>547.3333333333334</ele><time>2026-04-18T07:25:37Z</time></trkpt><trkpt lat="48.071435687834295" lon="11.627368163875946"><ele>547.6666666666666</ele><time>2026-04-18T07:25:38Z</time></trkpt><trkpt lat="48.07127140498426" lon="11.627525696127917"><ele>548.0</ele><time>2026-04-18T07:25:39Z</time></trkpt><trkpt lat="48.07110884163755" lon="11.62768157955671"><ele>548.3333333333333</ele><time>2026-04-18T07:25:40Z</time></trkpt><trkpt lat="48.07099302331214" lon="11.627906273927477"><ele>548.6666666666666</ele><time>2026-04-18T07:25:41.055Z</time></trkpt><trkpt lat="48.07084256646454" lon="11.628072326508422"><ele>549.0</ele><time>2026-04-18T07:25:42.057Z</time></trkpt><trkpt lat="48.07069631287158" lon="11.62822850714058"><ele>549.0</ele><time>2026-04-18T07:25:43.052Z</time></trkpt><trkpt lat="48.0708521" lon="11.6280458"><ele>549.0</ele><time>2026-04-18T07:25:46.222Z</time></trkpt><trkpt lat="48.06983785036978" lon="11.628971127964634"><ele>549.3333333333334</ele><time>2026-04-18T07:25:49Z</time></trkpt><trkpt lat="48.06968888882579" lon="11.629114405070531"><ele>549.6666666666667</ele><time>2026-04-18T07:25:50Z</time></trkpt><trkpt lat="48.06951040765067" lon="11.629278033265651"><ele>550.0</ele><time>2026-04-18T07:25:51Z</time></trkpt><trkpt lat="48.069385164134935" lon="11.629413071081682"><ele>550.0</ele><time>2026-04-18T07:25:52Z</time></trkpt><trkpt lat="48.06923956567119" lon="11.629551770891451"><ele>550.0</ele><time>2026-04-18T07:25:53Z</time></trkpt><trkpt lat="48.06906799927266" lon="11.62973010291022"><ele>550.0</ele><time>2026-04-18T07:25:54Z</time></trkpt><trkpt lat="48.068892950279405" lon="11.629899873731798"><ele>551.0</ele><time>2026-04-18T07:25:55Z</time></trkpt><trkpt lat="48.06873295471239" lon="11.630057322441656"><ele>552.0</ele><time>2026-04-18T07:25:56Z</time></trkpt><trkpt lat="48.06857560981978" lon="11.630222580833982"><ele>553.0</ele><time>2026-04-18T07:25:57Z</time></trkpt><trkpt lat="48.068399124901525" lon="11.630386082688707"><ele>555.0</ele><time>2026-04-18T07:25:58Z</time></trkpt><trkpt lat="48.068228704925694" lon="11.630554863252673"><ele>557.0</ele><time>2026-04-18T07:25:59Z</time></trkpt><trkpt lat="48.068052463453526" lon="11.630731827505002"><ele>559.0</ele><time>2026-04-18T07:26:00Z</time></trkpt><trkpt lat="48.067881726481446" lon="11.630895899461613"><ele>559.0</ele><time>2026-04-18T07:26:01Z</time></trkpt><trkpt lat="48.0676966433556" lon="11.631070995607102"><ele>559.0</ele><time>2026-04-18T07:26:02Z</time></trkpt><trkpt lat="48.06749746414372" lon="11.63126227050641"><ele>557.5</ele><time>2026-04-18T07:26:03Z</time></trkpt><trkpt lat="48.06729109490372" lon="11.631462660211156"><ele>556.0</ele><time>2026-04-18T07:26:04Z</time></trkpt><trkpt lat="48.06708383739903" lon="11.631661830259986"><ele>556.0</ele><time>2026-04-18T07:26:05Z</time></trkpt><trkpt lat="48.06686968420312" lon="11.631872193688357"><ele>556.0</ele><time>2026-04-18T07:26:06Z</time></trkpt><trkpt lat="48.06664734570635" lon="11.632087074308346"><ele>555.0</ele><time>2026-04-18T07:26:07Z</time></trkpt><trkpt lat="48.06643361786768" lon="11.632295648195427"><ele>554.0</ele><time>2026-04-18T07:26:08Z</time></trkpt><trkpt lat="48.066229352448815" lon="11.632491981438323"><ele>554.0</ele><time>2026-04-18T07:26:09Z</time></trkpt><trkpt lat="48.06602594238738" lon="11.632688972439981"><ele>554.0</ele><time>2026-04-18T07:26:10Z</time></trkpt><trkpt lat="48.065812726838125" lon="11.632895345669903"><ele>553.5</ele><time>2026-04-18T07:26:11Z</time></trkpt><trkpt lat="48.065590271017896" lon="11.633112093956171"><ele>553.0</ele><time>2026-04-18T07:26:12Z</time></trkpt><trkpt lat="48.06536916142021" lon="11.633327016977358"><ele>553.0</ele><time>2026-04-18T07:26:13Z</time></trkpt><trkpt lat="48.06515389001498" lon="11.633537693717837"><ele>553.0</ele><time>2026-04-18T07:26:14Z</time></trkpt><trkpt lat="48.06493974286182" lon="11.633746251804558"><ele>553.5</ele><time>2026-04-18T07:26:15Z</time></trkpt><trkpt lat="48.064715757371815" lon="11.633963839507231"><ele>554.0</ele><time>2026-04-18T07:26:16Z</time></trkpt><trkpt lat="48.06448619027197" lon="11.634188992919798"><ele>554.0</ele><time>2026-04-18T07:26:17Z</time></trkpt><trkpt lat="48.0642600473226" lon="11.634408860794178"><ele>554.0</ele><time>2026-04-18T07:26:18Z</time></trkpt><trkpt lat="48.06404318176726" lon="11.634616833030371"><ele>555.0</ele><time>2026-04-18T07:26:19Z</time></trkpt><trkpt lat="48.06382808371191" lon="11.634824105627203"><ele>556.0</ele><time>2026-04-18T07:26:20Z</time></trkpt><trkpt lat="48.06361831029562" lon="11.635026279757941"><ele>556.0</ele><time>2026-04-18T07:26:21Z</time></trkpt><trkpt lat="48.06341636220166" lon="11.635218934479004"><ele>556.0</ele><time>2026-04-18T07:26:22Z</time></trkpt><trkpt lat="48.06321275533421" lon="11.635411624827594"><ele>555.5</ele><time>2026-04-18T07:26:23Z</time></trkpt><trkpt lat="48.06300322382568" lon="11.635613735230251"><ele>555.0</ele><time>2026-04-18T07:26:24Z</time></trkpt><trkpt lat="48.06278883641215" lon="11.6358209364822"><ele>555.0</ele><time>2026-04-18T07:26:25Z</time></trkpt><trkpt lat="48.062569446664014" lon="11.63602896867316"><ele>555.0</ele><time>2026-04-18T07:26:26Z</time></trkpt><trkpt lat="48.062360538431285" lon="11.636229869240967"><ele>555.0</ele><time>2026-04-18T07:26:27Z</time></trkpt><trkpt lat="48.062161622034544" lon="11.636424101901175"><ele>555.0</ele><time>2026-04-18T07:26:28Z</time></trkpt><trkpt lat="48.06197484038064" lon="11.636606415095331"><ele>555.0</ele><time>2026-04-18T07:26:29Z</time></trkpt><trkpt lat="48.06179378391017" lon="11.636779205650713"><ele>555.0</ele><time>2026-04-18T07:26:30Z</time></trkpt><trkpt lat="48.06160239841885" lon="11.63696103644692"><ele>555.0</ele><time>2026-04-18T07:26:31Z</time></trkpt><trkpt lat="48.061393883869485" lon="11.63716430755812"><ele>555.3333333333334</ele><time>2026-04-18T07:26:32Z</time></trkpt><trkpt lat="48.0612009758029" lon="11.637349475899962"><ele>555.6666666666667</ele><time>2026-04-18T07:26:33Z</time></trkpt><trkpt lat="48.06101849365767" lon="11.637525123697483"><ele>556.0</ele><time>2026-04-18T07:26:34Z</time></trkpt><trkpt lat="48.0608464436272" lon="11.63769429716856"><ele>555.6666666666667</ele><time>2026-04-18T07:26:35Z</time></trkpt><trkpt lat="48.0606807397188" lon="11.63785366826468"><ele>555.3333333333334</ele><time>2026-04-18T07:26:36Z</time></trkpt><trkpt lat="48.060512617318736" lon="11.63801514942117"><ele>555.0</ele><time>2026-04-18T07:26:37Z</time></trkpt><trkpt lat="48.060333055379196" lon="11.638186908260415"><ele>555.0</ele><time>2026-04-18T07:26:38Z</time></trkpt><trkpt lat="48.06014928917261" lon="11.638365516152675"><ele>555.0</ele><time>2026-04-18T07:26:39Z</time></trkpt><trkpt lat="48.05996574246522" lon="11.638536515003654"><ele>555.0</ele><time>2026-04-18T07:26:40Z</time></trkpt><trkpt lat="48.05978758507198" lon="11.638704403988093"><ele>555.3333333333334</ele><time>2026-04-18T07:26:41Z</time></trkpt><trkpt lat="48.059611824980024" lon="11.638873599402451"><ele>555.6666666666667</ele><time>2026-04-18T07:26:42Z</time></trkpt><trkpt lat="48.059430702453504" lon="11.639048707597588"><ele>556.0</ele><time>2026-04-18T07:26:43Z</time></trkpt><trkpt lat="48.05924261633249" lon="11.639230125541777"><ele>555.5</ele><time>2026-04-18T07:26:44Z</time></trkpt><trkpt lat="48.059037512905675" lon="11.639426258430426"><ele>555.0</ele><time>2026-04-18T07:26:45Z</time></trkpt><trkpt lat="48.05882632993883" lon="11.63963020513823"><ele>555.0</ele><time>2026-04-18T07:26:46Z</time></trkpt><trkpt lat="48.05861397367004" lon="11.639834450882457"><ele>555.0</ele><time>2026-04-18T07:26:47Z</time></trkpt><trkpt lat="48.05840075854466" lon="11.640042536751654"><ele>555.0</ele><time>2026-04-18T07:26:48Z</time></trkpt><trkpt lat="48.058185571191075" lon="11.640250392954032"><ele>555.0</ele><time>2026-04-18T07:26:49Z</time></trkpt><trkpt lat="48.05797234886018" lon="11.640455792483976"><ele>555.0</ele><time>2026-04-18T07:26:50Z</time></trkpt><trkpt lat="48.0577596703327" lon="11.640658938794694"><ele>555.0</ele><time>2026-04-18T07:26:51Z</time></trkpt><trkpt lat="48.05754595970731" lon="11.64086153299775"><ele>555.0</ele><time>2026-04-18T07:26:52Z</time></trkpt><trkpt lat="48.05733195705824" lon="11.641066251545775"><ele>555.0</ele><time>2026-04-18T07:26:53Z</time></trkpt><trkpt lat="48.05711844924358" lon="11.641273129193157"><ele>556.0</ele><time>2026-04-18T07:26:54Z</time></trkpt><trkpt lat="48.05690480684398" lon="11.641479155274967"><ele>557.0</ele><time>2026-04-18T07:26:55Z</time></trkpt><trkpt lat="48.05668455284128" lon="11.641692013245626"><ele>557.0</ele><time>2026-04-18T07:26:56Z</time></trkpt><trkpt lat="48.05646059363308" lon="11.641907812765867"><ele>557.0</ele><time>2026-04-18T07:26:57Z</time></trkpt><trkpt lat="48.05624201892524" lon="11.642116954943132"><ele>557.0</ele><time>2026-04-18T07:26:58Z</time></trkpt><trkpt lat="48.05602139733422" lon="11.642323579473203"><ele>557.0</ele><time>2026-04-18T07:26:59Z</time></trkpt><trkpt lat="48.05579639023515" lon="11.642530654427736"><ele>556.5</ele><time>2026-04-18T07:27:00Z</time></trkpt><trkpt lat="48.05555916181351" lon="11.642743318288307"><ele>556.0</ele><time>2026-04-18T07:27:01Z</time></trkpt><trkpt lat="48.05530262951177" lon="11.642963628108213"><ele>556.0</ele><time>2026-04-18T07:27:02Z</time></trkpt><trkpt lat="48.05503495658047" lon="11.643183765031912"><ele>556.0</ele><time>2026-04-18T07:27:03Z</time></trkpt><trkpt lat="48.05477157985781" lon="11.643391515004753"><ele>557.0</ele><time>2026-04-18T07:27:04Z</time></trkpt><trkpt lat="48.05450935806338" lon="11.64358886927269"><ele>558.0</ele><time>2026-04-18T07:27:05Z</time></trkpt><trkpt lat="48.05425018545719" lon="11.643779435056596"><ele>558.5</ele><time>2026-04-18T07:27:06Z</time></trkpt><trkpt lat="48.054005598254264" lon="11.643957372352649"><ele>559.0</ele><time>2026-04-18T07:27:07Z</time></trkpt><trkpt lat="48.053773179240586" lon="11.644116383862935"><ele>559.0</ele><time>2026-04-18T07:27:08Z</time></trkpt><trkpt lat="48.053534736426144" lon="11.644261500264031"><ele>559.0</ele><time>2026-04-18T07:27:09Z</time></trkpt><trkpt lat="48.05328441474729" lon="11.644406161436564"><ele>559.0</ele><time>2026-04-18T07:27:10Z</time></trkpt><trkpt lat="48.05302908921356" lon="11.64455213770407"><ele>559.0</ele><time>2026-04-18T07:27:11Z</time></trkpt><trkpt lat="48.05276868024916" lon="11.6446984348071"><ele>559.0</ele><time>2026-04-18T07:27:12Z</time></trkpt><trkpt lat="48.05250411969257" lon="11.644842414943147"><ele>559.0</ele><time>2026-04-18T07:27:13Z</time></trkpt><trkpt lat="48.052236506531194" lon="11.644979103541493"><ele>558.0</ele><time>2026-04-18T07:27:14Z</time></trkpt><trkpt lat="48.05196760407771" lon="11.645112096797702"><ele>557.0</ele><time>2026-04-18T07:27:15Z</time></trkpt><trkpt lat="48.05170184905362" lon="11.645245166875782"><ele>557.5</ele><time>2026-04-18T07:27:16Z</time></trkpt><trkpt lat="48.05143851288114" lon="11.645376096693441"><ele>558.0</ele><time>2026-04-18T07:27:17Z</time></trkpt><trkpt lat="48.05117823084903" lon="11.645506098112055"><ele>558.0</ele><time>2026-04-18T07:27:18Z</time></trkpt><trkpt lat="48.05092086731945" lon="11.645635768965192"><ele>558.0</ele><time>2026-04-18T07:27:19Z</time></trkpt><trkpt lat="48.050665049662975" lon="11.645762913073654"><ele>559.5</ele><time>2026-04-18T07:27:20Z</time></trkpt><trkpt lat="48.05040280757532" lon="11.645891520781168"><ele>561.0</ele><time>2026-04-18T07:27:21Z</time></trkpt><trkpt lat="48.050135072085965" lon="11.646024408998684"><ele>560.5</ele><time>2026-04-18T07:27:22Z</time></trkpt><trkpt lat="48.04986173644574" lon="11.646163005992372"><ele>560.0</ele><time>2026-04-18T07:27:23Z</time></trkpt><trkpt lat="48.049586085416834" lon="11.64630177382624"><ele>560.0</ele><time>2026-04-18T07:27:24Z</time></trkpt><trkpt lat="48.04931531114092" lon="11.646435884794451"><ele>560.0</ele><time>2026-04-18T07:27:25Z</time></trkpt><trkpt lat="48.04905272311429" lon="11.646565648568746"><ele>560.0</ele><time>2026-04-18T07:27:26Z</time></trkpt><trkpt lat="48.04879917764517" lon="11.646691077782894"><ele>560.0</ele><time>2026-04-18T07:27:27Z</time></trkpt><trkpt lat="48.048544905890076" lon="11.646816208395338"><ele>560.0</ele><time>2026-04-18T07:27:28Z</time></trkpt><trkpt lat="48.048284628440015" lon="11.646944291593071"><ele>560.0</ele><time>2026-04-18T07:27:29Z</time></trkpt><trkpt lat="48.04802130821532" lon="11.64707623460076"><ele>560.0</ele><time>2026-04-18T07:27:30Z</time></trkpt><trkpt lat="48.04775163966998" lon="11.647211424031841"><ele>560.0</ele><time>2026-04-18T07:27:31Z</time></trkpt><trkpt lat="48.04747134754951" lon="11.647350867051184"><ele>561.5</ele><time>2026-04-18T07:27:32Z</time></trkpt><trkpt lat="48.04718112578738" lon="11.64749436877368"><ele>563.0</ele><time>2026-04-18T07:27:33Z</time></trkpt><trkpt lat="48.046887079393294" lon="11.647642086968725"><ele>563.0</ele><time>2026-04-18T07:27:34Z</time></trkpt><trkpt lat="48.04659632156807" lon="11.647786016424813"><ele>563.0</ele><time>2026-04-18T07:27:35Z</time></trkpt><trkpt lat="48.046311177305405" lon="11.647924899484737"><ele>563.0</ele><time>2026-04-18T07:27:36Z</time></trkpt><trkpt lat="48.04603092691831" lon="11.648061083297737"><ele>563.0</ele><time>2026-04-18T07:27:37Z</time></trkpt><trkpt lat="48.04575899798813" lon="11.64819697088345"><ele>562.5</ele><time>2026-04-18T07:27:38Z</time></trkpt><trkpt lat="48.04549156254599" lon="11.648328670061188"><ele>562.0</ele><time>2026-04-18T07:27:39Z</time></trkpt><trkpt lat="48.045227375279524" lon="11.64845843492981"><ele>562.0</ele><time>2026-04-18T07:27:40Z</time></trkpt><trkpt lat="48.044966684377854" lon="11.648587469612757"><ele>562.0</ele><time>2026-04-18T07:27:41Z</time></trkpt><trkpt lat="48.04470944134416" lon="11.648713766564905"><ele>563.0</ele><time>2026-04-18T07:27:42Z</time></trkpt><trkpt lat="48.044449371209275" lon="11.648838841321883"><ele>564.0</ele><time>2026-04-18T07:27:43Z</time></trkpt><trkpt lat="48.04418206783618" lon="11.648969749084266"><ele>564.0</ele><time>2026-04-18T07:27:44Z</time></trkpt><trkpt lat="48.043906733186795" lon="11.649104973376765"><ele>564.0</ele><time>2026-04-18T07:27:45Z</time></trkpt><trkpt lat="48.04362902100416" lon="11.649242709815468"><ele>564.0</ele><time>2026-04-18T07:27:46Z</time></trkpt><trkpt lat="48.04335073544204" lon="11.649383075620008"><ele>564.0</ele><time>2026-04-18T07:27:47Z</time></trkpt><trkpt lat="48.04307508140835" lon="11.649521799825907"><ele>564.5</ele><time>2026-04-18T07:27:48Z</time></trkpt><trkpt lat="48.04280099733483" lon="11.649659116073881"><ele>565.0</ele><time>2026-04-18T07:27:49Z</time></trkpt><trkpt lat="48.04252976320409" lon="11.649795173053267"><ele>565.5</ele><time>2026-04-18T07:27:50Z</time></trkpt><trkpt lat="48.04227066874361" lon="11.64992522024015"><ele>566.0</ele><time>2026-04-18T07:27:51Z</time></trkpt><trkpt lat="48.04202209302108" lon="11.650048265601718"><ele>566.0</ele><time>2026-04-18T07:27:52Z</time></trkpt><trkpt lat="48.04177738721646" lon="11.650169188884728"><ele>566.0</ele><time>2026-04-18T07:27:53Z</time></trkpt><trkpt lat="48.04153558016705" lon="11.650287215656995"><ele>566.0</ele><time>2026-04-18T07:27:54Z</time></trkpt><trkpt lat="48.0412931519366" lon="11.65040785187243"><ele>566.0</ele><time>2026-04-18T07:27:55Z</time></trkpt><trkpt lat="48.04104650303321" lon="11.650532649715254"><ele>568.0</ele><time>2026-04-18T07:27:56Z</time></trkpt><trkpt lat="48.04079666754349" lon="11.650657376655381"><ele>570.0</ele><time>2026-04-18T07:27:57Z</time></trkpt><trkpt lat="48.040541630403474" lon="11.650782467562989"><ele>570.0</ele><time>2026-04-18T07:27:58Z</time></trkpt><trkpt lat="48.040285657744235" lon="11.650909197734808"><ele>570.0</ele><time>2026-04-18T07:27:59Z</time></trkpt><trkpt lat="48.04003268203807" lon="11.65103593782486"><ele>571.5</ele><time>2026-04-18T07:28:00Z</time></trkpt><trkpt lat="48.03977842951186" lon="11.651165444112825"><ele>573.0</ele><time>2026-04-18T07:28:01Z</time></trkpt><trkpt lat="48.039516895493904" lon="11.651298787431292"><ele>573.0</ele><time>2026-04-18T07:28:02Z</time></trkpt><trkpt lat="48.03925009600746" lon="11.65143304102548"><ele>573.0</ele><time>2026-04-18T07:28:03Z</time></trkpt><trkpt lat="48.03897945868481" lon="11.651565801208102"><ele>574.0</ele><time>2026-04-18T07:28:04Z</time></trkpt><trkpt lat="48.03870317903627" lon="11.651700627134774"><ele>575.0</ele><time>2026-04-18T07:28:05Z</time></trkpt><trkpt lat="48.038424499341716" lon="11.651841722721976"><ele>574.5</ele><time>2026-04-18T07:28:06Z</time></trkpt><trkpt lat="48.038142392929515" lon="11.651983159851047"><ele>574.0</ele><time>2026-04-18T07:28:07Z</time></trkpt><trkpt lat="48.03785207127717" lon="11.65212517609178"><ele>574.0</ele><time>2026-04-18T07:28:08Z</time></trkpt><trkpt lat="48.037558654240875" lon="11.652269154551854"><ele>574.0</ele><time>2026-04-18T07:28:09Z</time></trkpt><trkpt lat="48.03726517445334" lon="11.6524129641743"><ele>575.5</ele><time>2026-04-18T07:28:10Z</time></trkpt><trkpt lat="48.03697747411183" lon="11.652556082474572"><ele>577.0</ele><time>2026-04-18T07:28:11Z</time></trkpt><trkpt lat="48.036694065080106" lon="11.652697912762338"><ele>576.0</ele><time>2026-04-18T07:28:12Z</time></trkpt><trkpt lat="48.03642507659666" lon="11.652832525847831"><ele>575.0</ele><time>2026-04-18T07:28:13Z</time></trkpt><trkpt lat="48.036167551838666" lon="11.65295979345063"><ele>575.0</ele><time>2026-04-18T07:28:14Z</time></trkpt><trkpt lat="48.03591902372465" lon="11.653083300042878"><ele>575.0</ele><time>2026-04-18T07:28:15Z</time></trkpt><trkpt lat="48.03567694698983" lon="11.653203977480766"><ele>573.0</ele><time>2026-04-18T07:28:16Z</time></trkpt><trkpt lat="48.03543392990693" lon="11.653326429564641"><ele>571.0</ele><time>2026-04-18T07:28:17Z</time></trkpt><trkpt lat="48.03518787304653" lon="11.653449959494711"><ele>572.0</ele><time>2026-04-18T07:28:18Z</time></trkpt><trkpt lat="48.034935910186086" lon="11.653574879653968"><ele>573.0</ele><time>2026-04-18T07:28:19.001Z</time></trkpt><trkpt lat="48.03467916666818" lon="11.65370276696579"><ele>573.0</ele><time>2026-04-18T07:28:20.001Z</time></trkpt><trkpt lat="48.03441952145589" lon="11.653831035721568"><ele>573.0</ele><time>2026-04-18T07:28:21.001Z</time></trkpt><trkpt lat="48.03416522267955" lon="11.65395668175709"><ele>574.0</ele><time>2026-04-18T07:28:22.001Z</time></trkpt><trkpt lat="48.03392392119772" lon="11.65407344696046"><ele>575.0</ele><time>2026-04-18T07:28:23.001Z</time></trkpt><trkpt lat="48.03369357947706" lon="11.654185617174267"><ele>575.0</ele><time>2026-04-18T07:28:24.001Z</time></trkpt><trkpt lat="48.03346712043634" lon="11.654300023591306"><ele>575.0</ele><time>2026-04-18T07:28:25.001Z</time></trkpt><trkpt lat="48.033239362049024" lon="11.654414036101127"><ele>576.0</ele><time>2026-04-18T07:28:26.001Z</time></trkpt><trkpt lat="48.033001533291475" lon="11.654531706368347"><ele>577.0</ele><time>2026-04-18T07:28:27.001Z</time></trkpt><trkpt lat="48.03275140884673" lon="11.654655011214551"><ele>577.0</ele><time>2026-04-18T07:28:28.001Z</time></trkpt><trkpt lat="48.03249978934291" lon="11.65478184217419"><ele>577.0</ele><time>2026-04-18T07:28:29.001Z</time></trkpt><trkpt lat="48.032249130311506" lon="11.654909726529493"><ele>577.5</ele><time>2026-04-18T07:28:30.001Z</time></trkpt><trkpt lat="48.031999634898895" lon="11.655034097341494"><ele>578.0</ele><time>2026-04-18T07:28:31.001Z</time></trkpt><trkpt lat="48.031750118726414" lon="11.655159038889098"><ele>578.0</ele><time>2026-04-18T07:28:32.001Z</time></trkpt><trkpt lat="48.03149880390259" lon="11.655283478571127"><ele>578.0</ele><time>2026-04-18T07:28:33.001Z</time></trkpt><trkpt lat="48.03124380562009" lon="11.655408954456572"><ele>577.0</ele><time>2026-04-18T07:28:34.001Z</time></trkpt><trkpt lat="48.030985001284186" lon="11.655533911512231"><ele>576.0</ele><time>2026-04-18T07:28:35.001Z</time></trkpt><trkpt lat="48.03072235327128" lon="11.655663860746847"><ele>579.5</ele><time>2026-04-18T07:28:36.001Z</time></trkpt><trkpt lat="48.030458354014414" lon="11.655796444285444"><ele>583.0</ele><time>2026-04-18T07:28:37.001Z</time></trkpt><trkpt lat="48.03019796678888" lon="11.655925222660727"><ele>580.5</ele><time>2026-04-18T07:28:38.001Z</time></trkpt><trkpt lat="48.02994799431949" lon="11.6560510083418"><ele>578.0</ele><time>2026-04-18T07:28:39.001Z</time></trkpt><trkpt lat="48.02969967532409" lon="11.656174522395736"><ele>578.0</ele><time>2026-04-18T07:28:40.001Z</time></trkpt><trkpt lat="48.02945560427622" lon="11.656290306589211"><ele>578.0</ele><time>2026-04-18T07:28:41.001Z</time></trkpt><trkpt lat="48.029212744743305" lon="11.656408085709497"><ele>578.0</ele><time>2026-04-18T07:28:42.001Z</time></trkpt><trkpt lat="48.02897487331306" lon="11.65652662285013"><ele>578.0</ele><time>2026-04-18T07:28:43.001Z</time></trkpt><trkpt lat="48.028736128067834" lon="11.656648051839545"><ele>578.0</ele><time>2026-04-18T07:28:44.001Z</time></trkpt><trkpt lat="48.02849668200384" lon="11.6567706919769"><ele>578.0</ele><time>2026-04-18T07:28:45.001Z</time></trkpt><trkpt lat="48.028251309619975" lon="11.656895235551502"><ele>579.0</ele><time>2026-04-18T07:28:46.001Z</time></trkpt><trkpt lat="48.028003007673064" lon="11.657018454703207"><ele>580.0</ele><time>2026-04-18T07:28:47.001Z</time></trkpt><trkpt lat="48.02774391828294" lon="11.657146164740222"><ele>580.0</ele><time>2026-04-18T07:28:48.001Z</time></trkpt><trkpt lat="48.02747727880658" lon="11.657278750864956"><ele>580.0</ele><time>2026-04-18T07:28:49.001Z</time></trkpt><trkpt lat="48.027207037532015" lon="11.657418229369663"><ele>579.5</ele><time>2026-04-18T07:28:50.001Z</time></trkpt><trkpt lat="48.02692696478825" lon="11.6575625918193"><ele>579.0</ele><time>2026-04-18T07:28:51.001Z</time></trkpt><trkpt lat="48.0266395035218" lon="11.657706304641774"><ele>578.5</ele><time>2026-04-18T07:28:52.001Z</time></trkpt><trkpt lat="48.026347514837205" lon="11.65784533615776"><ele>578.0</ele><time>2026-04-18T07:28:53.001Z</time></trkpt><trkpt lat="48.02605737788943" lon="11.657987353860262"><ele>578.0</ele><time>2026-04-18T07:28:54.001Z</time></trkpt><trkpt lat="48.02578213698688" lon="11.658124788279293"><ele>578.0</ele><time>2026-04-18T07:28:55.001Z</time></trkpt><trkpt lat="48.0255083517396" lon="11.658262302047557"><ele>578.0</ele><time>2026-04-18T07:28:56.001Z</time></trkpt><trkpt lat="48.02523364212608" lon="11.658399456650397"><ele>578.0</ele><time>2026-04-18T07:28:57.001Z</time></trkpt><trkpt lat="48.024957025831135" lon="11.658537790136236"><ele>578.5</ele><time>2026-04-18T07:28:58.001Z</time></trkpt><trkpt lat="48.02467815147797" lon="11.658677123006838"><ele>579.0</ele><time>2026-04-18T07:28:59.001Z</time></trkpt><trkpt lat="48.02439828665547" lon="11.65881656233627"><ele>580.0</ele><time>2026-04-18T07:29:00.001Z</time></trkpt><trkpt lat="48.02412805930254" lon="11.65895097878796"><ele>581.0</ele><time>2026-04-18T07:29:01.001Z</time></trkpt><trkpt lat="48.02386573116042" lon="11.65908191426306"><ele>581.0</ele><time>2026-04-18T07:29:02.001Z</time></trkpt><trkpt lat="48.02360352376571" lon="11.659210584731447"><ele>581.0</ele><time>2026-04-18T07:29:03.001Z</time></trkpt><trkpt lat="48.02333848377457" lon="11.65934236377726"><ele>580.5</ele><time>2026-04-18T07:29:04.001Z</time></trkpt><trkpt lat="48.02306946418889" lon="11.659479825718988"><ele>580.0</ele><time>2026-04-18T07:29:05.001Z</time></trkpt><trkpt lat="48.02279675189504" lon="11.659613603498553"><ele>580.0</ele><time>2026-04-18T07:29:06.001Z</time></trkpt><trkpt lat="48.022520700692425" lon="11.659748243592652"><ele>580.0</ele><time>2026-04-18T07:29:07.001Z</time></trkpt><trkpt lat="48.02224021744466" lon="11.659886529686698"><ele>581.5</ele><time>2026-04-18T07:29:08.001Z</time></trkpt><trkpt lat="48.0219570515188" lon="11.660027508953178"><ele>583.0</ele><time>2026-04-18T07:29:09.001Z</time></trkpt><trkpt lat="48.02166975414249" lon="11.660175141191873"><ele>581.0</ele><time>2026-04-18T07:29:10.001Z</time></trkpt><trkpt lat="48.02137543587713" lon="11.660327887197813"><ele>579.0</ele><time>2026-04-18T07:29:11.001Z</time></trkpt><trkpt lat="48.0210737506678" lon="11.66048585917163"><ele>581.0</ele><time>2026-04-18T07:29:12.001Z</time></trkpt><trkpt lat="48.020768238888664" lon="11.660650923193723"><ele>583.0</ele><time>2026-04-18T07:29:13.001Z</time></trkpt><trkpt lat="48.020463377140636" lon="11.660821042233273"><ele>583.0</ele><time>2026-04-18T07:29:14.001Z</time></trkpt><trkpt lat="48.02016445445961" lon="11.660992716076322"><ele>583.0</ele><time>2026-04-18T07:29:15.001Z</time></trkpt><trkpt lat="48.019864476144775" lon="11.661167966813597"><ele>583.5</ele><time>2026-04-18T07:29:16.001Z</time></trkpt><trkpt lat="48.019561913174634" lon="11.661346877389445"><ele>584.0</ele><time>2026-04-18T07:29:17.001Z</time></trkpt><trkpt lat="48.019259172745386" lon="11.661527265116678"><ele>584.5</ele><time>2026-04-18T07:29:18.001Z</time></trkpt><trkpt lat="48.01896356590705" lon="11.661708023083467"><ele>585.0</ele><time>2026-04-18T07:29:19.001Z</time></trkpt><trkpt lat="48.018675425989336" lon="11.661887028416949"><ele>585.0</ele><time>2026-04-18T07:29:20.001Z</time></trkpt><trkpt lat="48.018394263613104" lon="11.662066121635814"><ele>585.0</ele><time>2026-04-18T07:29:21.001Z</time></trkpt><trkpt lat="48.01811681821801" lon="11.66224768872509"><ele>585.0</ele><time>2026-04-18T07:29:22.001Z</time></trkpt><trkpt lat="48.017842129003746" lon="11.662429849402725"><ele>585.0</ele><time>2026-04-18T07:29:23.001Z</time></trkpt><trkpt lat="48.01757221066516" lon="11.662610360631378"><ele>585.0</ele><time>2026-04-18T07:29:24.001Z</time></trkpt><trkpt lat="48.017306419946365" lon="11.6627915239955"><ele>585.0</ele><time>2026-04-18T07:29:25.001Z</time></trkpt><trkpt lat="48.01704200821426" lon="11.662974841007706"><ele>585.0</ele><time>2026-04-18T07:29:26.001Z</time></trkpt><trkpt lat="48.01677386222469" lon="11.663159178118962"><ele>585.0</ele><time>2026-04-18T07:29:27.001Z</time></trkpt><trkpt lat="48.016503184531686" lon="11.66334291265105"><ele>586.5</ele><time>2026-04-18T07:29:28.001Z</time></trkpt><trkpt lat="48.01623523201504" lon="11.663525287732734"><ele>588.0</ele><time>2026-04-18T07:29:29.001Z</time></trkpt><trkpt lat="48.015982765287006" lon="11.663698011098564"><ele>587.5</ele><time>2026-04-18T07:29:30.001Z</time></trkpt><trkpt lat="48.01575070776761" lon="11.663856331061876"><ele>587.0</ele><time>2026-04-18T07:29:31.001Z</time></trkpt><trkpt lat="48.01552835718285" lon="11.664010887671964"><ele>587.0</ele><time>2026-04-18T07:29:32.001Z</time></trkpt><trkpt lat="48.015309142111676" lon="11.66416264696365"><ele>587.0</ele><time>2026-04-18T07:29:33.001Z</time></trkpt><trkpt lat="48.01509395293165" lon="11.664310478699411"><ele>587.5</ele><time>2026-04-18T07:29:34.001Z</time></trkpt><trkpt lat="48.01487795533889" lon="11.664457650069847"><ele>588.0</ele><time>2026-04-18T07:29:35.001Z</time></trkpt><trkpt lat="48.01466073466744" lon="11.664603906216467"><ele>588.0</ele><time>2026-04-18T07:29:36.001Z</time></trkpt><trkpt lat="48.01444734491403" lon="11.664748875374254"><ele>588.0</ele><time>2026-04-18T07:29:37.001Z</time></trkpt><trkpt lat="48.01424266904199" lon="11.66489087605537"><ele>588.0</ele><time>2026-04-18T07:29:38.001Z</time></trkpt><trkpt lat="48.014030075400115" lon="11.665038491449899"><ele>588.0</ele><time>2026-04-18T07:29:39.001Z</time></trkpt><trkpt lat="48.013814720737855" lon="11.66518405352851"><ele>587.0</ele><time>2026-04-18T07:29:40.001Z</time></trkpt><trkpt lat="48.01360102485423" lon="11.665330353247251"><ele>586.0</ele><time>2026-04-18T07:29:41.001Z</time></trkpt><trkpt lat="48.01338886941022" lon="11.66547673732306"><ele>589.0</ele><time>2026-04-18T07:29:42.001Z</time></trkpt><trkpt lat="48.01317299966213" lon="11.66562756259985"><ele>592.0</ele><time>2026-04-18T07:29:43.001Z</time></trkpt><trkpt lat="48.01295007623766" lon="11.66578248806646"><ele>592.0</ele><time>2026-04-18T07:29:44.001Z</time></trkpt><trkpt lat="48.01271887994672" lon="11.665938350851343"><ele>592.0</ele><time>2026-04-18T07:29:45.001Z</time></trkpt><trkpt lat="48.01248146771769" lon="11.666098025188106"><ele>591.0</ele><time>2026-04-18T07:29:46.001Z</time></trkpt><trkpt lat="48.01225353498485" lon="11.666250043994506"><ele>590.0</ele><time>2026-04-18T07:29:47.001Z</time></trkpt><trkpt lat="48.01203431147131" lon="11.666403170671336"><ele>590.0</ele><time>2026-04-18T07:29:48.001Z</time></trkpt><trkpt lat="48.01181344861478" lon="11.666555080151914"><ele>590.0</ele><time>2026-04-18T07:29:49.001Z</time></trkpt><trkpt lat="48.011588517433346" lon="11.666709079153552"><ele>590.0</ele><time>2026-04-18T07:29:50.001Z</time></trkpt><trkpt lat="48.01135846798359" lon="11.666868357294383"><ele>590.0</ele><time>2026-04-18T07:29:51.001Z</time></trkpt><trkpt lat="48.01112572850576" lon="11.667028388473344"><ele>590.0</ele><time>2026-04-18T07:29:52.001Z</time></trkpt><trkpt lat="48.010901141351404" lon="11.667182081323368"><ele>590.0</ele><time>2026-04-18T07:29:53.001Z</time></trkpt><trkpt lat="48.010674922034596" lon="11.667333523140138"><ele>592.0</ele><time>2026-04-18T07:29:54.001Z</time></trkpt><trkpt lat="48.01045350055805" lon="11.667485816025378"><ele>594.0</ele><time>2026-04-18T07:29:55.001Z</time></trkpt><trkpt lat="48.0102437426093" lon="11.66762960410464"><ele>594.0</ele><time>2026-04-18T07:29:56.001Z</time></trkpt><trkpt lat="48.010043281827095" lon="11.667766381539215"><ele>594.0</ele><time>2026-04-18T07:29:57.001Z</time></trkpt><trkpt lat="48.00984264919279" lon="11.667905000086604"><ele>594.0</ele><time>2026-04-18T07:29:58.001Z</time></trkpt><trkpt lat="48.00963756330829" lon="11.668046737494269"><ele>594.5</ele><time>2026-04-18T07:29:59.001Z</time></trkpt><trkpt lat="48.009428676303614" lon="11.668190143470703"><ele>595.0</ele><time>2026-04-18T07:30:00.001Z</time></trkpt><trkpt lat="48.00921225565688" lon="11.668337357161256"><ele>594.3333333333334</ele><time>2026-04-18T07:30:01.001Z</time></trkpt><trkpt lat="48.009014197204976" lon="11.668472578498301"><ele>593.6666666666666</ele><time>2026-04-18T07:30:02.001Z</time></trkpt><trkpt lat="48.008833353376616" lon="11.668595354684928"><ele>593.0</ele><time>2026-04-18T07:30:03.001Z</time></trkpt><trkpt lat="48.00866493996702" lon="11.668713067270344"><ele>593.0</ele><time>2026-04-18T07:30:04.001Z</time></trkpt><trkpt lat="48.00850720130253" lon="11.668822521376699"><ele>593.0</ele><time>2026-04-18T07:30:05.001Z</time></trkpt><trkpt lat="48.008354532192" lon="11.668928019168696"><ele>593.0</ele><time>2026-04-18T07:30:06.001Z</time></trkpt><trkpt lat="48.0082001279023" lon="11.669031771930072"><ele>594.6666666666666</ele><time>2026-04-18T07:30:07.001Z</time></trkpt><trkpt lat="48.008046021099254" lon="11.669135077803288"><ele>596.3333333333334</ele><time>2026-04-18T07:30:08.001Z</time></trkpt><trkpt lat="48.00789829296283" lon="11.66923814926508"><ele>598.0</ele><time>2026-04-18T07:30:09.001Z</time></trkpt><trkpt lat="48.00775657921054" lon="11.669334533714418"><ele>598.0</ele><time>2026-04-18T07:30:10.001Z</time></trkpt><trkpt lat="48.0076181831058" lon="11.669430293771057"><ele>598.0</ele><time>2026-04-18T07:30:11.001Z</time></trkpt><trkpt lat="48.00748372314503" lon="11.669523500331266"><ele>598.0</ele><time>2026-04-18T07:30:12.001Z</time></trkpt><trkpt lat="48.00735260580735" lon="11.669612603804326"><ele>598.0</ele><time>2026-04-18T07:30:13.001Z</time></trkpt><trkpt lat="48.007222313875495" lon="11.669702868855907"><ele>596.75</ele><time>2026-04-18T07:30:14.001Z</time></trkpt><trkpt lat="48.007092161112716" lon="11.669790875755773"><ele>595.5</ele><time>2026-04-18T07:30:15.001Z</time></trkpt><trkpt lat="48.006962762851195" lon="11.669877758818291"><ele>594.25</ele><time>2026-04-18T07:30:16.001Z</time></trkpt><trkpt lat="48.006840254783796" lon="11.66995893794449"><ele>593.0</ele><time>2026-04-18T07:30:17.001Z</time></trkpt><trkpt lat="48.006727503372396" lon="11.670033934566412"><ele>593.25</ele><time>2026-04-18T07:30:18.001Z</time></trkpt><trkpt lat="48.00661876848441" lon="11.670108907067116"><ele>593.5</ele><time>2026-04-18T07:30:19.001Z</time></trkpt><trkpt lat="48.00651018145118" lon="11.670184180698977"><ele>593.75</ele><time>2026-04-18T07:30:20.001Z</time></trkpt><trkpt lat="48.00639933057798" lon="11.670258248547057"><ele>594.0</ele><time>2026-04-18T07:30:21.001Z</time></trkpt><trkpt lat="48.006270540341355" lon="11.670337220547795"><ele>594.0</ele><time>2026-04-18T07:30:22.001Z</time></trkpt><trkpt lat="48.0061419504799" lon="11.67040308899165"><ele>594.0</ele><time>2026-04-18T07:30:23.001Z</time></trkpt><trkpt lat="48.00603693183582" lon="11.670466293135263"><ele>594.0</ele><time>2026-04-18T07:30:24.001Z</time></trkpt><trkpt lat="48.00594451013107" lon="11.670531070217075"><ele>594.0</ele><time>2026-04-18T07:30:25.002Z</time></trkpt><trkpt lat="48.00584879101752" lon="11.670594426693121"><ele>593.0</ele><time>2026-04-18T07:30:26.002Z</time></trkpt><trkpt lat="48.00575049719125" lon="11.670652896483658"><ele>592.0</ele><time>2026-04-18T07:30:27.002Z</time></trkpt><trkpt lat="48.00564990764786" lon="11.670710541461165"><ele>591.0</ele><time>2026-04-18T07:30:28.002Z</time></trkpt><trkpt lat="48.00554515140121" lon="11.670770991201401"><ele>590.0</ele><time>2026-04-18T07:30:29.002Z</time></trkpt><trkpt lat="48.005421194855685" lon="11.670816248692637"><ele>590.0</ele><time>2026-04-18T07:30:30.002Z</time></trkpt><trkpt lat="48.00531364195654" lon="11.670876553458982"><ele>590.0</ele><time>2026-04-18T07:30:31.002Z</time></trkpt><trkpt lat="48.00521670519142" lon="11.670947674901296"><ele>590.0</ele><time>2026-04-18T07:30:32.002Z</time></trkpt><trkpt lat="48.00512297241702" lon="11.671013007415155"><ele>590.0</ele><time>2026-04-18T07:30:33.002Z</time></trkpt><trkpt lat="48.00502932345696" lon="11.671074928494518"><ele>590.0</ele><time>2026-04-18T07:30:34.002Z</time></trkpt><trkpt lat="48.004932748941805" lon="11.671142938967085"><ele>590.75</ele><time>2026-04-18T07:30:35.002Z</time></trkpt><trkpt lat="48.00482259016952" lon="11.671218555253846"><ele>591.5</ele><time>2026-04-18T07:30:36.002Z</time></trkpt><trkpt lat="48.00469838602586" lon="11.671300688809309"><ele>592.25</ele><time>2026-04-18T07:30:37.002Z</time></trkpt><trkpt lat="48.00456365815736" lon="11.671397268402265"><ele>593.0</ele><time>2026-04-18T07:30:38.002Z</time></trkpt><trkpt lat="48.00442396632039" lon="11.671495533724794"><ele>593.0</ele><time>2026-04-18T07:30:39.002Z</time></trkpt><trkpt lat="48.00429613414493" lon="11.67157977316355"><ele>593.0</ele><time>2026-04-18T07:30:40.001Z</time></trkpt><trkpt lat="48.00417091050462" lon="11.671666924623942"><ele>593.0</ele><time>2026-04-18T07:30:41.001Z</time></trkpt><trkpt lat="48.00404396499293" lon="11.671756807518282"><ele>593.0</ele><time>2026-04-18T07:30:42.001Z</time></trkpt><trkpt lat="48.00391378862238" lon="11.671844796597997"><ele>592.75</ele><time>2026-04-18T07:30:43.001Z</time></trkpt><trkpt lat="48.003781239199114" lon="11.671934333150471"><ele>592.5</ele><time>2026-04-18T07:30:44.001Z</time></trkpt><trkpt lat="48.00364941541348" lon="11.672026508913563"><ele>592.25</ele><time>2026-04-18T07:30:45.001Z</time></trkpt><trkpt lat="48.00351522402721" lon="11.672119598009566"><ele>592.0</ele><time>2026-04-18T07:30:46.001Z</time></trkpt><trkpt lat="48.003378722927806" lon="11.672211267031287"><ele>592.25</ele><time>2026-04-18T07:30:47.001Z</time></trkpt><trkpt lat="48.003243743451016" lon="11.672302459979315"><ele>592.5</ele><time>2026-04-18T07:30:48.001Z</time></trkpt><trkpt lat="48.00311125275614" lon="11.672392657902432"><ele>592.75</ele><time>2026-04-18T07:30:49.001Z</time></trkpt><trkpt lat="48.00297990756047" lon="11.672484616939741"><ele>593.0</ele><time>2026-04-18T07:30:50.001Z</time></trkpt><trkpt lat="48.00284629418742" lon="11.672579328340401"><ele>593.0</ele><time>2026-04-18T07:30:51.001Z</time></trkpt><trkpt lat="48.00270770420419" lon="11.672671759729873"><ele>593.0</ele><time>2026-04-18T07:30:52.001Z</time></trkpt><trkpt lat="48.00256580207479" lon="11.67276508577022"><ele>593.0</ele><time>2026-04-18T07:30:53.001Z</time></trkpt><trkpt lat="48.00242226020315" lon="11.672865075286587"><ele>593.3333333333333</ele><time>2026-04-18T07:30:54.001Z</time></trkpt><trkpt lat="48.00227565533234" lon="11.672965495380273"><ele>593.6666666666666</ele><time>2026-04-18T07:30:55.001Z</time></trkpt><trkpt lat="48.00212912169514" lon="11.67306313018145"><ele>594.0</ele><time>2026-04-18T07:30:56.001Z</time></trkpt><trkpt lat="48.00199244717465" lon="11.673155760401345"><ele>594.0</ele><time>2026-04-18T07:30:57.001Z</time></trkpt><trkpt lat="48.00186718548197" lon="11.673239604038065"><ele>594.0</ele><time>2026-04-18T07:30:58.001Z</time></trkpt><trkpt lat="48.00174403412753" lon="11.673322291702826"><ele>594.0</ele><time>2026-04-18T07:30:59.001Z</time></trkpt><trkpt lat="48.00162299814421" lon="11.673405521215114"><ele>594.0</ele><time>2026-04-18T07:31:00.001Z</time></trkpt><trkpt lat="48.001501742748744" lon="11.673490224932351"><ele>594.25</ele><time>2026-04-18T07:31:01.001Z</time></trkpt><trkpt lat="48.001378259162024" lon="11.673577751437861"><ele>594.5</ele><time>2026-04-18T07:31:02.001Z</time></trkpt><trkpt lat="48.001250504137595" lon="11.673666026624266"><ele>594.75</ele><time>2026-04-18T07:31:03.001Z</time></trkpt><trkpt lat="48.00112417241149" lon="11.673754483591603"><ele>595.0</ele><time>2026-04-18T07:31:04.001Z</time></trkpt><trkpt lat="48.000996191278475" lon="11.673841315603799"><ele>595.25</ele><time>2026-04-18T07:31:05.001Z</time></trkpt><trkpt lat="48.000865355436375" lon="11.673928620510944"><ele>595.5</ele><time>2026-04-18T07:31:06.001Z</time></trkpt><trkpt lat="48.00073346738531" lon="11.674017421800743"><ele>595.75</ele><time>2026-04-18T07:31:07.001Z</time></trkpt><trkpt lat="48.00060177123034" lon="11.674108282065836"><ele>596.0</ele><time>2026-04-18T07:31:08.001Z</time></trkpt><trkpt lat="48.00047295835293" lon="11.674197167845676"><ele>595.75</ele><time>2026-04-18T07:31:09.001Z</time></trkpt><trkpt lat="48.00034633928369" lon="11.674284912784715"><ele>595.5</ele><time>2026-04-18T07:31:10.001Z</time></trkpt><trkpt lat="48.00022175270788" lon="11.674369481925885"><ele>595.25</ele><time>2026-04-18T07:31:11.001Z</time></trkpt><trkpt lat="48.00009935508488" lon="11.674453225599912"><ele>595.0</ele><time>2026-04-18T07:31:12.001Z</time></trkpt><trkpt lat="47.99998127824021" lon="11.674535883476034"><ele>595.0</ele><time>2026-04-18T07:31:13.001Z</time></trkpt><trkpt lat="47.999862535510914" lon="11.674614946400487"><ele>595.0</ele><time>2026-04-18T07:31:14.001Z</time></trkpt><trkpt lat="47.99974375430101" lon="11.674697684006608"><ele>595.0</ele><time>2026-04-18T07:31:15.001Z</time></trkpt><trkpt lat="47.999619587893896" lon="11.674788237131306"><ele>595.0</ele><time>2026-04-18T07:31:16.001Z</time></trkpt><trkpt lat="47.99949642537715" lon="11.674869392900977"><ele>595.0</ele><time>2026-04-18T07:31:17.001Z</time></trkpt><trkpt lat="47.99937285310599" lon="11.67494942036928"><ele>595.0</ele><time>2026-04-18T07:31:18.001Z</time></trkpt><trkpt lat="47.999242928144476" lon="11.67503744220597"><ele>595.0</ele><time>2026-04-18T07:31:19.001Z</time></trkpt><trkpt lat="47.99911780369164" lon="11.675125070968956"><ele>595.0</ele><time>2026-04-18T07:31:20.001Z</time></trkpt><trkpt lat="47.99899212296956" lon="11.675210297990812"><ele>595.25</ele><time>2026-04-18T07:31:21.001Z</time></trkpt><trkpt lat="47.99886729254711" lon="11.675296627295063"><ele>595.5</ele><time>2026-04-18T07:31:22.001Z</time></trkpt><trkpt lat="47.998742143350974" lon="11.67538136491994"><ele>595.75</ele><time>2026-04-18T07:31:23.001Z</time></trkpt><trkpt lat="47.998617423999434" lon="11.675469583866358"><ele>596.0</ele><time>2026-04-18T07:31:24.001Z</time></trkpt><trkpt lat="47.99849395221097" lon="11.675557201871719"><ele>596.0</ele><time>2026-04-18T07:31:25.001Z</time></trkpt><trkpt lat="47.998367109294314" lon="11.675646599159114"><ele>596.0</ele><time>2026-04-18T07:31:26.001Z</time></trkpt><trkpt lat="47.99823183867349" lon="11.675738233837013"><ele>596.0</ele><time>2026-04-18T07:31:27.001Z</time></trkpt><trkpt lat="47.998092680762085" lon="11.675832246932227"><ele>596.0</ele><time>2026-04-18T07:31:28.001Z</time></trkpt><trkpt lat="47.99795566880748" lon="11.67592569345896"><ele>596.25</ele><time>2026-04-18T07:31:29.001Z</time></trkpt><trkpt lat="47.99782439295845" lon="11.676012799934316"><ele>596.5</ele><time>2026-04-18T07:31:30.001Z</time></trkpt><trkpt lat="47.997693089366955" lon="11.676100728009798"><ele>596.75</ele><time>2026-04-18T07:31:31.001Z</time></trkpt><trkpt lat="47.99756000511124" lon="11.676191201903631"><ele>597.0</ele><time>2026-04-18T07:31:32.001Z</time></trkpt><trkpt lat="47.99742609277399" lon="11.676280670644907"><ele>597.25</ele><time>2026-04-18T07:31:33.001Z</time></trkpt><trkpt lat="47.997291524179865" lon="11.6763721014528"><ele>597.5</ele><time>2026-04-18T07:31:34.001Z</time></trkpt><trkpt lat="47.9971555826936" lon="11.676468141792359"><ele>597.75</ele><time>2026-04-18T07:31:35.001Z</time></trkpt><trkpt lat="47.997018529603004" lon="11.67656373982169"><ele>598.0</ele><time>2026-04-18T07:31:36.001Z</time></trkpt><trkpt lat="47.99688177892026" lon="11.676655920376685"><ele>598.0</ele><time>2026-04-18T07:31:37.001Z</time></trkpt><trkpt lat="47.99674925357875" lon="11.676744864349791"><ele>598.0</ele><time>2026-04-18T07:31:38.001Z</time></trkpt><trkpt lat="47.99661998945209" lon="11.676834051488497"><ele>598.0</ele><time>2026-04-18T07:31:39.001Z</time></trkpt><trkpt lat="47.99649160351956" lon="11.676921880837462"><ele>598.0</ele><time>2026-04-18T07:31:40.001Z</time></trkpt><trkpt lat="47.99636400166654" lon="11.677009354004477"><ele>598.75</ele><time>2026-04-18T07:31:41.001Z</time></trkpt><trkpt lat="47.99623817191379" lon="11.67709697458893"><ele>599.5</ele><time>2026-04-18T07:31:42.001Z</time></trkpt><trkpt lat="47.99611381172632" lon="11.67718320685835"><ele>600.25</ele><time>2026-04-18T07:31:43.001Z</time></trkpt><trkpt lat="47.995988635703384" lon="11.677269530353687"><ele>601.0</ele><time>2026-04-18T07:31:44.001Z</time></trkpt><trkpt lat="47.99586510040116" lon="11.677354804047013"><ele>600.5</ele><time>2026-04-18T07:31:45.001Z</time></trkpt><trkpt lat="47.995741627242595" lon="11.677441139972908"><ele>600.0</ele><time>2026-04-18T07:31:46.001Z</time></trkpt><trkpt lat="47.995617807770095" lon="11.677528185363915"><ele>599.5</ele><time>2026-04-18T07:31:47.001Z</time></trkpt><trkpt lat="47.99549506583767" lon="11.677613593293406"><ele>599.0</ele><time>2026-04-18T07:31:48.001Z</time></trkpt><trkpt lat="47.99537175407213" lon="11.677698683005348"><ele>599.0</ele><time>2026-04-18T07:31:49.001Z</time></trkpt><trkpt lat="47.99524953796665" lon="11.677781591170698"><ele>599.0</ele><time>2026-04-18T07:31:50.001Z</time></trkpt><trkpt lat="47.99512620138509" lon="11.677866351272861"><ele>599.0</ele><time>2026-04-18T07:31:51.001Z</time></trkpt><trkpt lat="47.995003169658105" lon="11.677952037678905"><ele>599.0</ele><time>2026-04-18T07:31:52.001Z</time></trkpt><trkpt lat="47.99488006506185" lon="11.67803456055695"><ele>599.75</ele><time>2026-04-18T07:31:53.001Z</time></trkpt><trkpt lat="47.99475766694415" lon="11.678118000799747"><ele>600.5</ele><time>2026-04-18T07:31:54.001Z</time></trkpt><trkpt lat="47.99463397768486" lon="11.678202808097575"><ele>601.25</ele><time>2026-04-18T07:31:55.001Z</time></trkpt><trkpt lat="47.994511603153185" lon="11.678290761707117"><ele>602.0</ele><time>2026-04-18T07:31:56.001Z</time></trkpt><trkpt lat="47.99438687289587" lon="11.67837286514419"><ele>602.0</ele><time>2026-04-18T07:31:57.001Z</time></trkpt><trkpt lat="47.994263476455764" lon="11.678456050012752"><ele>602.0</ele><time>2026-04-18T07:31:58.001Z</time></trkpt><trkpt lat="47.994129802308265" lon="11.678548517491121"><ele>602.0</ele><time>2026-04-18T07:31:59.001Z</time></trkpt><trkpt lat="47.993967688565824" lon="11.678659596656578"><ele>603.6666666666666</ele><time>2026-04-18T07:32:00.001Z</time></trkpt><trkpt lat="47.99380340511405" lon="11.678765745956369"><ele>605.3333333333334</ele><time>2026-04-18T07:32:01.001Z</time></trkpt><trkpt lat="47.99365164141011" lon="11.678862941570676"><ele>607.0</ele><time>2026-04-18T07:32:02.001Z</time></trkpt><trkpt lat="47.993509099019626" lon="11.678952165949509"><ele>607.0</ele><time>2026-04-18T07:32:03.001Z</time></trkpt><trkpt lat="47.99337331169912" lon="11.679038285577997"><ele>607.0</ele><time>2026-04-18T07:32:04.001Z</time></trkpt><trkpt lat="47.99323914647162" lon="11.67912017843939"><ele>607.0</ele><time>2026-04-18T07:32:05.001Z</time></trkpt><trkpt lat="47.993106528051705" lon="11.679199469708031"><ele>607.0</ele><time>2026-04-18T07:32:06.001Z</time></trkpt><trkpt lat="47.99297477531139" lon="11.679276165432983"><ele>607.0</ele><time>2026-04-18T07:32:07.001Z</time></trkpt><trkpt lat="47.992839297251805" lon="11.679353986644083"><ele>607.0</ele><time>2026-04-18T07:32:08.001Z</time></trkpt><trkpt lat="47.99270090821126" lon="11.679427425426848"><ele>607.0</ele><time>2026-04-18T07:32:09.001Z</time></trkpt><trkpt lat="47.99256202793063" lon="11.679504662263547"><ele>607.0</ele><time>2026-04-18T07:32:10.001Z</time></trkpt><trkpt lat="47.992422609911046" lon="11.679581603428401"><ele>607.25</ele><time>2026-04-18T07:32:11.001Z</time></trkpt><trkpt lat="47.992284865132255" lon="11.679655016602226"><ele>607.5</ele><time>2026-04-18T07:32:12.001Z</time></trkpt><trkpt lat="47.992149676569554" lon="11.679725447747327"><ele>607.75</ele><time>2026-04-18T07:32:13.001Z</time></trkpt><trkpt lat="47.99201453703724" lon="11.67980020506504"><ele>608.0</ele><time>2026-04-18T07:32:14.001Z</time></trkpt><trkpt lat="47.99186971513138" lon="11.679877978514293"><ele>608.0</ele><time>2026-04-18T07:32:15.001Z</time></trkpt><trkpt lat="47.99172184032774" lon="11.679957965792045"><ele>608.0</ele><time>2026-04-18T07:32:16.001Z</time></trkpt><trkpt lat="47.9915794129251" lon="11.680032242093063"><ele>608.0</ele><time>2026-04-18T07:32:17.001Z</time></trkpt><trkpt lat="47.991440916616945" lon="11.680106196967369"><ele>608.75</ele><time>2026-04-18T07:32:18.001Z</time></trkpt><trkpt lat="47.99130276336822" lon="11.680174934086743"><ele>609.5</ele><time>2026-04-18T07:32:19.001Z</time></trkpt><trkpt lat="47.99116707963258" lon="11.680240636191296"><ele>610.25</ele><time>2026-04-18T07:32:20.001Z</time></trkpt><trkpt lat="47.991031931961" lon="11.680301244738844"><ele>611.0</ele><time>2026-04-18T07:32:21.001Z</time></trkpt><trkpt lat="47.990897541127765" lon="11.680358955482545"><ele>610.0</ele><time>2026-04-18T07:32:22.001Z</time></trkpt><trkpt lat="47.99076305583636" lon="11.680414544799094"><ele>609.0</ele><time>2026-04-18T07:32:23.001Z</time></trkpt><trkpt lat="47.99062916193999" lon="11.680469941609985"><ele>608.0</ele><time>2026-04-18T07:32:24.001Z</time></trkpt><trkpt lat="47.99049623413878" lon="11.680531286740761"><ele>607.0</ele><time>2026-04-18T07:32:25.001Z</time></trkpt><trkpt lat="47.990360349750475" lon="11.680588551008524"><ele>607.0</ele><time>2026-04-18T07:32:26.001Z</time></trkpt><trkpt lat="47.99022161025384" lon="11.680653281953226"><ele>607.0</ele><time>2026-04-18T07:32:27.001Z</time></trkpt><trkpt lat="47.99007912376858" lon="11.680711193068463"><ele>607.0</ele><time>2026-04-18T07:32:28.001Z</time></trkpt><trkpt lat="47.98993766693963" lon="11.680769379820147"><ele>607.0</ele><time>2026-04-18T07:32:29.001Z</time></trkpt><trkpt lat="47.98979554364368" lon="11.680824117673625"><ele>608.5</ele><time>2026-04-18T07:32:30.001Z</time></trkpt><trkpt lat="47.989652206757526" lon="11.680876527520372"><ele>610.0</ele><time>2026-04-18T07:32:31.001Z</time></trkpt><trkpt lat="47.98951160490862" lon="11.68091936374542"><ele>611.5</ele><time>2026-04-18T07:32:32.001Z</time></trkpt><trkpt lat="47.9893778887275" lon="11.68096555368903"><ele>613.0</ele><time>2026-04-18T07:32:33.001Z</time></trkpt><trkpt lat="47.989242337603926" lon="11.681015833628969"><ele>613.0</ele><time>2026-04-18T07:32:34.001Z</time></trkpt><trkpt lat="47.98910427308338" lon="11.681064842431786"><ele>613.0</ele><time>2026-04-18T07:32:35.001Z</time></trkpt><trkpt lat="47.98896093578413" lon="11.681114817140802"><ele>613.0</ele><time>2026-04-18T07:32:36.001Z</time></trkpt><trkpt lat="47.98881195718571" lon="11.681163373460185"><ele>613.0</ele><time>2026-04-18T07:32:37.001Z</time></trkpt><trkpt lat="47.98865807963834" lon="11.68121503979365"><ele>613.0</ele><time>2026-04-18T07:32:38.001Z</time></trkpt><trkpt lat="47.98850747903911" lon="11.681262661867981"><ele>613.0</ele><time>2026-04-18T07:32:39.001Z</time></trkpt><trkpt lat="47.98837446525494" lon="11.68130268180285"><ele>613.0</ele><time>2026-04-18T07:32:40.001Z</time></trkpt><trkpt lat="47.98824300190931" lon="11.681339924138907"><ele>613.0</ele><time>2026-04-18T07:32:41.001Z</time></trkpt><trkpt lat="47.98811308235959" lon="11.681379199047539"><ele>612.6666666666667</ele><time>2026-04-18T07:32:42.001Z</time></trkpt><trkpt lat="47.98797784333677" lon="11.681414762484652"><ele>612.3333333333334</ele><time>2026-04-18T07:32:43.001Z</time></trkpt><trkpt lat="47.98782469548021" lon="11.681457505461836"><ele>612.0</ele><time>2026-04-18T07:32:44.001Z</time></trkpt><trkpt lat="47.98765979590291" lon="11.681507894402696"><ele>612.0</ele><time>2026-04-18T07:32:45.001Z</time></trkpt><trkpt lat="47.987514088520825" lon="11.681549362712591"><ele>612.0</ele><time>2026-04-18T07:32:46.001Z</time></trkpt><trkpt lat="47.987378060948025" lon="11.681589030225375"><ele>612.0</ele><time>2026-04-18T07:32:47.001Z</time></trkpt><trkpt lat="47.98723989532506" lon="11.681629327556756"><ele>612.0</ele><time>2026-04-18T07:32:48.001Z</time></trkpt><trkpt lat="47.98710021498495" lon="11.68166606458642"><ele>612.0</ele><time>2026-04-18T07:32:49.001Z</time></trkpt><trkpt lat="47.98695633170662" lon="11.681702093261896"><ele>612.0</ele><time>2026-04-18T07:32:50.001Z</time></trkpt><trkpt lat="47.98681199454199" lon="11.68175076775271"><ele>612.0</ele><time>2026-04-18T07:32:51.001Z</time></trkpt><trkpt lat="47.986665992495865" lon="11.681784086945274"><ele>612.0</ele><time>2026-04-18T07:32:52.001Z</time></trkpt><trkpt lat="47.986534511945365" lon="11.681818208793871"><ele>612.0</ele><time>2026-04-18T07:32:53.001Z</time></trkpt><trkpt lat="47.98641500598728" lon="11.681866136650264"><ele>612.0</ele><time>2026-04-18T07:32:54.001Z</time></trkpt><trkpt lat="47.9862889943321" lon="11.681884277365954"><ele>612.0</ele><time>2026-04-18T07:32:55.001Z</time></trkpt><trkpt lat="47.9861682027248" lon="11.681937555135386"><ele>612.0</ele><time>2026-04-18T07:32:56.001Z</time></trkpt><trkpt lat="47.98604439795765" lon="11.681960688335778"><ele>612.0</ele><time>2026-04-18T07:32:57.001Z</time></trkpt><trkpt lat="47.98592397783115" lon="11.68200348945056"><ele>612.0</ele><time>2026-04-18T07:32:58.001Z</time></trkpt><trkpt lat="47.98579756676804" lon="11.682034059883748"><ele>612.0</ele><time>2026-04-18T07:32:59.001Z</time></trkpt><trkpt lat="47.9856632285278" lon="11.682060698019985"><ele>612.0</ele><time>2026-04-18T07:33:00.001Z</time></trkpt><trkpt lat="47.98552366150485" lon="11.682108860449667"><ele>612.0</ele><time>2026-04-18T07:33:01.001Z</time></trkpt><trkpt lat="47.98537582696231" lon="11.682150090173307"><ele>612.0</ele><time>2026-04-18T07:33:02.001Z</time></trkpt><trkpt lat="47.98522319611162" lon="11.68218863609852"><ele>612.0</ele><time>2026-04-18T07:33:03.001Z</time></trkpt><trkpt lat="47.98507175842185" lon="11.682229190111658"><ele>612.0</ele><time>2026-04-18T07:33:04.001Z</time></trkpt><trkpt lat="47.984930326842104" lon="11.682269946694932"><ele>612.0</ele><time>2026-04-18T07:33:05.001Z</time></trkpt><trkpt lat="47.984799133695375" lon="11.682307151740208"><ele>612.0</ele><time>2026-04-18T07:33:06.001Z</time></trkpt><trkpt lat="47.984669071498125" lon="11.682346533432668"><ele>612.0</ele><time>2026-04-18T07:33:07.001Z</time></trkpt><trkpt lat="47.98453745810371" lon="11.682385145522789"><ele>612.0</ele><time>2026-04-18T07:33:08.001Z</time></trkpt><trkpt lat="47.98440357004067" lon="11.682421075371266"><ele>612.0</ele><time>2026-04-18T07:33:09.001Z</time></trkpt><trkpt lat="47.984269775407014" lon="11.682457922738397"><ele>612.0</ele><time>2026-04-18T07:33:10.001Z</time></trkpt><trkpt lat="47.98413594481504" lon="11.68249797953005"><ele>612.0</ele><time>2026-04-18T07:33:11.001Z</time></trkpt><trkpt lat="47.98399864266744" lon="11.682538722813813"><ele>612.5</ele><time>2026-04-18T07:33:12.001Z</time></trkpt><trkpt lat="47.9838579187067" lon="11.682576755645755"><ele>613.0</ele><time>2026-04-18T07:33:13.001Z</time></trkpt><trkpt lat="47.98371835096048" lon="11.682613681679461"><ele>613.5</ele><time>2026-04-18T07:33:14.001Z</time></trkpt><trkpt lat="47.983579566530366" lon="11.682651600150336"><ele>614.0</ele><time>2026-04-18T07:33:15.001Z</time></trkpt><trkpt lat="47.98344153439678" lon="11.682690515003031"><ele>614.25</ele><time>2026-04-18T07:33:16.001Z</time></trkpt><trkpt lat="47.98330446685905" lon="11.682727846817162"><ele>614.5</ele><time>2026-04-18T07:33:17.001Z</time></trkpt><trkpt lat="47.98316577766032" lon="11.68276910499165"><ele>614.75</ele><time>2026-04-18T07:33:18.001Z</time></trkpt><trkpt lat="47.98302423969092" lon="11.682810940644242"><ele>615.0</ele><time>2026-04-18T07:33:19.001Z</time></trkpt><trkpt lat="47.98288058722998" lon="11.68285285663806"><ele>615.0</ele><time>2026-04-18T07:33:20.001Z</time></trkpt><trkpt lat="47.9827413139945" lon="11.6828912445859"><ele>615.0</ele><time>2026-04-18T07:33:21Z</time></trkpt><trkpt lat="47.982603103927275" lon="11.682930544031308"><ele>615.0</ele><time>2026-04-18T07:33:22Z</time></trkpt><trkpt lat="47.982460937440365" lon="11.682972962962799"><ele>615.0</ele><time>2026-04-18T07:33:23Z</time></trkpt><trkpt lat="47.98231419969442" lon="11.683009858854236"><ele>615.3333333333334</ele><time>2026-04-18T07:33:24Z</time></trkpt><trkpt lat="47.982164215274175" lon="11.683048225491984"><ele>615.6666666666667</ele><time>2026-04-18T07:33:25Z</time></trkpt><trkpt lat="47.98201308258324" lon="11.683090068322171"><ele>616.0</ele><time>2026-04-18T07:33:26Z</time></trkpt><trkpt lat="47.981862702772766" lon="11.683132318867946"><ele>616.0</ele><time>2026-04-18T07:33:27Z</time></trkpt><trkpt lat="47.98171181113293" lon="11.683177468734938"><ele>616.0</ele><time>2026-04-18T07:33:28Z</time></trkpt><trkpt lat="47.981562399321525" lon="11.683219885290473"><ele>616.0</ele><time>2026-04-18T07:33:29Z</time></trkpt><trkpt lat="47.98141608311405" lon="11.683260311510786"><ele>616.0</ele><time>2026-04-18T07:33:30Z</time></trkpt><trkpt lat="47.98127336426568" lon="11.68330016464738"><ele>616.0</ele><time>2026-04-18T07:33:31Z</time></trkpt><trkpt lat="47.9811339066712" lon="11.683339434707763"><ele>616.0</ele><time>2026-04-18T07:33:32Z</time></trkpt><trkpt lat="47.980994865739326" lon="11.683380191767897"><ele>616.0</ele><time>2026-04-18T07:33:33Z</time></trkpt><trkpt lat="47.98086464837402" lon="11.683417006321058"><ele>616.5</ele><time>2026-04-18T07:33:34Z</time></trkpt><trkpt lat="47.98074810846059" lon="11.683445924064415"><ele>617.0</ele><time>2026-04-18T07:33:35Z</time></trkpt><trkpt lat="47.980628849842205" lon="11.683479382647407"><ele>617.5</ele><time>2026-04-18T07:33:36Z</time></trkpt><trkpt lat="47.98050829221522" lon="11.683516305836603"><ele>618.0</ele><time>2026-04-18T07:33:37Z</time></trkpt><trkpt lat="47.98037940509294" lon="11.683551188047833"><ele>618.0</ele><time>2026-04-18T07:33:38Z</time></trkpt><trkpt lat="47.98024557547366" lon="11.683587036567369"><ele>618.0</ele><time>2026-04-18T07:33:39Z</time></trkpt><trkpt lat="47.98010920608001" lon="11.683627468963543"><ele>618.0</ele><time>2026-04-18T07:33:40Z</time></trkpt><trkpt lat="47.97997742559234" lon="11.683666812648003"><ele>618.0</ele><time>2026-04-18T07:33:41Z</time></trkpt><trkpt lat="47.97984835373341" lon="11.683704133157585"><ele>616.75</ele><time>2026-04-18T07:33:42Z</time></trkpt><trkpt lat="47.97971596515366" lon="11.68373845261341"><ele>615.5</ele><time>2026-04-18T07:33:43Z</time></trkpt><trkpt lat="47.97957519408629" lon="11.68377260673667"><ele>614.25</ele><time>2026-04-18T07:33:44Z</time></trkpt><trkpt lat="47.979432846905425" lon="11.683811104309893"><ele>613.0</ele><time>2026-04-18T07:33:45Z</time></trkpt><trkpt lat="47.97929058557179" lon="11.683852279395376"><ele>613.5</ele><time>2026-04-18T07:33:46Z</time></trkpt><trkpt lat="47.97914552835201" lon="11.683895649163555"><ele>614.0</ele><time>2026-04-18T07:33:47Z</time></trkpt><trkpt lat="47.97899910991196" lon="11.683941148306445"><ele>614.5</ele><time>2026-04-18T07:33:48Z</time></trkpt><trkpt lat="47.97885324869047" lon="11.683986567214676"><ele>615.0</ele><time>2026-04-18T07:33:49Z</time></trkpt><trkpt lat="47.97870635298916" lon="11.684028069581531"><ele>615.0</ele><time>2026-04-18T07:33:50Z</time></trkpt><trkpt lat="47.97855756793084" lon="11.684071061248535"><ele>615.0</ele><time>2026-04-18T07:33:51Z</time></trkpt><trkpt lat="47.97841149360175" lon="11.684112690454356"><ele>615.0</ele><time>2026-04-18T07:33:52Z</time></trkpt><trkpt lat="47.97827033834791" lon="11.684149242450472"><ele>615.0</ele><time>2026-04-18T07:33:53Z</time></trkpt><trkpt lat="47.97812887826229" lon="11.684186712979622"><ele>616.25</ele><time>2026-04-18T07:33:54Z</time></trkpt><trkpt lat="47.977987206209704" lon="11.684227009327921"><ele>617.5</ele><time>2026-04-18T07:33:55Z</time></trkpt><trkpt lat="47.97784572673551" lon="11.684269499234603"><ele>618.75</ele><time>2026-04-18T07:33:56Z</time></trkpt><trkpt lat="47.97770568227486" lon="11.684308307372886"><ele>620.0</ele><time>2026-04-18T07:33:57Z</time></trkpt><trkpt lat="47.977576359222525" lon="11.684342677608102"><ele>620.25</ele><time>2026-04-18T07:33:58Z</time></trkpt><trkpt lat="47.97745015587045" lon="11.684381280187996"><ele>620.5</ele><time>2026-04-18T07:33:59Z</time></trkpt><trkpt lat="47.97732267549815" lon="11.68442220501643"><ele>620.75</ele><time>2026-04-18T07:34:00Z</time></trkpt><trkpt lat="47.97718588799646" lon="11.684463949126483"><ele>621.0</ele><time>2026-04-18T07:34:01Z</time></trkpt><trkpt lat="47.97704457736356" lon="11.684501323918239"><ele>620.5</ele><time>2026-04-18T07:34:02Z</time></trkpt><trkpt lat="47.976906285938476" lon="11.684546724627827"><ele>620.0</ele><time>2026-04-18T07:34:03Z</time></trkpt><trkpt lat="47.97676870879194" lon="11.68460280434094"><ele>619.5</ele><time>2026-04-18T07:34:04Z</time></trkpt><trkpt lat="47.97662806505184" lon="11.684660504413616"><ele>619.0</ele><time>2026-04-18T07:34:05Z</time></trkpt><trkpt lat="47.976487507900714" lon="11.684712961687303"><ele>619.0</ele><time>2026-04-18T07:34:06Z</time></trkpt><trkpt lat="47.976357483525106" lon="11.68475343369735"><ele>619.0</ele><time>2026-04-18T07:34:07Z</time></trkpt><trkpt lat="47.976227602192104" lon="11.684785000585224"><ele>619.0</ele><time>2026-04-18T07:34:08Z</time></trkpt><trkpt lat="47.976094994022006" lon="11.684821088030617"><ele>619.0</ele><time>2026-04-18T07:34:09Z</time></trkpt><trkpt lat="47.97595617414623" lon="11.684862112378777"><ele>621.0</ele><time>2026-04-18T07:34:10Z</time></trkpt><trkpt lat="47.97580780064639" lon="11.684906440855848"><ele>623.0</ele><time>2026-04-18T07:34:11Z</time></trkpt><trkpt lat="47.9756577211293" lon="11.684949554516614"><ele>625.0</ele><time>2026-04-18T07:34:12Z</time></trkpt><trkpt lat="47.97550660905528" lon="11.684990179378964"><ele>625.0</ele><time>2026-04-18T07:34:13Z</time></trkpt><trkpt lat="47.97535588080349" lon="11.685031383030555"><ele>625.0</ele><time>2026-04-18T07:34:14Z</time></trkpt><trkpt lat="47.975208701842654" lon="11.685073164181386"><ele>625.0</ele><time>2026-04-18T07:34:15Z</time></trkpt><trkpt lat="47.97506523935564" lon="11.685113550108602"><ele>625.0</ele><time>2026-04-18T07:34:16Z</time></trkpt><trkpt lat="47.97492655174696" lon="11.68515321644457"><ele>626.0</ele><time>2026-04-18T07:34:17Z</time></trkpt><trkpt lat="47.974788551540286" lon="11.685193875754587"><ele>627.0</ele><time>2026-04-18T07:34:18Z</time></trkpt><trkpt lat="47.97465337066311" lon="11.685234993801975"><ele>628.0</ele><time>2026-04-18T07:34:19Z</time></trkpt><trkpt lat="47.97452062234718" lon="11.685272989181476"><ele>629.0</ele><time>2026-04-18T07:34:20Z</time></trkpt><trkpt lat="47.97438483263093" lon="11.685308958630506"><ele>629.0</ele><time>2026-04-18T07:34:21Z</time></trkpt><trkpt lat="47.97424561378554" lon="11.685347357452683"><ele>629.0</ele><time>2026-04-18T07:34:22Z</time></trkpt><trkpt lat="47.974103575011796" lon="11.685386052067116"><ele>629.0</ele><time>2026-04-18T07:34:23Z</time></trkpt><trkpt lat="47.973959263364414" lon="11.685424456296246"><ele>629.0</ele><time>2026-04-18T07:34:24Z</time></trkpt><trkpt lat="47.97381377890733" lon="11.685464619568922"><ele>629.0</ele><time>2026-04-18T07:34:25Z</time></trkpt><trkpt lat="47.973670731398634" lon="11.685507553196405"><ele>629.0</ele><time>2026-04-18T07:34:26Z</time></trkpt><trkpt lat="47.97353058247891" lon="11.685552154493028"><ele>629.0</ele><time>2026-04-18T07:34:27Z</time></trkpt><trkpt lat="47.97339723186201" lon="11.685592399043422"><ele>629.0</ele><time>2026-04-18T07:34:28Z</time></trkpt><trkpt lat="47.973269035164805" lon="11.68562664930053"><ele>627.25</ele><time>2026-04-18T07:34:29Z</time></trkpt><trkpt lat="47.97314468006464" lon="11.68565716017483"><ele>625.5</ele><time>2026-04-18T07:34:30Z</time></trkpt><trkpt lat="47.973020129571324" lon="11.685687987070567"><ele>623.75</ele><time>2026-04-18T07:34:31Z</time></trkpt><trkpt lat="47.97288616354097" lon="11.685724647726891"><ele>622.0</ele><time>2026-04-18T07:34:32Z</time></trkpt><trkpt lat="47.972744724694074" lon="11.685764405330959"><ele>622.0</ele><time>2026-04-18T07:34:33Z</time></trkpt><trkpt lat="47.97260144426099" lon="11.685806713066993"><ele>622.0</ele><time>2026-04-18T07:34:34Z</time></trkpt><trkpt lat="47.97246057312206" lon="11.685847608705684"><ele>622.0</ele><time>2026-04-18T07:34:34.999Z</time></trkpt><trkpt lat="47.97232271864609" lon="11.68588645431188"><ele>622.0</ele><time>2026-04-18T07:34:35.999Z</time></trkpt><trkpt lat="47.972179862268696" lon="11.685927699511119"><ele>621.75</ele><time>2026-04-18T07:34:37Z</time></trkpt><trkpt lat="47.972045030311484" lon="11.685964877722494"><ele>621.5</ele><time>2026-04-18T07:34:38Z</time></trkpt><trkpt lat="47.971926787240555" lon="11.685994581588433"><ele>621.25</ele><time>2026-04-18T07:34:39Z</time></trkpt><trkpt lat="47.97181781686178" lon="11.686024341684421"><ele>621.0</ele><time>2026-04-18T07:34:40Z</time></trkpt><trkpt lat="47.97170920583436" lon="11.68605612972713"><ele>621.5</ele><time>2026-04-18T07:34:41Z</time></trkpt><trkpt lat="47.97159026716413" lon="11.68609277937206"><ele>622.0</ele><time>2026-04-18T07:34:42Z</time></trkpt><trkpt lat="47.971442607294705" lon="11.686129538306783"><ele>622.5</ele><time>2026-04-18T07:34:43Z</time></trkpt><trkpt lat="47.97127434854701" lon="11.686174548069333"><ele>623.0</ele><time>2026-04-18T07:34:44Z</time></trkpt><trkpt lat="47.97107159782124" lon="11.6862462242199"><ele>623.0</ele><time>2026-04-18T07:34:45Z</time></trkpt><trkpt lat="47.97089132318101" lon="11.686303427883916"><ele>623.0</ele><time>2026-04-18T07:34:46Z</time></trkpt><trkpt lat="47.970727893558774" lon="11.686352074677039"><ele>623.0</ele><time>2026-04-18T07:34:47Z</time></trkpt><trkpt lat="47.9705780899642" lon="11.686396132114131"><ele>623.0</ele><time>2026-04-18T07:34:48Z</time></trkpt><trkpt lat="47.970436996513705" lon="11.68643491992115"><ele>623.0</ele><time>2026-04-18T07:34:49Z</time></trkpt><trkpt lat="47.970296379652346" lon="11.686474257433051"><ele>623.0</ele><time>2026-04-18T07:34:50Z</time></trkpt><trkpt lat="47.97015393927931" lon="11.686512778709794"><ele>623.0</ele><time>2026-04-18T07:34:51Z</time></trkpt><trkpt lat="47.9700074528975" lon="11.686557906471334"><ele>623.0</ele><time>2026-04-18T07:34:52Z</time></trkpt><trkpt lat="47.96985785141917" lon="11.686603736867294"><ele>623.0</ele><time>2026-04-18T07:34:53Z</time></trkpt><trkpt lat="47.96970293554884" lon="11.686650390919837"><ele>623.0</ele><time>2026-04-18T07:34:54Z</time></trkpt><trkpt lat="47.9695506030958" lon="11.686697109531737"><ele>623.0</ele><time>2026-04-18T07:34:55Z</time></trkpt><trkpt lat="47.96939779860494" lon="11.686741081412416"><ele>623.0</ele><time>2026-04-18T07:34:56Z</time></trkpt><trkpt lat="47.96924687132939" lon="11.686783209161394"><ele>623.0</ele><time>2026-04-18T07:34:57Z</time></trkpt><trkpt lat="47.96909761771561" lon="11.686824725892194"><ele>623.0</ele><time>2026-04-18T07:34:58Z</time></trkpt><trkpt lat="47.968950132480074" lon="11.686865197230308"><ele>623.0</ele><time>2026-04-18T07:34:59Z</time></trkpt><trkpt lat="47.968802282413414" lon="11.686907185746788"><ele>623.0</ele><time>2026-04-18T07:35:00Z</time></trkpt><trkpt lat="47.96865741790083" lon="11.68694790225088"><ele>623.0</ele><time>2026-04-18T07:35:01Z</time></trkpt><trkpt lat="47.968512893876856" lon="11.686988835561733"><ele>623.3333333333333</ele><time>2026-04-18T07:35:02Z</time></trkpt><trkpt lat="47.96836599146773" lon="11.687030593877731"><ele>623.6666666666666</ele><time>2026-04-18T07:35:03Z</time></trkpt><trkpt lat="47.96821337173595" lon="11.687072363494552"><ele>624.0</ele><time>2026-04-18T07:35:04Z</time></trkpt><trkpt lat="47.968057646999746" lon="11.687116220888194"><ele>624.0</ele><time>2026-04-18T07:35:05Z</time></trkpt><trkpt lat="47.96790155711186" lon="11.687160524003477"><ele>624.0</ele><time>2026-04-18T07:35:06Z</time></trkpt><trkpt lat="47.967748052002776" lon="11.68720461512441"><ele>624.0</ele><time>2026-04-18T07:35:07Z</time></trkpt><trkpt lat="47.967596170858805" lon="11.687246624821999"><ele>624.6666666666666</ele><time>2026-04-18T07:35:08Z</time></trkpt><trkpt lat="47.967444109396254" lon="11.687287564248415"><ele>625.3333333333333</ele><time>2026-04-18T07:35:09Z</time></trkpt><trkpt lat="47.967291880885526" lon="11.687329222155302"><ele>626.0</ele><time>2026-04-18T07:35:10Z</time></trkpt><trkpt lat="47.9671390195201" lon="11.687372920617934"><ele>626.0</ele><time>2026-04-18T07:35:11Z</time></trkpt><trkpt lat="47.96698403563385" lon="11.687419157898063"><ele>626.0</ele><time>2026-04-18T07:35:12Z</time></trkpt><trkpt lat="47.96682674018587" lon="11.687463246454055"><ele>626.0</ele><time>2026-04-18T07:35:13Z</time></trkpt><trkpt lat="47.966668351481026" lon="11.687507343600576"><ele>626.25</ele><time>2026-04-18T07:35:14Z</time></trkpt><trkpt lat="47.966517815040675" lon="11.68754972812973"><ele>626.5</ele><time>2026-04-18T07:35:15Z</time></trkpt><trkpt lat="47.966376399736674" lon="11.68758874105123"><ele>626.75</ele><time>2026-04-18T07:35:16Z</time></trkpt><trkpt lat="47.96623472999888" lon="11.687628881906981"><ele>627.0</ele><time>2026-04-18T07:35:17Z</time></trkpt><trkpt lat="47.96608876701448" lon="11.687670738928485"><ele>627.0</ele><time>2026-04-18T07:35:18Z</time></trkpt><trkpt lat="47.965938182910605" lon="11.68771370278013"><ele>627.0</ele><time>2026-04-18T07:35:19Z</time></trkpt><trkpt lat="47.96578706420517" lon="11.68775456066763"><ele>627.0</ele><time>2026-04-18T07:35:20Z</time></trkpt><trkpt lat="47.96563534411849" lon="11.687798089765744"><ele>628.0</ele><time>2026-04-18T07:35:21Z</time></trkpt><trkpt lat="47.965482711593154" lon="11.687843105147927"><ele>629.0</ele><time>2026-04-18T07:35:22Z</time></trkpt><trkpt lat="47.9653293486786" lon="11.687885665201009"><ele>630.0</ele><time>2026-04-18T07:35:23Z</time></trkpt><trkpt lat="47.965174205446935" lon="11.687925409391347"><ele>630.3333333333334</ele><time>2026-04-18T07:35:24Z</time></trkpt><trkpt lat="47.96501723163888" lon="11.687967255705246"><ele>630.6666666666667</ele><time>2026-04-18T07:35:25Z</time></trkpt><trkpt lat="47.96486187409669" lon="11.688011136043254"><ele>631.0</ele><time>2026-04-18T07:35:26Z</time></trkpt><trkpt lat="47.96470994486265" lon="11.688055952763502"><ele>631.0</ele><time>2026-04-18T07:35:27Z</time></trkpt><trkpt lat="47.96456031443747" lon="11.68809887577596"><ele>631.0</ele><time>2026-04-18T07:35:28Z</time></trkpt><trkpt lat="47.96440482534776" lon="11.68814376241161"><ele>631.0</ele><time>2026-04-18T07:35:29Z</time></trkpt><trkpt lat="47.96424724611039" lon="11.688188821928067"><ele>631.0</ele><time>2026-04-18T07:35:30Z</time></trkpt><trkpt lat="47.964092783160886" lon="11.688233267487538"><ele>631.0</ele><time>2026-04-18T07:35:31Z</time></trkpt><trkpt lat="47.963942242864476" lon="11.688278305579166"><ele>631.0</ele><time>2026-04-18T07:35:32Z</time></trkpt><trkpt lat="47.96379828994221" lon="11.688321168084823"><ele>631.0</ele><time>2026-04-18T07:35:33Z</time></trkpt><trkpt lat="47.963658892077724" lon="11.688364055103289"><ele>631.0</ele><time>2026-04-18T07:35:34Z</time></trkpt><trkpt lat="47.96352032041938" lon="11.688406542880724"><ele>631.0</ele><time>2026-04-18T07:35:35Z</time></trkpt><trkpt lat="47.963382575700926" lon="11.688448711172953"><ele>631.0</ele><time>2026-04-18T07:35:36Z</time></trkpt><trkpt lat="47.96324323247385" lon="11.688494139993974"><ele>630.5</ele><time>2026-04-18T07:35:37Z</time></trkpt><trkpt lat="47.963099072186836" lon="11.68854132864255"><ele>630.0</ele><time>2026-04-18T07:35:38Z</time></trkpt><trkpt lat="47.962953884145584" lon="11.688588602964112"><ele>629.5</ele><time>2026-04-18T07:35:39Z</time></trkpt><trkpt lat="47.96280885726886" lon="11.688638521464535"><ele>629.0</ele><time>2026-04-18T07:35:40Z</time></trkpt><trkpt lat="47.96266473626802" lon="11.688689304898613"><ele>629.25</ele><time>2026-04-18T07:35:41Z</time></trkpt><trkpt lat="47.96252476544911" lon="11.688738718281757"><ele>629.5</ele><time>2026-04-18T07:35:42Z</time></trkpt><trkpt lat="47.96239033555993" lon="11.688784764819568"><ele>629.75</ele><time>2026-04-18T07:35:43Z</time></trkpt><trkpt lat="47.96225978230742" lon="11.688829864557745"><ele>630.0</ele><time>2026-04-18T07:35:44Z</time></trkpt><trkpt lat="47.96212492835287" lon="11.688877462986014"><ele>630.0</ele><time>2026-04-18T07:35:45Z</time></trkpt><trkpt lat="47.96198022066906" lon="11.68892824056552"><ele>630.0</ele><time>2026-04-18T07:35:46Z</time></trkpt><trkpt lat="47.961833295511745" lon="11.68898081458571"><ele>630.0</ele><time>2026-04-18T07:35:47Z</time></trkpt><trkpt lat="47.96168849807836" lon="11.689034922680738"><ele>630.0</ele><time>2026-04-18T07:35:48Z</time></trkpt><trkpt lat="47.961551251392976" lon="11.689090534465548"><ele>630.0</ele><time>2026-04-18T07:35:49Z</time></trkpt><trkpt lat="47.96140657052172" lon="11.68914824911175"><ele>630.0</ele><time>2026-04-18T07:35:50Z</time></trkpt><trkpt lat="47.96125844266465" lon="11.689207233422486"><ele>630.0</ele><time>2026-04-18T07:35:51Z</time></trkpt><trkpt lat="47.96111032053361" lon="11.689264457936583"><ele>630.0</ele><time>2026-04-18T07:35:52Z</time></trkpt><trkpt lat="47.96096147108111" lon="11.689323324251557"><ele>630.0</ele><time>2026-04-18T07:35:53Z</time></trkpt><trkpt lat="47.9608122988348" lon="11.68938401039685"><ele>630.0</ele><time>2026-04-18T07:35:54Z</time></trkpt><trkpt lat="47.96066263792022" lon="11.689447523774062"><ele>631.6666666666666</ele><time>2026-04-18T07:35:55Z</time></trkpt><trkpt lat="47.96051234489298" lon="11.689511260880405"><ele>633.3333333333333</ele><time>2026-04-18T07:35:56Z</time></trkpt><trkpt lat="47.96036336852383" lon="11.689574249022858"><ele>635.0</ele><time>2026-04-18T07:35:57Z</time></trkpt><trkpt lat="47.960216544031475" lon="11.68963878252779"><ele>635.0</ele><time>2026-04-18T07:35:58Z</time></trkpt><trkpt lat="47.96007315583344" lon="11.689701696129815"><ele>635.0</ele><time>2026-04-18T07:35:59Z</time></trkpt><trkpt lat="47.95993150824655" lon="11.68976422201514"><ele>635.0</ele><time>2026-04-18T07:36:00Z</time></trkpt><trkpt lat="47.95978864450549" lon="11.689825304574702"><ele>635.0</ele><time>2026-04-18T07:36:01Z</time></trkpt><trkpt lat="47.959645325897185" lon="11.689889562352391"><ele>633.6666666666666</ele><time>2026-04-18T07:36:02Z</time></trkpt><trkpt lat="47.9595021928757" lon="11.689957630204105"><ele>632.3333333333334</ele><time>2026-04-18T07:36:03Z</time></trkpt><trkpt lat="47.95935888113576" lon="11.690025233295327"><ele>631.0</ele><time>2026-04-18T07:36:04Z</time></trkpt><trkpt lat="47.95921416259574" lon="11.690094055285254"><ele>631.6666666666667</ele><time>2026-04-18T07:36:05Z</time></trkpt><trkpt lat="47.95906981895509" lon="11.690163889992943"><ele>632.3333333333334</ele><time>2026-04-18T07:36:06Z</time></trkpt><trkpt lat="47.958926814016436" lon="11.690232667295115"><ele>633.0</ele><time>2026-04-18T07:36:07Z</time></trkpt><trkpt lat="47.958786080154425" lon="11.690300542644101"><ele>633.0</ele><time>2026-04-18T07:36:08Z</time></trkpt><trkpt lat="47.958646623175525" lon="11.690368288754831"><ele>633.0</ele><time>2026-04-18T07:36:09Z</time></trkpt><trkpt lat="47.95850822156742" lon="11.690435069537003"><ele>633.0</ele><time>2026-04-18T07:36:10Z</time></trkpt><trkpt lat="47.95836950640944" lon="11.690505661627233"><ele>633.0</ele><time>2026-04-18T07:36:11Z</time></trkpt><trkpt lat="47.95823121065916" lon="11.690574583325592"><ele>632.6666666666666</ele><time>2026-04-18T07:36:12Z</time></trkpt><trkpt lat="47.958090595388356" lon="11.690644856218556"><ele>632.3333333333333</ele><time>2026-04-18T07:36:13Z</time></trkpt><trkpt lat="47.95794906055271" lon="11.690721113920599"><ele>632.0</ele><time>2026-04-18T07:36:14Z</time></trkpt><trkpt lat="47.95780359057744" lon="11.690791395094596"><ele>632.0</ele><time>2026-04-18T07:36:14.999Z</time></trkpt><trkpt lat="47.95765682537861" lon="11.690866437850868"><ele>632.0</ele><time>2026-04-18T07:36:15.999Z</time></trkpt><trkpt lat="47.957513957661675" lon="11.690949904764373"><ele>632.0</ele><time>2026-04-18T07:36:16.999Z</time></trkpt><trkpt lat="47.95737943007019" lon="11.691024130405554"><ele>632.5</ele><time>2026-04-18T07:36:17.999Z</time></trkpt><trkpt lat="47.957245939164665" lon="11.691096528857974"><ele>633.0</ele><time>2026-04-18T07:36:18.999Z</time></trkpt><trkpt lat="47.95711348184284" lon="11.691171668276137"><ele>633.5</ele><time>2026-04-18T07:36:19.999Z</time></trkpt><trkpt lat="47.95697379981443" lon="11.691248636049917"><ele>634.0</ele><time>2026-04-18T07:36:20.999Z</time></trkpt><trkpt lat="47.95682742025226" lon="11.691328892536697"><ele>633.6666666666667</ele><time>2026-04-18T07:36:21.999Z</time></trkpt><trkpt lat="47.95667934087609" lon="11.691411574772172"><ele>633.3333333333334</ele><time>2026-04-18T07:36:22.999Z</time></trkpt><trkpt lat="47.95653058747283" lon="11.69149668217508"><ele>633.0</ele><time>2026-04-18T07:36:23.999Z</time></trkpt><trkpt lat="47.95638633831931" lon="11.6915808435086"><ele>633.0</ele><time>2026-04-18T07:36:24.999Z</time></trkpt><trkpt lat="47.95624466236621" lon="11.691663505565286"><ele>633.0</ele><time>2026-04-18T07:36:25.999Z</time></trkpt><trkpt lat="47.956102674821985" lon="11.69174891932879"><ele>633.0</ele><time>2026-04-18T07:36:26.999Z</time></trkpt><trkpt lat="47.95595864262322" lon="11.691836093027678"><ele>633.0</ele><time>2026-04-18T07:36:27.999Z</time></trkpt><trkpt lat="47.955812592334816" lon="11.69192459464537"><ele>633.0</ele><time>2026-04-18T07:36:28.999Z</time></trkpt><trkpt lat="47.95566688951107" lon="11.692012552215648"><ele>633.0</ele><time>2026-04-18T07:36:29.999Z</time></trkpt><trkpt lat="47.95552056002763" lon="11.692102328358457"><ele>633.0</ele><time>2026-04-18T07:36:30.999Z</time></trkpt><trkpt lat="47.95537551004764" lon="11.692194058060336"><ele>633.0</ele><time>2026-04-18T07:36:31.999Z</time></trkpt><trkpt lat="47.95523353284428" lon="11.692282086587035"><ele>633.0</ele><time>2026-04-18T07:36:32.999Z</time></trkpt><trkpt lat="47.95509540717663" lon="11.692366276907086"><ele>633.0</ele><time>2026-04-18T07:36:33.999Z</time></trkpt><trkpt lat="47.95495749650987" lon="11.692451508929796"><ele>633.0</ele><time>2026-04-18T07:36:34.999Z</time></trkpt><trkpt lat="47.954817223249044" lon="11.692542819141641"><ele>633.0</ele><time>2026-04-18T07:36:35.999Z</time></trkpt><trkpt lat="47.95467685282893" lon="11.692637108474036"><ele>633.0</ele><time>2026-04-18T07:36:36.999Z</time></trkpt><trkpt lat="47.954538128040916" lon="11.692727488195066"><ele>633.0</ele><time>2026-04-18T07:36:37.999Z</time></trkpt><trkpt lat="47.95440024367606" lon="11.692815420412103"><ele>633.0</ele><time>2026-04-18T07:36:38.999Z</time></trkpt><trkpt lat="47.95426295916235" lon="11.692903346844064"><ele>632.75</ele><time>2026-04-18T07:36:39.999Z</time></trkpt><trkpt lat="47.95412609875974" lon="11.692993287422203"><ele>632.5</ele><time>2026-04-18T07:36:40.999Z</time></trkpt><trkpt lat="47.95398971483601" lon="11.69308276166608"><ele>632.25</ele><time>2026-04-18T07:36:41.999Z</time></trkpt><trkpt lat="47.953854288337936" lon="11.693170305045603"><ele>632.0</ele><time>2026-04-18T07:36:43Z</time></trkpt><trkpt lat="47.9537172241609" lon="11.693259678087845"><ele>632.0</ele><time>2026-04-18T07:36:44Z</time></trkpt><trkpt lat="47.95357798240653" lon="11.693352410446593"><ele>632.0</ele><time>2026-04-18T07:36:45Z</time></trkpt><trkpt lat="47.953432134995204" lon="11.693443952266739"><ele>632.0</ele><time>2026-04-18T07:36:46Z</time></trkpt><trkpt lat="47.95329069633833" lon="11.693533743350859"><ele>633.0</ele><time>2026-04-18T07:36:47Z</time></trkpt><trkpt lat="47.95314700578274" lon="11.693626790447464"><ele>634.0</ele><time>2026-04-18T07:36:48Z</time></trkpt><trkpt lat="47.9530059354993" lon="11.693718305713459"><ele>635.0</ele><time>2026-04-18T07:36:49Z</time></trkpt><trkpt lat="47.95286203321709" lon="11.69380967930618"><ele>635.0</ele><time>2026-04-18T07:36:50Z</time></trkpt><trkpt lat="47.95270901722626" lon="11.693908430529824"><ele>635.0</ele><time>2026-04-18T07:36:51Z</time></trkpt><trkpt lat="47.952531817513936" lon="11.694025963637547"><ele>635.0</ele><time>2026-04-18T07:36:52Z</time></trkpt><trkpt lat="47.95234043202202" lon="11.69415141948675"><ele>636.5</ele><time>2026-04-18T07:36:53Z</time></trkpt><trkpt lat="47.95211390451715" lon="11.69429656415661"><ele>638.0</ele><time>2026-04-18T07:36:54Z</time></trkpt><trkpt lat="47.95189382087745" lon="11.694444253296478"><ele>637.3333333333333</ele><time>2026-04-18T07:36:55Z</time></trkpt><trkpt lat="47.95169375162138" lon="11.694572446042825"><ele>636.6666666666666</ele><time>2026-04-18T07:36:56Z</time></trkpt><trkpt lat="47.95150100857556" lon="11.694696736571336"><ele>636.0</ele><time>2026-04-18T07:36:57Z</time></trkpt><trkpt lat="47.95130567950004" lon="11.694820936909093"><ele>636.0</ele><time>2026-04-18T07:36:58Z</time></trkpt><trkpt lat="47.95109976490968" lon="11.694956410788967"><ele>636.0</ele><time>2026-04-18T07:36:59Z</time></trkpt><trkpt lat="47.95087576657276" lon="11.695101744002665"><ele>635.5</ele><time>2026-04-18T07:37:00Z</time></trkpt><trkpt lat="47.950637909521156" lon="11.695257006275463"><ele>635.0</ele><time>2026-04-18T07:37:01Z</time></trkpt><trkpt lat="47.950396028426226" lon="11.695412847892717"><ele>635.0</ele><time>2026-04-18T07:37:02Z</time></trkpt><trkpt lat="47.950155121136326" lon="11.695569348642255"><ele>635.0</ele><time>2026-04-18T07:37:03Z</time></trkpt><trkpt lat="47.949903848751546" lon="11.695735447004596"><ele>636.0</ele><time>2026-04-18T07:37:04Z</time></trkpt><trkpt lat="47.94967919670535" lon="11.69587879078066"><ele>637.0</ele><time>2026-04-18T07:37:05Z</time></trkpt><trkpt lat="47.94945936760848" lon="11.696017942723342"><ele>637.5</ele><time>2026-04-18T07:37:06Z</time></trkpt><trkpt lat="47.94924102404975" lon="11.696157418899627"><ele>638.0</ele><time>2026-04-18T07:37:07Z</time></trkpt><trkpt lat="47.94901593085946" lon="11.69630369154126"><ele>638.0</ele><time>2026-04-18T07:37:08Z</time></trkpt><trkpt lat="47.94878263181593" lon="11.696454287335353"><ele>638.0</ele><time>2026-04-18T07:37:09Z</time></trkpt><trkpt lat="47.94855139995653" lon="11.696602754641718"><ele>637.5</ele><time>2026-04-18T07:37:10Z</time></trkpt><trkpt lat="47.9483338119134" lon="11.696745224399017"><ele>637.0</ele><time>2026-04-18T07:37:11Z</time></trkpt><trkpt lat="47.948123440260176" lon="11.696883136697037"><ele>638.3333333333334</ele><time>2026-04-18T07:37:12Z</time></trkpt><trkpt lat="47.94791742693626" lon="11.697015631079575"><ele>639.6666666666666</ele><time>2026-04-18T07:37:13Z</time></trkpt><trkpt lat="47.947713579168216" lon="11.697146123155608"><ele>641.0</ele><time>2026-04-18T07:37:14Z</time></trkpt><trkpt lat="47.94751629130447" lon="11.697275026599659"><ele>641.0</ele><time>2026-04-18T07:37:15Z</time></trkpt><trkpt lat="47.94733159028613" lon="11.697396672376348"><ele>641.0</ele><time>2026-04-18T07:37:16Z</time></trkpt><trkpt lat="47.94715154629419" lon="11.697513578487717"><ele>641.0</ele><time>2026-04-18T07:37:17Z</time></trkpt><trkpt lat="47.94696925661807" lon="11.69763099286535"><ele>641.0</ele><time>2026-04-18T07:37:18Z</time></trkpt><trkpt lat="47.946782086679775" lon="11.697751882196913"><ele>641.0</ele><time>2026-04-18T07:37:19Z</time></trkpt><trkpt lat="47.946585675808016" lon="11.697879936512129"><ele>641.0</ele><time>2026-04-18T07:37:20Z</time></trkpt><trkpt lat="47.946381925403436" lon="11.69801254349178"><ele>643.0</ele><time>2026-04-18T07:37:21Z</time></trkpt><trkpt lat="47.94616977309088" lon="11.698149398112577"><ele>645.0</ele><time>2026-04-18T07:37:22Z</time></trkpt><trkpt lat="47.94595283947516" lon="11.698288598615468"><ele>644.0</ele><time>2026-04-18T07:37:23Z</time></trkpt><trkpt lat="47.94574022639675" lon="11.698422598799777"><ele>643.0</ele><time>2026-04-18T07:37:24Z</time></trkpt><trkpt lat="47.945538496776656" lon="11.698553514839213"><ele>644.0</ele><time>2026-04-18T07:37:25Z</time></trkpt><trkpt lat="47.94534180194149" lon="11.698684196755885"><ele>645.0</ele><time>2026-04-18T07:37:26Z</time></trkpt><trkpt lat="47.94514075824765" lon="11.698813499097847"><ele>646.0</ele><time>2026-04-18T07:37:27Z</time></trkpt><trkpt lat="47.94493621660437" lon="11.69894654926542"><ele>646.0</ele><time>2026-04-18T07:37:28Z</time></trkpt><trkpt lat="47.94472981819453" lon="11.699079601918744"><ele>646.0</ele><time>2026-04-18T07:37:29Z</time></trkpt><trkpt lat="47.944519784763784" lon="11.699213018729278"><ele>646.0</ele><time>2026-04-18T07:37:30Z</time></trkpt><trkpt lat="47.94430835306223" lon="11.699348666642301"><ele>646.0</ele><time>2026-04-18T07:37:31Z</time></trkpt><trkpt lat="47.94409288617965" lon="11.699489262161785"><ele>647.0</ele><time>2026-04-18T07:37:32Z</time></trkpt><trkpt lat="47.94387110754331" lon="11.699634653820018"><ele>648.0</ele><time>2026-04-18T07:37:33Z</time></trkpt><trkpt lat="47.94364469462425" lon="11.699782396308589"><ele>648.0</ele><time>2026-04-18T07:37:34Z</time></trkpt><trkpt lat="47.943418080084015" lon="11.699930439116056"><ele>648.0</ele><time>2026-04-18T07:37:35Z</time></trkpt><trkpt lat="47.94319698884566" lon="11.700074456567556"><ele>648.0</ele><time>2026-04-18T07:37:36Z</time></trkpt><trkpt lat="47.9429769522887" lon="11.700215526421394"><ele>648.0</ele><time>2026-04-18T07:37:37Z</time></trkpt><trkpt lat="47.94275908587673" lon="11.70035458235965"><ele>647.0</ele><time>2026-04-18T07:37:38Z</time></trkpt><trkpt lat="47.94254355084335" lon="11.700495849122188"><ele>646.0</ele><time>2026-04-18T07:37:39Z</time></trkpt><trkpt lat="47.94231941211404" lon="11.70064234508791"><ele>646.0</ele><time>2026-04-18T07:37:40Z</time></trkpt><trkpt lat="47.94209310881175" lon="11.700787882610765"><ele>646.0</ele><time>2026-04-18T07:37:41Z</time></trkpt><trkpt lat="47.94186138505957" lon="11.70093587304008"><ele>648.0</ele><time>2026-04-18T07:37:42Z</time></trkpt><trkpt lat="47.941622798973285" lon="11.701089367789915"><ele>650.0</ele><time>2026-04-18T07:37:43Z</time></trkpt><trkpt lat="47.94138312987886" lon="11.701246954676707"><ele>650.0</ele><time>2026-04-18T07:37:44Z</time></trkpt><trkpt lat="47.94114195552105" lon="11.701403787072877"><ele>650.0</ele><time>2026-04-18T07:37:45Z</time></trkpt><trkpt lat="47.940904199575" lon="11.701557724924402"><ele>651.0</ele><time>2026-04-18T07:37:46Z</time></trkpt><trkpt lat="47.94067453864153" lon="11.701704300483689"><ele>652.0</ele><time>2026-04-18T07:37:47Z</time></trkpt><trkpt lat="47.940447171160805" lon="11.701851427271789"><ele>652.5</ele><time>2026-04-18T07:37:48Z</time></trkpt><trkpt lat="47.940218222554364" lon="11.702007340733175"><ele>653.0</ele><time>2026-04-18T07:37:49Z</time></trkpt><trkpt lat="47.93998433983474" lon="11.702165784211212"><ele>653.0</ele><time>2026-04-18T07:37:50Z</time></trkpt><trkpt lat="47.939749661514966" lon="11.702316197053788"><ele>653.0</ele><time>2026-04-18T07:37:51Z</time></trkpt><trkpt lat="47.93951657951584" lon="11.702466325924586"><ele>653.0</ele><time>2026-04-18T07:37:52Z</time></trkpt><trkpt lat="47.93928210908172" lon="11.702612911199314"><ele>653.0</ele><time>2026-04-18T07:37:53Z</time></trkpt><trkpt lat="47.93904337957309" lon="11.702751280141744"><ele>650.5</ele><time>2026-04-18T07:37:54Z</time></trkpt><trkpt lat="47.938804665287535" lon="11.702897620258582"><ele>648.0</ele><time>2026-04-18T07:37:55Z</time></trkpt><trkpt lat="47.93856580872598" lon="11.703062687799447"><ele>647.5</ele><time>2026-04-18T07:37:56Z</time></trkpt><trkpt lat="47.938319883819204" lon="11.70323597415654"><ele>647.0</ele><time>2026-04-18T07:37:57Z</time></trkpt><trkpt lat="47.93808204364177" lon="11.703391861966171"><ele>647.0</ele><time>2026-04-18T07:37:58Z</time></trkpt><trkpt lat="47.937853123419686" lon="11.703539622144808"><ele>647.0</ele><time>2026-04-18T07:37:59Z</time></trkpt><trkpt lat="47.93763095611431" lon="11.703683079588664"><ele>648.5</ele><time>2026-04-18T07:38:00Z</time></trkpt><trkpt lat="47.9374009587466" lon="11.703830977186657"><ele>650.0</ele><time>2026-04-18T07:38:01Z</time></trkpt><trkpt lat="47.93716471708527" lon="11.703982698518237"><ele>650.0</ele><time>2026-04-18T07:38:02Z</time></trkpt><trkpt lat="47.93691893398348" lon="11.70413987536848"><ele>650.0</ele><time>2026-04-18T07:38:03Z</time></trkpt><trkpt lat="47.936672006528525" lon="11.704299392010357"><ele>652.5</ele><time>2026-04-18T07:38:04Z</time></trkpt><trkpt lat="47.93643204804824" lon="11.704453730292254"><ele>655.0</ele><time>2026-04-18T07:38:05Z</time></trkpt><trkpt lat="47.93619454977019" lon="11.704607985662513"><ele>655.0</ele><time>2026-04-18T07:38:06Z</time></trkpt><trkpt lat="47.93595842218082" lon="11.70476156470359"><ele>655.0</ele><time>2026-04-18T07:38:06.999Z</time></trkpt><trkpt lat="47.935722212516026" lon="11.704914371534224"><ele>654.5</ele><time>2026-04-18T07:38:07.999Z</time></trkpt><trkpt lat="47.93548162148877" lon="11.705069386950159"><ele>654.0</ele><time>2026-04-18T07:38:08.999Z</time></trkpt><trkpt lat="47.9352398911065" lon="11.705223953619255"><ele>655.5</ele><time>2026-04-18T07:38:09.999Z</time></trkpt><trkpt lat="47.93499684387736" lon="11.705384123811339"><ele>657.0</ele><time>2026-04-18T07:38:10.999Z</time></trkpt><trkpt lat="47.93475379619752" lon="11.705546229411363"><ele>657.0</ele><time>2026-04-18T07:38:11.999Z</time></trkpt><trkpt lat="47.934512476625976" lon="11.705702511701356"><ele>657.0</ele><time>2026-04-18T07:38:12.999Z</time></trkpt><trkpt lat="47.93427187111338" lon="11.705855255861797"><ele>656.5</ele><time>2026-04-18T07:38:13.999Z</time></trkpt><trkpt lat="47.93403082011858" lon="11.706010944498885"><ele>656.0</ele><time>2026-04-18T07:38:14.999Z</time></trkpt><trkpt lat="47.93378439583101" lon="11.70617136110614"><ele>656.0</ele><time>2026-04-18T07:38:15.999Z</time></trkpt><trkpt lat="47.93353902312324" lon="11.706329254612138"><ele>656.0</ele><time>2026-04-18T07:38:16.999Z</time></trkpt><trkpt lat="47.9332964888426" lon="11.706484518245722"><ele>656.0</ele><time>2026-04-18T07:38:17.999Z</time></trkpt><trkpt lat="47.93305682134046" lon="11.706641680866028"><ele>656.0</ele><time>2026-04-18T07:38:18.999Z</time></trkpt><trkpt lat="47.932829293892546" lon="11.706791825705352"><ele>657.0</ele><time>2026-04-18T07:38:19.999Z</time></trkpt><trkpt lat="47.93261386911493" lon="11.706938943816478"><ele>658.0</ele><time>2026-04-18T07:38:20.999Z</time></trkpt><trkpt lat="47.932410647982344" lon="11.707088881084001"><ele>658.0</ele><time>2026-04-18T07:38:21.999Z</time></trkpt><trkpt lat="47.93221387144797" lon="11.707228745782059"><ele>658.0</ele><time>2026-04-18T07:38:22.999Z</time></trkpt><trkpt lat="47.932012994753336" lon="11.707361423093438"><ele>658.0</ele><time>2026-04-18T07:38:23.999Z</time></trkpt><trkpt lat="47.931801437139924" lon="11.707498472401578"><ele>658.0</ele><time>2026-04-18T07:38:24.999Z</time></trkpt><trkpt lat="47.931591322750116" lon="11.707635333593029"><ele>658.0</ele><time>2026-04-18T07:38:25.999Z</time></trkpt><trkpt lat="47.93138585213553" lon="11.707769515806495"><ele>658.0</ele><time>2026-04-18T07:38:26.999Z</time></trkpt><trkpt lat="47.93118302436894" lon="11.707898539689864"><ele>658.0</ele><time>2026-04-18T07:38:27.999Z</time></trkpt><trkpt lat="47.93098186230281" lon="11.708023599638125"><ele>658.0</ele><time>2026-04-18T07:38:28.999Z</time></trkpt><trkpt lat="47.93077758513471" lon="11.708151649469578"><ele>658.0</ele><time>2026-04-18T07:38:29.999Z</time></trkpt><trkpt lat="47.930570627002055" lon="11.708284076556305"><ele>658.0</ele><time>2026-04-18T07:38:30.999Z</time></trkpt><trkpt lat="47.930358790451976" lon="11.708414886098362"><ele>658.0</ele><time>2026-04-18T07:38:31.999Z</time></trkpt><trkpt lat="47.93014142074636" lon="11.708541241954942"><ele>658.0</ele><time>2026-04-18T07:38:32.999Z</time></trkpt><trkpt lat="47.92992062075894" lon="11.708666113528425"><ele>658.0</ele><time>2026-04-18T07:38:33.999Z</time></trkpt><trkpt lat="47.92969462329263" lon="11.708792172928906"><ele>658.0</ele><time>2026-04-18T07:38:34.999Z</time></trkpt><trkpt lat="47.929458157898026" lon="11.708920884553091"><ele>657.5</ele><time>2026-04-18T07:38:35.999Z</time></trkpt><trkpt lat="47.92921515030384" lon="11.709050790820788"><ele>657.0</ele><time>2026-04-18T07:38:36.999Z</time></trkpt><trkpt lat="47.92896451622044" lon="11.70917933010779"><ele>657.0</ele><time>2026-04-18T07:38:37.999Z</time></trkpt><trkpt lat="47.928707431850285" lon="11.709303614231128"><ele>657.0</ele><time>2026-04-18T07:38:38.999Z</time></trkpt><trkpt lat="47.92844591935059" lon="11.70942825620461"><ele>658.0</ele><time>2026-04-18T07:38:39.999Z</time></trkpt><trkpt lat="47.92819162864132" lon="11.709546942994232"><ele>659.0</ele><time>2026-04-18T07:38:40.999Z</time></trkpt><trkpt lat="47.92794362626831" lon="11.709656369322143"><ele>659.0</ele><time>2026-04-18T07:38:41.999Z</time></trkpt><trkpt lat="47.92770588693546" lon="11.709759376894041"><ele>659.0</ele><time>2026-04-18T07:38:42.999Z</time></trkpt><trkpt lat="47.92747090855795" lon="11.709857482605369"><ele>659.0</ele><time>2026-04-18T07:38:43.999Z</time></trkpt><trkpt lat="47.92722908798458" lon="11.709956243946982"><ele>659.0</ele><time>2026-04-18T07:38:44.999Z</time></trkpt><trkpt lat="47.92698106846869" lon="11.710055602708856"><ele>659.0</ele><time>2026-04-18T07:38:45.999Z</time></trkpt><trkpt lat="47.926729125877394" lon="11.710154707717349"><ele>659.0</ele><time>2026-04-18T07:38:46.999Z</time></trkpt><trkpt lat="47.92647431213486" lon="11.710255678388904"><ele>659.0</ele><time>2026-04-18T07:38:47.999Z</time></trkpt><trkpt lat="47.926218585725934" lon="11.710358791670737"><ele>659.0</ele><time>2026-04-18T07:38:49Z</time></trkpt><trkpt lat="47.92596075997691" lon="11.71046351126415"><ele>659.0</ele><time>2026-04-18T07:38:50Z</time></trkpt><trkpt lat="47.92570197897898" lon="11.710567338909188"><ele>659.0</ele><time>2026-04-18T07:38:51Z</time></trkpt><trkpt lat="47.925441828465345" lon="11.710669163453774"><ele>659.0</ele><time>2026-04-18T07:38:52Z</time></trkpt><trkpt lat="47.925180054703475" lon="11.710770595954088"><ele>659.0</ele><time>2026-04-18T07:38:53Z</time></trkpt><trkpt lat="47.92491791283444" lon="11.710873090770555"><ele>658.5</ele><time>2026-04-18T07:38:54Z</time></trkpt><trkpt lat="47.92465506129914" lon="11.71097792548807"><ele>658.0</ele><time>2026-04-18T07:38:55Z</time></trkpt><trkpt lat="47.92439153068278" lon="11.711085191225019"><ele>659.0</ele><time>2026-04-18T07:38:56Z</time></trkpt><trkpt lat="47.92412644493791" lon="11.711191952552092"><ele>660.0</ele><time>2026-04-18T07:38:57Z</time></trkpt><trkpt lat="47.92385943454112" lon="11.711300473240053"><ele>660.0</ele><time>2026-04-18T07:38:58Z</time></trkpt><trkpt lat="47.92359623176156" lon="11.711408019577075"><ele>660.0</ele><time>2026-04-18T07:38:59Z</time></trkpt><trkpt lat="47.92333667262055" lon="11.711511106686316"><ele>659.0</ele><time>2026-04-18T07:39:00Z</time></trkpt><trkpt lat="47.923087783258424" lon="11.711611551359633"><ele>658.0</ele><time>2026-04-18T07:39:01Z</time></trkpt><trkpt lat="47.92284155356936" lon="11.711708956246639"><ele>658.0</ele><time>2026-04-18T07:39:02Z</time></trkpt><trkpt lat="47.92259550831275" lon="11.711803832377166"><ele>658.0</ele><time>2026-04-18T07:39:03Z</time></trkpt><trkpt lat="47.922348429909704" lon="11.71190126421715"><ele>657.0</ele><time>2026-04-18T07:39:04Z</time></trkpt><trkpt lat="47.922097984370055" lon="11.71200251746732"><ele>656.0</ele><time>2026-04-18T07:39:05Z</time></trkpt><trkpt lat="47.92184386139799" lon="11.712104863752437"><ele>657.5</ele><time>2026-04-18T07:39:06Z</time></trkpt><trkpt lat="47.92158491273263" lon="11.712209717801063"><ele>659.0</ele><time>2026-04-18T07:39:07Z</time></trkpt><trkpt lat="47.92132224715253" lon="11.71231326847431"><ele>659.0</ele><time>2026-04-18T07:39:08Z</time></trkpt><trkpt lat="47.92106115749001" lon="11.71241809826344"><ele>659.0</ele><time>2026-04-18T07:39:09Z</time></trkpt><trkpt lat="47.92081056634623" lon="11.712521155324799"><ele>660.0</ele><time>2026-04-18T07:39:10Z</time></trkpt><trkpt lat="47.92056135152982" lon="11.712620521085299"><ele>661.0</ele><time>2026-04-18T07:39:11Z</time></trkpt><trkpt lat="47.920313831634374" lon="11.712716325418176"><ele>661.5</ele><time>2026-04-18T07:39:12Z</time></trkpt><trkpt lat="47.92006360149426" lon="11.712812419009543"><ele>662.0</ele><time>2026-04-18T07:39:13Z</time></trkpt><trkpt lat="47.919813721650755" lon="11.712910347709963"><ele>662.0</ele><time>2026-04-18T07:39:14Z</time></trkpt><trkpt lat="47.9195637402847" lon="11.71301291930588"><ele>662.0</ele><time>2026-04-18T07:39:15Z</time></trkpt><trkpt lat="47.91931138006055" lon="11.713106897473859"><ele>661.0</ele><time>2026-04-18T07:39:16Z</time></trkpt><trkpt lat="47.919055947214666" lon="11.713163179530671"><ele>660.0</ele><time>2026-04-18T07:39:17Z</time></trkpt><trkpt lat="47.91880571689866" lon="11.71323797576849"><ele>660.0</ele><time>2026-04-18T07:39:18Z</time></trkpt><trkpt lat="47.91857001173113" lon="11.71333667005654"><ele>660.0</ele><time>2026-04-18T07:39:19Z</time></trkpt><trkpt lat="47.91834105725147" lon="11.713428004803964"><ele>661.0</ele><time>2026-04-18T07:39:20Z</time></trkpt><trkpt lat="47.91811498818658" lon="11.7135183296349"><ele>662.0</ele><time>2026-04-18T07:39:21Z</time></trkpt><trkpt lat="47.91789424856991" lon="11.713607852490634"><ele>662.0</ele><time>2026-04-18T07:39:22Z</time></trkpt><trkpt lat="47.91767142071304" lon="11.71369839276449"><ele>662.0</ele><time>2026-04-18T07:39:23Z</time></trkpt><trkpt lat="47.91743462074361" lon="11.713792000384426"><ele>662.0</ele><time>2026-04-18T07:39:24Z</time></trkpt><trkpt lat="47.91718697712578" lon="11.713887316897427"><ele>662.0</ele><time>2026-04-18T07:39:25Z</time></trkpt><trkpt lat="47.916933046422514" lon="11.713992771374638"><ele>663.5</ele><time>2026-04-18T07:39:26Z</time></trkpt><trkpt lat="47.916671477175925" lon="11.714098239538329"><ele>665.0</ele><time>2026-04-18T07:39:27Z</time></trkpt><trkpt lat="47.916409839327336" lon="11.714200117762735"><ele>665.0</ele><time>2026-04-18T07:39:28Z</time></trkpt><trkpt lat="47.91615380509663" lon="11.71430150970438"><ele>665.0</ele><time>2026-04-18T07:39:29Z</time></trkpt><trkpt lat="47.91590040749147" lon="11.714403451580926"><ele>665.0</ele><time>2026-04-18T07:39:30Z</time></trkpt><trkpt lat="47.91564803929375" lon="11.714502421680823"><ele>665.0</ele><time>2026-04-18T07:39:31Z</time></trkpt><trkpt lat="47.91539670911934" lon="11.714602153989935"><ele>665.0</ele><time>2026-04-18T07:39:32Z</time></trkpt><trkpt lat="47.9151444262726" lon="11.714702949030338"><ele>665.0</ele><time>2026-04-18T07:39:33Z</time></trkpt><trkpt lat="47.91489246720496" lon="11.714803598281705"><ele>663.5</ele><time>2026-04-18T07:39:34Z</time></trkpt><trkpt lat="47.91464286882159" lon="11.71490410657259"><ele>662.0</ele><time>2026-04-18T07:39:35Z</time></trkpt><trkpt lat="47.91439388088223" lon="11.71500274875768"><ele>662.0</ele><time>2026-04-18T07:39:36Z</time></trkpt><trkpt lat="47.9141464679136" lon="11.715100984166392"><ele>662.0</ele><time>2026-04-18T07:39:37Z</time></trkpt><trkpt lat="47.91390018488562" lon="11.715199300243887"><ele>662.5</ele><time>2026-04-18T07:39:38Z</time></trkpt><trkpt lat="47.91365359046497" lon="11.71529709252533"><ele>663.0</ele><time>2026-04-18T07:39:39Z</time></trkpt><trkpt lat="47.91340562700843" lon="11.715396688533351"><ele>661.0</ele><time>2026-04-18T07:39:40Z</time></trkpt><trkpt lat="47.91315536893227" lon="11.71549504468903"><ele>659.0</ele><time>2026-04-18T07:39:41Z</time></trkpt><trkpt lat="47.91290192209482" lon="11.715593367693211"><ele>659.0</ele><time>2026-04-18T07:39:42Z</time></trkpt><trkpt lat="47.91264915682779" lon="11.71569378429256"><ele>659.0</ele><time>2026-04-18T07:39:43Z</time></trkpt><trkpt lat="47.91239810193199" lon="11.715796128189433"><ele>657.5</ele><time>2026-04-18T07:39:44Z</time></trkpt><trkpt lat="47.91214614137675" lon="11.715896215753853"><ele>656.0</ele><time>2026-04-18T07:39:45Z</time></trkpt><trkpt lat="47.91189764876346" lon="11.715994442028661"><ele>654.5</ele><time>2026-04-18T07:39:46Z</time></trkpt><trkpt lat="47.911655047977575" lon="11.716092601959248"><ele>653.0</ele><time>2026-04-18T07:39:47Z</time></trkpt><trkpt lat="47.911416163718144" lon="11.716192771067153"><ele>653.0</ele><time>2026-04-18T07:39:48Z</time></trkpt><trkpt lat="47.91117688895663" lon="11.716287440648756"><ele>653.0</ele><time>2026-04-18T07:39:49Z</time></trkpt><trkpt lat="47.910938194738975" lon="11.716380685890837"><ele>651.0</ele><time>2026-04-18T07:39:50Z</time></trkpt><trkpt lat="47.910701008665505" lon="11.716474850709254"><ele>649.0</ele><time>2026-04-18T07:39:51Z</time></trkpt><trkpt lat="47.910464608374085" lon="11.716569013595485"><ele>649.0</ele><time>2026-04-18T07:39:52Z</time></trkpt><trkpt lat="47.910230421335164" lon="11.716662044649699"><ele>649.0</ele><time>2026-04-18T07:39:53Z</time></trkpt><trkpt lat="47.90999859604991" lon="11.716754057108961"><ele>649.0</ele><time>2026-04-18T07:39:54Z</time></trkpt><trkpt lat="47.90976696277291" lon="11.716845602577244"><ele>649.0</ele><time>2026-04-18T07:39:55Z</time></trkpt><trkpt lat="47.90953686383295" lon="11.716939507256098"><ele>649.5</ele><time>2026-04-18T07:39:56Z</time></trkpt><trkpt lat="47.90930755750166" lon="11.717033936906065"><ele>650.0</ele><time>2026-04-18T07:39:57Z</time></trkpt><trkpt lat="47.9090790855312" lon="11.717125672564999"><ele>650.0</ele><time>2026-04-18T07:39:58Z</time></trkpt><trkpt lat="47.90885275967826" lon="11.71721583723957"><ele>650.0</ele><time>2026-04-18T07:39:59Z</time></trkpt><trkpt lat="47.90863044938768" lon="11.717304481728153"><ele>650.0</ele><time>2026-04-18T07:40:00Z</time></trkpt><trkpt lat="47.908411042070675" lon="11.717390824432785"><ele>650.0</ele><time>2026-04-18T07:40:01Z</time></trkpt><trkpt lat="47.908197551543715" lon="11.717474579996516"><ele>650.0</ele><time>2026-04-18T07:40:02Z</time></trkpt><trkpt lat="47.90798794265273" lon="11.717557690221339"><ele>650.0</ele><time>2026-04-18T07:40:03Z</time></trkpt><trkpt lat="47.90777613027674" lon="11.717641971739088"><ele>650.0</ele><time>2026-04-18T07:40:04Z</time></trkpt><trkpt lat="47.90755523207046" lon="11.717729839801994"><ele>650.0</ele><time>2026-04-18T07:40:05Z</time></trkpt><trkpt lat="47.90732392786816" lon="11.71782189502136"><ele>652.5</ele><time>2026-04-18T07:40:06Z</time></trkpt><trkpt lat="47.90708610592141" lon="11.717916036169314"><ele>655.0</ele><time>2026-04-18T07:40:07Z</time></trkpt><trkpt lat="47.906843380593365" lon="11.718012916281813"><ele>655.0</ele><time>2026-04-18T07:40:08Z</time></trkpt><trkpt lat="47.90660793114498" lon="11.718107247562177"><ele>655.0</ele><time>2026-04-18T07:40:09Z</time></trkpt><trkpt lat="47.90637850047046" lon="11.718197712866191"><ele>655.0</ele><time>2026-04-18T07:40:10Z</time></trkpt><trkpt lat="47.90615277486076" lon="11.718285783658978"><ele>655.0</ele><time>2026-04-18T07:40:11Z</time></trkpt><trkpt lat="47.90592887714524" lon="11.718376164339913"><ele>654.5</ele><time>2026-04-18T07:40:12Z</time></trkpt><trkpt lat="47.90570732755882" lon="11.718465893025368"><ele>654.0</ele><time>2026-04-18T07:40:13Z</time></trkpt><trkpt lat="47.905485583627886" lon="11.718554548306878"><ele>654.0</ele><time>2026-04-18T07:40:14Z</time></trkpt><trkpt lat="47.905262759856384" lon="11.71864321028887"><ele>654.0</ele><time>2026-04-18T07:40:15Z</time></trkpt><trkpt lat="47.90503960671818" lon="11.718731671881132"><ele>654.0</ele><time>2026-04-18T07:40:16Z</time></trkpt><trkpt lat="47.904816762680205" lon="11.718821669858826"><ele>654.0</ele><time>2026-04-18T07:40:17Z</time></trkpt><trkpt lat="47.90458736788805" lon="11.718912949364864"><ele>654.0</ele><time>2026-04-18T07:40:18Z</time></trkpt><trkpt lat="47.90434940334442" lon="11.719007424544563"><ele>654.0</ele><time>2026-04-18T07:40:19Z</time></trkpt><trkpt lat="47.90410093232086" lon="11.719104764253444"><ele>653.5</ele><time>2026-04-18T07:40:20Z</time></trkpt><trkpt lat="47.90384716309788" lon="11.719206189115104"><ele>653.0</ele><time>2026-04-18T07:40:21Z</time></trkpt><trkpt lat="47.90359740089883" lon="11.719306916863703"><ele>657.5</ele><time>2026-04-18T07:40:22Z</time></trkpt><trkpt lat="47.90334861551821" lon="11.719404309984988"><ele>662.0</ele><time>2026-04-18T07:40:22.999Z</time></trkpt><trkpt lat="47.90310118562268" lon="11.719503918769504"><ele>662.0</ele><time>2026-04-18T07:40:23.999Z</time></trkpt><trkpt lat="47.902863684501675" lon="11.719598608213294"><ele>662.0</ele><time>2026-04-18T07:40:24.999Z</time></trkpt><trkpt lat="47.90263055988611" lon="11.719690570888028"><ele>662.5</ele><time>2026-04-18T07:40:25.999Z</time></trkpt><trkpt lat="47.90240083269812" lon="11.719782025457276"><ele>663.0</ele><time>2026-04-18T07:40:26.999Z</time></trkpt><trkpt lat="47.90217244331898" lon="11.719874966418114"><ele>663.0</ele><time>2026-04-18T07:40:27.999Z</time></trkpt><trkpt lat="47.90194180856244" lon="11.719967036792568"><ele>663.0</ele><time>2026-04-18T07:40:28.999Z</time></trkpt><trkpt lat="47.90171235734319" lon="11.720057174369675"><ele>662.5</ele><time>2026-04-18T07:40:29.999Z</time></trkpt><trkpt lat="47.901492159692346" lon="11.72014607197584"><ele>662.0</ele><time>2026-04-18T07:40:30.999Z</time></trkpt><trkpt lat="47.90127801106286" lon="11.72023375411578"><ele>662.0</ele><time>2026-04-18T07:40:31.999Z</time></trkpt><trkpt lat="47.901063815696624" lon="11.720326792402917"><ele>662.0</ele><time>2026-04-18T07:40:32.999Z</time></trkpt><trkpt lat="47.90084946542338" lon="11.720425121240998"><ele>662.0</ele><time>2026-04-18T07:40:33.999Z</time></trkpt><trkpt lat="47.90063533805784" lon="11.720525189100739"><ele>662.0</ele><time>2026-04-18T07:40:34.999Z</time></trkpt><trkpt lat="47.900419030617236" lon="11.72062987368504"><ele>662.0</ele><time>2026-04-18T07:40:35.999Z</time></trkpt><trkpt lat="47.90020007061736" lon="11.72074063279426"><ele>663.0</ele><time>2026-04-18T07:40:36.999Z</time></trkpt><trkpt lat="47.89997939955682" lon="11.72085738591958"><ele>664.0</ele><time>2026-04-18T07:40:37.999Z</time></trkpt><trkpt lat="47.89975749807064" lon="11.720980667239818"><ele>664.0</ele><time>2026-04-18T07:40:38.999Z</time></trkpt><trkpt lat="47.89953331427331" lon="11.72111043872929"><ele>664.0</ele><time>2026-04-18T07:40:39.999Z</time></trkpt><trkpt lat="47.89931585696695" lon="11.721240200620544"><ele>664.3333333333334</ele><time>2026-04-18T07:40:40.999Z</time></trkpt><trkpt lat="47.89910608675806" lon="11.721368601171793"><ele>664.6666666666666</ele><time>2026-04-18T07:40:41.999Z</time></trkpt><trkpt lat="47.89890466566507" lon="11.72149345127081"><ele>665.0</ele><time>2026-04-18T07:40:42.999Z</time></trkpt><trkpt lat="47.898719692025466" lon="11.721615157011437"><ele>665.0</ele><time>2026-04-18T07:40:43.999Z</time></trkpt><trkpt lat="47.89853486725207" lon="11.721740981559213"><ele>665.0</ele><time>2026-04-18T07:40:44.999Z</time></trkpt><trkpt lat="47.89834650395187" lon="11.72187407221433"><ele>665.0</ele><time>2026-04-18T07:40:45.999Z</time></trkpt><trkpt lat="47.89814884187224" lon="11.722021778237856"><ele>664.5</ele><time>2026-04-18T07:40:46.999Z</time></trkpt><trkpt lat="47.89794531551047" lon="11.722174724854282"><ele>664.0</ele><time>2026-04-18T07:40:47.999Z</time></trkpt><trkpt lat="47.89774150620964" lon="11.722331501760232"><ele>662.5</ele><time>2026-04-18T07:40:48.999Z</time></trkpt><trkpt lat="47.89753930941162" lon="11.722488817664052"><ele>661.0</ele><time>2026-04-18T07:40:49.999Z</time></trkpt><trkpt lat="47.897339986914595" lon="11.722648776774323"><ele>660.5</ele><time>2026-04-18T07:40:50.999Z</time></trkpt><trkpt lat="47.89714182706222" lon="11.72281676385157"><ele>660.0</ele><time>2026-04-18T07:40:51.999Z</time></trkpt><trkpt lat="47.896941090100256" lon="11.722988975759478"><ele>660.5</ele><time>2026-04-18T07:40:52.999Z</time></trkpt><trkpt lat="47.89673752049955" lon="11.723170770406304"><ele>661.0</ele><time>2026-04-18T07:40:53.999Z</time></trkpt><trkpt lat="47.896528767153484" lon="11.723361837785543"><ele>661.0</ele><time>2026-04-18T07:40:55Z</time></trkpt><trkpt lat="47.8963191861299" lon="11.723561333338695"><ele>661.0</ele><time>2026-04-18T07:40:56Z</time></trkpt><trkpt lat="47.89611852323581" lon="11.723757786904576"><ele>660.5</ele><time>2026-04-18T07:40:57Z</time></trkpt><trkpt lat="47.89592209469248" lon="11.72395424370042"><ele>660.0</ele><time>2026-04-18T07:40:58Z</time></trkpt><trkpt lat="47.89572501100184" lon="11.72415856661293"><ele>662.0</ele><time>2026-04-18T07:40:59Z</time></trkpt><trkpt lat="47.89552830034453" lon="11.724369411494592"><ele>664.0</ele><time>2026-04-18T07:41:00Z</time></trkpt><trkpt lat="47.89533059054888" lon="11.724586387533941"><ele>664.0</ele><time>2026-04-18T07:41:01Z</time></trkpt><trkpt lat="47.89513288072456" lon="11.724809038989456"><ele>664.0</ele><time>2026-04-18T07:41:02Z</time></trkpt><trkpt lat="47.8949372530182" lon="11.725038301320366"><ele>664.0</ele><time>2026-04-18T07:41:03Z</time></trkpt><trkpt lat="47.89474290149294" lon="11.725272960960664"><ele>664.0</ele><time>2026-04-18T07:41:04Z</time></trkpt><trkpt lat="47.89454981233156" lon="11.725506188937864"><ele>664.0</ele><time>2026-04-18T07:41:05Z</time></trkpt><trkpt lat="47.89435679217354" lon="11.72574510534184"><ele>664.0</ele><time>2026-04-18T07:41:06Z</time></trkpt><trkpt lat="47.89416527316711" lon="11.725993805451514"><ele>665.0</ele><time>2026-04-18T07:41:07Z</time></trkpt><trkpt lat="47.8939768851535" lon="11.726245931087211"><ele>666.0</ele><time>2026-04-18T07:41:08Z</time></trkpt><trkpt lat="47.893791344783814" lon="11.726499895546782"><ele>666.0</ele><time>2026-04-18T07:41:09Z</time></trkpt><trkpt lat="47.893607558587725" lon="11.726759577290057"><ele>666.0</ele><time>2026-04-18T07:41:10Z</time></trkpt><trkpt lat="47.893430116918324" lon="11.727019148403226"><ele>667.0</ele><time>2026-04-18T07:41:11Z</time></trkpt><trkpt lat="47.893255071807616" lon="11.727280926407735"><ele>668.0</ele><time>2026-04-18T07:41:12Z</time></trkpt><trkpt lat="47.89308221733731" lon="11.727544254910681"><ele>668.0</ele><time>2026-04-18T07:41:13Z</time></trkpt><trkpt lat="47.892910345202736" lon="11.72781815483806"><ele>668.0</ele><time>2026-04-18T07:41:14Z</time></trkpt><trkpt lat="47.892741439887" lon="11.728088046998415"><ele>668.0</ele><time>2026-04-18T07:41:15Z</time></trkpt><trkpt lat="47.89257370010846" lon="11.728361788670744"><ele>668.0</ele><time>2026-04-18T07:41:16Z</time></trkpt><trkpt lat="47.89240822396578" lon="11.72863948865553"><ele>668.0</ele><time>2026-04-18T07:41:17Z</time></trkpt><trkpt lat="47.892246483175754" lon="11.728921069740416"><ele>668.0</ele><time>2026-04-18T07:41:18Z</time></trkpt><trkpt lat="47.89208447531279" lon="11.729214096247023"><ele>667.5</ele><time>2026-04-18T07:41:19Z</time></trkpt><trkpt lat="47.891923060673804" lon="11.72951649498512"><ele>667.0</ele><time>2026-04-18T07:41:20Z</time></trkpt><trkpt lat="47.89176164017184" lon="11.729825357037807"><ele>668.5</ele><time>2026-04-18T07:41:21Z</time></trkpt><trkpt lat="47.89159915058217" lon="11.730145411732344"><ele>670.0</ele><time>2026-04-18T07:41:22Z</time></trkpt><trkpt lat="47.89143660508386" lon="11.730479094614857"><ele>670.0</ele><time>2026-04-18T07:41:23Z</time></trkpt><trkpt lat="47.891277741385935" lon="11.730819902955615"><ele>670.0</ele><time>2026-04-18T07:41:24Z</time></trkpt><trkpt lat="47.89111887584094" lon="11.731164061866068"><ele>669.0</ele><time>2026-04-18T07:41:25Z</time></trkpt><trkpt lat="47.89096057450715" lon="11.731510188743137"><ele>668.0</ele><time>2026-04-18T07:41:26Z</time></trkpt><trkpt lat="47.89081192746544" lon="11.731855878210988"><ele>669.5</ele><time>2026-04-18T07:41:27Z</time></trkpt><trkpt lat="47.890669485164196" lon="11.732203133599636"><ele>671.0</ele><time>2026-04-18T07:41:28Z</time></trkpt><trkpt lat="47.890532056308054" lon="11.732548738658918"><ele>672.0</ele><time>2026-04-18T07:41:29Z</time></trkpt><trkpt lat="47.89039420164037" lon="11.732897408196246"><ele>673.0</ele><time>2026-04-18T07:41:30Z</time></trkpt><trkpt lat="47.89025548353521" lon="11.733245941856175"><ele>675.0</ele><time>2026-04-18T07:41:31Z</time></trkpt><trkpt lat="47.89012016147981" lon="11.733590950801931"><ele>677.0</ele><time>2026-04-18T07:41:32Z</time></trkpt><trkpt lat="47.889987122235354" lon="11.733938078925933"><ele>677.0</ele><time>2026-04-18T07:41:33Z</time></trkpt><trkpt lat="47.88985614837229" lon="11.734287294532232"><ele>677.0</ele><time>2026-04-18T07:41:34Z</time></trkpt><trkpt lat="47.889724894864486" lon="11.734643111814067"><ele>678.0</ele><time>2026-04-18T07:41:35Z</time></trkpt><trkpt lat="47.88959436551672" lon="11.734997914233466"><ele>679.0</ele><time>2026-04-18T07:41:36Z</time></trkpt><trkpt lat="47.88946283611946" lon="11.735348178384953"><ele>679.5</ele><time>2026-04-18T07:41:37Z</time></trkpt><trkpt lat="47.88932924004887" lon="11.735695536062659"><ele>680.0</ele><time>2026-04-18T07:41:38Z</time></trkpt><trkpt lat="47.88919103638326" lon="11.736047872826955"><ele>676.5</ele><time>2026-04-18T07:41:39Z</time></trkpt><trkpt lat="47.88904783281259" lon="11.736402573354072"><ele>673.0</ele><time>2026-04-18T07:41:40Z</time></trkpt><trkpt lat="47.888905107388084" lon="11.736756853980943"><ele>673.0</ele><time>2026-04-18T07:41:41Z</time></trkpt><trkpt lat="47.88876428221736" lon="11.7371073848209"><ele>673.0</ele><time>2026-04-18T07:41:42Z</time></trkpt><trkpt lat="47.888624201929304" lon="11.737454868584836"><ele>672.5</ele><time>2026-04-18T07:41:43Z</time></trkpt><trkpt lat="47.88848210952126" lon="11.737800505326117"><ele>672.0</ele><time>2026-04-18T07:41:44Z</time></trkpt><trkpt lat="47.8883370540807" lon="11.738150814786655"><ele>672.0</ele><time>2026-04-18T07:41:45Z</time></trkpt><trkpt lat="47.888196405047196" lon="11.738497403145056"><ele>672.0</ele><time>2026-04-18T07:41:46Z</time></trkpt><trkpt lat="47.88805966550905" lon="11.738841406499079"><ele>673.5</ele><time>2026-04-18T07:41:47Z</time></trkpt><trkpt lat="47.88792341521494" lon="11.739176662062052"><ele>675.0</ele><time>2026-04-18T07:41:48Z</time></trkpt><trkpt lat="47.887788329850586" lon="11.739508064990606"><ele>678.0</ele><time>2026-04-18T07:41:49Z</time></trkpt><trkpt lat="47.8876513842729" lon="11.739843649768963"><ele>681.0</ele><time>2026-04-18T07:41:50Z</time></trkpt><trkpt lat="47.887515153233885" lon="11.740180229582721"><ele>676.5</ele><time>2026-04-18T07:41:51Z</time></trkpt><trkpt lat="47.88738200723829" lon="11.740513241265852"><ele>672.0</ele><time>2026-04-18T07:41:52Z</time></trkpt><trkpt lat="47.88724815463422" lon="11.740846111894276"><ele>673.5</ele><time>2026-04-18T07:41:53Z</time></trkpt><trkpt lat="47.88711625673247" lon="11.741177647005808"><ele>675.0</ele><time>2026-04-18T07:41:54Z</time></trkpt><trkpt lat="47.88698507557343" lon="11.74150513771958"><ele>675.0</ele><time>2026-04-18T07:41:55Z</time></trkpt><trkpt lat="47.88685120729359" lon="11.74183522193509"><ele>675.0</ele><time>2026-04-18T07:41:56Z</time></trkpt><trkpt lat="47.886716279693" lon="11.742167204609073"><ele>676.0</ele><time>2026-04-18T07:41:57Z</time></trkpt><trkpt lat="47.886583734904036" lon="11.742510264328345"><ele>677.0</ele><time>2026-04-18T07:41:58Z</time></trkpt><trkpt lat="47.88644913626493" lon="11.742865534702338"><ele>677.0</ele><time>2026-04-18T07:41:59Z</time></trkpt><trkpt lat="47.88631125160898" lon="11.7432111201776"><ele>677.0</ele><time>2026-04-18T07:42:00Z</time></trkpt><trkpt lat="47.88617256149845" lon="11.743556662023055"><ele>677.0</ele><time>2026-04-18T07:42:01Z</time></trkpt><trkpt lat="47.88602977559236" lon="11.74390913895441"><ele>677.0</ele><time>2026-04-18T07:42:02Z</time></trkpt><trkpt lat="47.88589431788159" lon="11.744262764546567"><ele>673.5</ele><time>2026-04-18T07:42:03Z</time></trkpt><trkpt lat="47.88576148945724" lon="11.744612304693126"><ele>670.0</ele><time>2026-04-18T07:42:04Z</time></trkpt><trkpt lat="47.88562787807176" lon="11.744956130583272"><ele>670.0</ele><time>2026-04-18T07:42:05Z</time></trkpt><trkpt lat="47.885494179182636" lon="11.745297489213387"><ele>670.0</ele><time>2026-04-18T07:42:06Z</time></trkpt><trkpt lat="47.8853572516951" lon="11.745632093410189"><ele>670.0</ele><time>2026-04-18T07:42:07Z</time></trkpt><trkpt lat="47.88521296147315" lon="11.745954987270382"><ele>670.0</ele><time>2026-04-18T07:42:08Z</time></trkpt><trkpt lat="47.88507551123369" lon="11.746272227455847"><ele>668.0</ele><time>2026-04-18T07:42:09Z</time></trkpt><trkpt lat="47.88494766770199" lon="11.746590952517794"><ele>666.0</ele><time>2026-04-18T07:42:10Z</time></trkpt><trkpt lat="47.884820397769346" lon="11.746907885159125"><ele>666.0</ele><time>2026-04-18T07:42:11Z</time></trkpt><trkpt lat="47.88469254479277" lon="11.747221140516425"><ele>666.0</ele><time>2026-04-18T07:42:12Z</time></trkpt><trkpt lat="47.884563041632326" lon="11.74754094602282"><ele>665.0</ele><time>2026-04-18T07:42:13Z</time></trkpt><trkpt lat="47.88443153144106" lon="11.747865623270698"><ele>664.0</ele><time>2026-04-18T07:42:14Z</time></trkpt><trkpt lat="47.88429891594531" lon="11.74819319298848"><ele>663.5</ele><time>2026-04-18T07:42:15Z</time></trkpt><trkpt lat="47.884164972634565" lon="11.74852502979979"><ele>663.0</ele><time>2026-04-18T07:42:16Z</time></trkpt><trkpt lat="47.8840287643407" lon="11.748862078807472"><ele>663.0</ele><time>2026-04-18T07:42:17Z</time></trkpt><trkpt lat="47.88388788663558" lon="11.74920779330723"><ele>663.0</ele><time>2026-04-18T07:42:18Z</time></trkpt><trkpt lat="47.88374854715087" lon="11.749551934696658"><ele>663.0</ele><time>2026-04-18T07:42:19Z</time></trkpt><trkpt lat="47.88360689974181" lon="11.749896922446332"><ele>663.0</ele><time>2026-04-18T07:42:20Z</time></trkpt><trkpt lat="47.88346467629785" lon="11.750245205776508"><ele>663.5</ele><time>2026-04-18T07:42:21Z</time></trkpt><trkpt lat="47.88332208382348" lon="11.75059873983969"><ele>664.0</ele><time>2026-04-18T07:42:22Z</time></trkpt><trkpt lat="47.88317873947581" lon="11.75095657172757"><ele>664.0</ele><time>2026-04-18T07:42:23Z</time></trkpt><trkpt lat="47.88303567020433" lon="11.751310225865357"><ele>664.0</ele><time>2026-04-18T07:42:24Z</time></trkpt><trkpt lat="47.88289387721499" lon="11.751657372007621"><ele>663.0</ele><time>2026-04-18T07:42:25Z</time></trkpt><trkpt lat="47.8827542897277" lon="11.752000558423305"><ele>662.0</ele><time>2026-04-18T07:42:26Z</time></trkpt><trkpt lat="47.882614951235766" lon="11.752341880963382"><ele>663.0</ele><time>2026-04-18T07:42:27Z</time></trkpt><trkpt lat="47.88247658606541" lon="11.752684281506502"><ele>664.0</ele><time>2026-04-18T07:42:28Z</time></trkpt><trkpt lat="47.88233933087083" lon="11.753026583228607"><ele>664.0</ele><time>2026-04-18T07:42:29Z</time></trkpt><trkpt lat="47.88220152025735" lon="11.753367770438933"><ele>664.0</ele><time>2026-04-18T07:42:30Z</time></trkpt><trkpt lat="47.8820636579327" lon="11.753705401028247"><ele>664.0</ele><time>2026-04-18T07:42:31Z</time></trkpt><trkpt lat="47.88192587947729" lon="11.754038433760966"><ele>664.0</ele><time>2026-04-18T07:42:32Z</time></trkpt><trkpt lat="47.88178964471773" lon="11.75437296001148"><ele>664.5</ele><time>2026-04-18T07:42:33Z</time></trkpt><trkpt lat="47.88165569741824" lon="11.754703168957803"><ele>665.0</ele><time>2026-04-18T07:42:34Z</time></trkpt><trkpt lat="47.88152058603189" lon="11.755035847851685"><ele>666.0</ele><time>2026-04-18T07:42:34.999Z</time></trkpt><trkpt lat="47.8813858420599" lon="11.755371816364953"><ele>667.0</ele><time>2026-04-18T07:42:35.999Z</time></trkpt><trkpt lat="47.88124941196853" lon="11.755710512769866"><ele>666.5</ele><time>2026-04-18T07:42:36.999Z</time></trkpt><trkpt lat="47.88111009532324" lon="11.756051365085499"><ele>666.0</ele><time>2026-04-18T07:42:37.999Z</time></trkpt><trkpt lat="47.8809710064931" lon="11.756395286701718"><ele>666.0</ele><time>2026-04-18T07:42:38.999Z</time></trkpt><trkpt lat="47.880832984727725" lon="11.756748359968029"><ele>666.0</ele><time>2026-04-18T07:42:39.999Z</time></trkpt><trkpt lat="47.88069467173708" lon="11.757110439372946"><ele>666.0</ele><time>2026-04-18T07:42:40.999Z</time></trkpt><trkpt lat="47.88054800340314" lon="11.757469938481139"><ele>666.0</ele><time>2026-04-18T07:42:41.999Z</time></trkpt><trkpt lat="47.88039961331351" lon="11.757830216115176"><ele>666.0</ele><time>2026-04-18T07:42:42.999Z</time></trkpt><trkpt lat="47.88025323917196" lon="11.7581886925144"><ele>666.0</ele><time>2026-04-18T07:42:43.999Z</time></trkpt><trkpt lat="47.880107575310866" lon="11.75854640402598"><ele>665.5</ele><time>2026-04-18T07:42:44.999Z</time></trkpt><trkpt lat="47.87996174559076" lon="11.758902984456693"><ele>665.0</ele><time>2026-04-18T07:42:45.999Z</time></trkpt><trkpt lat="47.87982255094663" lon="11.75924572163499"><ele>664.5</ele><time>2026-04-18T07:42:46.999Z</time></trkpt><trkpt lat="47.87969030052618" lon="11.759578647555792"><ele>664.0</ele><time>2026-04-18T07:42:47.999Z</time></trkpt><trkpt lat="47.87955689611329" lon="11.759903816563225"><ele>663.0</ele><time>2026-04-18T07:42:48.999Z</time></trkpt><trkpt lat="47.879421283913416" lon="11.760219741574879"><ele>662.0</ele><time>2026-04-18T07:42:49.999Z</time></trkpt><trkpt lat="47.87927991602937" lon="11.760525981522001"><ele>662.0</ele><time>2026-04-18T07:42:50.999Z</time></trkpt><trkpt lat="47.87913540436859" lon="11.760827544761275"><ele>662.0</ele><time>2026-04-18T07:42:51.999Z</time></trkpt><trkpt lat="47.87900466896428" lon="11.761136505859284"><ele>662.0</ele><time>2026-04-18T07:42:52.999Z</time></trkpt><trkpt lat="47.87888495435884" lon="11.761451644615018"><ele>662.0</ele><time>2026-04-18T07:42:53.999Z</time></trkpt><trkpt lat="47.87875663433804" lon="11.761773786576804"><ele>660.5</ele><time>2026-04-18T07:42:54.999Z</time></trkpt><trkpt lat="47.878619229619986" lon="11.762104010136934"><ele>659.0</ele><time>2026-04-18T07:42:55.999Z</time></trkpt><trkpt lat="47.87847744836604" lon="11.762453389219555"><ele>660.0</ele><time>2026-04-18T07:42:56.999Z</time></trkpt><trkpt lat="47.878332714365435" lon="11.762823541548334"><ele>661.0</ele><time>2026-04-18T07:42:57.999Z</time></trkpt><trkpt lat="47.87818186259682" lon="11.763200552515134"><ele>661.0</ele><time>2026-04-18T07:42:58.999Z</time></trkpt><trkpt lat="47.87803090736195" lon="11.763572877968636"><ele>661.0</ele><time>2026-04-18T07:42:59.999Z</time></trkpt><trkpt lat="47.87788144734386" lon="11.763942974217091"><ele>661.0</ele><time>2026-04-18T07:43:01Z</time></trkpt><trkpt lat="47.87773482883369" lon="11.764304071185139"><ele>661.0</ele><time>2026-04-18T07:43:02Z</time></trkpt><trkpt lat="47.87759126005069" lon="11.76465865449437"><ele>660.5</ele><time>2026-04-18T07:43:03Z</time></trkpt><trkpt lat="47.87745231245089" lon="11.765003118941472"><ele>660.0</ele><time>2026-04-18T07:43:04Z</time></trkpt><trkpt lat="47.87731662174331" lon="11.765334456330399"><ele>660.0</ele><time>2026-04-18T07:43:05Z</time></trkpt><trkpt lat="47.877182610450184" lon="11.765660420086125"><ele>660.0</ele><time>2026-04-18T07:43:06Z</time></trkpt><trkpt lat="47.877048900811054" lon="11.765984172081133"><ele>661.0</ele><time>2026-04-18T07:43:07Z</time></trkpt><trkpt lat="47.87691561157251" lon="11.766310923718217"><ele>662.0</ele><time>2026-04-18T07:43:08Z</time></trkpt><trkpt lat="47.87678374611157" lon="11.76663898171543"><ele>661.0</ele><time>2026-04-18T07:43:09Z</time></trkpt><trkpt lat="47.8766495042742" lon="11.766972630769136"><ele>660.0</ele><time>2026-04-18T07:43:10Z</time></trkpt><trkpt lat="47.8765137946191" lon="11.767309481143268"><ele>660.0</ele><time>2026-04-18T07:43:11Z</time></trkpt><trkpt lat="47.87637555597941" lon="11.767644181203774"><ele>660.0</ele><time>2026-04-18T07:43:12Z</time></trkpt><trkpt lat="47.876238757305444" lon="11.767979611142344"><ele>659.0</ele><time>2026-04-18T07:43:13Z</time></trkpt><trkpt lat="47.876107263363885" lon="11.768315081996809"><ele>658.0</ele><time>2026-04-18T07:43:14Z</time></trkpt><trkpt lat="47.87597461638313" lon="11.768644356409178"><ele>658.5</ele><time>2026-04-18T07:43:15Z</time></trkpt><trkpt lat="47.875839624623815" lon="11.768969835855852"><ele>659.0</ele><time>2026-04-18T07:43:16Z</time></trkpt><trkpt lat="47.87570443462654" lon="11.769304137957125"><ele>660.0</ele><time>2026-04-18T07:43:17Z</time></trkpt><trkpt lat="47.87556988615559" lon="11.769636663785548"><ele>661.0</ele><time>2026-04-18T07:43:18Z</time></trkpt><trkpt lat="47.87543349208071" lon="11.769969504370774"><ele>660.0</ele><time>2026-04-18T07:43:19Z</time></trkpt><trkpt lat="47.87529919575721" lon="11.770298270061394"><ele>659.0</ele><time>2026-04-18T07:43:20Z</time></trkpt><trkpt lat="47.87516872165909" lon="11.770621411826157"><ele>659.5</ele><time>2026-04-18T07:43:21Z</time></trkpt><trkpt lat="47.87504020099542" lon="11.770937097196093"><ele>660.0</ele><time>2026-04-18T07:43:22Z</time></trkpt><trkpt lat="47.87491957599318" lon="11.771231380030017"><ele>660.0</ele><time>2026-04-18T07:43:23Z</time></trkpt><trkpt lat="47.874801187481495" lon="11.771515472560091"><ele>660.0</ele><time>2026-04-18T07:43:24Z</time></trkpt><trkpt lat="47.87468344546864" lon="11.771801478109245"><ele>660.0</ele><time>2026-04-18T07:43:25Z</time></trkpt><trkpt lat="47.874566770481216" lon="11.772097063737611"><ele>660.5</ele><time>2026-04-18T07:43:26Z</time></trkpt><trkpt lat="47.874444383528804" lon="11.772398071426524"><ele>661.0</ele><time>2026-04-18T07:43:27Z</time></trkpt><trkpt lat="47.87431991454007" lon="11.772704628657815"><ele>661.0</ele><time>2026-04-18T07:43:28Z</time></trkpt><trkpt lat="47.874192572420164" lon="11.773015903148165"><ele>661.0</ele><time>2026-04-18T07:43:29Z</time></trkpt><trkpt lat="47.874065541712696" lon="11.773326337718244"><ele>660.5</ele><time>2026-04-18T07:43:30Z</time></trkpt><trkpt lat="47.87393603408011" lon="11.773643024527601"><ele>660.0</ele><time>2026-04-18T07:43:31Z</time></trkpt><trkpt lat="47.873806187869015" lon="11.773962319044568"><ele>660.0</ele><time>2026-04-18T07:43:32Z</time></trkpt><trkpt lat="47.87367512538886" lon="11.77428295636176"><ele>660.0</ele><time>2026-04-18T07:43:33Z</time></trkpt><trkpt lat="47.87354305231425" lon="11.774607173220323"><ele>661.0</ele><time>2026-04-18T07:43:34Z</time></trkpt><trkpt lat="47.87340912993917" lon="11.774938699985723"><ele>662.0</ele><time>2026-04-18T07:43:35Z</time></trkpt><trkpt lat="47.87327174711511" lon="11.775282611448752"><ele>662.5</ele><time>2026-04-18T07:43:36Z</time></trkpt><trkpt lat="47.873134535271504" lon="11.775623742607655"><ele>663.0</ele><time>2026-04-18T07:43:37Z</time></trkpt><trkpt lat="47.873004612754166" lon="11.775945235553129"><ele>663.0</ele><time>2026-04-18T07:43:38Z</time></trkpt><trkpt lat="47.87287799006778" lon="11.776257858608005"><ele>663.0</ele><time>2026-04-18T07:43:39Z</time></trkpt><trkpt lat="47.87275354402953" lon="11.77656289439024"><ele>662.5</ele><time>2026-04-18T07:43:40Z</time></trkpt><trkpt lat="47.87262900320767" lon="11.776869750831109"><ele>662.0</ele><time>2026-04-18T07:43:41Z</time></trkpt><trkpt lat="47.87250430655752" lon="11.777177137075437"><ele>662.0</ele><time>2026-04-18T07:43:42Z</time></trkpt><trkpt lat="47.87238136638842" lon="11.777480614588622"><ele>662.0</ele><time>2026-04-18T07:43:43Z</time></trkpt><trkpt lat="47.87226006337139" lon="11.777780282886381"><ele>661.5</ele><time>2026-04-18T07:43:44Z</time></trkpt><trkpt lat="47.87214064286804" lon="11.778075301418472"><ele>661.0</ele><time>2026-04-18T07:43:45Z</time></trkpt><trkpt lat="47.87202168719943" lon="11.778369198991586"><ele>661.5</ele><time>2026-04-18T07:43:46Z</time></trkpt><trkpt lat="47.871901995638055" lon="11.778666748819795"><ele>662.0</ele><time>2026-04-18T07:43:47Z</time></trkpt><trkpt lat="47.871775748629666" lon="11.77897467183908"><ele>663.0</ele><time>2026-04-18T07:43:48Z</time></trkpt><trkpt lat="47.87164689244547" lon="11.779289689160885"><ele>664.0</ele><time>2026-04-18T07:43:49Z</time></trkpt><trkpt lat="47.87152109533614" lon="11.77960221432166"><ele>664.0</ele><time>2026-04-18T07:43:50Z</time></trkpt><trkpt lat="47.87139558607174" lon="11.779911774683097"><ele>664.0</ele><time>2026-04-18T07:43:51Z</time></trkpt><trkpt lat="47.87127254966252" lon="11.780213238033175"><ele>663.0</ele><time>2026-04-18T07:43:52Z</time></trkpt><trkpt lat="47.871150880284546" lon="11.78051443521925"><ele>662.0</ele><time>2026-04-18T07:43:53Z</time></trkpt><trkpt lat="47.87102770304626" lon="11.780821211530066"><ele>662.5</ele><time>2026-04-18T07:43:54Z</time></trkpt><trkpt lat="47.87090315615488" lon="11.781129918524654"><ele>663.0</ele><time>2026-04-18T07:43:55Z</time></trkpt><trkpt lat="47.87077968588247" lon="11.781434384315487"><ele>663.0</ele><time>2026-04-18T07:43:56Z</time></trkpt><trkpt lat="47.87065859562313" lon="11.7817389087369"><ele>663.0</ele><time>2026-04-18T07:43:57Z</time></trkpt><trkpt lat="47.87053290201368" lon="11.782051985610195"><ele>661.5</ele><time>2026-04-18T07:43:58Z</time></trkpt><trkpt lat="47.870409122788224" lon="11.782383613657885"><ele>660.0</ele><time>2026-04-18T07:43:59Z</time></trkpt><trkpt lat="47.870287436430154" lon="11.782725413801455"><ele>659.5</ele><time>2026-04-18T07:44:00Z</time></trkpt><trkpt lat="47.87016434380011" lon="11.783060400983322"><ele>659.0</ele><time>2026-04-18T07:44:01Z</time></trkpt><trkpt lat="47.870039768710505" lon="11.783393116740587"><ele>660.5</ele><time>2026-04-18T07:44:02Z</time></trkpt><trkpt lat="47.8699177695228" lon="11.78372293297283"><ele>662.0</ele><time>2026-04-18T07:44:03Z</time></trkpt><trkpt lat="47.869790087040954" lon="11.784050385870039"><ele>661.5</ele><time>2026-04-18T07:44:04Z</time></trkpt><trkpt lat="47.86965967752147" lon="11.784375907420205"><ele>661.0</ele><time>2026-04-18T07:44:05Z</time></trkpt><trkpt lat="47.869526841179784" lon="11.78470467677381"><ele>661.0</ele><time>2026-04-18T07:44:06Z</time></trkpt><trkpt lat="47.86939358572442" lon="11.78503560523541"><ele>661.0</ele><time>2026-04-18T07:44:07Z</time></trkpt><trkpt lat="47.869263509271455" lon="11.785359731740689"><ele>646.5</ele><time>2026-04-18T07:44:08Z</time></trkpt><trkpt lat="47.869137064281375" lon="11.785668676110578"><ele>632.0</ele><time>2026-04-18T07:44:09Z</time></trkpt><trkpt lat="47.86900520280634" lon="11.785987701291033"><ele>625.5</ele><time>2026-04-18T07:44:10Z</time></trkpt><trkpt lat="47.86886402295639" lon="11.786330912396144"><ele>619.0</ele><time>2026-04-18T07:44:11Z</time></trkpt><trkpt lat="47.86871502740284" lon="11.786697063307058"><ele>622.5</ele><time>2026-04-18T07:44:12Z</time></trkpt><trkpt lat="47.86855809529571" lon="11.787082544759278"><ele>626.0</ele><time>2026-04-18T07:44:13Z</time></trkpt><trkpt lat="47.868397794922174" lon="11.787487530244272"><ele>644.5</ele><time>2026-04-18T07:44:14Z</time></trkpt><trkpt lat="47.86823320545174" lon="11.78789903363918"><ele>663.0</ele><time>2026-04-18T07:44:15Z</time></trkpt><trkpt lat="47.86806936013468" lon="11.78829909860877"><ele>667.5</ele><time>2026-04-18T07:44:16Z</time></trkpt><trkpt lat="47.86790887914133" lon="11.788691515113557"><ele>672.0</ele><time>2026-04-18T07:44:17Z</time></trkpt><trkpt lat="47.86775146541498" lon="11.789075017704597"><ele>675.0</ele><time>2026-04-18T07:44:18Z</time></trkpt><trkpt lat="47.86759516020912" lon="11.789452263712429"><ele>678.0</ele><time>2026-04-18T07:44:19Z</time></trkpt><trkpt lat="47.86744425120457" lon="11.789826552881546"><ele>678.5</ele><time>2026-04-18T07:44:20Z</time></trkpt><trkpt lat="47.867295875077104" lon="11.790195684188628"><ele>679.0</ele><time>2026-04-18T07:44:21Z</time></trkpt><trkpt lat="47.867147242814745" lon="11.790560853280732"><ele>679.0</ele><time>2026-04-18T07:44:22Z</time></trkpt><trkpt lat="47.86700178595456" lon="11.790914623556372"><ele>679.0</ele><time>2026-04-18T07:44:23Z</time></trkpt><trkpt lat="47.86686234955318" lon="11.791259449779954"><ele>680.0</ele><time>2026-04-18T07:44:24Z</time></trkpt><trkpt lat="47.86672988226377" lon="11.791599423452135"><ele>681.0</ele><time>2026-04-18T07:44:25Z</time></trkpt><trkpt lat="47.866599434796115" lon="11.79194063874879"><ele>681.0</ele><time>2026-04-18T07:44:26Z</time></trkpt><trkpt lat="47.8664691050482" lon="11.792292084230102"><ele>681.0</ele><time>2026-04-18T07:44:27Z</time></trkpt><trkpt lat="47.866342426267984" lon="11.792656955197858"><ele>680.5</ele><time>2026-04-18T07:44:28Z</time></trkpt><trkpt lat="47.86621935213903" lon="11.793036795267865"><ele>680.0</ele><time>2026-04-18T07:44:29Z</time></trkpt><trkpt lat="47.86610107456497" lon="11.793415231328709"><ele>677.5</ele><time>2026-04-18T07:44:30Z</time></trkpt><trkpt lat="47.86598942647549" lon="11.793796216432202"><ele>675.0</ele><time>2026-04-18T07:44:31Z</time></trkpt><trkpt lat="47.86588381164462" lon="11.794183824636988"><ele>673.5</ele><time>2026-04-18T07:44:32Z</time></trkpt><trkpt lat="47.865781705945906" lon="11.794574050719028"><ele>672.0</ele><time>2026-04-18T07:44:33Z</time></trkpt><trkpt lat="47.86568406002232" lon="11.794965398588264"><ele>671.0</ele><time>2026-04-18T07:44:34Z</time></trkpt><trkpt lat="47.86558750373526" lon="11.795365669135116"><ele>670.0</ele><time>2026-04-18T07:44:35Z</time></trkpt><trkpt lat="47.865491296764326" lon="11.795778013701897"><ele>669.0</ele><time>2026-04-18T07:44:36Z</time></trkpt><trkpt lat="47.86539993888924" lon="11.796198098751294"><ele>668.0</ele><time>2026-04-18T07:44:37Z</time></trkpt><trkpt lat="47.865313234569754" lon="11.796614341526812"><ele>668.5</ele><time>2026-04-18T07:44:38Z</time></trkpt><trkpt lat="47.86523230174099" lon="11.79702718222036"><ele>669.0</ele><time>2026-04-18T07:44:39Z</time></trkpt><trkpt lat="47.86516132951299" lon="11.797427027079447"><ele>669.0</ele><time>2026-04-18T07:44:40Z</time></trkpt><trkpt lat="47.865093709645144" lon="11.797820040102852"><ele>669.0</ele><time>2026-04-18T07:44:41Z</time></trkpt><trkpt lat="47.865030853424486" lon="11.798206752814632"><ele>668.5</ele><time>2026-04-18T07:44:42Z</time></trkpt><trkpt lat="47.864970045034234" lon="11.798603814263362"><ele>668.0</ele><time>2026-04-18T07:44:42.999Z</time></trkpt><trkpt lat="47.864912055728055" lon="11.799006948118361"><ele>668.0</ele><time>2026-04-18T07:44:43.999Z</time></trkpt><trkpt lat="47.86485958417433" lon="11.79941805372581"><ele>668.0</ele><time>2026-04-18T07:44:44.999Z</time></trkpt><trkpt lat="47.86481247900472" lon="11.799830842717792"><ele>667.0</ele><time>2026-04-18T07:44:45.999Z</time></trkpt><trkpt lat="47.86476861465455" lon="11.800240644517187"><ele>666.0</ele><time>2026-04-18T07:44:46.999Z</time></trkpt><trkpt lat="47.86472922936481" lon="11.800652792228975"><ele>664.0</ele><time>2026-04-18T07:44:47.999Z</time></trkpt><trkpt lat="47.864694151518826" lon="11.801067933051065"><ele>662.0</ele><time>2026-04-18T07:44:48.999Z</time></trkpt><trkpt lat="47.86466179657569" lon="11.801484769097781"><ele>661.5</ele><time>2026-04-18T07:44:49.999Z</time></trkpt><trkpt lat="47.86463519966287" lon="11.8019046950689"><ele>661.0</ele><time>2026-04-18T07:44:50.999Z</time></trkpt><trkpt lat="47.86461290838963" lon="11.802320757808292"><ele>660.0</ele><time>2026-04-18T07:44:51.999Z</time></trkpt><trkpt lat="47.86459482190474" lon="11.802734860047359"><ele>659.0</ele><time>2026-04-18T07:44:52.999Z</time></trkpt><trkpt lat="47.86458158269181" lon="11.803149737222123"><ele>658.5</ele><time>2026-04-18T07:44:53.999Z</time></trkpt><trkpt lat="47.864572637128774" lon="11.803571482908016"><ele>658.0</ele><time>2026-04-18T07:44:54.999Z</time></trkpt><trkpt lat="47.864567010132646" lon="11.803996481189776"><ele>657.5</ele><time>2026-04-18T07:44:55.999Z</time></trkpt><trkpt lat="47.86456618655166" lon="11.804419473325826"><ele>657.0</ele><time>2026-04-18T07:44:56.999Z</time></trkpt><trkpt lat="47.864568928308685" lon="11.804839556441703"><ele>659.5</ele><time>2026-04-18T07:44:57.999Z</time></trkpt><trkpt lat="47.86457304334537" lon="11.805251202057347"><ele>662.0</ele><time>2026-04-18T07:44:58.999Z</time></trkpt><trkpt lat="47.86457977346582" lon="11.805643248840411"><ele>662.0</ele><time>2026-04-18T07:44:59.999Z</time></trkpt><trkpt lat="47.86458970418212" lon="11.806024036343972"><ele>662.0</ele><time>2026-04-18T07:45:00.999Z</time></trkpt><trkpt lat="47.86460088140239" lon="11.806399194453046"><ele>662.0</ele><time>2026-04-18T07:45:01.999Z</time></trkpt><trkpt lat="47.86461570583713" lon="11.806773371280515"><ele>662.0</ele><time>2026-04-18T07:45:02.999Z</time></trkpt><trkpt lat="47.864636314601384" lon="11.807147359545532"><ele>662.0</ele><time>2026-04-18T07:45:03.999Z</time></trkpt><trkpt lat="47.86466927945458" lon="11.80753444430971"><ele>662.0</ele><time>2026-04-18T07:45:04.999Z</time></trkpt><trkpt lat="47.864707742854925" lon="11.807945677985526"><ele>661.5</ele><time>2026-04-18T07:45:05.999Z</time></trkpt><trkpt lat="47.864749652526825" lon="11.808374182328366"><ele>661.0</ele><time>2026-04-18T07:45:07Z</time></trkpt><trkpt lat="47.86479933699018" lon="11.808819564963873"><ele>660.0</ele><time>2026-04-18T07:45:08Z</time></trkpt><trkpt lat="47.864852784636355" lon="11.809276403233616"><ele>659.0</ele><time>2026-04-18T07:45:09Z</time></trkpt><trkpt lat="47.86490393638835" lon="11.809730125053045"><ele>656.5</ele><time>2026-04-18T07:45:10Z</time></trkpt><trkpt lat="47.864952670762804" lon="11.810182786155426"><ele>654.0</ele><time>2026-04-18T07:45:11Z</time></trkpt><trkpt lat="47.865000262768184" lon="11.81062809614211"><ele>652.5</ele><time>2026-04-18T07:45:12Z</time></trkpt><trkpt lat="47.865047269009395" lon="11.811067391215218"><ele>651.0</ele><time>2026-04-18T07:45:13Z</time></trkpt><trkpt lat="47.86509416033557" lon="11.811506653308118"><ele>651.0</ele><time>2026-04-18T07:45:14Z</time></trkpt><trkpt lat="47.86514240877405" lon="11.811944215450243"><ele>651.0</ele><time>2026-04-18T07:45:15Z</time></trkpt><trkpt lat="47.86519262485418" lon="11.812382611303537"><ele>653.0</ele><time>2026-04-18T07:45:16Z</time></trkpt><trkpt lat="47.86524257534179" lon="11.812812568093959"><ele>655.0</ele><time>2026-04-18T07:45:17Z</time></trkpt><trkpt lat="47.86529171959436" lon="11.813237469921592"><ele>656.5</ele><time>2026-04-18T07:45:18Z</time></trkpt><trkpt lat="47.86533672139136" lon="11.81365460862036"><ele>658.0</ele><time>2026-04-18T07:45:19Z</time></trkpt><trkpt lat="47.86537851543173" lon="11.814066707976522"><ele>658.5</ele><time>2026-04-18T07:45:20Z</time></trkpt><trkpt lat="47.8654219773485" lon="11.814472952069524"><ele>659.0</ele><time>2026-04-18T07:45:21Z</time></trkpt><trkpt lat="47.8654658190448" lon="11.814879579066249"><ele>660.5</ele><time>2026-04-18T07:45:22Z</time></trkpt><trkpt lat="47.86550255175481" lon="11.815286734432167"><ele>662.0</ele><time>2026-04-18T07:45:23Z</time></trkpt><trkpt lat="47.865529520059766" lon="11.815694260800786"><ele>663.0</ele><time>2026-04-18T07:45:24Z</time></trkpt><trkpt lat="47.86554867306611" lon="11.816093416999292"><ele>664.0</ele><time>2026-04-18T07:45:25Z</time></trkpt><trkpt lat="47.86556157392354" lon="11.816483042126247"><ele>664.5</ele><time>2026-04-18T07:45:26Z</time></trkpt><trkpt lat="47.86557268627567" lon="11.81685154783116"><ele>665.0</ele><time>2026-04-18T07:45:27Z</time></trkpt><trkpt lat="47.86558150121745" lon="11.817207293264401"><ele>665.0</ele><time>2026-04-18T07:45:28Z</time></trkpt><trkpt lat="47.865585325813264" lon="11.817560713521086"><ele>665.0</ele><time>2026-04-18T07:45:29Z</time></trkpt><trkpt lat="47.865584910101255" lon="11.81791872973361"><ele>663.5</ele><time>2026-04-18T07:45:30Z</time></trkpt><trkpt lat="47.86557860589993" lon="11.818283932801808"><ele>662.0</ele><time>2026-04-18T07:45:31Z</time></trkpt><trkpt lat="47.86556676776941" lon="11.818652677976008"><ele>661.5</ele><time>2026-04-18T07:45:32Z</time></trkpt><trkpt lat="47.86555570995925" lon="11.819026410083227"><ele>661.0</ele><time>2026-04-18T07:45:33Z</time></trkpt><trkpt lat="47.865541112044404" lon="11.819406229423176"><ele>661.0</ele><time>2026-04-18T07:45:34Z</time></trkpt><trkpt lat="47.86552515592259" lon="11.819788068681055"><ele>661.0</ele><time>2026-04-18T07:45:35Z</time></trkpt><trkpt lat="47.86550521320764" lon="11.820168697724498"><ele>661.0</ele><time>2026-04-18T07:45:36Z</time></trkpt><trkpt lat="47.86548137228863" lon="11.820549790324813"><ele>661.0</ele><time>2026-04-18T07:45:37Z</time></trkpt><trkpt lat="47.865454005559286" lon="11.82093227923443"><ele>662.5</ele><time>2026-04-18T07:45:38Z</time></trkpt><trkpt lat="47.86542467629736" lon="11.821317782870624"><ele>664.0</ele><time>2026-04-18T07:45:39Z</time></trkpt><trkpt lat="47.86539020931767" lon="11.82170742972635"><ele>663.0</ele><time>2026-04-18T07:45:40Z</time></trkpt><trkpt lat="47.865348690124605" lon="11.822102604431707"><ele>662.0</ele><time>2026-04-18T07:45:41Z</time></trkpt><trkpt lat="47.86530211127119" lon="11.822509447327894"><ele>660.5</ele><time>2026-04-18T07:45:42Z</time></trkpt><trkpt lat="47.865247868772116" lon="11.822925305054467"><ele>659.0</ele><time>2026-04-18T07:45:43Z</time></trkpt><trkpt lat="47.86519024512406" lon="11.823350156488278"><ele>660.0</ele><time>2026-04-18T07:45:44Z</time></trkpt><trkpt lat="47.86513442084818" lon="11.823761400278665"><ele>661.0</ele><time>2026-04-18T07:45:45Z</time></trkpt><trkpt lat="47.86508147716509" lon="11.824160309438827"><ele>663.0</ele><time>2026-04-18T07:45:46Z</time></trkpt><trkpt lat="47.86503228996706" lon="11.824544612977043"><ele>665.0</ele><time>2026-04-18T07:45:47Z</time></trkpt><trkpt lat="47.864984030137904" lon="11.824915133405263"><ele>665.5</ele><time>2026-04-18T07:45:48Z</time></trkpt><trkpt lat="47.8649352067347" lon="11.825264622545605"><ele>666.0</ele><time>2026-04-18T07:45:49Z</time></trkpt><trkpt lat="47.864888462267345" lon="11.82560650635675"><ele>666.0</ele><time>2026-04-18T07:45:50Z</time></trkpt><trkpt lat="47.864843615551365" lon="11.825949198520577"><ele>666.0</ele><time>2026-04-18T07:45:51Z</time></trkpt><trkpt lat="47.86479627339892" lon="11.826290628396904"><ele>664.0</ele><time>2026-04-18T07:45:52Z</time></trkpt><trkpt lat="47.86474877873864" lon="11.826634615159904"><ele>662.0</ele><time>2026-04-18T07:45:53Z</time></trkpt><trkpt lat="47.86470241847916" lon="11.826984775107798"><ele>660.5</ele><time>2026-04-18T07:45:54Z</time></trkpt><trkpt lat="47.86465517343198" lon="11.827348079268218"><ele>659.0</ele><time>2026-04-18T07:45:55Z</time></trkpt><trkpt lat="47.86460391133384" lon="11.827720128209648"><ele>659.0</ele><time>2026-04-18T07:45:56Z</time></trkpt><trkpt lat="47.86455163133602" lon="11.828096816195252"><ele>659.0</ele><time>2026-04-18T07:45:57Z</time></trkpt><trkpt lat="47.86449399474078" lon="11.828477213952063"><ele>657.0</ele><time>2026-04-18T07:45:58Z</time></trkpt><trkpt lat="47.864429699107916" lon="11.828863107024919"><ele>655.0</ele><time>2026-04-18T07:45:59Z</time></trkpt><trkpt lat="47.86436402901475" lon="11.829251169933777"><ele>655.5</ele><time>2026-04-18T07:46:00Z</time></trkpt><trkpt lat="47.864296025529676" lon="11.829640320712432"><ele>656.0</ele><time>2026-04-18T07:46:01Z</time></trkpt><trkpt lat="47.8642221106917" lon="11.83001935209855"><ele>655.5</ele><time>2026-04-18T07:46:02Z</time></trkpt><trkpt lat="47.86414841914711" lon="11.830394438828321"><ele>655.0</ele><time>2026-04-18T07:46:03Z</time></trkpt><trkpt lat="47.864074232279265" lon="11.830763814343426"><ele>657.0</ele><time>2026-04-18T07:46:04Z</time></trkpt><trkpt lat="47.86399719552255" lon="11.831125938738714"><ele>659.0</ele><time>2026-04-18T07:46:05Z</time></trkpt><trkpt lat="47.86391839312079" lon="11.83148514048969"><ele>660.0</ele><time>2026-04-18T07:46:06Z</time></trkpt><trkpt lat="47.86384022607926" lon="11.831839989155583"><ele>661.0</ele><time>2026-04-18T07:46:07Z</time></trkpt><trkpt lat="47.86351264144871" lon="11.83323410064265"><ele>666.5</ele><time>2026-04-18T07:46:11Z</time></trkpt><trkpt lat="47.863425347506364" lon="11.833592319929688"><ele>672.0</ele><time>2026-04-18T07:46:12Z</time></trkpt><trkpt lat="47.863337247375966" lon="11.833948925540538"><ele>672.0</ele><time>2026-04-18T07:46:13Z</time></trkpt><trkpt lat="47.86324974504915" lon="11.834297379331034"><ele>672.0</ele><time>2026-04-18T07:46:14Z</time></trkpt><trkpt lat="47.86315958531133" lon="11.834647704585276"><ele>672.0</ele><time>2026-04-18T07:46:15Z</time></trkpt><trkpt lat="47.863065511564685" lon="11.835011358584056"><ele>672.0</ele><time>2026-04-18T07:46:16Z</time></trkpt><trkpt lat="47.86297112891263" lon="11.835389538309741"><ele>672.0</ele><time>2026-04-18T07:46:17Z</time></trkpt><trkpt lat="47.862872388157975" lon="11.835777574409988"><ele>672.0</ele><time>2026-04-18T07:46:18Z</time></trkpt><trkpt lat="47.86277187198284" lon="11.836172529604859"><ele>670.0</ele><time>2026-04-18T07:46:19Z</time></trkpt><trkpt lat="47.86267385896274" lon="11.836565402045876"><ele>668.0</ele><time>2026-04-18T07:46:20Z</time></trkpt><trkpt lat="47.86257884401307" lon="11.83694298289444"><ele>667.5</ele><time>2026-04-18T07:46:21Z</time></trkpt><trkpt lat="47.86248776274287" lon="11.837310263450476"><ele>667.0</ele><time>2026-04-18T07:46:22Z</time></trkpt><trkpt lat="47.862399015060305" lon="11.837669358009066"><ele>669.0</ele><time>2026-04-18T07:46:23Z</time></trkpt><trkpt lat="47.86231510037358" lon="11.838020673477043"><ele>671.0</ele><time>2026-04-18T07:46:24Z</time></trkpt><trkpt lat="47.862240784936844" lon="11.838373734859154"><ele>674.0</ele><time>2026-04-18T07:46:25Z</time></trkpt><trkpt lat="47.86217680370988" lon="11.83873001917737"><ele>677.0</ele><time>2026-04-18T07:46:26Z</time></trkpt><trkpt lat="47.86211968985879" lon="11.839086769155054"><ele>679.5</ele><time>2026-04-18T07:46:27Z</time></trkpt><trkpt lat="47.86206868957887" lon="11.839445014441674"><ele>682.0</ele><time>2026-04-18T07:46:28Z</time></trkpt><trkpt lat="47.86202728238144" lon="11.839805482823325"><ele>682.5</ele><time>2026-04-18T07:46:29Z</time></trkpt><trkpt lat="47.86199156224996" lon="11.840170017831356"><ele>683.0</ele><time>2026-04-18T07:46:30Z</time></trkpt><trkpt lat="47.86196203157113" lon="11.840538436897239"><ele>683.0</ele><time>2026-04-18T07:46:31Z</time></trkpt><trkpt lat="47.86193306751732" lon="11.840911777885834"><ele>683.0</ele><time>2026-04-18T07:46:32Z</time></trkpt><trkpt lat="47.86189369191088" lon="11.841282299123801"><ele>683.5</ele><time>2026-04-18T07:46:33Z</time></trkpt><trkpt lat="47.8618444744027" lon="11.84165098568679"><ele>684.0</ele><time>2026-04-18T07:46:34Z</time></trkpt><trkpt lat="47.86181557814834" lon="11.842023006299867"><ele>682.0</ele><time>2026-04-18T07:46:35Z</time></trkpt><trkpt lat="47.8617874478263" lon="11.842391667200635"><ele>680.0</ele><time>2026-04-18T07:46:36Z</time></trkpt><trkpt lat="47.861759446049646" lon="11.842740053928713"><ele>675.0</ele><time>2026-04-18T07:46:37Z</time></trkpt><trkpt lat="47.86173954415273" lon="11.843083151802418"><ele>670.0</ele><time>2026-04-18T07:46:38Z</time></trkpt><trkpt lat="47.861717133771826" lon="11.843438466142416"><ele>669.5</ele><time>2026-04-18T07:46:39Z</time></trkpt><trkpt lat="47.861677498343134" lon="11.843800121184737"><ele>669.0</ele><time>2026-04-18T07:46:40Z</time></trkpt><trkpt lat="47.861625906605894" lon="11.844169593814366"><ele>668.0</ele><time>2026-04-18T07:46:41Z</time></trkpt><trkpt lat="47.86156655177558" lon="11.844542829820417"><ele>667.0</ele><time>2026-04-18T07:46:42Z</time></trkpt><trkpt lat="47.86149426735596" lon="11.844922232803357"><ele>666.0</ele><time>2026-04-18T07:46:43Z</time></trkpt><trkpt lat="47.861411939549185" lon="11.845301478409716"><ele>665.0</ele><time>2026-04-18T07:46:44Z</time></trkpt><trkpt lat="47.86131149770348" lon="11.845677098070945"><ele>664.0</ele><time>2026-04-18T07:46:45Z</time></trkpt><trkpt lat="47.86120138283893" lon="11.846042947497851"><ele>663.0</ele><time>2026-04-18T07:46:46Z</time></trkpt><trkpt lat="47.861090052673596" lon="11.846403099294017"><ele>663.0</ele><time>2026-04-18T07:46:47Z</time></trkpt><trkpt lat="47.86097319229604" lon="11.846745321628779"><ele>663.0</ele><time>2026-04-18T07:46:48Z</time></trkpt><trkpt lat="47.860848948058255" lon="11.847079744718432"><ele>660.0</ele><time>2026-04-18T07:46:49Z</time></trkpt><trkpt lat="47.860718718703865" lon="11.847408565480633"><ele>657.0</ele><time>2026-04-18T07:46:50Z</time></trkpt><trkpt lat="47.86058634217532" lon="11.847724270060707"><ele>656.0</ele><time>2026-04-18T07:46:51Z</time></trkpt><trkpt lat="47.86045971955122" lon="11.848032334294501"><ele>655.0</ele><time>2026-04-18T07:46:52Z</time></trkpt><trkpt lat="47.86033981248588" lon="11.848332369515003"><ele>655.0</ele><time>2026-04-18T07:46:53Z</time></trkpt><trkpt lat="47.86021985348277" lon="11.848626232017894"><ele>655.0</ele><time>2026-04-18T07:46:54Z</time></trkpt><trkpt lat="47.86009618511281" lon="11.848922239120267"><ele>654.5</ele><time>2026-04-18T07:46:55Z</time></trkpt><trkpt lat="47.859971438826115" lon="11.849216484156472"><ele>654.0</ele><time>2026-04-18T07:46:56Z</time></trkpt><trkpt lat="47.859848196524204" lon="11.849510403583741"><ele>654.0</ele><time>2026-04-18T07:46:57Z</time></trkpt><trkpt lat="47.859726496383914" lon="11.849807242318546"><ele>654.0</ele><time>2026-04-18T07:46:58Z</time></trkpt><trkpt lat="47.859602173111405" lon="11.850106142545519"><ele>653.0</ele><time>2026-04-18T07:46:59Z</time></trkpt><trkpt lat="47.859476676513594" lon="11.85040626619507"><ele>652.0</ele><time>2026-04-18T07:47:00Z</time></trkpt><trkpt lat="47.85934915508419" lon="11.850709569972425"><ele>654.0</ele><time>2026-04-18T07:47:01Z</time></trkpt><trkpt lat="47.859220382507424" lon="11.851014846161421"><ele>656.0</ele><time>2026-04-18T07:47:02Z</time></trkpt><trkpt lat="47.85908797593228" lon="11.851320452443263"><ele>656.0</ele><time>2026-04-18T07:47:03Z</time></trkpt><trkpt lat="47.85894892582995" lon="11.851634330353574"><ele>656.0</ele><time>2026-04-18T07:47:04Z</time></trkpt><trkpt lat="47.858812091573114" lon="11.85195119727667"><ele>656.5</ele><time>2026-04-18T07:47:05Z</time></trkpt><trkpt lat="47.85867760155199" lon="11.85226957704357"><ele>657.0</ele><time>2026-04-18T07:47:06Z</time></trkpt><trkpt lat="47.858544231142865" lon="11.852590643198461"><ele>658.0</ele><time>2026-04-18T07:47:07Z</time></trkpt><trkpt lat="47.85840836590317" lon="11.852915335261992"><ele>659.0</ele><time>2026-04-18T07:47:08Z</time></trkpt><trkpt lat="47.85827044720184" lon="11.85324093297127"><ele>659.0</ele><time>2026-04-18T07:47:09Z</time></trkpt><trkpt lat="47.85813273438051" lon="11.85357175354408"><ele>659.0</ele><time>2026-04-18T07:47:09.999Z</time></trkpt><trkpt lat="47.85799360290597" lon="11.853902166357486"><ele>659.0</ele><time>2026-04-18T07:47:10.999Z</time></trkpt><trkpt lat="47.85785340016358" lon="11.854234976078036"><ele>659.0</ele><time>2026-04-18T07:47:11.999Z</time></trkpt><trkpt lat="47.85771349013965" lon="11.854571153523901"><ele>660.0</ele><time>2026-04-18T07:47:13.001Z</time></trkpt><trkpt lat="47.857573692328245" lon="11.854910006957263"><ele>661.0</ele><time>2026-04-18T07:47:14.001Z</time></trkpt><trkpt lat="47.85743436992452" lon="11.855252135312066"><ele>661.5</ele><time>2026-04-18T07:47:15.001Z</time></trkpt><trkpt lat="47.85729131455437" lon="11.855593684679558"><ele>662.0</ele><time>2026-04-18T07:47:16.001Z</time></trkpt><trkpt lat="47.85714104155545" lon="11.855943511255008"><ele>662.5</ele><time>2026-04-18T07:47:17.001Z</time></trkpt><trkpt lat="47.8569902112924" lon="11.856298752120612"><ele>663.0</ele><time>2026-04-18T07:47:18.001Z</time></trkpt><trkpt lat="47.85682933049074" lon="11.85665431600523"><ele>663.5</ele><time>2026-04-18T07:47:19.001Z</time></trkpt><trkpt lat="47.85664482214046" lon="11.85701208270644"><ele>664.0</ele><time>2026-04-18T07:47:20.001Z</time></trkpt><trkpt lat="47.85646044588133" lon="11.857357665326633"><ele>664.0</ele><time>2026-04-18T07:47:21.001Z</time></trkpt><trkpt lat="47.85628106682202" lon="11.857679645623364"><ele>664.0</ele><time>2026-04-18T07:47:22.001Z</time></trkpt><trkpt lat="47.85610547056069" lon="11.857979678903042"><ele>662.5</ele><time>2026-04-18T07:47:23.001Z</time></trkpt><trkpt lat="47.855934548414815" lon="11.858259978627197"><ele>661.0</ele><time>2026-04-18T07:47:24.001Z</time></trkpt><trkpt lat="47.855763273869854" lon="11.85852762803843"><ele>661.0</ele><time>2026-04-18T07:47:25.001Z</time></trkpt><trkpt lat="47.8555918148298" lon="11.858786272153742"><ele>661.0</ele><time>2026-04-18T07:47:26.001Z</time></trkpt><trkpt lat="47.85541311382082" lon="11.85904347886872"><ele>661.5</ele><time>2026-04-18T07:47:27.001Z</time></trkpt><trkpt lat="47.855228686882924" lon="11.859292650755247"><ele>662.0</ele><time>2026-04-18T07:47:28.001Z</time></trkpt><trkpt lat="47.85504277134719" lon="11.859529101039838"><ele>662.0</ele><time>2026-04-18T07:47:29.001Z</time></trkpt><trkpt lat="47.85485505933859" lon="11.859760196052122"><ele>662.0</ele><time>2026-04-18T07:47:30.001Z</time></trkpt><trkpt lat="47.85466201194059" lon="11.85998656338259"><ele>663.0</ele><time>2026-04-18T07:47:31.001Z</time></trkpt><trkpt lat="47.854472670424094" lon="11.860199210724865"><ele>664.0</ele><time>2026-04-18T07:47:32.001Z</time></trkpt><trkpt lat="47.854285234056114" lon="11.860397575684818"><ele>664.0</ele><time>2026-04-18T07:47:33Z</time></trkpt><trkpt lat="47.85410103875216" lon="11.860591484660382"><ele>664.0</ele><time>2026-04-18T07:47:34Z</time></trkpt><trkpt lat="47.85391710871638" lon="11.860791862692723"><ele>665.0</ele><time>2026-04-18T07:47:35Z</time></trkpt><trkpt lat="47.85373066533782" lon="11.860996940335422"><ele>666.0</ele><time>2026-04-18T07:47:36Z</time></trkpt><trkpt lat="47.85353827834671" lon="11.861207144806441"><ele>663.5</ele><time>2026-04-18T07:47:37Z</time></trkpt><trkpt lat="47.85334415324542" lon="11.861419348237119"><ele>661.0</ele><time>2026-04-18T07:47:38Z</time></trkpt><trkpt lat="47.85314975275902" lon="11.861629634900765"><ele>661.5</ele><time>2026-04-18T07:47:39Z</time></trkpt><trkpt lat="47.852953870572364" lon="11.861841415164113"><ele>662.0</ele><time>2026-04-18T07:47:40Z</time></trkpt><trkpt lat="47.852756615692535" lon="11.862054524133308"><ele>661.0</ele><time>2026-04-18T07:47:41Z</time></trkpt><trkpt lat="47.85256105751055" lon="11.862267854047825"><ele>660.0</ele><time>2026-04-18T07:47:42Z</time></trkpt><trkpt lat="47.852371246669634" lon="11.862471808397494"><ele>659.0</ele><time>2026-04-18T07:47:43Z</time></trkpt><trkpt lat="47.8521892188632" lon="11.862668144785006"><ele>658.0</ele><time>2026-04-18T07:47:44Z</time></trkpt><trkpt lat="47.85201124220216" lon="11.86286086297745"><ele>657.0</ele><time>2026-04-18T07:47:45Z</time></trkpt><trkpt lat="47.85183001161485" lon="11.86305557751632"><ele>657.0</ele><time>2026-04-18T07:47:46Z</time></trkpt><trkpt lat="47.85164249706957" lon="11.863255286644344"><ele>657.0</ele><time>2026-04-18T07:47:47Z</time></trkpt><trkpt lat="47.851449269154614" lon="11.863461568635762"><ele>657.0</ele><time>2026-04-18T07:47:48Z</time></trkpt><trkpt lat="47.85124777132311" lon="11.86367054893188"><ele>657.0</ele><time>2026-04-18T07:47:49Z</time></trkpt><trkpt lat="47.85103785128119" lon="11.863880331593238"><ele>658.0</ele><time>2026-04-18T07:47:50Z</time></trkpt><trkpt lat="47.85081591898396" lon="11.864099751347608"><ele>659.0</ele><time>2026-04-18T07:47:51Z</time></trkpt><trkpt lat="47.850585170991444" lon="11.864314362126777"><ele>660.5</ele><time>2026-04-18T07:47:52Z</time></trkpt><trkpt lat="47.85035751551131" lon="11.86451324291101"><ele>662.0</ele><time>2026-04-18T07:47:53Z</time></trkpt><trkpt lat="47.850132588339626" lon="11.864703626190737"><ele>662.0</ele><time>2026-04-18T07:47:54Z</time></trkpt><trkpt lat="47.84990522555897" lon="11.864888627077786"><ele>662.0</ele><time>2026-04-18T07:47:55Z</time></trkpt><trkpt lat="47.84967461660916" lon="11.865068342354519"><ele>662.0</ele><time>2026-04-18T07:47:56Z</time></trkpt><trkpt lat="47.84944034072272" lon="11.865240286312059"><ele>662.0</ele><time>2026-04-18T07:47:57Z</time></trkpt><trkpt lat="47.84920912480543" lon="11.865401690371046"><ele>662.0</ele><time>2026-04-18T07:47:58Z</time></trkpt><trkpt lat="47.84897770971178" lon="11.865551576335356"><ele>662.0</ele><time>2026-04-18T07:47:59Z</time></trkpt><trkpt lat="47.84874984001989" lon="11.865692358230836"><ele>662.0</ele><time>2026-04-18T07:48:00Z</time></trkpt><trkpt lat="47.84853116003469" lon="11.865822444802902"><ele>662.0</ele><time>2026-04-18T07:48:01Z</time></trkpt><trkpt lat="47.8483163937851" lon="11.865945161524069"><ele>662.5</ele><time>2026-04-18T07:48:02Z</time></trkpt><trkpt lat="47.848101311939104" lon="11.866064521177027"><ele>663.0</ele><time>2026-04-18T07:48:03Z</time></trkpt><trkpt lat="47.84788331230269" lon="11.8661782254122"><ele>663.0</ele><time>2026-04-18T07:48:04Z</time></trkpt><trkpt lat="47.84765957935033" lon="11.866290106992405"><ele>663.0</ele><time>2026-04-18T07:48:05Z</time></trkpt><trkpt lat="47.84742330188899" lon="11.866403879042428"><ele>662.5</ele><time>2026-04-18T07:48:06Z</time></trkpt><trkpt lat="47.847167900241054" lon="11.866516690779525"><ele>662.0</ele><time>2026-04-18T07:48:07Z</time></trkpt><trkpt lat="47.84690854841813" lon="11.866625566750672"><ele>662.0</ele><time>2026-04-18T07:48:08Z</time></trkpt><trkpt lat="47.846661850002874" lon="11.866725755459063"><ele>662.0</ele><time>2026-04-18T07:48:09Z</time></trkpt><trkpt lat="47.84642715875019" lon="11.866820722336762"><ele>668.0</ele><time>2026-04-18T07:48:10Z</time></trkpt><trkpt lat="47.846202334267275" lon="11.866910726205901"><ele>674.0</ele><time>2026-04-18T07:48:11Z</time></trkpt><trkpt lat="47.84597585430826" lon="11.867006294504623"><ele>670.0</ele><time>2026-04-18T07:48:12Z</time></trkpt><trkpt lat="47.84573967751125" lon="11.867111419758"><ele>666.0</ele><time>2026-04-18T07:48:13Z</time></trkpt><trkpt lat="47.84549463724897" lon="11.867214662962434"><ele>666.0</ele><time>2026-04-18T07:48:14Z</time></trkpt><trkpt lat="47.845254697738774" lon="11.867311474910146"><ele>666.0</ele><time>2026-04-18T07:48:15Z</time></trkpt><trkpt lat="47.84502020947741" lon="11.867410037045886"><ele>664.5</ele><time>2026-04-18T07:48:16Z</time></trkpt><trkpt lat="47.84478177656267" lon="11.86751532469263"><ele>663.0</ele><time>2026-04-18T07:48:17Z</time></trkpt><trkpt lat="47.84454122145993" lon="11.867624494076738"><ele>663.0</ele><time>2026-04-18T07:48:18Z</time></trkpt><trkpt lat="47.844301646255005" lon="11.867739429374035"><ele>663.0</ele><time>2026-04-18T07:48:19Z</time></trkpt><trkpt lat="47.84406897932803" lon="11.86786343554734"><ele>656.0</ele><time>2026-04-18T07:48:20Z</time></trkpt><trkpt lat="47.843838170021876" lon="11.867996434061041"><ele>649.0</ele><time>2026-04-18T07:48:21Z</time></trkpt><trkpt lat="47.843611512063994" lon="11.868135369280107"><ele>650.0</ele><time>2026-04-18T07:48:22Z</time></trkpt><trkpt lat="47.84338631949047" lon="11.868282059254144"><ele>651.0</ele><time>2026-04-18T07:48:23Z</time></trkpt><trkpt lat="47.843160576840496" lon="11.868438073108411"><ele>652.0</ele><time>2026-04-18T07:48:24Z</time></trkpt><trkpt lat="47.84293416168515" lon="11.868606671438103"><ele>653.0</ele><time>2026-04-18T07:48:25Z</time></trkpt><trkpt lat="47.842704150109896" lon="11.86878305633912"><ele>650.5</ele><time>2026-04-18T07:48:26Z</time></trkpt><trkpt lat="47.84246855066985" lon="11.86897033196373"><ele>648.0</ele><time>2026-04-18T07:48:27Z</time></trkpt><trkpt lat="47.842224978316096" lon="11.869177334629565"><ele>647.5</ele><time>2026-04-18T07:48:28Z</time></trkpt><trkpt lat="47.841978677184564" lon="11.869404234013826"><ele>647.0</ele><time>2026-04-18T07:48:29Z</time></trkpt><trkpt lat="47.841738082128785" lon="11.869636808841726"><ele>647.0</ele><time>2026-04-18T07:48:30Z</time></trkpt><trkpt lat="47.841504789290745" lon="11.869870079213667"><ele>647.0</ele><time>2026-04-18T07:48:31Z</time></trkpt><trkpt lat="47.84127391058023" lon="11.870099259424673"><ele>643.5</ele><time>2026-04-18T07:48:32Z</time></trkpt><trkpt lat="47.841046760535534" lon="11.870325229235076"><ele>640.0</ele><time>2026-04-18T07:48:33Z</time></trkpt><trkpt lat="47.840823646371454" lon="11.870541645816582"><ele>640.0</ele><time>2026-04-18T07:48:34Z</time></trkpt><trkpt lat="47.84060675522846" lon="11.870754348471872"><ele>640.0</ele><time>2026-04-18T07:48:35Z</time></trkpt><trkpt lat="47.8403946631625" lon="11.870963075999812"><ele>638.5</ele><time>2026-04-18T07:48:36Z</time></trkpt><trkpt lat="47.84018736674241" lon="11.871164139005204"><ele>637.0</ele><time>2026-04-18T07:48:37Z</time></trkpt><trkpt lat="47.83998136781795" lon="11.871365309997714"><ele>637.0</ele><time>2026-04-18T07:48:38Z</time></trkpt><trkpt lat="47.839778729731265" lon="11.871563413622614"><ele>637.0</ele><time>2026-04-18T07:48:39Z</time></trkpt><trkpt lat="47.83957551933316" lon="11.871768477719144"><ele>637.0</ele><time>2026-04-18T07:48:40Z</time></trkpt><trkpt lat="47.83936853592657" lon="11.871977801064173"><ele>637.0</ele><time>2026-04-18T07:48:41Z</time></trkpt><trkpt lat="47.83916061558487" lon="11.872194264455604"><ele>637.0</ele><time>2026-04-18T07:48:42Z</time></trkpt><trkpt lat="47.83895130495896" lon="11.872421465011518"><ele>637.0</ele><time>2026-04-18T07:48:43Z</time></trkpt><trkpt lat="47.838744641778405" lon="11.872663693003291"><ele>634.5</ele><time>2026-04-18T07:48:44Z</time></trkpt><trkpt lat="47.838539333166395" lon="11.87292000600938"><ele>632.0</ele><time>2026-04-18T07:48:45Z</time></trkpt><trkpt lat="47.838335816656894" lon="11.873185402781703"><ele>628.5</ele><time>2026-04-18T07:48:46Z</time></trkpt><trkpt lat="47.83813604404726" lon="11.87345955358995"><ele>625.0</ele><time>2026-04-18T07:48:47Z</time></trkpt><trkpt lat="47.837947382564934" lon="11.873738404864653"><ele>625.0</ele><time>2026-04-18T07:48:48Z</time></trkpt><trkpt lat="47.837773558253986" lon="11.874019648368762"><ele>625.0</ele><time>2026-04-18T07:48:49Z</time></trkpt><trkpt lat="47.83761483001581" lon="11.87429915814905"><ele>623.0</ele><time>2026-04-18T07:48:50Z</time></trkpt><trkpt lat="47.837459793439685" lon="11.874578517171743"><ele>621.0</ele><time>2026-04-18T07:48:51Z</time></trkpt><trkpt lat="47.837310392499845" lon="11.874856055494748"><ele>617.5</ele><time>2026-04-18T07:48:52Z</time></trkpt><trkpt lat="47.837164354863724" lon="11.875134380802653"><ele>614.0</ele><time>2026-04-18T07:48:53Z</time></trkpt><trkpt lat="47.837019461998196" lon="11.875424820310666"><ele>614.0</ele><time>2026-04-18T07:48:54Z</time></trkpt><trkpt lat="47.83686584925429" lon="11.875717826222367"><ele>614.0</ele><time>2026-04-18T07:48:55Z</time></trkpt><trkpt lat="47.836705365659576" lon="11.876011488117438"><ele>613.0</ele><time>2026-04-18T07:48:56Z</time></trkpt><trkpt lat="47.83654680344106" lon="11.876307860608167"><ele>612.0</ele><time>2026-04-18T07:48:57Z</time></trkpt><trkpt lat="47.83638516915415" lon="11.876604951342289"><ele>610.5</ele><time>2026-04-18T07:48:58Z</time></trkpt><trkpt lat="47.83622210687259" lon="11.876906162230714"><ele>609.0</ele><time>2026-04-18T07:48:59Z</time></trkpt><trkpt lat="47.83605926764187" lon="11.877208407527556"><ele>610.0</ele><time>2026-04-18T07:49:00Z</time></trkpt><trkpt lat="47.83589598258628" lon="11.877510711708197"><ele>611.0</ele><time>2026-04-18T07:49:01Z</time></trkpt><trkpt lat="47.83573332386321" lon="11.8778113916763"><ele>611.0</ele><time>2026-04-18T07:49:02Z</time></trkpt><trkpt lat="47.8355706797358" lon="11.878111199231407"><ele>611.0</ele><time>2026-04-18T07:49:03Z</time></trkpt><trkpt lat="47.83540789901185" lon="11.878409959043578"><ele>610.5</ele><time>2026-04-18T07:49:04Z</time></trkpt><trkpt lat="47.83524725741589" lon="11.878706908067564"><ele>610.0</ele><time>2026-04-18T07:49:05Z</time></trkpt><trkpt lat="47.83508588716354" lon="11.87900478182992"><ele>609.0</ele><time>2026-04-18T07:49:06Z</time></trkpt><trkpt lat="47.83492242844074" lon="11.879306772742414"><ele>608.0</ele><time>2026-04-18T07:49:07Z</time></trkpt><trkpt lat="47.83476004485749" lon="11.879608017244129"><ele>608.0</ele><time>2026-04-18T07:49:08Z</time></trkpt><trkpt lat="47.834594388155566" lon="11.879912012581453"><ele>608.0</ele><time>2026-04-18T07:49:08.999Z</time></trkpt><trkpt lat="47.834430726809806" lon="11.880216678982109"><ele>608.5</ele><time>2026-04-18T07:49:09.999Z</time></trkpt><trkpt lat="47.83427487139741" lon="11.880510233958288"><ele>609.0</ele><time>2026-04-18T07:49:10.999Z</time></trkpt><trkpt lat="47.834128147916886" lon="11.880792743732052"><ele>610.3333333333334</ele><time>2026-04-18T07:49:11.999Z</time></trkpt><trkpt lat="47.83399027497693" lon="11.881060757380416"><ele>611.6666666666667</ele><time>2026-04-18T07:49:12.999Z</time></trkpt><trkpt lat="47.833858653825125" lon="11.881310688608849"><ele>613.0</ele><time>2026-04-18T07:49:13.999Z</time></trkpt><trkpt lat="47.83373232003951" lon="11.88153961761239"><ele>612.6666666666667</ele><time>2026-04-18T07:49:14.999Z</time></trkpt><trkpt lat="47.83360840590425" lon="11.881770175475431"><ele>612.3333333333334</ele><time>2026-04-18T07:49:15.999Z</time></trkpt><trkpt lat="47.83348487232232" lon="11.881999895970251"><ele>612.0</ele><time>2026-04-18T07:49:16.998Z</time></trkpt><trkpt lat="47.833357467146385" lon="11.882232964921258"><ele>612.0</ele><time>2026-04-18T07:49:17.998Z</time></trkpt><trkpt lat="47.83322563328031" lon="11.882475786872435"><ele>612.0</ele><time>2026-04-18T07:49:19Z</time></trkpt><trkpt lat="47.83309019265108" lon="11.882735193463983"><ele>612.0</ele><time>2026-04-18T07:49:20Z</time></trkpt><trkpt lat="47.83295621507801" lon="11.882979268357305"><ele>612.0</ele><time>2026-04-18T07:49:21Z</time></trkpt><trkpt lat="47.83282954564247" lon="11.883206479469813"><ele>612.0</ele><time>2026-04-18T07:49:22Z</time></trkpt><trkpt lat="47.832710941879355" lon="11.883427426676919"><ele>612.0</ele><time>2026-04-18T07:49:23Z</time></trkpt><trkpt lat="47.83259123274769" lon="11.883648039191138"><ele>612.6666666666666</ele><time>2026-04-18T07:49:24Z</time></trkpt><trkpt lat="47.83247512204104" lon="11.883863344316659"><ele>613.3333333333333</ele><time>2026-04-18T07:49:25Z</time></trkpt><trkpt lat="47.832366039772104" lon="11.884065208470801"><ele>614.0</ele><time>2026-04-18T07:49:26Z</time></trkpt><trkpt lat="47.83226332488023" lon="11.884252493394987"><ele>614.6666666666666</ele><time>2026-04-18T07:49:27Z</time></trkpt><trkpt lat="47.83216093137214" lon="11.88444178416417"><ele>615.3333333333334</ele><time>2026-04-18T07:49:28Z</time></trkpt><trkpt lat="47.832057823445325" lon="11.884630291655483"><ele>616.0</ele><time>2026-04-18T07:49:29Z</time></trkpt><trkpt lat="47.831955606692915" lon="11.884817230506192"><ele>616.0</ele><time>2026-04-18T07:49:30Z</time></trkpt><trkpt lat="47.831851904129074" lon="11.885010501008745"><ele>616.0</ele><time>2026-04-18T07:49:31Z</time></trkpt><trkpt lat="47.83174838094499" lon="11.885206543395807"><ele>616.0</ele><time>2026-04-18T07:49:32Z</time></trkpt><trkpt lat="47.83164008538528" lon="11.885408886944221"><ele>617.3333333333334</ele><time>2026-04-18T07:49:33Z</time></trkpt><trkpt lat="47.83152663117726" lon="11.885615938338754"><ele>618.6666666666666</ele><time>2026-04-18T07:49:34Z</time></trkpt><trkpt lat="47.8314035850082" lon="11.885847134638144"><ele>620.0</ele><time>2026-04-18T07:49:35Z</time></trkpt><trkpt lat="47.83126699367893" lon="11.886099396743601"><ele>620.3333333333333</ele><time>2026-04-18T07:49:36Z</time></trkpt><trkpt lat="47.83112841605862" lon="11.886352047142452"><ele>620.6666666666666</ele><time>2026-04-18T07:49:37Z</time></trkpt><trkpt lat="47.83099736129677" lon="11.886592437230696"><ele>621.0</ele><time>2026-04-18T07:49:38Z</time></trkpt><trkpt lat="47.830870782029336" lon="11.886829819139546"><ele>623.6666666666666</ele><time>2026-04-18T07:49:39Z</time></trkpt><trkpt lat="47.83074327542847" lon="11.887062539432904"><ele>626.3333333333333</ele><time>2026-04-18T07:49:40Z</time></trkpt><trkpt lat="47.83060511085404" lon="11.887286584589793"><ele>629.0</ele><time>2026-04-18T07:49:41Z</time></trkpt><trkpt lat="47.83046434225853" lon="11.887509334235776"><ele>630.3333333333333</ele><time>2026-04-18T07:49:42Z</time></trkpt><trkpt lat="47.83033071207125" lon="11.887740739739694"><ele>631.6666666666666</ele><time>2026-04-18T07:49:43Z</time></trkpt><trkpt lat="47.83020391157428" lon="11.887968427089312"><ele>633.0</ele><time>2026-04-18T07:49:44Z</time></trkpt><trkpt lat="47.83008917978867" lon="11.888180762024955"><ele>635.3333333333334</ele><time>2026-04-18T07:49:45Z</time></trkpt><trkpt lat="47.82997560908299" lon="11.888394177367987"><ele>637.6666666666667</ele><time>2026-04-18T07:49:45.999Z</time></trkpt><trkpt lat="47.82985842370684" lon="11.888611516766447"><ele>640.0</ele><time>2026-04-18T07:49:46.999Z</time></trkpt><trkpt lat="47.82973886980545" lon="11.888827650254628"><ele>643.6666666666667</ele><time>2026-04-18T07:49:47.999Z</time></trkpt><trkpt lat="47.82961365065242" lon="11.889056699304419"><ele>647.3333333333334</ele><time>2026-04-18T07:49:48.999Z</time></trkpt><trkpt lat="47.82948026439535" lon="11.889305774575789"><ele>651.0</ele><time>2026-04-18T07:49:49.999Z</time></trkpt><trkpt lat="47.82933844894334" lon="11.889570934061751"><ele>651.6666666666666</ele><time>2026-04-18T07:49:50.999Z</time></trkpt><trkpt lat="47.82919739142111" lon="11.889847491774402"><ele>652.3333333333333</ele><time>2026-04-18T07:49:51.999Z</time></trkpt><trkpt lat="47.82907931868822" lon="11.89009147478594"><ele>653.0</ele><time>2026-04-18T07:49:52.999Z</time></trkpt><trkpt lat="47.82897422629181" lon="11.890302486613962"><ele>655.0</ele><time>2026-04-18T07:49:53.999Z</time></trkpt><trkpt lat="47.82886874262329" lon="11.890512594572932"><ele>657.0</ele><time>2026-04-18T07:49:54.999Z</time></trkpt><trkpt lat="47.828765592006235" lon="11.890732204514068"><ele>659.0</ele><time>2026-04-18T07:49:55.999Z</time></trkpt><trkpt lat="47.82866612002834" lon="11.890962683542192"><ele>660.3333333333333</ele><time>2026-04-18T07:49:56.999Z</time></trkpt><trkpt lat="47.828580962788536" lon="11.891178783933674"><ele>661.6666666666666</ele><time>2026-04-18T07:49:57.999Z</time></trkpt><trkpt lat="47.8285087401569" lon="11.89137853963247"><ele>663.0</ele><time>2026-04-18T07:49:58.999Z</time></trkpt><trkpt lat="47.82843740478599" lon="11.891597534188573"><ele>665.3333333333334</ele><time>2026-04-18T07:49:59.999Z</time></trkpt><trkpt lat="47.828362820494306" lon="11.891834830113357"><ele>667.6666666666667</ele><time>2026-04-18T07:50:00.999Z</time></trkpt><trkpt lat="47.828294031943834" lon="11.892075395861369"><ele>670.0</ele><time>2026-04-18T07:50:01.999Z</time></trkpt><trkpt lat="47.8282248808518" lon="11.892324418302975"><ele>670.0</ele><time>2026-04-18T07:50:02.999Z</time></trkpt><trkpt lat="47.8281604220802" lon="11.892583348439087"><ele>670.0</ele><time>2026-04-18T07:50:03.999Z</time></trkpt><trkpt lat="47.8281061445964" lon="11.892863023243759"><ele>670.0</ele><time>2026-04-18T07:50:04.999Z</time></trkpt><trkpt lat="47.82805719551855" lon="11.893154677292818"><ele>670.6666666666667</ele><time>2026-04-18T07:50:05.999Z</time></trkpt><trkpt lat="47.82801126720554" lon="11.8934564570332"><ele>671.3333333333334</ele><time>2026-04-18T07:50:06.999Z</time></trkpt><trkpt lat="47.82797282155923" lon="11.893771551537986"><ele>672.0</ele><time>2026-04-18T07:50:07.999Z</time></trkpt><trkpt lat="47.82794125090124" lon="11.894105043045165"><ele>672.5</ele><time>2026-04-18T07:50:08.999Z</time></trkpt><trkpt lat="47.82791268959151" lon="11.894464844287315"><ele>673.0</ele><time>2026-04-18T07:50:09.999Z</time></trkpt><trkpt lat="47.827895399162216" lon="11.894825148626582"><ele>675.5</ele><time>2026-04-18T07:50:10.999Z</time></trkpt><trkpt lat="47.82788915194793" lon="11.895168184139568"><ele>678.0</ele><time>2026-04-18T07:50:11.999Z</time></trkpt><trkpt lat="47.82788882158119" lon="11.895511272307147"><ele>678.0</ele><time>2026-04-18T07:50:12.999Z</time></trkpt><trkpt lat="47.827890879527736" lon="11.895862228382821"><ele>678.0</ele><time>2026-04-18T07:50:13.999Z</time></trkpt><trkpt lat="47.82790484001965" lon="11.896196298244229"><ele>678.6666666666666</ele><time>2026-04-18T07:50:14.999Z</time></trkpt><trkpt lat="47.82793484334258" lon="11.896520091256345"><ele>679.3333333333333</ele><time>2026-04-18T07:50:15.999Z</time></trkpt><trkpt lat="47.827974885339586" lon="11.896837743627195"><ele>680.0</ele><time>2026-04-18T07:50:16.999Z</time></trkpt><trkpt lat="47.82801755892497" lon="11.897147351794507"><ele>680.0</ele><time>2026-04-18T07:50:17.999Z</time></trkpt><trkpt lat="47.828062616250506" lon="11.897447712904933"><ele>680.0</ele><time>2026-04-18T07:50:18.999Z</time></trkpt><trkpt lat="47.82812311240731" lon="11.897744438995401"><ele>680.0</ele><time>2026-04-18T07:50:19.999Z</time></trkpt><trkpt lat="47.82818880300662" lon="11.898032143242617"><ele>680.6666666666666</ele><time>2026-04-18T07:50:20.999Z</time></trkpt><trkpt lat="47.82826013963663" lon="11.898314819088597"><ele>681.3333333333334</ele><time>2026-04-18T07:50:21.999Z</time></trkpt><trkpt lat="47.82833781891737" lon="11.898601857569199"><ele>682.0</ele><time>2026-04-18T07:50:22.999Z</time></trkpt><trkpt lat="47.82842515602962" lon="11.898884751832206"><ele>685.0</ele><time>2026-04-18T07:50:23.999Z</time></trkpt><trkpt lat="47.82852784409796" lon="11.899165497277073"><ele>688.0</ele><time>2026-04-18T07:50:24.999Z</time></trkpt><trkpt lat="47.828634165398974" lon="11.89946114708638"><ele>691.0</ele><time>2026-04-18T07:50:25.999Z</time></trkpt><trkpt lat="47.828732938284375" lon="11.899755809338068"><ele>691.6666666666667</ele><time>2026-04-18T07:50:26.999Z</time></trkpt><trkpt lat="47.828829804700995" lon="11.90004295760591"><ele>692.3333333333334</ele><time>2026-04-18T07:50:27.999Z</time></trkpt><trkpt lat="47.82892598010669" lon="11.900334623195619"><ele>693.0</ele><time>2026-04-18T07:50:28.999Z</time></trkpt><trkpt lat="47.82902434029322" lon="11.900634914296058"><ele>694.0</ele><time>2026-04-18T07:50:29.999Z</time></trkpt><trkpt lat="47.82912258655608" lon="11.900929218946507"><ele>695.0</ele><time>2026-04-18T07:50:30.999Z</time></trkpt><trkpt lat="47.82921718386778" lon="11.901214049140341"><ele>696.0</ele><time>2026-04-18T07:50:31.999Z</time></trkpt><trkpt lat="47.82931088497126" lon="11.901494008215678"><ele>698.3333333333334</ele><time>2026-04-18T07:50:32.999Z</time></trkpt><trkpt lat="47.82940267025141" lon="11.901767557587222"><ele>700.6666666666667</ele><time>2026-04-18T07:50:33.999Z</time></trkpt><trkpt lat="47.829491590498165" lon="11.902036152030771"><ele>703.0</ele><time>2026-04-18T07:50:34.999Z</time></trkpt><trkpt lat="47.829581408625415" lon="11.902309857983619"><ele>704.0</ele><time>2026-04-18T07:50:35.999Z</time></trkpt><trkpt lat="47.829672334626586" lon="11.902585224150204"><ele>705.0</ele><time>2026-04-18T07:50:36.999Z</time></trkpt><trkpt lat="47.82976092313988" lon="11.902854917971657"><ele>706.0</ele><time>2026-04-18T07:50:37.999Z</time></trkpt><trkpt lat="47.82984339398911" lon="11.90311842180162"><ele>706.0</ele><time>2026-04-18T07:50:38.999Z</time></trkpt><trkpt lat="47.82991764780036" lon="11.903373785520792"><ele>706.0</ele><time>2026-04-18T07:50:39.999Z</time></trkpt><trkpt lat="47.829986740117846" lon="11.903629370460006"><ele>706.0</ele><time>2026-04-18T07:50:40.999Z</time></trkpt><trkpt lat="47.83005371823679" lon="11.903888645102544"><ele>706.3333333333334</ele><time>2026-04-18T07:50:41.999Z</time></trkpt><trkpt lat="47.8301149531057" lon="11.904144558835867"><ele>706.6666666666666</ele><time>2026-04-18T07:50:42.999Z</time></trkpt><trkpt lat="47.830171691468806" lon="11.904403978329302"><ele>707.0</ele><time>2026-04-18T07:50:43.999Z</time></trkpt><trkpt lat="47.83022579638115" lon="11.904682223442203"><ele>707.6666666666666</ele><time>2026-04-18T07:50:44.999Z</time></trkpt><trkpt lat="47.8302760746045" lon="11.904974742134378"><ele>708.3333333333334</ele><time>2026-04-18T07:50:45.999Z</time></trkpt><trkpt lat="47.83032492414226" lon="11.905286068492945"><ele>709.0</ele><time>2026-04-18T07:50:46.999Z</time></trkpt><trkpt lat="47.830371123326195" lon="11.905617724961893"><ele>713.0</ele><time>2026-04-18T07:50:47.999Z</time></trkpt><trkpt lat="47.83041289430532" lon="11.9059650698488"><ele>717.0</ele><time>2026-04-18T07:50:48.999Z</time></trkpt><trkpt lat="47.83044873594505" lon="11.90633379131615"><ele>717.0</ele><time>2026-04-18T07:50:49.999Z</time></trkpt><trkpt lat="47.830473934700166" lon="11.906731281381314"><ele>717.0</ele><time>2026-04-18T07:50:50.999Z</time></trkpt><trkpt lat="47.8304897720269" lon="11.907130157180887"><ele>717.0</ele><time>2026-04-18T07:50:51.999Z</time></trkpt><trkpt lat="47.83049253801585" lon="11.907493766366713"><ele>717.0</ele><time>2026-04-18T07:50:52.999Z</time></trkpt><trkpt lat="47.830485951921496" lon="11.907843871776299"><ele>717.0</ele><time>2026-04-18T07:50:53.999Z</time></trkpt><trkpt lat="47.83047137340089" lon="11.908195032492022"><ele>717.0</ele><time>2026-04-18T07:50:54.999Z</time></trkpt><trkpt lat="47.830448926997065" lon="11.908556994330313"><ele>717.5</ele><time>2026-04-18T07:50:55.999Z</time></trkpt><trkpt lat="47.83041921759254" lon="11.908924778771226"><ele>718.0</ele><time>2026-04-18T07:50:56.999Z</time></trkpt><trkpt lat="47.830380801504404" lon="11.909288860630198"><ele>718.0</ele><time>2026-04-18T07:50:57.999Z</time></trkpt><trkpt lat="47.83032655700751" lon="11.90964771556765"><ele>718.0</ele><time>2026-04-18T07:50:58.999Z</time></trkpt><trkpt lat="47.830262810449476" lon="11.909998244427063"><ele>718.5</ele><time>2026-04-18T07:50:59.999Z</time></trkpt><trkpt lat="47.83019069736282" lon="11.910344276552076"><ele>719.0</ele><time>2026-04-18T07:51:00.999Z</time></trkpt><trkpt lat="47.83011665056195" lon="11.91068390721993"><ele>718.0</ele><time>2026-04-18T07:51:01.999Z</time></trkpt><trkpt lat="47.830039162833586" lon="11.911008315539428"><ele>717.0</ele><time>2026-04-18T07:51:02.999Z</time></trkpt><trkpt lat="47.82995766452106" lon="11.911321776839916"><ele>717.0</ele><time>2026-04-18T07:51:03.999Z</time></trkpt><trkpt lat="47.82987174712696" lon="11.911623699045647"><ele>717.0</ele><time>2026-04-18T07:51:04.999Z</time></trkpt><trkpt lat="47.82978088599576" lon="11.911924027505897"><ele>717.0</ele><time>2026-04-18T07:51:05.999Z</time></trkpt><trkpt lat="47.82968075269959" lon="11.912223393063405"><ele>719.0</ele><time>2026-04-18T07:51:06.999Z</time></trkpt><trkpt lat="47.82957358807393" lon="11.912523110273256"><ele>721.0</ele><time>2026-04-18T07:51:07.999Z</time></trkpt><trkpt lat="47.829456440532" lon="11.912825082837482"><ele>722.0</ele><time>2026-04-18T07:51:08.999Z</time></trkpt><trkpt lat="47.82933258620052" lon="11.913127685519385"><ele>723.0</ele><time>2026-04-18T07:51:09.999Z</time></trkpt><trkpt lat="47.829199680774344" lon="11.913424682426296"><ele>718.0</ele><time>2026-04-18T07:51:10.999Z</time></trkpt><trkpt lat="47.829055897651465" lon="11.913718274733545"><ele>713.0</ele><time>2026-04-18T07:51:11.999Z</time></trkpt><trkpt lat="47.82890918204406" lon="11.914002644457454"><ele>714.0</ele><time>2026-04-18T07:51:12.999Z</time></trkpt><trkpt lat="47.8287596132342" lon="11.914281883111018"><ele>715.0</ele><time>2026-04-18T07:51:13.999Z</time></trkpt><trkpt lat="47.8286069762711" lon="11.91456146858507"><ele>711.5</ele><time>2026-04-18T07:51:14.999Z</time></trkpt><trkpt lat="47.82845546342637" lon="11.91484398368009"><ele>708.0</ele><time>2026-04-18T07:51:15.999Z</time></trkpt><trkpt lat="47.828306950916314" lon="11.915127286987204"><ele>708.0</ele><time>2026-04-18T07:51:16.999Z</time></trkpt><trkpt lat="47.82815916097562" lon="11.915404925166444"><ele>708.0</ele><time>2026-04-18T07:51:17.999Z</time></trkpt><trkpt lat="47.82801456561873" lon="11.915679998700734"><ele>711.0</ele><time>2026-04-18T07:51:18.999Z</time></trkpt><trkpt lat="47.82787218774725" lon="11.915950797148529"><ele>714.0</ele><time>2026-04-18T07:51:19.999Z</time></trkpt><trkpt lat="47.827733266870666" lon="11.916212148033745"><ele>711.3333333333334</ele><time>2026-04-18T07:51:20.999Z</time></trkpt><trkpt lat="47.82759833331204" lon="11.916462357652161"><ele>708.6666666666667</ele><time>2026-04-18T07:51:21.999Z</time></trkpt><trkpt lat="47.82746162123317" lon="11.916713235152615"><ele>706.0</ele><time>2026-04-18T07:51:22.999Z</time></trkpt><trkpt lat="47.82732198870255" lon="11.916972012119034"><ele>706.0</ele><time>2026-04-18T07:51:23.999Z</time></trkpt><trkpt lat="47.82718058092119" lon="11.917239787766377"><ele>706.0</ele><time>2026-04-18T07:51:25Z</time></trkpt><trkpt lat="47.82703759043196" lon="11.917505367995"><ele>707.3333333333334</ele><time>2026-04-18T07:51:26Z</time></trkpt><trkpt lat="47.82689685980562" lon="11.917769373489215"><ele>708.6666666666666</ele><time>2026-04-18T07:51:27Z</time></trkpt><trkpt lat="47.82676054033966" lon="11.918023278778579"><ele>710.0</ele><time>2026-04-18T07:51:28Z</time></trkpt><trkpt lat="47.82661847889586" lon="11.918276591252122"><ele>704.0</ele><time>2026-04-18T07:51:29Z</time></trkpt><trkpt lat="47.82647340975778" lon="11.91853357832865"><ele>698.0</ele><time>2026-04-18T07:51:30Z</time></trkpt><trkpt lat="47.82633252043681" lon="11.918795386554754"><ele>698.0</ele><time>2026-04-18T07:51:31Z</time></trkpt><trkpt lat="47.82619579002161" lon="11.919052886313326"><ele>698.0</ele><time>2026-04-18T07:51:32Z</time></trkpt><trkpt lat="47.82606032866136" lon="11.919308726723376"><ele>698.0</ele><time>2026-04-18T07:51:33Z</time></trkpt><trkpt lat="47.825927516346795" lon="11.919557258824755"><ele>697.3333333333333</ele><time>2026-04-18T07:51:34Z</time></trkpt><trkpt lat="47.825798450566154" lon="11.919796669030864"><ele>696.6666666666666</ele><time>2026-04-18T07:51:35Z</time></trkpt><trkpt lat="47.8256687681078" lon="11.920036853430771"><ele>696.0</ele><time>2026-04-18T07:51:36Z</time></trkpt><trkpt lat="47.82553820973145" lon="11.920283665490771"><ele>696.0</ele><time>2026-04-18T07:51:37Z</time></trkpt><trkpt lat="47.82540313281303" lon="11.920534852185954"><ele>696.0</ele><time>2026-04-18T07:51:38Z</time></trkpt><trkpt lat="47.82526440608542" lon="11.92079196067901"><ele>696.0</ele><time>2026-04-18T07:51:39Z</time></trkpt><trkpt lat="47.82512669967912" lon="11.921049370264342"><ele>694.3333333333334</ele><time>2026-04-18T07:51:40Z</time></trkpt><trkpt lat="47.824991017406816" lon="11.921306074845766"><ele>692.6666666666667</ele><time>2026-04-18T07:51:41Z</time></trkpt><trkpt lat="47.82485660822241" lon="11.921559479095569"><ele>691.0</ele><time>2026-04-18T07:51:42Z</time></trkpt><trkpt lat="47.824723205371804" lon="11.921810933646974"><ele>690.3333333333334</ele><time>2026-04-18T07:51:43Z</time></trkpt><trkpt lat="47.82458946930077" lon="11.922061424785431"><ele>689.6666666666666</ele><time>2026-04-18T07:51:44Z</time></trkpt><trkpt lat="47.82445622344857" lon="11.922307315609046"><ele>689.0</ele><time>2026-04-18T07:51:45Z</time></trkpt><trkpt lat="47.824324255469236" lon="11.92255626685259"><ele>686.0</ele><time>2026-04-18T07:51:46Z</time></trkpt><trkpt lat="47.82419126658477" lon="11.922806748393826"><ele>683.0</ele><time>2026-04-18T07:51:47Z</time></trkpt><trkpt lat="47.82405769861768" lon="11.923058347994967"><ele>680.0</ele><time>2026-04-18T07:51:48Z</time></trkpt><trkpt lat="47.82392324343905" lon="11.923311740821099"><ele>681.0</ele><time>2026-04-18T07:51:49Z</time></trkpt><trkpt lat="47.82378600736702" lon="11.923569483418328"><ele>682.0</ele><time>2026-04-18T07:51:50Z</time></trkpt><trkpt lat="47.82364574393599" lon="11.923829738187953"><ele>683.0</ele><time>2026-04-18T07:51:51Z</time></trkpt><trkpt lat="47.823507916553076" lon="11.924084180108181"><ele>679.0</ele><time>2026-04-18T07:51:52Z</time></trkpt><trkpt lat="47.82337774838115" lon="11.924331237494457"><ele>675.0</ele><time>2026-04-18T07:51:53Z</time></trkpt><trkpt lat="47.82325338521795" lon="11.924579140271337"><ele>671.0</ele><time>2026-04-18T07:51:54Z</time></trkpt><trkpt lat="47.82313114292283" lon="11.924837471819469"><ele>671.0</ele><time>2026-04-18T07:51:55Z</time></trkpt><trkpt lat="47.82301626792864" lon="11.925105441571485"><ele>671.0</ele><time>2026-04-18T07:51:56Z</time></trkpt><trkpt lat="47.82290539374124" lon="11.925388253570436"><ele>671.0</ele><time>2026-04-18T07:51:57Z</time></trkpt><trkpt lat="47.82279683321175" lon="11.925677523413613"><ele>671.6666666666666</ele><time>2026-04-18T07:51:57.999Z</time></trkpt><trkpt lat="47.82269167369008" lon="11.925974367356725"><ele>672.3333333333334</ele><time>2026-04-18T07:51:58.999Z</time></trkpt><trkpt lat="47.82259623068418" lon="11.926269792502046"><ele>673.0</ele><time>2026-04-18T07:51:59.999Z</time></trkpt><trkpt lat="47.82250638586528" lon="11.926568812951718"><ele>668.0</ele><time>2026-04-18T07:52:00.999Z</time></trkpt><trkpt lat="47.82242373504679" lon="11.926864939924602"><ele>663.0</ele><time>2026-04-18T07:52:01.999Z</time></trkpt><trkpt lat="47.82235011034098" lon="11.927155266133395"><ele>658.0</ele><time>2026-04-18T07:52:02.999Z</time></trkpt><trkpt lat="47.8222835460409" lon="11.92744417388146"><ele>657.0</ele><time>2026-04-18T07:52:03.999Z</time></trkpt><trkpt lat="47.82222228839135" lon="11.927738423500916"><ele>656.0</ele><time>2026-04-18T07:52:04.999Z</time></trkpt><trkpt lat="47.82216584116027" lon="11.928044436768461"><ele>655.0</ele><time>2026-04-18T07:52:05.999Z</time></trkpt><trkpt lat="47.82211407643009" lon="11.928362536973502"><ele>654.0</ele><time>2026-04-18T07:52:06.999Z</time></trkpt><trkpt lat="47.822062355462805" lon="11.928692526543117"><ele>653.0</ele><time>2026-04-18T07:52:07.999Z</time></trkpt><trkpt lat="47.8220221383639" lon="11.929032717106788"><ele>651.5</ele><time>2026-04-18T07:52:08.999Z</time></trkpt><trkpt lat="47.821987770252676" lon="11.929378808730698"><ele>650.0</ele><time>2026-04-18T07:52:09.999Z</time></trkpt><trkpt lat="47.821957220588345" lon="11.929724383890333"><ele>649.0</ele><time>2026-04-18T07:52:10.999Z</time></trkpt><trkpt lat="47.821936918224154" lon="11.930070368136711"><ele>648.0</ele><time>2026-04-18T07:52:11.999Z</time></trkpt><trkpt lat="47.821926592551804" lon="11.93040701421776"><ele>648.0</ele><time>2026-04-18T07:52:12.999Z</time></trkpt><trkpt lat="47.82192571776811" lon="11.930735337784222"><ele>648.0</ele><time>2026-04-18T07:52:13.999Z</time></trkpt><trkpt lat="47.82193048097386" lon="11.931059915587573"><ele>648.0</ele><time>2026-04-18T07:52:14.999Z</time></trkpt><trkpt lat="47.821938863538456" lon="11.931363020488178"><ele>646.0</ele><time>2026-04-18T07:52:15.999Z</time></trkpt><trkpt lat="47.82195075018082" lon="11.931661715363362"><ele>644.0</ele><time>2026-04-18T07:52:16.999Z</time></trkpt><trkpt lat="47.82196878249369" lon="11.93195720031137"><ele>642.0</ele><time>2026-04-18T07:52:17.999Z</time></trkpt><trkpt lat="47.821992400991796" lon="11.932256733637404"><ele>639.6666666666666</ele><time>2026-04-18T07:52:18.999Z</time></trkpt><trkpt lat="47.822021826766765" lon="11.932566493003316"><ele>637.3333333333333</ele><time>2026-04-18T07:52:19.999Z</time></trkpt><trkpt lat="47.82206115350266" lon="11.932898662362444"><ele>635.0</ele><time>2026-04-18T07:52:20.999Z</time></trkpt><trkpt lat="47.82210934566512" lon="11.933247843090578"><ele>633.5</ele><time>2026-04-18T07:52:21.999Z</time></trkpt><trkpt lat="47.82216636801557" lon="11.93359338894014"><ele>632.0</ele><time>2026-04-18T07:52:22.999Z</time></trkpt><trkpt lat="47.822230381392885" lon="11.93392931330996"><ele>628.5</ele><time>2026-04-18T07:52:23.999Z</time></trkpt><trkpt lat="47.82230350463261" lon="11.934263536744277"><ele>625.0</ele><time>2026-04-18T07:52:24.999Z</time></trkpt><trkpt lat="47.822383651702296" lon="11.934597206375903"><ele>625.0</ele><time>2026-04-18T07:52:25.999Z</time></trkpt><trkpt lat="47.82246787272505" lon="11.93491428679446"><ele>625.0</ele><time>2026-04-18T07:52:26.999Z</time></trkpt><trkpt lat="47.822556754444996" lon="11.93522354677415"><ele>624.0</ele><time>2026-04-18T07:52:27.999Z</time></trkpt><trkpt lat="47.82265264389998" lon="11.935528504936272"><ele>623.0</ele><time>2026-04-18T07:52:28.999Z</time></trkpt><trkpt lat="47.822755599345776" lon="11.93582711928004"><ele>617.5</ele><time>2026-04-18T07:52:29.999Z</time></trkpt><trkpt lat="47.82286572688567" lon="11.936123235858346"><ele>612.0</ele><time>2026-04-18T07:52:30.999Z</time></trkpt><trkpt lat="47.82298233321814" lon="11.936418213928189"><ele>612.0</ele><time>2026-04-18T07:52:31.999Z</time></trkpt><trkpt lat="47.82310536273067" lon="11.936714393340031"><ele>612.0</ele><time>2026-04-18T07:52:32.999Z</time></trkpt><trkpt lat="47.82323613429006" lon="11.936999766554651"><ele>610.5</ele><time>2026-04-18T07:52:33.999Z</time></trkpt><trkpt lat="47.82337224557506" lon="11.937276517123884"><ele>609.0</ele><time>2026-04-18T07:52:34.999Z</time></trkpt><trkpt lat="47.82351399503702" lon="11.93754846007648"><ele>604.0</ele><time>2026-04-18T07:52:35.999Z</time></trkpt><trkpt lat="47.82366143541809" lon="11.937805644672654"><ele>599.0</ele><time>2026-04-18T07:52:36.999Z</time></trkpt><trkpt lat="47.82381129726248" lon="11.938061062883031"><ele>599.0</ele><time>2026-04-18T07:52:37.999Z</time></trkpt><trkpt lat="47.82396661863103" lon="11.938313928300955"><ele>599.0</ele><time>2026-04-18T07:52:38.999Z</time></trkpt><trkpt lat="47.824123176198064" lon="11.93856518845624"><ele>595.5</ele><time>2026-04-18T07:52:39.999Z</time></trkpt><trkpt lat="47.82427757326149" lon="11.938821904492467"><ele>592.0</ele><time>2026-04-18T07:52:40.999Z</time></trkpt><trkpt lat="47.824430589049186" lon="11.939072249247358"><ele>592.0</ele><time>2026-04-18T07:52:41.999Z</time></trkpt><trkpt lat="47.824588172125196" lon="11.93931960895473"><ele>592.0</ele><time>2026-04-18T07:52:42.999Z</time></trkpt><trkpt lat="47.824743046205406" lon="11.939571358430284"><ele>592.0</ele><time>2026-04-18T07:52:43.999Z</time></trkpt><trkpt lat="47.82489084746076" lon="11.939811094454239"><ele>592.0</ele><time>2026-04-18T07:52:44.999Z</time></trkpt><trkpt lat="47.8250341982372" lon="11.940046552250035"><ele>592.0</ele><time>2026-04-18T07:52:45.999Z</time></trkpt><trkpt lat="47.82517204149557" lon="11.940285959865214"><ele>588.6666666666667</ele><time>2026-04-18T07:52:46.999Z</time></trkpt><trkpt lat="47.825312381096644" lon="11.940527545696154"><ele>585.3333333333334</ele><time>2026-04-18T07:52:47.999Z</time></trkpt><trkpt lat="47.8254552074464" lon="11.940769478609479"><ele>582.0</ele><time>2026-04-18T07:52:48.999Z</time></trkpt><trkpt lat="47.82559659612417" lon="11.941021499559861"><ele>581.3333333333334</ele><time>2026-04-18T07:52:49.999Z</time></trkpt><trkpt lat="47.82573270345871" lon="11.941280684199814"><ele>580.6666666666667</ele><time>2026-04-18T07:52:50.999Z</time></trkpt><trkpt lat="47.82586168559292" lon="11.94154867718579"><ele>580.0</ele><time>2026-04-18T07:52:51.999Z</time></trkpt><trkpt lat="47.825985844157124" lon="11.941821208415446"><ele>577.6666666666667</ele><time>2026-04-18T07:52:52.999Z</time></trkpt><trkpt lat="47.82610432985976" lon="11.94209778036465"><ele>575.3333333333334</ele><time>2026-04-18T07:52:53.999Z</time></trkpt><trkpt lat="47.82622016188779" lon="11.942388843692969"><ele>573.0</ele><time>2026-04-18T07:52:54.999Z</time></trkpt><trkpt lat="47.826335820698674" lon="11.942704588276928"><ele>572.5</ele><time>2026-04-18T07:52:55.999Z</time></trkpt><trkpt lat="47.826447535295046" lon="11.943038285429331"><ele>572.0</ele><time>2026-04-18T07:52:56.999Z</time></trkpt><trkpt lat="47.82654929138169" lon="11.943360741874903"><ele>570.5</ele><time>2026-04-18T07:52:57.999Z</time></trkpt><trkpt lat="47.82664250622261" lon="11.943680235337762"><ele>569.0</ele><time>2026-04-18T07:52:58.999Z</time></trkpt><trkpt lat="47.826725353205255" lon="11.943998275745372"><ele>569.3333333333333</ele><time>2026-04-18T07:52:59.999Z</time></trkpt><trkpt lat="47.826798057170166" lon="11.944305867483411"><ele>569.6666666666666</ele><time>2026-04-18T07:53:00.999Z</time></trkpt><trkpt lat="47.826862650349426" lon="11.94460503470754"><ele>570.0</ele><time>2026-04-18T07:53:01.999Z</time></trkpt><trkpt lat="47.82691652101432" lon="11.944896432559196"><ele>570.6666666666666</ele><time>2026-04-18T07:53:02.999Z</time></trkpt><trkpt lat="47.826967483159216" lon="11.945188370146127"><ele>571.3333333333333</ele><time>2026-04-18T07:53:03.999Z</time></trkpt><trkpt lat="47.827011645476816" lon="11.945482139541053"><ele>572.0</ele><time>2026-04-18T07:53:04.999Z</time></trkpt><trkpt lat="47.82705214268142" lon="11.94578561562449"><ele>571.3333333333333</ele><time>2026-04-18T07:53:05.999Z</time></trkpt><trkpt lat="47.82708821338565" lon="11.946098438021632"><ele>570.6666666666666</ele><time>2026-04-18T07:53:06.999Z</time></trkpt><trkpt lat="47.82711706462529" lon="11.946419536307351"><ele>570.0</ele><time>2026-04-18T07:53:07.999Z</time></trkpt><trkpt lat="47.827140946310564" lon="11.94675361926257"><ele>567.5</ele><time>2026-04-18T07:53:08.999Z</time></trkpt><trkpt lat="47.827158885209364" lon="11.947098603408966"><ele>565.0</ele><time>2026-04-18T07:53:09.999Z</time></trkpt><trkpt lat="47.827168558586585" lon="11.947457816149841"><ele>562.0</ele><time>2026-04-18T07:53:10.999Z</time></trkpt><trkpt lat="47.827169037850354" lon="11.947812174059209"><ele>559.0</ele><time>2026-04-18T07:53:11.999Z</time></trkpt><trkpt lat="47.827160197543435" lon="11.948151912441073"><ele>557.6666666666667</ele><time>2026-04-18T07:53:12.999Z</time></trkpt><trkpt lat="47.827144751636176" lon="11.948481820372557"><ele>556.3333333333334</ele><time>2026-04-18T07:53:13.999Z</time></trkpt><trkpt lat="47.82712174852905" lon="11.94881038918364"><ele>555.0</ele><time>2026-04-18T07:53:14.999Z</time></trkpt><trkpt lat="47.82709136857331" lon="11.949141096660135"><ele>555.5</ele><time>2026-04-18T07:53:15.999Z</time></trkpt><trkpt lat="47.827055746296494" lon="11.949472636597966"><ele>556.0</ele><time>2026-04-18T07:53:16.999Z</time></trkpt><trkpt lat="47.827016312716225" lon="11.949805263556199"><ele>556.0</ele><time>2026-04-18T07:53:17.999Z</time></trkpt><trkpt lat="47.82697214811999" lon="11.95013938675314"><ele>556.0</ele><time>2026-04-18T07:53:18.999Z</time></trkpt><trkpt lat="47.826924637546" lon="11.950476368754316"><ele>556.0</ele><time>2026-04-18T07:53:19.999Z</time></trkpt><trkpt lat="47.826881638077204" lon="11.950803271508272"><ele>556.0</ele><time>2026-04-18T07:53:20.999Z</time></trkpt><trkpt lat="47.826840510097504" lon="11.951117390440817"><ele>556.0</ele><time>2026-04-18T07:53:21.999Z</time></trkpt><trkpt lat="47.82680100284127" lon="11.951430368641635"><ele>554.6666666666667</ele><time>2026-04-18T07:53:22.999Z</time></trkpt><trkpt lat="47.82676081739328" lon="11.951739405605558"><ele>553.3333333333334</ele><time>2026-04-18T07:53:23.999Z</time></trkpt><trkpt lat="47.82671822390047" lon="11.952053227217023"><ele>552.0</ele><time>2026-04-18T07:53:24.999Z</time></trkpt><trkpt lat="47.82667669313483" lon="11.952387275821247"><ele>551.6666666666666</ele><time>2026-04-18T07:53:25.999Z</time></trkpt><trkpt lat="47.826634847214535" lon="11.952716918666205"><ele>551.3333333333333</ele><time>2026-04-18T07:53:26.999Z</time></trkpt><trkpt lat="47.826593748820635" lon="11.953033162195263"><ele>551.0</ele><time>2026-04-18T07:53:27.999Z</time></trkpt><trkpt lat="47.82655068733027" lon="11.953350499925296"><ele>550.0</ele><time>2026-04-18T07:53:28.999Z</time></trkpt><trkpt lat="47.82650492942599" lon="11.953679948021529"><ele>549.0</ele><time>2026-04-18T07:53:29.999Z</time></trkpt><trkpt lat="47.82645970417729" lon="11.954013510181229"><ele>548.5</ele><time>2026-04-18T07:53:31Z</time></trkpt><trkpt lat="47.82641662807385" lon="11.954345723855438"><ele>548.0</ele><time>2026-04-18T07:53:32Z</time></trkpt><trkpt lat="47.82637151952644" lon="11.95468748594597"><ele>548.0</ele><time>2026-04-18T07:53:33Z</time></trkpt><trkpt lat="47.826327470494164" lon="11.955033979727519"><ele>548.0</ele><time>2026-04-18T07:53:34Z</time></trkpt><trkpt lat="47.82628382874652" lon="11.955386573621668"><ele>547.5</ele><time>2026-04-18T07:53:35Z</time></trkpt><trkpt lat="47.826239500221526" lon="11.955745357709732"><ele>547.0</ele><time>2026-04-18T07:53:36Z</time></trkpt><trkpt lat="47.82619310533149" lon="11.95610332714548"><ele>546.0</ele><time>2026-04-18T07:53:37Z</time></trkpt><trkpt lat="47.82614555913872" lon="11.95644600719216"><ele>545.0</ele><time>2026-04-18T07:53:38Z</time></trkpt><trkpt lat="47.82610003838598" lon="11.956778957317477"><ele>544.0</ele><time>2026-04-18T07:53:39Z</time></trkpt><trkpt lat="47.826058545331314" lon="11.957107161807187"><ele>543.0</ele><time>2026-04-18T07:53:40Z</time></trkpt><trkpt lat="47.82601715832572" lon="11.957432172985495"><ele>542.0</ele><time>2026-04-18T07:53:41Z</time></trkpt><trkpt lat="47.825971846883995" lon="11.957752479958788"><ele>541.6666666666666</ele><time>2026-04-18T07:53:42Z</time></trkpt><trkpt lat="47.82592465247039" lon="11.958071670085724"><ele>541.3333333333334</ele><time>2026-04-18T07:53:43Z</time></trkpt><trkpt lat="47.82587253237532" lon="11.958387484172317"><ele>541.0</ele><time>2026-04-18T07:53:44Z</time></trkpt><trkpt lat="47.82581094266613" lon="11.958700021036682"><ele>539.6666666666667</ele><time>2026-04-18T07:53:45Z</time></trkpt><trkpt lat="47.82574232936282" lon="11.959010505983796"><ele>538.3333333333334</ele><time>2026-04-18T07:53:46Z</time></trkpt><trkpt lat="47.82566608523001" lon="11.959318131846832"><ele>537.0</ele><time>2026-04-18T07:53:47Z</time></trkpt><trkpt lat="47.82558299703647" lon="11.959623302209982"><ele>533.0</ele><time>2026-04-18T07:53:48Z</time></trkpt><trkpt lat="47.825493551801685" lon="11.959926943350437"><ele>529.0</ele><time>2026-04-18T07:53:49Z</time></trkpt><trkpt lat="47.825396373875925" lon="11.96023535248809"><ele>524.5</ele><time>2026-04-18T07:53:50Z</time></trkpt><trkpt lat="47.825293429792985" lon="11.960546559773249"><ele>520.0</ele><time>2026-04-18T07:53:51Z</time></trkpt><trkpt lat="47.82518109713632" lon="11.960862787599295"><ele>519.0</ele><time>2026-04-18T07:53:52Z</time></trkpt><trkpt lat="47.82505518233113" lon="11.961181005175822"><ele>518.0</ele><time>2026-04-18T07:53:53Z</time></trkpt><trkpt lat="47.82491862352851" lon="11.961500128402177"><ele>518.5</ele><time>2026-04-18T07:53:54Z</time></trkpt><trkpt lat="47.82477426176953" lon="11.961814606033293"><ele>519.0</ele><time>2026-04-18T07:53:55Z</time></trkpt><trkpt lat="47.82462683998484" lon="11.962121571911807"><ele>519.0</ele><time>2026-04-18T07:53:56Z</time></trkpt><trkpt lat="47.824478281347" lon="11.962430580987432"><ele>519.0</ele><time>2026-04-18T07:53:57Z</time></trkpt><trkpt lat="47.824322102443446" lon="11.962763349063552"><ele>518.5</ele><time>2026-04-18T07:53:58Z</time></trkpt><trkpt lat="47.82416688748857" lon="11.963104395054852"><ele>518.0</ele><time>2026-04-18T07:53:59Z</time></trkpt><trkpt lat="47.82401846313472" lon="11.963431150311537"><ele>518.0</ele><time>2026-04-18T07:54:00Z</time></trkpt><trkpt lat="47.82387528115406" lon="11.963746447432888"><ele>518.0</ele><time>2026-04-18T07:54:01Z</time></trkpt><trkpt lat="47.823736910696155" lon="11.964052955262455"><ele>519.0</ele><time>2026-04-18T07:54:02Z</time></trkpt><trkpt lat="47.82360060624198" lon="11.964353579230302"><ele>520.0</ele><time>2026-04-18T07:54:03Z</time></trkpt><trkpt lat="47.82346692133327" lon="11.96465490144964"><ele>518.5</ele><time>2026-04-18T07:54:04Z</time></trkpt><trkpt lat="47.823336339273304" lon="11.964960180676716"><ele>517.0</ele><time>2026-04-18T07:54:05Z</time></trkpt><trkpt lat="47.82320752095865" lon="11.9652663821042"><ele>517.0</ele><time>2026-04-18T07:54:06Z</time></trkpt><trkpt lat="47.82308768918892" lon="11.965571323615956"><ele>517.0</ele><time>2026-04-18T07:54:07Z</time></trkpt><trkpt lat="47.82297799290376" lon="11.965876966896033"><ele>517.5</ele><time>2026-04-18T07:54:08Z</time></trkpt><trkpt lat="47.8228798966047" lon="11.966186675573441"><ele>518.0</ele><time>2026-04-18T07:54:09Z</time></trkpt><trkpt lat="47.82277907725287" lon="11.96649432666159"><ele>517.5</ele><time>2026-04-18T07:54:10Z</time></trkpt><trkpt lat="47.82268253331954" lon="11.966802582513363"><ele>517.0</ele><time>2026-04-18T07:54:11Z</time></trkpt><trkpt lat="47.82258630547413" lon="11.96711713956023"><ele>514.5</ele><time>2026-04-18T07:54:12Z</time></trkpt><trkpt lat="47.82249512744296" lon="11.967433929058862"><ele>512.0</ele><time>2026-04-18T07:54:13Z</time></trkpt><trkpt lat="47.82240934405787" lon="11.967752148626122"><ele>511.0</ele><time>2026-04-18T07:54:13.999Z</time></trkpt><trkpt lat="47.82232761363292" lon="11.968070127098718"><ele>510.0</ele><time>2026-04-18T07:54:14.999Z</time></trkpt><trkpt lat="47.82224438761062" lon="11.968389995641942"><ele>509.0</ele><time>2026-04-18T07:54:15.999Z</time></trkpt><trkpt lat="47.822157574136604" lon="11.968725247632687"><ele>508.0</ele><time>2026-04-18T07:54:16.999Z</time></trkpt><trkpt lat="47.82208101954368" lon="11.969079912459636"><ele>507.0</ele><time>2026-04-18T07:54:17.999Z</time></trkpt><trkpt lat="47.82201189031087" lon="11.969447246214905"><ele>506.0</ele><time>2026-04-18T07:54:18.999Z</time></trkpt><trkpt lat="47.82194713979221" lon="11.969839320142572"><ele>505.0</ele><time>2026-04-18T07:54:19.999Z</time></trkpt><trkpt lat="47.821886532457185" lon="11.970234205669378"><ele>504.0</ele><time>2026-04-18T07:54:20.999Z</time></trkpt><trkpt lat="47.82182911779816" lon="11.970627154809266"><ele>503.5</ele><time>2026-04-18T07:54:21.999Z</time></trkpt><trkpt lat="47.82178002685864" lon="11.971016399206018"><ele>503.0</ele><time>2026-04-18T07:54:22.999Z</time></trkpt><trkpt lat="47.821742295164725" lon="11.971400629123194"><ele>503.0</ele><time>2026-04-18T07:54:23.999Z</time></trkpt><trkpt lat="47.821710938345525" lon="11.971776878810914"><ele>503.0</ele><time>2026-04-18T07:54:24.999Z</time></trkpt><trkpt lat="47.82168590163344" lon="11.972146990020686"><ele>503.0</ele><time>2026-04-18T07:54:25.999Z</time></trkpt><trkpt lat="47.82166614502344" lon="11.97252175660943"><ele>503.0</ele><time>2026-04-18T07:54:26.999Z</time></trkpt><trkpt lat="47.821650142084714" lon="11.972910603879258"><ele>502.5</ele><time>2026-04-18T07:54:27.999Z</time></trkpt><trkpt lat="47.82163754050121" lon="11.973314791598344"><ele>502.0</ele><time>2026-04-18T07:54:28.999Z</time></trkpt><trkpt lat="47.8216311310584" lon="11.973725463508135"><ele>502.0</ele><time>2026-04-18T07:54:29.999Z</time></trkpt><trkpt lat="47.82162362500742" lon="11.974123564690549"><ele>502.0</ele><time>2026-04-18T07:54:30.999Z</time></trkpt><trkpt lat="47.821615231717466" lon="11.974519463767942"><ele>503.0</ele><time>2026-04-18T07:54:31.999Z</time></trkpt><trkpt lat="47.82161075333026" lon="11.974908126928437"><ele>504.0</ele><time>2026-04-18T07:54:32.999Z</time></trkpt><trkpt lat="47.82161172092558" lon="11.975287402930817"><ele>504.0</ele><time>2026-04-18T07:54:33.999Z</time></trkpt><trkpt lat="47.82161764719286" lon="11.975661046414679"><ele>504.0</ele><time>2026-04-18T07:54:34.999Z</time></trkpt><trkpt lat="47.82162341950787" lon="11.976034519422345"><ele>502.5</ele><time>2026-04-18T07:54:35.999Z</time></trkpt><trkpt lat="47.821627345697266" lon="11.976415609682073"><ele>501.0</ele><time>2026-04-18T07:54:36.999Z</time></trkpt><trkpt lat="47.821633715196185" lon="11.976811732707805"><ele>499.5</ele><time>2026-04-18T07:54:37.999Z</time></trkpt><trkpt lat="47.82164142224826" lon="11.977219598425236"><ele>498.0</ele><time>2026-04-18T07:54:38.999Z</time></trkpt><trkpt lat="47.82164948694574" lon="11.977632882994136"><ele>496.5</ele><time>2026-04-18T07:54:39.999Z</time></trkpt><trkpt lat="47.821658784208765" lon="11.97805111559719"><ele>495.0</ele><time>2026-04-18T07:54:40.999Z</time></trkpt><trkpt lat="47.82166685093504" lon="11.978462952790306"><ele>494.5</ele><time>2026-04-18T07:54:41.999Z</time></trkpt><trkpt lat="47.82167395023192" lon="11.978871054031995"><ele>494.0</ele><time>2026-04-18T07:54:42.999Z</time></trkpt><trkpt lat="47.821680577614686" lon="11.979279199598738"><ele>494.0</ele><time>2026-04-18T07:54:43.999Z</time></trkpt><trkpt lat="47.821686982078916" lon="11.979686048506913"><ele>494.0</ele><time>2026-04-18T07:54:44.999Z</time></trkpt><trkpt lat="47.82169481173371" lon="11.980091322140767"><ele>492.0</ele><time>2026-04-18T07:54:45.999Z</time></trkpt><trkpt lat="47.82170388341781" lon="11.98049807862882"><ele>490.0</ele><time>2026-04-18T07:54:46.999Z</time></trkpt><trkpt lat="47.82171540059808" lon="11.980910207396564"><ele>490.0</ele><time>2026-04-18T07:54:47.999Z</time></trkpt><trkpt lat="47.82172634501266" lon="11.98132740960223"><ele>490.0</ele><time>2026-04-18T07:54:48.999Z</time></trkpt><trkpt lat="47.821735304053846" lon="11.981741082802063"><ele>489.5</ele><time>2026-04-18T07:54:49.999Z</time></trkpt><trkpt lat="47.82174194646737" lon="11.982145835829753"><ele>489.0</ele><time>2026-04-18T07:54:50.999Z</time></trkpt><trkpt lat="47.82175215232369" lon="11.982542989828739"><ele>488.0</ele><time>2026-04-18T07:54:51.999Z</time></trkpt><trkpt lat="47.82176312403252" lon="11.982928172536752"><ele>487.0</ele><time>2026-04-18T07:54:52.999Z</time></trkpt><trkpt lat="47.82177113762104" lon="11.983308638225804"><ele>486.0</ele><time>2026-04-18T07:54:53.999Z</time></trkpt><trkpt lat="47.82177635013713" lon="11.983702127787522"><ele>485.0</ele><time>2026-04-18T07:54:54.999Z</time></trkpt><trkpt lat="47.82178278983893" lon="11.984103221179025"><ele>485.0</ele><time>2026-04-18T07:54:55.999Z</time></trkpt><trkpt lat="47.8217920303309" lon="11.984512731785813"><ele>485.0</ele><time>2026-04-18T07:54:56.999Z</time></trkpt><trkpt lat="47.82179926590246" lon="11.984920023420973"><ele>485.5</ele><time>2026-04-18T07:54:57.999Z</time></trkpt><trkpt lat="47.821806901014014" lon="11.985324053544481"><ele>486.0</ele><time>2026-04-18T07:54:58.999Z</time></trkpt><trkpt lat="47.82181172774274" lon="11.985722448813853"><ele>486.0</ele><time>2026-04-18T07:54:59.999Z</time></trkpt><trkpt lat="47.82181667042787" lon="11.98611856304359"><ele>486.0</ele><time>2026-04-18T07:55:00.999Z</time></trkpt><trkpt lat="47.82182272728347" lon="11.986515836638917"><ele>485.5</ele><time>2026-04-18T07:55:01.999Z</time></trkpt><trkpt lat="47.8218274630737" lon="11.986912933586117"><ele>485.0</ele><time>2026-04-18T07:55:02.999Z</time></trkpt><trkpt lat="47.82183084668922" lon="11.987305732536248"><ele>483.5</ele><time>2026-04-18T07:55:03.999Z</time></trkpt><trkpt lat="47.8218354942253" lon="11.987695069467737"><ele>482.0</ele><time>2026-04-18T07:55:04.999Z</time></trkpt><trkpt lat="47.82183963552288" lon="11.988083354570442"><ele>481.0</ele><time>2026-04-18T07:55:05.999Z</time></trkpt><trkpt lat="47.821843356759786" lon="11.988470238691777"><ele>480.0</ele><time>2026-04-18T07:55:06.999Z</time></trkpt><trkpt lat="47.821845923335275" lon="11.988856331477242"><ele>480.0</ele><time>2026-04-18T07:55:07.999Z</time></trkpt><trkpt lat="47.8218457413213" lon="11.989243542144933"><ele>480.0</ele><time>2026-04-18T07:55:08.999Z</time></trkpt><trkpt lat="47.82184031158426" lon="11.989633202289625"><ele>480.0</ele><time>2026-04-18T07:55:09.999Z</time></trkpt><trkpt lat="47.8218313930948" lon="11.99001568340748"><ele>480.0</ele><time>2026-04-18T07:55:10.999Z</time></trkpt><trkpt lat="47.821820664228184" lon="11.990394033032093"><ele>480.0</ele><time>2026-04-18T07:55:11.999Z</time></trkpt><trkpt lat="47.82180975695577" lon="11.990770256312075"><ele>480.0</ele><time>2026-04-18T07:55:12.999Z</time></trkpt><trkpt lat="47.82179647469818" lon="11.991160756660689"><ele>480.0</ele><time>2026-04-18T07:55:13.999Z</time></trkpt><trkpt lat="47.821781271427945" lon="11.991562603700896"><ele>480.0</ele><time>2026-04-18T07:55:14.999Z</time></trkpt><trkpt lat="47.82176042526224" lon="11.991964873750053"><ele>479.0</ele><time>2026-04-18T07:55:15.999Z</time></trkpt><trkpt lat="47.82174302628188" lon="11.99236079279811"><ele>478.0</ele><time>2026-04-18T07:55:16.999Z</time></trkpt><trkpt lat="47.82172405285383" lon="11.992752980252204"><ele>478.0</ele><time>2026-04-18T07:55:17.999Z</time></trkpt><trkpt lat="47.821702485694125" lon="11.993135196296747"><ele>478.0</ele><time>2026-04-18T07:55:18.999Z</time></trkpt><trkpt lat="47.82167976280489" lon="11.993510516432446"><ele>477.5</ele><time>2026-04-18T07:55:19.999Z</time></trkpt><trkpt lat="47.82165543448864" lon="11.993884541589726"><ele>477.0</ele><time>2026-04-18T07:55:20.999Z</time></trkpt><trkpt lat="47.821630607142595" lon="11.994266271682088"><ele>476.5</ele><time>2026-04-18T07:55:21.999Z</time></trkpt><trkpt lat="47.82160575891957" lon="11.994651470082676"><ele>476.0</ele><time>2026-04-18T07:55:22.999Z</time></trkpt><trkpt lat="47.82158064755948" lon="11.995042332528351"><ele>476.0</ele><time>2026-04-18T07:55:23.999Z</time></trkpt><trkpt lat="47.821555587661464" lon="11.99542912626094"><ele>476.0</ele><time>2026-04-18T07:55:24.999Z</time></trkpt><trkpt lat="47.82153100558924" lon="11.995821438016305"><ele>475.5</ele><time>2026-04-18T07:55:25.999Z</time></trkpt><trkpt lat="47.821505142587895" lon="11.996224802073026"><ele>475.0</ele><time>2026-04-18T07:55:26.999Z</time></trkpt><trkpt lat="47.8214772393974" lon="11.996638583867368"><ele>475.5</ele><time>2026-04-18T07:55:27.999Z</time></trkpt><trkpt lat="47.82145088260227" lon="11.99705966558247"><ele>476.0</ele><time>2026-04-18T07:55:28.999Z</time></trkpt><trkpt lat="47.821424916274275" lon="11.997479583944099"><ele>475.0</ele><time>2026-04-18T07:55:29.999Z</time></trkpt><trkpt lat="47.821397410293166" lon="11.997889555871755"><ele>474.0</ele><time>2026-04-18T07:55:30.999Z</time></trkpt><trkpt lat="47.82136820412877" lon="11.998297284063554"><ele>473.5</ele><time>2026-04-18T07:55:31.999Z</time></trkpt><trkpt lat="47.82134062761735" lon="11.998706276157385"><ele>473.0</ele><time>2026-04-18T07:55:32.999Z</time></trkpt><trkpt lat="47.82131464559998" lon="11.999117123063739"><ele>473.5</ele><time>2026-04-18T07:55:33.999Z</time></trkpt><trkpt lat="47.8212886155214" lon="11.999529272356694"><ele>474.0</ele><time>2026-04-18T07:55:34.999Z</time></trkpt><trkpt lat="47.82126212262174" lon="11.99994215853383"><ele>474.0</ele><time>2026-04-18T07:55:35.999Z</time></trkpt><trkpt lat="47.82123502956057" lon="12.00035533765383"><ele>474.0</ele><time>2026-04-18T07:55:37Z</time></trkpt><trkpt lat="47.82120682358706" lon="12.000768293734412"><ele>474.0</ele><time>2026-04-18T07:55:38Z</time></trkpt><trkpt lat="47.82117977375612" lon="12.001183209981072"><ele>474.0</ele><time>2026-04-18T07:55:39Z</time></trkpt><trkpt lat="47.82115300001734" lon="12.00160052850817"><ele>473.5</ele><time>2026-04-18T07:55:40Z</time></trkpt><trkpt lat="47.82112575170353" lon="12.00201578123073"><ele>473.0</ele><time>2026-04-18T07:55:41Z</time></trkpt><trkpt lat="47.82109925779514" lon="12.002422414585133"><ele>473.5</ele><time>2026-04-18T07:55:42Z</time></trkpt><trkpt lat="47.82107242107832" lon="12.002819536366268"><ele>474.0</ele><time>2026-04-18T07:55:43Z</time></trkpt><trkpt lat="47.82104787742668" lon="12.003210717427727"><ele>474.0</ele><time>2026-04-18T07:55:44Z</time></trkpt><trkpt lat="47.82102385727706" lon="12.0035947057575"><ele>474.0</ele><time>2026-04-18T07:55:45Z</time></trkpt><trkpt lat="47.821000255963604" lon="12.003978396899054"><ele>473.5</ele><time>2026-04-18T07:55:46Z</time></trkpt><trkpt lat="47.8209758174253" lon="12.004365036569004"><ele>473.0</ele><time>2026-04-18T07:55:47Z</time></trkpt><trkpt lat="47.820951338575696" lon="12.004757979348645"><ele>473.0</ele><time>2026-04-18T07:55:48Z</time></trkpt><trkpt lat="47.82092676403457" lon="12.005154420930094"><ele>473.0</ele><time>2026-04-18T07:55:49Z</time></trkpt><trkpt lat="47.82089995587867" lon="12.00555154895281"><ele>473.0</ele><time>2026-04-18T07:55:50Z</time></trkpt><trkpt lat="47.8208733993714" lon="12.00595105279422"><ele>473.0</ele><time>2026-04-18T07:55:51Z</time></trkpt><trkpt lat="47.8208477133615" lon="12.006355337502072"><ele>473.0</ele><time>2026-04-18T07:55:52Z</time></trkpt><trkpt lat="47.82082086548189" lon="12.006763141164988"><ele>473.0</ele><time>2026-04-18T07:55:53Z</time></trkpt><trkpt lat="47.82079535294801" lon="12.007163384966391"><ele>473.5</ele><time>2026-04-18T07:55:54Z</time></trkpt><trkpt lat="47.82077183011939" lon="12.007552576194366"><ele>474.0</ele><time>2026-04-18T07:55:55Z</time></trkpt><trkpt lat="47.82074787018677" lon="12.007936994740001"><ele>474.0</ele><time>2026-04-18T07:55:56Z</time></trkpt><trkpt lat="47.82072234956442" lon="12.008323032390324"><ele>474.0</ele><time>2026-04-18T07:55:57Z</time></trkpt><trkpt lat="47.820695178286215" lon="12.008709561702124"><ele>474.0</ele><time>2026-04-18T07:55:58Z</time></trkpt><trkpt lat="47.82066634889855" lon="12.009095615043808"><ele>474.0</ele><time>2026-04-18T07:55:59Z</time></trkpt><trkpt lat="47.82063203098922" lon="12.009479187418629"><ele>472.5</ele><time>2026-04-18T07:56:00Z</time></trkpt><trkpt lat="47.82060242314558" lon="12.009864902417318"><ele>471.0</ele><time>2026-04-18T07:56:01Z</time></trkpt><trkpt lat="47.82058112047631" lon="12.010247621886183"><ele>471.0</ele><time>2026-04-18T07:56:02Z</time></trkpt><trkpt lat="47.82056151484543" lon="12.010630218593095"><ele>471.0</ele><time>2026-04-18T07:56:03Z</time></trkpt><trkpt lat="47.820536607260394" lon="12.011008334692479"><ele>471.0</ele><time>2026-04-18T07:56:04Z</time></trkpt><trkpt lat="47.82050983535885" lon="12.01137523099262"><ele>471.0</ele><time>2026-04-18T07:56:05Z</time></trkpt><trkpt lat="47.82048628360683" lon="12.011723423396168"><ele>470.5</ele><time>2026-04-18T07:56:06Z</time></trkpt><trkpt lat="47.8204641870041" lon="12.012067150504445"><ele>470.0</ele><time>2026-04-18T07:56:07Z</time></trkpt><trkpt lat="47.82044222391496" lon="12.012421628087044"><ele>470.0</ele><time>2026-04-18T07:56:08Z</time></trkpt><trkpt lat="47.82041820616384" lon="12.012790116929354"><ele>470.0</ele><time>2026-04-18T07:56:09Z</time></trkpt><trkpt lat="47.82039297382547" lon="12.013171181214403"><ele>470.5</ele><time>2026-04-18T07:56:10Z</time></trkpt><trkpt lat="47.82036836880485" lon="12.013561059917661"><ele>471.0</ele><time>2026-04-18T07:56:11Z</time></trkpt><trkpt lat="47.82034588847066" lon="12.01396171542885"><ele>471.5</ele><time>2026-04-18T07:56:12Z</time></trkpt><trkpt lat="47.82032010211819" lon="12.014392209083322"><ele>472.0</ele><time>2026-04-18T07:56:13Z</time></trkpt><trkpt lat="47.82029119027137" lon="12.014847789093281"><ele>471.0</ele><time>2026-04-18T07:56:14Z</time></trkpt><trkpt lat="47.82026043450104" lon="12.015283563632897"><ele>470.0</ele><time>2026-04-18T07:56:15Z</time></trkpt><trkpt lat="47.8202254149213" lon="12.015692548863608"><ele>470.0</ele><time>2026-04-18T07:56:16Z</time></trkpt><trkpt lat="47.82018980681991" lon="12.01608451831845"><ele>470.0</ele><time>2026-04-18T07:56:17Z</time></trkpt><trkpt lat="47.82015180609192" lon="12.01646919824334"><ele>469.5</ele><time>2026-04-18T07:56:18Z</time></trkpt><trkpt lat="47.82010741323607" lon="12.016845193268296"><ele>469.0</ele><time>2026-04-18T07:56:19Z</time></trkpt><trkpt lat="47.82006307869736" lon="12.017221466063974"><ele>468.5</ele><time>2026-04-18T07:56:20Z</time></trkpt><trkpt lat="47.82001711775182" lon="12.017602320012141"><ele>468.0</ele><time>2026-04-18T07:56:21Z</time></trkpt><trkpt lat="47.819964323305946" lon="12.017984014212765"><ele>468.0</ele><time>2026-04-18T07:56:22Z</time></trkpt><trkpt lat="47.81990692365599" lon="12.018361960031907"><ele>468.0</ele><time>2026-04-18T07:56:23Z</time></trkpt><trkpt lat="47.819847042991455" lon="12.018737712806939"><ele>468.0</ele><time>2026-04-18T07:56:24Z</time></trkpt><trkpt lat="47.8197856305266" lon="12.01911054450794"><ele>468.0</ele><time>2026-04-18T07:56:25Z</time></trkpt><trkpt lat="47.819718014124014" lon="12.01948280768346"><ele>468.0</ele><time>2026-04-18T07:56:26Z</time></trkpt><trkpt lat="47.81964592865066" lon="12.019858552707788"><ele>468.0</ele><time>2026-04-18T07:56:27Z</time></trkpt><trkpt lat="47.81956767728694" lon="12.020240593201112"><ele>468.5</ele><time>2026-04-18T07:56:28Z</time></trkpt><trkpt lat="47.819487384044294" lon="12.020626328251744"><ele>469.0</ele><time>2026-04-18T07:56:29Z</time></trkpt><trkpt lat="47.81940625276777" lon="12.02102214314312"><ele>469.0</ele><time>2026-04-18T07:56:30Z</time></trkpt><trkpt lat="47.81932081635785" lon="12.02143428956549"><ele>469.0</ele><time>2026-04-18T07:56:31Z</time></trkpt><trkpt lat="47.81923622380337" lon="12.021838811603095"><ele>469.0</ele><time>2026-04-18T07:56:32Z</time></trkpt><trkpt lat="47.81915314855357" lon="12.022238779495451"><ele>469.0</ele><time>2026-04-18T07:56:33Z</time></trkpt><trkpt lat="47.81907070456618" lon="12.022633428781573"><ele>469.0</ele><time>2026-04-18T07:56:34Z</time></trkpt><trkpt lat="47.81899006038963" lon="12.02302836731916"><ele>469.0</ele><time>2026-04-18T07:56:35Z</time></trkpt><trkpt lat="47.81890871967487" lon="12.023427384140927"><ele>468.5</ele><time>2026-04-18T07:56:36Z</time></trkpt><trkpt lat="47.81882607267172" lon="12.023827677502585"><ele>468.0</ele><time>2026-04-18T07:56:37Z</time></trkpt><trkpt lat="47.81874111498965" lon="12.024233099192937"><ele>468.0</ele><time>2026-04-18T07:56:37.999Z</time></trkpt><trkpt lat="47.81865758475617" lon="12.0246350016573"><ele>468.0</ele><time>2026-04-18T07:56:38.999Z</time></trkpt><trkpt lat="47.81858058673614" lon="12.02502928505091"><ele>468.0</ele><time>2026-04-18T07:56:39.999Z</time></trkpt><trkpt lat="47.818504553817014" lon="12.025422124074142"><ele>468.0</ele><time>2026-04-18T07:56:40.999Z</time></trkpt><trkpt lat="47.81842839014456" lon="12.025812905406285"><ele>468.5</ele><time>2026-04-18T07:56:41.999Z</time></trkpt><trkpt lat="47.818354763825745" lon="12.026202648147153"><ele>469.0</ele><time>2026-04-18T07:56:42.999Z</time></trkpt><trkpt lat="47.81827819698822" lon="12.026588308406994"><ele>469.0</ele><time>2026-04-18T07:56:43.999Z</time></trkpt><trkpt lat="47.81820240607873" lon="12.026971291324307"><ele>469.0</ele><time>2026-04-18T07:56:44.999Z</time></trkpt><trkpt lat="47.81813303221277" lon="12.027354860478733"><ele>469.5</ele><time>2026-04-18T07:56:45.999Z</time></trkpt><trkpt lat="47.8180698204927" lon="12.027736862146844"><ele>470.0</ele><time>2026-04-18T07:56:46.999Z</time></trkpt><trkpt lat="47.818010949433486" lon="12.028118106130657"><ele>471.5</ele><time>2026-04-18T07:56:47.999Z</time></trkpt><trkpt lat="47.81795378279647" lon="12.02849939702529"><ele>473.0</ele><time>2026-04-18T07:56:48.999Z</time></trkpt><trkpt lat="47.81789939578933" lon="12.028881032712487"><ele>474.0</ele><time>2026-04-18T07:56:49.999Z</time></trkpt><trkpt lat="47.81784910830591" lon="12.029263100076765"><ele>475.0</ele><time>2026-04-18T07:56:50.999Z</time></trkpt><trkpt lat="47.817803563238556" lon="12.029646398166246"><ele>476.0</ele><time>2026-04-18T07:56:51.999Z</time></trkpt><trkpt lat="47.817761668914905" lon="12.030030494242594"><ele>477.0</ele><time>2026-04-18T07:56:52.999Z</time></trkpt><trkpt lat="47.817726355289174" lon="12.030416189521821"><ele>476.5</ele><time>2026-04-18T07:56:53.999Z</time></trkpt><trkpt lat="47.81769412278716" lon="12.030817335719858"><ele>476.0</ele><time>2026-04-18T07:56:54.999Z</time></trkpt><trkpt lat="47.81766086178357" lon="12.031227132670141"><ele>473.5</ele><time>2026-04-18T07:56:55.999Z</time></trkpt><trkpt lat="47.81763094910965" lon="12.031643774252917"><ele>471.0</ele><time>2026-04-18T07:56:56.999Z</time></trkpt><trkpt lat="47.81760641701608" lon="12.032085341421608"><ele>471.0</ele><time>2026-04-18T07:56:57.999Z</time></trkpt><trkpt lat="47.817584186934035" lon="12.032530831585314"><ele>471.0</ele><time>2026-04-18T07:56:58.999Z</time></trkpt><trkpt lat="47.81756448827689" lon="12.032958478251173"><ele>470.5</ele><time>2026-04-18T07:56:59.999Z</time></trkpt><trkpt lat="47.817543332045766" lon="12.033379735338341"><ele>470.0</ele><time>2026-04-18T07:57:00.999Z</time></trkpt><trkpt lat="47.817522093256905" lon="12.033798723906171"><ele>470.0</ele><time>2026-04-18T07:57:01.999Z</time></trkpt><trkpt lat="47.817500872371305" lon="12.034219915798694"><ele>470.0</ele><time>2026-04-18T07:57:02.999Z</time></trkpt><trkpt lat="47.817480319002534" lon="12.034654858111445"><ele>470.5</ele><time>2026-04-18T07:57:03.999Z</time></trkpt><trkpt lat="47.81745705616938" lon="12.035088971274675"><ele>471.0</ele><time>2026-04-18T07:57:04.999Z</time></trkpt><trkpt lat="47.81742584414666" lon="12.035519796264236"><ele>470.0</ele><time>2026-04-18T07:57:05.999Z</time></trkpt><trkpt lat="47.817402732704245" lon="12.035943317767497"><ele>469.0</ele><time>2026-04-18T07:57:06.999Z</time></trkpt><trkpt lat="47.81738189995488" lon="12.036354249021553"><ele>469.0</ele><time>2026-04-18T07:57:07.999Z</time></trkpt><trkpt lat="47.81736176970821" lon="12.036745101616596"><ele>469.0</ele><time>2026-04-18T07:57:08.999Z</time></trkpt><trkpt lat="47.817345483888765" lon="12.037128098928566"><ele>468.5</ele><time>2026-04-18T07:57:09.999Z</time></trkpt><trkpt lat="47.81732890044975" lon="12.037506378541789"><ele>468.0</ele><time>2026-04-18T07:57:10.999Z</time></trkpt><trkpt lat="47.81731075936511" lon="12.037878278844284"><ele>468.0</ele><time>2026-04-18T07:57:11.999Z</time></trkpt><trkpt lat="47.817290427718895" lon="12.038250769239493"><ele>468.0</ele><time>2026-04-18T07:57:12.999Z</time></trkpt><trkpt lat="47.81727052825934" lon="12.038630852221875"><ele>467.5</ele><time>2026-04-18T07:57:13.999Z</time></trkpt><trkpt lat="47.817252087950365" lon="12.039019455738845"><ele>467.0</ele><time>2026-04-18T07:57:14.999Z</time></trkpt><trkpt lat="47.81723483742225" lon="12.039404477124236"><ele>468.0</ele><time>2026-04-18T07:57:15.999Z</time></trkpt><trkpt lat="47.81721775075282" lon="12.039793098509893"><ele>469.0</ele><time>2026-04-18T07:57:16.999Z</time></trkpt><trkpt lat="47.81719778466507" lon="12.040192697687107"><ele>471.0</ele><time>2026-04-18T07:57:17.999Z</time></trkpt><trkpt lat="47.8171776766325" lon="12.040596841340488"><ele>473.0</ele><time>2026-04-18T07:57:18.999Z</time></trkpt><trkpt lat="47.81715839875419" lon="12.041005049844491"><ele>473.0</ele><time>2026-04-18T07:57:19.999Z</time></trkpt><trkpt lat="47.81713808119769" lon="12.041414629156566"><ele>473.0</ele><time>2026-04-18T07:57:20.999Z</time></trkpt><trkpt lat="47.81711712086647" lon="12.041815942525659"><ele>473.0</ele><time>2026-04-18T07:57:21.999Z</time></trkpt><trkpt lat="47.81709807714514" lon="12.04221604434459"><ele>473.0</ele><time>2026-04-18T07:57:22.999Z</time></trkpt><trkpt lat="47.817079243602876" lon="12.042622351841036"><ele>473.0</ele><time>2026-04-18T07:57:23.999Z</time></trkpt><trkpt lat="47.81705862517683" lon="12.043037207924641"><ele>473.0</ele><time>2026-04-18T07:57:24.999Z</time></trkpt><trkpt lat="47.81703584673469" lon="12.043457337754985"><ele>471.0</ele><time>2026-04-18T07:57:25.999Z</time></trkpt><trkpt lat="47.81701131339861" lon="12.04387370573808"><ele>469.0</ele><time>2026-04-18T07:57:26.999Z</time></trkpt><trkpt lat="47.8169848851517" lon="12.044287004209854"><ele>469.0</ele><time>2026-04-18T07:57:27.999Z</time></trkpt><trkpt lat="47.816955610794814" lon="12.044697238254889"><ele>469.0</ele><time>2026-04-18T07:57:28.999Z</time></trkpt><trkpt lat="47.81692256931337" lon="12.04508786923704"><ele>468.0</ele><time>2026-04-18T07:57:29.999Z</time></trkpt><trkpt lat="47.816887678766385" lon="12.045459048938902"><ele>467.0</ele><time>2026-04-18T07:57:30.999Z</time></trkpt><trkpt lat="47.81685682464795" lon="12.045827357031847"><ele>466.0</ele><time>2026-04-18T07:57:31.999Z</time></trkpt><trkpt lat="47.81682365969986" lon="12.046200655314104"><ele>465.0</ele><time>2026-04-18T07:57:32.999Z</time></trkpt><trkpt lat="47.816785570517624" lon="12.046569986301702"><ele>464.0</ele><time>2026-04-18T07:57:33.999Z</time></trkpt><trkpt lat="47.8167480347178" lon="12.046936182268045"><ele>463.0</ele><time>2026-04-18T07:57:34.999Z</time></trkpt><trkpt lat="47.81670854894089" lon="12.047302895675115"><ele>463.5</ele><time>2026-04-18T07:57:35.999Z</time></trkpt><trkpt lat="47.816667444154895" lon="12.047677410092565"><ele>464.0</ele><time>2026-04-18T07:57:36.999Z</time></trkpt><trkpt lat="47.81662437926183" lon="12.04804852097446"><ele>464.5</ele><time>2026-04-18T07:57:37.999Z</time></trkpt><trkpt lat="47.81657924010745" lon="12.048413436839581"><ele>465.0</ele><time>2026-04-18T07:57:38.999Z</time></trkpt><trkpt lat="47.81653439213087" lon="12.048775882705144"><ele>465.5</ele><time>2026-04-18T07:57:39.999Z</time></trkpt><trkpt lat="47.81649088809187" lon="12.049139702587139"><ele>466.0</ele><time>2026-04-18T07:57:40.999Z</time></trkpt><trkpt lat="47.816447078404465" lon="12.049499549854277"><ele>466.0</ele><time>2026-04-18T07:57:41.999Z</time></trkpt><trkpt lat="47.81640363863536" lon="12.049852890939448"><ele>466.0</ele><time>2026-04-18T07:57:43Z</time></trkpt><trkpt lat="47.81636152490716" lon="12.050204486653376"><ele>465.0</ele><time>2026-04-18T07:57:44Z</time></trkpt><trkpt lat="47.81631862618601" lon="12.0505581021469"><ele>464.0</ele><time>2026-04-18T07:57:45Z</time></trkpt><trkpt lat="47.81627409766628" lon="12.050914233535385"><ele>463.0</ele><time>2026-04-18T07:57:46Z</time></trkpt><trkpt lat="47.81623164789715" lon="12.051272066619337"><ele>462.0</ele><time>2026-04-18T07:57:47Z</time></trkpt><trkpt lat="47.816188883228534" lon="12.051631026304989"><ele>461.0</ele><time>2026-04-18T07:57:48Z</time></trkpt><trkpt lat="47.816146091149164" lon="12.051990742141102"><ele>460.0</ele><time>2026-04-18T07:57:49Z</time></trkpt><trkpt lat="47.81609944478427" lon="12.052359814937272"><ele>460.0</ele><time>2026-04-18T07:57:50Z</time></trkpt><trkpt lat="47.816051448150574" lon="12.052736314208811"><ele>460.0</ele><time>2026-04-18T07:57:51Z</time></trkpt><trkpt lat="47.81600518168037" lon="12.05312187323047"><ele>462.5</ele><time>2026-04-18T07:57:52Z</time></trkpt><trkpt lat="47.815960892757786" lon="12.05351972860922"><ele>465.0</ele><time>2026-04-18T07:57:53Z</time></trkpt><trkpt lat="47.81591368489055" lon="12.053911952386539"><ele>465.5</ele><time>2026-04-18T07:57:54Z</time></trkpt><trkpt lat="47.81586201284258" lon="12.054299487509102"><ele>466.0</ele><time>2026-04-18T07:57:55Z</time></trkpt><trkpt lat="47.81581447848346" lon="12.054688431324054"><ele>464.5</ele><time>2026-04-18T07:57:56Z</time></trkpt><trkpt lat="47.815767872837256" lon="12.055072542654848"><ele>463.0</ele><time>2026-04-18T07:57:57Z</time></trkpt><trkpt lat="47.81572125179266" lon="12.055446171443466"><ele>464.0</ele><time>2026-04-18T07:57:58Z</time></trkpt><trkpt lat="47.81567567506464" lon="12.055814236091553"><ele>465.0</ele><time>2026-04-18T07:57:59Z</time></trkpt><trkpt lat="47.81563377578214" lon="12.056173654905628"><ele>465.0</ele><time>2026-04-18T07:58:00Z</time></trkpt><trkpt lat="47.81559036957138" lon="12.056525731558935"><ele>465.0</ele><time>2026-04-18T07:58:01Z</time></trkpt><trkpt lat="47.81554692961321" lon="12.056876950402708"><ele>466.5</ele><time>2026-04-18T07:58:02Z</time></trkpt><trkpt lat="47.81550262281402" lon="12.057230992659226"><ele>468.0</ele><time>2026-04-18T07:58:03Z</time></trkpt><trkpt lat="47.81545884450247" lon="12.0575875100977"><ele>468.5</ele><time>2026-04-18T07:58:04Z</time></trkpt><trkpt lat="47.815414550495554" lon="12.057952380168699"><ele>469.0</ele><time>2026-04-18T07:58:05Z</time></trkpt><trkpt lat="47.815368805829536" lon="12.058329635889335"><ele>470.5</ele><time>2026-04-18T07:58:06Z</time></trkpt><trkpt lat="47.81532097345119" lon="12.058718669553256"><ele>472.0</ele><time>2026-04-18T07:58:07Z</time></trkpt><trkpt lat="47.81527208528753" lon="12.059112358055078"><ele>474.5</ele><time>2026-04-18T07:58:08Z</time></trkpt><trkpt lat="47.815223133389885" lon="12.059505434989486"><ele>477.0</ele><time>2026-04-18T07:58:09Z</time></trkpt><trkpt lat="47.815175409301425" lon="12.059902033541157"><ele>476.0</ele><time>2026-04-18T07:58:10Z</time></trkpt><trkpt lat="47.815126505732096" lon="12.060301534550039"><ele>475.0</ele><time>2026-04-18T07:58:11Z</time></trkpt><trkpt lat="47.815077148203244" lon="12.060701468685599"><ele>474.0</ele><time>2026-04-18T07:58:12Z</time></trkpt><trkpt lat="47.81502998351438" lon="12.061099836824104"><ele>473.0</ele><time>2026-04-18T07:58:13Z</time></trkpt><trkpt lat="47.81498338476443" lon="12.061489200783416"><ele>473.5</ele><time>2026-04-18T07:58:14Z</time></trkpt><trkpt lat="47.814936784601755" lon="12.061864030013362"><ele>474.0</ele><time>2026-04-18T07:58:15Z</time></trkpt><trkpt lat="47.814891058346" lon="12.062228593024598"><ele>475.0</ele><time>2026-04-18T07:58:16Z</time></trkpt><trkpt lat="47.81484650308968" lon="12.062589492084017"><ele>476.0</ele><time>2026-04-18T07:58:17Z</time></trkpt><trkpt lat="47.81480277888465" lon="12.062951433094767"><ele>476.5</ele><time>2026-04-18T07:58:18Z</time></trkpt><trkpt lat="47.81475860363801" lon="12.063315080894865"><ele>477.0</ele><time>2026-04-18T07:58:19Z</time></trkpt><trkpt lat="47.81470857608793" lon="12.063678810161115"><ele>477.0</ele><time>2026-04-18T07:58:20Z</time></trkpt><trkpt lat="47.81465031371419" lon="12.064046514864039"><ele>477.0</ele><time>2026-04-18T07:58:21Z</time></trkpt><trkpt lat="47.81458047103595" lon="12.064420750370328"><ele>476.5</ele><time>2026-04-18T07:58:22Z</time></trkpt><trkpt lat="47.81450793607911" lon="12.064793024520418"><ele>476.0</ele><time>2026-04-18T07:58:23Z</time></trkpt><trkpt lat="47.81445137687238" lon="12.065154813262545"><ele>476.0</ele><time>2026-04-18T07:58:24Z</time></trkpt><trkpt lat="47.81440288359623" lon="12.065489908228692"><ele>476.0</ele><time>2026-04-18T07:58:25Z</time></trkpt><trkpt lat="47.81435797002537" lon="12.065809510065122"><ele>476.0</ele><time>2026-04-18T07:58:26Z</time></trkpt><trkpt lat="47.81431198473614" lon="12.066130840392853"><ele>476.0</ele><time>2026-04-18T07:58:27Z</time></trkpt><trkpt lat="47.81426262314758" lon="12.066458567754848"><ele>476.0</ele><time>2026-04-18T07:58:28Z</time></trkpt><trkpt lat="47.81421303620124" lon="12.066785521789921"><ele>476.0</ele><time>2026-04-18T07:58:29Z</time></trkpt><trkpt lat="47.81416371839262" lon="12.067120527998059"><ele>476.0</ele><time>2026-04-18T07:58:30Z</time></trkpt><trkpt lat="47.814113692037665" lon="12.067464609020975"><ele>475.0</ele><time>2026-04-18T07:58:31Z</time></trkpt><trkpt lat="47.81406097664441" lon="12.067819263380002"><ele>474.0</ele><time>2026-04-18T07:58:32Z</time></trkpt><trkpt lat="47.814008585569454" lon="12.068173579111642"><ele>473.5</ele><time>2026-04-18T07:58:33Z</time></trkpt><trkpt lat="47.813958618484094" lon="12.068512883347623"><ele>473.0</ele><time>2026-04-18T07:58:34Z</time></trkpt><trkpt lat="47.813912973003475" lon="12.068841344735233"><ele>473.66666666666663</ele><time>2026-04-18T07:58:35Z</time></trkpt><trkpt lat="47.81386782318296" lon="12.069166705719487"><ele>474.33333333333337</ele><time>2026-04-18T07:58:36Z</time></trkpt><trkpt lat="47.81382170977351" lon="12.069493116577974"><ele>475.0</ele><time>2026-04-18T07:58:37Z</time></trkpt><trkpt lat="47.81377263244819" lon="12.069816345777207"><ele>475.0</ele><time>2026-04-18T07:58:38Z</time></trkpt><trkpt lat="47.81372080037817" lon="12.070134929887699"><ele>475.0</ele><time>2026-04-18T07:58:39Z</time></trkpt><trkpt lat="47.81367133331885" lon="12.070450483728067"><ele>475.0</ele><time>2026-04-18T07:58:40Z</time></trkpt><trkpt lat="47.813627154494654" lon="12.07075963358026"><ele>475.0</ele><time>2026-04-18T07:58:41Z</time></trkpt><trkpt lat="47.81358296184116" lon="12.071068196557462"><ele>475.0</ele><time>2026-04-18T07:58:42Z</time></trkpt><trkpt lat="47.813537377194265" lon="12.071383306315067"><ele>475.0</ele><time>2026-04-18T07:58:43Z</time></trkpt><trkpt lat="47.81348954778147" lon="12.071709219399661"><ele>475.0</ele><time>2026-04-18T07:58:44Z</time></trkpt><trkpt lat="47.81344024687944" lon="12.072045483205786"><ele>475.0</ele><time>2026-04-18T07:58:45Z</time></trkpt><trkpt lat="47.813387176711096" lon="12.072403861787947"><ele>473.0</ele><time>2026-04-18T07:58:46Z</time></trkpt><trkpt lat="47.813332040398834" lon="12.072781759684638"><ele>471.0</ele><time>2026-04-18T07:58:47Z</time></trkpt><trkpt lat="47.81327659661728" lon="12.07315474868151"><ele>470.5</ele><time>2026-04-18T07:58:48Z</time></trkpt><trkpt lat="47.81322223767623" lon="12.073512742847315"><ele>470.0</ele><time>2026-04-18T07:58:49Z</time></trkpt><trkpt lat="47.81316983351149" lon="12.073861567508578"><ele>469.5</ele><time>2026-04-18T07:58:50Z</time></trkpt><trkpt lat="47.813119347732695" lon="12.074199812603716"><ele>469.0</ele><time>2026-04-18T07:58:51Z</time></trkpt><trkpt lat="47.813072277708144" lon="12.074517974796962"><ele>469.0</ele><time>2026-04-18T07:58:52Z</time></trkpt><trkpt lat="47.81302853300452" lon="12.074823951236803"><ele>469.0</ele><time>2026-04-18T07:58:53Z</time></trkpt><trkpt lat="47.812982895441436" lon="12.075130242182201"><ele>469.0</ele><time>2026-04-18T07:58:54Z</time></trkpt><trkpt lat="47.812935886059954" lon="12.075451861864686"><ele>469.5</ele><time>2026-04-18T07:58:55Z</time></trkpt><trkpt lat="47.81288646568086" lon="12.075780976846684"><ele>470.0</ele><time>2026-04-18T07:58:56Z</time></trkpt><trkpt lat="47.8128346984182" lon="12.076123251193362"><ele>470.0</ele><time>2026-04-18T07:58:57Z</time></trkpt><trkpt lat="47.81278277869256" lon="12.076474763975176"><ele>470.0</ele><time>2026-04-18T07:58:58Z</time></trkpt><trkpt lat="47.812728658548856" lon="12.076834608459349"><ele>469.5</ele><time>2026-04-18T07:58:59Z</time></trkpt><trkpt lat="47.81266295296015" lon="12.077186063945247"><ele>469.0</ele><time>2026-04-18T07:59:00Z</time></trkpt><trkpt lat="47.81259957594811" lon="12.077527895419475"><ele>467.5</ele><time>2026-04-18T07:59:00.999Z</time></trkpt><trkpt lat="47.81254994986106" lon="12.077864382606142"><ele>466.0</ele><time>2026-04-18T07:59:01.999Z</time></trkpt><trkpt lat="47.812500674045275" lon="12.07819515875676"><ele>466.33333333333337</ele><time>2026-04-18T07:59:02.999Z</time></trkpt><trkpt lat="47.81245050688596" lon="12.078521637342607"><ele>466.66666666666663</ele><time>2026-04-18T07:59:03.999Z</time></trkpt><trkpt lat="47.81240462588844" lon="12.078846769193483"><ele>467.0</ele><time>2026-04-18T07:59:04.999Z</time></trkpt><trkpt lat="47.812355215843354" lon="12.079178565081069"><ele>467.5</ele><time>2026-04-18T07:59:05.999Z</time></trkpt><trkpt lat="47.81230239219052" lon="12.079510887591328"><ele>468.0</ele><time>2026-04-18T07:59:06.999Z</time></trkpt><trkpt lat="47.81225144896256" lon="12.079846512834266"><ele>467.0</ele><time>2026-04-18T07:59:07.999Z</time></trkpt><trkpt lat="47.81220365226733" lon="12.080182722815048"><ele>466.0</ele><time>2026-04-18T07:59:08.999Z</time></trkpt><trkpt lat="47.8121545205844" lon="12.08051640798871"><ele>466.5</ele><time>2026-04-18T07:59:09.999Z</time></trkpt><trkpt lat="47.81210434689775" lon="12.080848407240794"><ele>467.0</ele><time>2026-04-18T07:59:10.999Z</time></trkpt><trkpt lat="47.81205466236022" lon="12.081193494351075"><ele>467.0</ele><time>2026-04-18T07:59:11.999Z</time></trkpt><trkpt lat="47.812001863625675" lon="12.081547481835376"><ele>467.0</ele><time>2026-04-18T07:59:12.999Z</time></trkpt><trkpt lat="47.81194864085669" lon="12.081907482785155"><ele>467.0</ele><time>2026-04-18T07:59:13.999Z</time></trkpt><trkpt lat="47.81189556908338" lon="12.082264247284929"><ele>467.0</ele><time>2026-04-18T07:59:14.999Z</time></trkpt><trkpt lat="47.81184254960265" lon="12.082621597896633"><ele>467.0</ele><time>2026-04-18T07:59:15.999Z</time></trkpt><trkpt lat="47.81179616188195" lon="12.082982915612721"><ele>467.0</ele><time>2026-04-18T07:59:16.999Z</time></trkpt><trkpt lat="47.81174157141644" lon="12.083343749532592"><ele>467.0</ele><time>2026-04-18T07:59:17.999Z</time></trkpt><trkpt lat="47.811685063340654" lon="12.083716454567647"><ele>467.0</ele><time>2026-04-18T07:59:18.999Z</time></trkpt><trkpt lat="47.8116256642329" lon="12.084103125620933"><ele>467.5</ele><time>2026-04-18T07:59:19.999Z</time></trkpt><trkpt lat="47.811570264812666" lon="12.084481586149854"><ele>468.0</ele><time>2026-04-18T07:59:20.999Z</time></trkpt><trkpt lat="47.8115169956129" lon="12.084856066613668"><ele>468.0</ele><time>2026-04-18T07:59:21.999Z</time></trkpt><trkpt lat="47.81146319396343" lon="12.085222973237428"><ele>468.0</ele><time>2026-04-18T07:59:22.999Z</time></trkpt><trkpt lat="47.81141760527311" lon="12.085583382816457"><ele>467.5</ele><time>2026-04-18T07:59:23.999Z</time></trkpt><trkpt lat="47.811371014506854" lon="12.085950814252783"><ele>467.0</ele><time>2026-04-18T07:59:24.999Z</time></trkpt><trkpt lat="47.81131567060902" lon="12.086317845335406"><ele>467.5</ele><time>2026-04-18T07:59:25.999Z</time></trkpt><trkpt lat="47.81126419954088" lon="12.086678428707241"><ele>468.0</ele><time>2026-04-18T07:59:26.999Z</time></trkpt><trkpt lat="47.8112151983105" lon="12.087024834839596"><ele>468.0</ele><time>2026-04-18T07:59:27.999Z</time></trkpt><trkpt lat="47.81116604070525" lon="12.087352161498229"><ele>468.0</ele><time>2026-04-18T07:59:28.999Z</time></trkpt><trkpt lat="47.81111775400052" lon="12.087670848613252"><ele>468.0</ele><time>2026-04-18T07:59:29.999Z</time></trkpt><trkpt lat="47.81106909699501" lon="12.087992280625834"><ele>468.0</ele><time>2026-04-18T07:59:30.999Z</time></trkpt><trkpt lat="47.8110204880069" lon="12.088323188158334"><ele>468.0</ele><time>2026-04-18T07:59:31.999Z</time></trkpt><trkpt lat="47.810969473835925" lon="12.088666161253178"><ele>468.0</ele><time>2026-04-18T07:59:32.999Z</time></trkpt><trkpt lat="47.81091590922908" lon="12.089016200202538"><ele>468.0</ele><time>2026-04-18T07:59:33.999Z</time></trkpt><trkpt lat="47.81086342186832" lon="12.089374268972522"><ele>468.0</ele><time>2026-04-18T07:59:34.999Z</time></trkpt><trkpt lat="47.810812778555864" lon="12.089724368180958"><ele>468.0</ele><time>2026-04-18T07:59:35.999Z</time></trkpt><trkpt lat="47.81076393595324" lon="12.090059694796988"><ele>468.5</ele><time>2026-04-18T07:59:36.999Z</time></trkpt><trkpt lat="47.81071554577362" lon="12.090391572014564"><ele>469.0</ele><time>2026-04-18T07:59:37.999Z</time></trkpt><trkpt lat="47.81066842583938" lon="12.09072732829578"><ele>468.0</ele><time>2026-04-18T07:59:38.999Z</time></trkpt><trkpt lat="47.8106185226683" lon="12.091065255450529"><ele>467.0</ele><time>2026-04-18T07:59:39.999Z</time></trkpt><trkpt lat="47.810566465629385" lon="12.09139514749932"><ele>467.0</ele><time>2026-04-18T07:59:40.999Z</time></trkpt><trkpt lat="47.81051568668911" lon="12.091705593742361"><ele>467.0</ele><time>2026-04-18T07:59:41.999Z</time></trkpt><trkpt lat="47.81045760886136" lon="12.092005718961273"><ele>467.0</ele><time>2026-04-18T07:59:42.999Z</time></trkpt><trkpt lat="47.810390273536726" lon="12.092302398011286"><ele>466.66666666666663</ele><time>2026-04-18T07:59:43.999Z</time></trkpt><trkpt lat="47.81031507982965" lon="12.092591928506266"><ele>466.33333333333337</ele><time>2026-04-18T07:59:44.999Z</time></trkpt><trkpt lat="47.810234062479196" lon="12.092878739993502"><ele>466.0</ele><time>2026-04-18T07:59:45.999Z</time></trkpt><trkpt lat="47.81014538178699" lon="12.093150222585338"><ele>466.6666666666667</ele><time>2026-04-18T07:59:46.999Z</time></trkpt><trkpt lat="47.81005123010751" lon="12.0934038056852"><ele>467.33333333333337</ele><time>2026-04-18T07:59:48Z</time></trkpt><trkpt lat="47.80994751739421" lon="12.093627967655332"><ele>468.0</ele><time>2026-04-18T07:59:49Z</time></trkpt><trkpt lat="47.80983883731756" lon="12.093824313740374"><ele>468.0</ele><time>2026-04-18T07:59:50Z</time></trkpt><trkpt lat="47.80972890619112" lon="12.09399231253956"><ele>468.0</ele><time>2026-04-18T07:59:51Z</time></trkpt><trkpt lat="47.80961248332179" lon="12.094149388775318"><ele>468.0</ele><time>2026-04-18T07:59:52Z</time></trkpt><trkpt lat="47.80948605192248" lon="12.094302052679094"><ele>468.0</ele><time>2026-04-18T07:59:53Z</time></trkpt><trkpt lat="47.80935191417651" lon="12.094446924444618"><ele>468.0</ele><time>2026-04-18T07:59:54Z</time></trkpt><trkpt lat="47.809214025257475" lon="12.094568432399765"><ele>468.0</ele><time>2026-04-18T07:59:55Z</time></trkpt><trkpt lat="47.8090674406822" lon="12.094671997371488"><ele>468.0</ele><time>2026-04-18T07:59:56Z</time></trkpt><trkpt lat="47.808913274778504" lon="12.094767721410296"><ele>468.0</ele><time>2026-04-18T07:59:57Z</time></trkpt><trkpt lat="47.808738728774266" lon="12.094852179102556"><ele>468.0</ele><time>2026-04-18T07:59:58Z</time></trkpt><trkpt lat="47.80855072678055" lon="12.094929275644494"><ele>467.66666666666663</ele><time>2026-04-18T07:59:59Z</time></trkpt><trkpt lat="47.80833296738861" lon="12.094976530257451"><ele>467.3333333333333</ele><time>2026-04-18T08:00:00Z</time></trkpt><trkpt lat="47.8081092494347" lon="12.094991731687237"><ele>467.0</ele><time>2026-04-18T08:00:01Z</time></trkpt><trkpt lat="47.80789048405237" lon="12.094981750359535"><ele>467.0</ele><time>2026-04-18T08:00:02Z</time></trkpt><trkpt lat="47.80767539501635" lon="12.094934603290495"><ele>467.0</ele><time>2026-04-18T08:00:03Z</time></trkpt><trkpt lat="47.80747811076538" lon="12.094865939901693"><ele>467.0</ele><time>2026-04-18T08:00:04Z</time></trkpt><trkpt lat="47.80729427862043" lon="12.094785548118475"><ele>467.0</ele><time>2026-04-18T08:00:05Z</time></trkpt><trkpt lat="47.80711298345553" lon="12.094692955978458"><ele>467.0</ele><time>2026-04-18T08:00:06Z</time></trkpt><trkpt lat="47.80693354098964" lon="12.09458729486151"><ele>467.0</ele><time>2026-04-18T08:00:07Z</time></trkpt><trkpt lat="47.806752637005694" lon="12.09446208326052"><ele>466.3333333333333</ele><time>2026-04-18T08:00:08Z</time></trkpt><trkpt lat="47.806572648856765" lon="12.094319284605673"><ele>465.66666666666663</ele><time>2026-04-18T08:00:09Z</time></trkpt><trkpt lat="47.80639356799972" lon="12.094157149995702"><ele>465.0</ele><time>2026-04-18T08:00:10Z</time></trkpt><trkpt lat="47.80621486077976" lon="12.093975620322631"><ele>465.0</ele><time>2026-04-18T08:00:11Z</time></trkpt><trkpt lat="47.806041899999265" lon="12.093796270360786"><ele>465.0</ele><time>2026-04-18T08:00:12Z</time></trkpt><trkpt lat="47.80587001552822" lon="12.093632188636372"><ele>465.0</ele><time>2026-04-18T08:00:13Z</time></trkpt><trkpt lat="47.80568428633199" lon="12.093464054572234"><ele>465.0</ele><time>2026-04-18T08:00:14Z</time></trkpt><trkpt lat="47.80549142848178" lon="12.09328013430456"><ele>465.0</ele><time>2026-04-18T08:00:15Z</time></trkpt><trkpt lat="47.80529197182866" lon="12.093088205458903"><ele>465.5</ele><time>2026-04-18T08:00:16Z</time></trkpt><trkpt lat="47.80508624321716" lon="12.0928991117541"><ele>466.0</ele><time>2026-04-18T08:00:17Z</time></trkpt><trkpt lat="47.80488355611026" lon="12.092716553931627"><ele>466.0</ele><time>2026-04-18T08:00:18Z</time></trkpt><trkpt lat="47.80467802436396" lon="12.092534957149422"><ele>466.0</ele><time>2026-04-18T08:00:19Z</time></trkpt><trkpt lat="47.80447404115902" lon="12.092361509621805"><ele>465.0</ele><time>2026-04-18T08:00:20Z</time></trkpt><trkpt lat="47.80427909912535" lon="12.092198249926147"><ele>464.0</ele><time>2026-04-18T08:00:21Z</time></trkpt><trkpt lat="47.80408909990571" lon="12.092048228665254"><ele>463.0</ele><time>2026-04-18T08:00:22Z</time></trkpt><trkpt lat="47.80390440544451" lon="12.09190861435403"><ele>463.0</ele><time>2026-04-18T08:00:23Z</time></trkpt><trkpt lat="47.803719688134095" lon="12.091773791433777"><ele>463.0</ele><time>2026-04-18T08:00:24Z</time></trkpt><trkpt lat="47.80353742367985" lon="12.091644137225355"><ele>463.0</ele><time>2026-04-18T08:00:25Z</time></trkpt><trkpt lat="47.80336234020476" lon="12.091520668972482"><ele>463.6666666666667</ele><time>2026-04-18T08:00:26Z</time></trkpt><trkpt lat="47.80318714968343" lon="12.091402621472053"><ele>464.33333333333337</ele><time>2026-04-18T08:00:27Z</time></trkpt><trkpt lat="47.80300832279431" lon="12.091291329666682"><ele>465.0</ele><time>2026-04-18T08:00:28Z</time></trkpt><trkpt lat="47.80282914731358" lon="12.091183475549448"><ele>464.66666666666663</ele><time>2026-04-18T08:00:29Z</time></trkpt><trkpt lat="47.802642662784365" lon="12.091077842843745"><ele>464.3333333333333</ele><time>2026-04-18T08:00:30Z</time></trkpt><trkpt lat="47.802452522059674" lon="12.090973929749367"><ele>464.0</ele><time>2026-04-18T08:00:31Z</time></trkpt><trkpt lat="47.80225788148328" lon="12.090868943476222"><ele>464.0</ele><time>2026-04-18T08:00:32Z</time></trkpt><trkpt lat="47.80205462483831" lon="12.090768268703531"><ele>464.0</ele><time>2026-04-18T08:00:33Z</time></trkpt><trkpt lat="47.80184169406361" lon="12.090676146279351"><ele>464.0</ele><time>2026-04-18T08:00:34Z</time></trkpt><trkpt lat="47.80162655986662" lon="12.090585886549832"><ele>463.0</ele><time>2026-04-18T08:00:35Z</time></trkpt><trkpt lat="47.80139778722384" lon="12.090489534689842"><ele>462.0</ele><time>2026-04-18T08:00:36Z</time></trkpt><trkpt lat="47.80115388516665" lon="12.09039652422316"><ele>462.5</ele><time>2026-04-18T08:00:37Z</time></trkpt><trkpt lat="47.800899013267966" lon="12.090304000439625"><ele>463.0</ele><time>2026-04-18T08:00:38Z</time></trkpt><trkpt lat="47.80065512591678" lon="12.090219405148902"><ele>463.0</ele><time>2026-04-18T08:00:39Z</time></trkpt><trkpt lat="47.800424756716204" lon="12.090147541516586"><ele>463.0</ele><time>2026-04-18T08:00:40Z</time></trkpt><trkpt lat="47.8001948797649" lon="12.090086281656315"><ele>465.0</ele><time>2026-04-18T08:00:41Z</time></trkpt><trkpt lat="47.799957414838" lon="12.090032169525642"><ele>467.0</ele><time>2026-04-18T08:00:42Z</time></trkpt><trkpt lat="47.79970910996634" lon="12.08997746682386"><ele>467.0</ele><time>2026-04-18T08:00:43Z</time></trkpt><trkpt lat="47.799456170121076" lon="12.08992710681125"><ele>467.0</ele><time>2026-04-18T08:00:44Z</time></trkpt><trkpt lat="47.7992083883173" lon="12.089887842712336"><ele>465.5</ele><time>2026-04-18T08:00:45Z</time></trkpt><trkpt lat="47.79896549720541" lon="12.08985671099866"><ele>464.0</ele><time>2026-04-18T08:00:46Z</time></trkpt><trkpt lat="47.798725884567986" lon="12.089826169544054"><ele>467.5</ele><time>2026-04-18T08:00:47Z</time></trkpt><trkpt lat="47.798486499812164" lon="12.089793707566399"><ele>471.0</ele><time>2026-04-18T08:00:48Z</time></trkpt><trkpt lat="47.79824101165005" lon="12.089767116325094"><ele>471.0</ele><time>2026-04-18T08:00:49Z</time></trkpt><trkpt lat="47.797987001856896" lon="12.08975436230017"><ele>471.0</ele><time>2026-04-18T08:00:50Z</time></trkpt><trkpt lat="47.79771531067384" lon="12.08975003593496"><ele>471.5</ele><time>2026-04-18T08:00:51Z</time></trkpt><trkpt lat="47.7974484303675" lon="12.089752582350801"><ele>472.0</ele><time>2026-04-18T08:00:52Z</time></trkpt><trkpt lat="47.797184573675814" lon="12.089760470639533"><ele>472.0</ele><time>2026-04-18T08:00:53Z</time></trkpt><trkpt lat="47.79691044988791" lon="12.089774562966877"><ele>472.0</ele><time>2026-04-18T08:00:54Z</time></trkpt><trkpt lat="47.796640832295395" lon="12.089787447120093"><ele>473.5</ele><time>2026-04-18T08:00:55Z</time></trkpt><trkpt lat="47.79638076916781" lon="12.089802698520854"><ele>475.0</ele><time>2026-04-18T08:00:56Z</time></trkpt><trkpt lat="47.79612387785604" lon="12.089826785038404"><ele>473.0</ele><time>2026-04-18T08:00:57Z</time></trkpt><trkpt lat="47.79588324330609" lon="12.08984606569756"><ele>471.0</ele><time>2026-04-18T08:00:58Z</time></trkpt><trkpt lat="47.79564614624326" lon="12.089858572165411"><ele>471.0</ele><time>2026-04-18T08:00:59Z</time></trkpt><trkpt lat="47.79540479712291" lon="12.089878156957193"><ele>471.0</ele><time>2026-04-18T08:01:00Z</time></trkpt><trkpt lat="47.795165529894085" lon="12.089894830904676"><ele>472.5</ele><time>2026-04-18T08:01:01Z</time></trkpt><trkpt lat="47.79492871698731" lon="12.089910795246174"><ele>474.0</ele><time>2026-04-18T08:01:02Z</time></trkpt><trkpt lat="47.794693422650525" lon="12.089932223848193"><ele>470.5</ele><time>2026-04-18T08:01:03Z</time></trkpt><trkpt lat="47.794455390597555" lon="12.089951687561888"><ele>467.0</ele><time>2026-04-18T08:01:04Z</time></trkpt><trkpt lat="47.794210757528994" lon="12.089973979534424"><ele>467.0</ele><time>2026-04-18T08:01:05Z</time></trkpt><trkpt lat="47.7939603147242" lon="12.08999763078743"><ele>467.0</ele><time>2026-04-18T08:01:06Z</time></trkpt><trkpt lat="47.79370756161051" lon="12.090015012878528"><ele>466.0</ele><time>2026-04-18T08:01:07Z</time></trkpt><trkpt lat="47.793453675963214" lon="12.090020173314153"><ele>465.0</ele><time>2026-04-18T08:01:08Z</time></trkpt><trkpt lat="47.793183709384266" lon="12.090028972936752"><ele>465.0</ele><time>2026-04-18T08:01:09Z</time></trkpt><trkpt lat="47.7929095312125" lon="12.090050032160415"><ele>465.0</ele><time>2026-04-18T08:01:10Z</time></trkpt><trkpt lat="47.7926249790766" lon="12.090073574099673"><ele>466.5</ele><time>2026-04-18T08:01:11Z</time></trkpt><trkpt lat="47.79232726867406" lon="12.09009611369565"><ele>468.0</ele><time>2026-04-18T08:01:12Z</time></trkpt><trkpt lat="47.79204318587592" lon="12.090119086941248"><ele>469.0</ele><time>2026-04-18T08:01:13Z</time></trkpt><trkpt lat="47.79176951701179" lon="12.090140409722387"><ele>470.0</ele><time>2026-04-18T08:01:14Z</time></trkpt><trkpt lat="47.79150715960796" lon="12.090165433689828"><ele>470.0</ele><time>2026-04-18T08:01:15Z</time></trkpt><trkpt lat="47.79124953987561" lon="12.090192855787935"><ele>470.0</ele><time>2026-04-18T08:01:16Z</time></trkpt><trkpt lat="47.79099006132956" lon="12.0902224725437"><ele>471.0</ele><time>2026-04-18T08:01:17Z</time></trkpt><trkpt lat="47.79072630556061" lon="12.09025990198698"><ele>472.0</ele><time>2026-04-18T08:01:18Z</time></trkpt><trkpt lat="47.79045484814997" lon="12.090297480487306"><ele>471.5</ele><time>2026-04-18T08:01:19Z</time></trkpt><trkpt lat="47.790166589765434" lon="12.090334732223624"><ele>471.0</ele><time>2026-04-18T08:01:20Z</time></trkpt><trkpt lat="47.78988086518426" lon="12.090373245866246"><ele>471.0</ele><time>2026-04-18T08:01:21Z</time></trkpt><trkpt lat="47.789602829221394" lon="12.090410702300387"><ele>471.0</ele><time>2026-04-18T08:01:22Z</time></trkpt><trkpt lat="47.78932826158161" lon="12.090448956193"><ele>472.0</ele><time>2026-04-18T08:01:23Z</time></trkpt><trkpt lat="47.789058265301136" lon="12.090490595336295"><ele>473.0</ele><time>2026-04-18T08:01:23.999Z</time></trkpt><trkpt lat="47.788794865196" lon="12.090532387291947"><ele>473.0</ele><time>2026-04-18T08:01:24.999Z</time></trkpt><trkpt lat="47.78854993214806" lon="12.090573608025908"><ele>473.0</ele><time>2026-04-18T08:01:25.999Z</time></trkpt><trkpt lat="47.788310078991195" lon="12.090616690222609"><ele>472.0</ele><time>2026-04-18T08:01:26.999Z</time></trkpt><trkpt lat="47.78806467227537" lon="12.09066045616658"><ele>471.0</ele><time>2026-04-18T08:01:27.999Z</time></trkpt><trkpt lat="47.787815091171844" lon="12.090705285429122"><ele>470.5</ele><time>2026-04-18T08:01:28.999Z</time></trkpt><trkpt lat="47.78756393530722" lon="12.090751696370724"><ele>470.0</ele><time>2026-04-18T08:01:29.999Z</time></trkpt><trkpt lat="47.787311378751774" lon="12.09079578131256"><ele>470.0</ele><time>2026-04-18T08:01:30.999Z</time></trkpt><trkpt lat="47.78705697926568" lon="12.090846995137738"><ele>470.0</ele><time>2026-04-18T08:01:31.999Z</time></trkpt><trkpt lat="47.78680048662056" lon="12.090903137080334"><ele>470.0</ele><time>2026-04-18T08:01:32.999Z</time></trkpt><trkpt lat="47.78654187427845" lon="12.09095932031923"><ele>470.0</ele><time>2026-04-18T08:01:33.999Z</time></trkpt><trkpt lat="47.78628266645739" lon="12.091017061605115"><ele>470.0</ele><time>2026-04-18T08:01:34.999Z</time></trkpt><trkpt lat="47.78602776925003" lon="12.091077115967789"><ele>470.0</ele><time>2026-04-18T08:01:35.999Z</time></trkpt><trkpt lat="47.785775826439476" lon="12.091136812273962"><ele>469.5</ele><time>2026-04-18T08:01:36.999Z</time></trkpt><trkpt lat="47.78552557521343" lon="12.091199047374618"><ele>469.0</ele><time>2026-04-18T08:01:37.999Z</time></trkpt><trkpt lat="47.785277861064294" lon="12.091262071475002"><ele>469.5</ele><time>2026-04-18T08:01:38.999Z</time></trkpt><trkpt lat="47.78503777194002" lon="12.091323870391452"><ele>470.0</ele><time>2026-04-18T08:01:39.999Z</time></trkpt><trkpt lat="47.78480286775923" lon="12.091383076694628"><ele>470.0</ele><time>2026-04-18T08:01:40.999Z</time></trkpt><trkpt lat="47.78456800403683" lon="12.09144530429834"><ele>470.0</ele><time>2026-04-18T08:01:41.999Z</time></trkpt><trkpt lat="47.78433426788684" lon="12.091513397458508"><ele>470.5</ele><time>2026-04-18T08:01:42.999Z</time></trkpt><trkpt lat="47.78410030900029" lon="12.091581558424055"><ele>471.0</ele><time>2026-04-18T08:01:43.999Z</time></trkpt><trkpt lat="47.78386689304475" lon="12.091647655569743"><ele>470.0</ele><time>2026-04-18T08:01:44.999Z</time></trkpt><trkpt lat="47.78363242350421" lon="12.091714498783439"><ele>469.0</ele><time>2026-04-18T08:01:45.999Z</time></trkpt><trkpt lat="47.78339738912463" lon="12.091781652842206"><ele>469.0</ele><time>2026-04-18T08:01:46.999Z</time></trkpt><trkpt lat="47.783162488011065" lon="12.091854084505224"><ele>469.0</ele><time>2026-04-18T08:01:47.999Z</time></trkpt><trkpt lat="47.78292864239453" lon="12.091927356066334"><ele>469.0</ele><time>2026-04-18T08:01:48.999Z</time></trkpt><trkpt lat="47.78268680249845" lon="12.092004766056077"><ele>469.0</ele><time>2026-04-18T08:01:49.999Z</time></trkpt><trkpt lat="47.78243368850249" lon="12.092086990104551"><ele>469.0</ele><time>2026-04-18T08:01:50.999Z</time></trkpt><trkpt lat="47.78217286719321" lon="12.09217413777415"><ele>469.0</ele><time>2026-04-18T08:01:51.999Z</time></trkpt><trkpt lat="47.78190068636973" lon="12.092271598185956"><ele>470.0</ele><time>2026-04-18T08:01:52.999Z</time></trkpt><trkpt lat="47.78163580772891" lon="12.092368543099218"><ele>471.0</ele><time>2026-04-18T08:01:54Z</time></trkpt><trkpt lat="47.781377942878564" lon="12.09245963874101"><ele>471.0</ele><time>2026-04-18T08:01:55Z</time></trkpt><trkpt lat="47.78110556571462" lon="12.092557901308268"><ele>471.0</ele><time>2026-04-18T08:01:56Z</time></trkpt><trkpt lat="47.780851791765485" lon="12.092649027380595"><ele>472.0</ele><time>2026-04-18T08:01:57Z</time></trkpt><trkpt lat="47.78060814708279" lon="12.09273959165858"><ele>473.0</ele><time>2026-04-18T08:01:58Z</time></trkpt><trkpt lat="47.78038252256664" lon="12.092825748614493"><ele>472.66666666666663</ele><time>2026-04-18T08:01:59Z</time></trkpt><trkpt lat="47.7801669030532" lon="12.092908055774183"><ele>472.33333333333337</ele><time>2026-04-18T08:02:00Z</time></trkpt><trkpt lat="47.7799508082384" lon="12.09299059442912"><ele>472.0</ele><time>2026-04-18T08:02:01Z</time></trkpt><trkpt lat="47.77973157673561" lon="12.093078931959523"><ele>472.0</ele><time>2026-04-18T08:02:02Z</time></trkpt><trkpt lat="47.77951008507242" lon="12.093171670251335"><ele>472.0</ele><time>2026-04-18T08:02:03Z</time></trkpt><trkpt lat="47.779287827499594" lon="12.093264336123951"><ele>471.5</ele><time>2026-04-18T08:02:04Z</time></trkpt><trkpt lat="47.77906790193427" lon="12.09335596779059"><ele>471.0</ele><time>2026-04-18T08:02:05Z</time></trkpt><trkpt lat="47.77884986880432" lon="12.09344715714802"><ele>471.0</ele><time>2026-04-18T08:02:06Z</time></trkpt><trkpt lat="47.77863467046317" lon="12.09353968091046"><ele>471.0</ele><time>2026-04-18T08:02:07Z</time></trkpt><trkpt lat="47.77842452823672" lon="12.093633852493998"><ele>471.0</ele><time>2026-04-18T08:02:08Z</time></trkpt><trkpt lat="47.778216815530385" lon="12.093727427122655"><ele>471.0</ele><time>2026-04-18T08:02:09Z</time></trkpt><trkpt lat="47.77800631154137" lon="12.093823373032937"><ele>471.0</ele><time>2026-04-18T08:02:10Z</time></trkpt><trkpt lat="47.77778844119271" lon="12.093924287775236"><ele>471.0</ele><time>2026-04-18T08:02:11Z</time></trkpt><trkpt lat="47.77756066807808" lon="12.094027542971507"><ele>470.33333333333337</ele><time>2026-04-18T08:02:12Z</time></trkpt><trkpt lat="47.77734354647168" lon="12.094127459285929"><ele>469.6666666666667</ele><time>2026-04-18T08:02:13Z</time></trkpt><trkpt lat="47.777143300566514" lon="12.094222310467739"><ele>469.0</ele><time>2026-04-18T08:02:14Z</time></trkpt><trkpt lat="47.77695220184265" lon="12.094314877574059"><ele>467.6666666666667</ele><time>2026-04-18T08:02:15Z</time></trkpt><trkpt lat="47.77677050081594" lon="12.094402602525141"><ele>466.33333333333337</ele><time>2026-04-18T08:02:16Z</time></trkpt><trkpt lat="47.77659105748742" lon="12.094490353413804"><ele>465.0</ele><time>2026-04-18T08:02:17Z</time></trkpt><trkpt lat="47.77640891769335" lon="12.094580667651774"><ele>465.0</ele><time>2026-04-18T08:02:18Z</time></trkpt><trkpt lat="47.77621962048538" lon="12.094674874079198"><ele>465.0</ele><time>2026-04-18T08:02:19Z</time></trkpt><trkpt lat="47.77602983349341" lon="12.094771060494047"><ele>465.0</ele><time>2026-04-18T08:02:20Z</time></trkpt><trkpt lat="47.77585115666292" lon="12.094861154250882"><ele>464.0</ele><time>2026-04-18T08:02:21Z</time></trkpt><trkpt lat="47.77568481066873" lon="12.094945947806812"><ele>463.0</ele><time>2026-04-18T08:02:22Z</time></trkpt><trkpt lat="47.77552083096268" lon="12.095033141777892"><ele>462.0</ele><time>2026-04-18T08:02:23Z</time></trkpt><trkpt lat="47.775367998483105" lon="12.095115393451179"><ele>462.0</ele><time>2026-04-18T08:02:24Z</time></trkpt><trkpt lat="47.77522094471222" lon="12.095192765857455"><ele>462.0</ele><time>2026-04-18T08:02:25Z</time></trkpt><trkpt lat="47.77507292245802" lon="12.095272279452596"><ele>462.0</ele><time>2026-04-18T08:02:26Z</time></trkpt><trkpt lat="47.774921756707194" lon="12.095355108151345"><ele>462.66666666666663</ele><time>2026-04-18T08:02:27Z</time></trkpt><trkpt lat="47.774764747656114" lon="12.095441660969554"><ele>463.3333333333333</ele><time>2026-04-18T08:02:28Z</time></trkpt><trkpt lat="47.774614457093676" lon="12.095524609373088"><ele>464.0</ele><time>2026-04-18T08:02:29Z</time></trkpt><trkpt lat="47.77447083212669" lon="12.095605798393597"><ele>463.66666666666663</ele><time>2026-04-18T08:02:30Z</time></trkpt><trkpt lat="47.774327625981904" lon="12.095683825214868"><ele>463.33333333333337</ele><time>2026-04-18T08:02:31Z</time></trkpt><trkpt lat="47.77417994838561" lon="12.095764356135547"><ele>463.0</ele><time>2026-04-18T08:02:32Z</time></trkpt><trkpt lat="47.7740276357847" lon="12.09585009528278"><ele>463.0</ele><time>2026-04-18T08:02:33Z</time></trkpt><trkpt lat="47.77387662536309" lon="12.095934754645857"><ele>463.0</ele><time>2026-04-18T08:02:34Z</time></trkpt><trkpt lat="47.77372797283592" lon="12.096023050581673"><ele>463.0</ele><time>2026-04-18T08:02:35Z</time></trkpt><trkpt lat="47.77358215754812" lon="12.096107571358944"><ele>463.6666666666667</ele><time>2026-04-18T08:02:36Z</time></trkpt><trkpt lat="47.773437516090105" lon="12.096190674913204"><ele>464.33333333333337</ele><time>2026-04-18T08:02:37Z</time></trkpt><trkpt lat="47.77329416413273" lon="12.09627171268243"><ele>465.0</ele><time>2026-04-18T08:02:38Z</time></trkpt><trkpt lat="47.773152214661295" lon="12.096356008837132"><ele>465.0</ele><time>2026-04-18T08:02:39Z</time></trkpt><trkpt lat="47.7730091850905" lon="12.096444203450206"><ele>465.0</ele><time>2026-04-18T08:02:40Z</time></trkpt><trkpt lat="47.772863741629635" lon="12.09653088928416"><ele>465.0</ele><time>2026-04-18T08:02:41Z</time></trkpt><trkpt lat="47.77271786878826" lon="12.096617496178965"><ele>464.0</ele><time>2026-04-18T08:02:42Z</time></trkpt><trkpt lat="47.772569509127685" lon="12.096709132259498"><ele>463.0</ele><time>2026-04-18T08:02:43Z</time></trkpt><trkpt lat="47.7724238482362" lon="12.09679920718506"><ele>462.0</ele><time>2026-04-18T08:02:44Z</time></trkpt><trkpt lat="47.772281998456016" lon="12.096887872887466"><ele>462.0</ele><time>2026-04-18T08:02:45Z</time></trkpt><trkpt lat="47.77214216346678" lon="12.096975448904901"><ele>462.0</ele><time>2026-04-18T08:02:46Z</time></trkpt><trkpt lat="47.772004192451426" lon="12.097062646113162"><ele>462.0</ele><time>2026-04-18T08:02:47Z</time></trkpt><trkpt lat="47.77186612006179" lon="12.09714988378915"><ele>462.25</ele><time>2026-04-18T08:02:48Z</time></trkpt><trkpt lat="47.771729383255355" lon="12.097239885325186"><ele>462.5</ele><time>2026-04-18T08:02:49Z</time></trkpt><trkpt lat="47.7715935556867" lon="12.097329156334043"><ele>462.75</ele><time>2026-04-18T08:02:50Z</time></trkpt><trkpt lat="47.771459158726984" lon="12.097417911763387"><ele>463.0</ele><time>2026-04-18T08:02:51Z</time></trkpt><trkpt lat="47.77132440005661" lon="12.09750455361122"><ele>463.0</ele><time>2026-04-18T08:02:52Z</time></trkpt><trkpt lat="47.77119161452376" lon="12.09759439057067"><ele>463.0</ele><time>2026-04-18T08:02:53Z</time></trkpt><trkpt lat="47.77106093406394" lon="12.097682779813882"><ele>463.0</ele><time>2026-04-18T08:02:54Z</time></trkpt><trkpt lat="47.77093080445618" lon="12.09776758499666"><ele>463.0</ele><time>2026-04-18T08:02:55Z</time></trkpt><trkpt lat="47.7708011420576" lon="12.09785171400554"><ele>463.0</ele><time>2026-04-18T08:02:56Z</time></trkpt><trkpt lat="47.77067183485904" lon="12.097936428025253"><ele>463.0</ele><time>2026-04-18T08:02:57Z</time></trkpt><trkpt lat="47.770542445768335" lon="12.098022496392415"><ele>463.0</ele><time>2026-04-18T08:02:58Z</time></trkpt><trkpt lat="47.77041830803386" lon="12.098105198790151"><ele>463.0</ele><time>2026-04-18T08:02:59Z</time></trkpt><trkpt lat="47.77029736637186" lon="12.098188832945953"><ele>463.75</ele><time>2026-04-18T08:03:00Z</time></trkpt><trkpt lat="47.770175264750094" lon="12.098275837747996"><ele>464.5</ele><time>2026-04-18T08:03:01Z</time></trkpt><trkpt lat="47.77005130093666" lon="12.098364270619932"><ele>465.25</ele><time>2026-04-18T08:03:02Z</time></trkpt><trkpt lat="47.76992600563175" lon="12.098454259371575"><ele>466.0</ele><time>2026-04-18T08:03:03Z</time></trkpt><trkpt lat="47.76979883079841" lon="12.098544432862951"><ele>466.0</ele><time>2026-04-18T08:03:04Z</time></trkpt><trkpt lat="47.769670837303195" lon="12.098634725938934"><ele>466.0</ele><time>2026-04-18T08:03:05Z</time></trkpt><trkpt lat="47.769543184871935" lon="12.098726289183388"><ele>466.0</ele><time>2026-04-18T08:03:06Z</time></trkpt><trkpt lat="47.76941471561635" lon="12.09881932395277"><ele>466.0</ele><time>2026-04-18T08:03:07Z</time></trkpt><trkpt lat="47.769285489799266" lon="12.098913909918556"><ele>467.5</ele><time>2026-04-18T08:03:08Z</time></trkpt><trkpt lat="47.76915573335731" lon="12.09900933059358"><ele>469.0</ele><time>2026-04-18T08:03:09Z</time></trkpt><trkpt lat="47.76902703696687" lon="12.099102538135119"><ele>470.5</ele><time>2026-04-18T08:03:10Z</time></trkpt><trkpt lat="47.76889943726159" lon="12.099194177173612"><ele>472.0</ele><time>2026-04-18T08:03:11Z</time></trkpt><trkpt lat="47.76877381321876" lon="12.099286501312209"><ele>472.0</ele><time>2026-04-18T08:03:12Z</time></trkpt><trkpt lat="47.76864897740119" lon="12.099381956641555"><ele>472.0</ele><time>2026-04-18T08:03:13Z</time></trkpt><trkpt lat="47.76852183046207" lon="12.099481708860191"><ele>472.0</ele><time>2026-04-18T08:03:14Z</time></trkpt><trkpt lat="47.76839280340485" lon="12.099581397863254"><ele>472.0</ele><time>2026-04-18T08:03:15Z</time></trkpt><trkpt lat="47.768264196450524" lon="12.099677922097483"><ele>472.5</ele><time>2026-04-18T08:03:16Z</time></trkpt><trkpt lat="47.76813830495393" lon="12.09977388305437"><ele>473.0</ele><time>2026-04-18T08:03:17Z</time></trkpt><trkpt lat="47.76801531242287" lon="12.099870674976401"><ele>473.5</ele><time>2026-04-18T08:03:18Z</time></trkpt><trkpt lat="47.76789226633964" lon="12.099966412701251"><ele>474.0</ele><time>2026-04-18T08:03:19Z</time></trkpt><trkpt lat="47.767767699459284" lon="12.100059385781917"><ele>473.75</ele><time>2026-04-18T08:03:20Z</time></trkpt><trkpt lat="47.76763981187791" lon="12.100156003520478"><ele>473.5</ele><time>2026-04-18T08:03:21Z</time></trkpt><trkpt lat="47.76750989557863" lon="12.100256948658503"><ele>473.25</ele><time>2026-04-18T08:03:22Z</time></trkpt><trkpt lat="47.767377350861686" lon="12.100362201083133"><ele>473.0</ele><time>2026-04-18T08:03:23Z</time></trkpt><trkpt lat="47.76724094961388" lon="12.100462919596128"><ele>473.0</ele><time>2026-04-18T08:03:24Z</time></trkpt><trkpt lat="47.767102717471964" lon="12.10056467360358"><ele>473.0</ele><time>2026-04-18T08:03:25Z</time></trkpt><trkpt lat="47.76696402543444" lon="12.100662583869791"><ele>473.0</ele><time>2026-04-18T08:03:26Z</time></trkpt><trkpt lat="47.7668333488783" lon="12.100755554092979"><ele>473.5</ele><time>2026-04-18T08:03:27Z</time></trkpt><trkpt lat="47.766707035505135" lon="12.100845435282006"><ele>474.0</ele><time>2026-04-18T08:03:28Z</time></trkpt><trkpt lat="47.766585423899215" lon="12.10093170655367"><ele>474.5</ele><time>2026-04-18T08:03:29Z</time></trkpt><trkpt lat="47.76646704290343" lon="12.101021031957218"><ele>475.0</ele><time>2026-04-18T08:03:30Z</time></trkpt><trkpt lat="47.766350569255444" lon="12.101117558114785"><ele>475.0</ele><time>2026-04-18T08:03:31Z</time></trkpt><trkpt lat="47.766232013758454" lon="12.101217379882959"><ele>475.0</ele><time>2026-04-18T08:03:32Z</time></trkpt><trkpt lat="47.76610917019988" lon="12.101319803358189"><ele>475.0</ele><time>2026-04-18T08:03:32.999Z</time></trkpt><trkpt lat="47.76598663631716" lon="12.101424910630055"><ele>475.0</ele><time>2026-04-18T08:03:33.999Z</time></trkpt><trkpt lat="47.76586663425931" lon="12.101522480973093"><ele>474.0</ele><time>2026-04-18T08:03:34.999Z</time></trkpt><trkpt lat="47.76574757080189" lon="12.101622815800456"><ele>473.0</ele><time>2026-04-18T08:03:35.999Z</time></trkpt><trkpt lat="47.76563004157746" lon="12.101725947850648"><ele>472.0</ele><time>2026-04-18T08:03:36.999Z</time></trkpt><trkpt lat="47.76551187139123" lon="12.101828894969294"><ele>471.0</ele><time>2026-04-18T08:03:37.999Z</time></trkpt><trkpt lat="47.76539390328907" lon="12.101931218986724"><ele>471.0</ele><time>2026-04-18T08:03:38.999Z</time></trkpt><trkpt lat="47.76527633593705" lon="12.102036993171442"><ele>471.0</ele><time>2026-04-18T08:03:39.999Z</time></trkpt><trkpt lat="47.76515795414482" lon="12.102142055838238"><ele>471.0</ele><time>2026-04-18T08:03:40.999Z</time></trkpt><trkpt lat="47.76504333779388" lon="12.102247557780714"><ele>471.0</ele><time>2026-04-18T08:03:41.999Z</time></trkpt><trkpt lat="47.764930271875826" lon="12.102342361741062"><ele>470.0</ele><time>2026-04-18T08:03:42.999Z</time></trkpt><trkpt lat="47.76481493063164" lon="12.10244460865358"><ele>469.0</ele><time>2026-04-18T08:03:43.999Z</time></trkpt><trkpt lat="47.7646992622153" lon="12.102549423461712"><ele>468.0</ele><time>2026-04-18T08:03:44.999Z</time></trkpt><trkpt lat="47.76458123283452" lon="12.102653805985947"><ele>467.0</ele><time>2026-04-18T08:03:45.999Z</time></trkpt><trkpt lat="47.764462375816635" lon="12.10276100906902"><ele>465.66666666666663</ele><time>2026-04-18T08:03:46.999Z</time></trkpt><trkpt lat="47.76433525885857" lon="12.102881473190488"><ele>464.33333333333337</ele><time>2026-04-18T08:03:47.999Z</time></trkpt><trkpt lat="47.76420832757454" lon="12.103000648509784"><ele>463.0</ele><time>2026-04-18T08:03:48.999Z</time></trkpt><trkpt lat="47.76405293547727" lon="12.103145331849689"><ele>463.25</ele><time>2026-04-18T08:03:49.999Z</time></trkpt><trkpt lat="47.76392376305249" lon="12.103267234318242"><ele>463.5</ele><time>2026-04-18T08:03:50.999Z</time></trkpt><trkpt lat="47.76380112562929" lon="12.103381956251631"><ele>463.75</ele><time>2026-04-18T08:03:51.999Z</time></trkpt><trkpt lat="47.763683894085815" lon="12.103491703590699"><ele>464.0</ele><time>2026-04-18T08:03:52.999Z</time></trkpt><trkpt lat="47.76356947822482" lon="12.103599861723602"><ele>463.75</ele><time>2026-04-18T08:03:53.999Z</time></trkpt><trkpt lat="47.76345504767196" lon="12.103709260821583"><ele>463.5</ele><time>2026-04-18T08:03:54.999Z</time></trkpt><trkpt lat="47.76333674772414" lon="12.103824485560915"><ele>463.25</ele><time>2026-04-18T08:03:55.999Z</time></trkpt><trkpt lat="47.76321722142643" lon="12.103946827421568"><ele>463.0</ele><time>2026-04-18T08:03:56.999Z</time></trkpt><trkpt lat="47.763096130604026" lon="12.104054849216961"><ele>462.75</ele><time>2026-04-18T08:03:57.999Z</time></trkpt><trkpt lat="47.762976261161704" lon="12.10416860910324"><ele>462.5</ele><time>2026-04-18T08:03:58.999Z</time></trkpt><trkpt lat="47.762855883298755" lon="12.10428493707056"><ele>462.25</ele><time>2026-04-18T08:04:00Z</time></trkpt><trkpt lat="47.76274008364138" lon="12.10440519673172"><ele>462.0</ele><time>2026-04-18T08:04:01Z</time></trkpt><trkpt lat="47.76262537722429" lon="12.104522863499714"><ele>463.0</ele><time>2026-04-18T08:04:02Z</time></trkpt><trkpt lat="47.762511536924734" lon="12.104639560760745"><ele>464.0</ele><time>2026-04-18T08:04:03Z</time></trkpt><trkpt lat="47.762394760062115" lon="12.104757930837872"><ele>465.0</ele><time>2026-04-18T08:04:04Z</time></trkpt><trkpt lat="47.76227759921131" lon="12.104891320754934"><ele>466.0</ele><time>2026-04-18T08:04:05Z</time></trkpt><trkpt lat="47.762160327985114" lon="12.105021977297522"><ele>466.0</ele><time>2026-04-18T08:04:06Z</time></trkpt><trkpt lat="47.762040425643306" lon="12.105152458520601"><ele>466.0</ele><time>2026-04-18T08:04:07Z</time></trkpt><trkpt lat="47.76190553842423" lon="12.105294684670842"><ele>466.0</ele><time>2026-04-18T08:04:08Z</time></trkpt><trkpt lat="47.76174422366954" lon="12.105460102577808"><ele>465.0</ele><time>2026-04-18T08:04:09Z</time></trkpt><trkpt lat="47.76155591040276" lon="12.105661042285128"><ele>464.0</ele><time>2026-04-18T08:04:10Z</time></trkpt><trkpt lat="47.7613769743529" lon="12.105849981021139"><ele>464.0</ele><time>2026-04-18T08:04:11Z</time></trkpt><trkpt lat="47.76119253187368" lon="12.1060441853693"><ele>464.0</ele><time>2026-04-18T08:04:12Z</time></trkpt><trkpt lat="47.760992610039146" lon="12.106250305941433"><ele>463.5</ele><time>2026-04-18T08:04:13Z</time></trkpt><trkpt lat="47.76078243281588" lon="12.10647385626264"><ele>463.0</ele><time>2026-04-18T08:04:14Z</time></trkpt><trkpt lat="47.760563668501185" lon="12.106711885703998"><ele>463.0</ele><time>2026-04-18T08:04:15Z</time></trkpt><trkpt lat="47.760342259072736" lon="12.106962092271528"><ele>463.0</ele><time>2026-04-18T08:04:16Z</time></trkpt><trkpt lat="47.76012884327591" lon="12.107197122288973"><ele>461.5</ele><time>2026-04-18T08:04:17Z</time></trkpt><trkpt lat="47.75991526387705" lon="12.107424411106074"><ele>460.0</ele><time>2026-04-18T08:04:18Z</time></trkpt><trkpt lat="47.759703045087434" lon="12.107647397055587"><ele>460.0</ele><time>2026-04-18T08:04:19Z</time></trkpt><trkpt lat="47.75949364417638" lon="12.107870510323217"><ele>460.0</ele><time>2026-04-18T08:04:20Z</time></trkpt><trkpt lat="47.75928191667133" lon="12.108099475897923"><ele>459.0</ele><time>2026-04-18T08:04:21Z</time></trkpt><trkpt lat="47.759068421737645" lon="12.108332949452642"><ele>458.0</ele><time>2026-04-18T08:04:22Z</time></trkpt><trkpt lat="47.75885716226674" lon="12.108560167081796"><ele>458.0</ele><time>2026-04-18T08:04:23Z</time></trkpt><trkpt lat="47.75864248049601" lon="12.10878473188105"><ele>458.0</ele><time>2026-04-18T08:04:24Z</time></trkpt><trkpt lat="47.758421365390966" lon="12.109012855615704"><ele>458.5</ele><time>2026-04-18T08:04:25Z</time></trkpt><trkpt lat="47.758199225040734" lon="12.109252531916091"><ele>459.0</ele><time>2026-04-18T08:04:26Z</time></trkpt><trkpt lat="47.75797223534403" lon="12.1094981180206"><ele>459.0</ele><time>2026-04-18T08:04:27Z</time></trkpt><trkpt lat="47.757740757027484" lon="12.109744097682722"><ele>459.0</ele><time>2026-04-18T08:04:28Z</time></trkpt><trkpt lat="47.757507515104166" lon="12.109992992763335"><ele>457.5</ele><time>2026-04-18T08:04:29Z</time></trkpt><trkpt lat="47.757280863485036" lon="12.110236120109812"><ele>456.0</ele><time>2026-04-18T08:04:30Z</time></trkpt><trkpt lat="47.75706025252424" lon="12.110470386452757"><ele>458.0</ele><time>2026-04-18T08:04:31Z</time></trkpt><trkpt lat="47.75684622907154" lon="12.110699206188926"><ele>460.0</ele><time>2026-04-18T08:04:32Z</time></trkpt><trkpt lat="47.75663153825576" lon="12.110930640623998"><ele>460.0</ele><time>2026-04-18T08:04:33Z</time></trkpt><trkpt lat="47.756411950899185" lon="12.111164857805138"><ele>460.0</ele><time>2026-04-18T08:04:34Z</time></trkpt><trkpt lat="47.75618910906486" lon="12.111404366683677"><ele>460.5</ele><time>2026-04-18T08:04:35Z</time></trkpt><trkpt lat="47.755969318232786" lon="12.111641622498183"><ele>461.0</ele><time>2026-04-18T08:04:36Z</time></trkpt><trkpt lat="47.75574597596617" lon="12.11187533120132"><ele>461.0</ele><time>2026-04-18T08:04:37Z</time></trkpt><trkpt lat="47.75551614631914" lon="12.11211409333981"><ele>461.0</ele><time>2026-04-18T08:04:38Z</time></trkpt><trkpt lat="47.75528070006329" lon="12.112363160254594"><ele>462.0</ele><time>2026-04-18T08:04:39Z</time></trkpt><trkpt lat="47.755038272188614" lon="12.11261839442071"><ele>463.0</ele><time>2026-04-18T08:04:40Z</time></trkpt><trkpt lat="47.75479537635479" lon="12.112874543562068"><ele>463.0</ele><time>2026-04-18T08:04:41Z</time></trkpt><trkpt lat="47.75455704701143" lon="12.113123332123456"><ele>463.0</ele><time>2026-04-18T08:04:42Z</time></trkpt><trkpt lat="47.75432404348285" lon="12.11336583371874"><ele>462.0</ele><time>2026-04-18T08:04:43Z</time></trkpt><trkpt lat="47.75409487227527" lon="12.113602457781386"><ele>461.0</ele><time>2026-04-18T08:04:44Z</time></trkpt><trkpt lat="47.75387024888488" lon="12.113829298670293"><ele>461.0</ele><time>2026-04-18T08:04:45Z</time></trkpt><trkpt lat="47.75365018133565" lon="12.114053089339206"><ele>461.0</ele><time>2026-04-18T08:04:46Z</time></trkpt><trkpt lat="47.75342750493638" lon="12.11427532453444"><ele>461.5</ele><time>2026-04-18T08:04:47Z</time></trkpt><trkpt lat="47.75319910311282" lon="12.114491342029213"><ele>462.0</ele><time>2026-04-18T08:04:48Z</time></trkpt><trkpt lat="47.75296226249021" lon="12.114698853387816"><ele>461.5</ele><time>2026-04-18T08:04:49Z</time></trkpt><trkpt lat="47.75272935618455" lon="12.11491677624384"><ele>461.0</ele><time>2026-04-18T08:04:50Z</time></trkpt><trkpt lat="47.752506127191566" lon="12.115141100616633"><ele>459.5</ele><time>2026-04-18T08:04:51Z</time></trkpt><trkpt lat="47.752283695061394" lon="12.115361810060971"><ele>458.0</ele><time>2026-04-18T08:04:52Z</time></trkpt><trkpt lat="47.75206375882351" lon="12.115577417300543"><ele>458.5</ele><time>2026-04-18T08:04:53Z</time></trkpt><trkpt lat="47.751849381888704" lon="12.115789544796547"><ele>459.0</ele><time>2026-04-18T08:04:54Z</time></trkpt><trkpt lat="47.7516397452667" lon="12.115993574500594"><ele>459.0</ele><time>2026-04-18T08:04:55Z</time></trkpt><trkpt lat="47.75143647969903" lon="12.116190310682171"><ele>459.0</ele><time>2026-04-18T08:04:56Z</time></trkpt><trkpt lat="47.751236532088996" lon="12.116384131852538"><ele>458.0</ele><time>2026-04-18T08:04:57Z</time></trkpt><trkpt lat="47.75103683380123" lon="12.116579136834641"><ele>457.0</ele><time>2026-04-18T08:04:58Z</time></trkpt><trkpt lat="47.75083818800456" lon="12.116773095200951"><ele>457.0</ele><time>2026-04-18T08:04:59Z</time></trkpt><trkpt lat="47.75063407451143" lon="12.116971513747028"><ele>457.0</ele><time>2026-04-18T08:05:00Z</time></trkpt><trkpt lat="47.750422745988566" lon="12.11717448256423"><ele>457.5</ele><time>2026-04-18T08:05:01Z</time></trkpt><trkpt lat="47.75019610192367" lon="12.117385602655778"><ele>458.0</ele><time>2026-04-18T08:05:02Z</time></trkpt><trkpt lat="47.749962560638544" lon="12.117602451313447"><ele>459.0</ele><time>2026-04-18T08:05:03Z</time></trkpt><trkpt lat="47.74972303994045" lon="12.117833116326517"><ele>460.0</ele><time>2026-04-18T08:05:04Z</time></trkpt><trkpt lat="47.74947903054674" lon="12.11806492673609"><ele>458.0</ele><time>2026-04-18T08:05:05Z</time></trkpt><trkpt lat="47.74923917841895" lon="12.118289381621823"><ele>456.0</ele><time>2026-04-18T08:05:06Z</time></trkpt><trkpt lat="47.748998479137086" lon="12.118512986429902"><ele>456.0</ele><time>2026-04-18T08:05:07Z</time></trkpt><trkpt lat="47.74876247302716" lon="12.118730864641085"><ele>456.0</ele><time>2026-04-18T08:05:08Z</time></trkpt><trkpt lat="47.74853566730882" lon="12.118940292155584"><ele>456.5</ele><time>2026-04-18T08:05:09Z</time></trkpt><trkpt lat="47.748317110439764" lon="12.119142501213654"><ele>457.0</ele><time>2026-04-18T08:05:10Z</time></trkpt><trkpt lat="47.748104772042794" lon="12.119338612640187"><ele>457.0</ele><time>2026-04-18T08:05:11Z</time></trkpt><trkpt lat="47.747891904141305" lon="12.119532778593648"><ele>457.0</ele><time>2026-04-18T08:05:12Z</time></trkpt><trkpt lat="47.74768321686339" lon="12.119720603308965"><ele>456.5</ele><time>2026-04-18T08:05:13Z</time></trkpt><trkpt lat="47.747478526575414" lon="12.119908013209146"><ele>456.0</ele><time>2026-04-18T08:05:14Z</time></trkpt><trkpt lat="47.74727588853189" lon="12.120092222205336"><ele>456.0</ele><time>2026-04-18T08:05:15Z</time></trkpt><trkpt lat="47.74707635217636" lon="12.12027481516722"><ele>456.0</ele><time>2026-04-18T08:05:16Z</time></trkpt><trkpt lat="47.74687843195703" lon="12.120455745394915"><ele>456.0</ele><time>2026-04-18T08:05:17Z</time></trkpt><trkpt lat="47.74668157854495" lon="12.120636598593492"><ele>456.0</ele><time>2026-04-18T08:05:18Z</time></trkpt><trkpt lat="47.74648078263622" lon="12.12081811002294"><ele>456.0</ele><time>2026-04-18T08:05:19Z</time></trkpt><trkpt lat="47.74627654819289" lon="12.12100224112421"><ele>456.0</ele><time>2026-04-18T08:05:20Z</time></trkpt><trkpt lat="47.746064010757465" lon="12.121189288084548"><ele>456.0</ele><time>2026-04-18T08:05:21Z</time></trkpt><trkpt lat="47.74584666274868" lon="12.121379823195914"><ele>456.0</ele><time>2026-04-18T08:05:22Z</time></trkpt><trkpt lat="47.74563586451258" lon="12.121563709202135"><ele>456.0</ele><time>2026-04-18T08:05:22.999Z</time></trkpt><trkpt lat="47.7454236684675" lon="12.121750401530111"><ele>456.0</ele><time>2026-04-18T08:05:23.999Z</time></trkpt><trkpt lat="47.745206464738345" lon="12.121943286841656"><ele>456.0</ele><time>2026-04-18T08:05:24.999Z</time></trkpt><trkpt lat="47.74498383434322" lon="12.122138641263131"><ele>456.0</ele><time>2026-04-18T08:05:25.999Z</time></trkpt><trkpt lat="47.74475921306862" lon="12.12233053781113"><ele>456.0</ele><time>2026-04-18T08:05:26.999Z</time></trkpt><trkpt lat="47.7445339521702" lon="12.122524548108792"><ele>456.0</ele><time>2026-04-18T08:05:27.999Z</time></trkpt><trkpt lat="47.74430933345586" lon="12.122719585852314"><ele>457.0</ele><time>2026-04-18T08:05:28.999Z</time></trkpt><trkpt lat="47.74408956541279" lon="12.122907928230875"><ele>458.0</ele><time>2026-04-18T08:05:29.999Z</time></trkpt><trkpt lat="47.74387257972557" lon="12.123092652395554"><ele>457.5</ele><time>2026-04-18T08:05:30.999Z</time></trkpt><trkpt lat="47.74365295617027" lon="12.123280666014926"><ele>457.0</ele><time>2026-04-18T08:05:31.999Z</time></trkpt><trkpt lat="47.743432810744864" lon="12.12346962875225"><ele>456.5</ele><time>2026-04-18T08:05:32.999Z</time></trkpt><trkpt lat="47.74321178810104" lon="12.12365904121604"><ele>456.0</ele><time>2026-04-18T08:05:33.999Z</time></trkpt><trkpt lat="47.742994815440156" lon="12.123842252399594"><ele>456.0</ele><time>2026-04-18T08:05:34.999Z</time></trkpt><trkpt lat="47.742783767564525" lon="12.12401233220489"><ele>456.0</ele><time>2026-04-18T08:05:35.999Z</time></trkpt><trkpt lat="47.74258126256793" lon="12.124176389801539"><ele>456.66666666666663</ele><time>2026-04-18T08:05:36.999Z</time></trkpt><trkpt lat="47.74238889436712" lon="12.124333406981517"><ele>457.3333333333333</ele><time>2026-04-18T08:05:37.999Z</time></trkpt><trkpt lat="47.74220743324009" lon="12.12448924044944"><ele>458.0</ele><time>2026-04-18T08:05:38.999Z</time></trkpt><trkpt lat="47.74202777070336" lon="12.124653140182865"><ele>458.5</ele><time>2026-04-18T08:05:39.999Z</time></trkpt><trkpt lat="47.74184068766735" lon="12.124820722998912"><ele>459.0</ele><time>2026-04-18T08:05:40.999Z</time></trkpt><trkpt lat="47.741636675578036" lon="12.124986451330088"><ele>458.0</ele><time>2026-04-18T08:05:41.999Z</time></trkpt><trkpt lat="47.74143621985295" lon="12.125149169047726"><ele>457.0</ele><time>2026-04-18T08:05:42.999Z</time></trkpt><trkpt lat="47.74123925568036" lon="12.125309403977598"><ele>457.0</ele><time>2026-04-18T08:05:43.999Z</time></trkpt><trkpt lat="47.741040854146796" lon="12.125469045654272"><ele>457.0</ele><time>2026-04-18T08:05:44.999Z</time></trkpt><trkpt lat="47.74083609292735" lon="12.125633857306076"><ele>456.5</ele><time>2026-04-18T08:05:45.999Z</time></trkpt><trkpt lat="47.74062677449891" lon="12.12580175627465"><ele>456.0</ele><time>2026-04-18T08:05:46.999Z</time></trkpt><trkpt lat="47.74041267727506" lon="12.125972899765049"><ele>456.5</ele><time>2026-04-18T08:05:47.999Z</time></trkpt><trkpt lat="47.740194860823486" lon="12.12614841538518"><ele>457.0</ele><time>2026-04-18T08:05:48.998Z</time></trkpt><trkpt lat="47.73998294974124" lon="12.126316640251293"><ele>457.0</ele><time>2026-04-18T08:05:49.998Z</time></trkpt><trkpt lat="47.739786246700696" lon="12.126470819508194"><ele>457.0</ele><time>2026-04-18T08:05:50.998Z</time></trkpt><trkpt lat="47.73959860427165" lon="12.126613948401454"><ele>457.0</ele><time>2026-04-18T08:05:51.998Z</time></trkpt><trkpt lat="47.73942055895872" lon="12.126748708489096"><ele>457.6666666666667</ele><time>2026-04-18T08:05:52.998Z</time></trkpt><trkpt lat="47.73924755522205" lon="12.126878839711942"><ele>458.33333333333337</ele><time>2026-04-18T08:05:53.998Z</time></trkpt><trkpt lat="47.73907574034786" lon="12.126994842897291"><ele>459.0</ele><time>2026-04-18T08:05:54.998Z</time></trkpt><trkpt lat="47.73890411815578" lon="12.127110355360397"><ele>459.0</ele><time>2026-04-18T08:05:55.998Z</time></trkpt><trkpt lat="47.73873416200588" lon="12.127237449534336"><ele>459.0</ele><time>2026-04-18T08:05:56.998Z</time></trkpt><trkpt lat="47.738577328194225" lon="12.127357881166235"><ele>459.0</ele><time>2026-04-18T08:05:57.998Z</time></trkpt><trkpt lat="47.738431842930524" lon="12.127473226815574"><ele>459.75</ele><time>2026-04-18T08:05:58.998Z</time></trkpt><trkpt lat="47.73829592758532" lon="12.127578000821462"><ele>460.5</ele><time>2026-04-18T08:05:59.998Z</time></trkpt><trkpt lat="47.73817011883163" lon="12.1276687414838"><ele>461.25</ele><time>2026-04-18T08:06:00.998Z</time></trkpt><trkpt lat="47.73805421660976" lon="12.12775330821124"><ele>462.0</ele><time>2026-04-18T08:06:01.998Z</time></trkpt><trkpt lat="47.737947359047595" lon="12.127830212061681"><ele>462.0</ele><time>2026-04-18T08:06:02.998Z</time></trkpt><trkpt lat="47.73785307053852" lon="12.127901567439093"><ele>462.00000000000006</ele><time>2026-04-18T08:06:03.998Z</time></trkpt><trkpt lat="47.737769507021945" lon="12.127964136152306"><ele>462.00000000000006</ele><time>2026-04-18T08:06:04.998Z</time></trkpt><trkpt lat="47.73768984000515" lon="12.128021801377221"><ele>462.0</ele><time>2026-04-18T08:06:05.999Z</time></trkpt><trkpt lat="47.73761249646552" lon="12.128082323202971"><ele>462.0</ele><time>2026-04-18T08:06:06.999Z</time></trkpt><trkpt lat="47.73753372057123" lon="12.128138436784845"><ele>462.0</ele><time>2026-04-18T08:06:07.999Z</time></trkpt><trkpt lat="47.73744130908496" lon="12.128195370210717"><ele>462.00000000000006</ele><time>2026-04-18T08:06:08.999Z</time></trkpt><trkpt lat="47.73733876970793" lon="12.128233001267429"><ele>462.00000000000006</ele><time>2026-04-18T08:06:09.999Z</time></trkpt><trkpt lat="47.73723883892416" lon="12.128237003928612"><ele>462.0</ele><time>2026-04-18T08:06:10.999Z</time></trkpt><trkpt lat="47.73714921495125" lon="12.128208510694344"><ele>462.0</ele><time>2026-04-18T08:06:11.999Z</time></trkpt><trkpt lat="47.73706249982637" lon="12.128153655783867"><ele>462.20000000000005</ele><time>2026-04-18T08:06:12.999Z</time></trkpt><trkpt lat="47.73698323164319" lon="12.128072809428758"><ele>462.40000000000003</ele><time>2026-04-18T08:06:13.999Z</time></trkpt><trkpt lat="47.73691316386288" lon="12.127964767193566"><ele>462.59999999999997</ele><time>2026-04-18T08:06:14.999Z</time></trkpt><trkpt lat="47.73686194294763" lon="12.127834472017412"><ele>462.79999999999995</ele><time>2026-04-18T08:06:15.999Z</time></trkpt><trkpt lat="47.73682961010648" lon="12.127689408324583"><ele>463.0</ele><time>2026-04-18T08:06:16.999Z</time></trkpt><trkpt lat="47.736779590631144" lon="12.127561709893833"><ele>463.0</ele><time>2026-04-18T08:06:17.999Z</time></trkpt><trkpt lat="47.73681504773668" lon="12.127378064169877"><ele>463.0</ele><time>2026-04-18T08:06:18.999Z</time></trkpt><trkpt lat="47.73683767871205" lon="12.127222446365153"><ele>463.0</ele><time>2026-04-18T08:06:19.999Z</time></trkpt><trkpt lat="47.73688580934757" lon="12.127077580420565"><ele>463.0</ele><time>2026-04-18T08:06:20.999Z</time></trkpt><trkpt lat="47.73694546452211" lon="12.126930982351917"><ele>463.0</ele><time>2026-04-18T08:06:21.999Z</time></trkpt><trkpt lat="47.73700016590414" lon="12.126784713601623"><ele>462.99999999999994</ele><time>2026-04-18T08:06:22.999Z</time></trkpt><trkpt lat="47.737050141087046" lon="12.12664680764083"><ele>462.99999999999994</ele><time>2026-04-18T08:06:23.999Z</time></trkpt><trkpt lat="47.73709994744352" lon="12.126518541493994"><ele>463.0</ele><time>2026-04-18T08:06:24.999Z</time></trkpt><trkpt lat="47.73714993232506" lon="12.126388773108934"><ele>463.0</ele><time>2026-04-18T08:06:25.999Z</time></trkpt><trkpt lat="47.73720055991584" lon="12.12627141427726"><ele>462.83333333333337</ele><time>2026-04-18T08:06:26.999Z</time></trkpt><trkpt lat="47.73725570355125" lon="12.126182149731212"><ele>462.6666666666667</ele><time>2026-04-18T08:06:27.999Z</time></trkpt><trkpt lat="47.73731108770967" lon="12.126136691912325"><ele>462.5</ele><time>2026-04-18T08:06:28.999Z</time></trkpt><trkpt lat="47.73738105305031" lon="12.126110288553333"><ele>462.33333333333337</ele><time>2026-04-18T08:06:30.999Z</time></trkpt><trkpt lat="47.73745282925633" lon="12.126089329624039"><ele>462.1666666666667</ele><time>2026-04-18T08:06:33.999Z</time></trkpt><trkpt lat="47.737537723968124" lon="12.126072757948956"><ele>462.0</ele><time>2026-04-18T08:06:56.999Z</time></trkpt><trkpt lat="47.73760112530065" lon="12.125887884616464"><ele>462.0</ele><time>2026-04-18T08:06:59.999Z</time></trkpt><trkpt lat="47.73760911759775" lon="12.125770367506203"><ele>462.0</ele><time>2026-04-18T08:07:00.999Z</time></trkpt><trkpt lat="47.73762136734662" lon="12.125598158418395"><ele>462.0</ele><time>2026-04-18T08:07:01.999Z</time></trkpt><trkpt lat="47.73763307617964" lon="12.125355735913217"><ele>462.0</ele><time>2026-04-18T08:07:02.999Z</time></trkpt><trkpt lat="47.73763850009245" lon="12.125181440380057"><ele>461.8</ele><time>2026-04-18T08:07:03.999Z</time></trkpt><trkpt lat="47.73763684190401" lon="12.125060949658115"><ele>461.6</ele><time>2026-04-18T08:07:04.999Z</time></trkpt><trkpt lat="47.73763172438499" lon="12.12493849906995"><ele>461.40000000000003</ele><time>2026-04-18T08:07:05.999Z</time></trkpt><trkpt lat="47.73762103103355" lon="12.124776107510835"><ele>461.20000000000005</ele><time>2026-04-18T08:07:06.999Z</time></trkpt><trkpt lat="47.73761239817423" lon="12.124640561328759"><ele>461.0</ele><time>2026-04-18T08:07:07.999Z</time></trkpt><trkpt lat="47.73760295084316" lon="12.124515232301274"><ele>460.8</ele><time>2026-04-18T08:07:08.999Z</time></trkpt><trkpt lat="47.73758556662204" lon="12.1243917689754"><ele>460.6</ele><time>2026-04-18T08:07:09.999Z</time></trkpt><trkpt lat="47.737566165677016" lon="12.12426354433031"><ele>460.4</ele><time>2026-04-18T08:07:10.999Z</time></trkpt><trkpt lat="47.73754587518566" lon="12.12412683616238"><ele>460.2</ele><time>2026-04-18T08:07:11.999Z</time></trkpt><trkpt lat="47.7375230337677" lon="12.12398278210733"><ele>460.0</ele><time>2026-04-18T08:07:12.999Z</time></trkpt><trkpt lat="47.73749233937016" lon="12.123829216854205"><ele>460.0</ele><time>2026-04-18T08:07:13.999Z</time></trkpt><trkpt lat="47.737454183835645" lon="12.123666507555239"><ele>460.0</ele><time>2026-04-18T08:07:14.999Z</time></trkpt><trkpt lat="47.73740891626263" lon="12.123496740533746"><ele>460.0</ele><time>2026-04-18T08:07:15.999Z</time></trkpt><trkpt lat="47.73735683576413" lon="12.1233080927376"><ele>460.0</ele><time>2026-04-18T08:07:16.999Z</time></trkpt><trkpt lat="47.73730016920166" lon="12.123124795624717"><ele>459.75</ele><time>2026-04-18T08:07:17.999Z</time></trkpt><trkpt lat="47.73723757407601" lon="12.122952244691234"><ele>459.5</ele><time>2026-04-18T08:07:18.999Z</time></trkpt><trkpt lat="47.737171260716366" lon="12.122783499037533"><ele>459.25</ele><time>2026-04-18T08:07:19.999Z</time></trkpt><trkpt lat="47.73710499018747" lon="12.122613806303203"><ele>459.0</ele><time>2026-04-18T08:07:20.999Z</time></trkpt><trkpt lat="47.73704037718119" lon="12.122443208697971"><ele>459.0</ele><time>2026-04-18T08:07:21.999Z</time></trkpt><trkpt lat="47.7369763445175" lon="12.122281954024007"><ele>459.0</ele><time>2026-04-18T08:07:22.999Z</time></trkpt><trkpt lat="47.736915301078284" lon="12.122135110998718"><ele>459.0</ele><time>2026-04-18T08:07:23.999Z</time></trkpt><trkpt lat="47.73685640825336" lon="12.121988412419988"><ele>459.0</ele><time>2026-04-18T08:07:24.999Z</time></trkpt><trkpt lat="47.73679864594466" lon="12.121843738130632"><ele>459.0</ele><time>2026-04-18T08:07:25.999Z</time></trkpt><trkpt lat="47.73674189790682" lon="12.121703754207218"><ele>459.0</ele><time>2026-04-18T08:07:26.999Z</time></trkpt><trkpt lat="47.736685670206064" lon="12.121568955205351"><ele>459.0</ele><time>2026-04-18T08:07:27.999Z</time></trkpt><trkpt lat="47.736635081162746" lon="12.121448477820513"><ele>459.0</ele><time>2026-04-18T08:07:28.999Z</time></trkpt><trkpt lat="47.736594618984014" lon="12.121344066310296"><ele>459.0</ele><time>2026-04-18T08:07:29.999Z</time></trkpt><trkpt lat="47.73655853311537" lon="12.121249262335345"><ele>459.5</ele><time>2026-04-18T08:07:30.999Z</time></trkpt><trkpt lat="47.73652420004846" lon="12.121159074465828"><ele>460.0</ele><time>2026-04-18T08:07:31.999Z</time></trkpt><trkpt lat="47.73649139644997" lon="12.121075666350523"><ele>460.5</ele><time>2026-04-18T08:07:32.999Z</time></trkpt><trkpt lat="47.736441764378945" lon="12.120945456113361"><ele>461.0</ele><time>2026-04-18T08:07:34.999Z</time></trkpt><trkpt lat="47.7364030013962" lon="12.120838580324294"><ele>461.5</ele><time>2026-04-18T08:07:37.999Z</time></trkpt><trkpt lat="47.73636919182729" lon="12.120740264238934"><ele>462.0</ele><time>2026-04-18T08:07:41.999Z</time></trkpt><trkpt lat="47.73630336793775" lon="12.120662281078635"><ele>462.40000000000003</ele><time>2026-04-18T08:10:01.999Z</time></trkpt><trkpt lat="47.73626268618578" lon="12.120555488833284"><ele>462.80000000000007</ele><time>2026-04-18T08:10:02.999Z</time></trkpt><trkpt lat="47.73621259076266" lon="12.120424960504529"><ele>463.2</ele><time>2026-04-18T08:10:03.999Z</time></trkpt><trkpt lat="47.73615524311796" lon="12.120291886435496"><ele>463.6</ele><time>2026-04-18T08:10:04.999Z</time></trkpt><trkpt lat="47.73610847524139" lon="12.120173983399706"><ele>464.0</ele><time>2026-04-18T08:10:05.999Z</time></trkpt><trkpt lat="47.73606941116217" lon="12.12006923238792"><ele>464.2</ele><time>2026-04-18T08:10:06.999Z</time></trkpt><trkpt lat="47.73603717117962" lon="12.119971934295533"><ele>464.4</ele><time>2026-04-18T08:10:07.999Z</time></trkpt><trkpt lat="47.73600985794595" lon="12.119884448936176"><ele>464.6</ele><time>2026-04-18T08:10:08.999Z</time></trkpt><trkpt lat="47.735975357213526" lon="12.119772618408822"><ele>464.8</ele><time>2026-04-18T08:10:09.999Z</time></trkpt><trkpt lat="47.73593023309775" lon="12.119622750497669"><ele>465.0</ele><time>2026-04-18T08:10:10.999Z</time></trkpt><trkpt lat="47.73586885256006" lon="12.119429165028942"><ele>465.25</ele><time>2026-04-18T08:10:11.999Z</time></trkpt><trkpt lat="47.735805623749506" lon="12.119216656092458"><ele>465.5</ele><time>2026-04-18T08:10:12.999Z</time></trkpt><trkpt lat="47.73575479435134" lon="12.119055123043479"><ele>465.75</ele><time>2026-04-18T08:10:13.999Z</time></trkpt><trkpt lat="47.73569471510308" lon="12.118875525082702"><ele>466.0</ele><time>2026-04-18T08:10:14.999Z</time></trkpt><trkpt lat="47.735647548774935" lon="12.118689710155563"><ele>466.5</ele><time>2026-04-18T08:10:15.999Z</time></trkpt><trkpt lat="47.7355986870305" lon="12.118470640363125"><ele>467.0</ele><time>2026-04-18T08:10:16.999Z</time></trkpt><trkpt lat="47.73555875607397" lon="12.118293922047073"><ele>467.5</ele><time>2026-04-18T08:10:17.999Z</time></trkpt><trkpt lat="47.73552374811599" lon="12.118136333322994"><ele>468.0</ele><time>2026-04-18T08:10:18.999Z</time></trkpt><trkpt lat="47.7354897483759" lon="12.117973544070137"><ele>468.0</ele><time>2026-04-18T08:10:19.999Z</time></trkpt><trkpt lat="47.73546071892521" lon="12.11780093051153"><ele>468.0</ele><time>2026-04-18T08:10:20.999Z</time></trkpt><trkpt lat="47.735428798372766" lon="12.117623963335129"><ele>468.0</ele><time>2026-04-18T08:10:21.999Z</time></trkpt><trkpt lat="47.7353929375992" lon="12.117440875633541"><ele>468.0</ele><time>2026-04-18T08:10:22.999Z</time></trkpt><trkpt lat="47.73536235502441" lon="12.117259289642377"><ele>468.0</ele><time>2026-04-18T08:10:23.999Z</time></trkpt><trkpt lat="47.73533816054176" lon="12.117076283045966"><ele>468.0</ele><time>2026-04-18T08:10:24.999Z</time></trkpt><trkpt lat="47.73531463832313" lon="12.116879166848548"><ele>468.0</ele><time>2026-04-18T08:10:25.999Z</time></trkpt><trkpt lat="47.735287511207055" lon="12.116664677974265"><ele>468.0</ele><time>2026-04-18T08:10:26.999Z</time></trkpt><trkpt lat="47.73526110149046" lon="12.11643371489561"><ele>468.0</ele><time>2026-04-18T08:10:27.999Z</time></trkpt><trkpt lat="47.7352402304707" lon="12.116223923567189"><ele>468.0</ele><time>2026-04-18T08:10:28.999Z</time></trkpt><trkpt lat="47.735223575979255" lon="12.116025651563428"><ele>468.0</ele><time>2026-04-18T08:10:29.999Z</time></trkpt><trkpt lat="47.73521169671798" lon="12.115828260508342"><ele>468.0</ele><time>2026-04-18T08:10:30.999Z</time></trkpt><trkpt lat="47.73520048799288" lon="12.115622780800367"><ele>469.5</ele><time>2026-04-18T08:10:31.999Z</time></trkpt><trkpt lat="47.735189281769514" lon="12.115415797261415"><ele>471.0</ele><time>2026-04-18T08:10:32.999Z</time></trkpt><trkpt lat="47.73518193400126" lon="12.115207079430995"><ele>472.5</ele><time>2026-04-18T08:10:33.999Z</time></trkpt><trkpt lat="47.73517777597148" lon="12.114991971867093"><ele>474.0</ele><time>2026-04-18T08:10:34.999Z</time></trkpt><trkpt lat="47.735176764232435" lon="12.114759457786471"><ele>474.66666666666663</ele><time>2026-04-18T08:10:35.999Z</time></trkpt><trkpt lat="47.73518062991784" lon="12.114520510898853"><ele>475.3333333333333</ele><time>2026-04-18T08:10:36.999Z</time></trkpt><trkpt lat="47.73519010192177" lon="12.114302292054672"><ele>476.0</ele><time>2026-04-18T08:10:37.999Z</time></trkpt><trkpt lat="47.73519892571162" lon="12.11407767443407"><ele>475.75</ele><time>2026-04-18T08:10:38.999Z</time></trkpt><trkpt lat="47.73520991913338" lon="12.11385672539685"><ele>475.5</ele><time>2026-04-18T08:10:39.999Z</time></trkpt><trkpt lat="47.73522274323888" lon="12.113657425793493"><ele>475.25</ele><time>2026-04-18T08:10:40.999Z</time></trkpt><trkpt lat="47.73523614299166" lon="12.113473589713912"><ele>475.0</ele><time>2026-04-18T08:10:41.999Z</time></trkpt><trkpt lat="47.73524799591218" lon="12.11330084092902"><ele>474.8</ele><time>2026-04-18T08:10:42.999Z</time></trkpt><trkpt lat="47.73526032151452" lon="12.113139365206381"><ele>474.6</ele><time>2026-04-18T08:10:43.999Z</time></trkpt><trkpt lat="47.735278038994814" lon="12.112966147867498"><ele>474.4</ele><time>2026-04-18T08:10:44.999Z</time></trkpt><trkpt lat="47.73529833044495" lon="12.11279989341724"><ele>474.2</ele><time>2026-04-18T08:10:45.999Z</time></trkpt><trkpt lat="47.73531931556103" lon="12.112646376493728"><ele>474.0</ele><time>2026-04-18T08:10:46.999Z</time></trkpt><trkpt lat="47.735338197687234" lon="12.112507848017746"><ele>474.3333333333333</ele><time>2026-04-18T08:10:47.999Z</time></trkpt><trkpt lat="47.73535444071853" lon="12.112385059656647"><ele>474.66666666666663</ele><time>2026-04-18T08:10:48.999Z</time></trkpt><trkpt lat="47.73536776546387" lon="12.112284003164943"><ele>475.0</ele><time>2026-04-18T08:10:49.999Z</time></trkpt><trkpt lat="47.73538688500915" lon="12.11212852541516"><ele>475.3333333333333</ele><time>2026-04-18T08:10:51.999Z</time></trkpt><trkpt lat="47.73539604298477" lon="12.112016034926041"><ele>475.66666666666663</ele><time>2026-04-18T08:10:54.999Z</time></trkpt><trkpt lat="47.7353985836027" lon="12.111895612497555"><ele>476.0</ele><time>2026-04-18T08:11:19.999Z</time></trkpt><trkpt lat="47.73541467021372" lon="12.111688821968583"><ele>475.99999999999994</ele><time>2026-04-18T08:11:21.999Z</time></trkpt><trkpt lat="47.735421959302144" lon="12.111595429749686"><ele>476.0</ele><time>2026-04-18T08:11:22.999Z</time></trkpt><trkpt lat="47.7354275336343" lon="12.111411538344933"><ele>476.0</ele><time>2026-04-18T08:11:24.999Z</time></trkpt><trkpt lat="47.73542462908365" lon="12.111297555395952"><ele>476.0</ele><time>2026-04-18T08:11:25.999Z</time></trkpt><trkpt lat="47.73542036753275" lon="12.11116881386526"><ele>475.99999999999994</ele><time>2026-04-18T08:11:26.999Z</time></trkpt><trkpt lat="47.735415159745216" lon="12.111036821967273"><ele>476.0</ele><time>2026-04-18T08:11:27.999Z</time></trkpt><trkpt lat="47.73541128502511" lon="12.110902947209976"><ele>476.6</ele><time>2026-04-18T08:11:28.999Z</time></trkpt><trkpt lat="47.735407966733874" lon="12.11075626269946"><ele>477.20000000000005</ele><time>2026-04-18T08:11:29.999Z</time></trkpt><trkpt lat="47.73540038858305" lon="12.110602204754096"><ele>477.79999999999995</ele><time>2026-04-18T08:11:30.999Z</time></trkpt><trkpt lat="47.73539203001397" lon="12.110439196673935"><ele>478.4</ele><time>2026-04-18T08:11:31.999Z</time></trkpt><trkpt lat="47.73537731863203" lon="12.110269925174993"><ele>479.0</ele><time>2026-04-18T08:11:32.999Z</time></trkpt><trkpt lat="47.73536139813085" lon="12.110105765674799"><ele>479.0</ele><time>2026-04-18T08:11:33.999Z</time></trkpt><trkpt lat="47.735344958938754" lon="12.109946047543135"><ele>479.0</ele><time>2026-04-18T08:11:34.999Z</time></trkpt><trkpt lat="47.73532659812344" lon="12.109789757946578"><ele>479.0</ele><time>2026-04-18T08:11:35.999Z</time></trkpt><trkpt lat="47.73530265371664" lon="12.109643927152543"><ele>479.0</ele><time>2026-04-18T08:11:36.999Z</time></trkpt><trkpt lat="47.735277353759166" lon="12.109520826071622"><ele>479.0</ele><time>2026-04-18T08:11:37.999Z</time></trkpt><trkpt lat="47.73525313877263" lon="12.1093981365561"><ele>479.0</ele><time>2026-04-18T08:11:38.999Z</time></trkpt><trkpt lat="47.73522398559687" lon="12.109259138966571"><ele>479.0</ele><time>2026-04-18T08:11:39.999Z</time></trkpt><trkpt lat="47.735189877033314" lon="12.10910649839579"><ele>479.0</ele><time>2026-04-18T08:11:40.999Z</time></trkpt><trkpt lat="47.73515551699898" lon="12.108958434880218"><ele>479.0</ele><time>2026-04-18T08:11:41.999Z</time></trkpt><trkpt lat="47.73512488306813" lon="12.108826440574541"><ele>479.0</ele><time>2026-04-18T08:11:42.999Z</time></trkpt><trkpt lat="47.735095753024986" lon="12.10871589189882"><ele>478.99999999999994</ele><time>2026-04-18T08:11:43.999Z</time></trkpt><trkpt lat="47.735066891403264" lon="12.108615228007853"><ele>479.0</ele><time>2026-04-18T08:11:44.999Z</time></trkpt><trkpt lat="47.73504059798128" lon="12.108526711389855"><ele>479.0</ele><time>2026-04-18T08:11:45.999Z</time></trkpt><trkpt lat="47.73499870182867" lon="12.10838119113753"><ele>479.0</ele><time>2026-04-18T08:11:47.999Z</time></trkpt><trkpt lat="47.734963866955525" lon="12.108274139510444"><ele>478.99999999999994</ele><time>2026-04-18T08:11:49.999Z</time></trkpt><trkpt lat="47.73492913348606" lon="12.108175538869338"><ele>479.0</ele><time>2026-04-18T08:11:51.999Z</time></trkpt><trkpt lat="47.73489875310577" lon="12.10809245364742"><ele>479.2</ele><time>2026-04-18T08:11:53.999Z</time></trkpt><trkpt lat="47.73485996758894" lon="12.107979786133468"><ele>479.4</ele><time>2026-04-18T08:12:37.999Z</time></trkpt><trkpt lat="47.7347946486734" lon="12.107800868543348"><ele>479.6</ele><time>2026-04-18T08:12:39.999Z</time></trkpt><trkpt lat="47.73475930525339" lon="12.107677715859015"><ele>479.8</ele><time>2026-04-18T08:12:40.999Z</time></trkpt><trkpt lat="47.73472709709396" lon="12.107566859722294"><ele>480.0</ele><time>2026-04-18T08:12:41.999Z</time></trkpt><trkpt lat="47.73468926671468" lon="12.10747624505344"><ele>480.4</ele><time>2026-04-18T08:12:42.999Z</time></trkpt><trkpt lat="47.734620174678454" lon="12.107354640958954"><ele>480.8</ele><time>2026-04-18T08:12:44.999Z</time></trkpt><trkpt lat="47.73454385300366" lon="12.107208918986261"><ele>481.20000000000005</ele><time>2026-04-18T08:12:46.999Z</time></trkpt><trkpt lat="47.73450248260465" lon="12.107119165969351"><ele>481.6</ele><time>2026-04-18T08:12:47.999Z</time></trkpt><trkpt lat="47.734449963319356" lon="12.107021331976307"><ele>482.0</ele><time>2026-04-18T08:12:48.999Z</time></trkpt><trkpt lat="47.73439465164109" lon="12.106904331643475"><ele>481.8333333333333</ele><time>2026-04-18T08:12:49.999Z</time></trkpt><trkpt lat="47.73433835009118" lon="12.106787584187753"><ele>481.66666666666663</ele><time>2026-04-18T08:12:50.999Z</time></trkpt><trkpt lat="47.73429162796321" lon="12.106686244422782"><ele>481.5</ele><time>2026-04-18T08:12:51.999Z</time></trkpt><trkpt lat="47.7342390606937" lon="12.106576106321688"><ele>481.33333333333337</ele><time>2026-04-18T08:12:52.999Z</time></trkpt><trkpt lat="47.734193199359844" lon="12.106468043679907"><ele>481.1666666666667</ele><time>2026-04-18T08:12:53.999Z</time></trkpt><trkpt lat="47.73415361107169" lon="12.106377428346944"><ele>481.0</ele><time>2026-04-18T08:12:54.999Z</time></trkpt><trkpt lat="47.734114034929966" lon="12.106292670438666"><ele>481.50000000000006</ele><time>2026-04-18T08:12:55.999Z</time></trkpt><trkpt lat="47.73407377717704" lon="12.106207499252204"><ele>482.0</ele><time>2026-04-18T08:12:56.999Z</time></trkpt><trkpt lat="47.73402997180154" lon="12.10611683256632"><ele>482.5</ele><time>2026-04-18T08:12:57.999Z</time></trkpt><trkpt lat="47.73398282215713" lon="12.106010863816518"><ele>483.0</ele><time>2026-04-18T08:12:58.999Z</time></trkpt><trkpt lat="47.73393433248795" lon="12.105907956414155"><ele>483.50000000000006</ele><time>2026-04-18T08:12:59.999Z</time></trkpt><trkpt lat="47.733891604591165" lon="12.105814099310269"><ele>484.0</ele><time>2026-04-18T08:13:00.999Z</time></trkpt><trkpt lat="47.73385081677247" lon="12.105723778436818"><ele>484.1666666666667</ele><time>2026-04-18T08:13:01.999Z</time></trkpt><trkpt lat="47.73380592288731" lon="12.105625378089613"><ele>484.33333333333337</ele><time>2026-04-18T08:13:03.999Z</time></trkpt><trkpt lat="47.73376015261458" lon="12.105537191625046"><ele>484.5</ele><time>2026-04-18T08:13:06.999Z</time></trkpt><trkpt lat="47.73371405752599" lon="12.1054582700912"><ele>484.66666666666663</ele><time>2026-04-18T08:13:12.999Z</time></trkpt><trkpt lat="47.733651908396595" lon="12.105352045910523"><ele>484.8333333333333</ele><time>2026-04-18T08:13:17.999Z</time></trkpt><trkpt lat="47.73359161788148" lon="12.105242211143281"><ele>485.0</ele><time>2026-04-18T08:13:19.999Z</time></trkpt><trkpt lat="47.73351255372372" lon="12.105088950226284"><ele>484.66666666666663</ele><time>2026-04-18T08:13:21.999Z</time></trkpt><trkpt lat="47.73347625325623" lon="12.104994039621056"><ele>484.3333333333333</ele><time>2026-04-18T08:13:22.999Z</time></trkpt><trkpt lat="47.7334389426397" lon="12.104889110205077"><ele>484.0</ele><time>2026-04-18T08:13:23.999Z</time></trkpt><trkpt lat="47.73339101599303" lon="12.1047945921065"><ele>483.66666666666663</ele><time>2026-04-18T08:13:24.999Z</time></trkpt><trkpt lat="47.73334201676927" lon="12.104702826985804"><ele>483.3333333333333</ele><time>2026-04-18T08:13:25.999Z</time></trkpt><trkpt lat="47.7332854287696" lon="12.104629544594184"><ele>483.0</ele><time>2026-04-18T08:13:26.999Z</time></trkpt><trkpt lat="47.733211936453166" lon="12.10447378111997"><ele>483.0</ele><time>2026-04-18T08:13:28.999Z</time></trkpt><trkpt lat="47.73316729870127" lon="12.104386312180948"><ele>483.0</ele><time>2026-04-18T08:13:29.999Z</time></trkpt><trkpt lat="47.73312272202046" lon="12.104292178846075"><ele>483.0</ele><time>2026-04-18T08:13:30.999Z</time></trkpt><trkpt lat="47.73307615817722" lon="12.10419081291472"><ele>483.0</ele><time>2026-04-18T08:13:31.999Z</time></trkpt><trkpt lat="47.733035977283365" lon="12.104078010590165"><ele>483.0</ele><time>2026-04-18T08:13:32.999Z</time></trkpt><trkpt lat="47.73299922762869" lon="12.103958802849036"><ele>483.0</ele><time>2026-04-18T08:13:33.999Z</time></trkpt><trkpt lat="47.7329668009911" lon="12.103831557900248"><ele>483.5</ele><time>2026-04-18T08:13:34.999Z</time></trkpt><trkpt lat="47.7329336868199" lon="12.10370031363292"><ele>484.0</ele><time>2026-04-18T08:13:35.999Z</time></trkpt><trkpt lat="47.732912311638465" lon="12.103567093540407"><ele>484.5</ele><time>2026-04-18T08:13:36.999Z</time></trkpt><trkpt lat="47.73289985628596" lon="12.1034430738424"><ele>485.0</ele><time>2026-04-18T08:13:37.999Z</time></trkpt><trkpt lat="47.73289821866654" lon="12.10332835842227"><ele>485.5</ele><time>2026-04-18T08:13:38.999Z</time></trkpt><trkpt lat="47.73289092891158" lon="12.103222705190522"><ele>486.0</ele><time>2026-04-18T08:13:39.999Z</time></trkpt><trkpt lat="47.73287726833844" lon="12.103107399892776"><ele>486.20000000000005</ele><time>2026-04-18T08:13:40.999Z</time></trkpt><trkpt lat="47.732872502067465" lon="12.102976317681037"><ele>486.40000000000003</ele><time>2026-04-18T08:13:41.999Z</time></trkpt><trkpt lat="47.73285209984886" lon="12.10283315485472"><ele>486.6</ele><time>2026-04-18T08:13:42.999Z</time></trkpt><trkpt lat="47.732818386260874" lon="12.10266286569964"><ele>486.8</ele><time>2026-04-18T08:13:43.999Z</time></trkpt><trkpt lat="47.73279779778953" lon="12.102493532675956"><ele>487.0</ele><time>2026-04-18T08:13:44.999Z</time></trkpt><trkpt lat="47.73277516618498" lon="12.102349915508354"><ele>487.50000000000006</ele><time>2026-04-18T08:13:45.999Z</time></trkpt><trkpt lat="47.73275688854495" lon="12.102219470648393"><ele>488.0</ele><time>2026-04-18T08:13:46.999Z</time></trkpt><trkpt lat="47.732734311219" lon="12.102093687009402"><ele>488.5</ele><time>2026-04-18T08:13:47.999Z</time></trkpt><trkpt lat="47.732715164867514" lon="12.101972867327108"><ele>489.0</ele><time>2026-04-18T08:13:48.999Z</time></trkpt><trkpt lat="47.73269300174302" lon="12.101858638573415"><ele>489.50000000000006</ele><time>2026-04-18T08:13:49.999Z</time></trkpt><trkpt lat="47.73266277976901" lon="12.101733493622406"><ele>490.0</ele><time>2026-04-18T08:13:50.999Z</time></trkpt><trkpt lat="47.732625947488295" lon="12.101605631971145"><ele>490.2</ele><time>2026-04-18T08:13:51.999Z</time></trkpt><trkpt lat="47.73258295515723" lon="12.101475632956747"><ele>490.4</ele><time>2026-04-18T08:13:52.999Z</time></trkpt><trkpt lat="47.73253274606172" lon="12.101343700351071"><ele>490.6</ele><time>2026-04-18T08:13:53.999Z</time></trkpt><trkpt lat="47.73247523481782" lon="12.101213476025114"><ele>490.8</ele><time>2026-04-18T08:13:54.999Z</time></trkpt><trkpt lat="47.732412037612086" lon="12.101074631500957"><ele>491.0</ele><time>2026-04-18T08:13:55.999Z</time></trkpt><trkpt lat="47.73234719070463" lon="12.100928441824292"><ele>491.0</ele><time>2026-04-18T08:13:56.999Z</time></trkpt><trkpt lat="47.73228133328823" lon="12.100773202146268"><ele>491.0</ele><time>2026-04-18T08:13:57.999Z</time></trkpt><trkpt lat="47.73222283329978" lon="12.100607408853142"><ele>491.0</ele><time>2026-04-18T08:13:58.999Z</time></trkpt><trkpt lat="47.732156704440094" lon="12.100450238579723"><ele>491.0</ele><time>2026-04-18T08:13:59.999Z</time></trkpt><trkpt lat="47.73208107093728" lon="12.100301469128086"><ele>491.25</ele><time>2026-04-18T08:14:00.999Z</time></trkpt><trkpt lat="47.73200582935657" lon="12.100156461748686"><ele>491.5</ele><time>2026-04-18T08:14:01.999Z</time></trkpt><trkpt lat="47.73193035312381" lon="12.100016103519247"><ele>491.75</ele><time>2026-04-18T08:14:02.999Z</time></trkpt><trkpt lat="47.73185464857978" lon="12.099880448990996"><ele>492.0</ele><time>2026-04-18T08:14:03.999Z</time></trkpt><trkpt lat="47.73178372402195" lon="12.099742992307917"><ele>492.0</ele><time>2026-04-18T08:14:04.999Z</time></trkpt><trkpt lat="47.73171134115051" lon="12.099607901516276"><ele>492.0</ele><time>2026-04-18T08:14:05.999Z</time></trkpt><trkpt lat="47.73163692598739" lon="12.099477066421384"><ele>492.0</ele><time>2026-04-18T08:14:06.999Z</time></trkpt><trkpt lat="47.731560350216256" lon="12.099349431190024"><ele>492.0</ele><time>2026-04-18T08:14:07.999Z</time></trkpt><trkpt lat="47.73148266958969" lon="12.099225257234483"><ele>492.0</ele><time>2026-04-18T08:14:08.999Z</time></trkpt><trkpt lat="47.73140236215767" lon="12.099107739939194"><ele>492.0</ele><time>2026-04-18T08:14:09.999Z</time></trkpt><trkpt lat="47.73131668691092" lon="12.09899387997712"><ele>492.0</ele><time>2026-04-18T08:14:10.999Z</time></trkpt><trkpt lat="47.73122987890023" lon="12.098883107126206"><ele>492.0</ele><time>2026-04-18T08:14:11.999Z</time></trkpt><trkpt lat="47.73113731320833" lon="12.098775655929474"><ele>492.8</ele><time>2026-04-18T08:14:12.999Z</time></trkpt><trkpt lat="47.731042603362766" lon="12.098674478432226"><ele>493.6</ele><time>2026-04-18T08:14:13.999Z</time></trkpt><trkpt lat="47.73095080704053" lon="12.09858185334549"><ele>494.40000000000003</ele><time>2026-04-18T08:14:14.999Z</time></trkpt><trkpt lat="47.730871334538165" lon="12.098504085860206"><ele>495.20000000000005</ele><time>2026-04-18T08:14:15.999Z</time></trkpt><trkpt lat="47.73079042990625" lon="12.098424644034067"><ele>496.0</ele><time>2026-04-18T08:14:16.999Z</time></trkpt><trkpt lat="47.73071044433326" lon="12.098345282276465"><ele>496.0</ele><time>2026-04-18T08:14:17.999Z</time></trkpt><trkpt lat="47.73063193873627" lon="12.098259439597058"><ele>496.0</ele><time>2026-04-18T08:14:18.999Z</time></trkpt><trkpt lat="47.73054990933365" lon="12.098176812883944"><ele>496.0</ele><time>2026-04-18T08:14:19.999Z</time></trkpt><trkpt lat="47.73046735498735" lon="12.098089599867883"><ele>496.0</ele><time>2026-04-18T08:14:20.999Z</time></trkpt><trkpt lat="47.73038459277926" lon="12.09799657748704"><ele>496.0</ele><time>2026-04-18T08:14:21.999Z</time></trkpt><trkpt lat="47.73029448984401" lon="12.097913514710045"><ele>496.0</ele><time>2026-04-18T08:14:22.999Z</time></trkpt><trkpt lat="47.73019954066729" lon="12.097837315983696"><ele>496.0</ele><time>2026-04-18T08:14:23.999Z</time></trkpt><trkpt lat="47.73010068297862" lon="12.097769191707506"><ele>496.0</ele><time>2026-04-18T08:14:24.999Z</time></trkpt><trkpt lat="47.7299996762656" lon="12.097711510683954"><ele>496.0</ele><time>2026-04-18T08:14:25.999Z</time></trkpt><trkpt lat="47.729894594412464" lon="12.097659876692353"><ele>496.0</ele><time>2026-04-18T08:14:26.999Z</time></trkpt><trkpt lat="47.729793619924045" lon="12.097583878343452"><ele>496.0</ele><time>2026-04-18T08:14:27.999Z</time></trkpt><trkpt lat="47.72968251202349" lon="12.097559890820564"><ele>496.0</ele><time>2026-04-18T08:14:28.998Z</time></trkpt><trkpt lat="47.729574559833125" lon="12.097511811567456"><ele>496.0</ele><time>2026-04-18T08:14:29.998Z</time></trkpt><trkpt lat="47.72946606393929" lon="12.097477766841083"><ele>496.0</ele><time>2026-04-18T08:14:30.998Z</time></trkpt><trkpt lat="47.72935764180849" lon="12.09744636395512"><ele>496.0</ele><time>2026-04-18T08:14:31.998Z</time></trkpt><trkpt lat="47.7292489457929" lon="12.097414637349837"><ele>495.8</ele><time>2026-04-18T08:14:32.998Z</time></trkpt><trkpt lat="47.729139116333585" lon="12.09738435944875"><ele>495.6</ele><time>2026-04-18T08:14:33.998Z</time></trkpt><trkpt lat="47.729029206297845" lon="12.097355698314885"><ele>495.4</ele><time>2026-04-18T08:14:34.998Z</time></trkpt><trkpt lat="47.72892121576423" lon="12.097326213462177"><ele>495.2</ele><time>2026-04-18T08:14:35.998Z</time></trkpt><trkpt lat="47.728815229859165" lon="12.097298020866319"><ele>495.0</ele><time>2026-04-18T08:14:36.998Z</time></trkpt><trkpt lat="47.72870999161219" lon="12.097269544384476"><ele>495.0</ele><time>2026-04-18T08:14:37.998Z</time></trkpt><trkpt lat="47.72860537398023" lon="12.097238522638989"><ele>495.0</ele><time>2026-04-18T08:14:38.998Z</time></trkpt><trkpt lat="47.72850122376509" lon="12.097205472196983"><ele>495.0</ele><time>2026-04-18T08:14:39.998Z</time></trkpt><trkpt lat="47.72839191526786" lon="12.097165549577486"><ele>495.0</ele><time>2026-04-18T08:14:40.998Z</time></trkpt><trkpt lat="47.728281025700255" lon="12.097117413168284"><ele>495.0</ele><time>2026-04-18T08:14:41.999Z</time></trkpt><trkpt lat="47.72816858388925" lon="12.097056389283845"><ele>495.25</ele><time>2026-04-18T08:14:42.999Z</time></trkpt><trkpt lat="47.72805833070711" lon="12.096984162275715"><ele>495.5</ele><time>2026-04-18T08:14:43.999Z</time></trkpt><trkpt lat="47.727953629059776" lon="12.096896428829966"><ele>495.75</ele><time>2026-04-18T08:14:44.999Z</time></trkpt><trkpt lat="47.727858760159286" lon="12.096791735944972"><ele>496.0</ele><time>2026-04-18T08:14:45.999Z</time></trkpt><trkpt lat="47.72777435924582" lon="12.096670682382044"><ele>496.0</ele><time>2026-04-18T08:14:46.999Z</time></trkpt><trkpt lat="47.72769876131498" lon="12.096535005284592"><ele>496.0</ele><time>2026-04-18T08:14:47.999Z</time></trkpt><trkpt lat="47.72763258800297" lon="12.096387336688865"><ele>496.0</ele><time>2026-04-18T08:14:48.999Z</time></trkpt><trkpt lat="47.72757166951898" lon="12.096237439034711"><ele>496.0</ele><time>2026-04-18T08:14:49.999Z</time></trkpt><trkpt lat="47.72751266472431" lon="12.096089163608843"><ele>496.0</ele><time>2026-04-18T08:14:50.999Z</time></trkpt><trkpt lat="47.72745106357611" lon="12.095946149711512"><ele>496.0</ele><time>2026-04-18T08:14:51.999Z</time></trkpt><trkpt lat="47.727392667454616" lon="12.095810587976247"><ele>496.0</ele><time>2026-04-18T08:14:52.999Z</time></trkpt><trkpt lat="47.72734123931075" lon="12.095689935052912"><ele>496.0</ele><time>2026-04-18T08:14:53.999Z</time></trkpt><trkpt lat="47.727291104548605" lon="12.095572391163737"><ele>496.0</ele><time>2026-04-18T08:14:54.999Z</time></trkpt><trkpt lat="47.72723285531816" lon="12.095450427208679"><ele>496.20000000000005</ele><time>2026-04-18T08:14:55.999Z</time></trkpt><trkpt lat="47.72716523642183" lon="12.09533102120369"><ele>496.40000000000003</ele><time>2026-04-18T08:14:56.999Z</time></trkpt><trkpt lat="47.727094239171734" lon="12.095213097321242"><ele>496.6</ele><time>2026-04-18T08:14:57.999Z</time></trkpt><trkpt lat="47.727014968918496" lon="12.09510002455207"><ele>496.8</ele><time>2026-04-18T08:14:58.999Z</time></trkpt><trkpt lat="47.726926019307754" lon="12.094994777157297"><ele>497.0</ele><time>2026-04-18T08:14:59.999Z</time></trkpt><trkpt lat="47.726831265938884" lon="12.094897821146791"><ele>498.8</ele><time>2026-04-18T08:15:00.999Z</time></trkpt><trkpt lat="47.726730196741514" lon="12.094805140144501"><ele>500.6</ele><time>2026-04-18T08:15:01.999Z</time></trkpt><trkpt lat="47.72663201894396" lon="12.094726204823342"><ele>502.40000000000003</ele><time>2026-04-18T08:15:02.999Z</time></trkpt><trkpt lat="47.72653680709331" lon="12.094651682636057"><ele>504.20000000000005</ele><time>2026-04-18T08:15:03.999Z</time></trkpt><trkpt lat="47.72645471472164" lon="12.09458356638172"><ele>506.0</ele><time>2026-04-18T08:15:04.999Z</time></trkpt><trkpt lat="47.72636583982228" lon="12.094509131406493"><ele>506.0</ele><time>2026-04-18T08:15:05.999Z</time></trkpt><trkpt lat="47.72626863175804" lon="12.094432726391107"><ele>506.0</ele><time>2026-04-18T08:15:06.999Z</time></trkpt><trkpt lat="47.72616676983396" lon="12.09436208717883"><ele>506.0</ele><time>2026-04-18T08:15:07.999Z</time></trkpt><trkpt lat="47.726071315214256" lon="12.094302986583061"><ele>506.0</ele><time>2026-04-18T08:15:08.999Z</time></trkpt><trkpt lat="47.725983112059446" lon="12.094269828050784"><ele>506.0</ele><time>2026-04-18T08:15:09.999Z</time></trkpt><trkpt lat="47.72591481039869" lon="12.094262695515825"><ele>505.66666666666663</ele><time>2026-04-18T08:15:10.999Z</time></trkpt><trkpt lat="47.725822704313174" lon="12.094262454349963"><ele>505.3333333333333</ele><time>2026-04-18T08:15:12.999Z</time></trkpt><trkpt lat="47.72573151294699" lon="12.094255351479958"><ele>505.0</ele><time>2026-04-18T08:15:14.999Z</time></trkpt><trkpt lat="47.72566582214226" lon="12.094243537999617"><ele>504.66666666666663</ele><time>2026-04-18T08:15:15.999Z</time></trkpt><trkpt lat="47.72555783885381" lon="12.094232210748649"><ele>504.3333333333333</ele><time>2026-04-18T08:15:17.999Z</time></trkpt><trkpt lat="47.72546806550759" lon="12.094230647746034"><ele>504.0</ele><time>2026-04-18T08:15:19.999Z</time></trkpt><trkpt lat="47.725344997365" lon="12.094203563384603"><ele>504.0</ele><time>2026-04-18T08:15:21.999Z</time></trkpt><trkpt lat="47.72525936327324" lon="12.094178898485138"><ele>504.0</ele><time>2026-04-18T08:15:22.999Z</time></trkpt><trkpt lat="47.7251617760899" lon="12.094163637182728"><ele>504.0</ele><time>2026-04-18T08:15:23.999Z</time></trkpt><trkpt lat="47.72507159037361" lon="12.094168283613728"><ele>504.0</ele><time>2026-04-18T08:15:24.999Z</time></trkpt><trkpt lat="47.72498833709902" lon="12.094199528929726"><ele>504.0</ele><time>2026-04-18T08:15:25.999Z</time></trkpt><trkpt lat="47.72491619096751" lon="12.094249085230102"><ele>504.0</ele><time>2026-04-18T08:15:26.999Z</time></trkpt><trkpt lat="47.72485920294989" lon="12.094301508223134"><ele>503.79999999999995</ele><time>2026-04-18T08:15:27.999Z</time></trkpt><trkpt lat="47.724782036532865" lon="12.094396048949994"><ele>503.59999999999997</ele><time>2026-04-18T08:15:29.999Z</time></trkpt><trkpt lat="47.724704682479555" lon="12.094497332045787"><ele>503.4</ele><time>2026-04-18T08:15:31.999Z</time></trkpt><trkpt lat="47.72460764485065" lon="12.094605123398678"><ele>503.2</ele><time>2026-04-18T08:15:33.999Z</time></trkpt><trkpt lat="47.72449343356501" lon="12.094588859031386"><ele>503.0</ele><time>2026-04-18T08:15:35.999Z</time></trkpt><trkpt lat="47.72444372181239" lon="12.094520665760076"><ele>504.4</ele><time>2026-04-18T08:15:36.999Z</time></trkpt><trkpt lat="47.72439489409708" lon="12.094425682571732"><ele>505.79999999999995</ele><time>2026-04-18T08:15:37.999Z</time></trkpt><trkpt lat="47.72433249573555" lon="12.094316559111006"><ele>507.2</ele><time>2026-04-18T08:15:38.999Z</time></trkpt><trkpt lat="47.7242475499742" lon="12.094186034532276"><ele>508.6</ele><time>2026-04-18T08:15:39.999Z</time></trkpt><trkpt lat="47.72414753201377" lon="12.094028987608878"><ele>510.0</ele><time>2026-04-18T08:15:40.999Z</time></trkpt><trkpt lat="47.72407222990539" lon="12.093905148109938"><ele>510.0</ele><time>2026-04-18T08:15:41.999Z</time></trkpt><trkpt lat="47.72398596834654" lon="12.093775594245795"><ele>510.0</ele><time>2026-04-18T08:15:42.999Z</time></trkpt><trkpt lat="47.723904424033584" lon="12.093664410834785"><ele>510.0</ele><time>2026-04-18T08:15:43.999Z</time></trkpt><trkpt lat="47.72383439728378" lon="12.093581689594135"><ele>510.0</ele><time>2026-04-18T08:15:44.999Z</time></trkpt><trkpt lat="47.723775811589356" lon="12.093482993568559"><ele>510.0</ele><time>2026-04-18T08:15:45.999Z</time></trkpt><trkpt lat="47.72371629091986" lon="12.093414228291419"><ele>510.0</ele><time>2026-04-18T08:15:46.999Z</time></trkpt><trkpt lat="47.72366204502394" lon="12.093353667667305"><ele>510.0</ele><time>2026-04-18T08:15:47.999Z</time></trkpt><trkpt lat="47.723604390035675" lon="12.093289301009257"><ele>510.0</ele><time>2026-04-18T08:15:48.999Z</time></trkpt><trkpt lat="47.72354730590947" lon="12.093227555336414"><ele>510.0</ele><time>2026-04-18T08:15:49.999Z</time></trkpt><trkpt lat="47.72349026617371" lon="12.093165994741737"><ele>510.0</ele><time>2026-04-18T08:15:50.999Z</time></trkpt><trkpt lat="47.7234379659902" lon="12.093109549036786"><ele>510.0</ele><time>2026-04-18T08:15:51.999Z</time></trkpt><trkpt lat="47.72334203255893" lon="12.093033031525776"><ele>511.2</ele><time>2026-04-18T08:15:53.999Z</time></trkpt><trkpt lat="47.723253934804625" lon="12.092893047491021"><ele>512.4</ele><time>2026-04-18T08:15:55.999Z</time></trkpt><trkpt lat="47.72320410125888" lon="12.092829288128444"><ele>513.6</ele><time>2026-04-18T08:15:56.999Z</time></trkpt><trkpt lat="47.72314545954939" lon="12.092781862007424"><ele>514.8</ele><time>2026-04-18T08:15:57.999Z</time></trkpt><trkpt lat="47.72306250690485" lon="12.092650089039866"><ele>516.0</ele><time>2026-04-18T08:15:59.999Z</time></trkpt><trkpt lat="47.72302132192739" lon="12.09251863697921"><ele>516.3333333333334</ele><time>2026-04-18T08:16:01.999Z</time></trkpt><trkpt lat="47.72294439296796" lon="12.092378391464628"><ele>516.6666666666666</ele><time>2026-04-18T08:16:03.999Z</time></trkpt><trkpt lat="47.722903929314384" lon="12.092287950851011"><ele>517.0</ele><time>2026-04-18T08:16:04.999Z</time></trkpt><trkpt lat="47.72288104141451" lon="12.092189180208718"><ele>517.3333333333333</ele><time>2026-04-18T08:16:05.999Z</time></trkpt><trkpt lat="47.722830711603834" lon="12.092130210107873"><ele>517.6666666666666</ele><time>2026-04-18T08:16:06.999Z</time></trkpt><trkpt lat="47.72274850581271" lon="12.092005000908715"><ele>518.0</ele><time>2026-04-18T08:16:08.999Z</time></trkpt><trkpt lat="47.72267026991951" lon="12.091876872427868"><ele>518.0</ele><time>2026-04-18T08:16:10.999Z</time></trkpt><trkpt lat="47.72260892884633" lon="12.091843233138212"><ele>518.0</ele><time>2026-04-18T08:16:11.999Z</time></trkpt><trkpt lat="47.72253794586204" lon="12.091774740458904"><ele>518.0</ele><time>2026-04-18T08:16:14.999Z</time></trkpt><trkpt lat="47.722447549107585" lon="12.091690742997182"><ele>518.0</ele><time>2026-04-18T08:16:16.999Z</time></trkpt><trkpt lat="47.72238679902318" lon="12.091639246013306"><ele>518.0</ele><time>2026-04-18T08:16:17.999Z</time></trkpt><trkpt lat="47.72232510075462" lon="12.091601347408409"><ele>518.0</ele><time>2026-04-18T08:16:19.999Z</time></trkpt><trkpt lat="47.72223377141091" lon="12.091530904599434"><ele>518.0</ele><time>2026-04-18T08:17:30Z</time></trkpt><trkpt lat="47.72217112120163" lon="12.091489755706762"><ele>518.0</ele><time>2026-04-18T08:17:31Z</time></trkpt><trkpt lat="47.72209877604625" lon="12.091439218710208"><ele>518.0</ele><time>2026-04-18T08:17:32Z</time></trkpt><trkpt lat="47.72202580924903" lon="12.091385302347605"><ele>518.0</ele><time>2026-04-18T08:17:33Z</time></trkpt><trkpt lat="47.721967170009" lon="12.091343382185103"><ele>518.0</ele><time>2026-04-18T08:17:34Z</time></trkpt><trkpt lat="47.72185663853509" lon="12.091263295270725"><ele>518.0</ele><time>2026-04-18T08:17:36Z</time></trkpt><trkpt lat="47.721751609624015" lon="12.09118965887822"><ele>518.0</ele><time>2026-04-18T08:17:38Z</time></trkpt><trkpt lat="47.721661949001906" lon="12.091120386504045"><ele>518.0</ele><time>2026-04-18T08:17:40Z</time></trkpt><trkpt lat="47.72157743028187" lon="12.091044290489108"><ele>518.0</ele><time>2026-04-18T08:17:42Z</time></trkpt><trkpt lat="47.72148169386185" lon="12.09096117894812"><ele>518.0</ele><time>2026-04-18T08:17:44Z</time></trkpt><trkpt lat="47.72142312962792" lon="12.090921278536047"><ele>518.0</ele><time>2026-04-18T08:17:45Z</time></trkpt><trkpt lat="47.721372382914595" lon="12.090859841380361"><ele>518.0</ele><time>2026-04-18T08:17:46Z</time></trkpt><trkpt lat="47.72132281921812" lon="12.090794531546818"><ele>519.1428571428571</ele><time>2026-04-18T08:17:47Z</time></trkpt><trkpt lat="47.7212601883782" lon="12.090753696042515"><ele>520.2857142857142</ele><time>2026-04-18T08:17:48Z</time></trkpt><trkpt lat="47.721209857227365" lon="12.0906952743083"><ele>521.4285714285714</ele><time>2026-04-18T08:17:49Z</time></trkpt><trkpt lat="47.72116423016361" lon="12.090630336554172"><ele>522.5714285714286</ele><time>2026-04-18T08:17:50Z</time></trkpt><trkpt lat="47.72105955920016" lon="12.090540210761215"><ele>523.7142857142857</ele><time>2026-04-18T08:17:52Z</time></trkpt><trkpt lat="47.72100151020335" lon="12.090502665050218"><ele>524.8571428571429</ele><time>2026-04-18T08:17:53Z</time></trkpt><trkpt lat="47.720939337684" lon="12.090461313587674"><ele>526.0</ele><time>2026-04-18T08:17:54Z</time></trkpt><trkpt lat="47.720875564652744" lon="12.090419031159334"><ele>526.0</ele><time>2026-04-18T08:17:55Z</time></trkpt><trkpt lat="47.72080486285729" lon="12.09040584263223"><ele>526.0</ele><time>2026-04-18T08:17:56Z</time></trkpt><trkpt lat="47.72074257830164" lon="12.090357904318033"><ele>526.0</ele><time>2026-04-18T08:17:57Z</time></trkpt><trkpt lat="47.720679393298" lon="12.090353455121969"><ele>526.0</ele><time>2026-04-18T08:17:58Z</time></trkpt><trkpt lat="47.72056464083165" lon="12.090313652627255"><ele>526.0</ele><time>2026-04-18T08:18:00Z</time></trkpt><trkpt lat="47.720445505134215" lon="12.090273529786932"><ele>526.0</ele><time>2026-04-18T08:18:02Z</time></trkpt><trkpt lat="47.720375958595525" lon="12.090271593570595"><ele>526.0</ele><time>2026-04-18T08:18:03Z</time></trkpt><trkpt lat="47.72030311330066" lon="12.090245882621945"><ele>526.0</ele><time>2026-04-18T08:18:04Z</time></trkpt><trkpt lat="47.72022944922641" lon="12.090239347002917"><ele>526.0</ele><time>2026-04-18T08:18:05Z</time></trkpt><trkpt lat="47.720159899889275" lon="12.090217125599867"><ele>526.0</ele><time>2026-04-18T08:18:06Z</time></trkpt><trkpt lat="47.72009639769367" lon="12.090179189264049"><ele>526.0</ele><time>2026-04-18T08:18:07Z</time></trkpt><trkpt lat="47.72003258060479" lon="12.090163546798081"><ele>526.0</ele><time>2026-04-18T08:18:08Z</time></trkpt><trkpt lat="47.719977344229235" lon="12.09011574994896"><ele>526.0</ele><time>2026-04-18T08:18:09Z</time></trkpt><trkpt lat="47.71986809952101" lon="12.090034465907678"><ele>527.6666666666667</ele><time>2026-04-18T08:18:11Z</time></trkpt><trkpt lat="47.71981652037428" lon="12.089956260253132"><ele>529.3333333333334</ele><time>2026-04-18T08:18:12Z</time></trkpt><trkpt lat="47.719763979292026" lon="12.089870830379496"><ele>531.0</ele><time>2026-04-18T08:18:13Z</time></trkpt><trkpt lat="47.71971330066968" lon="12.089777853010117"><ele>532.6666666666666</ele><time>2026-04-18T08:18:14Z</time></trkpt><trkpt lat="47.719667509039596" lon="12.089683279921841"><ele>534.3333333333333</ele><time>2026-04-18T08:18:15Z</time></trkpt><trkpt lat="47.71960714431094" lon="12.089528802541327"><ele>536.0</ele><time>2026-04-18T08:18:17Z</time></trkpt><trkpt lat="47.71955551530155" lon="12.08937786507479"><ele>536.6666666666666</ele><time>2026-04-18T08:18:19Z</time></trkpt><trkpt lat="47.71951951932837" lon="12.08930079604157"><ele>537.3333333333333</ele><time>2026-04-18T08:18:20Z</time></trkpt><trkpt lat="47.71947532682278" lon="12.089215265584214"><ele>538.0</ele><time>2026-04-18T08:18:21Z</time></trkpt><trkpt lat="47.71940921959436" lon="12.089115519155305"><ele>538.6666666666666</ele><time>2026-04-18T08:18:22Z</time></trkpt><trkpt lat="47.7193338149191" lon="12.089024261387978"><ele>539.3333333333334</ele><time>2026-04-18T08:18:23Z</time></trkpt><trkpt lat="47.71925298715796" lon="12.088954663888357"><ele>540.0</ele><time>2026-04-18T08:18:24Z</time></trkpt><trkpt lat="47.719169301100294" lon="12.088909340007916"><ele>540.8333333333334</ele><time>2026-04-18T08:18:25Z</time></trkpt><trkpt lat="47.71909258395657" lon="12.088870449602991"><ele>541.6666666666666</ele><time>2026-04-18T08:18:26Z</time></trkpt><trkpt lat="47.719021856661385" lon="12.08884824636284"><ele>542.5</ele><time>2026-04-18T08:18:27Z</time></trkpt><trkpt lat="47.718952266745156" lon="12.088821425336487"><ele>543.3333333333333</ele><time>2026-04-18T08:18:28Z</time></trkpt><trkpt lat="47.71887989065356" lon="12.088793393717362"><ele>544.1666666666666</ele><time>2026-04-18T08:18:29Z</time></trkpt><trkpt lat="47.718799142442364" lon="12.088777355551237"><ele>545.0</ele><time>2026-04-18T08:18:30Z</time></trkpt><trkpt lat="47.71871734410807" lon="12.08877440424362"><ele>545.0</ele><time>2026-04-18T08:18:31Z</time></trkpt><trkpt lat="47.71863994689212" lon="12.088769492875802"><ele>545.0</ele><time>2026-04-18T08:18:32Z</time></trkpt><trkpt lat="47.71856467260378" lon="12.088752148912999"><ele>545.0</ele><time>2026-04-18T08:18:33Z</time></trkpt><trkpt lat="47.718486883300834" lon="12.088736000011744"><ele>545.0</ele><time>2026-04-18T08:18:34Z</time></trkpt><trkpt lat="47.71839938758136" lon="12.088708098310004"><ele>545.0</ele><time>2026-04-18T08:18:35Z</time></trkpt><trkpt lat="47.718302641043984" lon="12.088672181707365"><ele>545.0</ele><time>2026-04-18T08:18:36Z</time></trkpt><trkpt lat="47.71822531365728" lon="12.088631714244737"><ele>543.5</ele><time>2026-04-18T08:18:37Z</time></trkpt><trkpt lat="47.718154435804976" lon="12.088586733851423"><ele>542.0</ele><time>2026-04-18T08:18:38Z</time></trkpt><trkpt lat="47.7180852461466" lon="12.088538527437004"><ele>540.5</ele><time>2026-04-18T08:18:39Z</time></trkpt><trkpt lat="47.718016311800234" lon="12.08849149168669"><ele>539.0</ele><time>2026-04-18T08:18:40Z</time></trkpt><trkpt lat="47.71794962300945" lon="12.088436396990804"><ele>537.5</ele><time>2026-04-18T08:18:41Z</time></trkpt><trkpt lat="47.71788310566489" lon="12.088375768013297"><ele>536.0</ele><time>2026-04-18T08:18:42Z</time></trkpt><trkpt lat="47.717819024845724" lon="12.088310883345027"><ele>536.5</ele><time>2026-04-18T08:18:43Z</time></trkpt><trkpt lat="47.71775744733412" lon="12.088240360452723"><ele>537.0</ele><time>2026-04-18T08:18:44Z</time></trkpt><trkpt lat="47.717694861068885" lon="12.088164672607402"><ele>537.5</ele><time>2026-04-18T08:18:45Z</time></trkpt><trkpt lat="47.71763585483426" lon="12.088087178593799"><ele>538.0</ele><time>2026-04-18T08:18:46Z</time></trkpt><trkpt lat="47.71757691024598" lon="12.08800796876071"><ele>538.5</ele><time>2026-04-18T08:18:47Z</time></trkpt><trkpt lat="47.71752177786608" lon="12.087924507709412"><ele>539.0</ele><time>2026-04-18T08:18:48Z</time></trkpt><trkpt lat="47.71746838651542" lon="12.0878362169047"><ele>539.0</ele><time>2026-04-18T08:18:49Z</time></trkpt><trkpt lat="47.717422061974496" lon="12.087741953114271"><ele>539.0</ele><time>2026-04-18T08:18:50Z</time></trkpt><trkpt lat="47.71737673382451" lon="12.087648664408281"><ele>539.0</ele><time>2026-04-18T08:18:51Z</time></trkpt><trkpt lat="47.71733275498812" lon="12.087554747371064"><ele>539.0</ele><time>2026-04-18T08:18:52Z</time></trkpt><trkpt lat="47.71728747915131" lon="12.087459558411158"><ele>539.0</ele><time>2026-04-18T08:18:53Z</time></trkpt><trkpt lat="47.71724184337437" lon="12.08735914357656"><ele>539.0</ele><time>2026-04-18T08:18:54Z</time></trkpt><trkpt lat="47.717197501594825" lon="12.087262789380901"><ele>543.6</ele><time>2026-04-18T08:18:55Z</time></trkpt><trkpt lat="47.71715869097347" lon="12.087183157289749"><ele>548.2</ele><time>2026-04-18T08:18:56Z</time></trkpt><trkpt lat="47.71708884398905" lon="12.087042561191273"><ele>552.8000000000001</ele><time>2026-04-18T08:18:58Z</time></trkpt><trkpt lat="47.71701365696521" lon="12.086897131640384"><ele>557.4</ele><time>2026-04-18T08:19:00Z</time></trkpt><trkpt lat="47.71696946797295" lon="12.086809635675882"><ele>562.0</ele><time>2026-04-18T08:19:01Z</time></trkpt><trkpt lat="47.7169205938629" lon="12.086721686477834"><ele>561.7142857142858</ele><time>2026-04-18T08:19:02Z</time></trkpt><trkpt lat="47.71686821527819" lon="12.086633728973357"><ele>561.4285714285714</ele><time>2026-04-18T08:19:03Z</time></trkpt><trkpt lat="47.71681879454105" lon="12.086548286497877"><ele>561.1428571428571</ele><time>2026-04-18T08:19:04Z</time></trkpt><trkpt lat="47.716771073190074" lon="12.086468254860906"><ele>560.8571428571429</ele><time>2026-04-18T08:19:05Z</time></trkpt><trkpt lat="47.71672696409084" lon="12.086389411111057"><ele>560.5714285714286</ele><time>2026-04-18T08:19:06Z</time></trkpt><trkpt lat="47.71668425657736" lon="12.086309566050119"><ele>560.2857142857143</ele><time>2026-04-18T08:19:07Z</time></trkpt><trkpt lat="47.7166370343957" lon="12.086228308837569"><ele>560.0</ele><time>2026-04-18T08:19:08Z</time></trkpt><trkpt lat="47.71657811503807" lon="12.086139839602362"><ele>562.6</ele><time>2026-04-18T08:19:09Z</time></trkpt><trkpt lat="47.716512340944924" lon="12.086052603986815"><ele>565.2</ele><time>2026-04-18T08:19:10Z</time></trkpt><trkpt lat="47.716440208662924" lon="12.085967091392176"><ele>567.8</ele><time>2026-04-18T08:19:11Z</time></trkpt><trkpt lat="47.716361601444234" lon="12.085891735612632"><ele>570.4</ele><time>2026-04-18T08:19:12Z</time></trkpt><trkpt lat="47.71627035565418" lon="12.08585093514837"><ele>573.0</ele><time>2026-04-18T08:19:13Z</time></trkpt><trkpt lat="47.71618839884597" lon="12.085832881437678"><ele>573.0</ele><time>2026-04-18T08:19:14Z</time></trkpt><trkpt lat="47.716120193090944" lon="12.085827564148834"><ele>573.0</ele><time>2026-04-18T08:19:15Z</time></trkpt><trkpt lat="47.71605178274219" lon="12.085813662913605"><ele>573.0</ele><time>2026-04-18T08:19:16Z</time></trkpt><trkpt lat="47.715966907650326" lon="12.085799660421106"><ele>573.0</ele><time>2026-04-18T08:19:17Z</time></trkpt><trkpt lat="47.71587109038628" lon="12.085770688368491"><ele>573.0</ele><time>2026-04-18T08:19:18Z</time></trkpt><trkpt lat="47.71578065402843" lon="12.085709973225287"><ele>573.0</ele><time>2026-04-18T08:19:19Z</time></trkpt><trkpt lat="47.71570930590955" lon="12.085629773339967"><ele>572.6</ele><time>2026-04-18T08:19:20Z</time></trkpt><trkpt lat="47.71564211835334" lon="12.085542355737172"><ele>572.1999999999999</ele><time>2026-04-18T08:19:21Z</time></trkpt><trkpt lat="47.71557505981054" lon="12.085447132404136"><ele>571.8</ele><time>2026-04-18T08:19:22Z</time></trkpt><trkpt lat="47.715500418950256" lon="12.085350906217563"><ele>571.4</ele><time>2026-04-18T08:19:23Z</time></trkpt><trkpt lat="47.71542637125778" lon="12.085255930550119"><ele>571.0</ele><time>2026-04-18T08:19:24Z</time></trkpt><trkpt lat="47.71536300775011" lon="12.085171548431452"><ele>570.5</ele><time>2026-04-18T08:19:25Z</time></trkpt><trkpt lat="47.7151601342794" lon="12.084972802136859"><ele>570.0</ele><time>2026-04-18T08:19:28Z</time></trkpt><trkpt lat="47.715074475581936" lon="12.084934765324974"><ele>569.5</ele><time>2026-04-18T08:19:29Z</time></trkpt><trkpt lat="47.7149853128086" lon="12.084923020334559"><ele>569.0</ele><time>2026-04-18T08:19:30Z</time></trkpt><trkpt lat="47.71490093461605" lon="12.084930284543859"><ele>569.0</ele><time>2026-04-18T08:19:31Z</time></trkpt><trkpt lat="47.71481708618363" lon="12.084952412792099"><ele>569.0</ele><time>2026-04-18T08:19:32Z</time></trkpt><trkpt lat="47.714729350055094" lon="12.084956520927012"><ele>569.0</ele><time>2026-04-18T08:19:33Z</time></trkpt><trkpt lat="47.71464875880876" lon="12.084976037082814"><ele>569.0</ele><time>2026-04-18T08:19:34Z</time></trkpt><trkpt lat="47.71457444530251" lon="12.084990510595011"><ele>569.0</ele><time>2026-04-18T08:19:35Z</time></trkpt><trkpt lat="47.714505026888325" lon="12.085015484344778"><ele>569.0</ele><time>2026-04-18T08:19:36Z</time></trkpt><trkpt lat="47.71443428145699" lon="12.085014667995958"><ele>571.3333333333333</ele><time>2026-04-18T08:19:37Z</time></trkpt><trkpt lat="47.71436348637526" lon="12.085008860276506"><ele>573.6666666666666</ele><time>2026-04-18T08:19:38Z</time></trkpt><trkpt lat="47.71428700834179" lon="12.084982124409974"><ele>576.0</ele><time>2026-04-18T08:19:39Z</time></trkpt><trkpt lat="47.71421258369166" lon="12.084933482072492"><ele>578.3333333333334</ele><time>2026-04-18T08:19:40Z</time></trkpt><trkpt lat="47.714147654230935" lon="12.084857111144693"><ele>580.6666666666667</ele><time>2026-04-18T08:19:41Z</time></trkpt><trkpt lat="47.7140928574353" lon="12.084767696685727"><ele>583.0</ele><time>2026-04-18T08:19:42Z</time></trkpt><trkpt lat="47.71404489590226" lon="12.084676471732847"><ele>583.0000000000001</ele><time>2026-04-18T08:19:43Z</time></trkpt><trkpt lat="47.71400273564123" lon="12.084586844159098"><ele>583.0</ele><time>2026-04-18T08:19:44Z</time></trkpt><trkpt lat="47.713961532170586" lon="12.084498437093027"><ele>583.0</ele><time>2026-04-18T08:19:45Z</time></trkpt><trkpt lat="47.713929807487894" lon="12.084405067089653"><ele>583.0</ele><time>2026-04-18T08:19:46Z</time></trkpt><trkpt lat="47.71390545283547" lon="12.084308205618946"><ele>583.0</ele><time>2026-04-18T08:19:47Z</time></trkpt><trkpt lat="47.71387427985684" lon="12.084212847629379"><ele>583.0000000000001</ele><time>2026-04-18T08:19:48Z</time></trkpt><trkpt lat="47.713843207896815" lon="12.08412458377371"><ele>583.0</ele><time>2026-04-18T08:19:49Z</time></trkpt><trkpt lat="47.71381212166262" lon="12.08403111716628"><ele>582.8333333333334</ele><time>2026-04-18T08:19:50Z</time></trkpt><trkpt lat="47.713777497010796" lon="12.083930337068614"><ele>582.6666666666667</ele><time>2026-04-18T08:19:51Z</time></trkpt><trkpt lat="47.713734614880295" lon="12.083825111965824"><ele>582.5</ele><time>2026-04-18T08:19:52Z</time></trkpt><trkpt lat="47.713681816015615" lon="12.083716122434689"><ele>582.3333333333334</ele><time>2026-04-18T08:19:53Z</time></trkpt><trkpt lat="47.713613262979706" lon="12.083626610588826"><ele>582.1666666666666</ele><time>2026-04-18T08:19:54Z</time></trkpt><trkpt lat="47.713538523371376" lon="12.083580229449483"><ele>582.0</ele><time>2026-04-18T08:19:55Z</time></trkpt><trkpt lat="47.713473889757786" lon="12.083576752546525"><ele>584.0</ele><time>2026-04-18T08:19:56Z</time></trkpt><trkpt lat="47.713405322270525" lon="12.083594261794788"><ele>586.0</ele><time>2026-04-18T08:19:57Z</time></trkpt><trkpt lat="47.71333253836994" lon="12.08361334784485"><ele>588.0</ele><time>2026-04-18T08:19:58Z</time></trkpt><trkpt lat="47.71325611458376" lon="12.083630656252986"><ele>590.0</ele><time>2026-04-18T08:19:59Z</time></trkpt><trkpt lat="47.713183617330984" lon="12.083633155043646"><ele>592.0</ele><time>2026-04-18T08:20:00Z</time></trkpt><trkpt lat="47.713109459716854" lon="12.083625392212696"><ele>594.0</ele><time>2026-04-18T08:20:01Z</time></trkpt><trkpt lat="47.7130401292758" lon="12.08360148799774"><ele>596.0</ele><time>2026-04-18T08:20:02Z</time></trkpt><trkpt lat="47.71297429346714" lon="12.083577169854733"><ele>596.0</ele><time>2026-04-18T08:20:03Z</time></trkpt><trkpt lat="47.71290757065978" lon="12.083552739438884"><ele>596.0</ele><time>2026-04-18T08:20:04Z</time></trkpt><trkpt lat="47.71283809716968" lon="12.083522537610866"><ele>596.0</ele><time>2026-04-18T08:20:05Z</time></trkpt><trkpt lat="47.712767828525784" lon="12.083491064490785"><ele>596.0</ele><time>2026-04-18T08:20:05.999Z</time></trkpt><trkpt lat="47.71269973707715" lon="12.083453521812261"><ele>596.0</ele><time>2026-04-18T08:20:06.999Z</time></trkpt><trkpt lat="47.712639522116156" lon="12.08341089036189"><ele>596.0</ele><time>2026-04-18T08:20:07.999Z</time></trkpt><trkpt lat="47.712582819137346" lon="12.083370024745127"><ele>596.0</ele><time>2026-04-18T08:20:08.999Z</time></trkpt><trkpt lat="47.7124859172502" lon="12.083282791447067"><ele>597.2</ele><time>2026-04-18T08:20:10.999Z</time></trkpt><trkpt lat="47.71237783902172" lon="12.083173072634848"><ele>598.4000000000001</ele><time>2026-04-18T08:20:12.999Z</time></trkpt><trkpt lat="47.71231897138271" lon="12.083101461254806"><ele>599.6</ele><time>2026-04-18T08:20:13.999Z</time></trkpt><trkpt lat="47.71226774936868" lon="12.083023757153326"><ele>600.8000000000001</ele><time>2026-04-18T08:20:14.999Z</time></trkpt><trkpt lat="47.71219443239035" lon="12.082914856940869"><ele>602.0</ele><time>2026-04-18T08:20:16.999Z</time></trkpt><trkpt lat="47.71213614386944" lon="12.082793799964431"><ele>602.0</ele><time>2026-04-18T08:20:18.999Z</time></trkpt><trkpt lat="47.71210003733083" lon="12.082713054484023"><ele>602.0</ele><time>2026-04-18T08:20:19.999Z</time></trkpt><trkpt lat="47.71205368498929" lon="12.082603655637845"><ele>602.0</ele><time>2026-04-18T08:20:20.999Z</time></trkpt><trkpt lat="47.71201917818475" lon="12.082513135607128"><ele>602.0</ele><time>2026-04-18T08:20:21.999Z</time></trkpt><trkpt lat="47.71196969014535" lon="12.082401163166931"><ele>602.0</ele><time>2026-04-18T08:20:23.999Z</time></trkpt><trkpt lat="47.71190592717312" lon="12.082285629421895"><ele>602.0</ele><time>2026-04-18T08:20:25.999Z</time></trkpt><trkpt lat="47.71181910954419" lon="12.082167790212008"><ele>611.0</ele><time>2026-04-18T08:20:27.999Z</time></trkpt><trkpt lat="47.711729176737464" lon="12.082062018400375"><ele>620.0</ele><time>2026-04-18T08:20:29.999Z</time></trkpt><trkpt lat="47.71164575886245" lon="12.081969339045555"><ele>629.0</ele><time>2026-04-18T08:20:31.999Z</time></trkpt><trkpt lat="47.711525728091736" lon="12.081830466516182"><ele>638.0</ele><time>2026-04-18T08:20:33.999Z</time></trkpt><trkpt lat="47.71147680734946" lon="12.081758478883199"><ele>647.0</ele><time>2026-04-18T08:20:34.999Z</time></trkpt><trkpt lat="47.71139112605859" lon="12.081628857288159"><ele>645.6666666666666</ele><time>2026-04-18T08:20:36.999Z</time></trkpt><trkpt lat="47.71133279670916" lon="12.081540472648488"><ele>644.3333333333334</ele><time>2026-04-18T08:20:37.999Z</time></trkpt><trkpt lat="47.71125461145307" lon="12.081424301924265"><ele>643.0</ele><time>2026-04-18T08:20:39.054Z</time></trkpt><trkpt lat="47.71090105508983" lon="12.081051152800013"><ele>643.0</ele><time>2026-04-18T08:20:44.036Z</time></trkpt><trkpt lat="47.71081062523512" lon="12.080894014979723"><ele>643.0</ele><time>2026-04-18T08:20:46.999Z</time></trkpt><trkpt lat="47.710743299174" lon="12.080833790605388"><ele>643.0</ele><time>2026-04-18T08:20:47.999Z</time></trkpt><trkpt lat="47.71069243598837" lon="12.08076531944136"><ele>643.0</ele><time>2026-04-18T08:20:48.999Z</time></trkpt><trkpt lat="47.71063431916296" lon="12.080713770292624"><ele>643.0</ele><time>2026-04-18T08:20:49.999Z</time></trkpt><trkpt lat="47.71056314657291" lon="12.080670323830898"><ele>643.0</ele><time>2026-04-18T08:20:51Z</time></trkpt><trkpt lat="47.7104843341183" lon="12.08063636866481"><ele>643.5</ele><time>2026-04-18T08:20:52Z</time></trkpt><trkpt lat="47.71039906135498" lon="12.080613146586977"><ele>644.0</ele><time>2026-04-18T08:20:53Z</time></trkpt><trkpt lat="47.71031034056473" lon="12.080602609585473"><ele>644.5</ele><time>2026-04-18T08:20:54Z</time></trkpt><trkpt lat="47.71022661613099" lon="12.080599359432496"><ele>645.0</ele><time>2026-04-18T08:20:55Z</time></trkpt><trkpt lat="47.71015026967598" lon="12.080591822670046"><ele>645.5</ele><time>2026-04-18T08:20:56Z</time></trkpt><trkpt lat="47.71007707534136" lon="12.080589258960323"><ele>646.0</ele><time>2026-04-18T08:20:57Z</time></trkpt><trkpt lat="47.71000165771017" lon="12.080578965353194"><ele>644.8</ele><time>2026-04-18T08:20:57.999Z</time></trkpt><trkpt lat="47.70992262091988" lon="12.080559186415524"><ele>643.5999999999999</ele><time>2026-04-18T08:20:58.999Z</time></trkpt><trkpt lat="47.70983793778928" lon="12.080534720739125"><ele>642.4</ele><time>2026-04-18T08:20:59.999Z</time></trkpt><trkpt lat="47.70974363273335" lon="12.08050067399492"><ele>641.2</ele><time>2026-04-18T08:21:00.999Z</time></trkpt><trkpt lat="47.70965028655613" lon="12.080464507803892"><ele>640.0</ele><time>2026-04-18T08:21:01.999Z</time></trkpt><trkpt lat="47.709562073190305" lon="12.080430727725751"><ele>640.0</ele><time>2026-04-18T08:21:02.999Z</time></trkpt><trkpt lat="47.70947909925821" lon="12.080398087138388"><ele>640.0</ele><time>2026-04-18T08:21:03.999Z</time></trkpt><trkpt lat="47.70939472200296" lon="12.080365256394913"><ele>640.0</ele><time>2026-04-18T08:21:04.999Z</time></trkpt><trkpt lat="47.70930295328061" lon="12.080343734426926"><ele>640.0</ele><time>2026-04-18T08:21:05.999Z</time></trkpt><trkpt lat="47.709206451825644" lon="12.08033371933428"><ele>640.0</ele><time>2026-04-18T08:21:06.999Z</time></trkpt><trkpt lat="47.709107514660744" lon="12.08033213381266"><ele>641.0</ele><time>2026-04-18T08:21:08Z</time></trkpt><trkpt lat="47.70901971462854" lon="12.080344058046133"><ele>642.0</ele><time>2026-04-18T08:21:09Z</time></trkpt><trkpt lat="47.708939615687065" lon="12.080375056155528"><ele>643.0</ele><time>2026-04-18T08:21:10Z</time></trkpt><trkpt lat="47.70885998466426" lon="12.080416176002048"><ele>644.0</ele><time>2026-04-18T08:21:11Z</time></trkpt><trkpt lat="47.70876611697494" lon="12.080461250546298"><ele>645.0</ele><time>2026-04-18T08:21:12Z</time></trkpt><trkpt lat="47.708656157836536" lon="12.080490073676694"><ele>644.75</ele><time>2026-04-18T08:21:13Z</time></trkpt><trkpt lat="47.70853927216741" lon="12.080501727130661"><ele>644.5</ele><time>2026-04-18T08:21:14Z</time></trkpt><trkpt lat="47.70842154249133" lon="12.080504712131454"><ele>644.25</ele><time>2026-04-18T08:21:15Z</time></trkpt><trkpt lat="47.70830744781584" lon="12.080491997731206"><ele>644.0</ele><time>2026-04-18T08:21:16Z</time></trkpt><trkpt lat="47.70819864199812" lon="12.080476362076345"><ele>644.0</ele><time>2026-04-18T08:21:17Z</time></trkpt><trkpt lat="47.70810014170448" lon="12.080448820196105"><ele>644.0</ele><time>2026-04-18T08:21:18Z</time></trkpt><trkpt lat="47.70800992141831" lon="12.08040322452354"><ele>644.0</ele><time>2026-04-18T08:21:19Z</time></trkpt><trkpt lat="47.707929816288484" lon="12.080325074794064"><ele>644.0</ele><time>2026-04-18T08:21:20Z</time></trkpt><trkpt lat="47.70785197481506" lon="12.08022963726504"><ele>644.0</ele><time>2026-04-18T08:21:21Z</time></trkpt><trkpt lat="47.70777815997001" lon="12.080129934324988"><ele>644.0</ele><time>2026-04-18T08:21:22Z</time></trkpt><trkpt lat="47.707699257036644" lon="12.08003492776657"><ele>644.0</ele><time>2026-04-18T08:21:23Z</time></trkpt><trkpt lat="47.70761966959221" lon="12.079933376434072"><ele>644.0</ele><time>2026-04-18T08:21:24Z</time></trkpt><trkpt lat="47.707533934448364" lon="12.079829695867597"><ele>644.0</ele><time>2026-04-18T08:21:25Z</time></trkpt><trkpt lat="47.70744027026734" lon="12.079723947449589"><ele>644.0</ele><time>2026-04-18T08:21:26Z</time></trkpt><trkpt lat="47.7073351408842" lon="12.079628877565897"><ele>644.0</ele><time>2026-04-18T08:21:27Z</time></trkpt><trkpt lat="47.7072236172677" lon="12.079565184165746"><ele>644.0</ele><time>2026-04-18T08:21:28Z</time></trkpt><trkpt lat="47.70710907810497" lon="12.079549880301343"><ele>644.0</ele><time>2026-04-18T08:21:29Z</time></trkpt><trkpt lat="47.706996976760045" lon="12.079558416065531"><ele>644.0</ele><time>2026-04-18T08:21:30Z</time></trkpt><trkpt lat="47.706885702051956" lon="12.079580622295225"><ele>644.5</ele><time>2026-04-18T08:21:31Z</time></trkpt><trkpt lat="47.7067749521216" lon="12.079592550120335"><ele>645.0</ele><time>2026-04-18T08:21:32Z</time></trkpt><trkpt lat="47.70666276263695" lon="12.07959172581455"><ele>645.5</ele><time>2026-04-18T08:21:33Z</time></trkpt><trkpt lat="47.70655050836463" lon="12.079563434610574"><ele>646.0</ele><time>2026-04-18T08:21:34Z</time></trkpt><trkpt lat="47.70644047447303" lon="12.079527089370865"><ele>646.0</ele><time>2026-04-18T08:21:35Z</time></trkpt><trkpt lat="47.70633014662956" lon="12.079503648134166"><ele>646.0</ele><time>2026-04-18T08:21:36Z</time></trkpt><trkpt lat="47.706218445940294" lon="12.079497075125914"><ele>646.0</ele><time>2026-04-18T08:21:37Z</time></trkpt><trkpt lat="47.70611050622142" lon="12.07952365343498"><ele>646.0</ele><time>2026-04-18T08:21:38Z</time></trkpt><trkpt lat="47.70600916215881" lon="12.079573821873836"><ele>646.0</ele><time>2026-04-18T08:21:39Z</time></trkpt><trkpt lat="47.705917289168255" lon="12.07965511622484"><ele>648.0</ele><time>2026-04-18T08:21:40Z</time></trkpt><trkpt lat="47.705839354341094" lon="12.079770710066942"><ele>650.0</ele><time>2026-04-18T08:21:41Z</time></trkpt><trkpt lat="47.70575554468575" lon="12.079891434809154"><ele>652.0</ele><time>2026-04-18T08:21:42Z</time></trkpt><trkpt lat="47.70568671135814" lon="12.080037814096501"><ele>654.0</ele><time>2026-04-18T08:21:43Z</time></trkpt><trkpt lat="47.7056196920774" lon="12.080190739896935"><ele>654.75</ele><time>2026-04-18T08:21:44Z</time></trkpt><trkpt lat="47.70556768745892" lon="12.08034944888173"><ele>655.5</ele><time>2026-04-18T08:21:45Z</time></trkpt><trkpt lat="47.70549676147373" lon="12.080505384834746"><ele>656.25</ele><time>2026-04-18T08:21:46Z</time></trkpt><trkpt lat="47.705386195175564" lon="12.080665308574899"><ele>657.0</ele><time>2026-04-18T08:21:47Z</time></trkpt><trkpt lat="47.70526426540667" lon="12.080872883540337"><ele>658.3333333333334</ele><time>2026-04-18T08:21:48Z</time></trkpt><trkpt lat="47.70515318203524" lon="12.081088753176234"><ele>659.6666666666667</ele><time>2026-04-18T08:21:49Z</time></trkpt><trkpt lat="47.70504221783105" lon="12.081246555768889"><ele>661.0</ele><time>2026-04-18T08:21:50Z</time></trkpt><trkpt lat="47.704943218804715" lon="12.081394765450307"><ele>661.0</ele><time>2026-04-18T08:21:51Z</time></trkpt><trkpt lat="47.70484509670614" lon="12.081534063735187"><ele>661.0</ele><time>2026-04-18T08:21:52Z</time></trkpt><trkpt lat="47.70474503128247" lon="12.081672139139418"><ele>661.0</ele><time>2026-04-18T08:21:53Z</time></trkpt><trkpt lat="47.704643279478844" lon="12.081802908770499"><ele>661.0</ele><time>2026-04-18T08:21:54Z</time></trkpt><trkpt lat="47.70454324804928" lon="12.081934502561241"><ele>660.75</ele><time>2026-04-18T08:21:55Z</time></trkpt><trkpt lat="47.704456465759925" lon="12.082080405684152"><ele>660.5</ele><time>2026-04-18T08:21:56Z</time></trkpt><trkpt lat="47.70438247588048" lon="12.08224429963155"><ele>660.25</ele><time>2026-04-18T08:21:57Z</time></trkpt><trkpt lat="47.70429644597624" lon="12.082395898565519"><ele>660.0</ele><time>2026-04-18T08:21:58Z</time></trkpt><trkpt lat="47.70423550295853" lon="12.082548135759048"><ele>661.5</ele><time>2026-04-18T08:21:59Z</time></trkpt><trkpt lat="47.7041600997247" lon="12.082677265506277"><ele>663.0</ele><time>2026-04-18T08:22:00Z</time></trkpt><trkpt lat="47.70407792364976" lon="12.082798647756537"><ele>664.5</ele><time>2026-04-18T08:22:01Z</time></trkpt><trkpt lat="47.70398980759207" lon="12.082920761019018"><ele>666.0</ele><time>2026-04-18T08:22:02Z</time></trkpt><trkpt lat="47.703899937427835" lon="12.083047533723365"><ele>666.0</ele><time>2026-04-18T08:22:03Z</time></trkpt><trkpt lat="47.70380828571001" lon="12.083173397339838"><ele>666.0</ele><time>2026-04-18T08:22:04Z</time></trkpt><trkpt lat="47.70371342868686" lon="12.083299025559556"><ele>666.0</ele><time>2026-04-18T08:22:05Z</time></trkpt><trkpt lat="47.70361878400351" lon="12.083417941309705"><ele>666.0</ele><time>2026-04-18T08:22:06Z</time></trkpt><trkpt lat="47.70353048405049" lon="12.083526133946297"><ele>667.0</ele><time>2026-04-18T08:22:07Z</time></trkpt><trkpt lat="47.703440785854255" lon="12.083620213828015"><ele>668.0</ele><time>2026-04-18T08:22:08Z</time></trkpt><trkpt lat="47.7033447459526" lon="12.083694563152871"><ele>669.0</ele><time>2026-04-18T08:22:09Z</time></trkpt><trkpt lat="47.70324904318094" lon="12.083765595642932"><ele>670.0</ele><time>2026-04-18T08:22:10Z</time></trkpt><trkpt lat="47.7031573243431" lon="12.083842512724548"><ele>671.0</ele><time>2026-04-18T08:22:11Z</time></trkpt><trkpt lat="47.70305696824603" lon="12.083894194809739"><ele>671.0</ele><time>2026-04-18T08:22:12Z</time></trkpt><trkpt lat="47.70295573520479" lon="12.083942463777046"><ele>671.0</ele><time>2026-04-18T08:22:13Z</time></trkpt><trkpt lat="47.70285405917888" lon="12.083986146348158"><ele>671.0</ele><time>2026-04-18T08:22:14Z</time></trkpt><trkpt lat="47.70275428853917" lon="12.084040049754563"><ele>671.0</ele><time>2026-04-18T08:22:15Z</time></trkpt><trkpt lat="47.70266103530288" lon="12.084116043081545"><ele>671.0</ele><time>2026-04-18T08:22:16Z</time></trkpt><trkpt lat="47.7025559381599" lon="12.08415661993133"><ele>671.1999999999999</ele><time>2026-04-18T08:22:17Z</time></trkpt><trkpt lat="47.70245086077133" lon="12.084184672625717"><ele>671.4</ele><time>2026-04-18T08:22:18Z</time></trkpt><trkpt lat="47.70235228477875" lon="12.084229138794232"><ele>671.6</ele><time>2026-04-18T08:22:19Z</time></trkpt><trkpt lat="47.70225160245028" lon="12.084285223898755"><ele>671.8</ele><time>2026-04-18T08:22:20Z</time></trkpt><trkpt lat="47.70214521107088" lon="12.08428956454041"><ele>672.0</ele><time>2026-04-18T08:22:21Z</time></trkpt><trkpt lat="47.70204298700129" lon="12.084321665193146"><ele>672.0</ele><time>2026-04-18T08:22:22Z</time></trkpt><trkpt lat="47.701942253335" lon="12.084368804731428"><ele>672.0</ele><time>2026-04-18T08:22:23Z</time></trkpt><trkpt lat="47.70184606412401" lon="12.084425663715438"><ele>672.0</ele><time>2026-04-18T08:22:24Z</time></trkpt><trkpt lat="47.70175447804111" lon="12.084484010090783"><ele>672.0</ele><time>2026-04-18T08:22:25Z</time></trkpt><trkpt lat="47.70164726058775" lon="12.084542924583982"><ele>672.0</ele><time>2026-04-18T08:22:26Z</time></trkpt><trkpt lat="47.70153614480047" lon="12.084598578073255"><ele>676.0</ele><time>2026-04-18T08:22:27Z</time></trkpt><trkpt lat="47.70143232125727" lon="12.084668951454336"><ele>680.0</ele><time>2026-04-18T08:22:28Z</time></trkpt><trkpt lat="47.70132896980664" lon="12.084749526997685"><ele>684.0</ele><time>2026-04-18T08:22:29Z</time></trkpt><trkpt lat="47.7012306313657" lon="12.084822103352197"><ele>688.0</ele><time>2026-04-18T08:22:30Z</time></trkpt><trkpt lat="47.70113449563991" lon="12.084907495834772"><ele>691.25</ele><time>2026-04-18T08:22:31Z</time></trkpt><trkpt lat="47.701042780433056" lon="12.085003858650378"><ele>694.5</ele><time>2026-04-18T08:22:32Z</time></trkpt><trkpt lat="47.700948202506424" lon="12.085104260573278"><ele>697.75</ele><time>2026-04-18T08:22:33Z</time></trkpt><trkpt lat="47.70085738875343" lon="12.085205381925014"><ele>701.0</ele><time>2026-04-18T08:22:34Z</time></trkpt><trkpt lat="47.7007621819704" lon="12.085300193130818"><ele>701.0</ele><time>2026-04-18T08:22:35Z</time></trkpt><trkpt lat="47.70067496985188" lon="12.085403668578538"><ele>701.0</ele><time>2026-04-18T08:22:36Z</time></trkpt><trkpt lat="47.70059436206146" lon="12.085514815275971"><ele>701.0</ele><time>2026-04-18T08:22:37Z</time></trkpt><trkpt lat="47.700514376141435" lon="12.085630965962292"><ele>701.0</ele><time>2026-04-18T08:22:38Z</time></trkpt><trkpt lat="47.70044058759549" lon="12.085747945934841"><ele>701.0</ele><time>2026-04-18T08:22:39Z</time></trkpt><trkpt lat="47.70036525658925" lon="12.085869607982877"><ele>700.5</ele><time>2026-04-18T08:22:40Z</time></trkpt><trkpt lat="47.7002834025379" lon="12.085991968157863"><ele>700.0</ele><time>2026-04-18T08:22:41Z</time></trkpt><trkpt lat="47.70020090019414" lon="12.08610677097271"><ele>699.5</ele><time>2026-04-18T08:22:42Z</time></trkpt><trkpt lat="47.700112531284724" lon="12.086197035673306"><ele>699.0</ele><time>2026-04-18T08:22:43Z</time></trkpt><trkpt lat="47.70001470819769" lon="12.086283690942492"><ele>698.2</ele><time>2026-04-18T08:22:44Z</time></trkpt><trkpt lat="47.69992839247127" lon="12.086374234649796"><ele>697.4000000000001</ele><time>2026-04-18T08:22:45Z</time></trkpt><trkpt lat="47.699832260683046" lon="12.086470043459965"><ele>696.6</ele><time>2026-04-18T08:22:46Z</time></trkpt><trkpt lat="47.69975299497814" lon="12.086578233614015"><ele>695.8</ele><time>2026-04-18T08:22:47Z</time></trkpt><trkpt lat="47.69965864328105" lon="12.086683321614572"><ele>695.0</ele><time>2026-04-18T08:22:48Z</time></trkpt><trkpt lat="47.69957908346841" lon="12.086780651496369"><ele>695.0</ele><time>2026-04-18T08:22:49Z</time></trkpt><trkpt lat="47.69950208897622" lon="12.0868870510428"><ele>695.0</ele><time>2026-04-18T08:22:50Z</time></trkpt><trkpt lat="47.69942238822028" lon="12.08698444433711"><ele>695.0</ele><time>2026-04-18T08:22:51Z</time></trkpt><trkpt lat="47.69934370154079" lon="12.087086427569815"><ele>695.0</ele><time>2026-04-18T08:22:52Z</time></trkpt><trkpt lat="47.69926990035812" lon="12.08718688742555"><ele>695.0</ele><time>2026-04-18T08:22:53Z</time></trkpt><trkpt lat="47.69919544568429" lon="12.087287348786575"><ele>695.6</ele><time>2026-04-18T08:22:54Z</time></trkpt><trkpt lat="47.69911862817116" lon="12.087385514658681"><ele>696.2</ele><time>2026-04-18T08:22:55Z</time></trkpt><trkpt lat="47.69903612365757" lon="12.087481737551268"><ele>696.8</ele><time>2026-04-18T08:22:56.001Z</time></trkpt><trkpt lat="47.69895465669206" lon="12.087574242743425"><ele>697.4</ele><time>2026-04-18T08:22:57.001Z</time></trkpt><trkpt lat="47.698866718121344" lon="12.08765632065871"><ele>698.0</ele><time>2026-04-18T08:22:58.001Z</time></trkpt><trkpt lat="47.69877761346871" lon="12.087738397832606"><ele>698.0</ele><time>2026-04-18T08:22:59.001Z</time></trkpt><trkpt lat="47.69869257983" lon="12.087832251813973"><ele>698.0</ele><time>2026-04-18T08:23:00.001Z</time></trkpt><trkpt lat="47.698614853910016" lon="12.087943050190905"><ele>698.0</ele><time>2026-04-18T08:23:01.001Z</time></trkpt><trkpt lat="47.69855342552838" lon="12.088081997703192"><ele>698.0</ele><time>2026-04-18T08:23:02.001Z</time></trkpt><trkpt lat="47.698493500158875" lon="12.0882280047602"><ele>698.0</ele><time>2026-04-18T08:23:03.001Z</time></trkpt><trkpt lat="47.698428837505595" lon="12.088373699708722"><ele>699.5</ele><time>2026-04-18T08:23:04.001Z</time></trkpt><trkpt lat="47.6983607061244" lon="12.088520592886885"><ele>701.0</ele><time>2026-04-18T08:23:05.001Z</time></trkpt><trkpt lat="47.698290327338306" lon="12.088663620374323"><ele>702.5</ele><time>2026-04-18T08:23:06.001Z</time></trkpt><trkpt lat="47.69821144093475" lon="12.088795456092202"><ele>704.0</ele><time>2026-04-18T08:23:07.001Z</time></trkpt><trkpt lat="47.6981319266309" lon="12.088924810475008"><ele>704.0</ele><time>2026-04-18T08:23:08.001Z</time></trkpt><trkpt lat="47.698043806496415" lon="12.089036037181764"><ele>704.0</ele><time>2026-04-18T08:23:09.001Z</time></trkpt><trkpt lat="47.69795064261853" lon="12.089139901859717"><ele>704.0</ele><time>2026-04-18T08:23:10Z</time></trkpt><trkpt lat="47.69786361515887" lon="12.089251848967361"><ele>704.0</ele><time>2026-04-18T08:23:11Z</time></trkpt><trkpt lat="47.697778103925536" lon="12.089359957758656"><ele>706.0</ele><time>2026-04-18T08:23:12Z</time></trkpt><trkpt lat="47.697692211787874" lon="12.089466559507079"><ele>708.0</ele><time>2026-04-18T08:23:13Z</time></trkpt><trkpt lat="47.69760876761897" lon="12.089582623878696"><ele>710.0</ele><time>2026-04-18T08:23:14Z</time></trkpt><trkpt lat="47.69752869814131" lon="12.08970212502872"><ele>712.0</ele><time>2026-04-18T08:23:15Z</time></trkpt><trkpt lat="47.69746210948154" lon="12.089844151204423"><ele>711.25</ele><time>2026-04-18T08:23:16Z</time></trkpt><trkpt lat="47.69740053645838" lon="12.089993555829832"><ele>710.5</ele><time>2026-04-18T08:23:17Z</time></trkpt><trkpt lat="47.697335409463484" lon="12.090141280442209"><ele>709.75</ele><time>2026-04-18T08:23:18Z</time></trkpt><trkpt lat="47.69725856096985" lon="12.0902800022059"><ele>709.0</ele><time>2026-04-18T08:23:19Z</time></trkpt><trkpt lat="47.697175507957326" lon="12.090411293112568"><ele>709.0</ele><time>2026-04-18T08:23:20Z</time></trkpt><trkpt lat="47.69708955938972" lon="12.09053617367419"><ele>709.0</ele><time>2026-04-18T08:23:21Z</time></trkpt><trkpt lat="47.69699832614905" lon="12.090652143445102"><ele>709.0</ele><time>2026-04-18T08:23:22Z</time></trkpt><trkpt lat="47.696904649565546" lon="12.090760203840219"><ele>709.0</ele><time>2026-04-18T08:23:23Z</time></trkpt><trkpt lat="47.69681021868441" lon="12.090859066554039"><ele>709.2</ele><time>2026-04-18T08:23:24Z</time></trkpt><trkpt lat="47.69671498259107" lon="12.090941539752173"><ele>709.4000000000001</ele><time>2026-04-18T08:23:25Z</time></trkpt><trkpt lat="47.696617431146436" lon="12.090995414220997"><ele>709.6</ele><time>2026-04-18T08:23:26Z</time></trkpt><trkpt lat="47.69652071743389" lon="12.091032060497993"><ele>709.8</ele><time>2026-04-18T08:23:27Z</time></trkpt><trkpt lat="47.69642465093282" lon="12.09105891810826"><ele>710.0</ele><time>2026-04-18T08:23:28Z</time></trkpt><trkpt lat="47.69633049545874" lon="12.09109291107068"><ele>710.0</ele><time>2026-04-18T08:23:29Z</time></trkpt><trkpt lat="47.69623862529434" lon="12.09112612376423"><ele>710.0</ele><time>2026-04-18T08:23:30Z</time></trkpt><trkpt lat="47.696141879105305" lon="12.091156580836792"><ele>710.0</ele><time>2026-04-18T08:23:31Z</time></trkpt><trkpt lat="47.6960421929105" lon="12.091182612563983"><ele>710.0</ele><time>2026-04-18T08:23:32Z</time></trkpt><trkpt lat="47.69593736797943" lon="12.091205560879489"><ele>710.0</ele><time>2026-04-18T08:23:33Z</time></trkpt><trkpt lat="47.69582661596752" lon="12.09122010807512"><ele>710.25</ele><time>2026-04-18T08:23:34Z</time></trkpt><trkpt lat="47.69571260816748" lon="12.091223902153121"><ele>710.5</ele><time>2026-04-18T08:23:35Z</time></trkpt><trkpt lat="47.69559556127559" lon="12.09121122450523"><ele>710.75</ele><time>2026-04-18T08:23:36Z</time></trkpt><trkpt lat="47.69547955002253" lon="12.091165933408485"><ele>711.0</ele><time>2026-04-18T08:23:37Z</time></trkpt><trkpt lat="47.6953693669859" lon="12.091088424668577"><ele>711.0</ele><time>2026-04-18T08:23:38Z</time></trkpt><trkpt lat="47.695262750333136" lon="12.0909891272132"><ele>711.0</ele><time>2026-04-18T08:23:39Z</time></trkpt><trkpt lat="47.69517495562783" lon="12.090902030120194"><ele>711.0</ele><time>2026-04-18T08:23:40Z</time></trkpt><trkpt lat="47.69510787043847" lon="12.090842819956627"><ele>711.0</ele><time>2026-04-18T08:23:41Z</time></trkpt><trkpt lat="47.69504128570727" lon="12.09079047382181"><ele>711.0</ele><time>2026-04-18T08:23:42Z</time></trkpt><trkpt lat="47.694979502094704" lon="12.090739661432051"><ele>713.0</ele><time>2026-04-18T08:23:43Z</time></trkpt><trkpt lat="47.69491515627023" lon="12.090687832890668"><ele>715.0</ele><time>2026-04-18T08:23:44Z</time></trkpt><trkpt lat="47.694822055853514" lon="12.090614337974392"><ele>717.0</ele><time>2026-04-18T08:23:45Z</time></trkpt><trkpt lat="47.69471610212472" lon="12.090489749887041"><ele>719.0</ele><time>2026-04-18T08:23:46Z</time></trkpt><trkpt lat="47.69461739126539" lon="12.090338274799958"><ele>719.0</ele><time>2026-04-18T08:23:47Z</time></trkpt><trkpt lat="47.69454188352622" lon="12.090195864456206"><ele>719.0</ele><time>2026-04-18T08:23:48Z</time></trkpt><trkpt lat="47.69449674745232" lon="12.090060685032672"><ele>719.0</ele><time>2026-04-18T08:23:49Z</time></trkpt><trkpt lat="47.694443224655664" lon="12.089948410995682"><ele>719.0</ele><time>2026-04-18T08:23:50Z</time></trkpt><trkpt lat="47.694368284406295" lon="12.089863947792962"><ele>719.0</ele><time>2026-04-18T08:23:51Z</time></trkpt><trkpt lat="47.694275126981616" lon="12.089806778521837"><ele>721.2</ele><time>2026-04-18T08:23:52Z</time></trkpt><trkpt lat="47.694157836117625" lon="12.089766979913419"><ele>723.4000000000001</ele><time>2026-04-18T08:23:53Z</time></trkpt><trkpt lat="47.69406286782754" lon="12.089706778825384"><ele>725.6</ele><time>2026-04-18T08:23:54Z</time></trkpt><trkpt lat="47.69399569798273" lon="12.089628874576512"><ele>727.8</ele><time>2026-04-18T08:23:55Z</time></trkpt><trkpt lat="47.693901477984596" lon="12.089541817492549"><ele>730.0</ele><time>2026-04-18T08:23:57Z</time></trkpt><trkpt lat="47.6938388195882" lon="12.08952398174899"><ele>730.0</ele><time>2026-04-18T08:23:59Z</time></trkpt><trkpt lat="47.69375389350945" lon="12.089511790163451"><ele>730.0</ele><time>2026-04-18T08:24:02Z</time></trkpt><trkpt lat="47.69365444711684" lon="12.08952072267374"><ele>730.0</ele><time>2026-04-18T08:24:04Z</time></trkpt><trkpt lat="47.69357749172088" lon="12.089529840311258"><ele>730.0</ele><time>2026-04-18T08:24:05Z</time></trkpt><trkpt lat="47.693491237095635" lon="12.089535568134968"><ele>730.0</ele><time>2026-04-18T08:24:06Z</time></trkpt><trkpt lat="47.693422068535085" lon="12.089581187488996"><ele>730.0</ele><time>2026-04-18T08:24:07Z</time></trkpt><trkpt lat="47.69335240027996" lon="12.089641282009575"><ele>730.8333333333334</ele><time>2026-04-18T08:24:08Z</time></trkpt><trkpt lat="47.69328008163608" lon="12.089712736237258"><ele>731.6666666666667</ele><time>2026-04-18T08:24:09Z</time></trkpt><trkpt lat="47.69319889738229" lon="12.089756122320273"><ele>732.5</ele><time>2026-04-18T08:24:10Z</time></trkpt><trkpt lat="47.693128970390504" lon="12.08977336876338"><ele>733.3333333333334</ele><time>2026-04-18T08:24:11Z</time></trkpt><trkpt lat="47.69306539210628" lon="12.089788356345721"><ele>734.1666666666666</ele><time>2026-04-18T08:24:12Z</time></trkpt><trkpt lat="47.69298725369521" lon="12.089803720551423"><ele>735.0</ele><time>2026-04-18T08:24:13Z</time></trkpt><trkpt lat="47.69289872926343" lon="12.089798394800514"><ele>735.0</ele><time>2026-04-18T08:24:14Z</time></trkpt><trkpt lat="47.692808221665175" lon="12.089765679378859"><ele>735.0</ele><time>2026-04-18T08:24:15Z</time></trkpt><trkpt lat="47.69272926553167" lon="12.08970587607176"><ele>735.0</ele><time>2026-04-18T08:24:16Z</time></trkpt><trkpt lat="47.69267025000626" lon="12.089652059931652"><ele>735.0</ele><time>2026-04-18T08:24:17Z</time></trkpt><trkpt lat="47.692598251010345" lon="12.089601886199981"><ele>735.0</ele><time>2026-04-18T08:24:18Z</time></trkpt><trkpt lat="47.69251209231267" lon="12.089571547647987"><ele>735.0</ele><time>2026-04-18T08:24:19Z</time></trkpt><trkpt lat="47.69241684487757" lon="12.089555569953578"><ele>737.8</ele><time>2026-04-18T08:24:20Z</time></trkpt><trkpt lat="47.69231825746015" lon="12.089536325637415"><ele>740.6</ele><time>2026-04-18T08:24:21Z</time></trkpt><trkpt lat="47.69222253384765" lon="12.089502036121468"><ele>743.4000000000001</ele><time>2026-04-18T08:24:22Z</time></trkpt><trkpt lat="47.692126326582425" lon="12.089463915652612"><ele>746.2</ele><time>2026-04-18T08:24:23Z</time></trkpt><trkpt lat="47.69202470254426" lon="12.089425128750168"><ele>749.0</ele><time>2026-04-18T08:24:24Z</time></trkpt><trkpt lat="47.69193388256807" lon="12.089393667245826"><ele>748.2</ele><time>2026-04-18T08:24:25Z</time></trkpt><trkpt lat="47.69184340996019" lon="12.089375665770135"><ele>747.4000000000001</ele><time>2026-04-18T08:24:26Z</time></trkpt><trkpt lat="47.69174957438633" lon="12.089379907479954"><ele>746.6</ele><time>2026-04-18T08:24:27Z</time></trkpt><trkpt lat="47.69165630284445" lon="12.089403275298684"><ele>745.8</ele><time>2026-04-18T08:24:28Z</time></trkpt><trkpt lat="47.691564327765846" lon="12.089439248422616"><ele>745.0</ele><time>2026-04-18T08:24:29Z</time></trkpt><trkpt lat="47.691470501809775" lon="12.089468517612524"><ele>745.0</ele><time>2026-04-18T08:24:30Z</time></trkpt><trkpt lat="47.69137807084528" lon="12.089488876421056"><ele>745.0</ele><time>2026-04-18T08:24:31Z</time></trkpt><trkpt lat="47.691294024869414" lon="12.089480433348006"><ele>745.0</ele><time>2026-04-18T08:24:32Z</time></trkpt><trkpt lat="47.69121156593319" lon="12.089447225416048"><ele>745.0</ele><time>2026-04-18T08:24:33Z</time></trkpt><trkpt lat="47.691126427499384" lon="12.089385360709175"><ele>745.0</ele><time>2026-04-18T08:24:34Z</time></trkpt><trkpt lat="47.691050778254294" lon="12.089302143573065"><ele>744.4</ele><time>2026-04-18T08:24:35Z</time></trkpt><trkpt lat="47.690992214505094" lon="12.08919559002578"><ele>743.8</ele><time>2026-04-18T08:24:36Z</time></trkpt><trkpt lat="47.690938665092006" lon="12.089065284885393"><ele>743.2</ele><time>2026-04-18T08:24:37Z</time></trkpt><trkpt lat="47.69088106488065" lon="12.08892000145389"><ele>742.6</ele><time>2026-04-18T08:24:38Z</time></trkpt><trkpt lat="47.690810935542146" lon="12.088770312404442"><ele>742.0</ele><time>2026-04-18T08:24:39Z</time></trkpt><trkpt lat="47.69073872446053" lon="12.08861621196322"><ele>743.4000000000001</ele><time>2026-04-18T08:24:40Z</time></trkpt><trkpt lat="47.690666129370456" lon="12.08847436767223"><ele>744.8000000000001</ele><time>2026-04-18T08:24:41Z</time></trkpt><trkpt lat="47.69059673102168" lon="12.088358114593124"><ele>746.2</ele><time>2026-04-18T08:24:42Z</time></trkpt><trkpt lat="47.690529466873855" lon="12.088258811370205"><ele>747.6</ele><time>2026-04-18T08:24:43Z</time></trkpt><trkpt lat="47.690452467936176" lon="12.088160342850507"><ele>749.0</ele><time>2026-04-18T08:24:44Z</time></trkpt><trkpt lat="47.6903679720365" lon="12.08805782530965"><ele>748.5</ele><time>2026-04-18T08:24:45Z</time></trkpt><trkpt lat="47.69028043556754" lon="12.087945291462306"><ele>748.0</ele><time>2026-04-18T08:24:46Z</time></trkpt><trkpt lat="47.69018352280416" lon="12.087829378519508"><ele>747.5</ele><time>2026-04-18T08:24:47Z</time></trkpt><trkpt lat="47.690092349542326" lon="12.087732063159027"><ele>747.0</ele><time>2026-04-18T08:24:48Z</time></trkpt><trkpt lat="47.69000721071388" lon="12.087648262354119"><ele>747.0</ele><time>2026-04-18T08:24:49Z</time></trkpt><trkpt lat="47.689910468004776" lon="12.087564265728556"><ele>747.0</ele><time>2026-04-18T08:24:50Z</time></trkpt><trkpt lat="47.68980691173943" lon="12.08747868986244"><ele>747.0</ele><time>2026-04-18T08:24:51Z</time></trkpt><trkpt lat="47.68969822407075" lon="12.087407002458376"><ele>747.0</ele><time>2026-04-18T08:24:52Z</time></trkpt><trkpt lat="47.6895985207424" lon="12.087342522134218"><ele>747.4000000000001</ele><time>2026-04-18T08:24:53Z</time></trkpt><trkpt lat="47.68950369792271" lon="12.08727747953302"><ele>747.8000000000001</ele><time>2026-04-18T08:24:54Z</time></trkpt><trkpt lat="47.689410030521216" lon="12.087213520371325"><ele>748.2</ele><time>2026-04-18T08:24:55Z</time></trkpt><trkpt lat="47.68931833676336" lon="12.087144880223033"><ele>748.6</ele><time>2026-04-18T08:24:56Z</time></trkpt><trkpt lat="47.689223151972044" lon="12.087067603346798"><ele>749.0</ele><time>2026-04-18T08:24:57Z</time></trkpt><trkpt lat="47.68912422384209" lon="12.086977663491714"><ele>749.0</ele><time>2026-04-18T08:24:58Z</time></trkpt><trkpt lat="47.6890324813267" lon="12.086885978046402"><ele>749.0</ele><time>2026-04-18T08:24:59Z</time></trkpt><trkpt lat="47.688943457141576" lon="12.086798135493206"><ele>749.0</ele><time>2026-04-18T08:25:00Z</time></trkpt><trkpt lat="47.6888493599246" lon="12.08671068153485"><ele>749.0</ele><time>2026-04-18T08:25:01Z</time></trkpt><trkpt lat="47.688746103047656" lon="12.08662927914568"><ele>749.0</ele><time>2026-04-18T08:25:02.001Z</time></trkpt><trkpt lat="47.688634575307745" lon="12.086548439223264"><ele>751.2</ele><time>2026-04-18T08:25:03.001Z</time></trkpt><trkpt lat="47.688517105116006" lon="12.08646856570662"><ele>753.4000000000001</ele><time>2026-04-18T08:25:04.001Z</time></trkpt><trkpt lat="47.68840985195367" lon="12.086398757897076"><ele>755.6</ele><time>2026-04-18T08:25:05.001Z</time></trkpt><trkpt lat="47.68831957799939" lon="12.086342438955546"><ele>757.8</ele><time>2026-04-18T08:25:06.001Z</time></trkpt><trkpt lat="47.68823193236693" lon="12.086285801071165"><ele>760.0</ele><time>2026-04-18T08:25:07.001Z</time></trkpt><trkpt lat="47.688140919272165" lon="12.086237121982604"><ele>760.0</ele><time>2026-04-18T08:25:08.001Z</time></trkpt><trkpt lat="47.68804514446966" lon="12.086186149257067"><ele>760.0</ele><time>2026-04-18T08:25:09.001Z</time></trkpt><trkpt lat="47.68794617310955" lon="12.086129844267038"><ele>760.0</ele><time>2026-04-18T08:25:10.001Z</time></trkpt><trkpt lat="47.68784956870887" lon="12.086071883584202"><ele>760.0</ele><time>2026-04-18T08:25:11.001Z</time></trkpt><trkpt lat="47.68776211369485" lon="12.086010914460962"><ele>760.0</ele><time>2026-04-18T08:25:12.001Z</time></trkpt><trkpt lat="47.687679902586275" lon="12.085957413520795"><ele>761.5</ele><time>2026-04-18T08:25:13.001Z</time></trkpt><trkpt lat="47.68761768705109" lon="12.085888879548484"><ele>763.0</ele><time>2026-04-18T08:25:14.001Z</time></trkpt><trkpt lat="47.68756585924286" lon="12.085805102855709"><ele>764.5</ele><time>2026-04-18T08:25:15.001Z</time></trkpt><trkpt lat="47.687528972348446" lon="12.085699892660623"><ele>766.0</ele><time>2026-04-18T08:25:16.001Z</time></trkpt><trkpt lat="47.68749330182265" lon="12.085601840112512"><ele>767.4999999999999</ele><time>2026-04-18T08:25:17.001Z</time></trkpt><trkpt lat="47.68745156148679" lon="12.085479947937602"><ele>769.0</ele><time>2026-04-18T08:25:18.001Z</time></trkpt><trkpt lat="47.687391786598916" lon="12.08535945696891"><ele>769.0</ele><time>2026-04-18T08:25:19.001Z</time></trkpt><trkpt lat="47.68731834501497" lon="12.085228371802017"><ele>769.0</ele><time>2026-04-18T08:25:20.001Z</time></trkpt><trkpt lat="47.687225571537994" lon="12.085120223136942"><ele>769.0</ele><time>2026-04-18T08:25:21.001Z</time></trkpt><trkpt lat="47.68710549704978" lon="12.085057934041664"><ele>769.0</ele><time>2026-04-18T08:25:22.001Z</time></trkpt><trkpt lat="47.687016956102084" lon="12.08498852312066"><ele>769.0</ele><time>2026-04-18T08:25:23.001Z</time></trkpt><trkpt lat="47.68693528242104" lon="12.08494128927909"><ele>769.0</ele><time>2026-04-18T08:25:24.001Z</time></trkpt><trkpt lat="47.68683987624771" lon="12.084923988405997"><ele>769.0</ele><time>2026-04-18T08:25:25.001Z</time></trkpt><trkpt lat="47.68673838884563" lon="12.084924077217407"><ele>769.0</ele><time>2026-04-18T08:25:26.001Z</time></trkpt><trkpt lat="47.68662743242616" lon="12.084924630462204"><ele>769.0</ele><time>2026-04-18T08:25:27.001Z</time></trkpt><trkpt lat="47.68652000214375" lon="12.0849339519931"><ele>766.8000000000001</ele><time>2026-04-18T08:25:28.001Z</time></trkpt><trkpt lat="47.68641626497918" lon="12.084945401638183"><ele>764.6</ele><time>2026-04-18T08:25:29.001Z</time></trkpt><trkpt lat="47.686312588964206" lon="12.084967930775045"><ele>762.4</ele><time>2026-04-18T08:25:30.001Z</time></trkpt><trkpt lat="47.686211012352906" lon="12.084993312388974"><ele>760.2</ele><time>2026-04-18T08:25:31.001Z</time></trkpt><trkpt lat="47.68610680131199" lon="12.08501953811497"><ele>758.0</ele><time>2026-04-18T08:25:32.001Z</time></trkpt><trkpt lat="47.6860026837169" lon="12.085056506431487"><ele>757.0</ele><time>2026-04-18T08:25:33.001Z</time></trkpt><trkpt lat="47.68589824373078" lon="12.085098066323782"><ele>756.0</ele><time>2026-04-18T08:25:34.001Z</time></trkpt><trkpt lat="47.68579105163955" lon="12.085129487929889"><ele>755.0</ele><time>2026-04-18T08:25:35.001Z</time></trkpt><trkpt lat="47.685681093397974" lon="12.085162314518099"><ele>754.0</ele><time>2026-04-18T08:25:36.001Z</time></trkpt><trkpt lat="47.68556903409677" lon="12.085198344591953"><ele>753.0</ele><time>2026-04-18T08:25:37.001Z</time></trkpt><trkpt lat="47.685461916662184" lon="12.085232401895677"><ele>753.0</ele><time>2026-04-18T08:25:38.001Z</time></trkpt><trkpt lat="47.685361534689925" lon="12.08525881778982"><ele>753.0</ele><time>2026-04-18T08:25:39.001Z</time></trkpt><trkpt lat="47.68526485086446" lon="12.08526625206864"><ele>753.0</ele><time>2026-04-18T08:25:40.001Z</time></trkpt><trkpt lat="47.685165732346775" lon="12.085251496535667"><ele>753.0</ele><time>2026-04-18T08:25:41.001Z</time></trkpt><trkpt lat="47.68505990494167" lon="12.085206526216737"><ele>753.0</ele><time>2026-04-18T08:25:42.001Z</time></trkpt><trkpt lat="47.684951177587834" lon="12.085149263860234"><ele>754.0</ele><time>2026-04-18T08:25:43.001Z</time></trkpt><trkpt lat="47.68486288656273" lon="12.085101570216413"><ele>755.0</ele><time>2026-04-18T08:25:44.001Z</time></trkpt><trkpt lat="47.68477784573379" lon="12.08505713972255"><ele>756.0</ele><time>2026-04-18T08:25:45.001Z</time></trkpt><trkpt lat="47.68468451345713" lon="12.08500253234636"><ele>757.0</ele><time>2026-04-18T08:25:46.001Z</time></trkpt><trkpt lat="47.68458283112538" lon="12.084958344559038"><ele>758.0</ele><time>2026-04-18T08:25:47.001Z</time></trkpt><trkpt lat="47.68449906309434" lon="12.084917164024482"><ele>759.8</ele><time>2026-04-18T08:25:48.001Z</time></trkpt><trkpt lat="47.68442036939144" lon="12.0848588009969"><ele>761.5999999999999</ele><time>2026-04-18T08:25:49.001Z</time></trkpt><trkpt lat="47.68433293226535" lon="12.084784266258257"><ele>763.4000000000001</ele><time>2026-04-18T08:25:50.001Z</time></trkpt><trkpt lat="47.68424279257796" lon="12.084686857481415"><ele>765.2</ele><time>2026-04-18T08:25:51.001Z</time></trkpt><trkpt lat="47.68415342530429" lon="12.084581114906367"><ele>767.0</ele><time>2026-04-18T08:25:52.001Z</time></trkpt><trkpt lat="47.68405864008274" lon="12.084468091888965"><ele>767.0</ele><time>2026-04-18T08:25:53.001Z</time></trkpt><trkpt lat="47.68396079922712" lon="12.084335346157095"><ele>767.0</ele><time>2026-04-18T08:25:54.001Z</time></trkpt><trkpt lat="47.68386566420112" lon="12.08421375805629"><ele>767.0</ele><time>2026-04-18T08:25:55.001Z</time></trkpt><trkpt lat="47.68378170647073" lon="12.084107607155788"><ele>767.0</ele><time>2026-04-18T08:25:56.001Z</time></trkpt><trkpt lat="47.683701580068686" lon="12.08400577653211"><ele>766.6</ele><time>2026-04-18T08:25:57.001Z</time></trkpt><trkpt lat="47.683627091365835" lon="12.083904613721248"><ele>766.2</ele><time>2026-04-18T08:25:58.001Z</time></trkpt><trkpt lat="47.68355448599571" lon="12.083806243517666"><ele>765.8</ele><time>2026-04-18T08:25:59.001Z</time></trkpt><trkpt lat="47.683477467308656" lon="12.083712333835315"><ele>765.4</ele><time>2026-04-18T08:26:00.001Z</time></trkpt><trkpt lat="47.68339376445529" lon="12.08362193471821"><ele>765.0</ele><time>2026-04-18T08:26:01.001Z</time></trkpt><trkpt lat="47.6833067019238" lon="12.08352962404574"><ele>765.0</ele><time>2026-04-18T08:26:02Z</time></trkpt><trkpt lat="47.683216539731646" lon="12.083429371843486"><ele>765.0</ele><time>2026-04-18T08:26:03Z</time></trkpt><trkpt lat="47.683125833835135" lon="12.083335145507274"><ele>765.0</ele><time>2026-04-18T08:26:04Z</time></trkpt><trkpt lat="47.68304766992672" lon="12.083244494100741"><ele>765.0</ele><time>2026-04-18T08:26:05Z</time></trkpt><trkpt lat="47.68297888817162" lon="12.083160337532545"><ele>765.0</ele><time>2026-04-18T08:26:06Z</time></trkpt><trkpt lat="47.68290538954896" lon="12.083086424754805"><ele>766.75</ele><time>2026-04-18T08:26:07Z</time></trkpt><trkpt lat="47.6828179916623" lon="12.083006963421937"><ele>768.5</ele><time>2026-04-18T08:26:08Z</time></trkpt><trkpt lat="47.6827259067406" lon="12.082914840733547"><ele>770.25</ele><time>2026-04-18T08:26:09Z</time></trkpt><trkpt lat="47.68263336200243" lon="12.082814917387898"><ele>772.0</ele><time>2026-04-18T08:26:10Z</time></trkpt><trkpt lat="47.682527699660376" lon="12.082717586775416"><ele>774.25</ele><time>2026-04-18T08:26:11Z</time></trkpt><trkpt lat="47.68241111620076" lon="12.08263986052175"><ele>776.5</ele><time>2026-04-18T08:26:12Z</time></trkpt><trkpt lat="47.68230357057026" lon="12.082585113348689"><ele>778.75</ele><time>2026-04-18T08:26:13Z</time></trkpt><trkpt lat="47.68219037116862" lon="12.082547462052828"><ele>781.0</ele><time>2026-04-18T08:26:14Z</time></trkpt><trkpt lat="47.68206855559646" lon="12.082528554304838"><ele>781.0</ele><time>2026-04-18T08:26:15Z</time></trkpt><trkpt lat="47.68194084543976" lon="12.082525633562133"><ele>781.0</ele><time>2026-04-18T08:26:16Z</time></trkpt><trkpt lat="47.68181137819426" lon="12.082551690468177"><ele>781.0</ele><time>2026-04-18T08:26:17Z</time></trkpt><trkpt lat="47.6816983037396" lon="12.082567228057371"><ele>781.0</ele><time>2026-04-18T08:26:18Z</time></trkpt><trkpt lat="47.68159149073442" lon="12.08256458490886"><ele>782.25</ele><time>2026-04-18T08:26:19Z</time></trkpt><trkpt lat="47.68148221950677" lon="12.08255204321178"><ele>783.5</ele><time>2026-04-18T08:26:20Z</time></trkpt><trkpt lat="47.68137250840459" lon="12.082530408777881"><ele>784.75</ele><time>2026-04-18T08:26:21Z</time></trkpt><trkpt lat="47.68126035190348" lon="12.082496068356473"><ele>786.0</ele><time>2026-04-18T08:26:22Z</time></trkpt><trkpt lat="47.68114851312132" lon="12.08245780674867"><ele>784.5999999999999</ele><time>2026-04-18T08:26:23Z</time></trkpt><trkpt lat="47.68104113761041" lon="12.082432474398018"><ele>783.2</ele><time>2026-04-18T08:26:24Z</time></trkpt><trkpt lat="47.680937984865764" lon="12.082409539088632"><ele>781.8</ele><time>2026-04-18T08:26:25Z</time></trkpt><trkpt lat="47.68083653966789" lon="12.08239100899972"><ele>780.4000000000001</ele><time>2026-04-18T08:26:26Z</time></trkpt><trkpt lat="47.68072893757013" lon="12.082376309879761"><ele>779.0</ele><time>2026-04-18T08:26:27Z</time></trkpt><trkpt lat="47.68059258442388" lon="12.082347374880916"><ele>787.25</ele><time>2026-04-18T08:26:28Z</time></trkpt><trkpt lat="47.68045847438029" lon="12.082321941790099"><ele>795.5</ele><time>2026-04-18T08:26:29Z</time></trkpt><trkpt lat="47.680348449891575" lon="12.082303916980534"><ele>803.75</ele><time>2026-04-18T08:26:30Z</time></trkpt><trkpt lat="47.68024926744789" lon="12.082283741747542"><ele>812.0</ele><time>2026-04-18T08:26:31Z</time></trkpt><trkpt lat="47.680146804341184" lon="12.082258504598952"><ele>812.25</ele><time>2026-04-18T08:26:32Z</time></trkpt><trkpt lat="47.68004247827502" lon="12.082240441064869"><ele>812.5</ele><time>2026-04-18T08:26:33Z</time></trkpt><trkpt lat="47.67993090432426" lon="12.082243269906124"><ele>812.75</ele><time>2026-04-18T08:26:34Z</time></trkpt><trkpt lat="47.679806069423265" lon="12.082258228023875"><ele>813.0</ele><time>2026-04-18T08:26:35Z</time></trkpt><trkpt lat="47.67966421465342" lon="12.082279324174156"><ele>813.0</ele><time>2026-04-18T08:26:36Z</time></trkpt><trkpt lat="47.67952315724046" lon="12.082290889405485"><ele>813.0</ele><time>2026-04-18T08:26:37Z</time></trkpt><trkpt lat="47.67941738677077" lon="12.082298967438094"><ele>813.0</ele><time>2026-04-18T08:26:38Z</time></trkpt><trkpt lat="47.67932788518287" lon="12.082302439186194"><ele>813.0</ele><time>2026-04-18T08:26:39Z</time></trkpt><trkpt lat="47.679229652408" lon="12.082304891925165"><ele>813.0</ele><time>2026-04-18T08:26:40Z</time></trkpt><trkpt lat="47.67912161594801" lon="12.082304507235806"><ele>815.4</ele><time>2026-04-18T08:26:41Z</time></trkpt><trkpt lat="47.67901437277778" lon="12.08229143995757"><ele>817.8</ele><time>2026-04-18T08:26:42Z</time></trkpt><trkpt lat="47.67891884110657" lon="12.082287522276085"><ele>820.2</ele><time>2026-04-18T08:26:43Z</time></trkpt><trkpt lat="47.67883345314169" lon="12.082293451194174"><ele>822.6</ele><time>2026-04-18T08:26:44Z</time></trkpt><trkpt lat="47.678741040177734" lon="12.082311252257172"><ele>825.0</ele><time>2026-04-18T08:26:45Z</time></trkpt><trkpt lat="47.67863454990329" lon="12.082350505186096"><ele>825.5</ele><time>2026-04-18T08:26:46Z</time></trkpt><trkpt lat="47.67853065251985" lon="12.082411164727572"><ele>826.0</ele><time>2026-04-18T08:26:47Z</time></trkpt><trkpt lat="47.67841615087814" lon="12.082489505314136"><ele>826.5</ele><time>2026-04-18T08:26:48Z</time></trkpt><trkpt lat="47.67829610052128" lon="12.082592242608905"><ele>827.0</ele><time>2026-04-18T08:26:49Z</time></trkpt><trkpt lat="47.678177131585215" lon="12.082688211077134"><ele>823.25</ele><time>2026-04-18T08:26:50Z</time></trkpt><trkpt lat="47.678068954663466" lon="12.082776326424202"><ele>819.5</ele><time>2026-04-18T08:26:51Z</time></trkpt><trkpt lat="47.6779645927993" lon="12.082862703948194"><ele>815.75</ele><time>2026-04-18T08:26:52Z</time></trkpt><trkpt lat="47.67786420650682" lon="12.082939268474119"><ele>812.0</ele><time>2026-04-18T08:26:53Z</time></trkpt><trkpt lat="47.67776434237007" lon="12.083002673697228"><ele>812.0</ele><time>2026-04-18T08:26:54Z</time></trkpt><trkpt lat="47.67766808759622" lon="12.083060453334742"><ele>812.0</ele><time>2026-04-18T08:26:55Z</time></trkpt><trkpt lat="47.67757366390876" lon="12.08310548993249"><ele>812.0</ele><time>2026-04-18T08:26:56Z</time></trkpt><trkpt lat="47.6774826416167" lon="12.083150474115456"><ele>812.0</ele><time>2026-04-18T08:26:57Z</time></trkpt><trkpt lat="47.67739388477143" lon="12.08319377653393"><ele>812.0</ele><time>2026-04-18T08:26:58Z</time></trkpt><trkpt lat="47.67730346244858" lon="12.08323378812213"><ele>809.75</ele><time>2026-04-18T08:26:59Z</time></trkpt><trkpt lat="47.67719174001268" lon="12.083285329127245"><ele>807.5</ele><time>2026-04-18T08:27:00Z</time></trkpt><trkpt lat="47.677070148442446" lon="12.083341545935118"><ele>805.25</ele><time>2026-04-18T08:27:01Z</time></trkpt><trkpt lat="47.67696712140935" lon="12.083390488830654"><ele>803.0</ele><time>2026-04-18T08:27:02Z</time></trkpt><trkpt lat="47.67687244513695" lon="12.08343936225075"><ele>803.0</ele><time>2026-04-18T08:27:03Z</time></trkpt><trkpt lat="47.67677322547243" lon="12.083482429242268"><ele>803.0</ele><time>2026-04-18T08:27:04Z</time></trkpt><trkpt lat="47.676669828007235" lon="12.083519503728313"><ele>803.0</ele><time>2026-04-18T08:27:05Z</time></trkpt><trkpt lat="47.67656397463291" lon="12.083552099801782"><ele>803.0</ele><time>2026-04-18T08:27:06Z</time></trkpt><trkpt lat="47.67646609507792" lon="12.083548381994154"><ele>803.0</ele><time>2026-04-18T08:27:07Z</time></trkpt><trkpt lat="47.676375903215046" lon="12.083508856629104"><ele>803.0</ele><time>2026-04-18T08:27:08.001Z</time></trkpt><trkpt lat="47.67628773757663" lon="12.083460735280493"><ele>803.0</ele><time>2026-04-18T08:27:09.001Z</time></trkpt><trkpt lat="47.67619713326657" lon="12.083424997357127"><ele>803.0</ele><time>2026-04-18T08:27:10.001Z</time></trkpt><trkpt lat="47.676103032355975" lon="12.083399251829421"><ele>803.0</ele><time>2026-04-18T08:27:11.001Z</time></trkpt><trkpt lat="47.67600552073653" lon="12.083387204500783"><ele>803.0</ele><time>2026-04-18T08:27:12.001Z</time></trkpt><trkpt lat="47.67591484580004" lon="12.083386775607305"><ele>802.8333333333334</ele><time>2026-04-18T08:27:13.001Z</time></trkpt><trkpt lat="47.67583205397842" lon="12.083389638759561"><ele>802.6666666666667</ele><time>2026-04-18T08:27:14.001Z</time></trkpt><trkpt lat="47.6757450185146" lon="12.08339366281795"><ele>802.5</ele><time>2026-04-18T08:27:15.001Z</time></trkpt><trkpt lat="47.67565552000829" lon="12.083402549137402"><ele>802.3333333333333</ele><time>2026-04-18T08:27:16.001Z</time></trkpt><trkpt lat="47.6755645837233" lon="12.083419791658068"><ele>802.1666666666666</ele><time>2026-04-18T08:27:17.001Z</time></trkpt><trkpt lat="47.675472875757364" lon="12.083446173185502"><ele>802.0</ele><time>2026-04-18T08:27:18.001Z</time></trkpt><trkpt lat="47.675376248705625" lon="12.08347530898771"><ele>804.25</ele><time>2026-04-18T08:27:19.001Z</time></trkpt><trkpt lat="47.67527042030207" lon="12.083511038137237"><ele>806.5</ele><time>2026-04-18T08:27:20.001Z</time></trkpt><trkpt lat="47.675150924380304" lon="12.083553726698916"><ele>808.75</ele><time>2026-04-18T08:27:21.001Z</time></trkpt><trkpt lat="47.674973154942684" lon="12.08359564632677"><ele>811.0</ele><time>2026-04-18T08:27:22.001Z</time></trkpt><trkpt lat="47.67480043527087" lon="12.083647177636085"><ele>811.0</ele><time>2026-04-18T08:27:23.001Z</time></trkpt><trkpt lat="47.67466333555995" lon="12.083699544990969"><ele>811.0</ele><time>2026-04-18T08:27:24.001Z</time></trkpt><trkpt lat="47.67455960857948" lon="12.083739196379312"><ele>811.0</ele><time>2026-04-18T08:27:25.001Z</time></trkpt><trkpt lat="47.674461950584956" lon="12.083777916484099"><ele>811.0</ele><time>2026-04-18T08:27:26.001Z</time></trkpt><trkpt lat="47.67435614197632" lon="12.083780751367227"><ele>812.25</ele><time>2026-04-18T08:27:27.001Z</time></trkpt><trkpt lat="47.67425086367286" lon="12.083736016096603"><ele>813.5</ele><time>2026-04-18T08:27:28.001Z</time></trkpt><trkpt lat="47.674151556423084" lon="12.083651364961618"><ele>814.75</ele><time>2026-04-18T08:27:29.001Z</time></trkpt><trkpt lat="47.67406585876001" lon="12.083533184496481"><ele>816.0</ele><time>2026-04-18T08:27:30.001Z</time></trkpt><trkpt lat="47.6739870484112" lon="12.08340583083579"><ele>816.0</ele><time>2026-04-18T08:27:31.001Z</time></trkpt><trkpt lat="47.673911145680776" lon="12.083301269133042"><ele>816.0</ele><time>2026-04-18T08:27:32.001Z</time></trkpt><trkpt lat="47.673821003471694" lon="12.083201439879934"><ele>816.0</ele><time>2026-04-18T08:27:33.001Z</time></trkpt><trkpt lat="47.67370361654585" lon="12.083114019618899"><ele>816.0</ele><time>2026-04-18T08:27:34.001Z</time></trkpt><trkpt lat="47.673581465717895" lon="12.083055112218778"><ele>817.5</ele><time>2026-04-18T08:27:35.001Z</time></trkpt><trkpt lat="47.673467638536664" lon="12.08300170592705"><ele>819.0</ele><time>2026-04-18T08:27:36.001Z</time></trkpt><trkpt lat="47.673357640314684" lon="12.082951059762442"><ele>820.5</ele><time>2026-04-18T08:27:37.001Z</time></trkpt><trkpt lat="47.67324514532196" lon="12.08289200065458"><ele>822.0</ele><time>2026-04-18T08:27:38.001Z</time></trkpt><trkpt lat="47.67312986462959" lon="12.08279809227349"><ele>822.0</ele><time>2026-04-18T08:27:39.001Z</time></trkpt><trkpt lat="47.67301818542764" lon="12.082659688577541"><ele>822.0</ele><time>2026-04-18T08:27:40.001Z</time></trkpt><trkpt lat="47.67291643254131" lon="12.082518831467263"><ele>822.0</ele><time>2026-04-18T08:27:41.001Z</time></trkpt><trkpt lat="47.672819165091795" lon="12.082386223453547"><ele>822.0</ele><time>2026-04-18T08:27:42.001Z</time></trkpt><trkpt lat="47.67272481849314" lon="12.082262174996762"><ele>822.2</ele><time>2026-04-18T08:27:43.001Z</time></trkpt><trkpt lat="47.672635055829566" lon="12.082138904401852"><ele>822.4000000000001</ele><time>2026-04-18T08:27:44.001Z</time></trkpt><trkpt lat="47.67254880611899" lon="12.082020793146075"><ele>822.5999999999999</ele><time>2026-04-18T08:27:45.001Z</time></trkpt><trkpt lat="47.672470448266104" lon="12.081916644143792"><ele>822.8</ele><time>2026-04-18T08:27:46.001Z</time></trkpt><trkpt lat="47.67239536793475" lon="12.081825282732499"><ele>823.0</ele><time>2026-04-18T08:27:47.001Z</time></trkpt><trkpt lat="47.67231278910163" lon="12.081743240689104"><ele>823.0</ele><time>2026-04-18T08:27:48.001Z</time></trkpt><trkpt lat="47.67221625787883" lon="12.081683063299911"><ele>823.0</ele><time>2026-04-18T08:27:49.001Z</time></trkpt><trkpt lat="47.67210914662119" lon="12.081630780201973"><ele>823.0</ele><time>2026-04-18T08:27:50.001Z</time></trkpt><trkpt lat="47.67200236644219" lon="12.08156655409503"><ele>823.0</ele><time>2026-04-18T08:27:51.001Z</time></trkpt><trkpt lat="47.671912783066794" lon="12.081482492311354"><ele>823.0</ele><time>2026-04-18T08:27:52.001Z</time></trkpt><trkpt lat="47.6718405575749" lon="12.081371224074012"><ele>825.0</ele><time>2026-04-18T08:27:53.001Z</time></trkpt><trkpt lat="47.671784108768605" lon="12.081237308890158"><ele>827.0</ele><time>2026-04-18T08:27:54.001Z</time></trkpt><trkpt lat="47.671742405748574" lon="12.081083993396872"><ele>829.0</ele><time>2026-04-18T08:27:55.001Z</time></trkpt><trkpt lat="47.67171104793064" lon="12.080912353609099"><ele>831.0</ele><time>2026-04-18T08:27:56.001Z</time></trkpt><trkpt lat="47.67168232874855" lon="12.080722492138841"><ele>833.5</ele><time>2026-04-18T08:27:57.001Z</time></trkpt><trkpt lat="47.67166091799548" lon="12.080557792946736"><ele>836.0</ele><time>2026-04-18T08:27:58.001Z</time></trkpt><trkpt lat="47.671632246873436" lon="12.080390047632681"><ele>838.5</ele><time>2026-04-18T08:27:59.001Z</time></trkpt><trkpt lat="47.671608599190535" lon="12.0802000998721"><ele>841.0</ele><time>2026-04-18T08:28:00.001Z</time></trkpt><trkpt lat="47.67160337249694" lon="12.079980538770211"><ele>844.5</ele><time>2026-04-18T08:28:01.001Z</time></trkpt><trkpt lat="47.67160385212265" lon="12.079793575909225"><ele>848.0</ele><time>2026-04-18T08:28:02.001Z</time></trkpt><trkpt lat="47.671596974989924" lon="12.07962034978128"><ele>851.5</ele><time>2026-04-18T08:28:03.001Z</time></trkpt><trkpt lat="47.671571177448705" lon="12.07944714250622"><ele>855.0</ele><time>2026-04-18T08:28:04.001Z</time></trkpt><trkpt lat="47.67152374864381" lon="12.079269382460694"><ele>857.25</ele><time>2026-04-18T08:28:05.001Z</time></trkpt><trkpt lat="47.67146481333975" lon="12.07909033142239"><ele>859.5</ele><time>2026-04-18T08:28:06.001Z</time></trkpt><trkpt lat="47.6714072393755" lon="12.078917098735106"><ele>861.75</ele><time>2026-04-18T08:28:07.001Z</time></trkpt><trkpt lat="47.67135503963192" lon="12.078753472335018"><ele>864.0</ele><time>2026-04-18T08:28:08.001Z</time></trkpt><trkpt lat="47.67130217715267" lon="12.078585877606494"><ele>864.0</ele><time>2026-04-18T08:28:09.001Z</time></trkpt><trkpt lat="47.671248047864026" lon="12.078424523599775"><ele>864.0</ele><time>2026-04-18T08:28:10.001Z</time></trkpt><trkpt lat="47.671197246471074" lon="12.078270484004898"><ele>864.0</ele><time>2026-04-18T08:28:11.001Z</time></trkpt><trkpt lat="47.67115199323924" lon="12.078120047523374"><ele>864.0</ele><time>2026-04-18T08:28:12Z</time></trkpt><trkpt lat="47.67111035397377" lon="12.077978279180362"><ele>865.0</ele><time>2026-04-18T08:28:13Z</time></trkpt><trkpt lat="47.67107952094246" lon="12.077850128580666"><ele>866.0000000000001</ele><time>2026-04-18T08:28:14Z</time></trkpt><trkpt lat="47.671077835355234" lon="12.077716808307823"><ele>867.0000000000001</ele><time>2026-04-18T08:28:15Z</time></trkpt><trkpt lat="47.671100854826385" lon="12.07757066796667"><ele>868.0</ele><time>2026-04-18T08:28:16Z</time></trkpt><trkpt lat="47.67115083488194" lon="12.077411222829344"><ele>869.0</ele><time>2026-04-18T08:28:17Z</time></trkpt><trkpt lat="47.67121731847987" lon="12.077255035710468"><ele>869.0</ele><time>2026-04-18T08:28:18Z</time></trkpt><trkpt lat="47.671282234434315" lon="12.077117441771529"><ele>869.0000000000001</ele><time>2026-04-18T08:28:19Z</time></trkpt><trkpt lat="47.671335179245006" lon="12.076988632255246"><ele>869.0000000000001</ele><time>2026-04-18T08:28:20Z</time></trkpt><trkpt lat="47.671380548880585" lon="12.076846252878543"><ele>869.0</ele><time>2026-04-18T08:28:21Z</time></trkpt><trkpt lat="47.67140253773477" lon="12.076682130047384"><ele>869.0</ele><time>2026-04-18T08:28:22Z</time></trkpt><trkpt lat="47.67139403616848" lon="12.076513593607222"><ele>871.0</ele><time>2026-04-18T08:28:23Z</time></trkpt><trkpt lat="47.67134927887827" lon="12.076352133051035"><ele>873.0</ele><time>2026-04-18T08:28:24Z</time></trkpt><trkpt lat="47.67126966747545" lon="12.076201283086899"><ele>875.0</ele><time>2026-04-18T08:28:25Z</time></trkpt><trkpt lat="47.671180145469016" lon="12.076070636336869"><ele>877.0</ele><time>2026-04-18T08:28:26Z</time></trkpt><trkpt lat="47.67110264177199" lon="12.075944479207527"><ele>873.5</ele><time>2026-04-18T08:28:27Z</time></trkpt><trkpt lat="47.6710161161186" lon="12.075807903680817"><ele>870.0</ele><time>2026-04-18T08:28:28Z</time></trkpt><trkpt lat="47.67092778065675" lon="12.075668046816856"><ele>866.5</ele><time>2026-04-18T08:28:29Z</time></trkpt><trkpt lat="47.67084265694802" lon="12.075538962498802"><ele>863.0</ele><time>2026-04-18T08:28:30Z</time></trkpt><trkpt lat="47.67075926878775" lon="12.07540840285562"><ele>863.0</ele><time>2026-04-18T08:28:31Z</time></trkpt><trkpt lat="47.67067311228447" lon="12.075282281026272"><ele>863.0</ele><time>2026-04-18T08:28:32Z</time></trkpt><trkpt lat="47.67058972225376" lon="12.075151850237273"><ele>863.0</ele><time>2026-04-18T08:28:33Z</time></trkpt><trkpt lat="47.67050691976987" lon="12.07503646043548"><ele>863.0</ele><time>2026-04-18T08:28:34Z</time></trkpt><trkpt lat="47.67044620078666" lon="12.074920439031715"><ele>865.0</ele><time>2026-04-18T08:28:35Z</time></trkpt><trkpt lat="47.67038551306669" lon="12.074822373359554"><ele>867.0</ele><time>2026-04-18T08:28:36Z</time></trkpt><trkpt lat="47.67032461863356" lon="12.07472592492832"><ele>869.0</ele><time>2026-04-18T08:28:37Z</time></trkpt><trkpt lat="47.67025956250806" lon="12.074622883411127"><ele>871.0</ele><time>2026-04-18T08:28:38Z</time></trkpt><trkpt lat="47.67018984649169" lon="12.074511973363935"><ele>873.0</ele><time>2026-04-18T08:28:39Z</time></trkpt><trkpt lat="47.67012360800927" lon="12.074414545953159"><ele>870.6666666666666</ele><time>2026-04-18T08:28:40Z</time></trkpt><trkpt lat="47.67007908999749" lon="12.074311830020207"><ele>868.3333333333333</ele><time>2026-04-18T08:28:41Z</time></trkpt><trkpt lat="47.67005070977839" lon="12.074200820958636"><ele>866.0</ele><time>2026-04-18T08:28:42Z</time></trkpt><trkpt lat="47.67005061843963" lon="12.07407687816891"><ele>863.6666666666666</ele><time>2026-04-18T08:28:43Z</time></trkpt><trkpt lat="47.670088771815614" lon="12.073954812272342"><ele>861.3333333333333</ele><time>2026-04-18T08:28:44Z</time></trkpt><trkpt lat="47.670151925028485" lon="12.073855686026238"><ele>859.0</ele><time>2026-04-18T08:28:45Z</time></trkpt><trkpt lat="47.670236399372335" lon="12.073795187396078"><ele>861.8000000000001</ele><time>2026-04-18T08:28:46Z</time></trkpt><trkpt lat="47.670333150691235" lon="12.073787471776953"><ele>864.6000000000001</ele><time>2026-04-18T08:28:47Z</time></trkpt><trkpt lat="47.67042299664807" lon="12.073840139611157"><ele>867.4</ele><time>2026-04-18T08:28:48Z</time></trkpt><trkpt lat="47.670497181951724" lon="12.073943829730014"><ele>870.2</ele><time>2026-04-18T08:28:49Z</time></trkpt><trkpt lat="47.67056948786745" lon="12.074078936015086"><ele>873.0</ele><time>2026-04-18T08:28:50Z</time></trkpt><trkpt lat="47.670636397520674" lon="12.07419082807296"><ele>873.0</ele><time>2026-04-18T08:28:51Z</time></trkpt><trkpt lat="47.67071451291427" lon="12.07431866272261"><ele>873.0</ele><time>2026-04-18T08:28:52Z</time></trkpt><trkpt lat="47.67079830788482" lon="12.074463669004334"><ele>873.0</ele><time>2026-04-18T08:28:53Z</time></trkpt><trkpt lat="47.67088636653713" lon="12.074608166196157"><ele>873.0</ele><time>2026-04-18T08:28:54Z</time></trkpt><trkpt lat="47.670965590589745" lon="12.074740729600578"><ele>873.0</ele><time>2026-04-18T08:28:55Z</time></trkpt><trkpt lat="47.67104174634522" lon="12.074871253483769"><ele>873.0</ele><time>2026-04-18T08:28:56Z</time></trkpt><trkpt lat="47.67111594063441" lon="12.075001296797334"><ele>873.0</ele><time>2026-04-18T08:28:57Z</time></trkpt><trkpt lat="47.67118748043039" lon="12.075127565484715"><ele>873.0</ele><time>2026-04-18T08:28:58Z</time></trkpt><trkpt lat="47.67125825676127" lon="12.075248827546714"><ele>873.8</ele><time>2026-04-18T08:28:59Z</time></trkpt><trkpt lat="47.67132855073664" lon="12.075366232380343"><ele>874.5999999999999</ele><time>2026-04-18T08:29:00Z</time></trkpt><trkpt lat="47.67140006646248" lon="12.075477390628983"><ele>875.4000000000001</ele><time>2026-04-18T08:29:01Z</time></trkpt><trkpt lat="47.67147242379433" lon="12.075582275783367"><ele>876.2</ele><time>2026-04-18T08:29:02Z</time></trkpt><trkpt lat="47.671548449223145" lon="12.075682550044874"><ele>877.0</ele><time>2026-04-18T08:29:03Z</time></trkpt><trkpt lat="47.67162658236842" lon="12.075777452271778"><ele>877.0</ele><time>2026-04-18T08:29:04Z</time></trkpt><trkpt lat="47.67171305895288" lon="12.075872997135379"><ele>877.0</ele><time>2026-04-18T08:29:05Z</time></trkpt><trkpt lat="47.67181065873077" lon="12.075975149852145"><ele>877.0</ele><time>2026-04-18T08:29:06Z</time></trkpt><trkpt lat="47.67191440339343" lon="12.076080145727417"><ele>877.0</ele><time>2026-04-18T08:29:07Z</time></trkpt><trkpt lat="47.672009789684545" lon="12.076190858694046"><ele>882.0</ele><time>2026-04-18T08:29:08Z</time></trkpt><trkpt lat="47.67208918390618" lon="12.076318700992942"><ele>887.0</ele><time>2026-04-18T08:29:09Z</time></trkpt><trkpt lat="47.672143224242724" lon="12.076471528942244"><ele>892.0</ele><time>2026-04-18T08:29:10Z</time></trkpt><trkpt lat="47.672169174163066" lon="12.076636323403187"><ele>897.0</ele><time>2026-04-18T08:29:11Z</time></trkpt><trkpt lat="47.67216826543849" lon="12.076800476523955"><ele>897.0</ele><time>2026-04-18T08:29:12Z</time></trkpt><trkpt lat="47.67214852192605" lon="12.076961998380545"><ele>897.0</ele><time>2026-04-18T08:29:13Z</time></trkpt><trkpt lat="47.672122371251106" lon="12.077117314607408"><ele>897.0</ele><time>2026-04-18T08:29:14.001Z</time></trkpt><trkpt lat="47.67210798666324" lon="12.077271506442889"><ele>897.0</ele><time>2026-04-18T08:29:15.001Z</time></trkpt><trkpt lat="47.672117558465665" lon="12.077420533078032"><ele>897.0</ele><time>2026-04-18T08:29:16.001Z</time></trkpt><trkpt lat="47.67216425813044" lon="12.077550358600881"><ele>896.0</ele><time>2026-04-18T08:29:17.001Z</time></trkpt><trkpt lat="47.67223902316877" lon="12.077671368025634"><ele>895.0</ele><time>2026-04-18T08:29:18.001Z</time></trkpt><trkpt lat="47.67234905843612" lon="12.07776234762342"><ele>894.0</ele><time>2026-04-18T08:29:19.001Z</time></trkpt><trkpt lat="47.672482129173936" lon="12.07780532616183"><ele>893.0</ele><time>2026-04-18T08:29:20.001Z</time></trkpt><trkpt lat="47.67261413349481" lon="12.077796186273856"><ele>893.0</ele><time>2026-04-18T08:29:21.001Z</time></trkpt><trkpt lat="47.67272217102261" lon="12.077718147224363"><ele>893.0</ele><time>2026-04-18T08:29:22.001Z</time></trkpt><trkpt lat="47.67280272970877" lon="12.077589172313454"><ele>893.0</ele><time>2026-04-18T08:29:23.001Z</time></trkpt><trkpt lat="47.67285714075343" lon="12.07743871787096"><ele>893.0</ele><time>2026-04-18T08:29:24.001Z</time></trkpt><trkpt lat="47.672875027764285" lon="12.0772772496036"><ele>893.8</ele><time>2026-04-18T08:29:25.001Z</time></trkpt><trkpt lat="47.67286093798388" lon="12.077129519901739"><ele>894.5999999999999</ele><time>2026-04-18T08:29:26.001Z</time></trkpt><trkpt lat="47.672818765247776" lon="12.076991951079965"><ele>895.4000000000001</ele><time>2026-04-18T08:29:27.001Z</time></trkpt><trkpt lat="47.672756612661594" lon="12.076853908457029"><ele>896.2</ele><time>2026-04-18T08:29:28.001Z</time></trkpt><trkpt lat="47.67269768868735" lon="12.076706306954424"><ele>897.0</ele><time>2026-04-18T08:29:29.001Z</time></trkpt><trkpt lat="47.67264282922289" lon="12.076552472767762"><ele>899.8</ele><time>2026-04-18T08:29:30.001Z</time></trkpt><trkpt lat="47.67258626922828" lon="12.07640235844605"><ele>902.6</ele><time>2026-04-18T08:29:31.001Z</time></trkpt><trkpt lat="47.672529044060006" lon="12.076263010221597"><ele>905.3999999999999</ele><time>2026-04-18T08:29:32.001Z</time></trkpt><trkpt lat="47.67247787255367" lon="12.076127933509564"><ele>908.1999999999999</ele><time>2026-04-18T08:29:33.001Z</time></trkpt><trkpt lat="47.67243332173484" lon="12.076004444918851"><ele>911.0</ele><time>2026-04-18T08:29:34.001Z</time></trkpt><trkpt lat="47.672385978826476" lon="12.075887594442753"><ele>917.5</ele><time>2026-04-18T08:29:35.001Z</time></trkpt><trkpt lat="47.67233541339339" lon="12.07576639567493"><ele>924.0</ele><time>2026-04-18T08:29:36.001Z</time></trkpt><trkpt lat="47.672291959567524" lon="12.07561458144158"><ele>930.5</ele><time>2026-04-18T08:29:37.001Z</time></trkpt><trkpt lat="47.67224500996815" lon="12.075386035244943"><ele>937.0</ele><time>2026-04-18T08:29:38.001Z</time></trkpt><trkpt lat="47.672182902317346" lon="12.075143876258698"><ele>937.0</ele><time>2026-04-18T08:29:39.001Z</time></trkpt><trkpt lat="47.67211707232866" lon="12.074954743037448"><ele>937.0</ele><time>2026-04-18T08:29:40.001Z</time></trkpt><trkpt lat="47.67203851913814" lon="12.074796224377351"><ele>937.0</ele><time>2026-04-18T08:29:41.001Z</time></trkpt><trkpt lat="47.671956182292405" lon="12.07463860215524"><ele>937.0</ele><time>2026-04-18T08:29:42.001Z</time></trkpt><trkpt lat="47.67188709418433" lon="12.074474780305934"><ele>934.0</ele><time>2026-04-18T08:29:43.001Z</time></trkpt><trkpt lat="47.67182523037929" lon="12.074314945105687"><ele>931.0</ele><time>2026-04-18T08:29:44.001Z</time></trkpt><trkpt lat="47.67177361418639" lon="12.074151217120948"><ele>928.0</ele><time>2026-04-18T08:29:45.001Z</time></trkpt><trkpt lat="47.67173545827414" lon="12.073984527593456"><ele>925.0</ele><time>2026-04-18T08:29:46.001Z</time></trkpt><trkpt lat="47.67170986815563" lon="12.07381836910059"><ele>925.0</ele><time>2026-04-18T08:29:47.001Z</time></trkpt><trkpt lat="47.671703544816886" lon="12.0736516772281"><ele>925.0</ele><time>2026-04-18T08:29:48.001Z</time></trkpt><trkpt lat="47.67170807944121" lon="12.073452129376815"><ele>925.0</ele><time>2026-04-18T08:29:49.001Z</time></trkpt><trkpt lat="47.671706884212526" lon="12.073227357650138"><ele>925.0</ele><time>2026-04-18T08:29:50.001Z</time></trkpt><trkpt lat="47.67170203987447" lon="12.073018550993933"><ele>926.5</ele><time>2026-04-18T08:29:51.001Z</time></trkpt><trkpt lat="47.67169735479785" lon="12.072819715247862"><ele>928.0</ele><time>2026-04-18T08:29:52.001Z</time></trkpt><trkpt lat="47.671695956003504" lon="12.072622590744013"><ele>929.5</ele><time>2026-04-18T08:29:53.001Z</time></trkpt><trkpt lat="47.67169305870125" lon="12.072435643689003"><ele>931.0</ele><time>2026-04-18T08:29:54.001Z</time></trkpt><trkpt lat="47.67169290382516" lon="12.0722598494554"><ele>932.25</ele><time>2026-04-18T08:29:55.001Z</time></trkpt><trkpt lat="47.6716893587231" lon="12.0720910482009"><ele>933.5</ele><time>2026-04-18T08:29:56.001Z</time></trkpt><trkpt lat="47.671668580402475" lon="12.071924100787703"><ele>934.75</ele><time>2026-04-18T08:29:57.001Z</time></trkpt><trkpt lat="47.671633862691806" lon="12.071755375667852"><ele>936.0</ele><time>2026-04-18T08:29:58.001Z</time></trkpt><trkpt lat="47.6715997138628" lon="12.071587162422363"><ele>938.25</ele><time>2026-04-18T08:29:59Z</time></trkpt><trkpt lat="47.671568496871934" lon="12.071419410387806"><ele>940.5</ele><time>2026-04-18T08:30:00Z</time></trkpt><trkpt lat="47.67153610495564" lon="12.071250929845855"><ele>942.75</ele><time>2026-04-18T08:30:01Z</time></trkpt><trkpt lat="47.67150644038083" lon="12.071081013649769"><ele>945.0</ele><time>2026-04-18T08:30:02Z</time></trkpt><trkpt lat="47.671483245515724" lon="12.070909463478936"><ele>945.0</ele><time>2026-04-18T08:30:03Z</time></trkpt><trkpt lat="47.67147206279638" lon="12.070734236080876"><ele>945.0</ele><time>2026-04-18T08:30:04Z</time></trkpt><trkpt lat="47.67146670942005" lon="12.070562830257524"><ele>945.0</ele><time>2026-04-18T08:30:05Z</time></trkpt><trkpt lat="47.671466850085984" lon="12.070392516694366"><ele>945.0</ele><time>2026-04-18T08:30:06Z</time></trkpt><trkpt lat="47.6714751888841" lon="12.070226712861267"><ele>945.0</ele><time>2026-04-18T08:30:07Z</time></trkpt><trkpt lat="47.67148986823922" lon="12.070069518531483"><ele>945.0</ele><time>2026-04-18T08:30:08Z</time></trkpt><trkpt lat="47.6715169439824" lon="12.06992178059751"><ele>945.0</ele><time>2026-04-18T08:30:09Z</time></trkpt><trkpt lat="47.671554307313315" lon="12.069780510479811"><ele>945.0</ele><time>2026-04-18T08:30:10Z</time></trkpt><trkpt lat="47.67159343358321" lon="12.069643357981125"><ele>945.0</ele><time>2026-04-18T08:30:11Z</time></trkpt><trkpt lat="47.671648472131885" lon="12.06952247980743"><ele>943.6</ele><time>2026-04-18T08:30:12Z</time></trkpt><trkpt lat="47.67172289781051" lon="12.06942804713361"><ele>942.2</ele><time>2026-04-18T08:30:13Z</time></trkpt><trkpt lat="47.671810009699385" lon="12.069361681553211"><ele>940.8</ele><time>2026-04-18T08:30:14Z</time></trkpt><trkpt lat="47.67190050694724" lon="12.069312503912531"><ele>939.4</ele><time>2026-04-18T08:30:15Z</time></trkpt><trkpt lat="47.67199469449728" lon="12.069291752963748"><ele>938.0</ele><time>2026-04-18T08:30:16Z</time></trkpt><trkpt lat="47.67208948236093" lon="12.069303726810432"><ele>942.4</ele><time>2026-04-18T08:30:17Z</time></trkpt><trkpt lat="47.672182996396586" lon="12.069336380543456"><ele>946.8</ele><time>2026-04-18T08:30:18Z</time></trkpt><trkpt lat="47.67226309434584" lon="12.069415316278356"><ele>951.2</ele><time>2026-04-18T08:30:19Z</time></trkpt><trkpt lat="47.67233761113636" lon="12.069494490188257"><ele>955.6</ele><time>2026-04-18T08:30:20Z</time></trkpt><trkpt lat="47.67241386654505" lon="12.069582760973475"><ele>960.0</ele><time>2026-04-18T08:30:21Z</time></trkpt><trkpt lat="47.67246290181259" lon="12.069714724181175"><ele>960.0</ele><time>2026-04-18T08:30:22Z</time></trkpt><trkpt lat="47.672505756298975" lon="12.06989824279714"><ele>960.0</ele><time>2026-04-18T08:30:23Z</time></trkpt><trkpt lat="47.672530560424306" lon="12.070091262983023"><ele>960.0</ele><time>2026-04-18T08:30:24Z</time></trkpt><trkpt lat="47.67254981953406" lon="12.070356554796586"><ele>960.0</ele><time>2026-04-18T08:30:25Z</time></trkpt><trkpt lat="47.67256238652846" lon="12.070545058923985"><ele>960.1666666666666</ele><time>2026-04-18T08:30:26Z</time></trkpt><trkpt lat="47.672573151053655" lon="12.070689689086082"><ele>960.3333333333333</ele><time>2026-04-18T08:30:27Z</time></trkpt><trkpt lat="47.67258322646707" lon="12.070822609892566"><ele>960.5</ele><time>2026-04-18T08:30:28Z</time></trkpt><trkpt lat="47.67259025494942" lon="12.070923251431593"><ele>960.6666666666666</ele><time>2026-04-18T08:30:29Z</time></trkpt><trkpt lat="47.672601191772465" lon="12.071065218368656"><ele>960.8333333333333</ele><time>2026-04-18T08:30:31Z</time></trkpt><trkpt lat="47.6726144282917" lon="12.071181055913387"><ele>961.0</ele><time>2026-04-18T08:30:32Z</time></trkpt><trkpt lat="47.672639733615306" lon="12.071283734258454"><ele>960.9999999999999</ele><time>2026-04-18T08:30:33Z</time></trkpt><trkpt lat="47.67268145348536" lon="12.071368710335632"><ele>961.0</ele><time>2026-04-18T08:30:34Z</time></trkpt><trkpt lat="47.67272503519492" lon="12.071452482791328"><ele>961.0</ele><time>2026-04-18T08:30:35Z</time></trkpt><trkpt lat="47.67280613199554" lon="12.071517631942038"><ele>961.0</ele><time>2026-04-18T08:30:36Z</time></trkpt><trkpt lat="47.67289651370439" lon="12.071555517735536"><ele>960.9999999999999</ele><time>2026-04-18T08:30:37Z</time></trkpt><trkpt lat="47.67299143700957" lon="12.07152665418184"><ele>961.0</ele><time>2026-04-18T08:30:38Z</time></trkpt><trkpt lat="47.673077392116014" lon="12.071428680898313"><ele>967.0</ele><time>2026-04-18T08:30:39Z</time></trkpt><trkpt lat="47.673141368363886" lon="12.07128179475823"><ele>973.0</ele><time>2026-04-18T08:30:40Z</time></trkpt><trkpt lat="47.673189336433" lon="12.071109499147136"><ele>979.0</ele><time>2026-04-18T08:30:41Z</time></trkpt><trkpt lat="47.67322097391976" lon="12.070939543789464"><ele>985.0</ele><time>2026-04-18T08:30:42Z</time></trkpt><trkpt lat="47.673248693944274" lon="12.070781780595775"><ele>984.2</ele><time>2026-04-18T08:30:43Z</time></trkpt><trkpt lat="47.67328091056086" lon="12.07062774697942"><ele>983.4</ele><time>2026-04-18T08:30:44Z</time></trkpt><trkpt lat="47.6733109915737" lon="12.070474673278447"><ele>982.5999999999999</ele><time>2026-04-18T08:30:45Z</time></trkpt><trkpt lat="47.67334280492451" lon="12.070323763088034"><ele>981.8</ele><time>2026-04-18T08:30:46Z</time></trkpt><trkpt lat="47.67337634195888" lon="12.070172534938061"><ele>981.0</ele><time>2026-04-18T08:30:47Z</time></trkpt><trkpt lat="47.67341743764832" lon="12.069994618367701"><ele>982.6666666666667</ele><time>2026-04-18T08:30:48Z</time></trkpt><trkpt lat="47.67346428284505" lon="12.069773866914941"><ele>984.3333333333334</ele><time>2026-04-18T08:30:49Z</time></trkpt><trkpt lat="47.673515753461665" lon="12.069538262989264"><ele>986.0</ele><time>2026-04-18T08:30:50Z</time></trkpt><trkpt lat="47.67357607471566" lon="12.069297157612635"><ele>991.6666666666667</ele><time>2026-04-18T08:30:51Z</time></trkpt><trkpt lat="47.67365269725915" lon="12.069038539480399"><ele>997.3333333333333</ele><time>2026-04-18T08:30:52Z</time></trkpt><trkpt lat="47.67376951231705" lon="12.068805414280195"><ele>1003.0</ele><time>2026-04-18T08:30:53Z</time></trkpt><trkpt lat="47.67387605347539" lon="12.068590508330237"><ele>1003.0</ele><time>2026-04-18T08:30:54Z</time></trkpt><trkpt lat="47.67398308806595" lon="12.068416466352735"><ele>1003.0</ele><time>2026-04-18T08:30:55Z</time></trkpt><trkpt lat="47.674090712449384" lon="12.068276530102196"><ele>1003.0</ele><time>2026-04-18T08:30:56Z</time></trkpt><trkpt lat="47.67419626783333" lon="12.068151495598809"><ele>1003.0</ele><time>2026-04-18T08:30:57Z</time></trkpt><trkpt lat="47.67430495813591" lon="12.068007059137525"><ele>1001.75</ele><time>2026-04-18T08:30:58Z</time></trkpt><trkpt lat="47.67443120406032" lon="12.06788211028441"><ele>1000.5</ele><time>2026-04-18T08:30:59Z</time></trkpt><trkpt lat="47.674543346966956" lon="12.067752624881095"><ele>999.25</ele><time>2026-04-18T08:31:00Z</time></trkpt><trkpt lat="47.674645098085136" lon="12.067636460355253"><ele>998.0</ele><time>2026-04-18T08:31:01Z</time></trkpt><trkpt lat="47.674734610793905" lon="12.067523178811154"><ele>1002.25</ele><time>2026-04-18T08:31:02Z</time></trkpt><trkpt lat="47.67481727443033" lon="12.06739042561342"><ele>1006.5</ele><time>2026-04-18T08:31:03Z</time></trkpt><trkpt lat="47.674881335326695" lon="12.067238018137445"><ele>1010.75</ele><time>2026-04-18T08:31:04Z</time></trkpt><trkpt lat="47.67492895787299" lon="12.067068910277204"><ele>1015.0</ele><time>2026-04-18T08:31:05Z</time></trkpt><trkpt lat="47.67496850296003" lon="12.066879932945309"><ele>1015.0</ele><time>2026-04-18T08:31:06Z</time></trkpt><trkpt lat="47.674997833508876" lon="12.066675052488355"><ele>1015.0</ele><time>2026-04-18T08:31:07Z</time></trkpt><trkpt lat="47.67501324501169" lon="12.06649223521176"><ele>1015.0</ele><time>2026-04-18T08:31:08Z</time></trkpt><trkpt lat="47.67503134431999" lon="12.066324861062608"><ele>1015.0</ele><time>2026-04-18T08:31:09Z</time></trkpt><trkpt lat="47.67505606745345" lon="12.066160797587791"><ele>1013.25</ele><time>2026-04-18T08:31:10Z</time></trkpt><trkpt lat="47.67508899908253" lon="12.066000729763976"><ele>1011.5</ele><time>2026-04-18T08:31:11Z</time></trkpt><trkpt lat="47.67514538649711" lon="12.065851136626673"><ele>1009.75</ele><time>2026-04-18T08:31:12Z</time></trkpt><trkpt lat="47.675229544999155" lon="12.065723688794392"><ele>1008.0</ele><time>2026-04-18T08:31:13Z</time></trkpt><trkpt lat="47.67534764338099" lon="12.065661023160319"><ele>1007.0</ele><time>2026-04-18T08:31:14Z</time></trkpt><trkpt lat="47.67546532622472" lon="12.065604295724654"><ele>1006.0</ele><time>2026-04-18T08:31:15Z</time></trkpt><trkpt lat="47.675595986305915" lon="12.065576015789842"><ele>1005.0</ele><time>2026-04-18T08:31:16Z</time></trkpt><trkpt lat="47.67571667106831" lon="12.065547309373205"><ele>1004.0</ele><time>2026-04-18T08:31:17Z</time></trkpt><trkpt lat="47.67587524012511" lon="12.065509591696198"><ele>1004.0</ele><time>2026-04-18T08:31:18Z</time></trkpt><trkpt lat="47.67602351514465" lon="12.065468972365023"><ele>1004.0</ele><time>2026-04-18T08:31:19.001Z</time></trkpt><trkpt lat="47.67615231457946" lon="12.065415581999448"><ele>1004.0</ele><time>2026-04-18T08:31:20.001Z</time></trkpt><trkpt lat="47.67627020267652" lon="12.065337914958276"><ele>1004.0</ele><time>2026-04-18T08:31:21.001Z</time></trkpt><trkpt lat="47.676381277327245" lon="12.065273697633758"><ele>1006.0</ele><time>2026-04-18T08:31:22.001Z</time></trkpt><trkpt lat="47.67649683365158" lon="12.06520189717465"><ele>1008.0</ele><time>2026-04-18T08:31:23.001Z</time></trkpt><trkpt lat="47.67661537351627" lon="12.065106714993766"><ele>1010.0</ele><time>2026-04-18T08:31:24.001Z</time></trkpt><trkpt lat="47.67673623486479" lon="12.064991746782242"><ele>1012.0</ele><time>2026-04-18T08:31:25.001Z</time></trkpt><trkpt lat="47.676860796350894" lon="12.064867316534766"><ele>1013.0</ele><time>2026-04-18T08:31:26.001Z</time></trkpt><trkpt lat="47.67698555612201" lon="12.064725156137412"><ele>1014.0</ele><time>2026-04-18T08:31:27.001Z</time></trkpt><trkpt lat="47.67712440993464" lon="12.064597082339535"><ele>1015.0</ele><time>2026-04-18T08:31:28.001Z</time></trkpt><trkpt lat="47.677270216794255" lon="12.0644693024813"><ele>1015.0</ele><time>2026-04-18T08:31:29.001Z</time></trkpt><trkpt lat="47.677408160195704" lon="12.064327087730826"><ele>1015.0</ele><time>2026-04-18T08:31:30.001Z</time></trkpt><trkpt lat="47.67754467433583" lon="12.06418724519133"><ele>1015.0</ele><time>2026-04-18T08:31:31.001Z</time></trkpt><trkpt lat="47.67767861351415" lon="12.064052676383119"><ele>1014.25</ele><time>2026-04-18T08:31:32.001Z</time></trkpt><trkpt lat="47.67781261501081" lon="12.063922456743393"><ele>1013.5</ele><time>2026-04-18T08:31:33.001Z</time></trkpt><trkpt lat="47.67793457428353" lon="12.06379809466992"><ele>1012.75</ele><time>2026-04-18T08:31:34.001Z</time></trkpt><trkpt lat="47.67804767267182" lon="12.0636813569032"><ele>1012.0</ele><time>2026-04-18T08:31:35.001Z</time></trkpt><trkpt lat="47.678158959805195" lon="12.063570665123503"><ele>1012.0</ele><time>2026-04-18T08:31:36.001Z</time></trkpt><trkpt lat="47.67826967201468" lon="12.063458631020696"><ele>1012.0</ele><time>2026-04-18T08:31:37.001Z</time></trkpt><trkpt lat="47.67837481924298" lon="12.063322979859363"><ele>1012.0</ele><time>2026-04-18T08:31:38.001Z</time></trkpt><trkpt lat="47.67846663157682" lon="12.063154212951357"><ele>1012.0</ele><time>2026-04-18T08:31:39Z</time></trkpt><trkpt lat="47.67854366074781" lon="12.062957945868709"><ele>1012.75</ele><time>2026-04-18T08:31:40Z</time></trkpt><trkpt lat="47.67861415348322" lon="12.062763893899447"><ele>1013.5</ele><time>2026-04-18T08:31:41Z</time></trkpt><trkpt lat="47.67867286495354" lon="12.062559488790606"><ele>1014.25</ele><time>2026-04-18T08:31:42Z</time></trkpt><trkpt lat="47.678731441882555" lon="12.06235389895737"><ele>1015.0</ele><time>2026-04-18T08:31:43Z</time></trkpt><trkpt lat="47.678798479744785" lon="12.062150796166831"><ele>1015.0</ele><time>2026-04-18T08:31:44Z</time></trkpt><trkpt lat="47.67886095114209" lon="12.06197008319822"><ele>1015.0</ele><time>2026-04-18T08:31:45Z</time></trkpt><trkpt lat="47.67890236449565" lon="12.061830033560142"><ele>1015.0</ele><time>2026-04-18T08:31:46Z</time></trkpt><trkpt lat="47.678951483523825" lon="12.06168353712317"><ele>1015.0</ele><time>2026-04-18T08:31:47Z</time></trkpt><trkpt lat="47.679023013507596" lon="12.061517532292447"><ele>1008.3333333333333</ele><time>2026-04-18T08:31:48Z</time></trkpt><trkpt lat="47.67912110283717" lon="12.06134765201601"><ele>1001.6666666666667</ele><time>2026-04-18T08:31:49Z</time></trkpt><trkpt lat="47.67924839169538" lon="12.061201390530538"><ele>995.0</ele><time>2026-04-18T08:31:50Z</time></trkpt><trkpt lat="47.67938523776246" lon="12.061087585891238"><ele>1000.3333333333334</ele><time>2026-04-18T08:31:51Z</time></trkpt><trkpt lat="47.67952558725948" lon="12.06099816280074"><ele>1005.6666666666667</ele><time>2026-04-18T08:31:52Z</time></trkpt><trkpt lat="47.67966514050951" lon="12.060905346512966"><ele>1011.0</ele><time>2026-04-18T08:31:53Z</time></trkpt><trkpt lat="47.67980114849815" lon="12.060800302306259"><ele>1002.6666666666667</ele><time>2026-04-18T08:31:54Z</time></trkpt><trkpt lat="47.679937594346534" lon="12.060683274062752"><ele>994.3333333333334</ele><time>2026-04-18T08:31:55Z</time></trkpt><trkpt lat="47.680078897206556" lon="12.060563687123445"><ele>986.0</ele><time>2026-04-18T08:31:56Z</time></trkpt><trkpt lat="47.68022254497631" lon="12.060443626771793"><ele>989.3333333333334</ele><time>2026-04-18T08:31:57Z</time></trkpt><trkpt lat="47.6803623481219" lon="12.060329857465351"><ele>992.6666666666667</ele><time>2026-04-18T08:31:58Z</time></trkpt><trkpt lat="47.68049709457197" lon="12.060218491285028"><ele>996.0</ele><time>2026-04-18T08:31:59Z</time></trkpt><trkpt lat="47.680630117830646" lon="12.060110543245964"><ele>996.0</ele><time>2026-04-18T08:32:00Z</time></trkpt><trkpt lat="47.68076596822059" lon="12.060004702773222"><ele>996.0</ele><time>2026-04-18T08:32:01Z</time></trkpt><trkpt lat="47.68090313841643" lon="12.059897237508158"><ele>996.0</ele><time>2026-04-18T08:32:02Z</time></trkpt><trkpt lat="47.68104476625692" lon="12.059779565734212"><ele>992.6666666666667</ele><time>2026-04-18T08:32:03Z</time></trkpt><trkpt lat="47.681195551342306" lon="12.059660011271175"><ele>989.3333333333334</ele><time>2026-04-18T08:32:04Z</time></trkpt><trkpt lat="47.68135204746422" lon="12.059536778761126"><ele>986.0</ele><time>2026-04-18T08:32:05Z</time></trkpt><trkpt lat="47.68151259770108" lon="12.059402971823317"><ele>986.0</ele><time>2026-04-18T08:32:06Z</time></trkpt><trkpt lat="47.681677185734486" lon="12.05926743965424"><ele>986.0</ele><time>2026-04-18T08:32:07Z</time></trkpt><trkpt lat="47.681834743334" lon="12.059141573413235"><ele>986.0</ele><time>2026-04-18T08:32:08Z</time></trkpt><trkpt lat="47.68198456924052" lon="12.059019159805809"><ele>985.0</ele><time>2026-04-18T08:32:09Z</time></trkpt><trkpt lat="47.68214081552553" lon="12.058920437532768"><ele>984.0</ele><time>2026-04-18T08:32:10Z</time></trkpt><trkpt lat="47.68227742037607" lon="12.05880244735648"><ele>983.0</ele><time>2026-04-18T08:32:11Z</time></trkpt><trkpt lat="47.68241195467783" lon="12.05871446934268"><ele>983.0</ele><time>2026-04-18T08:32:12Z</time></trkpt><trkpt lat="47.68253908408237" lon="12.058635401648575"><ele>983.0</ele><time>2026-04-18T08:32:13Z</time></trkpt><trkpt lat="47.68266288515755" lon="12.058568729432638"><ele>983.0</ele><time>2026-04-18T08:32:14Z</time></trkpt><trkpt lat="47.68280039280728" lon="12.058497204390278"><ele>983.0</ele><time>2026-04-18T08:32:15Z</time></trkpt><trkpt lat="47.68296287948669" lon="12.058409665915551"><ele>983.0</ele><time>2026-04-18T08:32:16Z</time></trkpt><trkpt lat="47.683131192848236" lon="12.058323775589814"><ele>983.0</ele><time>2026-04-18T08:32:17Z</time></trkpt><trkpt lat="47.683289235047454" lon="12.05824836288122"><ele>983.0</ele><time>2026-04-18T08:32:18Z</time></trkpt><trkpt lat="47.68343981504791" lon="12.05817155282933"><ele>983.0</ele><time>2026-04-18T08:32:19Z</time></trkpt><trkpt lat="47.68359082106196" lon="12.058090332404625"><ele>983.0</ele><time>2026-04-18T08:32:20Z</time></trkpt><trkpt lat="47.683756603946975" lon="12.058002299727836"><ele>983.0</ele><time>2026-04-18T08:32:21Z</time></trkpt><trkpt lat="47.68392193838543" lon="12.057916713423486"><ele>986.0</ele><time>2026-04-18T08:32:22Z</time></trkpt><trkpt lat="47.684076709600994" lon="12.057835224830104"><ele>989.0</ele><time>2026-04-18T08:32:23Z</time></trkpt><trkpt lat="47.68422154395314" lon="12.057761811127584"><ele>992.0</ele><time>2026-04-18T08:32:24Z</time></trkpt><trkpt lat="47.68434850398682" lon="12.057697919354029"><ele>994.25</ele><time>2026-04-18T08:32:25Z</time></trkpt><trkpt lat="47.68446758679509" lon="12.057633871450749"><ele>996.5</ele><time>2026-04-18T08:32:26Z</time></trkpt><trkpt lat="47.6845863831465" lon="12.057575046281194"><ele>998.75</ele><time>2026-04-18T08:32:27Z</time></trkpt><trkpt lat="47.68470604042526" lon="12.057512339629632"><ele>1001.0</ele><time>2026-04-18T08:32:28Z</time></trkpt><trkpt lat="47.68483972905008" lon="12.05745732063402"><ele>999.75</ele><time>2026-04-18T08:32:29Z</time></trkpt><trkpt lat="47.684976117810095" lon="12.057425452182429"><ele>998.5</ele><time>2026-04-18T08:32:30Z</time></trkpt><trkpt lat="47.68510775918286" lon="12.057400208197247"><ele>997.25</ele><time>2026-04-18T08:32:31Z</time></trkpt><trkpt lat="47.68524109761927" lon="12.057381154345947"><ele>996.0</ele><time>2026-04-18T08:32:32Z</time></trkpt><trkpt lat="47.68538303792534" lon="12.057346106488893"><ele>996.0</ele><time>2026-04-18T08:32:33Z</time></trkpt><trkpt lat="47.68552786067421" lon="12.057315585060332"><ele>996.0</ele><time>2026-04-18T08:32:34Z</time></trkpt><trkpt lat="47.685658823712025" lon="12.057294534371138"><ele>996.0</ele><time>2026-04-18T08:32:35Z</time></trkpt><trkpt lat="47.68578091919427" lon="12.057273076143645"><ele>996.0</ele><time>2026-04-18T08:32:36Z</time></trkpt><trkpt lat="47.685905657531215" lon="12.057244826782567"><ele>996.0</ele><time>2026-04-18T08:32:37Z</time></trkpt><trkpt lat="47.686029807933856" lon="12.057202900676312"><ele>996.0</ele><time>2026-04-18T08:32:38Z</time></trkpt><trkpt lat="47.6861486908846" lon="12.057112425790331"><ele>996.0</ele><time>2026-04-18T08:32:39Z</time></trkpt><trkpt lat="47.686264092006056" lon="12.057002334515643"><ele>996.0</ele><time>2026-04-18T08:32:40Z</time></trkpt><trkpt lat="47.686365462071684" lon="12.056858224996116"><ele>996.0</ele><time>2026-04-18T08:32:41Z</time></trkpt><trkpt lat="47.68644987669774" lon="12.056674812637521"><ele>996.0</ele><time>2026-04-18T08:32:42Z</time></trkpt><trkpt lat="47.68651244026367" lon="12.056483055568098"><ele>996.0</ele><time>2026-04-18T08:32:43Z</time></trkpt><trkpt lat="47.68656136385237" lon="12.056290737610828"><ele>996.0</ele><time>2026-04-18T08:32:44Z</time></trkpt><trkpt lat="47.68659639980255" lon="12.056096528929398"><ele>996.0</ele><time>2026-04-18T08:32:45Z</time></trkpt><trkpt lat="47.68660887388319" lon="12.055896276198244"><ele>996.0</ele><time>2026-04-18T08:32:46Z</time></trkpt><trkpt lat="47.6865934187658" lon="12.05570063677724"><ele>996.0</ele><time>2026-04-18T08:32:47Z</time></trkpt><trkpt lat="47.68656186587494" lon="12.055513328717785"><ele>996.0</ele><time>2026-04-18T08:32:48Z</time></trkpt><trkpt lat="47.68650891842937" lon="12.055313208241873"><ele>998.0</ele><time>2026-04-18T08:32:49Z</time></trkpt><trkpt lat="47.68643386071638" lon="12.055124470308693"><ele>1000.0</ele><time>2026-04-18T08:32:50Z</time></trkpt><trkpt lat="47.68634817626496" lon="12.054968847916081"><ele>1002.0</ele><time>2026-04-18T08:32:51Z</time></trkpt><trkpt lat="47.68624833905809" lon="12.054837698211687"><ele>1004.0</ele><time>2026-04-18T08:32:52Z</time></trkpt><trkpt lat="47.68613488552577" lon="12.05472697072885"><ele>1005.5</ele><time>2026-04-18T08:32:53Z</time></trkpt><trkpt lat="47.68601038035591" lon="12.054636768120872"><ele>1007.0</ele><time>2026-04-18T08:32:54Z</time></trkpt><trkpt lat="47.68587499168285" lon="12.054582931673497"><ele>1008.5</ele><time>2026-04-18T08:32:55Z</time></trkpt><trkpt lat="47.68573480307763" lon="12.054556616792595"><ele>1010.0</ele><time>2026-04-18T08:32:56Z</time></trkpt><trkpt lat="47.68560590399825" lon="12.054564401286477"><ele>1010.0</ele><time>2026-04-18T08:32:57Z</time></trkpt><trkpt lat="47.685473448567826" lon="12.054586236594382"><ele>1010.0</ele><time>2026-04-18T08:32:58Z</time></trkpt><trkpt lat="47.68531848364003" lon="12.054621763896472"><ele>1010.0</ele><time>2026-04-18T08:32:59Z</time></trkpt><trkpt lat="47.68513766606896" lon="12.054674061656094"><ele>1012.3333333333334</ele><time>2026-04-18T08:33:00Z</time></trkpt><trkpt lat="47.68495680701099" lon="12.054739553640042"><ele>1014.6666666666667</ele><time>2026-04-18T08:33:01Z</time></trkpt><trkpt lat="47.68479456593949" lon="12.05480387671405"><ele>1017.0</ele><time>2026-04-18T08:33:02Z</time></trkpt><trkpt lat="47.684658246603" lon="12.05484423795714"><ele>1017.0</ele><time>2026-04-18T08:33:03Z</time></trkpt><trkpt lat="47.6845404551076" lon="12.054870044555269"><ele>1017.0</ele><time>2026-04-18T08:33:04Z</time></trkpt><trkpt lat="47.68441653352927" lon="12.054883641082927"><ele>1017.0</ele><time>2026-04-18T08:33:05Z</time></trkpt><trkpt lat="47.68427892833983" lon="12.054882634155984"><ele>1017.0</ele><time>2026-04-18T08:33:06Z</time></trkpt><trkpt lat="47.684136339824526" lon="12.054865711748871"><ele>1021.0</ele><time>2026-04-18T08:33:07Z</time></trkpt><trkpt lat="47.68400834857491" lon="12.054837295933217"><ele>1025.0</ele><time>2026-04-18T08:33:08Z</time></trkpt><trkpt lat="47.68388400603362" lon="12.054810059711809"><ele>1029.0</ele><time>2026-04-18T08:33:09Z</time></trkpt><trkpt lat="47.68374751560739" lon="12.054783286279932"><ele>1033.0</ele><time>2026-04-18T08:33:10Z</time></trkpt><trkpt lat="47.68360513018327" lon="12.054769634660504"><ele>1034.0</ele><time>2026-04-18T08:33:11Z</time></trkpt><trkpt lat="47.683462178262" lon="12.054779453308504"><ele>1035.0</ele><time>2026-04-18T08:33:12Z</time></trkpt><trkpt lat="47.68331698629693" lon="12.054809589576585"><ele>1036.0</ele><time>2026-04-18T08:33:13Z</time></trkpt><trkpt lat="47.683177031492896" lon="12.054845018221128"><ele>1037.0</ele><time>2026-04-18T08:33:14Z</time></trkpt><trkpt lat="47.68304297461976" lon="12.054876411216629"><ele>1037.0</ele><time>2026-04-18T08:33:15Z</time></trkpt><trkpt lat="47.682918290730434" lon="12.054895807750531"><ele>1037.0</ele><time>2026-04-18T08:33:16Z</time></trkpt><trkpt lat="47.682801266262985" lon="12.054910990888386"><ele>1037.0</ele><time>2026-04-18T08:33:17Z</time></trkpt><trkpt lat="47.68268317137164" lon="12.054927615034154"><ele>1037.0</ele><time>2026-04-18T08:33:18Z</time></trkpt><trkpt lat="47.68255682357865" lon="12.054930767736547"><ele>1037.0</ele><time>2026-04-18T08:33:19Z</time></trkpt><trkpt lat="47.682425513234676" lon="12.054908590043194"><ele>1037.0</ele><time>2026-04-18T08:33:20Z</time></trkpt><trkpt lat="47.68229092948701" lon="12.054870312143773"><ele>1037.0</ele><time>2026-04-18T08:33:21Z</time></trkpt><trkpt lat="47.68216646539396" lon="12.054827469757367"><ele>1037.0</ele><time>2026-04-18T08:33:22Z</time></trkpt><trkpt lat="47.68205289310201" lon="12.054783482851217"><ele>1037.0</ele><time>2026-04-18T08:33:23Z</time></trkpt><trkpt lat="47.681939619164964" lon="12.054736785801579"><ele>1037.0</ele><time>2026-04-18T08:33:24Z</time></trkpt><trkpt lat="47.68182725191021" lon="12.054683122731639"><ele>1037.0</ele><time>2026-04-18T08:33:25Z</time></trkpt><trkpt lat="47.68170814388718" lon="12.05463252482671"><ele>1037.0</ele><time>2026-04-18T08:33:26Z</time></trkpt><trkpt lat="47.68158825422216" lon="12.05456479225159"><ele>1035.5</ele><time>2026-04-18T08:33:27Z</time></trkpt><trkpt lat="47.681475739300964" lon="12.054461943288615"><ele>1034.0</ele><time>2026-04-18T08:33:28Z</time></trkpt><trkpt lat="47.6813720555105" lon="12.054329358898014"><ele>1032.5</ele><time>2026-04-18T08:33:29Z</time></trkpt><trkpt lat="47.68127869414553" lon="12.05417858841493"><ele>1031.0</ele><time>2026-04-18T08:33:30Z</time></trkpt><trkpt lat="47.681201173915944" lon="12.054010673682724"><ele>1034.75</ele><time>2026-04-18T08:33:31Z</time></trkpt><trkpt lat="47.68114871235783" lon="12.053829375943897"><ele>1038.5</ele><time>2026-04-18T08:33:32Z</time></trkpt><trkpt lat="47.681117214641" lon="12.053636778558445"><ele>1042.25</ele><time>2026-04-18T08:33:33Z</time></trkpt><trkpt lat="47.68110196042776" lon="12.053429603182549"><ele>1046.0</ele><time>2026-04-18T08:33:34Z</time></trkpt><trkpt lat="47.681112496488396" lon="12.053205794231038"><ele>1046.25</ele><time>2026-04-18T08:33:35Z</time></trkpt><trkpt lat="47.681139591128286" lon="12.052978631652861"><ele>1046.5</ele><time>2026-04-18T08:33:36Z</time></trkpt><trkpt lat="47.68116897937404" lon="12.052771956766872"><ele>1046.75</ele><time>2026-04-18T08:33:37Z</time></trkpt><trkpt lat="47.68120257728035" lon="12.052560153187244"><ele>1047.0</ele><time>2026-04-18T08:33:38Z</time></trkpt><trkpt lat="47.68123749501621" lon="12.05234530617202"><ele>1045.5</ele><time>2026-04-18T08:33:39Z</time></trkpt><trkpt lat="47.68127127964896" lon="12.052129293306086"><ele>1044.0</ele><time>2026-04-18T08:33:40Z</time></trkpt><trkpt lat="47.681303896460044" lon="12.05193293779806"><ele>1042.5</ele><time>2026-04-18T08:33:41Z</time></trkpt><trkpt lat="47.681335232611175" lon="12.051739591821812"><ele>1041.0</ele><time>2026-04-18T08:33:42Z</time></trkpt><trkpt lat="47.68136917288136" lon="12.051549550473007"><ele>1039.75</ele><time>2026-04-18T08:33:43Z</time></trkpt><trkpt lat="47.6814096759206" lon="12.051366805740564"><ele>1038.5</ele><time>2026-04-18T08:33:44Z</time></trkpt><trkpt lat="47.68145600287975" lon="12.051190660185325"><ele>1037.25</ele><time>2026-04-18T08:33:45Z</time></trkpt><trkpt lat="47.68150564355494" lon="12.051005735293787"><ele>1036.0</ele><time>2026-04-18T08:33:46Z</time></trkpt><trkpt lat="47.68155906973963" lon="12.050809094827867"><ele>1034.75</ele><time>2026-04-18T08:33:47Z</time></trkpt><trkpt lat="47.68161352711503" lon="12.05060673241285"><ele>1033.5</ele><time>2026-04-18T08:33:48Z</time></trkpt><trkpt lat="47.68166528981759" lon="12.05040639303789"><ele>1032.25</ele><time>2026-04-18T08:33:49Z</time></trkpt><trkpt lat="47.681717058734705" lon="12.050207084657824"><ele>1031.0</ele><time>2026-04-18T08:33:50Z</time></trkpt><trkpt lat="47.681770895186055" lon="12.05000773466246"><ele>1029.5</ele><time>2026-04-18T08:33:51Z</time></trkpt><trkpt lat="47.68182720415668" lon="12.049815918854842"><ele>1028.0</ele><time>2026-04-18T08:33:52Z</time></trkpt><trkpt lat="47.68188322171034" lon="12.049621721040447"><ele>1026.5</ele><time>2026-04-18T08:33:53Z</time></trkpt><trkpt lat="47.681941862285015" lon="12.049414828734438"><ele>1025.0</ele><time>2026-04-18T08:33:54Z</time></trkpt><trkpt lat="47.68200205791444" lon="12.049205698374578"><ele>1032.0</ele><time>2026-04-18T08:33:55Z</time></trkpt><trkpt lat="47.68206835278453" lon="12.04899922604877"><ele>1039.0</ele><time>2026-04-18T08:33:56Z</time></trkpt><trkpt lat="47.68213950327584" lon="12.048797308826162"><ele>1046.0</ele><time>2026-04-18T08:33:57Z</time></trkpt><trkpt lat="47.682214442612576" lon="12.048602727983459"><ele>1046.0</ele><time>2026-04-18T08:33:58Z</time></trkpt><trkpt lat="47.68228042031667" lon="12.048418474549834"><ele>1046.0</ele><time>2026-04-18T08:33:59Z</time></trkpt><trkpt lat="47.68234167969446" lon="12.048240069778268"><ele>1046.0</ele><time>2026-04-18T08:34:00Z</time></trkpt><trkpt lat="47.682410874622256" lon="12.048064411382615"><ele>1046.0</ele><time>2026-04-18T08:34:01Z</time></trkpt><trkpt lat="47.6824924022505" lon="12.047883121497478"><ele>1047.0</ele><time>2026-04-18T08:34:02Z</time></trkpt><trkpt lat="47.682587621620115" lon="12.047711460596972"><ele>1048.0</ele><time>2026-04-18T08:34:03Z</time></trkpt><trkpt lat="47.6826956085555" lon="12.047560190374053"><ele>1049.0</ele><time>2026-04-18T08:34:04Z</time></trkpt><trkpt lat="47.68280088761169" lon="12.047422190597379"><ele>1050.0</ele><time>2026-04-18T08:34:05Z</time></trkpt><trkpt lat="47.682890269357515" lon="12.047299712429094"><ele>1050.0</ele><time>2026-04-18T08:34:06Z</time></trkpt><trkpt lat="47.68297075123168" lon="12.047186962721957"><ele>1050.0</ele><time>2026-04-18T08:34:07Z</time></trkpt><trkpt lat="47.68305011149302" lon="12.047079907870685"><ele>1050.0</ele><time>2026-04-18T08:34:08Z</time></trkpt><trkpt lat="47.68313601811006" lon="12.046972707954197"><ele>1050.0</ele><time>2026-04-18T08:34:09Z</time></trkpt><trkpt lat="47.68322131711397" lon="12.046853721998374"><ele>1050.0</ele><time>2026-04-18T08:34:10Z</time></trkpt><trkpt lat="47.683313408875776" lon="12.046725106972302"><ele>1048.0</ele><time>2026-04-18T08:34:11Z</time></trkpt><trkpt lat="47.683416217017914" lon="12.046589233104966"><ele>1046.0</ele><time>2026-04-18T08:34:12Z</time></trkpt><trkpt lat="47.683524018311765" lon="12.046445313649519"><ele>1044.0</ele><time>2026-04-18T08:34:13Z</time></trkpt><trkpt lat="47.683628171567634" lon="12.046305929389883"><ele>1042.0</ele><time>2026-04-18T08:34:14Z</time></trkpt><trkpt lat="47.683719140115684" lon="12.046181976873443"><ele>1046.25</ele><time>2026-04-18T08:34:15Z</time></trkpt><trkpt lat="47.68381105674823" lon="12.046055658031245"><ele>1050.5</ele><time>2026-04-18T08:34:16Z</time></trkpt><trkpt lat="47.68390125941907" lon="12.045928411156941"><ele>1054.75</ele><time>2026-04-18T08:34:17Z</time></trkpt><trkpt lat="47.683990375969216" lon="12.045808069788741"><ele>1059.0</ele><time>2026-04-18T08:34:18Z</time></trkpt><trkpt lat="47.68405747237878" lon="12.045658241703574"><ele>1059.0</ele><time>2026-04-18T08:34:19Z</time></trkpt><trkpt lat="47.68409535264123" lon="12.045468053447305"><ele>1059.0</ele><time>2026-04-18T08:34:20Z</time></trkpt><trkpt lat="47.684091592493424" lon="12.045254179997713"><ele>1059.0</ele><time>2026-04-18T08:34:21Z</time></trkpt><trkpt lat="47.68408447599463" lon="12.045074676207227"><ele>1059.0</ele><time>2026-04-18T08:34:22Z</time></trkpt><trkpt lat="47.68408051848724" lon="12.044915265613602"><ele>1057.75</ele><time>2026-04-18T08:34:23Z</time></trkpt><trkpt lat="47.68407793551814" lon="12.044740550126782"><ele>1056.5</ele><time>2026-04-18T08:34:24Z</time></trkpt><trkpt lat="47.68407749753177" lon="12.044552165950767"><ele>1055.25</ele><time>2026-04-18T08:34:25Z</time></trkpt><trkpt lat="47.684087279686096" lon="12.044357505745953"><ele>1054.0</ele><time>2026-04-18T08:34:26Z</time></trkpt><trkpt lat="47.68412046245073" lon="12.0441560608607"><ele>1052.5</ele><time>2026-04-18T08:34:27Z</time></trkpt><trkpt lat="47.684177391743674" lon="12.043943897079611"><ele>1051.0</ele><time>2026-04-18T08:34:28Z</time></trkpt><trkpt lat="47.684254644525346" lon="12.043741815721715"><ele>1049.5</ele><time>2026-04-18T08:34:29Z</time></trkpt><trkpt lat="47.68433018608724" lon="12.043573103701682"><ele>1048.0</ele><time>2026-04-18T08:34:30Z</time></trkpt><trkpt lat="47.68440383470088" lon="12.043413728555818"><ele>1053.5</ele><time>2026-04-18T08:34:31Z</time></trkpt><trkpt lat="47.68447627537603" lon="12.043259802822027"><ele>1059.0</ele><time>2026-04-18T08:34:32Z</time></trkpt><trkpt lat="47.684548393301974" lon="12.043104873575905"><ele>1064.5</ele><time>2026-04-18T08:34:33Z</time></trkpt><trkpt lat="47.68461165761009" lon="12.042963621654202"><ele>1070.0</ele><time>2026-04-18T08:34:34Z</time></trkpt><trkpt lat="47.684665748218904" lon="12.042842199159217"><ele>1070.0</ele><time>2026-04-18T08:34:35Z</time></trkpt><trkpt lat="47.68471220663019" lon="12.04274266926853"><ele>1070.0</ele><time>2026-04-18T08:34:36Z</time></trkpt><trkpt lat="47.68475393712881" lon="12.042650737542857"><ele>1070.0</ele><time>2026-04-18T08:34:37Z</time></trkpt><trkpt lat="47.6847914816397" lon="12.042567598006743"><ele>1070.0</ele><time>2026-04-18T08:34:38Z</time></trkpt><trkpt lat="47.68483142425384" lon="12.042485178984741"><ele>1070.0</ele><time>2026-04-18T08:34:39Z</time></trkpt><trkpt lat="47.684868426946586" lon="12.04239886882134"><ele>1070.0</ele><time>2026-04-18T08:34:40Z</time></trkpt><trkpt lat="47.684907174102335" lon="12.042304537423654"><ele>1070.0</ele><time>2026-04-18T08:34:41Z</time></trkpt><trkpt lat="47.6849484097641" lon="12.042203235838837"><ele>1069.0</ele><time>2026-04-18T08:34:42Z</time></trkpt><trkpt lat="47.68498491988188" lon="12.042101833169696"><ele>1068.0</ele><time>2026-04-18T08:34:43Z</time></trkpt><trkpt lat="47.685017505191944" lon="12.04199874590663"><ele>1067.0</ele><time>2026-04-18T08:34:44Z</time></trkpt><trkpt lat="47.6850401991" lon="12.041897286062461"><ele>1066.0</ele><time>2026-04-18T08:34:45Z</time></trkpt><trkpt lat="47.68505561639568" lon="12.041793744368007"><ele>1065.0</ele><time>2026-04-18T08:34:46Z</time></trkpt><trkpt lat="47.685060026567925" lon="12.041684280509594"><ele>1064.0</ele><time>2026-04-18T08:34:47Z</time></trkpt><trkpt lat="47.68505769505941" lon="12.04157057276682"><ele>1063.0</ele><time>2026-04-18T08:34:48Z</time></trkpt><trkpt lat="47.685049208129904" lon="12.04145634627943"><ele>1062.6666666666665</ele><time>2026-04-18T08:34:49Z</time></trkpt><trkpt lat="47.685032492672576" lon="12.041344162147828"><ele>1062.3333333333333</ele><time>2026-04-18T08:34:50Z</time></trkpt><trkpt lat="47.68501060167395" lon="12.041230730959528"><ele>1062.0</ele><time>2026-04-18T08:34:51Z</time></trkpt><trkpt lat="47.68498904758124" lon="12.041119008735075"><ele>1061.6666666666667</ele><time>2026-04-18T08:34:52Z</time></trkpt><trkpt lat="47.68496919661418" lon="12.041011396477417"><ele>1061.3333333333335</ele><time>2026-04-18T08:34:53Z</time></trkpt><trkpt lat="47.684956580553326" lon="12.04090576451536"><ele>1061.0</ele><time>2026-04-18T08:34:54Z</time></trkpt><trkpt lat="47.68492840072091" lon="12.040807200757593"><ele>1063.3333333333335</ele><time>2026-04-18T08:34:55Z</time></trkpt><trkpt lat="47.68489716774758" lon="12.040704143618974"><ele>1065.6666666666667</ele><time>2026-04-18T08:34:56Z</time></trkpt><trkpt lat="47.68486307427204" lon="12.040593141526273"><ele>1068.0</ele><time>2026-04-18T08:34:57Z</time></trkpt><trkpt lat="47.68482515736842" lon="12.040474372532659"><ele>1070.3333333333333</ele><time>2026-04-18T08:34:58Z</time></trkpt><trkpt lat="47.68478844029801" lon="12.040356539188613"><ele>1072.6666666666665</ele><time>2026-04-18T08:34:59Z</time></trkpt><trkpt lat="47.6847607732823" lon="12.040246925238145"><ele>1075.0</ele><time>2026-04-18T08:35:00Z</time></trkpt><trkpt lat="47.68472919171725" lon="12.040131074748727"><ele>1075.0</ele><time>2026-04-18T08:35:01Z</time></trkpt><trkpt lat="47.684688584757005" lon="12.040010617940707"><ele>1075.0</ele><time>2026-04-18T08:35:02Z</time></trkpt><trkpt lat="47.68465307790725" lon="12.03988467615352"><ele>1075.0</ele><time>2026-04-18T08:35:03Z</time></trkpt><trkpt lat="47.68462053011512" lon="12.03976438320857"><ele>1075.0</ele><time>2026-04-18T08:35:04Z</time></trkpt><trkpt lat="47.684589506880656" lon="12.039657228713098"><ele>1075.0</ele><time>2026-04-18T08:35:05Z</time></trkpt><trkpt lat="47.68456145158387" lon="12.039554674027196"><ele>1075.0</ele><time>2026-04-18T08:35:06Z</time></trkpt><trkpt lat="47.68453327899109" lon="12.039451049204848"><ele>1077.5</ele><time>2026-04-18T08:35:07Z</time></trkpt><trkpt lat="47.684506198992004" lon="12.039341471493014"><ele>1080.0</ele><time>2026-04-18T08:35:08Z</time></trkpt><trkpt lat="47.68448163168275" lon="12.039224619484877"><ele>1082.5</ele><time>2026-04-18T08:35:09Z</time></trkpt><trkpt lat="47.684459153884966" lon="12.039102701911233"><ele>1085.0</ele><time>2026-04-18T08:35:10Z</time></trkpt><trkpt lat="47.68444417794088" lon="12.038979501985441"><ele>1087.5</ele><time>2026-04-18T08:35:11Z</time></trkpt><trkpt lat="47.68443516194641" lon="12.038851048609843"><ele>1090.0</ele><time>2026-04-18T08:35:12Z</time></trkpt><trkpt lat="47.684430228658464" lon="12.038715524394629"><ele>1092.5</ele><time>2026-04-18T08:35:13Z</time></trkpt><trkpt lat="47.68443569233887" lon="12.03856179843266"><ele>1095.0</ele><time>2026-04-18T08:35:14Z</time></trkpt><trkpt lat="47.68445957955302" lon="12.038385578349262"><ele>1097.5</ele><time>2026-04-18T08:35:15Z</time></trkpt><trkpt lat="47.684489282478665" lon="12.038196572507339"><ele>1100.0</ele><time>2026-04-18T08:35:16Z</time></trkpt><trkpt lat="47.68449844035695" lon="12.03804575599066"><ele>1100.8</ele><time>2026-04-18T08:35:17Z</time></trkpt><trkpt lat="47.68450217665324" lon="12.037913631364276"><ele>1101.6</ele><time>2026-04-18T08:35:18Z</time></trkpt><trkpt lat="47.68450416296292" lon="12.03778257518878"><ele>1102.4</ele><time>2026-04-18T08:35:19Z</time></trkpt><trkpt lat="47.68449231150629" lon="12.037640803850124"><ele>1103.2</ele><time>2026-04-18T08:35:20Z</time></trkpt><trkpt lat="47.6844635926074" lon="12.037497639513681"><ele>1104.0</ele><time>2026-04-18T08:35:21Z</time></trkpt><trkpt lat="47.68442481204782" lon="12.037361906307645"><ele>1101.0</ele><time>2026-04-18T08:35:22Z</time></trkpt><trkpt lat="47.68437008763392" lon="12.037232057134434"><ele>1098.0</ele><time>2026-04-18T08:35:23Z</time></trkpt><trkpt lat="47.6842974461439" lon="12.03711729502663"><ele>1095.0</ele><time>2026-04-18T08:35:24Z</time></trkpt><trkpt lat="47.684218998339915" lon="12.037015021105423"><ele>1092.0</ele><time>2026-04-18T08:35:25Z</time></trkpt><trkpt lat="47.68413299358963" lon="12.036929259215011"><ele>1089.0</ele><time>2026-04-18T08:35:26Z</time></trkpt><trkpt lat="47.68404041226397" lon="12.036863680666265"><ele>1089.0</ele><time>2026-04-18T08:35:27Z</time></trkpt><trkpt lat="47.68393907986407" lon="12.036813536801512"><ele>1089.0</ele><time>2026-04-18T08:35:28Z</time></trkpt><trkpt lat="47.683816784498504" lon="12.03679136895564"><ele>1089.0</ele><time>2026-04-18T08:35:29Z</time></trkpt><trkpt lat="47.68370485686915" lon="12.036781610614378"><ele>1089.0</ele><time>2026-04-18T08:35:30Z</time></trkpt><trkpt lat="47.68360340484131" lon="12.03676802829786"><ele>1089.0</ele><time>2026-04-18T08:35:31Z</time></trkpt><trkpt lat="47.68350519651062" lon="12.036746882828304"><ele>1089.8</ele><time>2026-04-18T08:35:32Z</time></trkpt><trkpt lat="47.68340513664268" lon="12.03671988392673"><ele>1090.6000000000001</ele><time>2026-04-18T08:35:33Z</time></trkpt><trkpt lat="47.68331472455597" lon="12.036671308881605"><ele>1091.4</ele><time>2026-04-18T08:35:34Z</time></trkpt><trkpt lat="47.68324080461748" lon="12.036610667995369"><ele>1092.2</ele><time>2026-04-18T08:35:35Z</time></trkpt><trkpt lat="47.68317484077139" lon="12.036527039099763"><ele>1093.0</ele><time>2026-04-18T08:35:36Z</time></trkpt><trkpt lat="47.68312040244779" lon="12.036415110426962"><ele>1094.75</ele><time>2026-04-18T08:35:37Z</time></trkpt><trkpt lat="47.68308052674634" lon="12.03627571779879"><ele>1096.5</ele><time>2026-04-18T08:35:38Z</time></trkpt><trkpt lat="47.683057451251784" lon="12.036113233034158"><ele>1098.25</ele><time>2026-04-18T08:35:39Z</time></trkpt><trkpt lat="47.68304571966672" lon="12.035938952554707"><ele>1100.0</ele><time>2026-04-18T08:35:40Z</time></trkpt><trkpt lat="47.683043413523066" lon="12.035753021346425"><ele>1103.25</ele><time>2026-04-18T08:35:41Z</time></trkpt><trkpt lat="47.683045027765225" lon="12.035559406880292"><ele>1106.5</ele><time>2026-04-18T08:35:42Z</time></trkpt><trkpt lat="47.68304363365668" lon="12.035369099346536"><ele>1109.75</ele><time>2026-04-18T08:35:43Z</time></trkpt><trkpt lat="47.68303936986556" lon="12.035195121530299"><ele>1113.0</ele><time>2026-04-18T08:35:43.999Z</time></trkpt><trkpt lat="47.683032172538965" lon="12.035036569002802"><ele>1115.4</ele><time>2026-04-18T08:35:44.999Z</time></trkpt><trkpt lat="47.683023210487406" lon="12.034893042088981"><ele>1117.8</ele><time>2026-04-18T08:35:45.999Z</time></trkpt><trkpt lat="47.68299734002597" lon="12.034756942272509"><ele>1120.2</ele><time>2026-04-18T08:35:46.999Z</time></trkpt><trkpt lat="47.68294529946821" lon="12.034631552155611"><ele>1122.6</ele><time>2026-04-18T08:35:47.999Z</time></trkpt><trkpt lat="47.68287392463144" lon="12.034514001873788"><ele>1125.0</ele><time>2026-04-18T08:35:48.999Z</time></trkpt><trkpt lat="47.68278752854375" lon="12.034404658972248"><ele>1122.5</ele><time>2026-04-18T08:35:49.999Z</time></trkpt><trkpt lat="47.6826878141716" lon="12.0343152321066"><ele>1120.0</ele><time>2026-04-18T08:35:50.999Z</time></trkpt><trkpt lat="47.68256897971216" lon="12.034276239457167"><ele>1117.5</ele><time>2026-04-18T08:35:51.999Z</time></trkpt><trkpt lat="47.68245217592758" lon="12.034274855128638"><ele>1115.0</ele><time>2026-04-18T08:35:52.999Z</time></trkpt><trkpt lat="47.682341518368034" lon="12.034294476455448"><ele>1115.0</ele><time>2026-04-18T08:35:53.999Z</time></trkpt><trkpt lat="47.682233110338196" lon="12.034329199595915"><ele>1115.0</ele><time>2026-04-18T08:35:54.999Z</time></trkpt><trkpt lat="47.68212223030939" lon="12.034368638423125"><ele>1115.0</ele><time>2026-04-18T08:35:55.999Z</time></trkpt><trkpt lat="47.681994383812295" lon="12.034387665852387"><ele>1115.0</ele><time>2026-04-18T08:35:56.999Z</time></trkpt><trkpt lat="47.68184438311565" lon="12.034352092935583"><ele>1115.25</ele><time>2026-04-18T08:35:57.999Z</time></trkpt><trkpt lat="47.681692936655026" lon="12.034282689688142"><ele>1115.5</ele><time>2026-04-18T08:35:58.999Z</time></trkpt><trkpt lat="47.6815609957258" lon="12.03423124002886"><ele>1115.75</ele><time>2026-04-18T08:35:59.999Z</time></trkpt><trkpt lat="47.681450339660316" lon="12.034190585572135"><ele>1116.0</ele><time>2026-04-18T08:36:00.999Z</time></trkpt><trkpt lat="47.68134873294706" lon="12.034143509007935"><ele>1116.5</ele><time>2026-04-18T08:36:01.999Z</time></trkpt><trkpt lat="47.68124952805281" lon="12.034083915987308"><ele>1117.0</ele><time>2026-04-18T08:36:02.999Z</time></trkpt><trkpt lat="47.68114757021266" lon="12.03402074864188"><ele>1117.5</ele><time>2026-04-18T08:36:03.999Z</time></trkpt><trkpt lat="47.68103407925877" lon="12.033985333111005"><ele>1118.0</ele><time>2026-04-18T08:36:04.999Z</time></trkpt><trkpt lat="47.68091423722954" lon="12.033987210621614"><ele>1118.0</ele><time>2026-04-18T08:36:05.999Z</time></trkpt><trkpt lat="47.68079292556673" lon="12.034027993318945"><ele>1118.0</ele><time>2026-04-18T08:36:06.999Z</time></trkpt><trkpt lat="47.680672670211806" lon="12.034088477930577"><ele>1118.0</ele><time>2026-04-18T08:36:07.999Z</time></trkpt><trkpt lat="47.680549236304806" lon="12.034160196744699"><ele>1118.0</ele><time>2026-04-18T08:36:08.999Z</time></trkpt><trkpt lat="47.68041840236328" lon="12.034218380847568"><ele>1116.25</ele><time>2026-04-18T08:36:09.999Z</time></trkpt><trkpt lat="47.68028416976669" lon="12.034247993361067"><ele>1114.5</ele><time>2026-04-18T08:36:10.999Z</time></trkpt><trkpt lat="47.68015295999203" lon="12.034257016579284"><ele>1112.75</ele><time>2026-04-18T08:36:11.999Z</time></trkpt><trkpt lat="47.68002965494386" lon="12.034253968928676"><ele>1111.0</ele><time>2026-04-18T08:36:12.999Z</time></trkpt><trkpt lat="47.67991998048425" lon="12.03426324519158"><ele>1114.5</ele><time>2026-04-18T08:36:13.999Z</time></trkpt><trkpt lat="47.679814678815866" lon="12.034282014994236"><ele>1118.0</ele><time>2026-04-18T08:36:14.999Z</time></trkpt><trkpt lat="47.679705968790664" lon="12.034293691919071"><ele>1121.5</ele><time>2026-04-18T08:36:15.999Z</time></trkpt><trkpt lat="47.679590124873535" lon="12.034325323557034"><ele>1125.0</ele><time>2026-04-18T08:36:16.999Z</time></trkpt><trkpt lat="47.679477038810134" lon="12.034408904634486"><ele>1127.25</ele><time>2026-04-18T08:36:17.999Z</time></trkpt><trkpt lat="47.67938263406052" lon="12.034561180927597"><ele>1129.5</ele><time>2026-04-18T08:36:18.999Z</time></trkpt><trkpt lat="47.67930942269729" lon="12.034738150448844"><ele>1131.75</ele><time>2026-04-18T08:36:19.999Z</time></trkpt><trkpt lat="47.679248766267634" lon="12.034888474122537"><ele>1134.0</ele><time>2026-04-18T08:36:20.999Z</time></trkpt><trkpt lat="47.67918596420761" lon="12.035051332155634"><ele>1134.0</ele><time>2026-04-18T08:36:21.999Z</time></trkpt><trkpt lat="47.679120020366696" lon="12.035211522915684"><ele>1134.0</ele><time>2026-04-18T08:36:22.999Z</time></trkpt><trkpt lat="47.679055611799534" lon="12.03535767581076"><ele>1134.0</ele><time>2026-04-18T08:36:23.999Z</time></trkpt><trkpt lat="47.67899259848031" lon="12.035487601820575"><ele>1134.0</ele><time>2026-04-18T08:36:24.999Z</time></trkpt><trkpt lat="47.67890808104211" lon="12.035570474679426"><ele>1134.0</ele><time>2026-04-18T08:36:25.999Z</time></trkpt><trkpt lat="47.678814360028205" lon="12.035582883799425"><ele>1134.0</ele><time>2026-04-18T08:36:26.999Z</time></trkpt><trkpt lat="47.67872918760469" lon="12.035535355654691"><ele>1134.0</ele><time>2026-04-18T08:36:27.999Z</time></trkpt><trkpt lat="47.67867172582235" lon="12.035420017380222"><ele>1134.0</ele><time>2026-04-18T08:36:28.999Z</time></trkpt><trkpt lat="47.67862040776997" lon="12.035308778679768"><ele>1134.0</ele><time>2026-04-18T08:36:29.999Z</time></trkpt><trkpt lat="47.67858380960273" lon="12.035149396518934"><ele>1130.75</ele><time>2026-04-18T08:36:30.999Z</time></trkpt><trkpt lat="47.67856378769731" lon="12.034984009891996"><ele>1127.5</ele><time>2026-04-18T08:36:31.999Z</time></trkpt><trkpt lat="47.67855889295307" lon="12.03480922837489"><ele>1124.25</ele><time>2026-04-18T08:36:32.999Z</time></trkpt><trkpt lat="47.6785542064093" lon="12.034634821089394"><ele>1121.0</ele><time>2026-04-18T08:36:33.999Z</time></trkpt><trkpt lat="47.678544064033105" lon="12.034465265276571"><ele>1121.0</ele><time>2026-04-18T08:36:34.999Z</time></trkpt><trkpt lat="47.67854243488856" lon="12.034303616298697"><ele>1121.0</ele><time>2026-04-18T08:36:35.999Z</time></trkpt><trkpt lat="47.67854100287174" lon="12.034140590984212"><ele>1121.0</ele><time>2026-04-18T08:36:36.999Z</time></trkpt><trkpt lat="47.67854407364805" lon="12.033973883872452"><ele>1121.0</ele><time>2026-04-18T08:36:37.999Z</time></trkpt><trkpt lat="47.678551147746724" lon="12.033794482942382"><ele>1120.0</ele><time>2026-04-18T08:36:38.999Z</time></trkpt><trkpt lat="47.67856121134257" lon="12.033611272435245"><ele>1119.0</ele><time>2026-04-18T08:36:39.999Z</time></trkpt><trkpt lat="47.6785725622812" lon="12.033427169129565"><ele>1118.0</ele><time>2026-04-18T08:36:40.999Z</time></trkpt><trkpt lat="47.67858827457667" lon="12.033241662684919"><ele>1117.0</ele><time>2026-04-18T08:36:41.999Z</time></trkpt><trkpt lat="47.67861167825427" lon="12.033040025654985"><ele>1116.0</ele><time>2026-04-18T08:36:42.999Z</time></trkpt><trkpt lat="47.67867120849954" lon="12.032809448531173"><ele>1115.0</ele><time>2026-04-18T08:36:43.999Z</time></trkpt><trkpt lat="47.678716361349466" lon="12.032563826161828"><ele>1114.0</ele><time>2026-04-18T08:36:44.999Z</time></trkpt><trkpt lat="47.67877996812624" lon="12.032350134701344"><ele>1114.0</ele><time>2026-04-18T08:36:45.999Z</time></trkpt><trkpt lat="47.67884648768549" lon="12.032147361785656"><ele>1114.0</ele><time>2026-04-18T08:36:46.999Z</time></trkpt><trkpt lat="47.6789151329098" lon="12.031948460776292"><ele>1114.0</ele><time>2026-04-18T08:36:47.999Z</time></trkpt><trkpt lat="47.678989848883454" lon="12.031746576177653"><ele>1108.0</ele><time>2026-04-18T08:36:48.999Z</time></trkpt><trkpt lat="47.67906584702242" lon="12.031537891792935"><ele>1102.0</ele><time>2026-04-18T08:36:49.999Z</time></trkpt><trkpt lat="47.67914107400726" lon="12.031321363614094"><ele>1096.0</ele><time>2026-04-18T08:36:50.999Z</time></trkpt><trkpt lat="47.67921900699116" lon="12.031106464997993"><ele>1096.0</ele><time>2026-04-18T08:36:51.999Z</time></trkpt><trkpt lat="47.679287652689375" lon="12.030893427284116"><ele>1096.0</ele><time>2026-04-18T08:36:52.999Z</time></trkpt><trkpt lat="47.679367673471035" lon="12.030690735654886"><ele>1096.0</ele><time>2026-04-18T08:36:53.999Z</time></trkpt><trkpt lat="47.679442025827214" lon="12.030485295925251"><ele>1096.0</ele><time>2026-04-18T08:36:54.999Z</time></trkpt><trkpt lat="47.67950956692931" lon="12.030295036802329"><ele>1096.0</ele><time>2026-04-18T08:36:55.999Z</time></trkpt><trkpt lat="47.679576684142496" lon="12.03013622720874"><ele>1096.0</ele><time>2026-04-18T08:36:56.999Z</time></trkpt><trkpt lat="47.679634183655956" lon="12.030014507492561"><ele>1096.0</ele><time>2026-04-18T08:36:57.999Z</time></trkpt><trkpt lat="47.679686409043086" lon="12.029915428962033"><ele>1096.0</ele><time>2026-04-18T08:36:58.999Z</time></trkpt><trkpt lat="47.67973290761758" lon="12.029827266979632"><ele>1096.0</ele><time>2026-04-18T08:36:59.999Z</time></trkpt><trkpt lat="47.679776542089016" lon="12.029739900290457"><ele>1096.0</ele><time>2026-04-18T08:37:00.999Z</time></trkpt><trkpt lat="47.67982181811352" lon="12.029651124164516"><ele>1096.0</ele><time>2026-04-18T08:37:01.999Z</time></trkpt><trkpt lat="47.67987059035664" lon="12.029556493123637"><ele>1096.0</ele><time>2026-04-18T08:37:02.999Z</time></trkpt><trkpt lat="47.67991856408962" lon="12.029461463142203"><ele>1096.0</ele><time>2026-04-18T08:37:03.999Z</time></trkpt><trkpt lat="47.679965068323206" lon="12.029364862866275"><ele>1096.0</ele><time>2026-04-18T08:37:04.999Z</time></trkpt><trkpt lat="47.68001107094068" lon="12.029258648629487"><ele>1096.0</ele><time>2026-04-18T08:37:05.999Z</time></trkpt><trkpt lat="47.68004657563519" lon="12.029128275341044"><ele>1096.0</ele><time>2026-04-18T08:37:06.999Z</time></trkpt><trkpt lat="47.68006991502233" lon="12.028958683575121"><ele>1096.0</ele><time>2026-04-18T08:37:07.999Z</time></trkpt><trkpt lat="47.680085678361756" lon="12.028745709175743"><ele>1096.0</ele><time>2026-04-18T08:37:08.999Z</time></trkpt><trkpt lat="47.680108455944534" lon="12.028531394465364"><ele>1090.75</ele><time>2026-04-18T08:37:09.999Z</time></trkpt><trkpt lat="47.68014916347428" lon="12.02835370525826"><ele>1085.5</ele><time>2026-04-18T08:37:10.999Z</time></trkpt><trkpt lat="47.68019546095464" lon="12.02818048760173"><ele>1080.25</ele><time>2026-04-18T08:37:11.999Z</time></trkpt><trkpt lat="47.68023568881271" lon="12.02801022369296"><ele>1075.0</ele><time>2026-04-18T08:37:12.999Z</time></trkpt><trkpt lat="47.680278398431284" lon="12.027839063126093"><ele>1082.75</ele><time>2026-04-18T08:37:13.999Z</time></trkpt><trkpt lat="47.68030945566614" lon="12.027659553094274"><ele>1090.5</ele><time>2026-04-18T08:37:14.999Z</time></trkpt><trkpt lat="47.680314837829584" lon="12.027460122299942"><ele>1098.25</ele><time>2026-04-18T08:37:15.999Z</time></trkpt><trkpt lat="47.680307016064226" lon="12.027249612553542"><ele>1106.0</ele><time>2026-04-18T08:37:16.999Z</time></trkpt><trkpt lat="47.68030005177161" lon="12.027060582043426"><ele>1106.0</ele><time>2026-04-18T08:37:17.999Z</time></trkpt><trkpt lat="47.680305674312535" lon="12.026877725404038"><ele>1106.0</ele><time>2026-04-18T08:37:18.999Z</time></trkpt><trkpt lat="47.680362979706004" lon="12.026721666994934"><ele>1106.0</ele><time>2026-04-18T08:37:19.999Z</time></trkpt><trkpt lat="47.680437147482856" lon="12.026579145790478"><ele>1106.0</ele><time>2026-04-18T08:37:20.999Z</time></trkpt><trkpt lat="47.680507642272055" lon="12.026422980370109"><ele>1100.0</ele><time>2026-04-18T08:37:21.999Z</time></trkpt><trkpt lat="47.680562947294845" lon="12.026253646544477"><ele>1094.0</ele><time>2026-04-18T08:37:22.999Z</time></trkpt><trkpt lat="47.680581064796705" lon="12.02606843997756"><ele>1088.0</ele><time>2026-04-18T08:37:23.999Z</time></trkpt><trkpt lat="47.68057985665217" lon="12.025884959749268"><ele>1082.0</ele><time>2026-04-18T08:37:24.999Z</time></trkpt><trkpt lat="47.68058674686665" lon="12.02571023135336"><ele>1075.5</ele><time>2026-04-18T08:37:25.999Z</time></trkpt><trkpt lat="47.68060062984997" lon="12.025539068851884"><ele>1069.0</ele><time>2026-04-18T08:37:26.999Z</time></trkpt><trkpt lat="47.68063099481003" lon="12.025367717257156"><ele>1062.5</ele><time>2026-04-18T08:37:27.999Z</time></trkpt><trkpt lat="47.68069310271331" lon="12.025204119034402"><ele>1056.0</ele><time>2026-04-18T08:37:28.999Z</time></trkpt><trkpt lat="47.68078373171784" lon="12.025053677843818"><ele>1059.0</ele><time>2026-04-18T08:37:29.999Z</time></trkpt><trkpt lat="47.68090175810274" lon="12.0249170048221"><ele>1062.0</ele><time>2026-04-18T08:37:30.999Z</time></trkpt><trkpt lat="47.68101530733417" lon="12.024792320157113"><ele>1065.0</ele><time>2026-04-18T08:37:31.999Z</time></trkpt><trkpt lat="47.68112195812729" lon="12.024673640949986"><ele>1068.0</ele><time>2026-04-18T08:37:32.999Z</time></trkpt><trkpt lat="47.681221613221965" lon="12.024549317786041"><ele>1068.0</ele><time>2026-04-18T08:37:33.999Z</time></trkpt><trkpt lat="47.68131502034124" lon="12.024421356870628"><ele>1068.0</ele><time>2026-04-18T08:37:34.999Z</time></trkpt><trkpt lat="47.68140774453158" lon="12.02429640760494"><ele>1068.0</ele><time>2026-04-18T08:37:35.999Z</time></trkpt><trkpt lat="47.681485651907245" lon="12.024157161286942"><ele>1068.0</ele><time>2026-04-18T08:37:36.999Z</time></trkpt><trkpt lat="47.68155751738414" lon="12.024015450270857"><ele>1061.75</ele><time>2026-04-18T08:37:37.999Z</time></trkpt><trkpt lat="47.681630893515724" lon="12.023874030253808"><ele>1055.5</ele><time>2026-04-18T08:37:38.999Z</time></trkpt><trkpt lat="47.68169855493643" lon="12.023723326076734"><ele>1049.25</ele><time>2026-04-18T08:37:39.999Z</time></trkpt><trkpt lat="47.68175016825837" lon="12.023542374753154"><ele>1043.0</ele><time>2026-04-18T08:37:40.999Z</time></trkpt><trkpt lat="47.68178650840743" lon="12.023338414408798"><ele>1041.5</ele><time>2026-04-18T08:37:41.999Z</time></trkpt><trkpt lat="47.6818106873824" lon="12.023142405446864"><ele>1040.0</ele><time>2026-04-18T08:37:42.999Z</time></trkpt><trkpt lat="47.681815953026714" lon="12.022953167886795"><ele>1038.5</ele><time>2026-04-18T08:37:43.999Z</time></trkpt><trkpt lat="47.681793214514364" lon="12.022762033729455"><ele>1037.0</ele><time>2026-04-18T08:37:44.999Z</time></trkpt><trkpt lat="47.681744057986684" lon="12.022576911637948"><ele>1036.0</ele><time>2026-04-18T08:37:45.999Z</time></trkpt><trkpt lat="47.68169340597736" lon="12.02239935536668"><ele>1035.0</ele><time>2026-04-18T08:37:46.999Z</time></trkpt><trkpt lat="47.681654358581646" lon="12.022224813284174"><ele>1034.0</ele><time>2026-04-18T08:37:47.999Z</time></trkpt><trkpt lat="47.68162881915415" lon="12.022051265272388"><ele>1033.0</ele><time>2026-04-18T08:37:48.999Z</time></trkpt><trkpt lat="47.68161945297739" lon="12.021868023726192"><ele>1033.0</ele><time>2026-04-18T08:37:49.999Z</time></trkpt><trkpt lat="47.68162007139562" lon="12.021671837937916"><ele>1033.0</ele><time>2026-04-18T08:37:50.999Z</time></trkpt><trkpt lat="47.68163661218571" lon="12.021462340546538"><ele>1033.0</ele><time>2026-04-18T08:37:51.999Z</time></trkpt><trkpt lat="47.6816697189776" lon="12.02125596579212"><ele>1033.0</ele><time>2026-04-18T08:37:52.999Z</time></trkpt><trkpt lat="47.68171048365495" lon="12.021056916473565"><ele>1029.75</ele><time>2026-04-18T08:37:53.999Z</time></trkpt><trkpt lat="47.68174592833032" lon="12.020858877233504"><ele>1026.5</ele><time>2026-04-18T08:37:54.999Z</time></trkpt><trkpt lat="47.68177578888033" lon="12.020661179207577"><ele>1023.25</ele><time>2026-04-18T08:37:55.999Z</time></trkpt><trkpt lat="47.68180887413364" lon="12.02046338146104"><ele>1020.0</ele><time>2026-04-18T08:37:56.999Z</time></trkpt><trkpt lat="47.681841344564646" lon="12.020262634797211"><ele>1020.5</ele><time>2026-04-18T08:37:57.999Z</time></trkpt><trkpt lat="47.68187589144637" lon="12.020053608992354"><ele>1021.0</ele><time>2026-04-18T08:37:58.999Z</time></trkpt><trkpt lat="47.68191222007812" lon="12.01984020728911"><ele>1021.5</ele><time>2026-04-18T08:37:59.999Z</time></trkpt><trkpt lat="47.68194743373106" lon="12.019631007735104"><ele>1022.0</ele><time>2026-04-18T08:38:00.999Z</time></trkpt><trkpt lat="47.68198000617196" lon="12.019427401346153"><ele>1022.0</ele><time>2026-04-18T08:38:01.999Z</time></trkpt><trkpt lat="47.6820114273585" lon="12.019228930612075"><ele>1022.0</ele><time>2026-04-18T08:38:02.999Z</time></trkpt><trkpt lat="47.68204288775591" lon="12.01904063109121"><ele>1022.0</ele><time>2026-04-18T08:38:03.999Z</time></trkpt><trkpt lat="47.6820739550716" lon="12.018867932417555"><ele>1022.0</ele><time>2026-04-18T08:38:04.999Z</time></trkpt><trkpt lat="47.682104300341756" lon="12.018701035021891"><ele>1017.5</ele><time>2026-04-18T08:38:05.999Z</time></trkpt><trkpt lat="47.68214333885074" lon="12.01854552240367"><ele>1013.0</ele><time>2026-04-18T08:38:06.999Z</time></trkpt><trkpt lat="47.68219710450876" lon="12.018405714770758"><ele>1008.5</ele><time>2026-04-18T08:38:07.999Z</time></trkpt><trkpt lat="47.68226824745373" lon="12.018273323309833"><ele>1004.0</ele><time>2026-04-18T08:38:08.999Z</time></trkpt><trkpt lat="47.68235226343271" lon="12.018142209424083"><ele>1002.0</ele><time>2026-04-18T08:38:09.999Z</time></trkpt><trkpt lat="47.682443276703125" lon="12.018003624171534"><ele>1000.0</ele><time>2026-04-18T08:38:10.999Z</time></trkpt><trkpt lat="47.68252983205908" lon="12.017873970518911"><ele>998.0</ele><time>2026-04-18T08:38:11.999Z</time></trkpt><trkpt lat="47.682610573837074" lon="12.017749626754602"><ele>996.0</ele><time>2026-04-18T08:38:12.999Z</time></trkpt><trkpt lat="47.68268814105609" lon="12.017611340268527"><ele>994.0</ele><time>2026-04-18T08:38:13.999Z</time></trkpt><trkpt lat="47.6827545957746" lon="12.017446065694564"><ele>992.0</ele><time>2026-04-18T08:38:14.999Z</time></trkpt><trkpt lat="47.68278668271178" lon="12.017245083798977"><ele>990.0</ele><time>2026-04-18T08:38:15.999Z</time></trkpt><trkpt lat="47.6827908955739" lon="12.017042727394287"><ele>988.0</ele><time>2026-04-18T08:38:16.999Z</time></trkpt><trkpt lat="47.68276818928652" lon="12.016851969287773"><ele>988.0</ele><time>2026-04-18T08:38:17.999Z</time></trkpt><trkpt lat="47.68271609916406" lon="12.016683135446938"><ele>988.0</ele><time>2026-04-18T08:38:18.999Z</time></trkpt><trkpt lat="47.68264430645137" lon="12.016536786528647"><ele>988.0</ele><time>2026-04-18T08:38:19.999Z</time></trkpt><trkpt lat="47.682553287033414" lon="12.01640823930951"><ele>988.0</ele><time>2026-04-18T08:38:20.999Z</time></trkpt><trkpt lat="47.682453330752885" lon="12.016298805863629"><ele>985.25</ele><time>2026-04-18T08:38:21.999Z</time></trkpt><trkpt lat="47.68235775241652" lon="12.016203353136277"><ele>982.5</ele><time>2026-04-18T08:38:22.999Z</time></trkpt><trkpt lat="47.68225507312437" lon="12.01611652637952"><ele>979.75</ele><time>2026-04-18T08:38:23.999Z</time></trkpt><trkpt lat="47.68214237859713" lon="12.01602487388894"><ele>977.0</ele><time>2026-04-18T08:38:24.999Z</time></trkpt><trkpt lat="47.68202783379693" lon="12.015926665917096"><ele>977.0</ele><time>2026-04-18T08:38:25.999Z</time></trkpt><trkpt lat="47.68191858181257" lon="12.015822526482824"><ele>977.0</ele><time>2026-04-18T08:38:26.999Z</time></trkpt><trkpt lat="47.681821465435036" lon="12.015705986439807"><ele>977.0</ele><time>2026-04-18T08:38:27.999Z</time></trkpt><trkpt lat="47.68173591938426" lon="12.015568093437384"><ele>977.0</ele><time>2026-04-18T08:38:28.999Z</time></trkpt><trkpt lat="47.681659865176904" lon="12.015418606522255"><ele>974.25</ele><time>2026-04-18T08:38:29.999Z</time></trkpt><trkpt lat="47.681593012386294" lon="12.015267055478585"><ele>971.5</ele><time>2026-04-18T08:38:30.999Z</time></trkpt><trkpt lat="47.68152415421867" lon="12.015123339490696"><ele>968.75</ele><time>2026-04-18T08:38:31.999Z</time></trkpt><trkpt lat="47.681456212507484" lon="12.014987407140055"><ele>966.0</ele><time>2026-04-18T08:38:32.999Z</time></trkpt><trkpt lat="47.681395821343884" lon="12.014868793975651"><ele>962.5999999999999</ele><time>2026-04-18T08:38:33.999Z</time></trkpt><trkpt lat="47.68133957602568" lon="12.014759306629113"><ele>959.1999999999999</ele><time>2026-04-18T08:38:34.999Z</time></trkpt><trkpt lat="47.68126617801082" lon="12.014660001234496"><ele>955.8000000000001</ele><time>2026-04-18T08:38:35.999Z</time></trkpt><trkpt lat="47.68117317337887" lon="12.014590026960319"><ele>952.4000000000001</ele><time>2026-04-18T08:38:36.999Z</time></trkpt><trkpt lat="47.681067621673634" lon="12.014555225503265"><ele>949.0</ele><time>2026-04-18T08:38:37.999Z</time></trkpt><trkpt lat="47.68095851915804" lon="12.014558378481462"><ele>949.0</ele><time>2026-04-18T08:38:38.999Z</time></trkpt><trkpt lat="47.68085055979797" lon="12.014596508769309"><ele>949.0000000000001</ele><time>2026-04-18T08:38:39.999Z</time></trkpt><trkpt lat="47.68075127680925" lon="12.01467427678411"><ele>949.0000000000001</ele><time>2026-04-18T08:38:40.999Z</time></trkpt><trkpt lat="47.68066375909324" lon="12.014774081973405"><ele>949.0</ele><time>2026-04-18T08:38:41.999Z</time></trkpt><trkpt lat="47.68058244011673" lon="12.014869623937587"><ele>949.0</ele><time>2026-04-18T08:38:42.999Z</time></trkpt><trkpt lat="47.68050138309625" lon="12.014960098367904"><ele>949.6666666666666</ele><time>2026-04-18T08:38:43.999Z</time></trkpt><trkpt lat="47.68042608310125" lon="12.01505160638504"><ele>950.3333333333333</ele><time>2026-04-18T08:38:44.999Z</time></trkpt><trkpt lat="47.68035401206493" lon="12.01512548844235"><ele>951.0</ele><time>2026-04-18T08:38:45.999Z</time></trkpt><trkpt lat="47.680278811080775" lon="12.015165852475954"><ele>951.6666666666667</ele><time>2026-04-18T08:38:46.999Z</time></trkpt><trkpt lat="47.680201913374454" lon="12.015170946839174"><ele>952.3333333333334</ele><time>2026-04-18T08:38:47.999Z</time></trkpt><trkpt lat="47.6801217094999" lon="12.015136509181486"><ele>953.0</ele><time>2026-04-18T08:38:48.999Z</time></trkpt><trkpt lat="47.68005174927336" lon="12.015061408020266"><ele>949.8</ele><time>2026-04-18T08:38:49.999Z</time></trkpt><trkpt lat="47.680002101462286" lon="12.014944244030556"><ele>946.5999999999999</ele><time>2026-04-18T08:38:50.999Z</time></trkpt><trkpt lat="47.67998035630979" lon="12.014813585786253"><ele>943.4000000000001</ele><time>2026-04-18T08:38:51.999Z</time></trkpt><trkpt lat="47.679996538071684" lon="12.014678420631308"><ele>940.2</ele><time>2026-04-18T08:38:52.999Z</time></trkpt><trkpt lat="47.680052030497045" lon="12.014564754672627"><ele>937.0</ele><time>2026-04-18T08:38:53.999Z</time></trkpt><trkpt lat="47.680140918652135" lon="12.014486181628602"><ele>937.0</ele><time>2026-04-18T08:38:54.999Z</time></trkpt><trkpt lat="47.68025519472561" lon="12.0144381686163"><ele>937.0</ele><time>2026-04-18T08:38:55.999Z</time></trkpt><trkpt lat="47.680377989972854" lon="12.014391928122253"><ele>937.0</ele><time>2026-04-18T08:38:56.999Z</time></trkpt><trkpt lat="47.68050228882596" lon="12.014340091257283"><ele>937.0</ele><time>2026-04-18T08:38:57.999Z</time></trkpt><trkpt lat="47.68063179222193" lon="12.014289435008981"><ele>940.0</ele><time>2026-04-18T08:38:58.999Z</time></trkpt><trkpt lat="47.68077158636437" lon="12.01422847087394"><ele>943.0</ele><time>2026-04-18T08:38:59.999Z</time></trkpt><trkpt lat="47.68090929463496" lon="12.014169953616372"><ele>946.0</ele><time>2026-04-18T08:39:00.999Z</time></trkpt><trkpt lat="47.68103198507583" lon="12.01412350840296"><ele>949.0</ele><time>2026-04-18T08:39:01.999Z</time></trkpt><trkpt lat="47.68114529787586" lon="12.014091866246119"><ele>943.4000000000001</ele><time>2026-04-18T08:39:02.999Z</time></trkpt><trkpt lat="47.68124277783269" lon="12.014045262094687"><ele>937.8000000000001</ele><time>2026-04-18T08:39:03.999Z</time></trkpt><trkpt lat="47.68134168318876" lon="12.014010692886867"><ele>932.1999999999999</ele><time>2026-04-18T08:39:04.999Z</time></trkpt><trkpt lat="47.68143701696221" lon="12.01398145107331"><ele>926.5999999999999</ele><time>2026-04-18T08:39:05.999Z</time></trkpt><trkpt lat="47.68153722142669" lon="12.01400533394105"><ele>921.0</ele><time>2026-04-18T08:39:06.999Z</time></trkpt><trkpt lat="47.68163656988245" lon="12.01402173951469"><ele>921.0</ele><time>2026-04-18T08:39:07.999Z</time></trkpt><trkpt lat="47.68173320949423" lon="12.014049980611608"><ele>920.9999999999999</ele><time>2026-04-18T08:39:08.999Z</time></trkpt><trkpt lat="47.681822938003414" lon="12.014094252141946"><ele>920.9999999999999</ele><time>2026-04-18T08:39:09.999Z</time></trkpt><trkpt lat="47.681911979034616" lon="12.014145934310195"><ele>921.0</ele><time>2026-04-18T08:39:10.999Z</time></trkpt><trkpt lat="47.68199874246897" lon="12.014196828761703"><ele>921.0</ele><time>2026-04-18T08:39:11.999Z</time></trkpt><trkpt lat="47.68208687229995" lon="12.014249866673879"><ele>924.5999999999999</ele><time>2026-04-18T08:39:12.999Z</time></trkpt><trkpt lat="47.68217282217197" lon="12.014300387592696"><ele>928.1999999999999</ele><time>2026-04-18T08:39:13.999Z</time></trkpt><trkpt lat="47.68225147748589" lon="12.014345855497"><ele>931.8000000000001</ele><time>2026-04-18T08:39:14.999Z</time></trkpt><trkpt lat="47.6823210711761" lon="12.014388709047118"><ele>935.4000000000001</ele><time>2026-04-18T08:39:15.999Z</time></trkpt><trkpt lat="47.68244255352259" lon="12.014402626038505"><ele>939.0</ele><time>2026-04-18T08:39:17.999Z</time></trkpt><trkpt lat="47.68255428743982" lon="12.014365820163016"><ele>939.0</ele><time>2026-04-18T08:39:19.999Z</time></trkpt><trkpt lat="47.68259958512524" lon="12.014290097818437"><ele>939.0</ele><time>2026-04-18T08:39:20.999Z</time></trkpt><trkpt lat="47.682612130825305" lon="12.014181586501893"><ele>939.0</ele><time>2026-04-18T08:39:21.999Z</time></trkpt><trkpt lat="47.682586019281125" lon="12.014071775398657"><ele>939.0</ele><time>2026-04-18T08:39:22.999Z</time></trkpt><trkpt lat="47.68251590275622" lon="12.013990466593635"><ele>939.0</ele><time>2026-04-18T08:39:23.999Z</time></trkpt><trkpt lat="47.68242827756115" lon="12.013946567383778"><ele>939.0</ele><time>2026-04-18T08:39:24.999Z</time></trkpt><trkpt lat="47.68233892137732" lon="12.013916234890969"><ele>936.6</ele><time>2026-04-18T08:39:25.999Z</time></trkpt><trkpt lat="47.682255251939296" lon="12.013879629124022"><ele>934.2</ele><time>2026-04-18T08:39:26.999Z</time></trkpt><trkpt lat="47.68216361417161" lon="12.01383948052009"><ele>931.8000000000001</ele><time>2026-04-18T08:39:27.999Z</time></trkpt><trkpt lat="47.682066081687104" lon="12.013801003952464"><ele>929.4000000000001</ele><time>2026-04-18T08:39:28.999Z</time></trkpt><trkpt lat="47.68195954780419" lon="12.013754618628642"><ele>927.0</ele><time>2026-04-18T08:39:29.999Z</time></trkpt><trkpt lat="47.68184651208051" lon="12.01370171524638"><ele>925.5</ele><time>2026-04-18T08:39:30.999Z</time></trkpt><trkpt lat="47.681730215515444" lon="12.013647937652284"><ele>924.0</ele><time>2026-04-18T08:39:31.999Z</time></trkpt><trkpt lat="47.68161075791734" lon="12.013598585833112"><ele>922.5</ele><time>2026-04-18T08:39:32.999Z</time></trkpt><trkpt lat="47.68149564819698" lon="12.013551284341437"><ele>921.0</ele><time>2026-04-18T08:39:33.999Z</time></trkpt><trkpt lat="47.68138318597194" lon="12.01350894978173"><ele>921.0</ele><time>2026-04-18T08:39:34.999Z</time></trkpt><trkpt lat="47.681271146223814" lon="12.013480029463992"><ele>921.0</ele><time>2026-04-18T08:39:35.999Z</time></trkpt><trkpt lat="47.681151700911435" lon="12.01346150440915"><ele>921.0</ele><time>2026-04-18T08:39:36.999Z</time></trkpt><trkpt lat="47.68102690485923" lon="12.013456369403976"><ele>921.0</ele><time>2026-04-18T08:39:37.999Z</time></trkpt><trkpt lat="47.68089992249026" lon="12.013461393593033"><ele>920.25</ele><time>2026-04-18T08:39:38.999Z</time></trkpt><trkpt lat="47.68076883746677" lon="12.013476359196572"><ele>919.5</ele><time>2026-04-18T08:39:39.999Z</time></trkpt><trkpt lat="47.68063376940862" lon="12.013495550055557"><ele>918.75</ele><time>2026-04-18T08:39:40.999Z</time></trkpt><trkpt lat="47.68049670026183" lon="12.013525202144834"><ele>918.0</ele><time>2026-04-18T08:39:41.999Z</time></trkpt><trkpt lat="47.680358711446154" lon="12.013560138262907"><ele>915.0</ele><time>2026-04-18T08:39:42.999Z</time></trkpt><trkpt lat="47.68022342811093" lon="12.013607208593706"><ele>912.0</ele><time>2026-04-18T08:39:43.999Z</time></trkpt><trkpt lat="47.68009031359942" lon="12.013656904996267"><ele>909.0</ele><time>2026-04-18T08:39:44.999Z</time></trkpt><trkpt lat="47.67996046569261" lon="12.013714622582828"><ele>906.0</ele><time>2026-04-18T08:39:45.999Z</time></trkpt><trkpt lat="47.67983450350564" lon="12.013777973897929"><ele>906.0</ele><time>2026-04-18T08:39:46.999Z</time></trkpt><trkpt lat="47.67971355366909" lon="12.013851324339337"><ele>906.0</ele><time>2026-04-18T08:39:47.999Z</time></trkpt><trkpt lat="47.67959626257812" lon="12.013926745555636"><ele>906.0</ele><time>2026-04-18T08:39:48.999Z</time></trkpt><trkpt lat="47.67948319151136" lon="12.014007367924169"><ele>906.0</ele><time>2026-04-18T08:39:49.999Z</time></trkpt><trkpt lat="47.679370565231046" lon="12.014088027196847"><ele>907.75</ele><time>2026-04-18T08:39:50.999Z</time></trkpt><trkpt lat="47.67926173036375" lon="12.014177117091798"><ele>909.5</ele><time>2026-04-18T08:39:51.999Z</time></trkpt><trkpt lat="47.67916042303652" lon="12.014273178560508"><ele>911.25</ele><time>2026-04-18T08:39:52.999Z</time></trkpt><trkpt lat="47.679059527598504" lon="12.014371419121085"><ele>913.0</ele><time>2026-04-18T08:39:53.999Z</time></trkpt><trkpt lat="47.67896479201615" lon="12.01447014236075"><ele>913.0</ele><time>2026-04-18T08:39:54.999Z</time></trkpt><trkpt lat="47.678880587836524" lon="12.014569096116356"><ele>913.0</ele><time>2026-04-18T08:39:55.999Z</time></trkpt><trkpt lat="47.678800870985285" lon="12.014666424024236"><ele>913.0</ele><time>2026-04-18T08:39:56.999Z</time></trkpt><trkpt lat="47.67873446724152" lon="12.014767006320563"><ele>913.0</ele><time>2026-04-18T08:39:57.999Z</time></trkpt><trkpt lat="47.67865938468347" lon="12.014871064827924"><ele>913.0</ele><time>2026-04-18T08:39:58.999Z</time></trkpt><trkpt lat="47.678603808715565" lon="12.015014886362849"><ele>910.0</ele><time>2026-04-18T08:39:59.999Z</time></trkpt><trkpt lat="47.67855933519883" lon="12.015174896091464"><ele>907.0</ele><time>2026-04-18T08:40:00.999Z</time></trkpt><trkpt lat="47.678534798081635" lon="12.015362983657266"><ele>904.0</ele><time>2026-04-18T08:40:01.999Z</time></trkpt><trkpt lat="47.67853407991681" lon="12.015573417841129"><ele>901.0</ele><time>2026-04-18T08:40:02.999Z</time></trkpt><trkpt lat="47.67855881026621" lon="12.01577440139618"><ele>905.75</ele><time>2026-04-18T08:40:03.999Z</time></trkpt><trkpt lat="47.67860353516386" lon="12.015964449288575"><ele>910.5</ele><time>2026-04-18T08:40:04.999Z</time></trkpt><trkpt lat="47.67866249246325" lon="12.0161296790445"><ele>915.25</ele><time>2026-04-18T08:40:05.999Z</time></trkpt><trkpt lat="47.678738910292395" lon="12.016270191548061"><ele>920.0</ele><time>2026-04-18T08:40:06.999Z</time></trkpt><trkpt lat="47.67880216491191" lon="12.016415797254302"><ele>920.0</ele><time>2026-04-18T08:40:07.999Z</time></trkpt><trkpt lat="47.678846723190865" lon="12.01657549446881"><ele>920.0</ele><time>2026-04-18T08:40:08.999Z</time></trkpt><trkpt lat="47.6788608890227" lon="12.016749328851306"><ele>920.0</ele><time>2026-04-18T08:40:09.999Z</time></trkpt><trkpt lat="47.67883848626447" lon="12.016937699950155"><ele>920.0</ele><time>2026-04-18T08:40:10.999Z</time></trkpt><trkpt lat="47.6787976549515" lon="12.01715393325532"><ele>915.6666666666667</ele><time>2026-04-18T08:40:11.999Z</time></trkpt><trkpt lat="47.67876606468838" lon="12.017394512369059"><ele>911.3333333333333</ele><time>2026-04-18T08:40:12.999Z</time></trkpt><trkpt lat="47.678722511428106" lon="12.017611536926843"><ele>907.0</ele><time>2026-04-18T08:40:13.999Z</time></trkpt><trkpt lat="47.67868012643985" lon="12.017822811130431"><ele>904.5</ele><time>2026-04-18T08:40:14.999Z</time></trkpt><trkpt lat="47.67863953858467" lon="12.018029207240978"><ele>902.0</ele><time>2026-04-18T08:40:15.999Z</time></trkpt><trkpt lat="47.678583169982915" lon="12.018213221097268"><ele>899.5</ele><time>2026-04-18T08:40:16.999Z</time></trkpt><trkpt lat="47.67854954312708" lon="12.018369554620202"><ele>897.0</ele><time>2026-04-18T08:40:17.999Z</time></trkpt><trkpt lat="47.67852884730192" lon="12.01852089669501"><ele>891.0</ele><time>2026-04-18T08:40:18.999Z</time></trkpt><trkpt lat="47.67848538608675" lon="12.01866321091008"><ele>885.0</ele><time>2026-04-18T08:40:19.999Z</time></trkpt><trkpt lat="47.67842787215256" lon="12.018797549165736"><ele>879.0</ele><time>2026-04-18T08:40:20.999Z</time></trkpt><trkpt lat="47.6783570921221" lon="12.018922844975068"><ele>873.0</ele><time>2026-04-18T08:40:21.999Z</time></trkpt><trkpt lat="47.678279200564496" lon="12.019037214118367"><ele>867.0</ele><time>2026-04-18T08:40:22.999Z</time></trkpt><trkpt lat="47.67819832026969" lon="12.01914129886944"><ele>867.4000000000001</ele><time>2026-04-18T08:40:23.999Z</time></trkpt><trkpt lat="47.678113610065274" lon="12.019234383487518"><ele>867.8000000000001</ele><time>2026-04-18T08:40:24.999Z</time></trkpt><trkpt lat="47.67803235310297" lon="12.019330096125724"><ele>868.2</ele><time>2026-04-18T08:40:25.999Z</time></trkpt><trkpt lat="47.67795166013309" lon="12.019425485165886"><ele>868.6</ele><time>2026-04-18T08:40:26.999Z</time></trkpt><trkpt lat="47.677871530213736" lon="12.019520295791622"><ele>869.0</ele><time>2026-04-18T08:40:27.999Z</time></trkpt><trkpt lat="47.67778855214286" lon="12.0196074174607"><ele>866.8000000000001</ele><time>2026-04-18T08:40:28.999Z</time></trkpt><trkpt lat="47.6777077316493" lon="12.019691921046974"><ele>864.6000000000001</ele><time>2026-04-18T08:40:29.999Z</time></trkpt><trkpt lat="47.67762803085927" lon="12.019777351316781"><ele>862.4</ele><time>2026-04-18T08:40:30.999Z</time></trkpt><trkpt lat="47.677551553330595" lon="12.019864115108566"><ele>860.2</ele><time>2026-04-18T08:40:31.999Z</time></trkpt><trkpt lat="47.67747960008762" lon="12.019945803662772"><ele>858.0</ele><time>2026-04-18T08:40:32.999Z</time></trkpt><trkpt lat="47.67740698995624" lon="12.020027193982516"><ele>858.0</ele><time>2026-04-18T08:40:33.999Z</time></trkpt><trkpt lat="47.67733098775723" lon="12.020104517651452"><ele>858.0</ele><time>2026-04-18T08:40:34.999Z</time></trkpt><trkpt lat="47.6772522913519" lon="12.020180125064659"><ele>858.0</ele><time>2026-04-18T08:40:35.999Z</time></trkpt><trkpt lat="47.67717337192445" lon="12.020250113920223"><ele>858.0</ele><time>2026-04-18T08:40:36.999Z</time></trkpt><trkpt lat="47.67708516198044" lon="12.020323214776468"><ele>858.0</ele><time>2026-04-18T08:40:37.999Z</time></trkpt><trkpt lat="47.676994923590556" lon="12.020389569356889"><ele>854.8</ele><time>2026-04-18T08:40:38.999Z</time></trkpt><trkpt lat="47.67690537810649" lon="12.020446583984294"><ele>851.5999999999999</ele><time>2026-04-18T08:40:39.999Z</time></trkpt><trkpt lat="47.67681055712597" lon="12.020498022821071"><ele>848.4000000000001</ele><time>2026-04-18T08:40:40.999Z</time></trkpt><trkpt lat="47.67670430016803" lon="12.020557831044945"><ele>845.2</ele><time>2026-04-18T08:40:41.999Z</time></trkpt><trkpt lat="47.67658369214849" lon="12.020626875712935"><ele>842.0</ele><time>2026-04-18T08:40:42.999Z</time></trkpt><trkpt lat="47.67645916603192" lon="12.020703225693143"><ele>842.0</ele><time>2026-04-18T08:40:43.999Z</time></trkpt><trkpt lat="47.676337744065776" lon="12.02077922696935"><ele>842.0</ele><time>2026-04-18T08:40:44.999Z</time></trkpt><trkpt lat="47.67622057552678" lon="12.020850509913958"><ele>842.0</ele><time>2026-04-18T08:40:45.999Z</time></trkpt><trkpt lat="47.676109676170405" lon="12.020915000514217"><ele>842.0</ele><time>2026-04-18T08:40:46.999Z</time></trkpt><trkpt lat="47.6760089509626" lon="12.020973070745388"><ele>840.8333333333334</ele><time>2026-04-18T08:40:47.999Z</time></trkpt><trkpt lat="47.67591549174543" lon="12.021024351069702"><ele>839.6666666666667</ele><time>2026-04-18T08:40:48.999Z</time></trkpt><trkpt lat="47.67582729765665" lon="12.021068945764808"><ele>838.5</ele><time>2026-04-18T08:40:49.999Z</time></trkpt><trkpt lat="47.675748924097654" lon="12.021106062820655"><ele>837.3333333333333</ele><time>2026-04-18T08:40:50.999Z</time></trkpt><trkpt lat="47.67567514802348" lon="12.021133322146415"><ele>836.1666666666666</ele><time>2026-04-18T08:40:51.999Z</time></trkpt><trkpt lat="47.67559265057778" lon="12.021159828427766"><ele>835.0</ele><time>2026-04-18T08:40:52.999Z</time></trkpt><trkpt lat="47.67550334342743" lon="12.021185360194135"><ele>835.0</ele><time>2026-04-18T08:40:53.999Z</time></trkpt><trkpt lat="47.67540322711924" lon="12.021198758565259"><ele>835.0</ele><time>2026-04-18T08:40:54.999Z</time></trkpt><trkpt lat="47.67529452294541" lon="12.021203320995014"><ele>835.0</ele><time>2026-04-18T08:40:55.999Z</time></trkpt><trkpt lat="47.67516364474345" lon="12.021201086374054"><ele>835.0</ele><time>2026-04-18T08:40:56.999Z</time></trkpt><trkpt lat="47.675042839902886" lon="12.021189018675708"><ele>833.4</ele><time>2026-04-18T08:40:57.999Z</time></trkpt><trkpt lat="47.67492917810316" lon="12.02116466364883"><ele>831.8</ele><time>2026-04-18T08:40:58.999Z</time></trkpt><trkpt lat="47.67481995979528" lon="12.021131365966788"><ele>830.2</ele><time>2026-04-18T08:40:59.999Z</time></trkpt><trkpt lat="47.674720115028855" lon="12.02108749472441"><ele>828.6</ele><time>2026-04-18T08:41:00.999Z</time></trkpt><trkpt lat="47.67463185186385" lon="12.021042398770224"><ele>827.0</ele><time>2026-04-18T08:41:01.999Z</time></trkpt><trkpt lat="47.6745486970605" lon="12.020999429558518"><ele>827.0</ele><time>2026-04-18T08:41:02.999Z</time></trkpt><trkpt lat="47.67446591385363" lon="12.02095784057104"><ele>827.0</ele><time>2026-04-18T08:41:03.999Z</time></trkpt><trkpt lat="47.674378553616805" lon="12.020911550571679"><ele>827.0</ele><time>2026-04-18T08:41:04.999Z</time></trkpt><trkpt lat="47.674280011446264" lon="12.020859093640093"><ele>827.0</ele><time>2026-04-18T08:41:05.999Z</time></trkpt><trkpt lat="47.67417642707843" lon="12.020804821902976"><ele>827.0</ele><time>2026-04-18T08:41:06.999Z</time></trkpt><trkpt lat="47.67406697450043" lon="12.020749010655438"><ele>825.2</ele><time>2026-04-18T08:41:07.999Z</time></trkpt><trkpt lat="47.673958024226586" lon="12.020692006699525"><ele>823.4000000000001</ele><time>2026-04-18T08:41:08.999Z</time></trkpt><trkpt lat="47.67385921559846" lon="12.020642501150371"><ele>821.5999999999999</ele><time>2026-04-18T08:41:09.999Z</time></trkpt><trkpt lat="47.673756472321905" lon="12.020592167864523"><ele>819.8</ele><time>2026-04-18T08:41:10.999Z</time></trkpt><trkpt lat="47.67364883147517" lon="12.02053665911298"><ele>818.0</ele><time>2026-04-18T08:41:11.999Z</time></trkpt><trkpt lat="47.673538714556706" lon="12.02048095223142"><ele>816.5999999999999</ele><time>2026-04-18T08:41:12.999Z</time></trkpt><trkpt lat="47.67343255430626" lon="12.020425030557915"><ele>815.1999999999999</ele><time>2026-04-18T08:41:13.999Z</time></trkpt><trkpt lat="47.673329122360045" lon="12.020371058807092"><ele>813.8</ele><time>2026-04-18T08:41:14.999Z</time></trkpt><trkpt lat="47.67322804204572" lon="12.02031704564429"><ele>812.4</ele><time>2026-04-18T08:41:15.999Z</time></trkpt><trkpt lat="47.67312372766245" lon="12.020260953778768"><ele>811.0</ele><time>2026-04-18T08:41:16.999Z</time></trkpt><trkpt lat="47.673017924796305" lon="12.020205560021"><ele>811.0</ele><time>2026-04-18T08:41:17.999Z</time></trkpt><trkpt lat="47.67291297245261" lon="12.020149737380171"><ele>811.0</ele><time>2026-04-18T08:41:18.999Z</time></trkpt><trkpt lat="47.672811480421835" lon="12.020095535779468"><ele>811.0</ele><time>2026-04-18T08:41:19.999Z</time></trkpt><trkpt lat="47.672712201388634" lon="12.02004431091973"><ele>811.0</ele><time>2026-04-18T08:41:20.999Z</time></trkpt><trkpt lat="47.67261695103364" lon="12.019993244770406"><ele>811.0</ele><time>2026-04-18T08:41:21.999Z</time></trkpt><trkpt lat="47.67252242723057" lon="12.01994132585177"><ele>810.25</ele><time>2026-04-18T08:41:22.999Z</time></trkpt><trkpt lat="47.67242689713733" lon="12.019888507413228"><ele>809.5</ele><time>2026-04-18T08:41:23.999Z</time></trkpt><trkpt lat="47.67232576473807" lon="12.019833842318544"><ele>808.75</ele><time>2026-04-18T08:41:24.999Z</time></trkpt><trkpt lat="47.67221394916308" lon="12.019773133956889"><ele>808.0</ele><time>2026-04-18T08:41:25.999Z</time></trkpt><trkpt lat="47.67209293334804" lon="12.019714172742155"><ele>808.0</ele><time>2026-04-18T08:41:26.999Z</time></trkpt><trkpt lat="47.67196214355668" lon="12.019653886433577"><ele>808.0</ele><time>2026-04-18T08:41:27.999Z</time></trkpt><trkpt lat="47.67184232940889" lon="12.019590508388621"><ele>808.0</ele><time>2026-04-18T08:41:28.999Z</time></trkpt><trkpt lat="47.671736026270025" lon="12.019523547412371"><ele>808.0</ele><time>2026-04-18T08:41:29.999Z</time></trkpt><trkpt lat="47.671635801901786" lon="12.019453644344997"><ele>806.5</ele><time>2026-04-18T08:41:30.999Z</time></trkpt><trkpt lat="47.671530989207604" lon="12.019359595538864"><ele>805.0</ele><time>2026-04-18T08:41:31.999Z</time></trkpt><trkpt lat="47.67142224905492" lon="12.01922577517508"><ele>803.5</ele><time>2026-04-18T08:41:32.999Z</time></trkpt><trkpt lat="47.67132408072543" lon="12.019056586629288"><ele>802.0</ele><time>2026-04-18T08:41:33.999Z</time></trkpt><trkpt lat="47.67123912866725" lon="12.018861815882534"><ele>801.25</ele><time>2026-04-18T08:41:34.999Z</time></trkpt><trkpt lat="47.67118332012178" lon="12.01865705800571"><ele>800.5</ele><time>2026-04-18T08:41:35.999Z</time></trkpt><trkpt lat="47.671151970290964" lon="12.018438706840785"><ele>799.75</ele><time>2026-04-18T08:41:36.999Z</time></trkpt><trkpt lat="47.671140282143746" lon="12.018222354777762"><ele>799.0</ele><time>2026-04-18T08:41:37.999Z</time></trkpt><trkpt lat="47.67115295043765" lon="12.018017384877812"><ele>798.4000000000001</ele><time>2026-04-18T08:41:38.999Z</time></trkpt><trkpt lat="47.671168088985205" lon="12.017822428631524"><ele>797.8</ele><time>2026-04-18T08:41:39.999Z</time></trkpt><trkpt lat="47.6711818526702" lon="12.017651651925783"><ele>797.2</ele><time>2026-04-18T08:41:40.999Z</time></trkpt><trkpt lat="47.67119671755429" lon="12.017504035506025"><ele>796.5999999999999</ele><time>2026-04-18T08:41:41.999Z</time></trkpt><trkpt lat="47.671211938876894" lon="12.01736338566457"><ele>796.0</ele><time>2026-04-18T08:41:42.999Z</time></trkpt><trkpt lat="47.67122610382698" lon="12.017217880308344"><ele>796.0</ele><time>2026-04-18T08:41:43.999Z</time></trkpt><trkpt lat="47.671242650218616" lon="12.01707273666269"><ele>796.0</ele><time>2026-04-18T08:41:44.999Z</time></trkpt><trkpt lat="47.67125845075956" lon="12.016927141324388"><ele>796.0</ele><time>2026-04-18T08:41:45.999Z</time></trkpt><trkpt lat="47.67127141811034" lon="12.01678827998849"><ele>796.0</ele><time>2026-04-18T08:41:46.999Z</time></trkpt><trkpt lat="47.67128474395727" lon="12.0166646604312"><ele>796.0</ele><time>2026-04-18T08:41:47.999Z</time></trkpt><trkpt lat="47.671299082813725" lon="12.016544935329964"><ele>796.4</ele><time>2026-04-18T08:41:49Z</time></trkpt><trkpt lat="47.67131430104221" lon="12.016417170535064"><ele>796.8</ele><time>2026-04-18T08:41:50Z</time></trkpt><trkpt lat="47.671329229496074" lon="12.016272823178586"><ele>797.1999999999999</ele><time>2026-04-18T08:41:51Z</time></trkpt><trkpt lat="47.67134535738303" lon="12.016109649623033"><ele>797.5999999999999</ele><time>2026-04-18T08:41:52Z</time></trkpt><trkpt lat="47.67136347881721" lon="12.015934778251923"><ele>798.0</ele><time>2026-04-18T08:41:53Z</time></trkpt><trkpt lat="47.67138193341977" lon="12.015764736378316"><ele>798.0</ele><time>2026-04-18T08:41:54Z</time></trkpt><trkpt lat="47.67139845704163" lon="12.015611955057343"><ele>798.0</ele><time>2026-04-18T08:41:55Z</time></trkpt><trkpt lat="47.6714143198992" lon="12.01547258738527"><ele>798.0</ele><time>2026-04-18T08:41:56Z</time></trkpt><trkpt lat="47.671430113444785" lon="12.015344454974326"><ele>798.0</ele><time>2026-04-18T08:41:57Z</time></trkpt><trkpt lat="47.67144516683001" lon="12.015218513469186"><ele>798.0</ele><time>2026-04-18T08:41:58Z</time></trkpt><trkpt lat="47.671457987629566" lon="12.01509944313497"><ele>797.5999999999999</ele><time>2026-04-18T08:41:59Z</time></trkpt><trkpt lat="47.67147693327848" lon="12.01497310353921"><ele>797.1999999999999</ele><time>2026-04-18T08:42:00Z</time></trkpt><trkpt lat="47.6714964412527" lon="12.014829545834377"><ele>796.8</ele><time>2026-04-18T08:42:01Z</time></trkpt><trkpt lat="47.6715109801364" lon="12.014673717857587"><ele>796.4</ele><time>2026-04-18T08:42:02Z</time></trkpt><trkpt lat="47.671522490398786" lon="12.014506582776507"><ele>796.0</ele><time>2026-04-18T08:42:03Z</time></trkpt><trkpt lat="47.67153495921" lon="12.01434103059904"><ele>796.0</ele><time>2026-04-18T08:42:04Z</time></trkpt><trkpt lat="47.67154896828912" lon="12.0141729644655"><ele>796.0</ele><time>2026-04-18T08:42:05Z</time></trkpt><trkpt lat="47.671566057606434" lon="12.013997578603401"><ele>796.0</ele><time>2026-04-18T08:42:06Z</time></trkpt><trkpt lat="47.671584599329435" lon="12.01381756836903"><ele>796.0</ele><time>2026-04-18T08:42:07Z</time></trkpt><trkpt lat="47.671602258905104" lon="12.013631905886552"><ele>795.5</ele><time>2026-04-18T08:42:08Z</time></trkpt><trkpt lat="47.67162076342867" lon="12.01344241218732"><ele>795.0</ele><time>2026-04-18T08:42:09Z</time></trkpt><trkpt lat="47.67164100109112" lon="12.013253400778567"><ele>794.5</ele><time>2026-04-18T08:42:10Z</time></trkpt><trkpt lat="47.67166022062785" lon="12.013068631816795"><ele>794.0</ele><time>2026-04-18T08:42:11Z</time></trkpt><trkpt lat="47.67167894175641" lon="12.012891833155523"><ele>794.0</ele><time>2026-04-18T08:42:12Z</time></trkpt><trkpt lat="47.67169883488056" lon="12.012722587764385"><ele>794.0</ele><time>2026-04-18T08:42:13Z</time></trkpt><trkpt lat="47.67172108783352" lon="12.012554426473812"><ele>794.0</ele><time>2026-04-18T08:42:14Z</time></trkpt><trkpt lat="47.67175006863703" lon="12.012386040795606"><ele>794.0</ele><time>2026-04-18T08:42:15Z</time></trkpt><trkpt lat="47.67178306741693" lon="12.012210476072868"><ele>794.25</ele><time>2026-04-18T08:42:16Z</time></trkpt><trkpt lat="47.671819660510735" lon="12.012027399272558"><ele>794.5</ele><time>2026-04-18T08:42:17Z</time></trkpt><trkpt lat="47.67186007131175" lon="12.011840276711998"><ele>794.75</ele><time>2026-04-18T08:42:18Z</time></trkpt><trkpt lat="47.67190569549207" lon="12.011649880039965"><ele>795.0</ele><time>2026-04-18T08:42:19Z</time></trkpt><trkpt lat="47.67195394277367" lon="12.01146704644399"><ele>795.25</ele><time>2026-04-18T08:42:20Z</time></trkpt><trkpt lat="47.67200193339898" lon="12.011292438205214"><ele>795.5</ele><time>2026-04-18T08:42:21Z</time></trkpt><trkpt lat="47.67205321809239" lon="12.011127563426987"><ele>795.75</ele><time>2026-04-18T08:42:22Z</time></trkpt><trkpt lat="47.672109152816546" lon="12.010965945650991"><ele>796.0</ele><time>2026-04-18T08:42:23Z</time></trkpt><trkpt lat="47.672167291566055" lon="12.0108054419417"><ele>796.0</ele><time>2026-04-18T08:42:24Z</time></trkpt><trkpt lat="47.6722309323032" lon="12.010642800987137"><ele>796.0</ele><time>2026-04-18T08:42:25Z</time></trkpt><trkpt lat="47.672303924400744" lon="12.010473609068429"><ele>796.0</ele><time>2026-04-18T08:42:26Z</time></trkpt><trkpt lat="47.67238827353261" lon="12.010295780098541"><ele>796.0</ele><time>2026-04-18T08:42:27Z</time></trkpt><trkpt lat="47.67248146157782" lon="12.010116390850238"><ele>796.0</ele><time>2026-04-18T08:42:28Z</time></trkpt><trkpt lat="47.672582288285206" lon="12.009932401764475"><ele>796.0</ele><time>2026-04-18T08:42:29Z</time></trkpt><trkpt lat="47.67270250705913" lon="12.009729087388807"><ele>796.0</ele><time>2026-04-18T08:42:30Z</time></trkpt><trkpt lat="47.67283530535924" lon="12.009524686034739"><ele>796.0</ele><time>2026-04-18T08:42:31Z</time></trkpt><trkpt lat="47.67297109432628" lon="12.00933562815327"><ele>796.0</ele><time>2026-04-18T08:42:32Z</time></trkpt><trkpt lat="47.67310318564175" lon="12.009174115752119"><ele>796.0</ele><time>2026-04-18T08:42:33Z</time></trkpt><trkpt lat="47.67322881984611" lon="12.009028961096321"><ele>796.0</ele><time>2026-04-18T08:42:34Z</time></trkpt><trkpt lat="47.67334729809993" lon="12.008894047593905"><ele>796.0</ele><time>2026-04-18T08:42:35Z</time></trkpt><trkpt lat="47.67346355398151" lon="12.008769442610959"><ele>796.0</ele><time>2026-04-18T08:42:36Z</time></trkpt><trkpt lat="47.673585897617336" lon="12.008638847578206"><ele>796.0</ele><time>2026-04-18T08:42:37Z</time></trkpt><trkpt lat="47.67372272433575" lon="12.008493211947124"><ele>795.3333333333333</ele><time>2026-04-18T08:42:38Z</time></trkpt><trkpt lat="47.673869670171" lon="12.008337335733858"><ele>794.6666666666667</ele><time>2026-04-18T08:42:39Z</time></trkpt><trkpt lat="47.674013614534985" lon="12.008185034204567"><ele>794.0</ele><time>2026-04-18T08:42:40Z</time></trkpt><trkpt lat="47.674148576336364" lon="12.008043504814895"><ele>794.0</ele><time>2026-04-18T08:42:41Z</time></trkpt><trkpt lat="47.67427765959417" lon="12.007910350540172"><ele>794.0</ele><time>2026-04-18T08:42:42Z</time></trkpt><trkpt lat="47.674407743727116" lon="12.007772943723799"><ele>794.0</ele><time>2026-04-18T08:42:43Z</time></trkpt><trkpt lat="47.67453999467767" lon="12.007628914679731"><ele>793.6666666666667</ele><time>2026-04-18T08:42:44Z</time></trkpt><trkpt lat="47.674675986681315" lon="12.007484024140567"><ele>793.3333333333333</ele><time>2026-04-18T08:42:45Z</time></trkpt><trkpt lat="47.67480556945754" lon="12.00735068360281"><ele>793.0</ele><time>2026-04-18T08:42:46Z</time></trkpt><trkpt lat="47.67493295887222" lon="12.007216977595546"><ele>793.0</ele><time>2026-04-18T08:42:47Z</time></trkpt><trkpt lat="47.67506755944332" lon="12.007077258947081"><ele>793.0</ele><time>2026-04-18T08:42:48Z</time></trkpt><trkpt lat="47.6752132896248" lon="12.006923329823513"><ele>793.0</ele><time>2026-04-18T08:42:49Z</time></trkpt><trkpt lat="47.67537174772204" lon="12.006753810712308"><ele>793.0</ele><time>2026-04-18T08:42:50Z</time></trkpt><trkpt lat="47.67554848856273" lon="12.006567909406032"><ele>793.0</ele><time>2026-04-18T08:42:51Z</time></trkpt><trkpt lat="47.67571722769132" lon="12.006392879759126"><ele>793.0</ele><time>2026-04-18T08:42:52Z</time></trkpt><trkpt lat="47.6758716923141" lon="12.00622944818439"><ele>793.0</ele><time>2026-04-18T08:42:52.999Z</time></trkpt><trkpt lat="47.67601534246483" lon="12.006071292890958"><ele>793.0</ele><time>2026-04-18T08:42:53.999Z</time></trkpt><trkpt lat="47.67615325708431" lon="12.00592430453474"><ele>793.0</ele><time>2026-04-18T08:42:54.999Z</time></trkpt><trkpt lat="47.67628552065347" lon="12.005787603572463"><ele>792.0</ele><time>2026-04-18T08:42:55.999Z</time></trkpt><trkpt lat="47.676420391762015" lon="12.005649406234552"><ele>791.0</ele><time>2026-04-18T08:42:56.999Z</time></trkpt><trkpt lat="47.676562475068934" lon="12.005499735570288"><ele>790.0</ele><time>2026-04-18T08:42:57.999Z</time></trkpt><trkpt lat="47.67670686886864" lon="12.005345136066104"><ele>790.0</ele><time>2026-04-18T08:42:58.999Z</time></trkpt><trkpt lat="47.67685475393299" lon="12.005190664198942"><ele>790.0</ele><time>2026-04-18T08:42:59.999Z</time></trkpt><trkpt lat="47.67700090975431" lon="12.005039180116446"><ele>790.0</ele><time>2026-04-18T08:43:00.999Z</time></trkpt><trkpt lat="47.67713942228005" lon="12.004889672084975"><ele>789.6666666666666</ele><time>2026-04-18T08:43:01.999Z</time></trkpt><trkpt lat="47.67727001296114" lon="12.004747869769965"><ele>789.3333333333333</ele><time>2026-04-18T08:43:02.999Z</time></trkpt><trkpt lat="47.67740120155813" lon="12.004603288138028"><ele>789.0</ele><time>2026-04-18T08:43:03.999Z</time></trkpt><trkpt lat="47.67752946141807" lon="12.004454446245994"><ele>789.0</ele><time>2026-04-18T08:43:04.999Z</time></trkpt><trkpt lat="47.677655870045434" lon="12.004304603471896"><ele>789.0</ele><time>2026-04-18T08:43:05.999Z</time></trkpt><trkpt lat="47.6777839081882" lon="12.004150934350683"><ele>789.0</ele><time>2026-04-18T08:43:06.999Z</time></trkpt><trkpt lat="47.67791705591872" lon="12.003994367064148"><ele>789.0</ele><time>2026-04-18T08:43:07.999Z</time></trkpt><trkpt lat="47.67805286755746" lon="12.003833217917023"><ele>789.0</ele><time>2026-04-18T08:43:08.999Z</time></trkpt><trkpt lat="47.67817469903528" lon="12.003684323908407"><ele>789.0</ele><time>2026-04-18T08:43:09.999Z</time></trkpt><trkpt lat="47.67829551304743" lon="12.00353455271475"><ele>789.0</ele><time>2026-04-18T08:43:10.999Z</time></trkpt><trkpt lat="47.67841234037789" lon="12.003383147243609"><ele>789.0</ele><time>2026-04-18T08:43:11.999Z</time></trkpt><trkpt lat="47.678550315895066" lon="12.003210605456205"><ele>789.0</ele><time>2026-04-18T08:43:12.999Z</time></trkpt><trkpt lat="47.678670374958514" lon="12.00304696813396"><ele>788.3333333333333</ele><time>2026-04-18T08:43:13.999Z</time></trkpt><trkpt lat="47.67878627622908" lon="12.002871696235347"><ele>787.6666666666666</ele><time>2026-04-18T08:43:14.999Z</time></trkpt><trkpt lat="47.678887767324646" lon="12.002696986551742"><ele>787.0</ele><time>2026-04-18T08:43:15.999Z</time></trkpt><trkpt lat="47.67899050535813" lon="12.002533662747306"><ele>786.6666666666666</ele><time>2026-04-18T08:43:16.999Z</time></trkpt><trkpt lat="47.6790928316907" lon="12.002370217860738"><ele>786.3333333333333</ele><time>2026-04-18T08:43:17.999Z</time></trkpt><trkpt lat="47.67919187409787" lon="12.002197917676261"><ele>786.0</ele><time>2026-04-18T08:43:18.999Z</time></trkpt><trkpt lat="47.67929810099624" lon="12.00201704143929"><ele>786.0</ele><time>2026-04-18T08:43:19.999Z</time></trkpt><trkpt lat="47.67940651154047" lon="12.001832963639355"><ele>786.0</ele><time>2026-04-18T08:43:20.999Z</time></trkpt><trkpt lat="47.67951126479977" lon="12.001638507470844"><ele>786.0</ele><time>2026-04-18T08:43:21.999Z</time></trkpt><trkpt lat="47.67961627864251" lon="12.001434823125441"><ele>786.3333333333333</ele><time>2026-04-18T08:43:22.999Z</time></trkpt><trkpt lat="47.67972633907416" lon="12.001239269974464"><ele>786.6666666666666</ele><time>2026-04-18T08:43:23.999Z</time></trkpt><trkpt lat="47.67983548643428" lon="12.001044672400054"><ele>787.0</ele><time>2026-04-18T08:43:24.999Z</time></trkpt><trkpt lat="47.67995016027892" lon="12.000846245265363"><ele>787.3333333333333</ele><time>2026-04-18T08:43:25.999Z</time></trkpt><trkpt lat="47.68006822372895" lon="12.000632366258767"><ele>787.6666666666667</ele><time>2026-04-18T08:43:26.999Z</time></trkpt><trkpt lat="47.68018857710513" lon="12.000404749058793"><ele>788.0</ele><time>2026-04-18T08:43:27.999Z</time></trkpt><trkpt lat="47.680302515127636" lon="12.0001651506606"><ele>789.3333333333334</ele><time>2026-04-18T08:43:28.999Z</time></trkpt><trkpt lat="47.68041621337495" lon="11.999927561502673"><ele>790.6666666666667</ele><time>2026-04-18T08:43:29.999Z</time></trkpt><trkpt lat="47.68052603536328" lon="11.999699264358494"><ele>792.0</ele><time>2026-04-18T08:43:30.999Z</time></trkpt><trkpt lat="47.68063485259207" lon="11.9994831010357"><ele>792.0</ele><time>2026-04-18T08:43:31.999Z</time></trkpt><trkpt lat="47.6807353336827" lon="11.999267373596288"><ele>792.0</ele><time>2026-04-18T08:43:32.999Z</time></trkpt><trkpt lat="47.680836085706254" lon="11.999054632468342"><ele>792.0</ele><time>2026-04-18T08:43:33.999Z</time></trkpt><trkpt lat="47.68093634546338" lon="11.998831188805038"><ele>790.0</ele><time>2026-04-18T08:43:34.999Z</time></trkpt><trkpt lat="47.68104034367833" lon="11.998603541426515"><ele>788.0</ele><time>2026-04-18T08:43:35.999Z</time></trkpt><trkpt lat="47.68114272862174" lon="11.99837209007959"><ele>786.0</ele><time>2026-04-18T08:43:36.999Z</time></trkpt><trkpt lat="47.681242199766864" lon="11.998148260962674"><ele>792.0</ele><time>2026-04-18T08:43:37.999Z</time></trkpt><trkpt lat="47.68133374460186" lon="11.99794099601593"><ele>798.0</ele><time>2026-04-18T08:43:38.999Z</time></trkpt><trkpt lat="47.68142122081794" lon="11.997737335439341"><ele>804.0</ele><time>2026-04-18T08:43:39.999Z</time></trkpt><trkpt lat="47.68150470882074" lon="11.997520735117156"><ele>800.0</ele><time>2026-04-18T08:43:40.999Z</time></trkpt><trkpt lat="47.68159958330417" lon="11.997294525687929"><ele>796.0</ele><time>2026-04-18T08:43:41.999Z</time></trkpt><trkpt lat="47.68169008112578" lon="11.997081658072354"><ele>792.0</ele><time>2026-04-18T08:43:42.999Z</time></trkpt><trkpt lat="47.68177450505515" lon="11.996863651971823"><ele>790.3333333333333</ele><time>2026-04-18T08:43:43.999Z</time></trkpt><trkpt lat="47.68185685090745" lon="11.99663696154717"><ele>788.6666666666666</ele><time>2026-04-18T08:43:44.999Z</time></trkpt><trkpt lat="47.68193940797036" lon="11.996412314476734"><ele>787.0</ele><time>2026-04-18T08:43:45.999Z</time></trkpt><trkpt lat="47.68202402504744" lon="11.99618221290163"><ele>789.6666666666666</ele><time>2026-04-18T08:43:46.999Z</time></trkpt><trkpt lat="47.68211273040116" lon="11.995942886782432"><ele>792.3333333333333</ele><time>2026-04-18T08:43:47.999Z</time></trkpt><trkpt lat="47.68220481331739" lon="11.995690499336265"><ele>795.0</ele><time>2026-04-18T08:43:48.999Z</time></trkpt><trkpt lat="47.68229519687127" lon="11.99542376450337"><ele>795.0</ele><time>2026-04-18T08:43:49.999Z</time></trkpt><trkpt lat="47.68238602785799" lon="11.995147116162057"><ele>795.0</ele><time>2026-04-18T08:43:50.999Z</time></trkpt><trkpt lat="47.68248359238777" lon="11.994861582781803"><ele>795.0</ele><time>2026-04-18T08:43:51.999Z</time></trkpt><trkpt lat="47.68256659120287" lon="11.994615450587437"><ele>792.0</ele><time>2026-04-18T08:43:52.999Z</time></trkpt><trkpt lat="47.68264959477223" lon="11.994365370600153"><ele>789.0</ele><time>2026-04-18T08:43:53.999Z</time></trkpt><trkpt lat="47.682733893854326" lon="11.994113314373337"><ele>786.0</ele><time>2026-04-18T08:43:55Z</time></trkpt><trkpt lat="47.682825994213694" lon="11.993844182540846"><ele>785.6666666666667</ele><time>2026-04-18T08:43:56Z</time></trkpt><trkpt lat="47.682913041006294" lon="11.993585303389521"><ele>785.3333333333334</ele><time>2026-04-18T08:43:57Z</time></trkpt><trkpt lat="47.682998344145396" lon="11.99333155042461"><ele>785.0</ele><time>2026-04-18T08:43:58Z</time></trkpt><trkpt lat="47.683088820691175" lon="11.993066406910826"><ele>785.0</ele><time>2026-04-18T08:43:59Z</time></trkpt><trkpt lat="47.683183556268396" lon="11.99278913709525"><ele>785.0</ele><time>2026-04-18T08:44:00Z</time></trkpt><trkpt lat="47.68327424354072" lon="11.992523474352529"><ele>785.0</ele><time>2026-04-18T08:44:01Z</time></trkpt><trkpt lat="47.68335884848893" lon="11.992271791978308"><ele>785.0</ele><time>2026-04-18T08:44:02Z</time></trkpt><trkpt lat="47.68343544175306" lon="11.99204258035757"><ele>785.0</ele><time>2026-04-18T08:44:03Z</time></trkpt><trkpt lat="47.68351005447988" lon="11.991814089749008"><ele>785.0</ele><time>2026-04-18T08:44:04Z</time></trkpt><trkpt lat="47.683579994108875" lon="11.99158422445888"><ele>785.6666666666667</ele><time>2026-04-18T08:44:05Z</time></trkpt><trkpt lat="47.683641851602715" lon="11.991352588394848"><ele>786.3333333333333</ele><time>2026-04-18T08:44:06Z</time></trkpt><trkpt lat="47.68370032657596" lon="11.99111739578813"><ele>787.0</ele><time>2026-04-18T08:44:07Z</time></trkpt><trkpt lat="47.683755456919506" lon="11.990886239449525"><ele>786.3333333333333</ele><time>2026-04-18T08:44:08Z</time></trkpt><trkpt lat="47.68380850313331" lon="11.990657818341324"><ele>785.6666666666667</ele><time>2026-04-18T08:44:09Z</time></trkpt><trkpt lat="47.68386175269046" lon="11.990417526790235"><ele>785.0</ele><time>2026-04-18T08:44:10Z</time></trkpt><trkpt lat="47.683914666197445" lon="11.990151162013825"><ele>785.3333333333334</ele><time>2026-04-18T08:44:11Z</time></trkpt><trkpt lat="47.68396855814411" lon="11.989871378312735"><ele>785.6666666666667</ele><time>2026-04-18T08:44:12Z</time></trkpt><trkpt lat="47.68402399993203" lon="11.989602410414985"><ele>786.0</ele><time>2026-04-18T08:44:13Z</time></trkpt><trkpt lat="47.68407960866876" lon="11.989337301886737"><ele>787.0</ele><time>2026-04-18T08:44:14Z</time></trkpt><trkpt lat="47.68413666847082" lon="11.989074502828974"><ele>788.0</ele><time>2026-04-18T08:44:15Z</time></trkpt><trkpt lat="47.68419867166865" lon="11.988811068111948"><ele>789.0</ele><time>2026-04-18T08:44:16Z</time></trkpt><trkpt lat="47.68426734054502" lon="11.988536247562026"><ele>788.3333333333333</ele><time>2026-04-18T08:44:17Z</time></trkpt><trkpt lat="47.68433412872158" lon="11.988286146335879"><ele>787.6666666666666</ele><time>2026-04-18T08:44:18Z</time></trkpt><trkpt lat="47.684405999838255" lon="11.988042712018444"><ele>787.0</ele><time>2026-04-18T08:44:19Z</time></trkpt><trkpt lat="47.68448401522719" lon="11.987793308215707"><ele>788.6666666666666</ele><time>2026-04-18T08:44:20Z</time></trkpt><trkpt lat="47.6845654558287" lon="11.987536033917387"><ele>790.3333333333333</ele><time>2026-04-18T08:44:21Z</time></trkpt><trkpt lat="47.684650139411325" lon="11.987286084971338"><ele>792.0</ele><time>2026-04-18T08:44:22Z</time></trkpt><trkpt lat="47.6847344821049" lon="11.987051229792566"><ele>792.0</ele><time>2026-04-18T08:44:23Z</time></trkpt><trkpt lat="47.684818219921674" lon="11.986835225042897"><ele>792.0</ele><time>2026-04-18T08:44:24Z</time></trkpt><trkpt lat="47.68490405128937" lon="11.986621767329556"><ele>792.0</ele><time>2026-04-18T08:44:25Z</time></trkpt><trkpt lat="47.684993203753564" lon="11.986406697984295"><ele>792.0</ele><time>2026-04-18T08:44:26Z</time></trkpt><trkpt lat="47.6850806883321" lon="11.98619079354606"><ele>792.0</ele><time>2026-04-18T08:44:27Z</time></trkpt><trkpt lat="47.685168601916125" lon="11.98597809683019"><ele>792.0</ele><time>2026-04-18T08:44:28Z</time></trkpt><trkpt lat="47.68525456195372" lon="11.985765254377778"><ele>792.6666666666667</ele><time>2026-04-18T08:44:29Z</time></trkpt><trkpt lat="47.68534155588001" lon="11.985548986245572"><ele>793.3333333333334</ele><time>2026-04-18T08:44:30Z</time></trkpt><trkpt lat="47.68542768764362" lon="11.985328033092555"><ele>794.0</ele><time>2026-04-18T08:44:31Z</time></trkpt><trkpt lat="47.685513363595355" lon="11.985107516181293"><ele>793.3333333333334</ele><time>2026-04-18T08:44:32Z</time></trkpt><trkpt lat="47.68560070863911" lon="11.98488001280005"><ele>792.6666666666667</ele><time>2026-04-18T08:44:33Z</time></trkpt><trkpt lat="47.68569458558297" lon="11.984633146699908"><ele>792.0</ele><time>2026-04-18T08:44:34Z</time></trkpt><trkpt lat="47.6858013529858" lon="11.984362079228148"><ele>791.6666666666667</ele><time>2026-04-18T08:44:35Z</time></trkpt><trkpt lat="47.6859081303075" lon="11.984098494128292"><ele>791.3333333333334</ele><time>2026-04-18T08:44:36Z</time></trkpt><trkpt lat="47.68600775716541" lon="11.983841241780496"><ele>791.0</ele><time>2026-04-18T08:44:37Z</time></trkpt><trkpt lat="47.68610547528336" lon="11.983584075476662"><ele>791.6666666666667</ele><time>2026-04-18T08:44:38Z</time></trkpt><trkpt lat="47.68620531199542" lon="11.983332361292018"><ele>792.3333333333333</ele><time>2026-04-18T08:44:39Z</time></trkpt><trkpt lat="47.686308943362526" lon="11.98308058373006"><ele>793.0</ele><time>2026-04-18T08:44:40Z</time></trkpt><trkpt lat="47.68641124091961" lon="11.98283002130141"><ele>793.0</ele><time>2026-04-18T08:44:41Z</time></trkpt><trkpt lat="47.6865076233385" lon="11.982589708557818"><ele>793.0</ele><time>2026-04-18T08:44:42Z</time></trkpt><trkpt lat="47.68659805665495" lon="11.982366864920655"><ele>793.0</ele><time>2026-04-18T08:44:43Z</time></trkpt><trkpt lat="47.6866903406009" lon="11.982142472594697"><ele>792.0</ele><time>2026-04-18T08:44:44Z</time></trkpt><trkpt lat="47.68678669694427" lon="11.981904913012198"><ele>791.0</ele><time>2026-04-18T08:44:45Z</time></trkpt><trkpt lat="47.68688745914594" lon="11.981654574159474"><ele>790.0</ele><time>2026-04-18T08:44:46Z</time></trkpt><trkpt lat="47.68698503365503" lon="11.981419862461317"><ele>790.0</ele><time>2026-04-18T08:44:47Z</time></trkpt><trkpt lat="47.687083270588374" lon="11.981181981023083"><ele>790.0</ele><time>2026-04-18T08:44:48Z</time></trkpt><trkpt lat="47.68718488675224" lon="11.98093219631769"><ele>790.0</ele><time>2026-04-18T08:44:49Z</time></trkpt><trkpt lat="47.68728917039385" lon="11.980680648907729"><ele>790.0</ele><time>2026-04-18T08:44:50Z</time></trkpt><trkpt lat="47.687395074486815" lon="11.980432512447702"><ele>790.0</ele><time>2026-04-18T08:44:51Z</time></trkpt><trkpt lat="47.68749562022249" lon="11.980178547533226"><ele>790.0</ele><time>2026-04-18T08:44:52Z</time></trkpt><trkpt lat="47.68759295596166" lon="11.979921222661488"><ele>788.0</ele><time>2026-04-18T08:44:53Z</time></trkpt><trkpt lat="47.68768206376068" lon="11.979673837814989"><ele>786.0</ele><time>2026-04-18T08:44:54Z</time></trkpt><trkpt lat="47.68776694205237" lon="11.979431872417269"><ele>784.0</ele><time>2026-04-18T08:44:55Z</time></trkpt><trkpt lat="47.6878551944409" lon="11.979189550573764"><ele>783.3333333333333</ele><time>2026-04-18T08:44:56Z</time></trkpt><trkpt lat="47.68793895687205" lon="11.978932242562964"><ele>782.6666666666667</ele><time>2026-04-18T08:44:57Z</time></trkpt><trkpt lat="47.68802167471597" lon="11.978669756726964"><ele>782.0</ele><time>2026-04-18T08:44:58Z</time></trkpt><trkpt lat="47.688106286681965" lon="11.978399821365022"><ele>781.0</ele><time>2026-04-18T08:44:59Z</time></trkpt><trkpt lat="47.68819337773452" lon="11.978127830061531"><ele>780.0</ele><time>2026-04-18T08:45:00Z</time></trkpt><trkpt lat="47.68828536299468" lon="11.977860716517089"><ele>779.0</ele><time>2026-04-18T08:45:01Z</time></trkpt><trkpt lat="47.68837545933143" lon="11.97760627085827"><ele>778.6666666666667</ele><time>2026-04-18T08:45:02Z</time></trkpt><trkpt lat="47.68845989234047" lon="11.97735639427927"><ele>778.3333333333333</ele><time>2026-04-18T08:45:03Z</time></trkpt><trkpt lat="47.6885549569228" lon="11.977089970038273"><ele>778.0</ele><time>2026-04-18T08:45:04Z</time></trkpt><trkpt lat="47.688657446226436" lon="11.976795890119469"><ele>777.3333333333333</ele><time>2026-04-18T08:45:05Z</time></trkpt><trkpt lat="47.68875492355526" lon="11.976522178836289"><ele>776.6666666666667</ele><time>2026-04-18T08:45:06Z</time></trkpt><trkpt lat="47.6888432635747" lon="11.97626570571809"><ele>776.0</ele><time>2026-04-18T08:45:07Z</time></trkpt><trkpt lat="47.68892878686352" lon="11.97602067198479"><ele>776.0</ele><time>2026-04-18T08:45:08Z</time></trkpt><trkpt lat="47.68901304814571" lon="11.975781489435002"><ele>776.0</ele><time>2026-04-18T08:45:09Z</time></trkpt><trkpt lat="47.689106750681894" lon="11.975506243917343"><ele>776.0</ele><time>2026-04-18T08:45:10Z</time></trkpt><trkpt lat="47.689208431523895" lon="11.975208472303093"><ele>775.5</ele><time>2026-04-18T08:45:11Z</time></trkpt><trkpt lat="47.6893253811686" lon="11.974868635812149"><ele>775.0</ele><time>2026-04-18T08:45:12Z</time></trkpt><trkpt lat="47.689446627914485" lon="11.97450612310349"><ele>777.0</ele><time>2026-04-18T08:45:13Z</time></trkpt><trkpt lat="47.68957963358771" lon="11.974067453048054"><ele>779.0</ele><time>2026-04-18T08:45:14Z</time></trkpt><trkpt lat="47.68974141348455" lon="11.973591849535245"><ele>777.5</ele><time>2026-04-18T08:45:15Z</time></trkpt><trkpt lat="47.68988069826305" lon="11.973124714702886"><ele>776.0</ele><time>2026-04-18T08:45:16Z</time></trkpt><trkpt lat="47.68999573699139" lon="11.972688468908235"><ele>775.0</ele><time>2026-04-18T08:45:17Z</time></trkpt><trkpt lat="47.69013575534216" lon="11.972251720622456"><ele>774.0</ele><time>2026-04-18T08:45:18Z</time></trkpt><trkpt lat="47.69027923863995" lon="11.971771318284144"><ele>773.0</ele><time>2026-04-18T08:45:19Z</time></trkpt><trkpt lat="47.69042482488029" lon="11.971261205214885"><ele>772.0</ele><time>2026-04-18T08:45:20Z</time></trkpt><trkpt lat="47.69056715901846" lon="11.970779580394147"><ele>772.0</ele><time>2026-04-18T08:45:21Z</time></trkpt><trkpt lat="47.690705652556986" lon="11.970320704221644"><ele>772.0</ele><time>2026-04-18T08:45:22Z</time></trkpt><trkpt lat="47.69082864199438" lon="11.969912519410078"><ele>772.5</ele><time>2026-04-18T08:45:23Z</time></trkpt><trkpt lat="47.69093042027873" lon="11.969544969084666"><ele>773.0</ele><time>2026-04-18T08:45:24Z</time></trkpt><trkpt lat="47.69100304058973" lon="11.969178236181746"><ele>773.0</ele><time>2026-04-18T08:45:25Z</time></trkpt><trkpt lat="47.69105239436574" lon="11.968776143824666"><ele>773.0</ele><time>2026-04-18T08:45:26Z</time></trkpt><trkpt lat="47.69108761105948" lon="11.968350291448218"><ele>772.5</ele><time>2026-04-18T08:45:27Z</time></trkpt><trkpt lat="47.69110139513809" lon="11.96793461447663"><ele>772.0</ele><time>2026-04-18T08:45:27.999Z</time></trkpt><trkpt lat="47.69110428306021" lon="11.967572157389235"><ele>772.3333333333333</ele><time>2026-04-18T08:45:28.999Z</time></trkpt><trkpt lat="47.6911101101541" lon="11.967264997502301"><ele>772.6666666666667</ele><time>2026-04-18T08:45:29.999Z</time></trkpt><trkpt lat="47.69111363528534" lon="11.966978888905208"><ele>773.0</ele><time>2026-04-18T08:45:30.999Z</time></trkpt><trkpt lat="47.69110792401225" lon="11.966707895818157"><ele>773.0</ele><time>2026-04-18T08:45:31.999Z</time></trkpt><trkpt lat="47.69110546382308" lon="11.966453867552172"><ele>773.0</ele><time>2026-04-18T08:45:32.999Z</time></trkpt><trkpt lat="47.691102443508136" lon="11.966195848434143"><ele>773.0</ele><time>2026-04-18T08:45:33.999Z</time></trkpt><trkpt lat="47.69109996469303" lon="11.965921101482357"><ele>772.3333333333334</ele><time>2026-04-18T08:45:34.999Z</time></trkpt><trkpt lat="47.69109821309805" lon="11.96561953142502"><ele>771.6666666666667</ele><time>2026-04-18T08:45:35.999Z</time></trkpt><trkpt lat="47.69110055674996" lon="11.965341706607248"><ele>771.0</ele><time>2026-04-18T08:45:36.999Z</time></trkpt><trkpt lat="47.69110924689104" lon="11.965082712309346"><ele>771.3333333333333</ele><time>2026-04-18T08:45:37.999Z</time></trkpt><trkpt lat="47.69111637143821" lon="11.964838502394482"><ele>771.6666666666666</ele><time>2026-04-18T08:45:38.999Z</time></trkpt><trkpt lat="47.69111811659137" lon="11.964623274938956"><ele>772.0</ele><time>2026-04-18T08:45:39.999Z</time></trkpt><trkpt lat="47.6911222623792" lon="11.964414977974766"><ele>772.0</ele><time>2026-04-18T08:45:40.999Z</time></trkpt><trkpt lat="47.69113205085873" lon="11.964212205434109"><ele>772.0</ele><time>2026-04-18T08:45:41.999Z</time></trkpt><trkpt lat="47.691146390844345" lon="11.964025384755907"><ele>772.0</ele><time>2026-04-18T08:45:42.999Z</time></trkpt><trkpt lat="47.69116679619568" lon="11.963856350590811"><ele>772.0</ele><time>2026-04-18T08:45:43.999Z</time></trkpt><trkpt lat="47.69118779633364" lon="11.963689032916575"><ele>772.0</ele><time>2026-04-18T08:45:44.999Z</time></trkpt><trkpt lat="47.69120679657751" lon="11.963471070342019"><ele>772.0</ele><time>2026-04-18T08:45:45.999Z</time></trkpt><trkpt lat="47.691234235505725" lon="11.963198457107419"><ele>772.0</ele><time>2026-04-18T08:45:46.999Z</time></trkpt><trkpt lat="47.691264950562925" lon="11.962958241394636"><ele>772.0</ele><time>2026-04-18T08:45:47.999Z</time></trkpt><trkpt lat="47.69129419424638" lon="11.962771825778406"><ele>772.0</ele><time>2026-04-18T08:45:48.999Z</time></trkpt><trkpt lat="47.69132128030728" lon="11.96259264794598"><ele>772.0</ele><time>2026-04-18T08:45:49.999Z</time></trkpt><trkpt lat="47.69135087231668" lon="11.962415233842615"><ele>772.0</ele><time>2026-04-18T08:45:50.999Z</time></trkpt><trkpt lat="47.69138309135251" lon="11.962248123525566"><ele>771.8</ele><time>2026-04-18T08:45:51.999Z</time></trkpt><trkpt lat="47.69141669627537" lon="11.962086969499488"><ele>771.6</ele><time>2026-04-18T08:45:52.999Z</time></trkpt><trkpt lat="47.69144949076862" lon="11.961932881692071"><ele>771.4</ele><time>2026-04-18T08:45:53.999Z</time></trkpt><trkpt lat="47.69148670402299" lon="11.961784914196265"><ele>771.1999999999999</ele><time>2026-04-18T08:45:54.999Z</time></trkpt><trkpt lat="47.6915293863978" lon="11.961640440556819"><ele>771.0</ele><time>2026-04-18T08:45:55.999Z</time></trkpt><trkpt lat="47.69158046241296" lon="11.961474592684011"><ele>771.0</ele><time>2026-04-18T08:45:56.999Z</time></trkpt><trkpt lat="47.6916348298622" lon="11.96127319336726"><ele>771.0</ele><time>2026-04-18T08:45:57.999Z</time></trkpt><trkpt lat="47.691698092281186" lon="11.96105017942187"><ele>771.0</ele><time>2026-04-18T08:45:58.999Z</time></trkpt><trkpt lat="47.691756916121356" lon="11.960849905996954"><ele>770.5999999999999</ele><time>2026-04-18T08:45:59.999Z</time></trkpt><trkpt lat="47.69181324897284" lon="11.960672762611798"><ele>770.2</ele><time>2026-04-18T08:46:01Z</time></trkpt><trkpt lat="47.69186013210277" lon="11.960526328913438"><ele>769.8</ele><time>2026-04-18T08:46:02Z</time></trkpt><trkpt lat="47.69189908434923" lon="11.960407218584605"><ele>769.4000000000001</ele><time>2026-04-18T08:46:03Z</time></trkpt><trkpt lat="47.691936632714665" lon="11.960297327924591"><ele>769.0</ele><time>2026-04-18T08:46:04Z</time></trkpt><trkpt lat="47.69197492547954" lon="11.960189672876623"><ele>768.9999999999999</ele><time>2026-04-18T08:46:05Z</time></trkpt><trkpt lat="47.692012065034895" lon="11.960082540126173"><ele>769.0</ele><time>2026-04-18T08:46:06Z</time></trkpt><trkpt lat="47.692049451061" lon="11.959980945709423"><ele>769.0</ele><time>2026-04-18T08:46:07Z</time></trkpt><trkpt lat="47.692083982106" lon="11.959883508585882"><ele>769.0</ele><time>2026-04-18T08:46:08Z</time></trkpt><trkpt lat="47.69212147070262" lon="11.95977623330468"><ele>768.9999999999999</ele><time>2026-04-18T08:46:09Z</time></trkpt><trkpt lat="47.69216151228013" lon="11.95966148215754"><ele>769.0</ele><time>2026-04-18T08:46:10Z</time></trkpt><trkpt lat="47.69220494256771" lon="11.959538538530484"><ele>768.5</ele><time>2026-04-18T08:46:11Z</time></trkpt><trkpt lat="47.69225021187568" lon="11.959409301105936"><ele>768.0</ele><time>2026-04-18T08:46:12Z</time></trkpt><trkpt lat="47.69229819699846" lon="11.959266649700115"><ele>767.5</ele><time>2026-04-18T08:46:13Z</time></trkpt><trkpt lat="47.692356394273446" lon="11.95907832608409"><ele>767.0</ele><time>2026-04-18T08:46:14Z</time></trkpt><trkpt lat="47.692433461612325" lon="11.958840055472443"><ele>767.0</ele><time>2026-04-18T08:46:15Z</time></trkpt><trkpt lat="47.69252409818178" lon="11.958583188951838"><ele>767.0</ele><time>2026-04-18T08:46:16Z</time></trkpt><trkpt lat="47.69262473399329" lon="11.958305566175177"><ele>767.0</ele><time>2026-04-18T08:46:17Z</time></trkpt><trkpt lat="47.69271203744064" lon="11.958039561380954"><ele>767.0</ele><time>2026-04-18T08:46:18Z</time></trkpt><trkpt lat="47.692794899624786" lon="11.957783200799296"><ele>767.0</ele><time>2026-04-18T08:46:19Z</time></trkpt><trkpt lat="47.69288436497289" lon="11.957540706221275"><ele>767.0</ele><time>2026-04-18T08:46:20Z</time></trkpt><trkpt lat="47.692974125754226" lon="11.9572954491809"><ele>767.0</ele><time>2026-04-18T08:46:21Z</time></trkpt><trkpt lat="47.69306445620459" lon="11.957045913671276"><ele>767.0</ele><time>2026-04-18T08:46:22Z</time></trkpt><trkpt lat="47.69316173781873" lon="11.956766968122443"><ele>767.0</ele><time>2026-04-18T08:46:23Z</time></trkpt><trkpt lat="47.69327112386195" lon="11.956454736296408"><ele>767.0</ele><time>2026-04-18T08:46:24Z</time></trkpt><trkpt lat="47.69339428519769" lon="11.956101028267812"><ele>767.0</ele><time>2026-04-18T08:46:25Z</time></trkpt><trkpt lat="47.69351718167288" lon="11.955745180378747"><ele>765.5</ele><time>2026-04-18T08:46:26Z</time></trkpt><trkpt lat="47.69363173474388" lon="11.955415183949773"><ele>764.0</ele><time>2026-04-18T08:46:27Z</time></trkpt><trkpt lat="47.69373932202135" lon="11.955104037666963"><ele>764.3333333333333</ele><time>2026-04-18T08:46:28Z</time></trkpt><trkpt lat="47.69383695470566" lon="11.954830984549742"><ele>764.6666666666666</ele><time>2026-04-18T08:46:29Z</time></trkpt><trkpt lat="47.693929184968816" lon="11.954573298004519"><ele>765.0</ele><time>2026-04-18T08:46:30Z</time></trkpt><trkpt lat="47.694017721026036" lon="11.954329896479688"><ele>764.6666666666666</ele><time>2026-04-18T08:46:31Z</time></trkpt><trkpt lat="47.6941052622684" lon="11.954086952753805"><ele>764.3333333333333</ele><time>2026-04-18T08:46:32Z</time></trkpt><trkpt lat="47.694192071506805" lon="11.953841667268888"><ele>764.0</ele><time>2026-04-18T08:46:33Z</time></trkpt><trkpt lat="47.69427861496704" lon="11.953590535007704"><ele>763.3333333333333</ele><time>2026-04-18T08:46:34Z</time></trkpt><trkpt lat="47.694364682050015" lon="11.953344625119744"><ele>762.6666666666666</ele><time>2026-04-18T08:46:35Z</time></trkpt><trkpt lat="47.69445070125069" lon="11.953105675454626"><ele>762.0</ele><time>2026-04-18T08:46:36Z</time></trkpt><trkpt lat="47.694538008520304" lon="11.95286689017548"><ele>763.3333333333334</ele><time>2026-04-18T08:46:37Z</time></trkpt><trkpt lat="47.69462561146454" lon="11.952621732694157"><ele>764.6666666666667</ele><time>2026-04-18T08:46:38Z</time></trkpt><trkpt lat="47.694714267298366" lon="11.952371567891186"><ele>766.0</ele><time>2026-04-18T08:46:39Z</time></trkpt><trkpt lat="47.694801602904654" lon="11.952121088330744"><ele>766.0</ele><time>2026-04-18T08:46:40Z</time></trkpt><trkpt lat="47.694881728786626" lon="11.95188741945684"><ele>766.0</ele><time>2026-04-18T08:46:41Z</time></trkpt><trkpt lat="47.694959278522276" lon="11.951663870107746"><ele>766.0</ele><time>2026-04-18T08:46:42Z</time></trkpt><trkpt lat="47.69503703000573" lon="11.951446922073272"><ele>765.6666666666667</ele><time>2026-04-18T08:46:43Z</time></trkpt><trkpt lat="47.69511661721505" lon="11.951230004871995"><ele>765.3333333333334</ele><time>2026-04-18T08:46:44Z</time></trkpt><trkpt lat="47.6951953284097" lon="11.951014165663402"><ele>765.0</ele><time>2026-04-18T08:46:45Z</time></trkpt><trkpt lat="47.69527543695885" lon="11.950792000310559"><ele>765.0</ele><time>2026-04-18T08:46:46Z</time></trkpt><trkpt lat="47.695363936280785" lon="11.950551767383054"><ele>765.0</ele><time>2026-04-18T08:46:47Z</time></trkpt><trkpt lat="47.69545986486185" lon="11.950296898989535"><ele>765.0</ele><time>2026-04-18T08:46:48Z</time></trkpt><trkpt lat="47.69555974765589" lon="11.950039756079713"><ele>765.0</ele><time>2026-04-18T08:46:49Z</time></trkpt><trkpt lat="47.695664644379114" lon="11.94978016206505"><ele>765.0</ele><time>2026-04-18T08:46:50Z</time></trkpt><trkpt lat="47.69577111561669" lon="11.949536980983474"><ele>765.0</ele><time>2026-04-18T08:46:51Z</time></trkpt><trkpt lat="47.69587660564525" lon="11.949307281264101"><ele>765.0</ele><time>2026-04-18T08:46:52Z</time></trkpt><trkpt lat="47.69598453665485" lon="11.949075682733705"><ele>765.0</ele><time>2026-04-18T08:46:53Z</time></trkpt><trkpt lat="47.696100436636904" lon="11.948837688267623"><ele>765.0</ele><time>2026-04-18T08:46:54Z</time></trkpt><trkpt lat="47.69621883103058" lon="11.948600187823677"><ele>765.3333333333334</ele><time>2026-04-18T08:46:55Z</time></trkpt><trkpt lat="47.69634870091359" lon="11.948348680752057"><ele>765.6666666666667</ele><time>2026-04-18T08:46:56Z</time></trkpt><trkpt lat="47.6964783960631" lon="11.94810265049557"><ele>766.0</ele><time>2026-04-18T08:46:57Z</time></trkpt><trkpt lat="47.69660725062151" lon="11.94785659306759"><ele>766.0</ele><time>2026-04-18T08:46:58Z</time></trkpt><trkpt lat="47.69673992364762" lon="11.947602306661633"><ele>766.0</ele><time>2026-04-18T08:46:59Z</time></trkpt><trkpt lat="47.69688027430365" lon="11.947330771017294"><ele>766.0</ele><time>2026-04-18T08:47:00Z</time></trkpt><trkpt lat="47.69702534027469" lon="11.947050076870338"><ele>763.5</ele><time>2026-04-18T08:47:01Z</time></trkpt><trkpt lat="47.69716569807618" lon="11.946779288258945"><ele>761.0</ele><time>2026-04-18T08:47:02Z</time></trkpt><trkpt lat="47.69730955924573" lon="11.946507541824449"><ele>761.0</ele><time>2026-04-18T08:47:03Z</time></trkpt><trkpt lat="47.69745267895681" lon="11.946236740892509"><ele>761.0</ele><time>2026-04-18T08:47:04Z</time></trkpt><trkpt lat="47.697585845494515" lon="11.945982130632629"><ele>761.0</ele><time>2026-04-18T08:47:05Z</time></trkpt><trkpt lat="47.6977155025112" lon="11.945732476464004"><ele>761.0</ele><time>2026-04-18T08:47:06Z</time></trkpt><trkpt lat="47.697842854581545" lon="11.94548632556915"><ele>761.0</ele><time>2026-04-18T08:47:07Z</time></trkpt><trkpt lat="47.697967489924544" lon="11.945245769313658"><ele>761.0</ele><time>2026-04-18T08:47:08Z</time></trkpt><trkpt lat="47.698089272043305" lon="11.945011158035499"><ele>761.0</ele><time>2026-04-18T08:47:09Z</time></trkpt><trkpt lat="47.69821048336681" lon="11.944775430849964"><ele>761.0</ele><time>2026-04-18T08:47:10Z</time></trkpt><trkpt lat="47.6983339288733" lon="11.944529114874"><ele>761.0</ele><time>2026-04-18T08:47:11Z</time></trkpt><trkpt lat="47.69845687122251" lon="11.94426968047898"><ele>761.6666666666666</ele><time>2026-04-18T08:47:12Z</time></trkpt><trkpt lat="47.69857491918886" lon="11.944000616671193"><ele>762.3333333333334</ele><time>2026-04-18T08:47:13Z</time></trkpt><trkpt lat="47.6986867792779" lon="11.943731786145932"><ele>763.0</ele><time>2026-04-18T08:47:14Z</time></trkpt><trkpt lat="47.698796763238036" lon="11.94346354059763"><ele>762.0</ele><time>2026-04-18T08:47:14.999Z</time></trkpt><trkpt lat="47.698906296898535" lon="11.943187787074034"><ele>761.0</ele><time>2026-04-18T08:47:15.999Z</time></trkpt><trkpt lat="47.69900694266768" lon="11.94291595295553"><ele>760.0</ele><time>2026-04-18T08:47:16.999Z</time></trkpt><trkpt lat="47.699101748660944" lon="11.942652000348673"><ele>760.6666666666667</ele><time>2026-04-18T08:47:17.999Z</time></trkpt><trkpt lat="47.699191456513226" lon="11.94238813324263"><ele>761.3333333333334</ele><time>2026-04-18T08:47:18.999Z</time></trkpt><trkpt lat="47.69927881895139" lon="11.942118273465763"><ele>762.0</ele><time>2026-04-18T08:47:19.999Z</time></trkpt><trkpt lat="47.69936218214966" lon="11.941841691321542"><ele>761.0</ele><time>2026-04-18T08:47:20.999Z</time></trkpt><trkpt lat="47.699438919414504" lon="11.941576706610753"><ele>760.0</ele><time>2026-04-18T08:47:21.999Z</time></trkpt><trkpt lat="47.699509902927694" lon="11.941319343009997"><ele>759.0</ele><time>2026-04-18T08:47:22.999Z</time></trkpt><trkpt lat="47.69958156326975" lon="11.941057017129774"><ele>759.0</ele><time>2026-04-18T08:47:23.999Z</time></trkpt><trkpt lat="47.699656028240575" lon="11.94078175056587"><ele>759.0</ele><time>2026-04-18T08:47:24.999Z</time></trkpt><trkpt lat="47.699724889606266" lon="11.94049298221928"><ele>759.0</ele><time>2026-04-18T08:47:25.999Z</time></trkpt><trkpt lat="47.69978873000513" lon="11.940208443516397"><ele>759.3333333333334</ele><time>2026-04-18T08:47:26.999Z</time></trkpt><trkpt lat="47.6998433163051" lon="11.939944835629438"><ele>759.6666666666667</ele><time>2026-04-18T08:47:27.999Z</time></trkpt><trkpt lat="47.69989424000543" lon="11.939689229284063"><ele>760.0</ele><time>2026-04-18T08:47:28.999Z</time></trkpt><trkpt lat="47.69994159742735" lon="11.93943911786007"><ele>760.3333333333334</ele><time>2026-04-18T08:47:29.999Z</time></trkpt><trkpt lat="47.699985917442454" lon="11.939187488101902"><ele>760.6666666666666</ele><time>2026-04-18T08:47:30.999Z</time></trkpt><trkpt lat="47.70002620772752" lon="11.938934209622287"><ele>761.0</ele><time>2026-04-18T08:47:31.999Z</time></trkpt><trkpt lat="47.700066797633085" lon="11.9386806892998"><ele>761.0</ele><time>2026-04-18T08:47:32.999Z</time></trkpt><trkpt lat="47.70010818519836" lon="11.938431011792808"><ele>761.0</ele><time>2026-04-18T08:47:33.999Z</time></trkpt><trkpt lat="47.70015141382513" lon="11.93817951254648"><ele>761.0</ele><time>2026-04-18T08:47:34.999Z</time></trkpt><trkpt lat="47.70019636667946" lon="11.937921675257991"><ele>761.0</ele><time>2026-04-18T08:47:35.999Z</time></trkpt><trkpt lat="47.70024312758624" lon="11.937656766606993"><ele>761.0</ele><time>2026-04-18T08:47:36.999Z</time></trkpt><trkpt lat="47.700287370838495" lon="11.93736790211064"><ele>761.0</ele><time>2026-04-18T08:47:37.999Z</time></trkpt><trkpt lat="47.70033074646763" lon="11.937064731825078"><ele>761.0</ele><time>2026-04-18T08:47:38.999Z</time></trkpt><trkpt lat="47.70037910142577" lon="11.936773302683312"><ele>761.0</ele><time>2026-04-18T08:47:39.999Z</time></trkpt><trkpt lat="47.700425564942556" lon="11.936485440216792"><ele>761.0</ele><time>2026-04-18T08:47:40.999Z</time></trkpt><trkpt lat="47.700468800046366" lon="11.93620286612163"><ele>761.0</ele><time>2026-04-18T08:47:41.999Z</time></trkpt><trkpt lat="47.700515762393145" lon="11.935923422288745"><ele>761.0</ele><time>2026-04-18T08:47:42.999Z</time></trkpt><trkpt lat="47.70056296434637" lon="11.935640215784797"><ele>761.0</ele><time>2026-04-18T08:47:43.999Z</time></trkpt><trkpt lat="47.70060705376379" lon="11.935355787822811"><ele>760.3333333333333</ele><time>2026-04-18T08:47:44.999Z</time></trkpt><trkpt lat="47.70064909520919" lon="11.935092546652335"><ele>759.6666666666666</ele><time>2026-04-18T08:47:45.999Z</time></trkpt><trkpt lat="47.70069099060608" lon="11.93483847639359"><ele>759.0</ele><time>2026-04-18T08:47:46.999Z</time></trkpt><trkpt lat="47.70073392397238" lon="11.934580744736602"><ele>758.6666666666666</ele><time>2026-04-18T08:47:47.999Z</time></trkpt><trkpt lat="47.7007771240963" lon="11.93431828671552"><ele>758.3333333333333</ele><time>2026-04-18T08:47:48.999Z</time></trkpt><trkpt lat="47.70082099794014" lon="11.934044259807175"><ele>758.0</ele><time>2026-04-18T08:47:49.999Z</time></trkpt><trkpt lat="47.70086654602966" lon="11.93375569724167"><ele>759.0</ele><time>2026-04-18T08:47:50.999Z</time></trkpt><trkpt lat="47.700911785400244" lon="11.93345800423289"><ele>760.0</ele><time>2026-04-18T08:47:51.999Z</time></trkpt><trkpt lat="47.700959056761185" lon="11.933151102615657"><ele>761.0</ele><time>2026-04-18T08:47:52.999Z</time></trkpt><trkpt lat="47.701005554417684" lon="11.932874480627238"><ele>761.3333333333333</ele><time>2026-04-18T08:47:53.999Z</time></trkpt><trkpt lat="47.70105130848179" lon="11.932616360329952"><ele>761.6666666666666</ele><time>2026-04-18T08:47:54.999Z</time></trkpt><trkpt lat="47.70109554733166" lon="11.932355594421788"><ele>762.0</ele><time>2026-04-18T08:47:55.999Z</time></trkpt><trkpt lat="47.701141406406975" lon="11.932088478513885"><ele>763.3333333333334</ele><time>2026-04-18T08:47:56.999Z</time></trkpt><trkpt lat="47.70119276824546" lon="11.931832504611338"><ele>764.6666666666667</ele><time>2026-04-18T08:47:57.999Z</time></trkpt><trkpt lat="47.701248764192215" lon="11.931580558568582"><ele>766.0</ele><time>2026-04-18T08:47:58.999Z</time></trkpt><trkpt lat="47.701311864456194" lon="11.931325962472865"><ele>766.6666666666667</ele><time>2026-04-18T08:47:59.999Z</time></trkpt><trkpt lat="47.7013811817551" lon="11.931078630178282"><ele>767.3333333333334</ele><time>2026-04-18T08:48:00.999Z</time></trkpt><trkpt lat="47.7014529438475" lon="11.930837631305536"><ele>768.0</ele><time>2026-04-18T08:48:01.999Z</time></trkpt><trkpt lat="47.70152991197021" lon="11.930590161055372"><ele>768.0</ele><time>2026-04-18T08:48:02.999Z</time></trkpt><trkpt lat="47.7016128887152" lon="11.93033316309689"><ele>768.0</ele><time>2026-04-18T08:48:03.999Z</time></trkpt><trkpt lat="47.701693774309504" lon="11.930075983362254"><ele>768.0</ele><time>2026-04-18T08:48:04.999Z</time></trkpt><trkpt lat="47.70177377320816" lon="11.929814716160923"><ele>768.0</ele><time>2026-04-18T08:48:05.999Z</time></trkpt><trkpt lat="47.701861006856674" lon="11.929551565444354"><ele>768.0</ele><time>2026-04-18T08:48:07Z</time></trkpt><trkpt lat="47.70195265438825" lon="11.929289753159615"><ele>768.0</ele><time>2026-04-18T08:48:08Z</time></trkpt><trkpt lat="47.702044479244634" lon="11.92902528957948"><ele>769.0</ele><time>2026-04-18T08:48:09Z</time></trkpt><trkpt lat="47.702135854803736" lon="11.928756222345234"><ele>770.0</ele><time>2026-04-18T08:48:10Z</time></trkpt><trkpt lat="47.70222715387465" lon="11.928488323667684"><ele>771.0</ele><time>2026-04-18T08:48:11Z</time></trkpt><trkpt lat="47.70231078982249" lon="11.92824349307986"><ele>772.3333333333333</ele><time>2026-04-18T08:48:12Z</time></trkpt><trkpt lat="47.70238893332972" lon="11.92801093357796"><ele>773.6666666666666</ele><time>2026-04-18T08:48:13Z</time></trkpt><trkpt lat="47.70246131939377" lon="11.927787813914437"><ele>775.0</ele><time>2026-04-18T08:48:14Z</time></trkpt><trkpt lat="47.702526895475884" lon="11.927579013733478"><ele>775.6666666666666</ele><time>2026-04-18T08:48:15Z</time></trkpt><trkpt lat="47.702590921033554" lon="11.927374321802562"><ele>776.3333333333333</ele><time>2026-04-18T08:48:16Z</time></trkpt><trkpt lat="47.702657743658044" lon="11.927155489331591"><ele>777.0</ele><time>2026-04-18T08:48:17Z</time></trkpt><trkpt lat="47.70272061731397" lon="11.926921870821173"><ele>774.6666666666667</ele><time>2026-04-18T08:48:18Z</time></trkpt><trkpt lat="47.70277496263845" lon="11.926698622362272"><ele>772.3333333333334</ele><time>2026-04-18T08:48:19Z</time></trkpt><trkpt lat="47.70282667689336" lon="11.926477418978676"><ele>770.0</ele><time>2026-04-18T08:48:20Z</time></trkpt><trkpt lat="47.702873157949774" lon="11.926270309222781"><ele>770.0</ele><time>2026-04-18T08:48:21Z</time></trkpt><trkpt lat="47.70291215283025" lon="11.926078942067065"><ele>770.0</ele><time>2026-04-18T08:48:22Z</time></trkpt><trkpt lat="47.702947771660924" lon="11.925899906508091"><ele>770.0</ele><time>2026-04-18T08:48:23Z</time></trkpt><trkpt lat="47.702981940468774" lon="11.92572547231031"><ele>770.0</ele><time>2026-04-18T08:48:24Z</time></trkpt><trkpt lat="47.70301525201925" lon="11.925556324014517"><ele>770.5</ele><time>2026-04-18T08:48:25Z</time></trkpt><trkpt lat="47.703053516465026" lon="11.925383950284846"><ele>771.0</ele><time>2026-04-18T08:48:26Z</time></trkpt><trkpt lat="47.70308798675991" lon="11.925191897660353"><ele>771.5</ele><time>2026-04-18T08:48:27Z</time></trkpt><trkpt lat="47.70312347287453" lon="11.924999994410427"><ele>772.0</ele><time>2026-04-18T08:48:28Z</time></trkpt><trkpt lat="47.70315630304702" lon="11.924818203976923"><ele>772.5</ele><time>2026-04-18T08:48:29Z</time></trkpt><trkpt lat="47.703187793661264" lon="11.92464333615105"><ele>773.0</ele><time>2026-04-18T08:48:30Z</time></trkpt><trkpt lat="47.70322106277671" lon="11.92447676427376"><ele>773.5</ele><time>2026-04-18T08:48:31Z</time></trkpt><trkpt lat="47.70325249945773" lon="11.92430827319629"><ele>774.0</ele><time>2026-04-18T08:48:32Z</time></trkpt><trkpt lat="47.70328203969356" lon="11.924135772914648"><ele>774.25</ele><time>2026-04-18T08:48:33Z</time></trkpt><trkpt lat="47.703320217219094" lon="11.92396308010814"><ele>774.5</ele><time>2026-04-18T08:48:34Z</time></trkpt><trkpt lat="47.703356043586965" lon="11.923779269104372"><ele>774.75</ele><time>2026-04-18T08:48:35Z</time></trkpt><trkpt lat="47.70338771205575" lon="11.923595591695618"><ele>775.0</ele><time>2026-04-18T08:48:36Z</time></trkpt><trkpt lat="47.70341854061661" lon="11.923407452321404"><ele>775.25</ele><time>2026-04-18T08:48:37Z</time></trkpt><trkpt lat="47.70344909490602" lon="11.923229930461323"><ele>775.5</ele><time>2026-04-18T08:48:38Z</time></trkpt><trkpt lat="47.703481334508915" lon="11.923066599536474"><ele>775.75</ele><time>2026-04-18T08:48:39Z</time></trkpt><trkpt lat="47.703514090700864" lon="11.922911386321477"><ele>776.0</ele><time>2026-04-18T08:48:40Z</time></trkpt><trkpt lat="47.70354854397606" lon="11.922759612455886"><ele>775.0</ele><time>2026-04-18T08:48:41Z</time></trkpt><trkpt lat="47.70359045191509" lon="11.922605679143366"><ele>774.0</ele><time>2026-04-18T08:48:42Z</time></trkpt><trkpt lat="47.703635862017634" lon="11.922457959297116"><ele>773.0</ele><time>2026-04-18T08:48:43Z</time></trkpt><trkpt lat="47.70368362107347" lon="11.922314043182544"><ele>772.0</ele><time>2026-04-18T08:48:44Z</time></trkpt><trkpt lat="47.703742671807504" lon="11.922145557253891"><ele>772.0</ele><time>2026-04-18T08:48:45Z</time></trkpt><trkpt lat="47.70381823839874" lon="11.921955487628686"><ele>772.0</ele><time>2026-04-18T08:48:46Z</time></trkpt><trkpt lat="47.7039119381535" lon="11.92175807209776"><ele>772.0</ele><time>2026-04-18T08:48:47Z</time></trkpt><trkpt lat="47.70400790163225" lon="11.921569698081738"><ele>771.6666666666666</ele><time>2026-04-18T08:48:48Z</time></trkpt><trkpt lat="47.70410208298307" lon="11.921386352637313"><ele>771.3333333333333</ele><time>2026-04-18T08:48:49Z</time></trkpt><trkpt lat="47.70420043422804" lon="11.921193544136797"><ele>771.0</ele><time>2026-04-18T08:48:50Z</time></trkpt><trkpt lat="47.70429925405547" lon="11.920997415227985"><ele>770.6666666666667</ele><time>2026-04-18T08:48:51Z</time></trkpt><trkpt lat="47.70440180067596" lon="11.9207986993453"><ele>770.3333333333334</ele><time>2026-04-18T08:48:52Z</time></trkpt><trkpt lat="47.704504415863695" lon="11.920596382643698"><ele>770.0</ele><time>2026-04-18T08:48:53Z</time></trkpt><trkpt lat="47.70460386618362" lon="11.920394643275072"><ele>772.3333333333334</ele><time>2026-04-18T08:48:54Z</time></trkpt><trkpt lat="47.704697991954056" lon="11.92019302300436"><ele>774.6666666666667</ele><time>2026-04-18T08:48:55Z</time></trkpt><trkpt lat="47.70478800923101" lon="11.919996600428075"><ele>777.0</ele><time>2026-04-18T08:48:56Z</time></trkpt><trkpt lat="47.70486835547311" lon="11.919805991186712"><ele>777.0</ele><time>2026-04-18T08:48:57Z</time></trkpt><trkpt lat="47.7049418549761" lon="11.919600745555403"><ele>777.0</ele><time>2026-04-18T08:48:58Z</time></trkpt><trkpt lat="47.70501884122519" lon="11.91938583959913"><ele>777.0</ele><time>2026-04-18T08:48:59Z</time></trkpt><trkpt lat="47.705100108882164" lon="11.919163307564089"><ele>776.3333333333333</ele><time>2026-04-18T08:49:00Z</time></trkpt><trkpt lat="47.70518002009876" lon="11.918935389990907"><ele>775.6666666666666</ele><time>2026-04-18T08:49:01Z</time></trkpt><trkpt lat="47.705250847997014" lon="11.918706620556613"><ele>775.0</ele><time>2026-04-18T08:49:02Z</time></trkpt><trkpt lat="47.70531826595347" lon="11.918478077918952"><ele>779.0</ele><time>2026-04-18T08:49:03Z</time></trkpt><trkpt lat="47.705385319181815" lon="11.918247889870097"><ele>783.0</ele><time>2026-04-18T08:49:04Z</time></trkpt><trkpt lat="47.70544845686084" lon="11.918015915848063"><ele>787.0</ele><time>2026-04-18T08:49:05Z</time></trkpt><trkpt lat="47.705505073038495" lon="11.917780703084727"><ele>784.0</ele><time>2026-04-18T08:49:06Z</time></trkpt><trkpt lat="47.705558896613354" lon="11.917542811002129"><ele>781.0</ele><time>2026-04-18T08:49:07Z</time></trkpt><trkpt lat="47.705605352040564" lon="11.917300871509788"><ele>778.0</ele><time>2026-04-18T08:49:08Z</time></trkpt><trkpt lat="47.70564490554403" lon="11.917056426712792"><ele>778.0</ele><time>2026-04-18T08:49:09Z</time></trkpt><trkpt lat="47.70568463841753" lon="11.916807127265981"><ele>778.0</ele><time>2026-04-18T08:49:10Z</time></trkpt><trkpt lat="47.705719932233116" lon="11.916554160277604"><ele>778.0</ele><time>2026-04-18T08:49:11Z</time></trkpt><trkpt lat="47.70574960419992" lon="11.91630248163126"><ele>778.0</ele><time>2026-04-18T08:49:12Z</time></trkpt><trkpt lat="47.7057752924745" lon="11.916059050327341"><ele>778.0</ele><time>2026-04-18T08:49:13Z</time></trkpt><trkpt lat="47.70579653994191" lon="11.91581269674673"><ele>778.0</ele><time>2026-04-18T08:49:14Z</time></trkpt><trkpt lat="47.70581246538929" lon="11.915534934030868"><ele>778.0</ele><time>2026-04-18T08:49:15Z</time></trkpt><trkpt lat="47.705827167699375" lon="11.915241011806826"><ele>778.0</ele><time>2026-04-18T08:49:16Z</time></trkpt><trkpt lat="47.70583821003135" lon="11.914969135964318"><ele>778.0</ele><time>2026-04-18T08:49:17Z</time></trkpt><trkpt lat="47.705844809407154" lon="11.914713328438172"><ele>777.6666666666666</ele><time>2026-04-18T08:49:18Z</time></trkpt><trkpt lat="47.70584263487922" lon="11.914451691824897"><ele>777.3333333333333</ele><time>2026-04-18T08:49:19Z</time></trkpt><trkpt lat="47.705830673010695" lon="11.91417650708318"><ele>777.0</ele><time>2026-04-18T08:49:20Z</time></trkpt><trkpt lat="47.705814702895566" lon="11.913901203433895"><ele>776.6666666666667</ele><time>2026-04-18T08:49:21Z</time></trkpt><trkpt lat="47.70579444464919" lon="11.913626719011384"><ele>776.3333333333334</ele><time>2026-04-18T08:49:22Z</time></trkpt><trkpt lat="47.705770353948104" lon="11.91333685461738"><ele>776.0</ele><time>2026-04-18T08:49:23Z</time></trkpt><trkpt lat="47.70573772809338" lon="11.913021086961287"><ele>776.0</ele><time>2026-04-18T08:49:24Z</time></trkpt><trkpt lat="47.705696764247975" lon="11.91273342467529"><ele>776.0</ele><time>2026-04-18T08:49:25Z</time></trkpt><trkpt lat="47.70564957122594" lon="11.912448655598084"><ele>776.0</ele><time>2026-04-18T08:49:26Z</time></trkpt><trkpt lat="47.70559866845955" lon="11.912169823461253"><ele>775.6666666666667</ele><time>2026-04-18T08:49:27Z</time></trkpt><trkpt lat="47.7055391553828" lon="11.91188998403178"><ele>775.3333333333333</ele><time>2026-04-18T08:49:28Z</time></trkpt><trkpt lat="47.70547054141328" lon="11.911604823167396"><ele>775.0</ele><time>2026-04-18T08:49:29Z</time></trkpt><trkpt lat="47.70540193125686" lon="11.911316683970941"><ele>775.0</ele><time>2026-04-18T08:49:30Z</time></trkpt><trkpt lat="47.70533051802008" lon="11.911020058384603"><ele>775.0</ele><time>2026-04-18T08:49:31Z</time></trkpt><trkpt lat="47.70525545170129" lon="11.910716616053916"><ele>775.0</ele><time>2026-04-18T08:49:32Z</time></trkpt><trkpt lat="47.70518526254936" lon="11.910433717175605"><ele>774.0</ele><time>2026-04-18T08:49:33Z</time></trkpt><trkpt lat="47.70512042691716" lon="11.910164558451546"><ele>773.0</ele><time>2026-04-18T08:49:34Z</time></trkpt><trkpt lat="47.70505087138465" lon="11.909892889060984"><ele>772.0</ele><time>2026-04-18T08:49:35Z</time></trkpt><trkpt lat="47.70498162802508" lon="11.90961698975445"><ele>772.0</ele><time>2026-04-18T08:49:36Z</time></trkpt><trkpt lat="47.7049188949139" lon="11.909332184034978"><ele>772.0</ele><time>2026-04-18T08:49:37Z</time></trkpt><trkpt lat="47.70486529602192" lon="11.909038344242225"><ele>772.0</ele><time>2026-04-18T08:49:38Z</time></trkpt><trkpt lat="47.7048239527721" lon="11.908740180927127"><ele>773.0</ele><time>2026-04-18T08:49:39Z</time></trkpt><trkpt lat="47.70479028335622" lon="11.908441264920645"><ele>774.0</ele><time>2026-04-18T08:49:40Z</time></trkpt><trkpt lat="47.7047660886726" lon="11.908144931253881"><ele>775.0</ele><time>2026-04-18T08:49:41Z</time></trkpt><trkpt lat="47.704749942823035" lon="11.907865841703604"><ele>775.6666666666666</ele><time>2026-04-18T08:49:42Z</time></trkpt><trkpt lat="47.70474197605336" lon="11.907590857455402"><ele>776.3333333333333</ele><time>2026-04-18T08:49:43Z</time></trkpt><trkpt lat="47.70474311625312" lon="11.907305288870472"><ele>777.0</ele><time>2026-04-18T08:49:44Z</time></trkpt><trkpt lat="47.704750521677525" lon="11.907013329976346"><ele>776.3333333333333</ele><time>2026-04-18T08:49:45Z</time></trkpt><trkpt lat="47.704756917571984" lon="11.906714378872687"><ele>775.6666666666666</ele><time>2026-04-18T08:49:46Z</time></trkpt><trkpt lat="47.70476536387729" lon="11.906406928545977"><ele>775.0</ele><time>2026-04-18T08:49:47Z</time></trkpt><trkpt lat="47.70477497274234" lon="11.906096232425684"><ele>775.3333333333333</ele><time>2026-04-18T08:49:48Z</time></trkpt><trkpt lat="47.70478124840182" lon="11.905800768529952"><ele>775.6666666666667</ele><time>2026-04-18T08:49:49Z</time></trkpt><trkpt lat="47.704784603498844" lon="11.905513853188735"><ele>776.0</ele><time>2026-04-18T08:49:50Z</time></trkpt><trkpt lat="47.704784213077055" lon="11.905223022344716"><ele>776.3333333333334</ele><time>2026-04-18T08:49:51Z</time></trkpt><trkpt lat="47.70476994382398" lon="11.90492216664774"><ele>776.6666666666667</ele><time>2026-04-18T08:49:52Z</time></trkpt><trkpt lat="47.70473842532559" lon="11.904608617940351"><ele>777.0</ele><time>2026-04-18T08:49:53Z</time></trkpt><trkpt lat="47.70469827700599" lon="11.90428874046958"><ele>777.3333333333333</ele><time>2026-04-18T08:49:54Z</time></trkpt><trkpt lat="47.704649518430664" lon="11.90397952888107"><ele>777.6666666666666</ele><time>2026-04-18T08:49:55Z</time></trkpt><trkpt lat="47.70460048898893" lon="11.903675579313353"><ele>778.0</ele><time>2026-04-18T08:49:56Z</time></trkpt><trkpt lat="47.70455290221221" lon="11.903359162945828"><ele>779.0</ele><time>2026-04-18T08:49:57Z</time></trkpt><trkpt lat="47.704498981887944" lon="11.903020149620838"><ele>780.0</ele><time>2026-04-18T08:49:58Z</time></trkpt><trkpt lat="47.70444365115245" lon="11.902660838147007"><ele>777.5</ele><time>2026-04-18T08:49:59Z</time></trkpt><trkpt lat="47.704391847044946" lon="11.902324605365967"><ele>775.0</ele><time>2026-04-18T08:50:00Z</time></trkpt><trkpt lat="47.704343261417456" lon="11.902007915622592"><ele>775.3333333333333</ele><time>2026-04-18T08:50:01Z</time></trkpt><trkpt lat="47.70429464273341" lon="11.901691515362124"><ele>775.6666666666667</ele><time>2026-04-18T08:50:02Z</time></trkpt><trkpt lat="47.70424484880194" lon="11.901374311948675"><ele>776.0</ele><time>2026-04-18T08:50:03Z</time></trkpt><trkpt lat="47.704194435811644" lon="11.901053348844652"><ele>777.0</ele><time>2026-04-18T08:50:04Z</time></trkpt><trkpt lat="47.70414076435832" lon="11.900715526123985"><ele>778.0</ele><time>2026-04-18T08:50:05Z</time></trkpt><trkpt lat="47.70408791095179" lon="11.900387341745814"><ele>778.6666666666666</ele><time>2026-04-18T08:50:06Z</time></trkpt><trkpt lat="47.70403880280888" lon="11.900081884079237"><ele>779.3333333333333</ele><time>2026-04-18T08:50:07Z</time></trkpt><trkpt lat="47.703992176942236" lon="11.899789820332568"><ele>780.0</ele><time>2026-04-18T08:50:08Z</time></trkpt><trkpt lat="47.70394787152128" lon="11.899507749323408"><ele>780.0</ele><time>2026-04-18T08:50:09Z</time></trkpt><trkpt lat="47.703904502681354" lon="11.899231629450517"><ele>780.0</ele><time>2026-04-18T08:50:10Z</time></trkpt><trkpt lat="47.70386247048486" lon="11.898965454344241"><ele>780.0</ele><time>2026-04-18T08:50:11Z</time></trkpt><trkpt lat="47.70382309485919" lon="11.898707722989084"><ele>780.0</ele><time>2026-04-18T08:50:12Z</time></trkpt><trkpt lat="47.7037815254413" lon="11.898454388535225"><ele>780.0</ele><time>2026-04-18T08:50:13Z</time></trkpt><trkpt lat="47.70374063699913" lon="11.89821130730046"><ele>780.0</ele><time>2026-04-18T08:50:14Z</time></trkpt><trkpt lat="47.70370644618016" lon="11.8979912052724"><ele>780.0</ele><time>2026-04-18T08:50:15Z</time></trkpt><trkpt lat="47.70367659481866" lon="11.897802342813074"><ele>780.0</ele><time>2026-04-18T08:50:16Z</time></trkpt><trkpt lat="47.703647774111104" lon="11.897626909250203"><ele>780.0</ele><time>2026-04-18T08:50:17Z</time></trkpt><trkpt lat="47.70361934092518" lon="11.89745199395654"><ele>780.0</ele><time>2026-04-18T08:50:18Z</time></trkpt><trkpt lat="47.70358450309643" lon="11.897282310705695"><ele>778.6</ele><time>2026-04-18T08:50:19Z</time></trkpt><trkpt lat="47.70354673378352" lon="11.897114044881294"><ele>777.2</ele><time>2026-04-18T08:50:20Z</time></trkpt><trkpt lat="47.703521472096675" lon="11.896943219899919"><ele>775.8</ele><time>2026-04-18T08:50:21Z</time></trkpt><trkpt lat="47.70350016362301" lon="11.896782889227897"><ele>774.4</ele><time>2026-04-18T08:50:22Z</time></trkpt><trkpt lat="47.703477729624524" lon="11.89664214400938"><ele>773.0</ele><time>2026-04-18T08:50:23Z</time></trkpt><trkpt lat="47.703453787444886" lon="11.896513213320228"><ele>772.8333333333334</ele><time>2026-04-18T08:50:24Z</time></trkpt><trkpt lat="47.70343122436027" lon="11.896401964292513"><ele>772.6666666666667</ele><time>2026-04-18T08:50:25Z</time></trkpt><trkpt lat="47.7034137536305" lon="11.896311257377937"><ele>772.5</ele><time>2026-04-18T08:50:26Z</time></trkpt><trkpt lat="47.70339651653296" lon="11.896214536181171"><ele>772.3333333333333</ele><time>2026-04-18T08:50:28Z</time></trkpt><trkpt lat="47.70337375719717" lon="11.896103202581518"><ele>772.1666666666666</ele><time>2026-04-18T08:50:32Z</time></trkpt><trkpt lat="47.7033468404759" lon="11.895983627517822"><ele>772.0</ele><time>2026-04-18T08:50:36Z</time></trkpt><trkpt lat="47.703319425125464" lon="11.895847754096033"><ele>771.9999999999999</ele><time>2026-04-18T08:50:38Z</time></trkpt><trkpt lat="47.703265444406156" lon="11.895782960424613"><ele>772.0</ele><time>2026-04-18T08:50:39Z</time></trkpt><trkpt lat="47.70319089172967" lon="11.895775298345054"><ele>772.0</ele><time>2026-04-18T08:50:40Z</time></trkpt><trkpt lat="47.703119278397644" lon="11.895806761551775"><ele>772.0</ele><time>2026-04-18T08:50:41Z</time></trkpt><trkpt lat="47.703054655353554" lon="11.895861035278513"><ele>771.9999999999999</ele><time>2026-04-18T08:50:42Z</time></trkpt><trkpt lat="47.70298710799024" lon="11.895915714296557"><ele>772.0</ele><time>2026-04-18T08:50:43Z</time></trkpt><trkpt lat="47.702909457963266" lon="11.895964263020673"><ele>772.0</ele><time>2026-04-18T08:50:44Z</time></trkpt><trkpt lat="47.702828227103446" lon="11.896010268875603"><ele>772.0</ele><time>2026-04-18T08:50:45Z</time></trkpt><trkpt lat="47.70274947849555" lon="11.896057046028568"><ele>772.0</ele><time>2026-04-18T08:50:46Z</time></trkpt><trkpt lat="47.7026677447108" lon="11.896106448451267"><ele>772.0</ele><time>2026-04-18T08:50:47Z</time></trkpt><trkpt lat="47.70258159520041" lon="11.896158827211684"><ele>772.0</ele><time>2026-04-18T08:50:48Z</time></trkpt><trkpt lat="47.70248973347117" lon="11.896211781584467"><ele>772.9999999999999</ele><time>2026-04-18T08:50:49Z</time></trkpt><trkpt lat="47.70239747259715" lon="11.896268078079768"><ele>774.0</ele><time>2026-04-18T08:50:50Z</time></trkpt><trkpt lat="47.70231384649435" lon="11.896322839381325"><ele>775.0</ele><time>2026-04-18T08:50:50.999Z</time></trkpt><trkpt lat="47.70223588639152" lon="11.896372655918071"><ele>776.0</ele><time>2026-04-18T08:50:51.999Z</time></trkpt><trkpt lat="47.702159656771634" lon="11.896420594698156"><ele>776.9999999999999</ele><time>2026-04-18T08:50:52.999Z</time></trkpt><trkpt lat="47.70208691209178" lon="11.896467142892883"><ele>778.0</ele><time>2026-04-18T08:50:53.999Z</time></trkpt><trkpt lat="47.70201687927591" lon="11.896510838983176"><ele>777.9999999999999</ele><time>2026-04-18T08:50:54.999Z</time></trkpt><trkpt lat="47.701948707489876" lon="11.896552128591441"><ele>778.0</ele><time>2026-04-18T08:50:55.999Z</time></trkpt><trkpt lat="47.701876450576584" lon="11.896593855379509"><ele>778.0</ele><time>2026-04-18T08:50:56.999Z</time></trkpt><trkpt lat="47.70180362229777" lon="11.89664058406391"><ele>778.0</ele><time>2026-04-18T08:50:57.999Z</time></trkpt><trkpt lat="47.70172748789071" lon="11.896690115653987"><ele>777.9999999999999</ele><time>2026-04-18T08:50:58.999Z</time></trkpt><trkpt lat="47.70164796528253" lon="11.89673707187719"><ele>778.0</ele><time>2026-04-18T08:50:59.999Z</time></trkpt><trkpt lat="47.70157088932955" lon="11.896786506187944"><ele>780.8</ele><time>2026-04-18T08:51:00.999Z</time></trkpt><trkpt lat="47.70150453653522" lon="11.896828493739013"><ele>783.5999999999999</ele><time>2026-04-18T08:51:01.999Z</time></trkpt><trkpt lat="47.701398822565935" lon="11.896890891204992"><ele>786.4000000000001</ele><time>2026-04-18T08:51:03.999Z</time></trkpt><trkpt lat="47.701295531652185" lon="11.896961355126262"><ele>789.2</ele><time>2026-04-18T08:51:05.999Z</time></trkpt><trkpt lat="47.70117838096082" lon="11.897016065664852"><ele>792.0</ele><time>2026-04-18T08:51:07.999Z</time></trkpt><trkpt lat="47.70110263889648" lon="11.897046073273787"><ele>793.4000000000001</ele><time>2026-04-18T08:51:08.999Z</time></trkpt><trkpt lat="47.701027217954206" lon="11.897089516121529"><ele>794.8000000000001</ele><time>2026-04-18T08:51:09.999Z</time></trkpt><trkpt lat="47.70092680205026" lon="11.897158105967685"><ele>796.2</ele><time>2026-04-18T08:51:11.999Z</time></trkpt><trkpt lat="47.70084580352545" lon="11.897212336906783"><ele>797.6</ele><time>2026-04-18T08:51:13.999Z</time></trkpt><trkpt lat="47.700761290743564" lon="11.897277235732478"><ele>799.0</ele><time>2026-04-18T08:51:15.999Z</time></trkpt><trkpt lat="47.70067140209082" lon="11.897336603023621"><ele>798.9999999999999</ele><time>2026-04-18T08:51:17.999Z</time></trkpt><trkpt lat="47.700557675517885" lon="11.897404604563839"><ele>799.0</ele><time>2026-04-18T08:51:19.999Z</time></trkpt><trkpt lat="47.70049272544953" lon="11.897438048651393"><ele>799.0</ele><time>2026-04-18T08:51:20.999Z</time></trkpt><trkpt lat="47.70043170653501" lon="11.89747251326297"><ele>799.0</ele><time>2026-04-18T08:51:21.999Z</time></trkpt><trkpt lat="47.700369652431334" lon="11.897510053813022"><ele>798.9999999999999</ele><time>2026-04-18T08:51:22.999Z</time></trkpt><trkpt lat="47.70030863646459" lon="11.897547319407131"><ele>799.0</ele><time>2026-04-18T08:51:23.999Z</time></trkpt><trkpt lat="47.70023221049156" lon="11.897595796850087"><ele>801.5</ele><time>2026-04-18T08:51:24.999Z</time></trkpt><trkpt lat="47.700136736880175" lon="11.897653740450856"><ele>804.0</ele><time>2026-04-18T08:51:25.999Z</time></trkpt><trkpt lat="47.70003237943985" lon="11.897724637080044"><ele>806.5</ele><time>2026-04-18T08:51:26.999Z</time></trkpt><trkpt lat="47.69991878793889" lon="11.897807154233183"><ele>809.0</ele><time>2026-04-18T08:51:27.999Z</time></trkpt><trkpt lat="47.69977687987947" lon="11.89789572507986"><ele>809.0</ele><time>2026-04-18T08:51:28.999Z</time></trkpt><trkpt lat="47.69959956431345" lon="11.898000903174886"><ele>809.0</ele><time>2026-04-18T08:51:29.999Z</time></trkpt><trkpt lat="47.69941831941842" lon="11.898103342653222"><ele>809.0</ele><time>2026-04-18T08:51:30.999Z</time></trkpt><trkpt lat="47.69927056810218" lon="11.898192758392208"><ele>810.6666666666667</ele><time>2026-04-18T08:51:31.999Z</time></trkpt><trkpt lat="47.699127670173624" lon="11.898284146899764"><ele>812.3333333333333</ele><time>2026-04-18T08:51:32.999Z</time></trkpt><trkpt lat="47.69898752893657" lon="11.898383251773451"><ele>814.0</ele><time>2026-04-18T08:51:33.999Z</time></trkpt><trkpt lat="47.69884236471774" lon="11.898478260805563"><ele>817.3333333333333</ele><time>2026-04-18T08:51:34.999Z</time></trkpt><trkpt lat="47.69869639105662" lon="11.89855961550496"><ele>820.6666666666667</ele><time>2026-04-18T08:51:35.999Z</time></trkpt><trkpt lat="47.69855170696047" lon="11.898629681904497"><ele>824.0</ele><time>2026-04-18T08:51:36.999Z</time></trkpt><trkpt lat="47.6983976478846" lon="11.898692030924938"><ele>826.3333333333334</ele><time>2026-04-18T08:51:37.999Z</time></trkpt><trkpt lat="47.69824012623685" lon="11.898735216819082"><ele>828.6666666666667</ele><time>2026-04-18T08:51:38.999Z</time></trkpt><trkpt lat="47.698083887777216" lon="11.898761943755185"><ele>831.0</ele><time>2026-04-18T08:51:39.999Z</time></trkpt><trkpt lat="47.6979271541816" lon="11.898762896218921"><ele>831.0</ele><time>2026-04-18T08:51:40.999Z</time></trkpt><trkpt lat="47.69777217922255" lon="11.898751341027793"><ele>831.0</ele><time>2026-04-18T08:51:41.999Z</time></trkpt><trkpt lat="47.697620801707615" lon="11.898723921053392"><ele>831.0</ele><time>2026-04-18T08:51:42.999Z</time></trkpt><trkpt lat="47.697466764913315" lon="11.898683447721893"><ele>832.6666666666667</ele><time>2026-04-18T08:51:43.999Z</time></trkpt><trkpt lat="47.697305783626554" lon="11.898620906740904"><ele>834.3333333333334</ele><time>2026-04-18T08:51:44.999Z</time></trkpt><trkpt lat="47.697137746535084" lon="11.898530715276248"><ele>836.0</ele><time>2026-04-18T08:51:45.999Z</time></trkpt><trkpt lat="47.69697963452728" lon="11.898426648466977"><ele>837.5</ele><time>2026-04-18T08:51:46.999Z</time></trkpt><trkpt lat="47.696850464910725" lon="11.89832476054018"><ele>839.0</ele><time>2026-04-18T08:51:47.999Z</time></trkpt><trkpt lat="47.696738488224234" lon="11.898217958706013"><ele>840.5</ele><time>2026-04-18T08:51:48.999Z</time></trkpt><trkpt lat="47.696619456426205" lon="11.898088738646557"><ele>842.0</ele><time>2026-04-18T08:51:49.999Z</time></trkpt><trkpt lat="47.696497640079656" lon="11.897949299396156"><ele>842.0</ele><time>2026-04-18T08:51:50.999Z</time></trkpt><trkpt lat="47.696385341959385" lon="11.89779542228093"><ele>842.0</ele><time>2026-04-18T08:51:51.999Z</time></trkpt><trkpt lat="47.69628412462539" lon="11.897630140146122"><ele>842.0</ele><time>2026-04-18T08:51:52.999Z</time></trkpt><trkpt lat="47.69618382745527" lon="11.897466146265327"><ele>848.0</ele><time>2026-04-18T08:51:53.999Z</time></trkpt><trkpt lat="47.69608207826527" lon="11.897300389114633"><ele>854.0</ele><time>2026-04-18T08:51:54.999Z</time></trkpt><trkpt lat="47.6959671746156" lon="11.897114828953523"><ele>860.0</ele><time>2026-04-18T08:51:55.999Z</time></trkpt><trkpt lat="47.695838531478294" lon="11.896907016700892"><ele>853.0</ele><time>2026-04-18T08:51:56.999Z</time></trkpt><trkpt lat="47.69571258956075" lon="11.89669674095884"><ele>846.0</ele><time>2026-04-18T08:51:57.999Z</time></trkpt><trkpt lat="47.69559622176523" lon="11.89650595378877"><ele>839.0</ele><time>2026-04-18T08:51:58.999Z</time></trkpt><trkpt lat="47.69549158930039" lon="11.896340996144271"><ele>839.0</ele><time>2026-04-18T08:51:59.999Z</time></trkpt><trkpt lat="47.69539522446558" lon="11.896190215302555"><ele>839.0</ele><time>2026-04-18T08:52:00.999Z</time></trkpt><trkpt lat="47.69529236657616" lon="11.8960435751835"><ele>839.0</ele><time>2026-04-18T08:52:01.999Z</time></trkpt><trkpt lat="47.69518138151325" lon="11.895908440659753"><ele>839.0</ele><time>2026-04-18T08:52:02.999Z</time></trkpt><trkpt lat="47.69505506159642" lon="11.895782993691887"><ele>845.6666666666667</ele><time>2026-04-18T08:52:03.999Z</time></trkpt><trkpt lat="47.69491364935782" lon="11.895672369000213"><ele>852.3333333333333</ele><time>2026-04-18T08:52:04.999Z</time></trkpt><trkpt lat="47.69475865991113" lon="11.895582255940509"><ele>859.0</ele><time>2026-04-18T08:52:05.999Z</time></trkpt><trkpt lat="47.69459329695189" lon="11.895520829232709"><ele>859.0</ele><time>2026-04-18T08:52:06.999Z</time></trkpt><trkpt lat="47.69442539933828" lon="11.895487112503366"><ele>859.0</ele><time>2026-04-18T08:52:07.999Z</time></trkpt><trkpt lat="47.6942602034976" lon="11.895473390510373"><ele>859.0</ele><time>2026-04-18T08:52:08.999Z</time></trkpt><trkpt lat="47.694112003402516" lon="11.895461428472691"><ele>865.0</ele><time>2026-04-18T08:52:09.999Z</time></trkpt><trkpt lat="47.69398647498487" lon="11.895441472090969"><ele>871.0</ele><time>2026-04-18T08:52:10.999Z</time></trkpt><trkpt lat="47.69387443885256" lon="11.895412904447692"><ele>877.0</ele><time>2026-04-18T08:52:11.999Z</time></trkpt><trkpt lat="47.69376410854207" lon="11.895354393066537"><ele>883.0</ele><time>2026-04-18T08:52:12.999Z</time></trkpt><trkpt lat="47.69365642427058" lon="11.89526550153467"><ele>882.5</ele><time>2026-04-18T08:52:13.999Z</time></trkpt><trkpt lat="47.693554580216805" lon="11.895164519151853"><ele>882.0</ele><time>2026-04-18T08:52:14.999Z</time></trkpt><trkpt lat="47.69345456871091" lon="11.895058921728351"><ele>881.5</ele><time>2026-04-18T08:52:15.999Z</time></trkpt><trkpt lat="47.69333928123791" lon="11.894957261846082"><ele>881.0</ele><time>2026-04-18T08:52:16.999Z</time></trkpt><trkpt lat="47.69320157306932" lon="11.894875823602941"><ele>881.0</ele><time>2026-04-18T08:52:17.999Z</time></trkpt><trkpt lat="47.69306976582944" lon="11.894802142523828"><ele>881.0</ele><time>2026-04-18T08:52:18.999Z</time></trkpt><trkpt lat="47.69295112608638" lon="11.8947292044279"><ele>881.0</ele><time>2026-04-18T08:52:19.999Z</time></trkpt><trkpt lat="47.692830107940146" lon="11.894646482315858"><ele>881.0</ele><time>2026-04-18T08:52:21Z</time></trkpt><trkpt lat="47.69271481679628" lon="11.894541443215687"><ele>881.25</ele><time>2026-04-18T08:52:22Z</time></trkpt><trkpt lat="47.692610899559305" lon="11.89440690831077"><ele>881.5</ele><time>2026-04-18T08:52:23Z</time></trkpt><trkpt lat="47.692515392597834" lon="11.89427047188721"><ele>881.75</ele><time>2026-04-18T08:52:23.999Z</time></trkpt><trkpt lat="47.69242594264476" lon="11.894140764383632"><ele>882.0</ele><time>2026-04-18T08:52:24.999Z</time></trkpt><trkpt lat="47.692324910786645" lon="11.89401721498012"><ele>882.0</ele><time>2026-04-18T08:52:25.999Z</time></trkpt><trkpt lat="47.69219627055989" lon="11.89392534232456"><ele>882.0</ele><time>2026-04-18T08:52:26.999Z</time></trkpt><trkpt lat="47.692058944968075" lon="11.893830283973076"><ele>882.0</ele><time>2026-04-18T08:52:27.999Z</time></trkpt><trkpt lat="47.69191527705042" lon="11.893704848474023"><ele>883.6666666666667</ele><time>2026-04-18T08:52:28.999Z</time></trkpt><trkpt lat="47.69177413255049" lon="11.893561257453507"><ele>885.3333333333334</ele><time>2026-04-18T08:52:29.999Z</time></trkpt><trkpt lat="47.69164747335904" lon="11.89343208378692"><ele>887.0</ele><time>2026-04-18T08:52:30.999Z</time></trkpt><trkpt lat="47.69152094707971" lon="11.893322229113501"><ele>887.0</ele><time>2026-04-18T08:52:31.999Z</time></trkpt><trkpt lat="47.6913872151848" lon="11.893239830897967"><ele>887.0</ele><time>2026-04-18T08:52:32.999Z</time></trkpt><trkpt lat="47.69124252537045" lon="11.893165577988194"><ele>887.0</ele><time>2026-04-18T08:52:33.999Z</time></trkpt><trkpt lat="47.691083534929405" lon="11.893077066426152"><ele>895.6666666666667</ele><time>2026-04-18T08:52:34.999Z</time></trkpt><trkpt lat="47.69090582682898" lon="11.892974066261873"><ele>904.3333333333333</ele><time>2026-04-18T08:52:35.999Z</time></trkpt><trkpt lat="47.690716868000024" lon="11.892865423631603"><ele>913.0</ele><time>2026-04-18T08:52:36.999Z</time></trkpt><trkpt lat="47.690520218000195" lon="11.89274446053762"><ele>913.0</ele><time>2026-04-18T08:52:37.999Z</time></trkpt><trkpt lat="47.690319886614546" lon="11.89262560390691"><ele>913.0</ele><time>2026-04-18T08:52:38.999Z</time></trkpt><trkpt lat="47.690149587343726" lon="11.892524697423747"><ele>913.0</ele><time>2026-04-18T08:52:39.999Z</time></trkpt><trkpt lat="47.68998810369394" lon="11.892419482934235"><ele>913.3333333333333</ele><time>2026-04-18T08:52:40.999Z</time></trkpt><trkpt lat="47.68982078773029" lon="11.892288976475813"><ele>913.6666666666667</ele><time>2026-04-18T08:52:41.999Z</time></trkpt><trkpt lat="47.68965023659157" lon="11.892151580128942"><ele>914.0</ele><time>2026-04-18T08:52:42.999Z</time></trkpt><trkpt lat="47.68950485811025" lon="11.89203690163137"><ele>915.3333333333334</ele><time>2026-04-18T08:52:43.999Z</time></trkpt><trkpt lat="47.689360764946905" lon="11.891929174520278"><ele>916.6666666666667</ele><time>2026-04-18T08:52:44.999Z</time></trkpt><trkpt lat="47.689213949781816" lon="11.891816331566908"><ele>918.0</ele><time>2026-04-18T08:52:45.999Z</time></trkpt><trkpt lat="47.689062434629605" lon="11.891696633750852"><ele>918.0</ele><time>2026-04-18T08:52:46.999Z</time></trkpt><trkpt lat="47.68890705136329" lon="11.891595298597974"><ele>918.0</ele><time>2026-04-18T08:52:47.999Z</time></trkpt><trkpt lat="47.688737747305886" lon="11.891516146766131"><ele>918.0</ele><time>2026-04-18T08:52:48.999Z</time></trkpt><trkpt lat="47.68854594366433" lon="11.891445366883234"><ele>926.0</ele><time>2026-04-18T08:52:49.999Z</time></trkpt><trkpt lat="47.68833372791404" lon="11.891351273613619"><ele>934.0</ele><time>2026-04-18T08:52:50.999Z</time></trkpt><trkpt lat="47.68812543781749" lon="11.891251938712134"><ele>942.0</ele><time>2026-04-18T08:52:51.999Z</time></trkpt><trkpt lat="47.68793426854911" lon="11.891167575916674"><ele>942.0</ele><time>2026-04-18T08:52:52.999Z</time></trkpt><trkpt lat="47.68777015932919" lon="11.891095385347128"><ele>942.0</ele><time>2026-04-18T08:52:53.999Z</time></trkpt><trkpt lat="47.68762758592204" lon="11.891023105924832"><ele>942.0</ele><time>2026-04-18T08:52:54.999Z</time></trkpt><trkpt lat="47.68749669770962" lon="11.890931840500576"><ele>941.5</ele><time>2026-04-18T08:52:55.999Z</time></trkpt><trkpt lat="47.687375525243816" lon="11.890822311232677"><ele>941.0</ele><time>2026-04-18T08:52:56.999Z</time></trkpt><trkpt lat="47.687259249395204" lon="11.890717666772597"><ele>940.5</ele><time>2026-04-18T08:52:57.999Z</time></trkpt><trkpt lat="47.68714373691204" lon="11.890622349873887"><ele>940.0</ele><time>2026-04-18T08:52:58.999Z</time></trkpt><trkpt lat="47.68701360522767" lon="11.890554097856354"><ele>948.6666666666666</ele><time>2026-04-18T08:52:59.999Z</time></trkpt><trkpt lat="47.68687031407921" lon="11.890526403557011"><ele>957.3333333333333</ele><time>2026-04-18T08:53:00.999Z</time></trkpt><trkpt lat="47.68671715555136" lon="11.890485465011363"><ele>966.0</ele><time>2026-04-18T08:53:01.999Z</time></trkpt><trkpt lat="47.68655653880713" lon="11.890465993326295"><ele>966.0</ele><time>2026-04-18T08:53:02.999Z</time></trkpt><trkpt lat="47.68639439917713" lon="11.8904704127199"><ele>966.0</ele><time>2026-04-18T08:53:03.999Z</time></trkpt><trkpt lat="47.6862295056865" lon="11.89044056237458"><ele>966.0</ele><time>2026-04-18T08:53:04.999Z</time></trkpt><trkpt lat="47.68606463264987" lon="11.890415341115155"><ele>972.3333333333333</ele><time>2026-04-18T08:53:05.999Z</time></trkpt><trkpt lat="47.68590412478816" lon="11.89036814214517"><ele>978.6666666666666</ele><time>2026-04-18T08:53:06.999Z</time></trkpt><trkpt lat="47.68575342949999" lon="11.890282114252907"><ele>985.0</ele><time>2026-04-18T08:53:07.999Z</time></trkpt><trkpt lat="47.68561661265138" lon="11.89017210147376"><ele>981.5</ele><time>2026-04-18T08:53:08.999Z</time></trkpt><trkpt lat="47.68548855601122" lon="11.89006970497494"><ele>978.0</ele><time>2026-04-18T08:53:09.999Z</time></trkpt><trkpt lat="47.68535946031815" lon="11.890009270986567"><ele>974.5</ele><time>2026-04-18T08:53:10.999Z</time></trkpt><trkpt lat="47.68523248431163" lon="11.889978546314168"><ele>971.0</ele><time>2026-04-18T08:53:11.999Z</time></trkpt><trkpt lat="47.685114244529174" lon="11.889980523571687"><ele>971.0</ele><time>2026-04-18T08:53:12.999Z</time></trkpt><trkpt lat="47.68499235670055" lon="11.890005043205736"><ele>971.0</ele><time>2026-04-18T08:53:13.999Z</time></trkpt><trkpt lat="47.68486079655165" lon="11.890065143198763"><ele>971.0</ele><time>2026-04-18T08:53:14.999Z</time></trkpt><trkpt lat="47.68472842081138" lon="11.890154652337086"><ele>971.0</ele><time>2026-04-18T08:53:15.999Z</time></trkpt><trkpt lat="47.68460333842626" lon="11.890267905039284"><ele>976.0</ele><time>2026-04-18T08:53:16.999Z</time></trkpt><trkpt lat="47.68449134252313" lon="11.890387786898721"><ele>981.0</ele><time>2026-04-18T08:53:17.999Z</time></trkpt><trkpt lat="47.68438578232545" lon="11.890512100094197"><ele>986.0</ele><time>2026-04-18T08:53:18.999Z</time></trkpt><trkpt lat="47.684275881489434" lon="11.890617531969568"><ele>991.0</ele><time>2026-04-18T08:53:19.999Z</time></trkpt><trkpt lat="47.6841586750032" lon="11.890686223422392"><ele>991.0</ele><time>2026-04-18T08:53:20.999Z</time></trkpt><trkpt lat="47.68404136960136" lon="11.890725436151872"><ele>991.0</ele><time>2026-04-18T08:53:21.999Z</time></trkpt><trkpt lat="47.68391575264133" lon="11.890729806955282"><ele>991.0</ele><time>2026-04-18T08:53:22.999Z</time></trkpt><trkpt lat="47.68378541639292" lon="11.89070672167636"><ele>991.0</ele><time>2026-04-18T08:53:23.999Z</time></trkpt><trkpt lat="47.68364341457008" lon="11.89066555131817"><ele>996.0</ele><time>2026-04-18T08:53:24.999Z</time></trkpt><trkpt lat="47.68348452711354" lon="11.890615303663585"><ele>1001.0</ele><time>2026-04-18T08:53:25.999Z</time></trkpt><trkpt lat="47.68331432394247" lon="11.890563587207355"><ele>1006.0</ele><time>2026-04-18T08:53:26.999Z</time></trkpt><trkpt lat="47.68313960895921" lon="11.890514445523605"><ele>1006.0</ele><time>2026-04-18T08:53:27.999Z</time></trkpt><trkpt lat="47.68297931091854" lon="11.890456663007766"><ele>1006.0</ele><time>2026-04-18T08:53:28.999Z</time></trkpt><trkpt lat="47.682835087387154" lon="11.890364569592874"><ele>1006.0</ele><time>2026-04-18T08:53:29.999Z</time></trkpt><trkpt lat="47.682698066065164" lon="11.89025871266164"><ele>1005.75</ele><time>2026-04-18T08:53:30.999Z</time></trkpt><trkpt lat="47.682564915891795" lon="11.890152792932216"><ele>1005.5</ele><time>2026-04-18T08:53:31.999Z</time></trkpt><trkpt lat="47.682437732622795" lon="11.89005776716529"><ele>1005.25</ele><time>2026-04-18T08:53:32.999Z</time></trkpt><trkpt lat="47.682316030628165" lon="11.889970963626487"><ele>1005.0</ele><time>2026-04-18T08:53:33.999Z</time></trkpt><trkpt lat="47.68218919193299" lon="11.889914113317754"><ele>1005.0</ele><time>2026-04-18T08:53:34.999Z</time></trkpt><trkpt lat="47.68205180308778" lon="11.889886225425562"><ele>1005.0</ele><time>2026-04-18T08:53:35.999Z</time></trkpt><trkpt lat="47.681902814429954" lon="11.889877604018661"><ele>1005.0</ele><time>2026-04-18T08:53:36.999Z</time></trkpt><trkpt lat="47.68175605428087" lon="11.889879558601113"><ele>1005.0</ele><time>2026-04-18T08:53:37.999Z</time></trkpt><trkpt lat="47.68162027443864" lon="11.889885826169175"><ele>1011.6666666666667</ele><time>2026-04-18T08:53:38.999Z</time></trkpt><trkpt lat="47.681474068051955" lon="11.889894468826192"><ele>1018.3333333333334</ele><time>2026-04-18T08:53:39.999Z</time></trkpt><trkpt lat="47.68131889721381" lon="11.889882682554418"><ele>1025.0</ele><time>2026-04-18T08:53:40.999Z</time></trkpt><trkpt lat="47.6811730914808" lon="11.889833991914857"><ele>1034.6666666666667</ele><time>2026-04-18T08:53:41.999Z</time></trkpt><trkpt lat="47.68103427301923" lon="11.8897492543382"><ele>1044.3333333333333</ele><time>2026-04-18T08:53:42.999Z</time></trkpt><trkpt lat="47.680901594004766" lon="11.889632396934692"><ele>1054.0</ele><time>2026-04-18T08:53:43.999Z</time></trkpt><trkpt lat="47.680760446751634" lon="11.889505882930044"><ele>1054.0</ele><time>2026-04-18T08:53:44.999Z</time></trkpt><trkpt lat="47.68060723833581" lon="11.889364665170318"><ele>1054.0</ele><time>2026-04-18T08:53:45.999Z</time></trkpt><trkpt lat="47.68044262681905" lon="11.889214150889"><ele>1054.0</ele><time>2026-04-18T08:53:46.999Z</time></trkpt><trkpt lat="47.6802597495458" lon="11.889046438807673"><ele>1057.6666666666665</ele><time>2026-04-18T08:53:47.999Z</time></trkpt><trkpt lat="47.68009794891881" lon="11.888889636551554"><ele>1061.3333333333333</ele><time>2026-04-18T08:53:48.999Z</time></trkpt><trkpt lat="47.679965566540304" lon="11.888756163296689"><ele>1065.0</ele><time>2026-04-18T08:53:49.999Z</time></trkpt><trkpt lat="47.67983524992015" lon="11.888630598908716"><ele>1065.0</ele><time>2026-04-18T08:53:50.999Z</time></trkpt><trkpt lat="47.679714770525045" lon="11.88846367944278"><ele>1065.0</ele><time>2026-04-18T08:53:51.999Z</time></trkpt><trkpt lat="47.67959645264585" lon="11.888264363001547"><ele>1065.0</ele><time>2026-04-18T08:53:52.999Z</time></trkpt><trkpt lat="47.67947738458707" lon="11.888057590706728"><ele>1064.0</ele><time>2026-04-18T08:53:53.999Z</time></trkpt><trkpt lat="47.67935940342077" lon="11.887851466797763"><ele>1063.0</ele><time>2026-04-18T08:53:54.999Z</time></trkpt><trkpt lat="47.6792476280609" lon="11.887649740122193"><ele>1062.0</ele><time>2026-04-18T08:53:55.999Z</time></trkpt><trkpt lat="47.67915148601124" lon="11.887466140266016"><ele>1062.0</ele><time>2026-04-18T08:53:56.999Z</time></trkpt><trkpt lat="47.67905463852479" lon="11.887307853109352"><ele>1062.0</ele><time>2026-04-18T08:53:57.999Z</time></trkpt><trkpt lat="47.67894140357021" lon="11.887160198596936"><ele>1062.0</ele><time>2026-04-18T08:53:58.999Z</time></trkpt><trkpt lat="47.67881694959113" lon="11.887033651984574"><ele>1062.0</ele><time>2026-04-18T08:53:59.999Z</time></trkpt><trkpt lat="47.67868194328284" lon="11.8869288426515"><ele>1061.6666666666667</ele><time>2026-04-18T08:54:00.999Z</time></trkpt><trkpt lat="47.678541169339276" lon="11.88684446384428"><ele>1061.3333333333335</ele><time>2026-04-18T08:54:01.999Z</time></trkpt><trkpt lat="47.67839029999606" lon="11.886777087372156"><ele>1061.0</ele><time>2026-04-18T08:54:02.999Z</time></trkpt><trkpt lat="47.67822580027442" lon="11.88673048449753"><ele>1061.0</ele><time>2026-04-18T08:54:03.999Z</time></trkpt><trkpt lat="47.67805613038284" lon="11.886705270719833"><ele>1061.0</ele><time>2026-04-18T08:54:04.999Z</time></trkpt><trkpt lat="47.67786517669594" lon="11.886685209901728"><ele>1061.0</ele><time>2026-04-18T08:54:05.999Z</time></trkpt><trkpt lat="47.67765406922827" lon="11.88664871212252"><ele>1067.5</ele><time>2026-04-18T08:54:06.999Z</time></trkpt><trkpt lat="47.67742987970906" lon="11.886605545466933"><ele>1074.0</ele><time>2026-04-18T08:54:07.999Z</time></trkpt><trkpt lat="47.67718133713539" lon="11.886560395043292"><ele>1079.5</ele><time>2026-04-18T08:54:08.999Z</time></trkpt><trkpt lat="47.67692377702803" lon="11.886510071325754"><ele>1085.0</ele><time>2026-04-18T08:54:09.999Z</time></trkpt><trkpt lat="47.676702938272406" lon="11.886466826422444"><ele>1085.0</ele><time>2026-04-18T08:54:10.999Z</time></trkpt><trkpt lat="47.67649599290024" lon="11.886429744441038"><ele>1085.0</ele><time>2026-04-18T08:54:11.999Z</time></trkpt><trkpt lat="47.67630038380588" lon="11.886391963532809"><ele>1085.0</ele><time>2026-04-18T08:54:12.999Z</time></trkpt><trkpt lat="47.67611032358012" lon="11.886355467775429"><ele>1089.3333333333335</ele><time>2026-04-18T08:54:13.999Z</time></trkpt><trkpt lat="47.6759169387639" lon="11.88631448106723"><ele>1093.6666666666667</ele><time>2026-04-18T08:54:14.999Z</time></trkpt><trkpt lat="47.675719658965285" lon="11.886272109443482"><ele>1098.0</ele><time>2026-04-18T08:54:15.999Z</time></trkpt><trkpt lat="47.675521049454915" lon="11.886235677301995"><ele>1098.0</ele><time>2026-04-18T08:54:16.999Z</time></trkpt><trkpt lat="47.67534587749924" lon="11.886211770825813"><ele>1098.0</ele><time>2026-04-18T08:54:17.999Z</time></trkpt><trkpt lat="47.67516754589793" lon="11.886189103245579"><ele>1098.0</ele><time>2026-04-18T08:54:18.999Z</time></trkpt><trkpt lat="47.67497762323939" lon="11.88617313480833"><ele>1098.3333333333333</ele><time>2026-04-18T08:54:19.999Z</time></trkpt><trkpt lat="47.67480275284966" lon="11.886176966540905"><ele>1098.6666666666665</ele><time>2026-04-18T08:54:20.999Z</time></trkpt><trkpt lat="47.67464521248766" lon="11.886189076256748"><ele>1099.0</ele><time>2026-04-18T08:54:21.999Z</time></trkpt><trkpt lat="47.6744939916899" lon="11.88620128689872"><ele>1104.3333333333333</ele><time>2026-04-18T08:54:22.999Z</time></trkpt><trkpt lat="47.67435081261186" lon="11.886219737779037"><ele>1109.6666666666667</ele><time>2026-04-18T08:54:24Z</time></trkpt><trkpt lat="47.674202833439274" lon="11.886252347991444"><ele>1115.0</ele><time>2026-04-18T08:54:25Z</time></trkpt><trkpt lat="47.674048700762896" lon="11.886295177846687"><ele>1115.0</ele><time>2026-04-18T08:54:26Z</time></trkpt><trkpt lat="47.67388956783775" lon="11.886335388511343"><ele>1115.0</ele><time>2026-04-18T08:54:27Z</time></trkpt><trkpt lat="47.67374051535805" lon="11.886370222666965"><ele>1115.0</ele><time>2026-04-18T08:54:28Z</time></trkpt><trkpt lat="47.673606847605434" lon="11.886408941042111"><ele>1115.0</ele><time>2026-04-18T08:54:29Z</time></trkpt><trkpt lat="47.67349190134475" lon="11.88644386687113"><ele>1117.4</ele><time>2026-04-18T08:54:30Z</time></trkpt><trkpt lat="47.67339514160749" lon="11.886474843150147"><ele>1119.8</ele><time>2026-04-18T08:54:31Z</time></trkpt><trkpt lat="47.67330610956148" lon="11.8865037906228"><ele>1122.2</ele><time>2026-04-18T08:54:32Z</time></trkpt><trkpt lat="47.67321757052451" lon="11.886532136538568"><ele>1124.6</ele><time>2026-04-18T08:54:33Z</time></trkpt><trkpt lat="47.67312850584806" lon="11.886559106038302"><ele>1127.0</ele><time>2026-04-18T08:54:34Z</time></trkpt><trkpt lat="47.67304093377775" lon="11.886583841173895"><ele>1127.0</ele><time>2026-04-18T08:54:35Z</time></trkpt><trkpt lat="47.672968075288686" lon="11.88660632022486"><ele>1127.0</ele><time>2026-04-18T08:54:36Z</time></trkpt><trkpt lat="47.672903322589946" lon="11.886628906130975"><ele>1127.0</ele><time>2026-04-18T08:54:37Z</time></trkpt><trkpt lat="47.672834033921525" lon="11.886648643438233"><ele>1127.0</ele><time>2026-04-18T08:54:38Z</time></trkpt><trkpt lat="47.67276990353459" lon="11.886666218987255"><ele>1127.0</ele><time>2026-04-18T08:54:39Z</time></trkpt><trkpt lat="47.672679668474395" lon="11.886682319822443"><ele>1127.0</ele><time>2026-04-18T08:54:41Z</time></trkpt><trkpt lat="47.67260682448068" lon="11.886668695896425"><ele>1127.0</ele><time>2026-04-18T08:54:44Z</time></trkpt><trkpt lat="47.67253988815944" lon="11.886644511930285"><ele>1127.0</ele><time>2026-04-18T08:54:49Z</time></trkpt><trkpt lat="47.672492857513056" lon="11.886739316540691"><ele>1127.0</ele><time>2026-04-18T08:54:51Z</time></trkpt><trkpt lat="47.6724753807083" lon="11.88664636135756"><ele>1127.0</ele><time>2026-04-18T09:01:56Z</time></trkpt><trkpt lat="47.67247630409473" lon="11.886759973557051"><ele>1127.0</ele><time>2026-04-18T09:01:59Z</time></trkpt><trkpt lat="47.67255089328779" lon="11.886733553690306"><ele>1127.0</ele><time>2026-04-18T09:02:11Z</time></trkpt><trkpt lat="47.672648591231614" lon="11.88672736580425"><ele>1127.0</ele><time>2026-04-18T09:02:13Z</time></trkpt><trkpt lat="47.67278227465258" lon="11.886733587690374"><ele>1127.0</ele><time>2026-04-18T09:02:15Z</time></trkpt><trkpt lat="47.67286667747762" lon="11.886717804330907"><ele>1127.0</ele><time>2026-04-18T09:02:16Z</time></trkpt><trkpt lat="47.67294410074411" lon="11.886699902518473"><ele>1127.0</ele><time>2026-04-18T09:02:17Z</time></trkpt><trkpt lat="47.67300805883467" lon="11.886676919691403"><ele>1127.0</ele><time>2026-04-18T09:02:18Z</time></trkpt><trkpt lat="47.67307540365553" lon="11.886654455099697"><ele>1127.0</ele><time>2026-04-18T09:02:19Z</time></trkpt><trkpt lat="47.67315178481577" lon="11.886633016163815"><ele>1127.0</ele><time>2026-04-18T09:02:20Z</time></trkpt><trkpt lat="47.67323942739858" lon="11.886595101910403"><ele>1127.0</ele><time>2026-04-18T09:02:21Z</time></trkpt><trkpt lat="47.673335613795416" lon="11.88656011466115"><ele>1127.0</ele><time>2026-04-18T09:02:22Z</time></trkpt><trkpt lat="47.67342996374732" lon="11.886529360620704"><ele>1127.0</ele><time>2026-04-18T09:02:23Z</time></trkpt><trkpt lat="47.67351412347618" lon="11.886509621490385"><ele>1127.0</ele><time>2026-04-18T09:02:24Z</time></trkpt><trkpt lat="47.673594425549354" lon="11.886496152371029"><ele>1127.0</ele><time>2026-04-18T09:02:25Z</time></trkpt><trkpt lat="47.67367476677558" lon="11.886473184951772"><ele>1127.0</ele><time>2026-04-18T09:02:26Z</time></trkpt><trkpt lat="47.67376086715606" lon="11.886443909322278"><ele>1124.6</ele><time>2026-04-18T09:02:27Z</time></trkpt><trkpt lat="47.67385334956872" lon="11.886415378461486"><ele>1122.2</ele><time>2026-04-18T09:02:28Z</time></trkpt><trkpt lat="47.67395285617807" lon="11.886386541869939"><ele>1119.8</ele><time>2026-04-18T09:02:29Z</time></trkpt><trkpt lat="47.674056115180115" lon="11.886351104906318"><ele>1117.4</ele><time>2026-04-18T09:02:30Z</time></trkpt><trkpt lat="47.67416750550052" lon="11.886320017335452"><ele>1115.0</ele><time>2026-04-18T09:02:31Z</time></trkpt><trkpt lat="47.674275398208806" lon="11.88629349287204"><ele>1115.0</ele><time>2026-04-18T09:02:32Z</time></trkpt><trkpt lat="47.67439151862783" lon="11.88627137701084"><ele>1115.0</ele><time>2026-04-18T09:02:33Z</time></trkpt><trkpt lat="47.67452499617254" lon="11.886249744020104"><ele>1115.0</ele><time>2026-04-18T09:02:34Z</time></trkpt><trkpt lat="47.67467445580123" lon="11.886235616115313"><ele>1115.0</ele><time>2026-04-18T09:02:35Z</time></trkpt><trkpt lat="47.674832924155815" lon="11.886229581674714"><ele>1109.6666666666667</ele><time>2026-04-18T09:02:36Z</time></trkpt><trkpt lat="47.674992580375346" lon="11.886232010874998"><ele>1104.3333333333333</ele><time>2026-04-18T09:02:37Z</time></trkpt><trkpt lat="47.67515574109365" lon="11.88624187312083"><ele>1099.0</ele><time>2026-04-18T09:02:38Z</time></trkpt><trkpt lat="47.67531778376414" lon="11.886257603861713"><ele>1098.6666666666665</ele><time>2026-04-18T09:02:39Z</time></trkpt><trkpt lat="47.675483789720275" lon="11.886284223309897"><ele>1098.3333333333333</ele><time>2026-04-18T09:02:40Z</time></trkpt><trkpt lat="47.675653684379654" lon="11.886319833178378"><ele>1098.0</ele><time>2026-04-18T09:02:41Z</time></trkpt><trkpt lat="47.67582206307002" lon="11.88635024070085"><ele>1098.0</ele><time>2026-04-18T09:02:42Z</time></trkpt><trkpt lat="47.67598660860773" lon="11.886377967957534"><ele>1098.0</ele><time>2026-04-18T09:02:43Z</time></trkpt><trkpt lat="47.67614773989304" lon="11.886410489916267"><ele>1098.0</ele><time>2026-04-18T09:02:44Z</time></trkpt><trkpt lat="47.67630577354647" lon="11.886441800116458"><ele>1093.6666666666667</ele><time>2026-04-18T09:02:45Z</time></trkpt><trkpt lat="47.67646270257941" lon="11.886470922822511"><ele>1089.3333333333335</ele><time>2026-04-18T09:02:46Z</time></trkpt><trkpt lat="47.67661632605933" lon="11.88650072092499"><ele>1085.0</ele><time>2026-04-18T09:02:47Z</time></trkpt><trkpt lat="47.67676873773223" lon="11.886526874882355"><ele>1085.0</ele><time>2026-04-18T09:02:48.001Z</time></trkpt><trkpt lat="47.67691934209525" lon="11.886554140655234"><ele>1085.0</ele><time>2026-04-18T09:02:49.001Z</time></trkpt><trkpt lat="47.677069413193664" lon="11.886582839807057"><ele>1085.0</ele><time>2026-04-18T09:02:50.001Z</time></trkpt><trkpt lat="47.67721515117759" lon="11.886609809398315"><ele>1082.25</ele><time>2026-04-18T09:02:51.001Z</time></trkpt><trkpt lat="47.67735853702783" lon="11.886636540792113"><ele>1079.5</ele><time>2026-04-18T09:02:52.001Z</time></trkpt><trkpt lat="47.67750411366714" lon="11.88666503749905"><ele>1076.75</ele><time>2026-04-18T09:02:53.001Z</time></trkpt><trkpt lat="47.6776540951168" lon="11.886691160975312"><ele>1074.0</ele><time>2026-04-18T09:02:54.001Z</time></trkpt><trkpt lat="47.67779590505736" lon="11.88671614938704"><ele>1075.0</ele><time>2026-04-18T09:02:55.001Z</time></trkpt><trkpt lat="47.67792937991424" lon="11.88674157461871"><ele>1076.0</ele><time>2026-04-18T09:02:56.001Z</time></trkpt><trkpt lat="47.678063754575625" lon="11.886769128825934"><ele>1077.0</ele><time>2026-04-18T09:02:57.001Z</time></trkpt><trkpt lat="47.67819966705202" lon="11.886796883891218"><ele>1078.0</ele><time>2026-04-18T09:02:58.001Z</time></trkpt><trkpt lat="47.678340436900235" lon="11.886824570555078"><ele>1078.0</ele><time>2026-04-18T09:02:59.001Z</time></trkpt><trkpt lat="47.678476281748274" lon="11.886867125568813"><ele>1078.0</ele><time>2026-04-18T09:03:00.001Z</time></trkpt><trkpt lat="47.67860413287389" lon="11.886938018872032"><ele>1078.0</ele><time>2026-04-18T09:03:01.001Z</time></trkpt><trkpt lat="47.67872618471904" lon="11.88702133899821"><ele>1078.0</ele><time>2026-04-18T09:03:02.001Z</time></trkpt><trkpt lat="47.67884041912721" lon="11.88711547763774"><ele>1079.25</ele><time>2026-04-18T09:03:03.001Z</time></trkpt><trkpt lat="47.678944055798794" lon="11.887224849523868"><ele>1080.5</ele><time>2026-04-18T09:03:04.001Z</time></trkpt><trkpt lat="47.679037676750625" lon="11.887349666033536"><ele>1081.75</ele><time>2026-04-18T09:03:05.001Z</time></trkpt><trkpt lat="47.6791237500831" lon="11.887487656712883"><ele>1083.0</ele><time>2026-04-18T09:03:06.001Z</time></trkpt><trkpt lat="47.67920714197863" lon="11.8876329254844"><ele>1083.0</ele><time>2026-04-18T09:03:07.001Z</time></trkpt><trkpt lat="47.67929446361427" lon="11.887784931392732"><ele>1083.0</ele><time>2026-04-18T09:03:08Z</time></trkpt><trkpt lat="47.6793855855833" lon="11.887939933649802"><ele>1083.0</ele><time>2026-04-18T09:03:09Z</time></trkpt><trkpt lat="47.679469729084836" lon="11.888098439096755"><ele>1083.0</ele><time>2026-04-18T09:03:10Z</time></trkpt><trkpt lat="47.67955224997625" lon="11.888253299684116"><ele>1078.5</ele><time>2026-04-18T09:03:11Z</time></trkpt><trkpt lat="47.679648046264624" lon="11.888403588090728"><ele>1074.0</ele><time>2026-04-18T09:03:12Z</time></trkpt><trkpt lat="47.67974271201228" lon="11.88855664078728"><ele>1069.5</ele><time>2026-04-18T09:03:13Z</time></trkpt><trkpt lat="47.679849142508374" lon="11.888691130040392"><ele>1065.0</ele><time>2026-04-18T09:03:14Z</time></trkpt><trkpt lat="47.67996412057504" lon="11.888819227550457"><ele>1065.0</ele><time>2026-04-18T09:03:15Z</time></trkpt><trkpt lat="47.680090631319864" lon="11.888932865820625"><ele>1065.0</ele><time>2026-04-18T09:03:16Z</time></trkpt><trkpt lat="47.680231080271994" lon="11.889058815062613"><ele>1065.0</ele><time>2026-04-18T09:03:17Z</time></trkpt><trkpt lat="47.68038255459579" lon="11.889203585348003"><ele>1061.3333333333333</ele><time>2026-04-18T09:03:18Z</time></trkpt><trkpt lat="47.68053266354858" lon="11.889343686508429"><ele>1057.6666666666665</ele><time>2026-04-18T09:03:19Z</time></trkpt><trkpt lat="47.68065420106427" lon="11.889455474830923"><ele>1054.0</ele><time>2026-04-18T09:03:20Z</time></trkpt><trkpt lat="47.6807812656476" lon="11.88956191821412"><ele>1054.0</ele><time>2026-04-18T09:03:21Z</time></trkpt><trkpt lat="47.68089899082127" lon="11.889671400316564"><ele>1054.0</ele><time>2026-04-18T09:03:22Z</time></trkpt><trkpt lat="47.68101411116465" lon="11.889782775456322"><ele>1054.0</ele><time>2026-04-18T09:03:23Z</time></trkpt><trkpt lat="47.68113616909901" lon="11.889859613029323"><ele>1054.0</ele><time>2026-04-18T09:03:24Z</time></trkpt><trkpt lat="47.68126483681521" lon="11.889908148516614"><ele>1046.75</ele><time>2026-04-18T09:03:25Z</time></trkpt><trkpt lat="47.68140032508626" lon="11.889932640853276"><ele>1039.5</ele><time>2026-04-18T09:03:26Z</time></trkpt><trkpt lat="47.681538817289" lon="11.88993904980664"><ele>1032.25</ele><time>2026-04-18T09:03:27Z</time></trkpt><trkpt lat="47.681674542955655" lon="11.889936046976114"><ele>1025.0</ele><time>2026-04-18T09:03:28Z</time></trkpt><trkpt lat="47.68181224481486" lon="11.889933725392309"><ele>1020.0</ele><time>2026-04-18T09:03:29Z</time></trkpt><trkpt lat="47.68194368137614" lon="11.889927331568757"><ele>1015.0</ele><time>2026-04-18T09:03:30Z</time></trkpt><trkpt lat="47.68206862028099" lon="11.889926200239088"><ele>1010.0</ele><time>2026-04-18T09:03:31Z</time></trkpt><trkpt lat="47.68219851024989" lon="11.889954416888969"><ele>1005.0</ele><time>2026-04-18T09:03:32Z</time></trkpt><trkpt lat="47.68232391480867" lon="11.890013994843882"><ele>1005.25</ele><time>2026-04-18T09:03:33Z</time></trkpt><trkpt lat="47.68243502121927" lon="11.89009965582437"><ele>1005.5</ele><time>2026-04-18T09:03:34Z</time></trkpt><trkpt lat="47.68254460774181" lon="11.890193680800373"><ele>1005.75</ele><time>2026-04-18T09:03:35Z</time></trkpt><trkpt lat="47.682661914729536" lon="11.890281953296624"><ele>1006.0</ele><time>2026-04-18T09:03:36Z</time></trkpt><trkpt lat="47.68278762177269" lon="11.890368418887437"><ele>1006.0</ele><time>2026-04-18T09:03:37Z</time></trkpt><trkpt lat="47.682913974119124" lon="11.890460047239387"><ele>1006.0</ele><time>2026-04-18T09:03:38Z</time></trkpt><trkpt lat="47.68305145064618" lon="11.89052647893367"><ele>1006.0</ele><time>2026-04-18T09:03:39Z</time></trkpt><trkpt lat="47.68318775874446" lon="11.890579744674737"><ele>1006.0</ele><time>2026-04-18T09:03:40Z</time></trkpt><trkpt lat="47.68332303509597" lon="11.890615698492294"><ele>1006.0</ele><time>2026-04-18T09:03:41Z</time></trkpt><trkpt lat="47.683449504053236" lon="11.890649598094738"><ele>1006.0</ele><time>2026-04-18T09:03:42Z</time></trkpt><trkpt lat="47.68357583618651" lon="11.8906911470509"><ele>1006.0</ele><time>2026-04-18T09:03:43Z</time></trkpt><trkpt lat="47.6836977418088" lon="11.89073167662417"><ele>1006.0</ele><time>2026-04-18T09:03:44Z</time></trkpt><trkpt lat="47.683815604247705" lon="11.890762933278967"><ele>1002.25</ele><time>2026-04-18T09:03:45Z</time></trkpt><trkpt lat="47.68393270417872" lon="11.890785712332107"><ele>998.5</ele><time>2026-04-18T09:03:46Z</time></trkpt><trkpt lat="47.6840514741235" lon="11.89078305658991"><ele>994.75</ele><time>2026-04-18T09:03:47Z</time></trkpt><trkpt lat="47.684172108116705" lon="11.890740237542715"><ele>991.0</ele><time>2026-04-18T09:03:48Z</time></trkpt><trkpt lat="47.684291120536784" lon="11.890665357186533"><ele>991.0</ele><time>2026-04-18T09:03:49Z</time></trkpt><trkpt lat="47.684405952519704" lon="11.890550515704303"><ele>991.0</ele><time>2026-04-18T09:03:50Z</time></trkpt><trkpt lat="47.68450727538622" lon="11.890428371335549"><ele>991.0</ele><time>2026-04-18T09:03:51Z</time></trkpt><trkpt lat="47.68461022929635" lon="11.890321305827639"><ele>991.0</ele><time>2026-04-18T09:03:52Z</time></trkpt><trkpt lat="47.68470481267983" lon="11.890216360360606"><ele>992.0</ele><time>2026-04-18T09:03:53Z</time></trkpt><trkpt lat="47.684802543717474" lon="11.89011568379476"><ele>993.0</ele><time>2026-04-18T09:03:54Z</time></trkpt><trkpt lat="47.684917112571675" lon="11.890051182345815"><ele>994.0</ele><time>2026-04-18T09:03:55Z</time></trkpt><trkpt lat="47.6850477670551" lon="11.890008391641187"><ele>995.0</ele><time>2026-04-18T09:03:56Z</time></trkpt><trkpt lat="47.685183552211434" lon="11.89003925691242"><ele>992.5</ele><time>2026-04-18T09:03:57Z</time></trkpt><trkpt lat="47.68532086250674" lon="11.89009026347679"><ele>990.0</ele><time>2026-04-18T09:03:58Z</time></trkpt><trkpt lat="47.68546327535904" lon="11.890156083425518"><ele>987.5</ele><time>2026-04-18T09:03:59Z</time></trkpt><trkpt lat="47.68558911324706" lon="11.89025274125994"><ele>985.0</ele><time>2026-04-18T09:04:00Z</time></trkpt><trkpt lat="47.68570500483348" lon="11.890324744958487"><ele>985.0</ele><time>2026-04-18T09:04:01Z</time></trkpt><trkpt lat="47.68582293756553" lon="11.890384008166398"><ele>985.0</ele><time>2026-04-18T09:04:02Z</time></trkpt><trkpt lat="47.68594159295492" lon="11.890427387670124"><ele>985.0</ele><time>2026-04-18T09:04:03Z</time></trkpt><trkpt lat="47.686069229944714" lon="11.8904492821665"><ele>985.0</ele><time>2026-04-18T09:04:04Z</time></trkpt><trkpt lat="47.68621244464474" lon="11.89045979482993"><ele>978.6666666666666</ele><time>2026-04-18T09:04:05Z</time></trkpt><trkpt lat="47.686378991120286" lon="11.890481505019332"><ele>972.3333333333333</ele><time>2026-04-18T09:04:06Z</time></trkpt><trkpt lat="47.686537924133724" lon="11.89050413935124"><ele>966.0</ele><time>2026-04-18T09:04:07Z</time></trkpt><trkpt lat="47.68669074350565" lon="11.89052030806639"><ele>966.0</ele><time>2026-04-18T09:04:08Z</time></trkpt><trkpt lat="47.68683015416324" lon="11.890550003807128"><ele>966.0</ele><time>2026-04-18T09:04:09Z</time></trkpt><trkpt lat="47.68695379281372" lon="11.890576011313485"><ele>966.0</ele><time>2026-04-18T09:04:10Z</time></trkpt><trkpt lat="47.68707574522399" lon="11.890611063448217"><ele>966.0</ele><time>2026-04-18T09:04:11Z</time></trkpt><trkpt lat="47.68718556115652" lon="11.890707336709514"><ele>967.75</ele><time>2026-04-18T09:04:12Z</time></trkpt><trkpt lat="47.68729434042114" lon="11.8908125009066"><ele>969.5</ele><time>2026-04-18T09:04:13Z</time></trkpt><trkpt lat="47.687411627073764" lon="11.890906830895249"><ele>971.25</ele><time>2026-04-18T09:04:14Z</time></trkpt><trkpt lat="47.68752896414371" lon="11.890991311384472"><ele>973.0</ele><time>2026-04-18T09:04:15Z</time></trkpt><trkpt lat="47.68764434012733" lon="11.891073678423846"><ele>965.25</ele><time>2026-04-18T09:04:16Z</time></trkpt><trkpt lat="47.68776617878879" lon="11.891135827030594"><ele>957.5</ele><time>2026-04-18T09:04:17Z</time></trkpt><trkpt lat="47.68788389191537" lon="11.891184490017695"><ele>949.75</ele><time>2026-04-18T09:04:18Z</time></trkpt><trkpt lat="47.68800458988764" lon="11.891235446621794"><ele>942.0</ele><time>2026-04-18T09:04:19Z</time></trkpt><trkpt lat="47.688134767407625" lon="11.891286176213983"><ele>942.0</ele><time>2026-04-18T09:04:20Z</time></trkpt><trkpt lat="47.68826247513262" lon="11.89133685912397"><ele>942.0</ele><time>2026-04-18T09:04:21Z</time></trkpt><trkpt lat="47.688387846267986" lon="11.891389380851917"><ele>942.0</ele><time>2026-04-18T09:04:22Z</time></trkpt><trkpt lat="47.688510831367694" lon="11.891443897741098"><ele>942.0</ele><time>2026-04-18T09:04:23Z</time></trkpt><trkpt lat="47.6886355994962" lon="11.89150082336651"><ele>934.0</ele><time>2026-04-18T09:04:24Z</time></trkpt><trkpt lat="47.68875617588038" lon="11.891556674914481"><ele>926.0</ele><time>2026-04-18T09:04:25Z</time></trkpt><trkpt lat="47.68893367139053" lon="11.891650190928628"><ele>918.0</ele><time>2026-04-18T09:04:26Z</time></trkpt><trkpt lat="47.689067918581515" lon="11.891741189083714"><ele>917.0</ele><time>2026-04-18T09:04:27Z</time></trkpt><trkpt lat="47.68920354184784" lon="11.891848450951997"><ele>916.0</ele><time>2026-04-18T09:04:28Z</time></trkpt><trkpt lat="47.689330375730584" lon="11.891953171784253"><ele>915.0</ele><time>2026-04-18T09:04:29Z</time></trkpt><trkpt lat="47.689453708785344" lon="11.892054811591214"><ele>914.0</ele><time>2026-04-18T09:04:30Z</time></trkpt><trkpt lat="47.689590989792705" lon="11.892139354938518"><ele>914.0</ele><time>2026-04-18T09:04:31Z</time></trkpt><trkpt lat="47.68971818150235" lon="11.892270515015596"><ele>914.0</ele><time>2026-04-18T09:04:32Z</time></trkpt><trkpt lat="47.68985973717145" lon="11.892382988641128"><ele>914.0</ele><time>2026-04-18T09:04:33Z</time></trkpt><trkpt lat="47.69000869828911" lon="11.892473672662334"><ele>914.0</ele><time>2026-04-18T09:04:34Z</time></trkpt><trkpt lat="47.690144612683255" lon="11.892573771525424"><ele>914.0</ele><time>2026-04-18T09:04:35Z</time></trkpt><trkpt lat="47.690282729850544" lon="11.892659173875519"><ele>914.0</ele><time>2026-04-18T09:04:36Z</time></trkpt><trkpt lat="47.69041948795789" lon="11.892728023958645"><ele>914.0</ele><time>2026-04-18T09:04:37Z</time></trkpt><trkpt lat="47.6905558841168" lon="11.892800077960679"><ele>913.6666666666667</ele><time>2026-04-18T09:04:38Z</time></trkpt><trkpt lat="47.690694238657144" lon="11.892880621578817"><ele>913.3333333333333</ele><time>2026-04-18T09:04:39Z</time></trkpt><trkpt lat="47.690840431454646" lon="11.892970218705857"><ele>913.0</ele><time>2026-04-18T09:04:40Z</time></trkpt><trkpt lat="47.690991245849986" lon="11.893057137724425"><ele>904.3333333333333</ele><time>2026-04-18T09:04:41Z</time></trkpt><trkpt lat="47.691148649154535" lon="11.893151995088395"><ele>895.6666666666667</ele><time>2026-04-18T09:04:42Z</time></trkpt><trkpt lat="47.69129945128872" lon="11.893235754060953"><ele>887.0</ele><time>2026-04-18T09:04:43Z</time></trkpt><trkpt lat="47.69144539330657" lon="11.893320734347544"><ele>887.0</ele><time>2026-04-18T09:04:44Z</time></trkpt><trkpt lat="47.691585959193844" lon="11.893419692078753"><ele>887.0</ele><time>2026-04-18T09:04:45Z</time></trkpt><trkpt lat="47.69171787386466" lon="11.893542455418011"><ele>887.0</ele><time>2026-04-18T09:04:46Z</time></trkpt><trkpt lat="47.69184518227723" lon="11.89368252351393"><ele>885.3333333333334</ele><time>2026-04-18T09:04:47Z</time></trkpt><trkpt lat="47.69198506363608" lon="11.89381426933322"><ele>883.6666666666667</ele><time>2026-04-18T09:04:48Z</time></trkpt><trkpt lat="47.69212450849835" lon="11.893907114998258"><ele>882.0</ele><time>2026-04-18T09:04:49Z</time></trkpt><trkpt lat="47.69225263135151" lon="11.893998534416662"><ele>882.0</ele><time>2026-04-18T09:04:50Z</time></trkpt><trkpt lat="47.69236812721658" lon="11.894100418633453"><ele>882.0</ele><time>2026-04-18T09:04:51Z</time></trkpt><trkpt lat="47.692477739031595" lon="11.894233082714917"><ele>882.0</ele><time>2026-04-18T09:04:52Z</time></trkpt><trkpt lat="47.69257877656771" lon="11.894391328296201"><ele>882.0</ele><time>2026-04-18T09:04:53Z</time></trkpt><trkpt lat="47.6926855272844" lon="11.894556989677081"><ele>881.75</ele><time>2026-04-18T09:04:54Z</time></trkpt><trkpt lat="47.69280871978475" lon="11.89468505332992"><ele>881.5</ele><time>2026-04-18T09:04:55Z</time></trkpt><trkpt lat="47.69294568466224" lon="11.89477117344314"><ele>881.25</ele><time>2026-04-18T09:04:56Z</time></trkpt><trkpt lat="47.69308355202845" lon="11.894841672104281"><ele>881.0</ele><time>2026-04-18T09:04:57Z</time></trkpt><trkpt lat="47.69321283087408" lon="11.894915994826416"><ele>881.0</ele><time>2026-04-18T09:04:58Z</time></trkpt><trkpt lat="47.69333649317875" lon="11.894993610596304"><ele>881.0</ele><time>2026-04-18T09:04:59Z</time></trkpt><trkpt lat="47.69345639591464" lon="11.895084783945869"><ele>881.0</ele><time>2026-04-18T09:05:00Z</time></trkpt><trkpt lat="47.69356781029659" lon="11.895208026190497"><ele>881.0</ele><time>2026-04-18T09:05:01Z</time></trkpt><trkpt lat="47.69367834831258" lon="11.895339812651006"><ele>881.5</ele><time>2026-04-18T09:05:02Z</time></trkpt><trkpt lat="47.69379514663505" lon="11.895440910014054"><ele>882.0</ele><time>2026-04-18T09:05:03Z</time></trkpt><trkpt lat="47.69391814357511" lon="11.89549740787357"><ele>882.5</ele><time>2026-04-18T09:05:04Z</time></trkpt><trkpt lat="47.6940486030231" lon="11.89551528957947"><ele>883.0</ele><time>2026-04-18T09:05:05Z</time></trkpt><trkpt lat="47.69418022119563" lon="11.895510400778145"><ele>883.0</ele><time>2026-04-18T09:05:06Z</time></trkpt><trkpt lat="47.69431409731311" lon="11.89551833509948"><ele>883.0</ele><time>2026-04-18T09:05:07Z</time></trkpt><trkpt lat="47.694461144996964" lon="11.895533092457386"><ele>883.0</ele><time>2026-04-18T09:05:08Z</time></trkpt><trkpt lat="47.69460963385281" lon="11.895566478298779"><ele>883.0</ele><time>2026-04-18T09:05:09Z</time></trkpt><trkpt lat="47.69474554883067" lon="11.895619796172094"><ele>882.0</ele><time>2026-04-18T09:05:10Z</time></trkpt><trkpt lat="47.69487582701654" lon="11.895697560798652"><ele>881.0</ele><time>2026-04-18T09:05:11Z</time></trkpt><trkpt lat="47.69500217863002" lon="11.895793772582657"><ele>880.0</ele><time>2026-04-18T09:05:12Z</time></trkpt><trkpt lat="47.69512706233211" lon="11.895914752462502"><ele>879.0</ele><time>2026-04-18T09:05:13Z</time></trkpt><trkpt lat="47.695247515861055" lon="11.896052302178784"><ele>865.6666666666667</ele><time>2026-04-18T09:05:14Z</time></trkpt><trkpt lat="47.695348301993484" lon="11.89622771268484"><ele>852.3333333333334</ele><time>2026-04-18T09:05:15Z</time></trkpt><trkpt lat="47.69547327588352" lon="11.896381015235184"><ele>839.0</ele><time>2026-04-18T09:05:16Z</time></trkpt><trkpt lat="47.695576987304115" lon="11.896551213415682"><ele>839.0</ele><time>2026-04-18T09:05:17Z</time></trkpt><trkpt lat="47.695683150841" lon="11.89672681358075"><ele>839.0</ele><time>2026-04-18T09:05:18Z</time></trkpt><trkpt lat="47.69580112067177" lon="11.896911845188837"><ele>839.0</ele><time>2026-04-18T09:05:19Z</time></trkpt><trkpt lat="47.69591637656968" lon="11.897141091304348"><ele>840.0</ele><time>2026-04-18T09:05:20Z</time></trkpt><trkpt lat="47.69604710033281" lon="11.89735799986253"><ele>841.0</ele><time>2026-04-18T09:05:21Z</time></trkpt><trkpt lat="47.69617416342979" lon="11.897556269268806"><ele>842.0</ele><time>2026-04-18T09:05:22Z</time></trkpt><trkpt lat="47.69630754544621" lon="11.89772695706062"><ele>842.0</ele><time>2026-04-18T09:05:23Z</time></trkpt><trkpt lat="47.69642189461778" lon="11.897905168519403"><ele>842.0</ele><time>2026-04-18T09:05:24Z</time></trkpt><trkpt lat="47.6965435529143" lon="11.898070376335472"><ele>842.0</ele><time>2026-04-18T09:05:25Z</time></trkpt><trkpt lat="47.6966843721032" lon="11.898226746180427"><ele>842.0</ele><time>2026-04-18T09:05:26Z</time></trkpt><trkpt lat="47.696833286420464" lon="11.898368427879205"><ele>842.0</ele><time>2026-04-18T09:05:27Z</time></trkpt><trkpt lat="47.69698133169158" lon="11.898485692594425"><ele>842.0</ele><time>2026-04-18T09:05:28Z</time></trkpt><trkpt lat="47.6971274408113" lon="11.898579046816774"><ele>840.0</ele><time>2026-04-18T09:05:29Z</time></trkpt><trkpt lat="47.69727217413513" lon="11.898650147411521"><ele>838.0</ele><time>2026-04-18T09:05:30Z</time></trkpt><trkpt lat="47.69741668579728" lon="11.89871754433737"><ele>836.0</ele><time>2026-04-18T09:05:31Z</time></trkpt><trkpt lat="47.697570082492874" lon="11.89876705996173"><ele>836.0</ele><time>2026-04-18T09:05:32Z</time></trkpt><trkpt lat="47.69772885286253" lon="11.898799971513242"><ele>836.0</ele><time>2026-04-18T09:05:33Z</time></trkpt><trkpt lat="47.697887708343515" lon="11.898813467763322"><ele>836.0</ele><time>2026-04-18T09:05:34Z</time></trkpt><trkpt lat="47.698047028625396" lon="11.898814960804897"><ele>834.3333333333334</ele><time>2026-04-18T09:05:35Z</time></trkpt><trkpt lat="47.69820498511083" lon="11.898796958191198"><ele>832.6666666666667</ele><time>2026-04-18T09:05:36Z</time></trkpt><trkpt lat="47.69835932324232" lon="11.898760905860339"><ele>831.0</ele><time>2026-04-18T09:05:37Z</time></trkpt><trkpt lat="47.69850993686883" lon="11.898710266390182"><ele>828.6666666666667</ele><time>2026-04-18T09:05:38Z</time></trkpt><trkpt lat="47.69865803709099" lon="11.898638773705349"><ele>826.3333333333334</ele><time>2026-04-18T09:05:39Z</time></trkpt><trkpt lat="47.698805790894866" lon="11.898549829909076"><ele>824.0</ele><time>2026-04-18T09:05:40Z</time></trkpt><trkpt lat="47.698959874469644" lon="11.898450238279258"><ele>820.6666666666667</ele><time>2026-04-18T09:05:41Z</time></trkpt><trkpt lat="47.699119235820355" lon="11.898345151426499"><ele>817.3333333333333</ele><time>2026-04-18T09:05:42Z</time></trkpt><trkpt lat="47.699282967261134" lon="11.898242386150773"><ele>814.0</ele><time>2026-04-18T09:05:43Z</time></trkpt><trkpt lat="47.699441343205244" lon="11.898144359711347"><ele>812.3333333333333</ele><time>2026-04-18T09:05:44Z</time></trkpt><trkpt lat="47.69959641120781" lon="11.898049608357418"><ele>810.6666666666667</ele><time>2026-04-18T09:05:45Z</time></trkpt><trkpt lat="47.699753430141634" lon="11.897946153434587"><ele>809.0</ele><time>2026-04-18T09:05:46Z</time></trkpt><trkpt lat="47.69990842399982" lon="11.897844250670676"><ele>809.0</ele><time>2026-04-18T09:05:47Z</time></trkpt><trkpt lat="47.700060694918676" lon="11.897751261252766"><ele>809.0</ele><time>2026-04-18T09:05:48Z</time></trkpt><trkpt lat="47.700204790001834" lon="11.89766135925981"><ele>809.0</ele><time>2026-04-18T09:05:49Z</time></trkpt><trkpt lat="47.70034518348896" lon="11.897573286814293"><ele>805.6666666666667</ele><time>2026-04-18T09:05:50Z</time></trkpt><trkpt lat="47.70048430198085" lon="11.897493032993667"><ele>802.3333333333333</ele><time>2026-04-18T09:05:51Z</time></trkpt><trkpt lat="47.70063550214842" lon="11.89740160504864"><ele>799.0</ele><time>2026-04-18T09:05:52Z</time></trkpt><trkpt lat="47.70081476873978" lon="11.89729197842964"><ele>799.0</ele><time>2026-04-18T09:05:53Z</time></trkpt><trkpt lat="47.70099061016346" lon="11.897183141970729"><ele>799.0</ele><time>2026-04-18T09:05:54Z</time></trkpt><trkpt lat="47.70115190275589" lon="11.897085833491314"><ele>799.0</ele><time>2026-04-18T09:05:55Z</time></trkpt><trkpt lat="47.70130782058022" lon="11.896991850920086"><ele>796.6666666666666</ele><time>2026-04-18T09:05:56Z</time></trkpt><trkpt lat="47.70145277566214" lon="11.896895514519954"><ele>794.3333333333333</ele><time>2026-04-18T09:05:57Z</time></trkpt><trkpt lat="47.70159704495372" lon="11.896810617913893"><ele>792.0</ele><time>2026-04-18T09:05:58Z</time></trkpt><trkpt lat="47.70174246387922" lon="11.89671813699666"><ele>790.0</ele><time>2026-04-18T09:05:59Z</time></trkpt><trkpt lat="47.70191019682834" lon="11.896618237456964"><ele>788.0</ele><time>2026-04-18T09:06:00Z</time></trkpt><trkpt lat="47.702058645348124" lon="11.896528363347429"><ele>786.0</ele><time>2026-04-18T09:06:01Z</time></trkpt><trkpt lat="47.702201538198594" lon="11.896440403678733"><ele>784.0</ele><time>2026-04-18T09:06:02Z</time></trkpt><trkpt lat="47.702332670898976" lon="11.896357833980227"><ele>782.0</ele><time>2026-04-18T09:06:03Z</time></trkpt><trkpt lat="47.702452613833394" lon="11.896283370922687"><ele>780.0</ele><time>2026-04-18T09:06:04Z</time></trkpt><trkpt lat="47.702560334828746" lon="11.896219418706236"><ele>778.0</ele><time>2026-04-18T09:06:05Z</time></trkpt><trkpt lat="47.70264728292496" lon="11.896172677151712"><ele>777.9999999999999</ele><time>2026-04-18T09:06:06Z</time></trkpt><trkpt lat="47.70273122698702" lon="11.896132580765448"><ele>778.0</ele><time>2026-04-18T09:06:07Z</time></trkpt><trkpt lat="47.702809177515334" lon="11.896096177050556"><ele>778.0</ele><time>2026-04-18T09:06:08Z</time></trkpt><trkpt lat="47.70288274875818" lon="11.896058636048714"><ele>778.0</ele><time>2026-04-18T09:06:09Z</time></trkpt><trkpt lat="47.70295125581232" lon="11.896025963509535"><ele>777.9999999999999</ele><time>2026-04-18T09:06:10Z</time></trkpt><trkpt lat="47.70306479255528" lon="11.895969063615427"><ele>778.0</ele><time>2026-04-18T09:06:12Z</time></trkpt><trkpt lat="47.70314141587969" lon="11.89594360616337"><ele>777.3333333333333</ele><time>2026-04-18T09:06:13Z</time></trkpt><trkpt lat="47.70321791248812" lon="11.895929413486135"><ele>776.6666666666666</ele><time>2026-04-18T09:06:15Z</time></trkpt><trkpt lat="47.7032769424583" lon="11.895889151763074"><ele>776.0</ele><time>2026-04-18T09:06:18Z</time></trkpt><trkpt lat="47.70331707623857" lon="11.89575059629994"><ele>775.3333333333333</ele><time>2026-04-18T09:06:20Z</time></trkpt><trkpt lat="47.703312055307784" lon="11.895656342123655"><ele>774.6666666666666</ele><time>2026-04-18T09:06:21Z</time></trkpt><trkpt lat="47.703289424887735" lon="11.895537967001479"><ele>774.0</ele><time>2026-04-18T09:06:22Z</time></trkpt><trkpt lat="47.703246929966745" lon="11.895385911073173"><ele>774.0</ele><time>2026-04-18T09:06:23Z</time></trkpt><trkpt lat="47.70319491728389" lon="11.895214669830505"><ele>774.0</ele><time>2026-04-18T09:06:24Z</time></trkpt><trkpt lat="47.703138718210994" lon="11.895027366015244"><ele>774.0</ele><time>2026-04-18T09:06:25Z</time></trkpt><trkpt lat="47.70308644967582" lon="11.894826529748677"><ele>774.0</ele><time>2026-04-18T09:06:25.999Z</time></trkpt><trkpt lat="47.70303082927949" lon="11.894625002210779"><ele>774.5</ele><time>2026-04-18T09:06:26.999Z</time></trkpt><trkpt lat="47.70297836628644" lon="11.894443490449817"><ele>775.0</ele><time>2026-04-18T09:06:27.999Z</time></trkpt><trkpt lat="47.70293368045285" lon="11.89428117682272"><ele>775.5</ele><time>2026-04-18T09:06:28.999Z</time></trkpt><trkpt lat="47.70288714783868" lon="11.894116337790859"><ele>776.0</ele><time>2026-04-18T09:06:29.999Z</time></trkpt><trkpt lat="47.70283922330393" lon="11.893943131542745"><ele>776.4</ele><time>2026-04-18T09:06:30.999Z</time></trkpt><trkpt lat="47.7028048693365" lon="11.893806775066576"><ele>776.8</ele><time>2026-04-18T09:06:31.999Z</time></trkpt><trkpt lat="47.702774516922126" lon="11.893684488069985"><ele>777.1999999999999</ele><time>2026-04-18T09:06:32.999Z</time></trkpt><trkpt lat="47.70273146642142" lon="11.89353875021961"><ele>777.5999999999999</ele><time>2026-04-18T09:06:33.999Z</time></trkpt><trkpt lat="47.70267780194811" lon="11.893354545394482"><ele>778.0</ele><time>2026-04-18T09:06:34.999Z</time></trkpt><trkpt lat="47.70261856959039" lon="11.893142759393267"><ele>778.0</ele><time>2026-04-18T09:06:35.999Z</time></trkpt><trkpt lat="47.702566650323185" lon="11.892953297347763"><ele>778.0</ele><time>2026-04-18T09:06:36.999Z</time></trkpt><trkpt lat="47.70253060453992" lon="11.892822409526849"><ele>778.0</ele><time>2026-04-18T09:06:37.999Z</time></trkpt><trkpt lat="47.702493018637384" lon="11.892690660141994"><ele>778.0</ele><time>2026-04-18T09:06:38.999Z</time></trkpt><trkpt lat="47.70244607346352" lon="11.89252804251104"><ele>778.0</ele><time>2026-04-18T09:06:39.999Z</time></trkpt><trkpt lat="47.70239933246092" lon="11.892368328036815"><ele>778.0</ele><time>2026-04-18T09:06:40.999Z</time></trkpt><trkpt lat="47.702374817056786" lon="11.892270770953875"><ele>778.0</ele><time>2026-04-18T09:06:41.999Z</time></trkpt><trkpt lat="47.7023469495771" lon="11.892169351068674"><ele>778.0</ele><time>2026-04-18T09:06:42.999Z</time></trkpt><trkpt lat="47.702304908666044" lon="11.892027369037848"><ele>778.0</ele><time>2026-04-18T09:06:43.999Z</time></trkpt><trkpt lat="47.70224976731618" lon="11.891835570525009"><ele>778.0</ele><time>2026-04-18T09:06:44.999Z</time></trkpt><trkpt lat="47.70219306292567" lon="11.891621953656884"><ele>777.75</ele><time>2026-04-18T09:06:45.999Z</time></trkpt><trkpt lat="47.70214387201217" lon="11.891437842191973"><ele>777.5</ele><time>2026-04-18T09:06:46.999Z</time></trkpt><trkpt lat="47.70209452278738" lon="11.89126608858527"><ele>777.25</ele><time>2026-04-18T09:06:47.999Z</time></trkpt><trkpt lat="47.70204672613612" lon="11.891093124337136"><ele>777.0</ele><time>2026-04-18T09:06:48.999Z</time></trkpt><trkpt lat="47.70199606872821" lon="11.890901135246375"><ele>777.0</ele><time>2026-04-18T09:06:49.999Z</time></trkpt><trkpt lat="47.70193442538684" lon="11.890671323785192"><ele>777.0</ele><time>2026-04-18T09:06:50.999Z</time></trkpt><trkpt lat="47.70188319853214" lon="11.890473133640873"><ele>777.0</ele><time>2026-04-18T09:06:51.999Z</time></trkpt><trkpt lat="47.70183923368594" lon="11.890288772713275"><ele>777.0</ele><time>2026-04-18T09:06:52.999Z</time></trkpt><trkpt lat="47.70180358369978" lon="11.890106413005642"><ele>776.75</ele><time>2026-04-18T09:06:53.999Z</time></trkpt><trkpt lat="47.701775562289065" lon="11.889924308370032"><ele>776.5</ele><time>2026-04-18T09:06:54.999Z</time></trkpt><trkpt lat="47.70175023394354" lon="11.889735905754845"><ele>776.25</ele><time>2026-04-18T09:06:55.999Z</time></trkpt><trkpt lat="47.70172818016114" lon="11.889540820993618"><ele>776.0</ele><time>2026-04-18T09:06:56.999Z</time></trkpt><trkpt lat="47.70170874217297" lon="11.88934490366911"><ele>776.0</ele><time>2026-04-18T09:06:57.999Z</time></trkpt><trkpt lat="47.7016941199018" lon="11.889170205518496"><ele>776.0</ele><time>2026-04-18T09:06:58.999Z</time></trkpt><trkpt lat="47.70168649526836" lon="11.889043294614575"><ele>776.0</ele><time>2026-04-18T09:06:59.999Z</time></trkpt><trkpt lat="47.70168359958857" lon="11.888914573170203"><ele>776.0</ele><time>2026-04-18T09:07:00.999Z</time></trkpt><trkpt lat="47.701683648099355" lon="11.888769724863357"><ele>776.0</ele><time>2026-04-18T09:07:01.999Z</time></trkpt><trkpt lat="47.7016857607062" lon="11.888620172952164"><ele>776.0</ele><time>2026-04-18T09:07:02.999Z</time></trkpt><trkpt lat="47.701687600664556" lon="11.888525501855622"><ele>776.0</ele><time>2026-04-18T09:07:03.999Z</time></trkpt><trkpt lat="47.70169298895586" lon="11.88834213386492"><ele>776.0</ele><time>2026-04-18T09:07:05.999Z</time></trkpt><trkpt lat="47.701699907197316" lon="11.888217047544822"><ele>776.0</ele><time>2026-04-18T09:07:06.999Z</time></trkpt><trkpt lat="47.7017110063326" lon="11.88808328384488"><ele>776.0</ele><time>2026-04-18T09:07:07.999Z</time></trkpt><trkpt lat="47.7017230385134" lon="11.88795042335635"><ele>776.5000000000001</ele><time>2026-04-18T09:07:08.999Z</time></trkpt><trkpt lat="47.701734040341755" lon="11.887840364655128"><ele>777.0</ele><time>2026-04-18T09:07:09.999Z</time></trkpt><trkpt lat="47.70174675372044" lon="11.887740317364091"><ele>777.5</ele><time>2026-04-18T09:07:10.999Z</time></trkpt><trkpt lat="47.70176316283339" lon="11.887631210478279"><ele>778.0</ele><time>2026-04-18T09:07:11.999Z</time></trkpt><trkpt lat="47.701783896692795" lon="11.887498213031922"><ele>778.5000000000001</ele><time>2026-04-18T09:07:12.999Z</time></trkpt><trkpt lat="47.70181136589277" lon="11.887341804490264"><ele>779.0</ele><time>2026-04-18T09:07:13.999Z</time></trkpt><trkpt lat="47.70184149721472" lon="11.887182243452678"><ele>779.0</ele><time>2026-04-18T09:07:14.999Z</time></trkpt><trkpt lat="47.701873863071846" lon="11.88702384669746"><ele>779.0</ele><time>2026-04-18T09:07:15.999Z</time></trkpt><trkpt lat="47.70191246858979" lon="11.886869441067569"><ele>779.0</ele><time>2026-04-18T09:07:16.999Z</time></trkpt><trkpt lat="47.701953094645134" lon="11.886718544748433"><ele>779.0</ele><time>2026-04-18T09:07:17.999Z</time></trkpt><trkpt lat="47.70199670448012" lon="11.886569986508134"><ele>779.0</ele><time>2026-04-18T09:07:18.999Z</time></trkpt><trkpt lat="47.702036713004716" lon="11.886428655373573"><ele>779.4000000000001</ele><time>2026-04-18T09:07:19.999Z</time></trkpt><trkpt lat="47.7020728773691" lon="11.886295746759004"><ele>779.8</ele><time>2026-04-18T09:07:20.999Z</time></trkpt><trkpt lat="47.7021136449468" lon="11.88615147959867"><ele>780.2</ele><time>2026-04-18T09:07:21.999Z</time></trkpt><trkpt lat="47.70215713498632" lon="11.886002724130632"><ele>780.5999999999999</ele><time>2026-04-18T09:07:22.999Z</time></trkpt><trkpt lat="47.702192903007465" lon="11.885873962798303"><ele>781.0</ele><time>2026-04-18T09:07:23.999Z</time></trkpt><trkpt lat="47.702226171505856" lon="11.885758533430268"><ele>781.8</ele><time>2026-04-18T09:07:24.999Z</time></trkpt><trkpt lat="47.702260054048566" lon="11.885634647395854"><ele>782.5999999999999</ele><time>2026-04-18T09:07:25.999Z</time></trkpt><trkpt lat="47.702294592215615" lon="11.885508283846704"><ele>783.4</ele><time>2026-04-18T09:07:26.999Z</time></trkpt><trkpt lat="47.70233009734039" lon="11.885374147202281"><ele>784.2</ele><time>2026-04-18T09:07:27.999Z</time></trkpt><trkpt lat="47.70236070185851" lon="11.8852433080668"><ele>785.0</ele><time>2026-04-18T09:07:28.999Z</time></trkpt><trkpt lat="47.702384098603794" lon="11.885132794764765"><ele>785.3333333333334</ele><time>2026-04-18T09:07:29.999Z</time></trkpt><trkpt lat="47.70240764358189" lon="11.885022926292319"><ele>785.6666666666667</ele><time>2026-04-18T09:07:30.999Z</time></trkpt><trkpt lat="47.70243262790367" lon="11.884913251548932"><ele>786.0</ele><time>2026-04-18T09:07:31.999Z</time></trkpt><trkpt lat="47.702456957419066" lon="11.884795365682217"><ele>786.3333333333333</ele><time>2026-04-18T09:07:32.999Z</time></trkpt><trkpt lat="47.702477592154516" lon="11.884666293594286"><ele>786.6666666666666</ele><time>2026-04-18T09:07:33.999Z</time></trkpt><trkpt lat="47.7025047606619" lon="11.884523092284844"><ele>787.0</ele><time>2026-04-18T09:07:34.999Z</time></trkpt><trkpt lat="47.702537259686444" lon="11.88437604880305"><ele>787.4000000000001</ele><time>2026-04-18T09:07:35.999Z</time></trkpt><trkpt lat="47.70256657508952" lon="11.884233248069897"><ele>787.8000000000001</ele><time>2026-04-18T09:07:36.999Z</time></trkpt><trkpt lat="47.70259496329881" lon="11.884097418342094"><ele>788.2</ele><time>2026-04-18T09:07:37.999Z</time></trkpt><trkpt lat="47.70261981067285" lon="11.883970340678658"><ele>788.6</ele><time>2026-04-18T09:07:38.999Z</time></trkpt><trkpt lat="47.70264352844385" lon="11.883851072455451"><ele>789.0</ele><time>2026-04-18T09:07:39.999Z</time></trkpt><trkpt lat="47.702667947989745" lon="11.883727184021625"><ele>789.0</ele><time>2026-04-18T09:07:40.999Z</time></trkpt><trkpt lat="47.702692958995264" lon="11.883598702065798"><ele>789.0</ele><time>2026-04-18T09:07:41.999Z</time></trkpt><trkpt lat="47.702716952312386" lon="11.88346918262087"><ele>789.0</ele><time>2026-04-18T09:07:42.999Z</time></trkpt><trkpt lat="47.70274212959769" lon="11.88333380775279"><ele>789.0</ele><time>2026-04-18T09:07:43.999Z</time></trkpt><trkpt lat="47.70276449671579" lon="11.883215664201119"><ele>789.0</ele><time>2026-04-18T09:07:44.999Z</time></trkpt><trkpt lat="47.70278771684925" lon="11.8830989501809"><ele>789.0</ele><time>2026-04-18T09:07:45.999Z</time></trkpt><trkpt lat="47.70281178231281" lon="11.882977430646406"><ele>789.6666666666666</ele><time>2026-04-18T09:07:46.999Z</time></trkpt><trkpt lat="47.70283973834977" lon="11.882847207998513"><ele>790.3333333333333</ele><time>2026-04-18T09:07:47.999Z</time></trkpt><trkpt lat="47.70286617019835" lon="11.882716344270065"><ele>791.0</ele><time>2026-04-18T09:07:48.999Z</time></trkpt><trkpt lat="47.70288906476812" lon="11.882588821846856"><ele>791.6666666666666</ele><time>2026-04-18T09:07:49.999Z</time></trkpt><trkpt lat="47.70291090609812" lon="11.882464293483437"><ele>792.3333333333333</ele><time>2026-04-18T09:07:50.999Z</time></trkpt><trkpt lat="47.70293150064408" lon="11.882344218524343"><ele>793.0</ele><time>2026-04-18T09:07:51.999Z</time></trkpt><trkpt lat="47.70295287102298" lon="11.882225500471502"><ele>793.2</ele><time>2026-04-18T09:07:52.999Z</time></trkpt><trkpt lat="47.70297913357901" lon="11.882104859007681"><ele>793.4</ele><time>2026-04-18T09:07:53.999Z</time></trkpt><trkpt lat="47.70300761632306" lon="11.88197247846945"><ele>793.6</ele><time>2026-04-18T09:07:54.999Z</time></trkpt><trkpt lat="47.70303850969455" lon="11.8818319600393"><ele>793.8000000000001</ele><time>2026-04-18T09:07:55.999Z</time></trkpt><trkpt lat="47.703066071276545" lon="11.881689718817892"><ele>794.0</ele><time>2026-04-18T09:07:56.999Z</time></trkpt><trkpt lat="47.703090353606605" lon="11.881553384123617"><ele>794.8000000000001</ele><time>2026-04-18T09:07:57.999Z</time></trkpt><trkpt lat="47.70311235495712" lon="11.88142169191102"><ele>795.6</ele><time>2026-04-18T09:07:58.999Z</time></trkpt><trkpt lat="47.70313532089279" lon="11.881295794752827"><ele>796.4</ele><time>2026-04-18T09:07:59.999Z</time></trkpt><trkpt lat="47.70317007764684" lon="11.881168394318337"><ele>797.2</ele><time>2026-04-18T09:08:00.999Z</time></trkpt><trkpt lat="47.70320161826483" lon="11.881029009450733"><ele>798.0</ele><time>2026-04-18T09:08:01.999Z</time></trkpt><trkpt lat="47.703226217963184" lon="11.880883085993114"><ele>799.0</ele><time>2026-04-18T09:08:02.999Z</time></trkpt><trkpt lat="47.703250899133714" lon="11.880733533627488"><ele>800.0</ele><time>2026-04-18T09:08:03.999Z</time></trkpt><trkpt lat="47.7032756830719" lon="11.880584328099937"><ele>801.0</ele><time>2026-04-18T09:08:04.999Z</time></trkpt><trkpt lat="47.703301694510046" lon="11.880440174571502"><ele>802.0</ele><time>2026-04-18T09:08:05.999Z</time></trkpt><trkpt lat="47.70332899578293" lon="11.880303631927468"><ele>803.0</ele><time>2026-04-18T09:08:06.999Z</time></trkpt><trkpt lat="47.70335310470531" lon="11.8801773560424"><ele>803.3333333333334</ele><time>2026-04-18T09:08:07.999Z</time></trkpt><trkpt lat="47.70337677143295" lon="11.880061316801367"><ele>803.6666666666667</ele><time>2026-04-18T09:08:08.999Z</time></trkpt><trkpt lat="47.70339889957218" lon="11.879952149661772"><ele>804.0</ele><time>2026-04-18T09:08:09.999Z</time></trkpt><trkpt lat="47.70342123505434" lon="11.87984471933411"><ele>804.3333333333333</ele><time>2026-04-18T09:08:10.999Z</time></trkpt><trkpt lat="47.703441885171266" lon="11.879731346412369"><ele>804.6666666666666</ele><time>2026-04-18T09:08:11.999Z</time></trkpt><trkpt lat="47.70346424223824" lon="11.879612346518325"><ele>805.0</ele><time>2026-04-18T09:08:12.999Z</time></trkpt><trkpt lat="47.703487240235155" lon="11.879500445402202"><ele>804.9999999999999</ele><time>2026-04-18T09:08:13.999Z</time></trkpt><trkpt lat="47.703510321710155" lon="11.879393427608056"><ele>805.0</ele><time>2026-04-18T09:08:14.999Z</time></trkpt><trkpt lat="47.703534747009535" lon="11.879287155275486"><ele>805.0</ele><time>2026-04-18T09:08:15.999Z</time></trkpt><trkpt lat="47.70355866577354" lon="11.87917160154861"><ele>805.0</ele><time>2026-04-18T09:08:16.999Z</time></trkpt><trkpt lat="47.70358485144802" lon="11.879052238297238"><ele>804.9999999999999</ele><time>2026-04-18T09:08:17.999Z</time></trkpt><trkpt lat="47.70361444245097" lon="11.878938947380645"><ele>805.0</ele><time>2026-04-18T09:08:18.999Z</time></trkpt><trkpt lat="47.70364163505043" lon="11.878841400300978"><ele>806.2</ele><time>2026-04-18T09:08:19.999Z</time></trkpt><trkpt lat="47.70369194306821" lon="11.878696178759851"><ele>807.4</ele><time>2026-04-18T09:08:21.999Z</time></trkpt><trkpt lat="47.70375463016165" lon="11.878535938510868"><ele>808.5999999999999</ele><time>2026-04-18T09:08:23.999Z</time></trkpt><trkpt lat="47.703795067014404" lon="11.878450958578897"><ele>809.8</ele><time>2026-04-18T09:08:24.999Z</time></trkpt><trkpt lat="47.70384758038176" lon="11.87834639906688"><ele>811.0</ele><time>2026-04-18T09:08:25.999Z</time></trkpt><trkpt lat="47.70391641895816" lon="11.87821587572291"><ele>811.0</ele><time>2026-04-18T09:08:26.999Z</time></trkpt><trkpt lat="47.7039883289353" lon="11.878097227940073"><ele>811.0</ele><time>2026-04-18T09:08:27.999Z</time></trkpt><trkpt lat="47.704059466051255" lon="11.877993198190842"><ele>811.0</ele><time>2026-04-18T09:08:28.999Z</time></trkpt><trkpt lat="47.704126858825084" lon="11.877892720950072"><ele>811.0</ele><time>2026-04-18T09:08:29.999Z</time></trkpt><trkpt lat="47.70418447999967" lon="11.877806897395"><ele>811.0</ele><time>2026-04-18T09:08:30.999Z</time></trkpt><trkpt lat="47.70424320244923" lon="11.877714331855898"><ele>810.9999999999999</ele><time>2026-04-18T09:08:32.999Z</time></trkpt><trkpt lat="47.70431248200116" lon="11.877607068839346"><ele>811.0</ele><time>2026-04-18T09:08:34.999Z</time></trkpt><trkpt lat="47.70435677047551" lon="11.877536234253505"><ele>811.0</ele><time>2026-04-18T09:08:35.999Z</time></trkpt><trkpt lat="47.704409193199" lon="11.877455480598293"><ele>811.0</ele><time>2026-04-18T09:08:36.999Z</time></trkpt><trkpt lat="47.704466968431916" lon="11.87736682281673"><ele>810.9999999999999</ele><time>2026-04-18T09:08:37.999Z</time></trkpt><trkpt lat="47.7045239896065" lon="11.877280552609534"><ele>811.0</ele><time>2026-04-18T09:08:38.999Z</time></trkpt><trkpt lat="47.70458482595366" lon="11.877194750426773"><ele>811.0</ele><time>2026-04-18T09:08:39.999Z</time></trkpt><trkpt lat="47.70464757937025" lon="11.877104608384938"><ele>811.0</ele><time>2026-04-18T09:08:40.999Z</time></trkpt><trkpt lat="47.70471528261952" lon="11.877004898766584"><ele>811.0</ele><time>2026-04-18T09:08:41.999Z</time></trkpt><trkpt lat="47.70479421675423" lon="11.876893845763368"><ele>811.0</ele><time>2026-04-18T09:08:42.999Z</time></trkpt><trkpt lat="47.70487512132818" lon="11.876784579516578"><ele>811.0</ele><time>2026-04-18T09:08:43.999Z</time></trkpt><trkpt lat="47.70495430098512" lon="11.876678002760395"><ele>810.8</ele><time>2026-04-18T09:08:44.999Z</time></trkpt><trkpt lat="47.70503223665144" lon="11.876575877772707"><ele>810.5999999999999</ele><time>2026-04-18T09:08:45.999Z</time></trkpt><trkpt lat="47.70510539213701" lon="11.876482899386366"><ele>810.4</ele><time>2026-04-18T09:08:46.999Z</time></trkpt><trkpt lat="47.70517975005155" lon="11.876389887902107"><ele>810.2</ele><time>2026-04-18T09:08:47.999Z</time></trkpt><trkpt lat="47.70525152785206" lon="11.876298610937381"><ele>810.0</ele><time>2026-04-18T09:08:48.999Z</time></trkpt><trkpt lat="47.70532136075496" lon="11.876209085086838"><ele>810.0</ele><time>2026-04-18T09:08:49.999Z</time></trkpt><trkpt lat="47.705390073734876" lon="11.876123811914537"><ele>810.0</ele><time>2026-04-18T09:08:50.999Z</time></trkpt><trkpt lat="47.70545745148666" lon="11.876042162264701"><ele>810.0</ele><time>2026-04-18T09:08:51.999Z</time></trkpt><trkpt lat="47.70552508202781" lon="11.875957337288343"><ele>810.0</ele><time>2026-04-18T09:08:52.999Z</time></trkpt><trkpt lat="47.705591774867436" lon="11.875870951807556"><ele>810.0</ele><time>2026-04-18T09:08:53.999Z</time></trkpt><trkpt lat="47.705660854825005" lon="11.875785092311592"><ele>810.0</ele><time>2026-04-18T09:08:54.999Z</time></trkpt><trkpt lat="47.705724834266015" lon="11.875710298154555"><ele>809.5714285714286</ele><time>2026-04-18T09:08:55.999Z</time></trkpt><trkpt lat="47.70578748373441" lon="11.875636115567383"><ele>809.1428571428571</ele><time>2026-04-18T09:08:56.999Z</time></trkpt><trkpt lat="47.70584717463594" lon="11.87556908763417"><ele>808.7142857142858</ele><time>2026-04-18T09:08:57.999Z</time></trkpt><trkpt lat="47.70590760826403" lon="11.875514560742937"><ele>808.2857142857142</ele><time>2026-04-18T09:08:58.999Z</time></trkpt><trkpt lat="47.70597309772071" lon="11.875463312994455"><ele>807.8571428571429</ele><time>2026-04-18T09:08:59.999Z</time></trkpt><trkpt lat="47.70603860895067" lon="11.875412568218593"><ele>807.4285714285714</ele><time>2026-04-18T09:09:00.999Z</time></trkpt><trkpt lat="47.7060950200101" lon="11.875358591298088"><ele>807.0</ele><time>2026-04-18T09:09:01.999Z</time></trkpt><trkpt lat="47.70615221353165" lon="11.875296584718777"><ele>806.2</ele><time>2026-04-18T09:09:02.999Z</time></trkpt><trkpt lat="47.70621144393251" lon="11.87521941347802"><ele>805.4000000000001</ele><time>2026-04-18T09:09:03.999Z</time></trkpt><trkpt lat="47.70628359566533" lon="11.875124897920077"><ele>804.5999999999999</ele><time>2026-04-18T09:09:04.999Z</time></trkpt><trkpt lat="47.70636249131491" lon="11.8750116278318"><ele>803.8</ele><time>2026-04-18T09:09:05.999Z</time></trkpt><trkpt lat="47.706442003318365" lon="11.874886284862246"><ele>803.0</ele><time>2026-04-18T09:09:06.999Z</time></trkpt><trkpt lat="47.706522491176834" lon="11.8747527591013"><ele>803.0</ele><time>2026-04-18T09:09:07.999Z</time></trkpt><trkpt lat="47.706609331154276" lon="11.874628486734043"><ele>803.0</ele><time>2026-04-18T09:09:08.999Z</time></trkpt><trkpt lat="47.70669859067299" lon="11.874529576421859"><ele>803.0</ele><time>2026-04-18T09:09:09.999Z</time></trkpt><trkpt lat="47.706781356121915" lon="11.87444103029548"><ele>803.0</ele><time>2026-04-18T09:09:10.999Z</time></trkpt><trkpt lat="47.706861605594874" lon="11.874363358373856"><ele>803.0</ele><time>2026-04-18T09:09:11.999Z</time></trkpt><trkpt lat="47.70694370206871" lon="11.874287198049085"><ele>802.8</ele><time>2026-04-18T09:09:12.999Z</time></trkpt><trkpt lat="47.70702945171569" lon="11.87421424690643"><ele>802.5999999999999</ele><time>2026-04-18T09:09:13.999Z</time></trkpt><trkpt lat="47.707120921001675" lon="11.874141227285033"><ele>802.4000000000001</ele><time>2026-04-18T09:09:14.999Z</time></trkpt><trkpt lat="47.70721720248803" lon="11.874065887668223"><ele>802.2</ele><time>2026-04-18T09:09:15.999Z</time></trkpt><trkpt lat="47.707321121039755" lon="11.873996103130745"><ele>802.0</ele><time>2026-04-18T09:09:16.999Z</time></trkpt><trkpt lat="47.70742858295559" lon="11.873944565078377"><ele>802.0</ele><time>2026-04-18T09:09:17.999Z</time></trkpt><trkpt lat="47.707541052801446" lon="11.873905733665337"><ele>802.0</ele><time>2026-04-18T09:09:18.999Z</time></trkpt><trkpt lat="47.70765830092767" lon="11.873885208162793"><ele>802.0</ele><time>2026-04-18T09:09:19.999Z</time></trkpt><trkpt lat="47.70777864331642" lon="11.87388309986715"><ele>802.0</ele><time>2026-04-18T09:09:20.999Z</time></trkpt><trkpt lat="47.70789817908295" lon="11.873885126007139"><ele>801.5</ele><time>2026-04-18T09:09:21.999Z</time></trkpt><trkpt lat="47.708018872029214" lon="11.873886973993221"><ele>801.0</ele><time>2026-04-18T09:09:22.999Z</time></trkpt><trkpt lat="47.70814458335271" lon="11.873890415802661"><ele>800.5</ele><time>2026-04-18T09:09:23.999Z</time></trkpt><trkpt lat="47.70826982174523" lon="11.87388794797245"><ele>800.0</ele><time>2026-04-18T09:09:24.999Z</time></trkpt><trkpt lat="47.70838897729845" lon="11.87386426007036"><ele>800.0</ele><time>2026-04-18T09:09:25.999Z</time></trkpt><trkpt lat="47.708501030406154" lon="11.87380192624247"><ele>800.0</ele><time>2026-04-18T09:09:26.999Z</time></trkpt><trkpt lat="47.70860677441301" lon="11.873717732812892"><ele>800.0</ele><time>2026-04-18T09:09:27.999Z</time></trkpt><trkpt lat="47.708703061226814" lon="11.873608046005442"><ele>800.0</ele><time>2026-04-18T09:09:28.999Z</time></trkpt><trkpt lat="47.70879299072482" lon="11.87348274889446"><ele>798.5</ele><time>2026-04-18T09:09:29.999Z</time></trkpt><trkpt lat="47.708885051212675" lon="11.873348600772834"><ele>797.0</ele><time>2026-04-18T09:09:30.999Z</time></trkpt><trkpt lat="47.708988537273285" lon="11.873205210510463"><ele>795.5</ele><time>2026-04-18T09:09:31.999Z</time></trkpt><trkpt lat="47.70910766633937" lon="11.873050812084673"><ele>794.0</ele><time>2026-04-18T09:09:32.999Z</time></trkpt><trkpt lat="47.709226035961734" lon="11.872898782178364"><ele>794.0</ele><time>2026-04-18T09:09:33.999Z</time></trkpt><trkpt lat="47.709335316797066" lon="11.872766656383416"><ele>794.0</ele><time>2026-04-18T09:09:34.999Z</time></trkpt><trkpt lat="47.709454557964236" lon="11.872639331437183"><ele>794.0</ele><time>2026-04-18T09:09:35.999Z</time></trkpt><trkpt lat="47.70958523438183" lon="11.872526938077726"><ele>794.0</ele><time>2026-04-18T09:09:36.999Z</time></trkpt><trkpt lat="47.709722884308235" lon="11.872428297913794"><ele>793.6666666666667</ele><time>2026-04-18T09:09:37.999Z</time></trkpt><trkpt lat="47.709855672014875" lon="11.87231983692684"><ele>793.3333333333333</ele><time>2026-04-18T09:09:38.999Z</time></trkpt><trkpt lat="47.709980567439345" lon="11.872190082406469"><ele>793.0</ele><time>2026-04-18T09:09:39.999Z</time></trkpt><trkpt lat="47.71009796522497" lon="11.872045236200265"><ele>793.0</ele><time>2026-04-18T09:09:40.999Z</time></trkpt><trkpt lat="47.71020712083986" lon="11.871893103443758"><ele>793.0</ele><time>2026-04-18T09:09:41.999Z</time></trkpt><trkpt lat="47.71031166753361" lon="11.871735809506198"><ele>793.0</ele><time>2026-04-18T09:09:42.999Z</time></trkpt><trkpt lat="47.71041742171823" lon="11.871579248157"><ele>793.0</ele><time>2026-04-18T09:09:43.999Z</time></trkpt><trkpt lat="47.710524944552425" lon="11.871423400305328"><ele>792.75</ele><time>2026-04-18T09:09:44.999Z</time></trkpt><trkpt lat="47.71062750900179" lon="11.871268096213493"><ele>792.5</ele><time>2026-04-18T09:09:45.999Z</time></trkpt><trkpt lat="47.71072832099687" lon="11.871116363337302"><ele>792.25</ele><time>2026-04-18T09:09:46.999Z</time></trkpt><trkpt lat="47.710829895496694" lon="11.870967659241444"><ele>792.0</ele><time>2026-04-18T09:09:47.999Z</time></trkpt><trkpt lat="47.71092771960092" lon="11.870819557828264"><ele>791.25</ele><time>2026-04-18T09:09:48.999Z</time></trkpt><trkpt lat="47.71102492927365" lon="11.870671459943337"><ele>790.5</ele><time>2026-04-18T09:09:49.999Z</time></trkpt><trkpt lat="47.71112434948519" lon="11.87052712247998"><ele>789.75</ele><time>2026-04-18T09:09:50.999Z</time></trkpt><trkpt lat="47.71122747431384" lon="11.870382166802107"><ele>789.0</ele><time>2026-04-18T09:09:51.999Z</time></trkpt><trkpt lat="47.71133233429671" lon="11.870238296649623"><ele>787.75</ele><time>2026-04-18T09:09:52.999Z</time></trkpt><trkpt lat="47.711442278823895" lon="11.870100044886744"><ele>786.5</ele><time>2026-04-18T09:09:53.999Z</time></trkpt><trkpt lat="47.71155844283608" lon="11.86996485987441"><ele>785.25</ele><time>2026-04-18T09:09:54.999Z</time></trkpt><trkpt lat="47.71168418158387" lon="11.869839291916653"><ele>784.0</ele><time>2026-04-18T09:09:55.999Z</time></trkpt><trkpt lat="47.71182699098896" lon="11.869734921256136"><ele>783.25</ele><time>2026-04-18T09:09:56.999Z</time></trkpt><trkpt lat="47.71197903227864" lon="11.869661256070048"><ele>782.5</ele><time>2026-04-18T09:09:57.999Z</time></trkpt><trkpt lat="47.71212486007867" lon="11.869618848934117"><ele>781.75</ele><time>2026-04-18T09:09:58.999Z</time></trkpt><trkpt lat="47.712264656669745" lon="11.8696089306068"><ele>781.0</ele><time>2026-04-18T09:09:59.999Z</time></trkpt><trkpt lat="47.71239933261392" lon="11.86962103170467"><ele>781.0</ele><time>2026-04-18T09:10:00.999Z</time></trkpt><trkpt lat="47.71252699492225" lon="11.869657766744428"><ele>781.0</ele><time>2026-04-18T09:10:01.999Z</time></trkpt><trkpt lat="47.71265256265568" lon="11.869712547140775"><ele>781.0</ele><time>2026-04-18T09:10:02.999Z</time></trkpt><trkpt lat="47.71277535209895" lon="11.869784740740709"><ele>781.0</ele><time>2026-04-18T09:10:03.999Z</time></trkpt><trkpt lat="47.71290434981474" lon="11.869873289147822"><ele>780.5</ele><time>2026-04-18T09:10:04.999Z</time></trkpt><trkpt lat="47.71303207647681" lon="11.869973187743414"><ele>780.0</ele><time>2026-04-18T09:10:05.999Z</time></trkpt><trkpt lat="47.71315734686069" lon="11.870084164070974"><ele>779.5</ele><time>2026-04-18T09:10:06.999Z</time></trkpt><trkpt lat="47.71327841475517" lon="11.870198337854521"><ele>779.0</ele><time>2026-04-18T09:10:07.999Z</time></trkpt><trkpt lat="47.71339873327128" lon="11.870307889497735"><ele>779.75</ele><time>2026-04-18T09:10:08.999Z</time></trkpt><trkpt lat="47.713514461022655" lon="11.870419056121255"><ele>780.5</ele><time>2026-04-18T09:10:09.999Z</time></trkpt><trkpt lat="47.713628105151855" lon="11.870531587517958"><ele>781.25</ele><time>2026-04-18T09:10:10.999Z</time></trkpt><trkpt lat="47.71374253392068" lon="11.870644090247483"><ele>782.0</ele><time>2026-04-18T09:10:11.999Z</time></trkpt><trkpt lat="47.71385803457752" lon="11.87074398242821"><ele>782.0</ele><time>2026-04-18T09:10:12.999Z</time></trkpt><trkpt lat="47.713969518168746" lon="11.870815916197301"><ele>782.0</ele><time>2026-04-18T09:10:13.999Z</time></trkpt><trkpt lat="47.71408003802453" lon="11.870864807500348"><ele>782.0</ele><time>2026-04-18T09:10:14.999Z</time></trkpt><trkpt lat="47.714191559793434" lon="11.870889818926731"><ele>782.0</ele><time>2026-04-18T09:10:15.999Z</time></trkpt><trkpt lat="47.71430487443775" lon="11.870894518396963"><ele>784.0</ele><time>2026-04-18T09:10:16.999Z</time></trkpt><trkpt lat="47.714418661413596" lon="11.870871317751913"><ele>786.0</ele><time>2026-04-18T09:10:17.999Z</time></trkpt><trkpt lat="47.7145310408209" lon="11.87082479975108"><ele>788.0</ele><time>2026-04-18T09:10:18.999Z</time></trkpt><trkpt lat="47.71464034811018" lon="11.87075452262182"><ele>790.0</ele><time>2026-04-18T09:10:19.999Z</time></trkpt><trkpt lat="47.7147428687587" lon="11.870663232442984"><ele>790.0</ele><time>2026-04-18T09:10:20.999Z</time></trkpt><trkpt lat="47.71483974949845" lon="11.870548550266342"><ele>790.0</ele><time>2026-04-18T09:10:21.999Z</time></trkpt><trkpt lat="47.714925481401714" lon="11.870424208476532"><ele>790.0</ele><time>2026-04-18T09:10:22.999Z</time></trkpt><trkpt lat="47.7149964016182" lon="11.870301736943492"><ele>790.0</ele><time>2026-04-18T09:10:23.999Z</time></trkpt><trkpt lat="47.71505568900054" lon="11.870194695798556"><ele>790.0</ele><time>2026-04-18T09:10:24.999Z</time></trkpt><trkpt lat="47.71511500742055" lon="11.870098852965228"><ele>791.0</ele><time>2026-04-18T09:10:25.999Z</time></trkpt><trkpt lat="47.715178692047324" lon="11.870005674618143"><ele>792.0</ele><time>2026-04-18T09:10:26.999Z</time></trkpt><trkpt lat="47.715246736398996" lon="11.86990541049922"><ele>793.0</ele><time>2026-04-18T09:10:27.999Z</time></trkpt><trkpt lat="47.71531894833318" lon="11.869817207794496"><ele>794.0</ele><time>2026-04-18T09:10:28.999Z</time></trkpt><trkpt lat="47.71540021767136" lon="11.869741198426496"><ele>795.0</ele><time>2026-04-18T09:10:29.999Z</time></trkpt><trkpt lat="47.7154787904066" lon="11.869679996925111"><ele>795.0</ele><time>2026-04-18T09:10:30.999Z</time></trkpt><trkpt lat="47.71554913229927" lon="11.869628545946723"><ele>795.0</ele><time>2026-04-18T09:10:31.999Z</time></trkpt><trkpt lat="47.71561668488415" lon="11.869577039747037"><ele>795.0</ele><time>2026-04-18T09:10:32.999Z</time></trkpt><trkpt lat="47.71568384489336" lon="11.869537485844171"><ele>795.0</ele><time>2026-04-18T09:10:33.999Z</time></trkpt><trkpt lat="47.715762593416805" lon="11.869495469893732"><ele>795.0</ele><time>2026-04-18T09:10:34.999Z</time></trkpt><trkpt lat="47.715859316597246" lon="11.8694581600499"><ele>795.0</ele><time>2026-04-18T09:10:35.999Z</time></trkpt><trkpt lat="47.71596940764357" lon="11.86942117208954"><ele>795.2</ele><time>2026-04-18T09:10:36.999Z</time></trkpt><trkpt lat="47.71608420580995" lon="11.869397699147958"><ele>795.4</ele><time>2026-04-18T09:10:37.999Z</time></trkpt><trkpt lat="47.71617979913852" lon="11.869384874651985"><ele>795.5999999999999</ele><time>2026-04-18T09:10:38.999Z</time></trkpt><trkpt lat="47.71626607380563" lon="11.86938053158608"><ele>795.8</ele><time>2026-04-18T09:10:39.999Z</time></trkpt><trkpt lat="47.71634720094213" lon="11.869382546926717"><ele>796.0</ele><time>2026-04-18T09:10:40.999Z</time></trkpt><trkpt lat="47.71642668626622" lon="11.869390578804039"><ele>796.0</ele><time>2026-04-18T09:10:41.999Z</time></trkpt><trkpt lat="47.71651491691092" lon="11.869399938126033"><ele>796.0</ele><time>2026-04-18T09:10:42.999Z</time></trkpt><trkpt lat="47.71661015677851" lon="11.869408803132592"><ele>796.0</ele><time>2026-04-18T09:10:43.999Z</time></trkpt><trkpt lat="47.71671240159719" lon="11.869424261757686"><ele>796.0</ele><time>2026-04-18T09:10:44.999Z</time></trkpt><trkpt lat="47.716820184635075" lon="11.869447824603537"><ele>796.0</ele><time>2026-04-18T09:10:45.999Z</time></trkpt><trkpt lat="47.71692749800284" lon="11.869478488292012"><ele>793.4</ele><time>2026-04-18T09:10:46.999Z</time></trkpt><trkpt lat="47.71702490041781" lon="11.869511556914413"><ele>790.8</ele><time>2026-04-18T09:10:47.999Z</time></trkpt><trkpt lat="47.71712538864722" lon="11.869549643641898"><ele>788.1999999999999</ele><time>2026-04-18T09:10:48.999Z</time></trkpt><trkpt lat="47.7172285611036" lon="11.869587303409073"><ele>785.5999999999999</ele><time>2026-04-18T09:10:49.999Z</time></trkpt><trkpt lat="47.717329808113476" lon="11.869619829939126"><ele>783.0</ele><time>2026-04-18T09:10:50.999Z</time></trkpt><trkpt lat="47.717425930201934" lon="11.869650617724972"><ele>783.0</ele><time>2026-04-18T09:10:51.999Z</time></trkpt><trkpt lat="47.71751969671414" lon="11.869682505020588"><ele>783.0</ele><time>2026-04-18T09:10:52.999Z</time></trkpt><trkpt lat="47.71761183032143" lon="11.869708305864327"><ele>783.0</ele><time>2026-04-18T09:10:53.999Z</time></trkpt><trkpt lat="47.71770200277002" lon="11.869741127970709"><ele>783.0</ele><time>2026-04-18T09:10:54.999Z</time></trkpt><trkpt lat="47.71779626368806" lon="11.869777196921431"><ele>783.0</ele><time>2026-04-18T09:10:55.999Z</time></trkpt><trkpt lat="47.71789541077655" lon="11.869812412966862"><ele>783.0</ele><time>2026-04-18T09:10:56.999Z</time></trkpt><trkpt lat="47.71799357697493" lon="11.869846331196333"><ele>783.0</ele><time>2026-04-18T09:10:57.999Z</time></trkpt><trkpt lat="47.71808991411646" lon="11.869872805864421"><ele>783.0</ele><time>2026-04-18T09:10:58.999Z</time></trkpt><trkpt lat="47.71818030908085" lon="11.869895450524075"><ele>783.0</ele><time>2026-04-18T09:10:59.999Z</time></trkpt><trkpt lat="47.71827390487883" lon="11.869920434738749"><ele>783.0</ele><time>2026-04-18T09:11:00.999Z</time></trkpt><trkpt lat="47.71836438894129" lon="11.869937837490971"><ele>783.0</ele><time>2026-04-18T09:11:01.999Z</time></trkpt><trkpt lat="47.71845165417731" lon="11.869950290110468"><ele>783.0</ele><time>2026-04-18T09:11:02.999Z</time></trkpt><trkpt lat="47.71853959359195" lon="11.869962970823472"><ele>783.0</ele><time>2026-04-18T09:11:03.999Z</time></trkpt><trkpt lat="47.718626596538655" lon="11.869976088723972"><ele>783.0</ele><time>2026-04-18T09:11:04.999Z</time></trkpt><trkpt lat="47.71871484163864" lon="11.869981615191938"><ele>783.0</ele><time>2026-04-18T09:11:05.999Z</time></trkpt><trkpt lat="47.71880422647205" lon="11.869978559960526"><ele>783.0</ele><time>2026-04-18T09:11:06.999Z</time></trkpt><trkpt lat="47.71889443259098" lon="11.869969502979119"><ele>783.2</ele><time>2026-04-18T09:11:07.999Z</time></trkpt><trkpt lat="47.71898285658778" lon="11.869955008190166"><ele>783.4</ele><time>2026-04-18T09:11:08.999Z</time></trkpt><trkpt lat="47.71907066078018" lon="11.86993590904734"><ele>783.6</ele><time>2026-04-18T09:11:09.999Z</time></trkpt><trkpt lat="47.71916020198384" lon="11.86991353065941"><ele>783.8000000000001</ele><time>2026-04-18T09:11:10.999Z</time></trkpt><trkpt lat="47.71924998339994" lon="11.869883178048376"><ele>784.0</ele><time>2026-04-18T09:11:11.998Z</time></trkpt><trkpt lat="47.71933908496415" lon="11.869842449189559"><ele>784.2</ele><time>2026-04-18T09:11:12.998Z</time></trkpt><trkpt lat="47.71942973657909" lon="11.869793223019313"><ele>784.4000000000001</ele><time>2026-04-18T09:11:13.998Z</time></trkpt><trkpt lat="47.71952480288657" lon="11.869731019952827"><ele>784.6</ele><time>2026-04-18T09:11:14.998Z</time></trkpt><trkpt lat="47.71962091206725" lon="11.86965695584498"><ele>784.8</ele><time>2026-04-18T09:11:15.998Z</time></trkpt><trkpt lat="47.719707438954906" lon="11.86958271928018"><ele>785.0</ele><time>2026-04-18T09:11:16.998Z</time></trkpt><trkpt lat="47.71979553771112" lon="11.86950484810247"><ele>785.0</ele><time>2026-04-18T09:11:17.998Z</time></trkpt><trkpt lat="47.71988964215674" lon="11.869423177785023"><ele>785.0</ele><time>2026-04-18T09:11:18.998Z</time></trkpt><trkpt lat="47.719989063293426" lon="11.869340468518859"><ele>785.0</ele><time>2026-04-18T09:11:19.998Z</time></trkpt><trkpt lat="47.720090547190175" lon="11.869267763895918"><ele>785.0</ele><time>2026-04-18T09:11:20.999Z</time></trkpt><trkpt lat="47.7201897910982" lon="11.869217014548365"><ele>785.0</ele><time>2026-04-18T09:11:21.999Z</time></trkpt><trkpt lat="47.720285872391834" lon="11.869175442163833"><ele>784.8</ele><time>2026-04-18T09:11:22.999Z</time></trkpt><trkpt lat="47.72038324740444" lon="11.869136063067252"><ele>784.6</ele><time>2026-04-18T09:11:23.999Z</time></trkpt><trkpt lat="47.72048634552192" lon="11.869098813971313"><ele>784.4000000000001</ele><time>2026-04-18T09:11:24.999Z</time></trkpt><trkpt lat="47.72059578676428" lon="11.869075250190363"><ele>784.2</ele><time>2026-04-18T09:11:25.999Z</time></trkpt><trkpt lat="47.720711006566695" lon="11.869072549686"><ele>784.0</ele><time>2026-04-18T09:11:26.999Z</time></trkpt><trkpt lat="47.720829331807394" lon="11.86909097841915"><ele>784.0</ele><time>2026-04-18T09:11:27.999Z</time></trkpt><trkpt lat="47.72094455464422" lon="11.869118757233359"><ele>784.0</ele><time>2026-04-18T09:11:28.999Z</time></trkpt><trkpt lat="47.72105703206929" lon="11.869137223475661"><ele>784.0</ele><time>2026-04-18T09:11:29.999Z</time></trkpt><trkpt lat="47.721165897250295" lon="11.869142618571127"><ele>784.0</ele><time>2026-04-18T09:11:30.999Z</time></trkpt><trkpt lat="47.72127006104773" lon="11.869129908383798"><ele>784.0</ele><time>2026-04-18T09:11:31.999Z</time></trkpt><trkpt lat="47.721374208196316" lon="11.869109148203489"><ele>784.2</ele><time>2026-04-18T09:11:32.999Z</time></trkpt><trkpt lat="47.72147658101825" lon="11.869092322739496"><ele>784.4000000000001</ele><time>2026-04-18T09:11:33.999Z</time></trkpt><trkpt lat="47.721579569475075" lon="11.869076855436731"><ele>784.6</ele><time>2026-04-18T09:11:34.999Z</time></trkpt><trkpt lat="47.72167997692432" lon="11.869062280107403"><ele>784.8</ele><time>2026-04-18T09:11:35.999Z</time></trkpt><trkpt lat="47.721779132292575" lon="11.869055491989299"><ele>785.0</ele><time>2026-04-18T09:11:36.999Z</time></trkpt><trkpt lat="47.721875474831684" lon="11.869056052801565"><ele>785.8</ele><time>2026-04-18T09:11:37.999Z</time></trkpt><trkpt lat="47.721967752574436" lon="11.869072022785453"><ele>786.6</ele><time>2026-04-18T09:11:38.999Z</time></trkpt><trkpt lat="47.72206256373028" lon="11.869100821577474"><ele>787.4000000000001</ele><time>2026-04-18T09:11:39.999Z</time></trkpt><trkpt lat="47.72215427148324" lon="11.869152085056715"><ele>788.2</ele><time>2026-04-18T09:11:40.999Z</time></trkpt><trkpt lat="47.72223868874884" lon="11.869224171959228"><ele>789.0</ele><time>2026-04-18T09:11:41.999Z</time></trkpt><trkpt lat="47.72232074810906" lon="11.869296105946885"><ele>789.0</ele><time>2026-04-18T09:11:42.999Z</time></trkpt><trkpt lat="47.722397891130505" lon="11.86935574653005"><ele>789.0</ele><time>2026-04-18T09:11:43.999Z</time></trkpt><trkpt lat="47.72247088968907" lon="11.869407994951063"><ele>789.0</ele><time>2026-04-18T09:11:44.999Z</time></trkpt><trkpt lat="47.722543976011494" lon="11.869460069206118"><ele>789.0</ele><time>2026-04-18T09:11:45.999Z</time></trkpt><trkpt lat="47.72262037783106" lon="11.869509880868439"><ele>789.0</ele><time>2026-04-18T09:11:46.999Z</time></trkpt><trkpt lat="47.72270146334929" lon="11.869560699461106"><ele>789.0</ele><time>2026-04-18T09:11:47.999Z</time></trkpt><trkpt lat="47.722787925784765" lon="11.869612311822179"><ele>787.6</ele><time>2026-04-18T09:11:48.999Z</time></trkpt><trkpt lat="47.72288021378148" lon="11.869663594412714"><ele>786.2</ele><time>2026-04-18T09:11:49.999Z</time></trkpt><trkpt lat="47.72298065334131" lon="11.869712758671824"><ele>784.8000000000001</ele><time>2026-04-18T09:11:50.999Z</time></trkpt><trkpt lat="47.723080044992514" lon="11.869750144180149"><ele>783.4000000000001</ele><time>2026-04-18T09:11:51.999Z</time></trkpt><trkpt lat="47.72317021821433" lon="11.869770873401363"><ele>782.0</ele><time>2026-04-18T09:11:52.999Z</time></trkpt><trkpt lat="47.72325837617713" lon="11.869775649966051"><ele>782.0000000000001</ele><time>2026-04-18T09:11:53.999Z</time></trkpt><trkpt lat="47.72334770628974" lon="11.869764284077915"><ele>782.0</ele><time>2026-04-18T09:11:54.999Z</time></trkpt><trkpt lat="47.72343064375231" lon="11.869740169182657"><ele>782.0</ele><time>2026-04-18T09:11:55.999Z</time></trkpt><trkpt lat="47.723510668054764" lon="11.869707734357574"><ele>782.0</ele><time>2026-04-18T09:11:56.999Z</time></trkpt><trkpt lat="47.72358842978986" lon="11.869675455849386"><ele>782.0000000000001</ele><time>2026-04-18T09:11:57.999Z</time></trkpt><trkpt lat="47.7236679366208" lon="11.869644643673489"><ele>782.0</ele><time>2026-04-18T09:11:58.999Z</time></trkpt><trkpt lat="47.72374969710973" lon="11.869614050628153"><ele>782.0</ele><time>2026-04-18T09:11:59.999Z</time></trkpt><trkpt lat="47.72383975737335" lon="11.869575007691942"><ele>782.0</ele><time>2026-04-18T09:12:00.999Z</time></trkpt><trkpt lat="47.72394009986758" lon="11.869539856266627"><ele>782.0</ele><time>2026-04-18T09:12:01.999Z</time></trkpt><trkpt lat="47.724047157528695" lon="11.86951122536831"><ele>782.0</ele><time>2026-04-18T09:12:02.999Z</time></trkpt><trkpt lat="47.72414589659401" lon="11.869485596600237"><ele>782.0</ele><time>2026-04-18T09:12:03.999Z</time></trkpt><trkpt lat="47.72423858654125" lon="11.86946833084201"><ele>782.0</ele><time>2026-04-18T09:12:04.999Z</time></trkpt><trkpt lat="47.72433182714255" lon="11.869463199874742"><ele>782.0</ele><time>2026-04-18T09:12:05.999Z</time></trkpt><trkpt lat="47.72442570175812" lon="11.869466743747255"><ele>782.0</ele><time>2026-04-18T09:12:06.999Z</time></trkpt><trkpt lat="47.72452209272196" lon="11.869479086647898"><ele>782.0</ele><time>2026-04-18T09:12:07.999Z</time></trkpt><trkpt lat="47.724622046267406" lon="11.869505770021048"><ele>782.0</ele><time>2026-04-18T09:12:08.999Z</time></trkpt><trkpt lat="47.724725347530566" lon="11.869537451298678"><ele>781.6</ele><time>2026-04-18T09:12:09.999Z</time></trkpt><trkpt lat="47.72482982982218" lon="11.869570467660143"><ele>781.2</ele><time>2026-04-18T09:12:10.999Z</time></trkpt><trkpt lat="47.724928930915674" lon="11.869603993152305"><ele>780.8</ele><time>2026-04-18T09:12:11.999Z</time></trkpt><trkpt lat="47.72502221655743" lon="11.869628069299688"><ele>780.4</ele><time>2026-04-18T09:12:12.999Z</time></trkpt><trkpt lat="47.72510863604672" lon="11.869644051933422"><ele>780.0</ele><time>2026-04-18T09:12:13.999Z</time></trkpt><trkpt lat="47.72519298480463" lon="11.869658141532021"><ele>780.8</ele><time>2026-04-18T09:12:14.999Z</time></trkpt><trkpt lat="47.72527760223166" lon="11.86967137095171"><ele>781.6</ele><time>2026-04-18T09:12:15.999Z</time></trkpt><trkpt lat="47.72536192512337" lon="11.869681248335306"><ele>782.4000000000001</ele><time>2026-04-18T09:12:16.999Z</time></trkpt><trkpt lat="47.72545477835645" lon="11.86967985795783"><ele>783.2</ele><time>2026-04-18T09:12:17.999Z</time></trkpt><trkpt lat="47.725554612524114" lon="11.869662515916128"><ele>784.0</ele><time>2026-04-18T09:12:18.999Z</time></trkpt><trkpt lat="47.72564209227181" lon="11.869639723443104"><ele>783.9999999999999</ele><time>2026-04-18T09:12:19.999Z</time></trkpt><trkpt lat="47.72571639801502" lon="11.86961530477332"><ele>784.0</ele><time>2026-04-18T09:12:20.999Z</time></trkpt><trkpt lat="47.7257894450996" lon="11.869589881921623"><ele>784.0</ele><time>2026-04-18T09:12:21.999Z</time></trkpt><trkpt lat="47.72586624938225" lon="11.869564997656244"><ele>784.0</ele><time>2026-04-18T09:12:22.999Z</time></trkpt><trkpt lat="47.72594744271718" lon="11.869543434867921"><ele>783.9999999999999</ele><time>2026-04-18T09:12:23.999Z</time></trkpt><trkpt lat="47.7260317962154" lon="11.869520380808607"><ele>784.0</ele><time>2026-04-18T09:12:24.999Z</time></trkpt><trkpt lat="47.72611534775786" lon="11.86949452850992"><ele>784.6666666666666</ele><time>2026-04-18T09:12:25.999Z</time></trkpt><trkpt lat="47.726201160514975" lon="11.869463976675098"><ele>785.3333333333333</ele><time>2026-04-18T09:12:26.999Z</time></trkpt><trkpt lat="47.72628314493458" lon="11.869435398049145"><ele>786.0</ele><time>2026-04-18T09:12:27.999Z</time></trkpt><trkpt lat="47.72635949707949" lon="11.869406599750574"><ele>786.6666666666667</ele><time>2026-04-18T09:12:28.999Z</time></trkpt><trkpt lat="47.726434282122085" lon="11.869373490807657"><ele>787.3333333333334</ele><time>2026-04-18T09:12:29.999Z</time></trkpt><trkpt lat="47.72651444507523" lon="11.869339343943587"><ele>788.0</ele><time>2026-04-18T09:12:30.999Z</time></trkpt><trkpt lat="47.72659632929229" lon="11.869300098451584"><ele>787.5000000000001</ele><time>2026-04-18T09:12:31.999Z</time></trkpt><trkpt lat="47.72667050549985" lon="11.869267131168597"><ele>787.0</ele><time>2026-04-18T09:12:32.999Z</time></trkpt><trkpt lat="47.72673212501447" lon="11.869237010304898"><ele>786.5</ele><time>2026-04-18T09:12:33.999Z</time></trkpt><trkpt lat="47.726851558619124" lon="11.86917069573627"><ele>786.0</ele><time>2026-04-18T09:12:35.999Z</time></trkpt><trkpt lat="47.72691858215839" lon="11.869136555303049"><ele>785.5000000000001</ele><time>2026-04-18T09:12:36.999Z</time></trkpt><trkpt lat="47.726997987807444" lon="11.869095019937244"><ele>785.0</ele><time>2026-04-18T09:12:37.999Z</time></trkpt><trkpt lat="47.72708278161931" lon="11.869044771092883"><ele>784.8333333333334</ele><time>2026-04-18T09:12:38.999Z</time></trkpt><trkpt lat="47.72716587165405" lon="11.868997634565954"><ele>784.6666666666667</ele><time>2026-04-18T09:12:39.999Z</time></trkpt><trkpt lat="47.72724695080464" lon="11.868952647402592"><ele>784.5</ele><time>2026-04-18T09:12:40.999Z</time></trkpt><trkpt lat="47.727326111203304" lon="11.868911598084681"><ele>784.3333333333333</ele><time>2026-04-18T09:12:41.999Z</time></trkpt><trkpt lat="47.727406304520976" lon="11.868869081060963"><ele>784.1666666666666</ele><time>2026-04-18T09:12:42.999Z</time></trkpt><trkpt lat="47.72748460174378" lon="11.868826746585976"><ele>784.0</ele><time>2026-04-18T09:12:43.999Z</time></trkpt><trkpt lat="47.72756885753504" lon="11.868790359056682"><ele>784.0</ele><time>2026-04-18T09:12:44.999Z</time></trkpt><trkpt lat="47.727666061850954" lon="11.868761238984478"><ele>784.0</ele><time>2026-04-18T09:12:45.999Z</time></trkpt><trkpt lat="47.72777321222696" lon="11.868743189776799"><ele>784.0</ele><time>2026-04-18T09:12:46.999Z</time></trkpt><trkpt lat="47.72787985693489" lon="11.868724786685497"><ele>784.0</ele><time>2026-04-18T09:12:47.999Z</time></trkpt><trkpt lat="47.72798234712971" lon="11.868704944792064"><ele>784.0</ele><time>2026-04-18T09:12:48.999Z</time></trkpt><trkpt lat="47.728079757241474" lon="11.868683151810838"><ele>784.0</ele><time>2026-04-18T09:12:49.999Z</time></trkpt><trkpt lat="47.72817266564715" lon="11.868662620944313"><ele>784.0</ele><time>2026-04-18T09:12:50.999Z</time></trkpt><trkpt lat="47.728266469912505" lon="11.868640983860848"><ele>784.0</ele><time>2026-04-18T09:12:51.999Z</time></trkpt><trkpt lat="47.72836153168078" lon="11.868616111861312"><ele>784.0</ele><time>2026-04-18T09:12:52.999Z</time></trkpt><trkpt lat="47.728462985637115" lon="11.868583562301927"><ele>784.0</ele><time>2026-04-18T09:12:53.999Z</time></trkpt><trkpt lat="47.72856440871509" lon="11.868540760994177"><ele>783.8000000000001</ele><time>2026-04-18T09:12:54.999Z</time></trkpt><trkpt lat="47.72866396801018" lon="11.868496873667512"><ele>783.6</ele><time>2026-04-18T09:12:55.999Z</time></trkpt><trkpt lat="47.72875953147485" lon="11.86845011131141"><ele>783.4</ele><time>2026-04-18T09:12:56.999Z</time></trkpt><trkpt lat="47.72884474520404" lon="11.868402052990593"><ele>783.2</ele><time>2026-04-18T09:12:57.999Z</time></trkpt><trkpt lat="47.72892442166475" lon="11.868356266620088"><ele>783.0</ele><time>2026-04-18T09:12:58.999Z</time></trkpt><trkpt lat="47.72900850940536" lon="11.86830380591292"><ele>782.8</ele><time>2026-04-18T09:12:59.999Z</time></trkpt><trkpt lat="47.72910020010327" lon="11.868244596241551"><ele>782.5999999999999</ele><time>2026-04-18T09:13:00.999Z</time></trkpt><trkpt lat="47.72920478778236" lon="11.868178949929582"><ele>782.4000000000001</ele><time>2026-04-18T09:13:01.999Z</time></trkpt><trkpt lat="47.72931563488387" lon="11.868117236753271"><ele>782.2</ele><time>2026-04-18T09:13:02.999Z</time></trkpt><trkpt lat="47.72942528993599" lon="11.868070693323057"><ele>782.0</ele><time>2026-04-18T09:13:03.999Z</time></trkpt><trkpt lat="47.72952966800836" lon="11.868043682574086"><ele>782.0</ele><time>2026-04-18T09:13:04.999Z</time></trkpt><trkpt lat="47.7296332005538" lon="11.868037603936793"><ele>782.0</ele><time>2026-04-18T09:13:05.999Z</time></trkpt><trkpt lat="47.72973958380419" lon="11.868049556124662"><ele>782.0</ele><time>2026-04-18T09:13:06.999Z</time></trkpt><trkpt lat="47.729847337583635" lon="11.86807798451853"><ele>782.0</ele><time>2026-04-18T09:13:07.999Z</time></trkpt><trkpt lat="47.72995439269725" lon="11.868118191435398"><ele>782.0</ele><time>2026-04-18T09:13:08.999Z</time></trkpt><trkpt lat="47.73006367852349" lon="11.868158831130593"><ele>782.0</ele><time>2026-04-18T09:13:09.999Z</time></trkpt><trkpt lat="47.73017112286662" lon="11.868205419223358"><ele>782.0</ele><time>2026-04-18T09:13:10.999Z</time></trkpt><trkpt lat="47.730285243798974" lon="11.868254410977212"><ele>782.0</ele><time>2026-04-18T09:13:11.999Z</time></trkpt><trkpt lat="47.73040685856002" lon="11.868301938887729"><ele>782.0</ele><time>2026-04-18T09:13:12.999Z</time></trkpt><trkpt lat="47.7305107171872" lon="11.868338439606319"><ele>782.2</ele><time>2026-04-18T09:13:13.999Z</time></trkpt><trkpt lat="47.73060925433072" lon="11.86837398223637"><ele>782.4000000000001</ele><time>2026-04-18T09:13:14.999Z</time></trkpt><trkpt lat="47.730707758621904" lon="11.868409509055832"><ele>782.5999999999999</ele><time>2026-04-18T09:13:15.999Z</time></trkpt><trkpt lat="47.7308143238618" lon="11.868443555785186"><ele>782.8</ele><time>2026-04-18T09:13:16.999Z</time></trkpt><trkpt lat="47.730925696938336" lon="11.868474905675495"><ele>783.0</ele><time>2026-04-18T09:13:17.999Z</time></trkpt><trkpt lat="47.73102745709094" lon="11.868500270776474"><ele>783.4</ele><time>2026-04-18T09:13:18.999Z</time></trkpt><trkpt lat="47.73112935192628" lon="11.868520337835804"><ele>783.8</ele><time>2026-04-18T09:13:19.999Z</time></trkpt><trkpt lat="47.7312435111347" lon="11.868517894716724"><ele>784.2</ele><time>2026-04-18T09:13:20.999Z</time></trkpt><trkpt lat="47.731361626925995" lon="11.868496860774432"><ele>784.6</ele><time>2026-04-18T09:13:21.999Z</time></trkpt><trkpt lat="47.73146886706932" lon="11.868451452819356"><ele>785.0</ele><time>2026-04-18T09:13:22.999Z</time></trkpt><trkpt lat="47.731574066847664" lon="11.86838734588131"><ele>785.2</ele><time>2026-04-18T09:13:23.999Z</time></trkpt><trkpt lat="47.73167329828993" lon="11.868306073139264"><ele>785.4</ele><time>2026-04-18T09:13:24.999Z</time></trkpt><trkpt lat="47.7317701473974" lon="11.86821730767028"><ele>785.5999999999999</ele><time>2026-04-18T09:13:25.999Z</time></trkpt><trkpt lat="47.73185945018994" lon="11.868132862334582"><ele>785.8</ele><time>2026-04-18T09:13:26.999Z</time></trkpt><trkpt lat="47.7319431195092" lon="11.868049751446863"><ele>786.0</ele><time>2026-04-18T09:13:27.999Z</time></trkpt><trkpt lat="47.73202175179948" lon="11.867963994012378"><ele>786.0</ele><time>2026-04-18T09:13:28.999Z</time></trkpt><trkpt lat="47.7321009613387" lon="11.867860056379552"><ele>786.0</ele><time>2026-04-18T09:13:29.999Z</time></trkpt><trkpt lat="47.732176629696085" lon="11.867744783612833"><ele>786.0</ele><time>2026-04-18T09:13:30.999Z</time></trkpt><trkpt lat="47.73224182235386" lon="11.867622134981643"><ele>786.0</ele><time>2026-04-18T09:13:31.999Z</time></trkpt><trkpt lat="47.732298169364256" lon="11.867495804850906"><ele>786.0</ele><time>2026-04-18T09:13:32.999Z</time></trkpt><trkpt lat="47.732348920909" lon="11.867371324692625"><ele>786.0</ele><time>2026-04-18T09:13:33.999Z</time></trkpt><trkpt lat="47.73239676076347" lon="11.867251783549033"><ele>786.0</ele><time>2026-04-18T09:13:34.999Z</time></trkpt><trkpt lat="47.73243886844658" lon="11.867121487126406"><ele>786.0</ele><time>2026-04-18T09:13:35.999Z</time></trkpt><trkpt lat="47.73247432546559" lon="11.866987658232482"><ele>786.0</ele><time>2026-04-18T09:13:36.999Z</time></trkpt><trkpt lat="47.73250651185314" lon="11.866847383035028"><ele>786.0</ele><time>2026-04-18T09:13:37.999Z</time></trkpt><trkpt lat="47.73254486669934" lon="11.866695420099326"><ele>786.0</ele><time>2026-04-18T09:13:38.999Z</time></trkpt><trkpt lat="47.7325884958796" lon="11.866543721099868"><ele>786.0</ele><time>2026-04-18T09:13:39.999Z</time></trkpt><trkpt lat="47.73263932159461" lon="11.866392497686268"><ele>786.0</ele><time>2026-04-18T09:13:40.999Z</time></trkpt><trkpt lat="47.73270802108908" lon="11.866251983350107"><ele>786.0</ele><time>2026-04-18T09:13:41.999Z</time></trkpt><trkpt lat="47.732787782854736" lon="11.86612085739166"><ele>786.8</ele><time>2026-04-18T09:13:42.999Z</time></trkpt><trkpt lat="47.732867518864566" lon="11.866005644412875"><ele>787.5999999999999</ele><time>2026-04-18T09:13:43.999Z</time></trkpt><trkpt lat="47.73294866304942" lon="11.865894138881124"><ele>788.4</ele><time>2026-04-18T09:13:44.999Z</time></trkpt><trkpt lat="47.73302107179558" lon="11.8657891577154"><ele>789.2</ele><time>2026-04-18T09:13:45.999Z</time></trkpt><trkpt lat="47.73308747611247" lon="11.865689865822908"><ele>790.0</ele><time>2026-04-18T09:13:46.999Z</time></trkpt><trkpt lat="47.73314654432049" lon="11.865590851554181"><ele>790.0</ele><time>2026-04-18T09:13:47.999Z</time></trkpt><trkpt lat="47.73320491172114" lon="11.865493223780991"><ele>790.0</ele><time>2026-04-18T09:13:48.999Z</time></trkpt><trkpt lat="47.733269598927166" lon="11.865393024713441"><ele>790.0</ele><time>2026-04-18T09:13:49.999Z</time></trkpt><trkpt lat="47.733344281823356" lon="11.865292794841354"><ele>790.0</ele><time>2026-04-18T09:13:50.999Z</time></trkpt><trkpt lat="47.733434167482216" lon="11.865195872968286"><ele>790.0</ele><time>2026-04-18T09:13:51.999Z</time></trkpt><trkpt lat="47.73352166109697" lon="11.86510514694718"><ele>790.6</ele><time>2026-04-18T09:13:52.999Z</time></trkpt><trkpt lat="47.73359777747748" lon="11.865028149050302"><ele>791.2</ele><time>2026-04-18T09:13:53.999Z</time></trkpt><trkpt lat="47.733674636560245" lon="11.864951218934964"><ele>791.8</ele><time>2026-04-18T09:13:54.999Z</time></trkpt><trkpt lat="47.73375592663844" lon="11.864882184770176"><ele>792.4</ele><time>2026-04-18T09:13:55.999Z</time></trkpt><trkpt lat="47.733842719171406" lon="11.864823764148834"><ele>793.0</ele><time>2026-04-18T09:13:56.999Z</time></trkpt><trkpt lat="47.733930254480164" lon="11.864789896644696"><ele>792.9999999999999</ele><time>2026-04-18T09:13:57.999Z</time></trkpt><trkpt lat="47.73401807922236" lon="11.864782365926116"><ele>793.0</ele><time>2026-04-18T09:13:58.999Z</time></trkpt><trkpt lat="47.73410369640784" lon="11.864793808266997"><ele>793.0</ele><time>2026-04-18T09:13:59.999Z</time></trkpt><trkpt lat="47.734190310108644" lon="11.864789272724623"><ele>793.0</ele><time>2026-04-18T09:14:00.999Z</time></trkpt><trkpt lat="47.73427059484957" lon="11.864752513504982"><ele>792.9999999999999</ele><time>2026-04-18T09:14:01.999Z</time></trkpt><trkpt lat="47.73434835208696" lon="11.864682427139936"><ele>793.0</ele><time>2026-04-18T09:14:02.999Z</time></trkpt><trkpt lat="47.73443398773429" lon="11.86460414838676"><ele>793.4</ele><time>2026-04-18T09:14:03.999Z</time></trkpt><trkpt lat="47.734525317744406" lon="11.864520624354023"><ele>793.8</ele><time>2026-04-18T09:14:04.999Z</time></trkpt><trkpt lat="47.734613040667135" lon="11.86443550687566"><ele>794.2</ele><time>2026-04-18T09:14:05.999Z</time></trkpt><trkpt lat="47.734694455317175" lon="11.864345327476324"><ele>794.6</ele><time>2026-04-18T09:14:06.999Z</time></trkpt><trkpt lat="47.73476966413549" lon="11.864246944059069"><ele>795.0</ele><time>2026-04-18T09:14:07.999Z</time></trkpt><trkpt lat="47.734838770640124" lon="11.864134908682823"><ele>795.0</ele><time>2026-04-18T09:14:08.999Z</time></trkpt><trkpt lat="47.73489814013316" lon="11.864013327519888"><ele>795.0</ele><time>2026-04-18T09:14:09.999Z</time></trkpt><trkpt lat="47.734959433189736" lon="11.863893413151006"><ele>795.0</ele><time>2026-04-18T09:14:10.999Z</time></trkpt><trkpt lat="47.7350372027039" lon="11.86379397470438"><ele>795.0</ele><time>2026-04-18T09:14:11.999Z</time></trkpt><trkpt lat="47.735118705698774" lon="11.863698348859037"><ele>795.0</ele><time>2026-04-18T09:14:12.999Z</time></trkpt><trkpt lat="47.73518671589278" lon="11.863576586982632"><ele>795.0</ele><time>2026-04-18T09:14:13.999Z</time></trkpt><trkpt lat="47.735251324182784" lon="11.863447633302236"><ele>795.0</ele><time>2026-04-18T09:14:14.999Z</time></trkpt><trkpt lat="47.7353148865654" lon="11.863323186825538"><ele>795.0</ele><time>2026-04-18T09:14:15.999Z</time></trkpt><trkpt lat="47.73537847856638" lon="11.863201601508251"><ele>795.0</ele><time>2026-04-18T09:14:16.999Z</time></trkpt><trkpt lat="47.73543784566788" lon="11.863079449351913"><ele>795.0</ele><time>2026-04-18T09:14:17.999Z</time></trkpt><trkpt lat="47.73549342244379" lon="11.862956260878137"><ele>795.0</ele><time>2026-04-18T09:14:18.999Z</time></trkpt><trkpt lat="47.73553665861522" lon="11.862842560331947"><ele>795.0</ele><time>2026-04-18T09:14:19.999Z</time></trkpt><trkpt lat="47.735570185827555" lon="11.862737025722419"><ele>795.0</ele><time>2026-04-18T09:14:20.999Z</time></trkpt><trkpt lat="47.7355924953138" lon="11.86263791376354"><ele>795.0</ele><time>2026-04-18T09:14:21.999Z</time></trkpt><trkpt lat="47.73562206542263" lon="11.862476505330156"><ele>795.0</ele><time>2026-04-18T09:14:23.999Z</time></trkpt><trkpt lat="47.73564886717185" lon="11.86232428859889"><ele>794.6</ele><time>2026-04-18T09:14:25.999Z</time></trkpt><trkpt lat="47.73568278035134" lon="11.86215393148531"><ele>794.2</ele><time>2026-04-18T09:14:27.999Z</time></trkpt><trkpt lat="47.735721677810304" lon="11.862009179304449"><ele>793.8</ele><time>2026-04-18T09:14:29.999Z</time></trkpt><trkpt lat="47.73576603936891" lon="11.861892148602893"><ele>793.4</ele><time>2026-04-18T09:14:31.999Z</time></trkpt><trkpt lat="47.735800233528664" lon="11.861794558171148"><ele>793.0</ele><time>2026-04-18T09:14:33.999Z</time></trkpt><trkpt lat="47.735831048729644" lon="11.861683901746158"><ele>792.9999999999999</ele><time>2026-04-18T09:14:36.999Z</time></trkpt><trkpt lat="47.73586517844149" lon="11.861582875221254"><ele>793.0</ele><time>2026-04-18T09:14:39.999Z</time></trkpt><trkpt lat="47.735927241250465" lon="11.861471469031775"><ele>793.0</ele><time>2026-04-18T09:14:42.999Z</time></trkpt><trkpt lat="47.735983104657464" lon="11.861358688732976"><ele>793.0</ele><time>2026-04-18T09:14:44.999Z</time></trkpt><trkpt lat="47.736017005998725" lon="11.861274226073995"><ele>792.9999999999999</ele><time>2026-04-18T09:14:45.999Z</time></trkpt><trkpt lat="47.736055949085966" lon="11.861182234389501"><ele>793.0</ele><time>2026-04-18T09:14:46.999Z</time></trkpt><trkpt lat="47.736096323877845" lon="11.86109439894975"><ele>793.0</ele><time>2026-04-18T09:14:47.999Z</time></trkpt><trkpt lat="47.73614459218402" lon="11.860999717053648"><ele>793.0</ele><time>2026-04-18T09:14:48.999Z</time></trkpt><trkpt lat="47.73620471711895" lon="11.860892670546237"><ele>793.0</ele><time>2026-04-18T09:14:49.999Z</time></trkpt><trkpt lat="47.736270581721804" lon="11.860772685852394"><ele>793.0</ele><time>2026-04-18T09:14:50.999Z</time></trkpt><trkpt lat="47.73633547536969" lon="11.860649184195216"><ele>793.0</ele><time>2026-04-18T09:14:51.999Z</time></trkpt><trkpt lat="47.73639789451384" lon="11.860532561669531"><ele>793.0</ele><time>2026-04-18T09:14:52.999Z</time></trkpt><trkpt lat="47.73646392892019" lon="11.860414681258042"><ele>793.0</ele><time>2026-04-18T09:14:53.999Z</time></trkpt><trkpt lat="47.73653444777297" lon="11.860296648810795"><ele>793.0</ele><time>2026-04-18T09:14:54.999Z</time></trkpt><trkpt lat="47.73659991769498" lon="11.860191999935022"><ele>793.0</ele><time>2026-04-18T09:14:55.999Z</time></trkpt><trkpt lat="47.73665305385863" lon="11.860090933912339"><ele>793.0</ele><time>2026-04-18T09:14:56.999Z</time></trkpt><trkpt lat="47.736704286213396" lon="11.859997106917584"><ele>792.8333333333333</ele><time>2026-04-18T09:14:57.999Z</time></trkpt><trkpt lat="47.73675842958952" lon="11.859904346231174"><ele>792.6666666666666</ele><time>2026-04-18T09:14:58.999Z</time></trkpt><trkpt lat="47.73681294818874" lon="11.859807597112514"><ele>792.5</ele><time>2026-04-18T09:14:59.999Z</time></trkpt><trkpt lat="47.73686912829722" lon="11.859715074932373"><ele>792.3333333333333</ele><time>2026-04-18T09:15:00.999Z</time></trkpt><trkpt lat="47.73691906555424" lon="11.859617088573684"><ele>792.1666666666666</ele><time>2026-04-18T09:15:01.999Z</time></trkpt><trkpt lat="47.736970451736575" lon="11.859512156649284"><ele>792.0</ele><time>2026-04-18T09:15:02.999Z</time></trkpt><trkpt lat="47.737021228236564" lon="11.859391661927921"><ele>792.4000000000001</ele><time>2026-04-18T09:15:03.999Z</time></trkpt><trkpt lat="47.7370657938479" lon="11.859262167545367"><ele>792.8000000000001</ele><time>2026-04-18T09:15:04.999Z</time></trkpt><trkpt lat="47.73709881209387" lon="11.859119798263967"><ele>793.2</ele><time>2026-04-18T09:15:05.999Z</time></trkpt><trkpt lat="47.7371337022658" lon="11.85896982377248"><ele>793.6</ele><time>2026-04-18T09:15:06.999Z</time></trkpt><trkpt lat="47.73717017884451" lon="11.85881658645757"><ele>794.0</ele><time>2026-04-18T09:15:07.999Z</time></trkpt><trkpt lat="47.737208633923146" lon="11.858658733061278"><ele>794.0</ele><time>2026-04-18T09:15:08.999Z</time></trkpt><trkpt lat="47.73724930842465" lon="11.858499310637802"><ele>794.0</ele><time>2026-04-18T09:15:09.999Z</time></trkpt><trkpt lat="47.73729210760909" lon="11.858337344558672"><ele>794.0</ele><time>2026-04-18T09:15:10.999Z</time></trkpt><trkpt lat="47.73733852455522" lon="11.858176370654403"><ele>794.0</ele><time>2026-04-18T09:15:11.999Z</time></trkpt><trkpt lat="47.73738696734213" lon="11.858018102565444"><ele>793.5</ele><time>2026-04-18T09:15:12.999Z</time></trkpt><trkpt lat="47.73743518186846" lon="11.857860844175894"><ele>793.0</ele><time>2026-04-18T09:15:13.999Z</time></trkpt><trkpt lat="47.73748093637892" lon="11.85770322652127"><ele>792.5</ele><time>2026-04-18T09:15:14.999Z</time></trkpt><trkpt lat="47.73752762049671" lon="11.857549685289204"><ele>792.0</ele><time>2026-04-18T09:15:15.999Z</time></trkpt><trkpt lat="47.73757490455792" lon="11.85739521128631"><ele>792.0</ele><time>2026-04-18T09:15:16.999Z</time></trkpt><trkpt lat="47.73761702341399" lon="11.857236933295287"><ele>792.0</ele><time>2026-04-18T09:15:17.999Z</time></trkpt><trkpt lat="47.73765166160535" lon="11.857076091640709"><ele>792.0</ele><time>2026-04-18T09:15:18.999Z</time></trkpt><trkpt lat="47.737674056862346" lon="11.856907783874577"><ele>792.0</ele><time>2026-04-18T09:15:19.999Z</time></trkpt><trkpt lat="47.73768563555771" lon="11.856738544613853"><ele>791.6</ele><time>2026-04-18T09:15:20.999Z</time></trkpt><trkpt lat="47.73768820808495" lon="11.85657086226795"><ele>791.2</ele><time>2026-04-18T09:15:21.999Z</time></trkpt><trkpt lat="47.73768108981114" lon="11.856408911622818"><ele>790.8</ele><time>2026-04-18T09:15:22.999Z</time></trkpt><trkpt lat="47.73766947722477" lon="11.856248479280481"><ele>790.4</ele><time>2026-04-18T09:15:23.999Z</time></trkpt><trkpt lat="47.73765593237918" lon="11.856084644991416"><ele>790.0</ele><time>2026-04-18T09:15:24.999Z</time></trkpt><trkpt lat="47.737644082039786" lon="11.855914426296954"><ele>789.75</ele><time>2026-04-18T09:15:25.999Z</time></trkpt><trkpt lat="47.73763789889941" lon="11.855743038857513"><ele>789.5</ele><time>2026-04-18T09:15:26.999Z</time></trkpt><trkpt lat="47.73763326900116" lon="11.855574388318738"><ele>789.25</ele><time>2026-04-18T09:15:27.999Z</time></trkpt><trkpt lat="47.73763122669434" lon="11.85540985132842"><ele>789.0</ele><time>2026-04-18T09:15:28.999Z</time></trkpt><trkpt lat="47.73764036120519" lon="11.855245946112653"><ele>788.75</ele><time>2026-04-18T09:15:29.999Z</time></trkpt><trkpt lat="47.73765977612208" lon="11.855080868095197"><ele>788.5</ele><time>2026-04-18T09:15:30.999Z</time></trkpt><trkpt lat="47.737686420626204" lon="11.854918239094543"><ele>788.25</ele><time>2026-04-18T09:15:31.999Z</time></trkpt><trkpt lat="47.73771423623587" lon="11.854752335454222"><ele>788.0</ele><time>2026-04-18T09:15:32.999Z</time></trkpt><trkpt lat="47.73774271461975" lon="11.854584309497016"><ele>788.0</ele><time>2026-04-18T09:15:33.999Z</time></trkpt><trkpt lat="47.73777418012621" lon="11.854417613741411"><ele>788.0</ele><time>2026-04-18T09:15:34.999Z</time></trkpt><trkpt lat="47.73780970536647" lon="11.854252617172776"><ele>788.0</ele><time>2026-04-18T09:15:35.999Z</time></trkpt><trkpt lat="47.737853164352494" lon="11.8540932327663"><ele>788.0</ele><time>2026-04-18T09:15:36.999Z</time></trkpt><trkpt lat="47.73791215429751" lon="11.853952151736127"><ele>788.0</ele><time>2026-04-18T09:15:37.999Z</time></trkpt><trkpt lat="47.737979591025876" lon="11.853820300733455"><ele>788.0</ele><time>2026-04-18T09:15:38.999Z</time></trkpt><trkpt lat="47.738054450909274" lon="11.853698661832773"><ele>788.0</ele><time>2026-04-18T09:15:39.999Z</time></trkpt><trkpt lat="47.738136422121464" lon="11.853584555015685"><ele>788.0</ele><time>2026-04-18T09:15:40.999Z</time></trkpt><trkpt lat="47.738226277549686" lon="11.85347847017558"><ele>788.0</ele><time>2026-04-18T09:15:41.999Z</time></trkpt><trkpt lat="47.73832078206483" lon="11.853377144354704"><ele>787.5</ele><time>2026-04-18T09:15:42.999Z</time></trkpt><trkpt lat="47.73841819658521" lon="11.853280273873423"><ele>787.0</ele><time>2026-04-18T09:15:43.999Z</time></trkpt><trkpt lat="47.73851551906769" lon="11.853178861396072"><ele>786.5</ele><time>2026-04-18T09:15:44.999Z</time></trkpt><trkpt lat="47.73861398927212" lon="11.853075593627095"><ele>786.0</ele><time>2026-04-18T09:15:45.999Z</time></trkpt><trkpt lat="47.73871209516034" lon="11.852973228697689"><ele>786.0</ele><time>2026-04-18T09:15:46.999Z</time></trkpt><trkpt lat="47.738807764768985" lon="11.852868257105996"><ele>786.0</ele><time>2026-04-18T09:15:47.999Z</time></trkpt><trkpt lat="47.73890474610504" lon="11.852762279412167"><ele>786.0</ele><time>2026-04-18T09:15:48.999Z</time></trkpt><trkpt lat="47.73899837814461" lon="11.85265446974504"><ele>786.0</ele><time>2026-04-18T09:15:49.999Z</time></trkpt><trkpt lat="47.73909122857136" lon="11.852547317503593"><ele>786.0</ele><time>2026-04-18T09:15:50.999Z</time></trkpt><trkpt lat="47.73918070128757" lon="11.852434406088966"><ele>786.0</ele><time>2026-04-18T09:15:51.999Z</time></trkpt><trkpt lat="47.73926687015725" lon="11.852317007692298"><ele>786.0</ele><time>2026-04-18T09:15:52.999Z</time></trkpt><trkpt lat="47.73935547398345" lon="11.85218606601834"><ele>786.0</ele><time>2026-04-18T09:15:53.999Z</time></trkpt><trkpt lat="47.73946244606573" lon="11.852016260465161"><ele>786.0</ele><time>2026-04-18T09:15:54.999Z</time></trkpt><trkpt lat="47.73956276208583" lon="11.851845657508282"><ele>786.0</ele><time>2026-04-18T09:15:55.999Z</time></trkpt><trkpt lat="47.73965220496359" lon="11.851688505582938"><ele>786.0</ele><time>2026-04-18T09:15:56.999Z</time></trkpt><trkpt lat="47.73973567188763" lon="11.851535687393675"><ele>786.0</ele><time>2026-04-18T09:15:57.999Z</time></trkpt><trkpt lat="47.73981705051263" lon="11.851386955036576"><ele>786.0</ele><time>2026-04-18T09:15:58.999Z</time></trkpt><trkpt lat="47.739896106746755" lon="11.851244532132274"><ele>786.0</ele><time>2026-04-18T09:15:59.999Z</time></trkpt><trkpt lat="47.73997683033412" lon="11.851106822440565"><ele>786.0</ele><time>2026-04-18T09:16:00.999Z</time></trkpt><trkpt lat="47.740059777188506" lon="11.850968317747377"><ele>786.0</ele><time>2026-04-18T09:16:01.999Z</time></trkpt><trkpt lat="47.74014646285586" lon="11.850833230868368"><ele>787.0</ele><time>2026-04-18T09:16:02.999Z</time></trkpt><trkpt lat="47.740234484439476" lon="11.850699445887992"><ele>788.0</ele><time>2026-04-18T09:16:03.999Z</time></trkpt><trkpt lat="47.7403316698068" lon="11.850569546802808"><ele>789.0</ele><time>2026-04-18T09:16:04.999Z</time></trkpt><trkpt lat="47.74044014621723" lon="11.850445533425912"><ele>790.0</ele><time>2026-04-18T09:16:05.999Z</time></trkpt><trkpt lat="47.74055890921448" lon="11.850321082913123"><ele>790.0</ele><time>2026-04-18T09:16:06.999Z</time></trkpt><trkpt lat="47.74068559010864" lon="11.850206578514388"><ele>790.0</ele><time>2026-04-18T09:16:07.999Z</time></trkpt><trkpt lat="47.740817343376484" lon="11.850091506569129"><ele>790.0</ele><time>2026-04-18T09:16:08.999Z</time></trkpt><trkpt lat="47.74095575907665" lon="11.84996691293817"><ele>791.6666666666666</ele><time>2026-04-18T09:16:09.999Z</time></trkpt><trkpt lat="47.74109797316806" lon="11.849841615903845"><ele>793.3333333333333</ele><time>2026-04-18T09:16:10.999Z</time></trkpt><trkpt lat="47.741239988073055" lon="11.849715319138193"><ele>795.0</ele><time>2026-04-18T09:16:11.999Z</time></trkpt><trkpt lat="47.74138158272648" lon="11.849588635910608"><ele>795.0</ele><time>2026-04-18T09:16:12.999Z</time></trkpt><trkpt lat="47.74152299429488" lon="11.849459763941695"><ele>795.0</ele><time>2026-04-18T09:16:13.999Z</time></trkpt><trkpt lat="47.741656688869604" lon="11.849326675654774"><ele>795.0</ele><time>2026-04-18T09:16:14.999Z</time></trkpt><trkpt lat="47.74178900127462" lon="11.84918369257532"><ele>791.3333333333333</ele><time>2026-04-18T09:16:15.999Z</time></trkpt><trkpt lat="47.741921376570275" lon="11.849031327685356"><ele>787.6666666666666</ele><time>2026-04-18T09:16:16.999Z</time></trkpt><trkpt lat="47.742055508661025" lon="11.848871922533014"><ele>784.0</ele><time>2026-04-18T09:16:17.999Z</time></trkpt><trkpt lat="47.742189882122396" lon="11.848703701548397"><ele>784.0</ele><time>2026-04-18T09:16:18.999Z</time></trkpt><trkpt lat="47.742326737319665" lon="11.848528956600992"><ele>784.0</ele><time>2026-04-18T09:16:19.999Z</time></trkpt><trkpt lat="47.742462911719045" lon="11.848352658217877"><ele>784.0</ele><time>2026-04-18T09:16:20.999Z</time></trkpt><trkpt lat="47.742595367695436" lon="11.848179236562293"><ele>781.6666666666666</ele><time>2026-04-18T09:16:21.999Z</time></trkpt><trkpt lat="47.74272851258994" lon="11.8480064883329"><ele>779.3333333333333</ele><time>2026-04-18T09:16:22.999Z</time></trkpt><trkpt lat="47.742860804959626" lon="11.84783466002131"><ele>777.0</ele><time>2026-04-18T09:16:23.999Z</time></trkpt><trkpt lat="47.74299418730096" lon="11.847668375342785"><ele>775.6666666666667</ele><time>2026-04-18T09:16:24.999Z</time></trkpt><trkpt lat="47.74312695961627" lon="11.847509972354219"><ele>774.3333333333334</ele><time>2026-04-18T09:16:25.999Z</time></trkpt><trkpt lat="47.7432604139813" lon="11.847354337616494"><ele>773.0</ele><time>2026-04-18T09:16:26.999Z</time></trkpt><trkpt lat="47.74339482538489" lon="11.84720331536809"><ele>773.0</ele><time>2026-04-18T09:16:27.999Z</time></trkpt><trkpt lat="47.74353492144443" lon="11.847060760605588"><ele>773.0</ele><time>2026-04-18T09:16:28.999Z</time></trkpt><trkpt lat="47.74368709039688" lon="11.846915323505307"><ele>773.0</ele><time>2026-04-18T09:16:29.999Z</time></trkpt><trkpt lat="47.74384975939715" lon="11.846768268464235"><ele>772.6666666666667</ele><time>2026-04-18T09:16:30.999Z</time></trkpt><trkpt lat="47.74402253896579" lon="11.846612228698831"><ele>772.3333333333333</ele><time>2026-04-18T09:16:31.999Z</time></trkpt><trkpt lat="47.744209510212" lon="11.846443355703743"><ele>772.0</ele><time>2026-04-18T09:16:32.999Z</time></trkpt><trkpt lat="47.74438480034918" lon="11.846287647091554"><ele>772.0</ele><time>2026-04-18T09:16:33.999Z</time></trkpt><trkpt lat="47.744550355649984" lon="11.846136081345213"><ele>772.0</ele><time>2026-04-18T09:16:34.999Z</time></trkpt><trkpt lat="47.74470452533959" lon="11.845987082242594"><ele>772.0</ele><time>2026-04-18T09:16:35.999Z</time></trkpt><trkpt lat="47.74485370948403" lon="11.845841446465323"><ele>771.3333333333333</ele><time>2026-04-18T09:16:36.999Z</time></trkpt><trkpt lat="47.74499231388485" lon="11.845699211148643"><ele>770.6666666666667</ele><time>2026-04-18T09:16:37.999Z</time></trkpt><trkpt lat="47.74512204852631" lon="11.845561655376839"><ele>770.0</ele><time>2026-04-18T09:16:38.999Z</time></trkpt><trkpt lat="47.745246004304065" lon="11.845428465738815"><ele>770.0</ele><time>2026-04-18T09:16:39.999Z</time></trkpt><trkpt lat="47.74536098693101" lon="11.8453020783345"><ele>770.0</ele><time>2026-04-18T09:16:40.999Z</time></trkpt><trkpt lat="47.745467372885614" lon="11.8451801875145"><ele>770.0</ele><time>2026-04-18T09:16:41.999Z</time></trkpt><trkpt lat="47.74556452197628" lon="11.8450665830609"><ele>770.0</ele><time>2026-04-18T09:16:42.999Z</time></trkpt><trkpt lat="47.745650440167225" lon="11.844964341739352"><ele>769.8</ele><time>2026-04-18T09:16:43.999Z</time></trkpt><trkpt lat="47.745733418513126" lon="11.844863583270126"><ele>769.6</ele><time>2026-04-18T09:16:44.999Z</time></trkpt><trkpt lat="47.74581450810313" lon="11.844768466397001"><ele>769.4000000000001</ele><time>2026-04-18T09:16:45.999Z</time></trkpt><trkpt lat="47.74589489424922" lon="11.844672251944923"><ele>769.2</ele><time>2026-04-18T09:16:46.999Z</time></trkpt><trkpt lat="47.74597424543808" lon="11.8445765864573"><ele>769.0</ele><time>2026-04-18T09:16:47.999Z</time></trkpt><trkpt lat="47.74605057994333" lon="11.84447921422044"><ele>768.6</ele><time>2026-04-18T09:16:48.999Z</time></trkpt><trkpt lat="47.746127696514655" lon="11.844375373743354"><ele>768.2</ele><time>2026-04-18T09:16:49.999Z</time></trkpt><trkpt lat="47.74620708749871" lon="11.844267848344018"><ele>767.8000000000001</ele><time>2026-04-18T09:16:50.999Z</time></trkpt><trkpt lat="47.74629272630232" lon="11.844159923464288"><ele>767.4000000000001</ele><time>2026-04-18T09:16:51.999Z</time></trkpt><trkpt lat="47.746383322255895" lon="11.844049693597304"><ele>767.0</ele><time>2026-04-18T09:16:52.999Z</time></trkpt><trkpt lat="47.74647676278157" lon="11.843934926090354"><ele>767.0</ele><time>2026-04-18T09:16:53.999Z</time></trkpt><trkpt lat="47.7465693937187" lon="11.843817374932755"><ele>767.0</ele><time>2026-04-18T09:16:55Z</time></trkpt><trkpt lat="47.746662388983694" lon="11.843698220241485"><ele>767.0</ele><time>2026-04-18T09:16:56Z</time></trkpt><trkpt lat="47.74675477113691" lon="11.843584829949458"><ele>767.0</ele><time>2026-04-18T09:16:57Z</time></trkpt><trkpt lat="47.74684131543444" lon="11.843480064431182"><ele>767.0</ele><time>2026-04-18T09:16:58Z</time></trkpt><trkpt lat="47.74692893424484" lon="11.843380233978177"><ele>767.0</ele><time>2026-04-18T09:16:59Z</time></trkpt><trkpt lat="47.74701920058626" lon="11.843286818129663"><ele>767.0</ele><time>2026-04-18T09:17:00Z</time></trkpt><trkpt lat="47.74711098077859" lon="11.843195137814766"><ele>767.0</ele><time>2026-04-18T09:17:01Z</time></trkpt><trkpt lat="47.74720276153232" lon="11.843103167960379"><ele>767.0</ele><time>2026-04-18T09:17:02Z</time></trkpt><trkpt lat="47.74729707484069" lon="11.843013008391686"><ele>767.0</ele><time>2026-04-18T09:17:03Z</time></trkpt><trkpt lat="47.74739668055568" lon="11.842917725903124"><ele>767.0</ele><time>2026-04-18T09:17:04Z</time></trkpt><trkpt lat="47.74749463181862" lon="11.842817017210374"><ele>767.0</ele><time>2026-04-18T09:17:05Z</time></trkpt><trkpt lat="47.74758212138854" lon="11.84272488549213"><ele>767.0</ele><time>2026-04-18T09:17:06Z</time></trkpt><trkpt lat="47.7476610572087" lon="11.84264374948049"><ele>767.0</ele><time>2026-04-18T09:17:07Z</time></trkpt><trkpt lat="47.74773245254156" lon="11.842579662014183"><ele>766.6666666666666</ele><time>2026-04-18T09:17:08Z</time></trkpt><trkpt lat="47.747795659216415" lon="11.842529019937338"><ele>766.3333333333333</ele><time>2026-04-18T09:17:09Z</time></trkpt><trkpt lat="47.74785229370918" lon="11.842487411398595"><ele>766.0</ele><time>2026-04-18T09:17:10Z</time></trkpt><trkpt lat="47.74795647386313" lon="11.842405455958696"><ele>765.6666666666666</ele><time>2026-04-18T09:17:12Z</time></trkpt><trkpt lat="47.74804836746997" lon="11.842320916375002"><ele>765.3333333333334</ele><time>2026-04-18T09:17:14Z</time></trkpt><trkpt lat="47.74811815154852" lon="11.84226931311002"><ele>765.0</ele><time>2026-04-18T09:17:16Z</time></trkpt><trkpt lat="47.7482195601411" lon="11.842197197762854"><ele>765.0</ele><time>2026-04-18T09:17:46.999Z</time></trkpt><trkpt lat="47.74832469450866" lon="11.842123038815123"><ele>765.0</ele><time>2026-04-18T09:17:48.999Z</time></trkpt><trkpt lat="47.74844030403513" lon="11.84203001857973"><ele>765.0</ele><time>2026-04-18T09:17:50.999Z</time></trkpt><trkpt lat="47.74850845157973" lon="11.841977938616976"><ele>765.0</ele><time>2026-04-18T09:17:52Z</time></trkpt><trkpt lat="47.748574983987275" lon="11.841927656416916"><ele>765.0</ele><time>2026-04-18T09:17:53Z</time></trkpt><trkpt lat="47.74864113073022" lon="11.841877817859448"><ele>765.0</ele><time>2026-04-18T09:17:54Z</time></trkpt><trkpt lat="47.748705300869545" lon="11.841827826467634"><ele>765.0</ele><time>2026-04-18T09:17:55Z</time></trkpt><trkpt lat="47.74876769730862" lon="11.841779782382254"><ele>765.0</ele><time>2026-04-18T09:17:56Z</time></trkpt><trkpt lat="47.74883142098774" lon="11.841732041366388"><ele>765.0</ele><time>2026-04-18T09:17:57Z</time></trkpt><trkpt lat="47.748927346022874" lon="11.841656728035668"><ele>765.0</ele><time>2026-04-18T09:17:59Z</time></trkpt><trkpt lat="47.74901684423771" lon="11.841586973423235"><ele>765.0</ele><time>2026-04-18T09:18:01Z</time></trkpt><trkpt lat="47.749101546504484" lon="11.841520733236457"><ele>765.0</ele><time>2026-04-18T09:18:03Z</time></trkpt><trkpt lat="47.7491928495905" lon="11.841451028074669"><ele>765.0</ele><time>2026-04-18T09:18:05Z</time></trkpt><trkpt lat="47.74926467638355" lon="11.841395892858426"><ele>765.0</ele><time>2026-04-18T09:18:06Z</time></trkpt><trkpt lat="47.749357033191394" lon="11.841324361142007"><ele>765.0</ele><time>2026-04-18T09:18:07Z</time></trkpt><trkpt lat="47.74947600940518" lon="11.841230105161092"><ele>765.0</ele><time>2026-04-18T09:18:08Z</time></trkpt><trkpt lat="47.74959941709702" lon="11.841132138139137"><ele>764.8</ele><time>2026-04-18T09:18:09Z</time></trkpt><trkpt lat="47.74970096057383" lon="11.8410502186592"><ele>764.6</ele><time>2026-04-18T09:18:10Z</time></trkpt><trkpt lat="47.749796889150005" lon="11.840976274084769"><ele>764.4000000000001</ele><time>2026-04-18T09:18:11Z</time></trkpt><trkpt lat="47.74988538325027" lon="11.84091083209297"><ele>764.2</ele><time>2026-04-18T09:18:12Z</time></trkpt><trkpt lat="47.749968432024765" lon="11.84085108800262"><ele>764.0</ele><time>2026-04-18T09:18:13Z</time></trkpt><trkpt lat="47.75004927078274" lon="11.840793610236345"><ele>764.0</ele><time>2026-04-18T09:18:14Z</time></trkpt><trkpt lat="47.75012696005241" lon="11.840740272166602"><ele>764.0</ele><time>2026-04-18T09:18:15Z</time></trkpt><trkpt lat="47.75020535765003" lon="11.840687006591569"><ele>764.0</ele><time>2026-04-18T09:18:16Z</time></trkpt><trkpt lat="47.75029407762829" lon="11.840623242551745"><ele>764.0</ele><time>2026-04-18T09:18:17Z</time></trkpt><trkpt lat="47.75038124371945" lon="11.840557982916732"><ele>764.0</ele><time>2026-04-18T09:18:18Z</time></trkpt><trkpt lat="47.750464233148215" lon="11.840494427214656"><ele>764.0</ele><time>2026-04-18T09:18:19Z</time></trkpt><trkpt lat="47.750546620998705" lon="11.840430844638673"><ele>764.0</ele><time>2026-04-18T09:18:20Z</time></trkpt><trkpt lat="47.750630561989446" lon="11.840366853166564"><ele>764.0</ele><time>2026-04-18T09:18:21Z</time></trkpt><trkpt lat="47.75071416253485" lon="11.840302403135544"><ele>764.0</ele><time>2026-04-18T09:18:22Z</time></trkpt><trkpt lat="47.750798374963495" lon="11.840236229346397"><ele>764.0</ele><time>2026-04-18T09:18:23Z</time></trkpt><trkpt lat="47.75088945603984" lon="11.840166281043707"><ele>763.75</ele><time>2026-04-18T09:18:24Z</time></trkpt><trkpt lat="47.75098340945308" lon="11.840092617245617"><ele>763.5</ele><time>2026-04-18T09:18:25Z</time></trkpt><trkpt lat="47.75107840656544" lon="11.840013922305454"><ele>763.25</ele><time>2026-04-18T09:18:26Z</time></trkpt><trkpt lat="47.751176844528146" lon="11.839936060313553"><ele>763.0</ele><time>2026-04-18T09:18:27Z</time></trkpt><trkpt lat="47.75129295800277" lon="11.839843407663714"><ele>763.0</ele><time>2026-04-18T09:18:28Z</time></trkpt><trkpt lat="47.751405595213086" lon="11.839746868917116"><ele>763.0</ele><time>2026-04-18T09:18:29Z</time></trkpt><trkpt lat="47.751514412493734" lon="11.839655435002042"><ele>763.0</ele><time>2026-04-18T09:18:30Z</time></trkpt><trkpt lat="47.75161581484869" lon="11.83957303712022"><ele>763.0</ele><time>2026-04-18T09:18:31Z</time></trkpt><trkpt lat="47.751716049122116" lon="11.839496774763845"><ele>763.0</ele><time>2026-04-18T09:18:32Z</time></trkpt><trkpt lat="47.751815434135096" lon="11.83941591328277"><ele>763.0</ele><time>2026-04-18T09:18:33Z</time></trkpt><trkpt lat="47.751918906150635" lon="11.839333651455766"><ele>763.0</ele><time>2026-04-18T09:18:34Z</time></trkpt><trkpt lat="47.7520266452855" lon="11.839247208183169"><ele>763.0</ele><time>2026-04-18T09:18:35Z</time></trkpt><trkpt lat="47.752129880816774" lon="11.83916404917273"><ele>762.5</ele><time>2026-04-18T09:18:36Z</time></trkpt><trkpt lat="47.75223629445258" lon="11.83907531916421"><ele>762.0</ele><time>2026-04-18T09:18:37Z</time></trkpt><trkpt lat="47.752344172028764" lon="11.838986546976459"><ele>761.5</ele><time>2026-04-18T09:18:38Z</time></trkpt><trkpt lat="47.75244853296106" lon="11.838902988700701"><ele>761.0</ele><time>2026-04-18T09:18:39Z</time></trkpt><trkpt lat="47.7525494089282" lon="11.838829350499543"><ele>761.0</ele><time>2026-04-18T09:18:40Z</time></trkpt><trkpt lat="47.752649391257066" lon="11.838754479815409"><ele>761.0</ele><time>2026-04-18T09:18:41Z</time></trkpt><trkpt lat="47.752746314166096" lon="11.83868718294884"><ele>761.0</ele><time>2026-04-18T09:18:42Z</time></trkpt><trkpt lat="47.752847805234204" lon="11.838626210128336"><ele>761.0</ele><time>2026-04-18T09:18:43Z</time></trkpt><trkpt lat="47.75294867351977" lon="11.838558444980306"><ele>761.0</ele><time>2026-04-18T09:18:44Z</time></trkpt><trkpt lat="47.75303583262279" lon="11.838490299755868"><ele>761.25</ele><time>2026-04-18T09:18:45Z</time></trkpt><trkpt lat="47.753118340998135" lon="11.83842240105735"><ele>761.5</ele><time>2026-04-18T09:18:46Z</time></trkpt><trkpt lat="47.75320882928148" lon="11.838336550145561"><ele>761.75</ele><time>2026-04-18T09:18:47Z</time></trkpt><trkpt lat="47.75331296264541" lon="11.838240232751524"><ele>762.0</ele><time>2026-04-18T09:18:48Z</time></trkpt><trkpt lat="47.753429038069676" lon="11.838138229078439"><ele>763.75</ele><time>2026-04-18T09:18:49Z</time></trkpt><trkpt lat="47.75354031920347" lon="11.838041822960813"><ele>765.5</ele><time>2026-04-18T09:18:50Z</time></trkpt><trkpt lat="47.753642217583796" lon="11.837948299199137"><ele>767.25</ele><time>2026-04-18T09:18:51Z</time></trkpt><trkpt lat="47.75374279872631" lon="11.837849532076076"><ele>769.0</ele><time>2026-04-18T09:18:52Z</time></trkpt><trkpt lat="47.75384062476314" lon="11.837744575009678"><ele>769.0</ele><time>2026-04-18T09:18:53Z</time></trkpt><trkpt lat="47.75393578523291" lon="11.837635614790274"><ele>769.0</ele><time>2026-04-18T09:18:54Z</time></trkpt><trkpt lat="47.754025956132274" lon="11.837521440553447"><ele>769.0</ele><time>2026-04-18T09:18:55Z</time></trkpt><trkpt lat="47.7541132990051" lon="11.837405925449946"><ele>769.0</ele><time>2026-04-18T09:18:56Z</time></trkpt><trkpt lat="47.754198719866594" lon="11.837284117956669"><ele>769.75</ele><time>2026-04-18T09:18:57Z</time></trkpt><trkpt lat="47.75428068396027" lon="11.837155140505214"><ele>770.5</ele><time>2026-04-18T09:18:58Z</time></trkpt><trkpt lat="47.75436012818072" lon="11.837025517121386"><ele>771.25</ele><time>2026-04-18T09:18:59Z</time></trkpt><trkpt lat="47.75443453148971" lon="11.836892302357313"><ele>772.0</ele><time>2026-04-18T09:19:00Z</time></trkpt><trkpt lat="47.754506874392604" lon="11.836761043483373"><ele>770.2</ele><time>2026-04-18T09:19:01Z</time></trkpt><trkpt lat="47.75457460937533" lon="11.836630216625238"><ele>768.4000000000001</ele><time>2026-04-18T09:19:02Z</time></trkpt><trkpt lat="47.754638573951546" lon="11.836498868089645"><ele>766.5999999999999</ele><time>2026-04-18T09:19:03Z</time></trkpt><trkpt lat="47.75471913087906" lon="11.836387868005135"><ele>764.8</ele><time>2026-04-18T09:19:04Z</time></trkpt><trkpt lat="47.75478323925643" lon="11.836257692049628"><ele>763.0</ele><time>2026-04-18T09:19:05Z</time></trkpt><trkpt lat="47.754839320764326" lon="11.836114180647224"><ele>763.0</ele><time>2026-04-18T09:19:06Z</time></trkpt><trkpt lat="47.75491182222968" lon="11.835980159433353"><ele>763.0</ele><time>2026-04-18T09:19:07Z</time></trkpt><trkpt lat="47.75498562396121" lon="11.835841010840072"><ele>763.0</ele><time>2026-04-18T09:19:08Z</time></trkpt><trkpt lat="47.75505469588816" lon="11.835692280253326"><ele>763.0</ele><time>2026-04-18T09:19:09Z</time></trkpt><trkpt lat="47.75512107431004" lon="11.835540489652884"><ele>763.25</ele><time>2026-04-18T09:19:10Z</time></trkpt><trkpt lat="47.75518927074796" lon="11.83538951035869"><ele>763.5</ele><time>2026-04-18T09:19:11Z</time></trkpt><trkpt lat="47.755257848785504" lon="11.8352357565753"><ele>763.75</ele><time>2026-04-18T09:19:12Z</time></trkpt><trkpt lat="47.75532857795975" lon="11.835080805194922"><ele>764.0</ele><time>2026-04-18T09:19:13Z</time></trkpt><trkpt lat="47.755401600144445" lon="11.83492784668454"><ele>764.0</ele><time>2026-04-18T09:19:14Z</time></trkpt><trkpt lat="47.755480169142054" lon="11.834786822833534"><ele>764.0</ele><time>2026-04-18T09:19:15Z</time></trkpt><trkpt lat="47.7555619749547" lon="11.834657591488547"><ele>764.0</ele><time>2026-04-18T09:19:16Z</time></trkpt><trkpt lat="47.75564860916361" lon="11.834543082095612"><ele>764.0</ele><time>2026-04-18T09:19:17Z</time></trkpt><trkpt lat="47.75574078496847" lon="11.83443587405266"><ele>764.0</ele><time>2026-04-18T09:19:18Z</time></trkpt><trkpt lat="47.75583627035216" lon="11.83433291285155"><ele>764.0</ele><time>2026-04-18T09:19:19Z</time></trkpt><trkpt lat="47.755925568026754" lon="11.834231943318855"><ele>764.0</ele><time>2026-04-18T09:19:20Z</time></trkpt><trkpt lat="47.756010591915405" lon="11.834141723758952"><ele>764.0</ele><time>2026-04-18T09:19:21Z</time></trkpt><trkpt lat="47.75609101596002" lon="11.834054844177192"><ele>764.0</ele><time>2026-04-18T09:19:22Z</time></trkpt><trkpt lat="47.75616778129016" lon="11.83396551104565"><ele>765.2</ele><time>2026-04-18T09:19:23Z</time></trkpt><trkpt lat="47.75623513610856" lon="11.833862915675299"><ele>766.4000000000001</ele><time>2026-04-18T09:19:24Z</time></trkpt><trkpt lat="47.756287428725635" lon="11.833738486282366"><ele>767.6</ele><time>2026-04-18T09:19:25Z</time></trkpt><trkpt lat="47.75631613530716" lon="11.833580601495417"><ele>768.8</ele><time>2026-04-18T09:19:26Z</time></trkpt><trkpt lat="47.75633004160879" lon="11.833442099888051"><ele>770.0</ele><time>2026-04-18T09:19:27Z</time></trkpt><trkpt lat="47.75633349446524" lon="11.833308860461088"><ele>770.0</ele><time>2026-04-18T09:19:28Z</time></trkpt><trkpt lat="47.756337730748086" lon="11.8331701311611"><ele>770.0</ele><time>2026-04-18T09:19:29Z</time></trkpt><trkpt lat="47.75634316725928" lon="11.833017615319367"><ele>770.0</ele><time>2026-04-18T09:19:30Z</time></trkpt><trkpt lat="47.75635128563952" lon="11.832875768170576"><ele>770.0</ele><time>2026-04-18T09:19:31Z</time></trkpt><trkpt lat="47.75635946794995" lon="11.832740389106066"><ele>770.0</ele><time>2026-04-18T09:19:32Z</time></trkpt><trkpt lat="47.756369123455464" lon="11.832613907961393"><ele>769.1666666666667</ele><time>2026-04-18T09:19:33Z</time></trkpt><trkpt lat="47.75637981017266" lon="11.83249287966866"><ele>768.3333333333334</ele><time>2026-04-18T09:19:34Z</time></trkpt><trkpt lat="47.756397377937056" lon="11.832366503626467"><ele>767.5</ele><time>2026-04-18T09:19:35Z</time></trkpt><trkpt lat="47.756420937743705" lon="11.832239645226146"><ele>766.6666666666667</ele><time>2026-04-18T09:19:36Z</time></trkpt><trkpt lat="47.75644839398626" lon="11.83211313618174"><ele>765.8333333333334</ele><time>2026-04-18T09:19:37Z</time></trkpt><trkpt lat="47.756481359589365" lon="11.8319862934866"><ele>765.0</ele><time>2026-04-18T09:19:38Z</time></trkpt><trkpt lat="47.756522817003" lon="11.831850993917142"><ele>763.4</ele><time>2026-04-18T09:19:39Z</time></trkpt><trkpt lat="47.75657170138515" lon="11.831710756000824"><ele>761.8</ele><time>2026-04-18T09:19:40Z</time></trkpt><trkpt lat="47.75662881382867" lon="11.831569904481865"><ele>760.2</ele><time>2026-04-18T09:19:41Z</time></trkpt><trkpt lat="47.75668769226562" lon="11.83143235771262"><ele>758.6</ele><time>2026-04-18T09:19:42Z</time></trkpt><trkpt lat="47.756746210531674" lon="11.831305394754782"><ele>757.0</ele><time>2026-04-18T09:19:43Z</time></trkpt><trkpt lat="47.75680765941442" lon="11.83118139760987"><ele>756.2</ele><time>2026-04-18T09:19:44Z</time></trkpt><trkpt lat="47.7568697930424" lon="11.831059470253381"><ele>755.4000000000001</ele><time>2026-04-18T09:19:45Z</time></trkpt><trkpt lat="47.7569363801174" lon="11.830939982094211"><ele>754.5999999999999</ele><time>2026-04-18T09:19:46Z</time></trkpt><trkpt lat="47.757008799221765" lon="11.830817594082895"><ele>753.8</ele><time>2026-04-18T09:19:47Z</time></trkpt><trkpt lat="47.75708975911687" lon="11.830697770762896"><ele>753.0</ele><time>2026-04-18T09:19:48Z</time></trkpt><trkpt lat="47.75717428963547" lon="11.83058048621889"><ele>753.0</ele><time>2026-04-18T09:19:49Z</time></trkpt><trkpt lat="47.75726111730468" lon="11.830464446622386"><ele>753.0</ele><time>2026-04-18T09:19:50Z</time></trkpt><trkpt lat="47.75734929899991" lon="11.8303475748919"><ele>753.0</ele><time>2026-04-18T09:19:51Z</time></trkpt><trkpt lat="47.75743672964754" lon="11.83022971131637"><ele>753.0</ele><time>2026-04-18T09:19:52Z</time></trkpt><trkpt lat="47.75752301946177" lon="11.830114385019534"><ele>752.5999999999999</ele><time>2026-04-18T09:19:53Z</time></trkpt><trkpt lat="47.757608055566415" lon="11.830000426441174"><ele>752.1999999999999</ele><time>2026-04-18T09:19:54Z</time></trkpt><trkpt lat="47.75769174431398" lon="11.829889517496353"><ele>751.8</ele><time>2026-04-18T09:19:55Z</time></trkpt><trkpt lat="47.75777355560351" lon="11.829781309326957"><ele>751.4</ele><time>2026-04-18T09:19:56Z</time></trkpt><trkpt lat="47.757853734235965" lon="11.829677144573449"><ele>751.0</ele><time>2026-04-18T09:19:57Z</time></trkpt><trkpt lat="47.75793381372092" lon="11.82957600547559"><ele>751.0</ele><time>2026-04-18T09:19:58Z</time></trkpt><trkpt lat="47.75801435795705" lon="11.829471421961191"><ele>751.0</ele><time>2026-04-18T09:19:59Z</time></trkpt><trkpt lat="47.7580955776207" lon="11.82936342994763"><ele>751.0</ele><time>2026-04-18T09:20:00Z</time></trkpt><trkpt lat="47.75817851695035" lon="11.829255938174787"><ele>751.0</ele><time>2026-04-18T09:20:01Z</time></trkpt><trkpt lat="47.75826241531819" lon="11.829148227598209"><ele>751.0</ele><time>2026-04-18T09:20:02Z</time></trkpt><trkpt lat="47.75834644901725" lon="11.829041510677675"><ele>750.0</ele><time>2026-04-18T09:20:03Z</time></trkpt><trkpt lat="47.75843329466391" lon="11.828937746217795"><ele>749.0</ele><time>2026-04-18T09:20:04Z</time></trkpt><trkpt lat="47.758525458947354" lon="11.828843546718902"><ele>748.0</ele><time>2026-04-18T09:20:05Z</time></trkpt><trkpt lat="47.75862141943972" lon="11.828760321530991"><ele>747.0</ele><time>2026-04-18T09:20:06Z</time></trkpt><trkpt lat="47.758719034293534" lon="11.82868388236051"><ele>746.0</ele><time>2026-04-18T09:20:07Z</time></trkpt><trkpt lat="47.75881672977464" lon="11.828609303132428"><ele>746.0</ele><time>2026-04-18T09:20:08Z</time></trkpt><trkpt lat="47.75891313529623" lon="11.828535869313953"><ele>746.0</ele><time>2026-04-18T09:20:09Z</time></trkpt><trkpt lat="47.75900859930636" lon="11.828464051482356"><ele>746.0</ele><time>2026-04-18T09:20:10Z</time></trkpt><trkpt lat="47.75910349144731" lon="11.82839226857375"><ele>746.0</ele><time>2026-04-18T09:20:11Z</time></trkpt><trkpt lat="47.75919760662886" lon="11.828321935958881"><ele>746.0</ele><time>2026-04-18T09:20:12Z</time></trkpt><trkpt lat="47.75929089031208" lon="11.828253254359083"><ele>745.5</ele><time>2026-04-18T09:20:13Z</time></trkpt><trkpt lat="47.7593862105758" lon="11.828183643198562"><ele>745.0</ele><time>2026-04-18T09:20:14Z</time></trkpt><trkpt lat="47.75947851183481" lon="11.828116511302069"><ele>744.5</ele><time>2026-04-18T09:20:15Z</time></trkpt><trkpt lat="47.75955988907895" lon="11.828055532120926"><ele>744.0</ele><time>2026-04-18T09:20:16Z</time></trkpt><trkpt lat="47.75962719338445" lon="11.828006286172549"><ele>743.5</ele><time>2026-04-18T09:20:17Z</time></trkpt><trkpt lat="47.759683295956386" lon="11.827963748892028"><ele>743.0</ele><time>2026-04-18T09:20:18Z</time></trkpt><trkpt lat="47.75977319140359" lon="11.827900503445468"><ele>743.0</ele><time>2026-04-18T09:20:20Z</time></trkpt><trkpt lat="47.759860046488974" lon="11.827840048503587"><ele>743.0</ele><time>2026-04-18T09:20:22Z</time></trkpt><trkpt lat="47.7599386034668" lon="11.827786066769443"><ele>743.0</ele><time>2026-04-18T09:20:24Z</time></trkpt><trkpt lat="47.76002869750675" lon="11.827729981941278"><ele>743.0</ele><time>2026-04-18T09:20:26Z</time></trkpt><trkpt lat="47.760089859619605" lon="11.82769233944405"><ele>743.0</ele><time>2026-04-18T09:20:27Z</time></trkpt><trkpt lat="47.76016026572504" lon="11.827649190275743"><ele>743.0</ele><time>2026-04-18T09:20:28Z</time></trkpt><trkpt lat="47.76023529845865" lon="11.827602751885712"><ele>742.8333333333333</ele><time>2026-04-18T09:20:29Z</time></trkpt><trkpt lat="47.7603089924652" lon="11.827555881297153"><ele>742.6666666666666</ele><time>2026-04-18T09:20:30Z</time></trkpt><trkpt lat="47.7603832151931" lon="11.82751171260713"><ele>742.5</ele><time>2026-04-18T09:20:31Z</time></trkpt><trkpt lat="47.760459048868846" lon="11.827467611052999"><ele>742.3333333333334</ele><time>2026-04-18T09:20:32Z</time></trkpt><trkpt lat="47.76053542324178" lon="11.827422857263393"><ele>742.1666666666667</ele><time>2026-04-18T09:20:33Z</time></trkpt><trkpt lat="47.76062369507353" lon="11.82736885921169"><ele>742.0</ele><time>2026-04-18T09:20:34Z</time></trkpt><trkpt lat="47.76071129847582" lon="11.82731649093705"><ele>742.0</ele><time>2026-04-18T09:20:35Z</time></trkpt><trkpt lat="47.76079586601005" lon="11.827267135913612"><ele>742.0</ele><time>2026-04-18T09:20:36Z</time></trkpt><trkpt lat="47.76087707779334" lon="11.827219969090965"><ele>742.0</ele><time>2026-04-18T09:20:37Z</time></trkpt><trkpt lat="47.76095761647867" lon="11.827174848958704"><ele>742.0</ele><time>2026-04-18T09:20:38Z</time></trkpt><trkpt lat="47.76104149053288" lon="11.827125085369197"><ele>742.0</ele><time>2026-04-18T09:20:39Z</time></trkpt><trkpt lat="47.761133002556655" lon="11.827074275067638"><ele>742.0</ele><time>2026-04-18T09:20:40Z</time></trkpt><trkpt lat="47.7612303504479" lon="11.82703001408203"><ele>742.0</ele><time>2026-04-18T09:20:41Z</time></trkpt><trkpt lat="47.76133126415985" lon="11.826989681418986"><ele>742.0</ele><time>2026-04-18T09:20:42Z</time></trkpt><trkpt lat="47.76143815264532" lon="11.826958445608895"><ele>742.0</ele><time>2026-04-18T09:20:43Z</time></trkpt><trkpt lat="47.761549282518295" lon="11.826938362811637"><ele>742.0</ele><time>2026-04-18T09:20:44Z</time></trkpt><trkpt lat="47.76166429238097" lon="11.826924638793496"><ele>742.0</ele><time>2026-04-18T09:20:45Z</time></trkpt><trkpt lat="47.761779871753966" lon="11.82691516242087"><ele>742.0</ele><time>2026-04-18T09:20:46Z</time></trkpt><trkpt lat="47.761894470359394" lon="11.82690782309955"><ele>742.0</ele><time>2026-04-18T09:20:47Z</time></trkpt><trkpt lat="47.76200291344336" lon="11.826902293731964"><ele>742.0</ele><time>2026-04-18T09:20:48Z</time></trkpt><trkpt lat="47.76209907288985" lon="11.826895678931661"><ele>742.0</ele><time>2026-04-18T09:20:48.999Z</time></trkpt><trkpt lat="47.762183979140566" lon="11.826889523789202"><ele>741.6666666666667</ele><time>2026-04-18T09:20:49.999Z</time></trkpt><trkpt lat="47.76225741488792" lon="11.826884824972788"><ele>741.3333333333334</ele><time>2026-04-18T09:20:50.999Z</time></trkpt><trkpt lat="47.762321690410424" lon="11.826880267870536"><ele>741.0</ele><time>2026-04-18T09:20:51.999Z</time></trkpt><trkpt lat="47.76242997778801" lon="11.82687131033875"><ele>740.6666666666666</ele><time>2026-04-18T09:20:53.999Z</time></trkpt><trkpt lat="47.762515482831475" lon="11.826855635367883"><ele>740.3333333333333</ele><time>2026-04-18T09:20:55.999Z</time></trkpt><trkpt lat="47.762593216918724" lon="11.826842061718043"><ele>740.0</ele><time>2026-04-18T09:20:57.999Z</time></trkpt><trkpt lat="47.76266402252258" lon="11.826835290400433"><ele>740.0</ele><time>2026-04-18T09:20:59.999Z</time></trkpt><trkpt lat="47.76276269543436" lon="11.826859544748899"><ele>740.0</ele><time>2026-04-18T09:21:01.999Z</time></trkpt><trkpt lat="47.76281148846399" lon="11.826920897022825"><ele>740.0</ele><time>2026-04-18T09:21:02.999Z</time></trkpt><trkpt lat="47.76292723603809" lon="11.826944514568332"><ele>740.0</ele><time>2026-04-18T09:21:04.999Z</time></trkpt><trkpt lat="47.76298448398788" lon="11.826874179847918"><ele>740.0</ele><time>2026-04-18T09:21:05.999Z</time></trkpt><trkpt lat="47.76303173301063" lon="11.826802102383114"><ele>740.0</ele><time>2026-04-18T09:21:06.999Z</time></trkpt><trkpt lat="47.76309177320073" lon="11.826760432666573"><ele>739.4285714285713</ele><time>2026-04-18T09:21:07.999Z</time></trkpt><trkpt lat="47.763157392420695" lon="11.826745215385094"><ele>738.8571428571429</ele><time>2026-04-18T09:21:08.999Z</time></trkpt><trkpt lat="47.76322102002159" lon="11.826736155711423"><ele>738.2857142857142</ele><time>2026-04-18T09:21:09.999Z</time></trkpt><trkpt lat="47.76328943468019" lon="11.826727149970552"><ele>737.7142857142857</ele><time>2026-04-18T09:21:10.999Z</time></trkpt><trkpt lat="47.76336324518831" lon="11.82671166794224"><ele>737.1428571428571</ele><time>2026-04-18T09:21:11.999Z</time></trkpt><trkpt lat="47.763446293482176" lon="11.826688656491656"><ele>736.5714285714286</ele><time>2026-04-18T09:21:12.999Z</time></trkpt><trkpt lat="47.763534427221906" lon="11.826655036949527"><ele>736.0</ele><time>2026-04-18T09:21:13.999Z</time></trkpt><trkpt lat="47.76362081163968" lon="11.826625514618836"><ele>735.5999999999999</ele><time>2026-04-18T09:21:14.999Z</time></trkpt><trkpt lat="47.763710564064304" lon="11.826595108745147"><ele>735.2</ele><time>2026-04-18T09:21:15.999Z</time></trkpt><trkpt lat="47.763799366402395" lon="11.826562133236731"><ele>734.8</ele><time>2026-04-18T09:21:16.999Z</time></trkpt><trkpt lat="47.763886884252265" lon="11.826526862605323"><ele>734.4000000000001</ele><time>2026-04-18T09:21:18Z</time></trkpt><trkpt lat="47.76397757618323" lon="11.826490087126995"><ele>734.0</ele><time>2026-04-18T09:21:19Z</time></trkpt><trkpt lat="47.76406781184706" lon="11.826453234992863"><ele>734.0</ele><time>2026-04-18T09:21:20Z</time></trkpt><trkpt lat="47.76415968134901" lon="11.82641402287443"><ele>734.0</ele><time>2026-04-18T09:21:21Z</time></trkpt><trkpt lat="47.76425279787548" lon="11.826374314762733"><ele>734.0</ele><time>2026-04-18T09:21:22Z</time></trkpt><trkpt lat="47.76434964912443" lon="11.826332889829986"><ele>734.0</ele><time>2026-04-18T09:21:23Z</time></trkpt><trkpt lat="47.76444913741721" lon="11.826291727551233"><ele>734.0</ele><time>2026-04-18T09:21:24Z</time></trkpt><trkpt lat="47.76455958855254" lon="11.826246022248947"><ele>733.2</ele><time>2026-04-18T09:21:25Z</time></trkpt><trkpt lat="47.76466113527253" lon="11.826198628256666"><ele>732.4000000000001</ele><time>2026-04-18T09:21:26Z</time></trkpt><trkpt lat="47.764750964403895" lon="11.82615786233624"><ele>731.6</ele><time>2026-04-18T09:21:27Z</time></trkpt><trkpt lat="47.764841960222974" lon="11.826121499836843"><ele>730.8</ele><time>2026-04-18T09:21:28Z</time></trkpt><trkpt lat="47.764935714003045" lon="11.826080209851662"><ele>730.0</ele><time>2026-04-18T09:21:29Z</time></trkpt><trkpt lat="47.765029489497934" lon="11.826042893582411"><ele>730.0</ele><time>2026-04-18T09:21:30Z</time></trkpt><trkpt lat="47.765126265216644" lon="11.82600830691929"><ele>730.0</ele><time>2026-04-18T09:21:31Z</time></trkpt><trkpt lat="47.76522405548354" lon="11.825969041390247"><ele>730.0</ele><time>2026-04-18T09:21:32Z</time></trkpt><trkpt lat="47.765321879409946" lon="11.825928877587586"><ele>730.0</ele><time>2026-04-18T09:21:33Z</time></trkpt><trkpt lat="47.76542102067273" lon="11.825886503225163"><ele>730.0</ele><time>2026-04-18T09:21:34Z</time></trkpt><trkpt lat="47.765522634845446" lon="11.82584503013453"><ele>729.4</ele><time>2026-04-18T09:21:35Z</time></trkpt><trkpt lat="47.76562722910651" lon="11.825800451511206"><ele>728.8</ele><time>2026-04-18T09:21:36Z</time></trkpt><trkpt lat="47.765726217740465" lon="11.82576063324935"><ele>728.2</ele><time>2026-04-18T09:21:37Z</time></trkpt><trkpt lat="47.76582046957729" lon="11.825720006262506"><ele>727.6</ele><time>2026-04-18T09:21:38Z</time></trkpt><trkpt lat="47.76591528111307" lon="11.825680099651908"><ele>727.0</ele><time>2026-04-18T09:21:39Z</time></trkpt><trkpt lat="47.76601122677953" lon="11.825638495269535"><ele>727.25</ele><time>2026-04-18T09:21:40Z</time></trkpt><trkpt lat="47.76611731161473" lon="11.825591568891568"><ele>727.5</ele><time>2026-04-18T09:21:41Z</time></trkpt><trkpt lat="47.76623007103393" lon="11.825545247187664"><ele>727.75</ele><time>2026-04-18T09:21:41.999Z</time></trkpt><trkpt lat="47.76634982421692" lon="11.82550002868887"><ele>728.0</ele><time>2026-04-18T09:21:42.999Z</time></trkpt><trkpt lat="47.76649130945515" lon="11.825454536769461"><ele>728.0</ele><time>2026-04-18T09:21:43.999Z</time></trkpt><trkpt lat="47.76661887573377" lon="11.825430239120685"><ele>728.0</ele><time>2026-04-18T09:21:44.999Z</time></trkpt><trkpt lat="47.76673876525219" lon="11.82541329489564"><ele>728.0</ele><time>2026-04-18T09:21:45.999Z</time></trkpt><trkpt lat="47.76684940808523" lon="11.82540281768504"><ele>728.0</ele><time>2026-04-18T09:21:46.999Z</time></trkpt><trkpt lat="47.76696364818399" lon="11.825393935800552"><ele>728.0</ele><time>2026-04-18T09:21:47.999Z</time></trkpt><trkpt lat="47.767081785979315" lon="11.825396651990133"><ele>728.0</ele><time>2026-04-18T09:21:48.999Z</time></trkpt><trkpt lat="47.767205105678535" lon="11.825413927767842"><ele>728.0</ele><time>2026-04-18T09:21:49.999Z</time></trkpt><trkpt lat="47.76732719854355" lon="11.825440367941772"><ele>728.0</ele><time>2026-04-18T09:21:50.999Z</time></trkpt><trkpt lat="47.76744291389983" lon="11.825469738815887"><ele>728.0</ele><time>2026-04-18T09:21:51.999Z</time></trkpt><trkpt lat="47.767559413347804" lon="11.825497643409252"><ele>728.0</ele><time>2026-04-18T09:21:52.999Z</time></trkpt><trkpt lat="47.76767584210636" lon="11.825521472422697"><ele>728.0</ele><time>2026-04-18T09:21:53.999Z</time></trkpt><trkpt lat="47.76779311079652" lon="11.825544135525599"><ele>728.0</ele><time>2026-04-18T09:21:54.999Z</time></trkpt><trkpt lat="47.76790979041453" lon="11.82556402868585"><ele>727.5</ele><time>2026-04-18T09:21:55.999Z</time></trkpt><trkpt lat="47.76802668109327" lon="11.825575899414941"><ele>727.0</ele><time>2026-04-18T09:21:56.999Z</time></trkpt><trkpt lat="47.768146148736776" lon="11.825577764747118"><ele>726.5</ele><time>2026-04-18T09:21:57.999Z</time></trkpt><trkpt lat="47.76826819604287" lon="11.825570525599932"><ele>726.0</ele><time>2026-04-18T09:21:58.999Z</time></trkpt><trkpt lat="47.76838839750436" lon="11.825564896812606"><ele>726.0</ele><time>2026-04-18T09:21:59.999Z</time></trkpt><trkpt lat="47.76850946700686" lon="11.825566647720656"><ele>726.0</ele><time>2026-04-18T09:22:00.999Z</time></trkpt><trkpt lat="47.76862981734454" lon="11.825581431717566"><ele>726.0</ele><time>2026-04-18T09:22:01.999Z</time></trkpt><trkpt lat="47.76874399936257" lon="11.825603613854044"><ele>726.0</ele><time>2026-04-18T09:22:02.999Z</time></trkpt><trkpt lat="47.76885806797982" lon="11.825635605483502"><ele>726.25</ele><time>2026-04-18T09:22:03.999Z</time></trkpt><trkpt lat="47.76897357261914" lon="11.825680540705507"><ele>726.5</ele><time>2026-04-18T09:22:04.999Z</time></trkpt><trkpt lat="47.7690974669644" lon="11.825731230123255"><ele>726.75</ele><time>2026-04-18T09:22:05.999Z</time></trkpt><trkpt lat="47.76922938443318" lon="11.825782790580561"><ele>727.0</ele><time>2026-04-18T09:22:06.999Z</time></trkpt><trkpt lat="47.76936627669729" lon="11.825837147006409"><ele>726.0</ele><time>2026-04-18T09:22:07.999Z</time></trkpt><trkpt lat="47.7695056746049" lon="11.825891837367642"><ele>725.0</ele><time>2026-04-18T09:22:08.999Z</time></trkpt><trkpt lat="47.769637841642684" lon="11.825947989238243"><ele>724.0</ele><time>2026-04-18T09:22:09.999Z</time></trkpt><trkpt lat="47.7697651289952" lon="11.826005752905624"><ele>723.0</ele><time>2026-04-18T09:22:10.999Z</time></trkpt><trkpt lat="47.769891401490206" lon="11.826061266272214"><ele>725.0</ele><time>2026-04-18T09:22:11.999Z</time></trkpt><trkpt lat="47.77001326584103" lon="11.826113240254731"><ele>727.0</ele><time>2026-04-18T09:22:12.999Z</time></trkpt><trkpt lat="47.770129147084454" lon="11.826165198794206"><ele>729.0</ele><time>2026-04-18T09:22:13.999Z</time></trkpt><trkpt lat="47.77024574723806" lon="11.826215645690054"><ele>731.0</ele><time>2026-04-18T09:22:14.999Z</time></trkpt><trkpt lat="47.77036678376069" lon="11.826265450878624"><ele>731.0</ele><time>2026-04-18T09:22:15.999Z</time></trkpt><trkpt lat="47.770493786845066" lon="11.826315681152424"><ele>731.0</ele><time>2026-04-18T09:22:16.999Z</time></trkpt><trkpt lat="47.77062600662557" lon="11.826368207251988"><ele>731.0</ele><time>2026-04-18T09:22:17.999Z</time></trkpt><trkpt lat="47.770755301545684" lon="11.826419565274083"><ele>731.0</ele><time>2026-04-18T09:22:19Z</time></trkpt><trkpt lat="47.77088513198744" lon="11.826464488949256"><ele>731.0</ele><time>2026-04-18T09:22:20Z</time></trkpt><trkpt lat="47.77101726207095" lon="11.82650396856794"><ele>731.0</ele><time>2026-04-18T09:22:21Z</time></trkpt><trkpt lat="47.77115015166359" lon="11.8265423398475"><ele>731.0</ele><time>2026-04-18T09:22:22Z</time></trkpt><trkpt lat="47.77128550360195" lon="11.82657894042588"><ele>731.0</ele><time>2026-04-18T09:22:23Z</time></trkpt><trkpt lat="47.77141805911866" lon="11.826617976024373"><ele>729.75</ele><time>2026-04-18T09:22:24Z</time></trkpt><trkpt lat="47.771546189038254" lon="11.826663035549373"><ele>728.5</ele><time>2026-04-18T09:22:25Z</time></trkpt><trkpt lat="47.77166834207123" lon="11.826712393496745"><ele>727.25</ele><time>2026-04-18T09:22:26Z</time></trkpt><trkpt lat="47.77178842713966" lon="11.82675765620008"><ele>726.0</ele><time>2026-04-18T09:22:27Z</time></trkpt><trkpt lat="47.77190652921902" lon="11.826802899820944"><ele>726.75</ele><time>2026-04-18T09:22:28Z</time></trkpt><trkpt lat="47.772020370876305" lon="11.826851525099636"><ele>727.5</ele><time>2026-04-18T09:22:29Z</time></trkpt><trkpt lat="47.772133975567435" lon="11.826901882634967"><ele>728.25</ele><time>2026-04-18T09:22:30Z</time></trkpt><trkpt lat="47.77224623729411" lon="11.826954640442725"><ele>729.0</ele><time>2026-04-18T09:22:31Z</time></trkpt><trkpt lat="47.772362809638885" lon="11.827014696980752"><ele>729.0</ele><time>2026-04-18T09:22:32Z</time></trkpt><trkpt lat="47.77248446856319" lon="11.827087178959085"><ele>729.0</ele><time>2026-04-18T09:22:33Z</time></trkpt><trkpt lat="47.772608811684364" lon="11.827170034312712"><ele>729.0</ele><time>2026-04-18T09:22:34Z</time></trkpt><trkpt lat="47.77272237224087" lon="11.82725116128811"><ele>729.0</ele><time>2026-04-18T09:22:35Z</time></trkpt><trkpt lat="47.772832710002106" lon="11.827334448692836"><ele>729.0</ele><time>2026-04-18T09:22:36Z</time></trkpt><trkpt lat="47.77295726522442" lon="11.827427863381097"><ele>729.0</ele><time>2026-04-18T09:22:37Z</time></trkpt><trkpt lat="47.77309322250515" lon="11.827527390155492"><ele>729.0</ele><time>2026-04-18T09:22:38Z</time></trkpt><trkpt lat="47.77324948274912" lon="11.82764043632958"><ele>728.3333333333334</ele><time>2026-04-18T09:22:39Z</time></trkpt><trkpt lat="47.773411040148396" lon="11.827755535193264"><ele>727.6666666666667</ele><time>2026-04-18T09:22:40Z</time></trkpt><trkpt lat="47.773562851861634" lon="11.827854317286281"><ele>727.0</ele><time>2026-04-18T09:22:41Z</time></trkpt><trkpt lat="47.77371021110931" lon="11.827939832340272"><ele>726.6666666666667</ele><time>2026-04-18T09:22:42Z</time></trkpt><trkpt lat="47.77386112178006" lon="11.828018834558288"><ele>726.3333333333334</ele><time>2026-04-18T09:22:43Z</time></trkpt><trkpt lat="47.774016627434406" lon="11.828084714975677"><ele>726.0</ele><time>2026-04-18T09:22:44Z</time></trkpt><trkpt lat="47.774173081290094" lon="11.828136676586816"><ele>726.0</ele><time>2026-04-18T09:22:45Z</time></trkpt><trkpt lat="47.77433117049042" lon="11.828175690702057"><ele>726.0</ele><time>2026-04-18T09:22:46Z</time></trkpt><trkpt lat="47.77448755502507" lon="11.828206016388739"><ele>726.0</ele><time>2026-04-18T09:22:47Z</time></trkpt><trkpt lat="47.77464076866988" lon="11.828233688615928"><ele>725.3333333333334</ele><time>2026-04-18T09:22:48Z</time></trkpt><trkpt lat="47.77479099111544" lon="11.82825668601674"><ele>724.6666666666667</ele><time>2026-04-18T09:22:49Z</time></trkpt><trkpt lat="47.774939322479135" lon="11.828273757405618"><ele>724.0</ele><time>2026-04-18T09:22:50Z</time></trkpt><trkpt lat="47.77508928940857" lon="11.828290774317875"><ele>723.6666666666667</ele><time>2026-04-18T09:22:51Z</time></trkpt><trkpt lat="47.77525460304301" lon="11.828309529148083"><ele>723.3333333333334</ele><time>2026-04-18T09:22:52Z</time></trkpt><trkpt lat="47.775442471738614" lon="11.828325400433405"><ele>723.0</ele><time>2026-04-18T09:22:53Z</time></trkpt><trkpt lat="47.775644419403804" lon="11.828342069329175"><ele>723.0</ele><time>2026-04-18T09:22:54Z</time></trkpt><trkpt lat="47.775830727408554" lon="11.82835999435017"><ele>723.0</ele><time>2026-04-18T09:22:55Z</time></trkpt><trkpt lat="47.77600624131222" lon="11.828379435145447"><ele>723.0</ele><time>2026-04-18T09:22:56Z</time></trkpt><trkpt lat="47.77617265487674" lon="11.828397302311018"><ele>723.3333333333334</ele><time>2026-04-18T09:22:57Z</time></trkpt><trkpt lat="47.77633326042987" lon="11.828414641358846"><ele>723.6666666666667</ele><time>2026-04-18T09:22:58Z</time></trkpt><trkpt lat="47.77649482393973" lon="11.828436172376437"><ele>724.0</ele><time>2026-04-18T09:22:59Z</time></trkpt><trkpt lat="47.77666230614737" lon="11.828461606786986"><ele>723.3333333333334</ele><time>2026-04-18T09:23:00Z</time></trkpt><trkpt lat="47.77683200404927" lon="11.828491167353052"><ele>722.6666666666666</ele><time>2026-04-18T09:23:01Z</time></trkpt><trkpt lat="47.77700529062294" lon="11.82852536540352"><ele>722.0</ele><time>2026-04-18T09:23:02Z</time></trkpt><trkpt lat="47.77717906302828" lon="11.828562888196975"><ele>722.0</ele><time>2026-04-18T09:23:03Z</time></trkpt><trkpt lat="47.77735346518114" lon="11.82860527194765"><ele>722.0</ele><time>2026-04-18T09:23:04Z</time></trkpt><trkpt lat="47.777529392841586" lon="11.82865627313954"><ele>722.0</ele><time>2026-04-18T09:23:05Z</time></trkpt><trkpt lat="47.77770653443509" lon="11.828714322890653"><ele>722.0</ele><time>2026-04-18T09:23:06Z</time></trkpt><trkpt lat="47.7778835941879" lon="11.828779111757026"><ele>722.0</ele><time>2026-04-18T09:23:07Z</time></trkpt><trkpt lat="47.778060434098975" lon="11.828855621335503"><ele>722.0</ele><time>2026-04-18T09:23:08Z</time></trkpt><trkpt lat="47.77823925447493" lon="11.828936993549114"><ele>722.0</ele><time>2026-04-18T09:23:09Z</time></trkpt><trkpt lat="47.77841805177666" lon="11.829030413215163"><ele>722.0</ele><time>2026-04-18T09:23:10Z</time></trkpt><trkpt lat="47.77859745021684" lon="11.829132054367111"><ele>722.0</ele><time>2026-04-18T09:23:11Z</time></trkpt><trkpt lat="47.77877649397019" lon="11.829237766560711"><ele>721.3333333333333</ele><time>2026-04-18T09:23:12Z</time></trkpt><trkpt lat="47.778954235533185" lon="11.829350468845426"><ele>720.6666666666666</ele><time>2026-04-18T09:23:13Z</time></trkpt><trkpt lat="47.779122244616644" lon="11.829464309278796"><ele>720.0</ele><time>2026-04-18T09:23:14Z</time></trkpt><trkpt lat="47.77927768146255" lon="11.829580855715625"><ele>720.3333333333334</ele><time>2026-04-18T09:23:15Z</time></trkpt><trkpt lat="47.77942180984727" lon="11.82970233181139"><ele>720.6666666666667</ele><time>2026-04-18T09:23:16Z</time></trkpt><trkpt lat="47.779553084564895" lon="11.829824119199095"><ele>721.0</ele><time>2026-04-18T09:23:17Z</time></trkpt><trkpt lat="47.77968087620709" lon="11.829938606346886"><ele>721.0</ele><time>2026-04-18T09:23:18Z</time></trkpt><trkpt lat="47.779803992748334" lon="11.830056917055389"><ele>721.0</ele><time>2026-04-18T09:23:19Z</time></trkpt><trkpt lat="47.77993040747883" lon="11.83016883905998"><ele>721.0</ele><time>2026-04-18T09:23:20Z</time></trkpt><trkpt lat="47.78005648936374" lon="11.830284689379505"><ele>721.0</ele><time>2026-04-18T09:23:21Z</time></trkpt><trkpt lat="47.780181520397406" lon="11.83040770175768"><ele>720.0</ele><time>2026-04-18T09:23:22Z</time></trkpt><trkpt lat="47.78030760582896" lon="11.830533314442928"><ele>719.0</ele><time>2026-04-18T09:23:23Z</time></trkpt><trkpt lat="47.780444822424194" lon="11.830667920038525"><ele>718.0</ele><time>2026-04-18T09:23:24Z</time></trkpt><trkpt lat="47.780578304143184" lon="11.830818247690456"><ele>718.0</ele><time>2026-04-18T09:23:25Z</time></trkpt><trkpt lat="47.78070291922706" lon="11.830969513799952"><ele>718.0</ele><time>2026-04-18T09:23:26Z</time></trkpt><trkpt lat="47.78082352480218" lon="11.831110973548585"><ele>718.0</ele><time>2026-04-18T09:23:27Z</time></trkpt><trkpt lat="47.78093209754703" lon="11.83124988718195"><ele>717.5999999999999</ele><time>2026-04-18T09:23:28Z</time></trkpt><trkpt lat="47.78102241952135" lon="11.831379301460425"><ele>717.1999999999999</ele><time>2026-04-18T09:23:29Z</time></trkpt><trkpt lat="47.78109856952907" lon="11.831495457985632"><ele>716.8</ele><time>2026-04-18T09:23:30Z</time></trkpt><trkpt lat="47.781162243053075" lon="11.831595710821631"><ele>716.4</ele><time>2026-04-18T09:23:31Z</time></trkpt><trkpt lat="47.78122489362027" lon="11.831686770494828"><ele>716.0</ele><time>2026-04-18T09:23:32Z</time></trkpt><trkpt lat="47.781283695824214" lon="11.831770550839451"><ele>716.0</ele><time>2026-04-18T09:23:33Z</time></trkpt><trkpt lat="47.78133077602756" lon="11.831844088094787"><ele>716.0</ele><time>2026-04-18T09:23:34Z</time></trkpt><trkpt lat="47.781393501368264" lon="11.831949089825926"><ele>716.0</ele><time>2026-04-18T09:23:36Z</time></trkpt><trkpt lat="47.78144426538615" lon="11.83203001866879"><ele>716.0</ele><time>2026-04-18T09:23:38Z</time></trkpt><trkpt lat="47.78148889700943" lon="11.832106298587"><ele>716.0</ele><time>2026-04-18T09:23:40Z</time></trkpt><trkpt lat="47.78153369932191" lon="11.832179159472362"><ele>716.0</ele><time>2026-04-18T09:23:42Z</time></trkpt><trkpt lat="47.78159171505699" lon="11.832276771850232"><ele>716.0</ele><time>2026-04-18T09:23:45Z</time></trkpt><trkpt lat="47.78164408822506" lon="11.832353258194358"><ele>716.0</ele><time>2026-04-18T09:23:52Z</time></trkpt><trkpt lat="47.78169494863011" lon="11.832433862989422"><ele>716.0</ele><time>2026-04-18T09:23:54Z</time></trkpt><trkpt lat="47.78175002679207" lon="11.832531913748976"><ele>716.0</ele><time>2026-04-18T09:23:55Z</time></trkpt><trkpt lat="47.78181309978192" lon="11.832638102038118"><ele>716.0</ele><time>2026-04-18T09:23:56Z</time></trkpt><trkpt lat="47.78186995231733" lon="11.832734649178462"><ele>716.0</ele><time>2026-04-18T09:23:57Z</time></trkpt><trkpt lat="47.78192071755754" lon="11.832825225686307"><ele>715.0</ele><time>2026-04-18T09:23:58Z</time></trkpt><trkpt lat="47.781977694271035" lon="11.83291941533436"><ele>714.0</ele><time>2026-04-18T09:23:59Z</time></trkpt><trkpt lat="47.78203801663994" lon="11.833021492700066"><ele>713.0</ele><time>2026-04-18T09:24:00Z</time></trkpt><trkpt lat="47.78210204060947" lon="11.833130206990141"><ele>712.0</ele><time>2026-04-18T09:24:01Z</time></trkpt><trkpt lat="47.782170143045" lon="11.833242587593851"><ele>711.0</ele><time>2026-04-18T09:24:02Z</time></trkpt><trkpt lat="47.78224124394952" lon="11.833357332237417"><ele>711.0</ele><time>2026-04-18T09:24:03Z</time></trkpt><trkpt lat="47.78231415414708" lon="11.833470447057582"><ele>711.0</ele><time>2026-04-18T09:24:04Z</time></trkpt><trkpt lat="47.78238657110925" lon="11.833580000951816"><ele>711.0</ele><time>2026-04-18T09:24:05Z</time></trkpt><trkpt lat="47.782462689044024" lon="11.833683689771885"><ele>711.0</ele><time>2026-04-18T09:24:06Z</time></trkpt><trkpt lat="47.782539808909554" lon="11.833784755157225"><ele>711.0</ele><time>2026-04-18T09:24:07Z</time></trkpt><trkpt lat="47.782614031092436" lon="11.833875817537441"><ele>711.5999999999999</ele><time>2026-04-18T09:24:08Z</time></trkpt><trkpt lat="47.78268477021346" lon="11.833960436782965"><ele>712.2</ele><time>2026-04-18T09:24:09Z</time></trkpt><trkpt lat="47.78275347569247" lon="11.834041391956177"><ele>712.8</ele><time>2026-04-18T09:24:10Z</time></trkpt><trkpt lat="47.7828261995393" lon="11.834124254991494"><ele>713.4000000000001</ele><time>2026-04-18T09:24:11Z</time></trkpt><trkpt lat="47.78290840490483" lon="11.834206783068812"><ele>714.0</ele><time>2026-04-18T09:24:12Z</time></trkpt><trkpt lat="47.78299816507674" lon="11.834297479859332"><ele>714.8000000000001</ele><time>2026-04-18T09:24:13Z</time></trkpt><trkpt lat="47.78309625623557" lon="11.83438993336209"><ele>715.6</ele><time>2026-04-18T09:24:14Z</time></trkpt><trkpt lat="47.783186627076276" lon="11.834466087151252"><ele>716.4</ele><time>2026-04-18T09:24:15Z</time></trkpt><trkpt lat="47.78326799047726" lon="11.83453921563305"><ele>717.2</ele><time>2026-04-18T09:24:16Z</time></trkpt><trkpt lat="47.78334783156782" lon="11.834609035327441"><ele>718.0</ele><time>2026-04-18T09:24:17Z</time></trkpt><trkpt lat="47.78342758171219" lon="11.834680701006292"><ele>718.0</ele><time>2026-04-18T09:24:18Z</time></trkpt><trkpt lat="47.783511962081114" lon="11.83475574815034"><ele>718.0</ele><time>2026-04-18T09:24:19Z</time></trkpt><trkpt lat="47.7836038040459" lon="11.834831176941528"><ele>718.0</ele><time>2026-04-18T09:24:20Z</time></trkpt><trkpt lat="47.783692520624676" lon="11.834903778393857"><ele>718.0</ele><time>2026-04-18T09:24:21Z</time></trkpt><trkpt lat="47.78376964453593" lon="11.834971126555411"><ele>718.0</ele><time>2026-04-18T09:24:22Z</time></trkpt><trkpt lat="47.78383739751332" lon="11.835032731612877"><ele>717.4</ele><time>2026-04-18T09:24:23Z</time></trkpt><trkpt lat="47.78389505433609" lon="11.835086650056745"><ele>716.8</ele><time>2026-04-18T09:24:24Z</time></trkpt><trkpt lat="47.783948211938885" lon="11.83513690191297"><ele>716.2</ele><time>2026-04-18T09:24:25Z</time></trkpt><trkpt lat="47.78405333718768" lon="11.835235369837303"><ele>715.6</ele><time>2026-04-18T09:24:27Z</time></trkpt><trkpt lat="47.78414596344218" lon="11.835330066119685"><ele>715.0</ele><time>2026-04-18T09:24:29Z</time></trkpt><trkpt lat="47.784224725435344" lon="11.83540986982606"><ele>714.8</ele><time>2026-04-18T09:24:31Z</time></trkpt><trkpt lat="47.78428843650672" lon="11.835476618179953"><ele>714.6</ele><time>2026-04-18T09:24:33Z</time></trkpt><trkpt lat="47.78435142688289" lon="11.835551053735262"><ele>714.4000000000001</ele><time>2026-04-18T09:24:35Z</time></trkpt><trkpt lat="47.78442211869914" lon="11.83563701484734"><ele>714.2</ele><time>2026-04-18T09:24:37Z</time></trkpt><trkpt lat="47.784506846515875" lon="11.835728243532508"><ele>714.0</ele><time>2026-04-18T09:24:39Z</time></trkpt><trkpt lat="47.78459119645633" lon="11.835815298388079"><ele>714.0</ele><time>2026-04-18T09:24:41Z</time></trkpt><trkpt lat="47.78467310129327" lon="11.835901550424126"><ele>714.0</ele><time>2026-04-18T09:24:43Z</time></trkpt><trkpt lat="47.78475924027726" lon="11.835988610345371"><ele>714.0</ele><time>2026-04-18T09:24:45Z</time></trkpt><trkpt lat="47.78486158521825" lon="11.836095934651924"><ele>714.0</ele><time>2026-04-18T09:24:47Z</time></trkpt><trkpt lat="47.78492218398824" lon="11.836154832147722"><ele>714.0</ele><time>2026-04-18T09:24:48Z</time></trkpt><trkpt lat="47.78498776501096" lon="11.83622023957925"><ele>714.1666666666666</ele><time>2026-04-18T09:24:49Z</time></trkpt><trkpt lat="47.78505878860622" lon="11.836290374714874"><ele>714.3333333333334</ele><time>2026-04-18T09:24:50Z</time></trkpt><trkpt lat="47.78513127779056" lon="11.836351342608966"><ele>714.5</ele><time>2026-04-18T09:24:51Z</time></trkpt><trkpt lat="47.78520236139817" lon="11.836409508949163"><ele>714.6666666666667</ele><time>2026-04-18T09:24:52Z</time></trkpt><trkpt lat="47.785271346093964" lon="11.83646701894902"><ele>714.8333333333334</ele><time>2026-04-18T09:24:53Z</time></trkpt><trkpt lat="47.785339302319095" lon="11.836519100055005"><ele>715.0</ele><time>2026-04-18T09:24:54Z</time></trkpt><trkpt lat="47.78541347991824" lon="11.836569387228934"><ele>714.5</ele><time>2026-04-18T09:24:55Z</time></trkpt><trkpt lat="47.78549572688726" lon="11.836617907158224"><ele>714.0</ele><time>2026-04-18T09:24:56Z</time></trkpt><trkpt lat="47.785579408206694" lon="11.836666935155918"><ele>713.5</ele><time>2026-04-18T09:24:57Z</time></trkpt><trkpt lat="47.78564303305391" lon="11.836708780365152"><ele>713.0</ele><time>2026-04-18T09:24:58Z</time></trkpt><trkpt lat="47.785719221495555" lon="11.836758588586072"><ele>712.5</ele><time>2026-04-18T09:25:01Z</time></trkpt><trkpt lat="47.78578278096763" lon="11.83678597789071"><ele>712.0</ele><time>2026-04-18T09:25:07Z</time></trkpt><trkpt lat="47.78585039353575" lon="11.836837573614432"><ele>711.8</ele><time>2026-04-18T09:25:10Z</time></trkpt><trkpt lat="47.78596293915284" lon="11.836925758425322"><ele>711.6</ele><time>2026-04-18T09:25:12Z</time></trkpt><trkpt lat="47.78602154194373" lon="11.836972283802686"><ele>711.4</ele><time>2026-04-18T09:25:13Z</time></trkpt><trkpt lat="47.786127715464715" lon="11.837074535028318"><ele>711.1999999999999</ele><time>2026-04-18T09:25:15Z</time></trkpt><trkpt lat="47.78619337474702" lon="11.837138348885698"><ele>711.0</ele><time>2026-04-18T09:25:16Z</time></trkpt><trkpt lat="47.78626661016172" lon="11.837208518492686"><ele>711.0</ele><time>2026-04-18T09:25:17Z</time></trkpt><trkpt lat="47.786343580262916" lon="11.837300577464106"><ele>711.0</ele><time>2026-04-18T09:25:18Z</time></trkpt><trkpt lat="47.78642102296725" lon="11.837403848074555"><ele>711.0</ele><time>2026-04-18T09:25:19Z</time></trkpt><trkpt lat="47.78649988066911" lon="11.837498877198232"><ele>711.0</ele><time>2026-04-18T09:25:20Z</time></trkpt><trkpt lat="47.78657260222394" lon="11.83758514629641"><ele>711.0</ele><time>2026-04-18T09:25:21Z</time></trkpt><trkpt lat="47.78664044405687" lon="11.837663679149964"><ele>711.8</ele><time>2026-04-18T09:25:22Z</time></trkpt><trkpt lat="47.78670771667474" lon="11.837741234366733"><ele>712.5999999999999</ele><time>2026-04-18T09:25:23Z</time></trkpt><trkpt lat="47.78677792301841" lon="11.837822848989452"><ele>713.4</ele><time>2026-04-18T09:25:24Z</time></trkpt><trkpt lat="47.78685582166428" lon="11.837905893325102"><ele>714.2</ele><time>2026-04-18T09:25:25Z</time></trkpt><trkpt lat="47.786940783719466" lon="11.837988351346961"><ele>715.0</ele><time>2026-04-18T09:25:26Z</time></trkpt><trkpt lat="47.7870316443128" lon="11.838071191387494"><ele>715.0</ele><time>2026-04-18T09:25:27Z</time></trkpt><trkpt lat="47.78713448244249" lon="11.838143168170268"><ele>715.0</ele><time>2026-04-18T09:25:28Z</time></trkpt><trkpt lat="47.78723296647052" lon="11.838205498627143"><ele>715.0</ele><time>2026-04-18T09:25:29Z</time></trkpt><trkpt lat="47.78733126241592" lon="11.838262632144861"><ele>715.0</ele><time>2026-04-18T09:25:30Z</time></trkpt><trkpt lat="47.7874309717007" lon="11.838317610734844"><ele>715.0</ele><time>2026-04-18T09:25:31Z</time></trkpt><trkpt lat="47.78753829165439" lon="11.838371797562237"><ele>715.0</ele><time>2026-04-18T09:25:32Z</time></trkpt><trkpt lat="47.78764069786864" lon="11.838420217736834"><ele>715.0</ele><time>2026-04-18T09:25:33Z</time></trkpt><trkpt lat="47.78774760409191" lon="11.838464650374553"><ele>715.0</ele><time>2026-04-18T09:25:34Z</time></trkpt><trkpt lat="47.78785454320293" lon="11.838506045911307"><ele>715.0</ele><time>2026-04-18T09:25:35Z</time></trkpt><trkpt lat="47.78795880361225" lon="11.838547149715371"><ele>715.0</ele><time>2026-04-18T09:25:36Z</time></trkpt><trkpt lat="47.78806273193411" lon="11.83858792282781"><ele>715.25</ele><time>2026-04-18T09:25:37Z</time></trkpt><trkpt lat="47.78817126026883" lon="11.838634775773647"><ele>715.5</ele><time>2026-04-18T09:25:38Z</time></trkpt><trkpt lat="47.788285068065996" lon="11.838684988681747"><ele>715.75</ele><time>2026-04-18T09:25:39Z</time></trkpt><trkpt lat="47.78839796455659" lon="11.838732851236234"><ele>716.0</ele><time>2026-04-18T09:25:40Z</time></trkpt><trkpt lat="47.788508853856385" lon="11.83877470752176"><ele>715.5</ele><time>2026-04-18T09:25:41Z</time></trkpt><trkpt lat="47.78861951279732" lon="11.838817338158467"><ele>715.0</ele><time>2026-04-18T09:25:42Z</time></trkpt><trkpt lat="47.788734788072205" lon="11.838863981107425"><ele>714.5</ele><time>2026-04-18T09:25:43Z</time></trkpt><trkpt lat="47.7888541654029" lon="11.838912495512767"><ele>714.0</ele><time>2026-04-18T09:25:44Z</time></trkpt><trkpt lat="47.78897123980545" lon="11.838963074149815"><ele>714.0</ele><time>2026-04-18T09:25:45Z</time></trkpt><trkpt lat="47.78908658746101" lon="11.839008241493946"><ele>714.0</ele><time>2026-04-18T09:25:46Z</time></trkpt><trkpt lat="47.789203120107835" lon="11.839049547788184"><ele>714.0</ele><time>2026-04-18T09:25:47Z</time></trkpt><trkpt lat="47.78931845214719" lon="11.839087293211124"><ele>714.0</ele><time>2026-04-18T09:25:48Z</time></trkpt><trkpt lat="47.78943383856657" lon="11.839124699903127"><ele>714.0</ele><time>2026-04-18T09:25:49Z</time></trkpt><trkpt lat="47.78955065027467" lon="11.839163562637115"><ele>714.0</ele><time>2026-04-18T09:25:50Z</time></trkpt><trkpt lat="47.78966525240356" lon="11.839200380891688"><ele>714.0</ele><time>2026-04-18T09:25:51Z</time></trkpt><trkpt lat="47.78977759320902" lon="11.839233284007793"><ele>714.0</ele><time>2026-04-18T09:25:52Z</time></trkpt><trkpt lat="47.78988829287497" lon="11.839265607852466"><ele>714.0</ele><time>2026-04-18T09:25:53Z</time></trkpt><trkpt lat="47.79000186140197" lon="11.83929942222638"><ele>714.0</ele><time>2026-04-18T09:25:54Z</time></trkpt><trkpt lat="47.79011394471501" lon="11.839336948355863"><ele>714.0</ele><time>2026-04-18T09:25:55Z</time></trkpt><trkpt lat="47.79021576277082" lon="11.839376999930815"><ele>714.0</ele><time>2026-04-18T09:25:56Z</time></trkpt><trkpt lat="47.79030398830727" lon="11.839412006578867"><ele>714.0</ele><time>2026-04-18T09:25:57Z</time></trkpt><trkpt lat="47.790377807707515" lon="11.839440549874764"><ele>713.6666666666666</ele><time>2026-04-18T09:25:58Z</time></trkpt><trkpt lat="47.79047683971189" lon="11.83947847285231"><ele>713.3333333333334</ele><time>2026-04-18T09:26:00Z</time></trkpt><trkpt lat="47.79055878875711" lon="11.839510999900408"><ele>713.0</ele><time>2026-04-18T09:26:03Z</time></trkpt><trkpt lat="47.79062780405689" lon="11.83953852245625"><ele>712.6666666666667</ele><time>2026-04-18T09:26:06Z</time></trkpt><trkpt lat="47.79070047644187" lon="11.839573148752196"><ele>712.3333333333334</ele><time>2026-04-18T09:26:08Z</time></trkpt><trkpt lat="47.79076844326439" lon="11.839601984857874"><ele>712.0</ele><time>2026-04-18T09:26:09Z</time></trkpt><trkpt lat="47.790852323707256" lon="11.839630054517444"><ele>712.0</ele><time>2026-04-18T09:26:11Z</time></trkpt><trkpt lat="47.79092765636915" lon="11.839658182423848"><ele>712.0</ele><time>2026-04-18T09:26:14Z</time></trkpt><trkpt lat="47.79105888475098" lon="11.839713326898304"><ele>712.0</ele><time>2026-04-18T09:26:16Z</time></trkpt><trkpt lat="47.791133685508655" lon="11.839737593917791"><ele>712.0</ele><time>2026-04-18T09:26:17Z</time></trkpt><trkpt lat="47.79121076801257" lon="11.839763236478634"><ele>712.0</ele><time>2026-04-18T09:26:18Z</time></trkpt><trkpt lat="47.791307852253695" lon="11.83979810980075"><ele>712.2</ele><time>2026-04-18T09:26:19Z</time></trkpt><trkpt lat="47.79141678664669" lon="11.839837381786044"><ele>712.4000000000001</ele><time>2026-04-18T09:26:20Z</time></trkpt><trkpt lat="47.79152644806939" lon="11.839870724253128"><ele>712.5999999999999</ele><time>2026-04-18T09:26:21Z</time></trkpt><trkpt lat="47.791626754274006" lon="11.839902833243228"><ele>712.8</ele><time>2026-04-18T09:26:22Z</time></trkpt><trkpt lat="47.79172242129712" lon="11.839933485309333"><ele>713.0</ele><time>2026-04-18T09:26:23Z</time></trkpt><trkpt lat="47.79181651559654" lon="11.839963021111046"><ele>712.5999999999999</ele><time>2026-04-18T09:26:24Z</time></trkpt><trkpt lat="47.79190877284193" lon="11.839991270635897"><ele>712.1999999999999</ele><time>2026-04-18T09:26:25Z</time></trkpt><trkpt lat="47.792000472392296" lon="11.840021379127496"><ele>711.8</ele><time>2026-04-18T09:26:26Z</time></trkpt><trkpt lat="47.79208718265576" lon="11.840053848160574"><ele>711.4</ele><time>2026-04-18T09:26:27Z</time></trkpt><trkpt lat="47.79217313830085" lon="11.840090113301327"><ele>711.0</ele><time>2026-04-18T09:26:28Z</time></trkpt><trkpt lat="47.792260863617045" lon="11.840124238709585"><ele>711.0</ele><time>2026-04-18T09:26:29Z</time></trkpt><trkpt lat="47.79235211745616" lon="11.840156425514763"><ele>711.0</ele><time>2026-04-18T09:26:30Z</time></trkpt><trkpt lat="47.792446178542356" lon="11.840189240036185"><ele>711.0</ele><time>2026-04-18T09:26:31Z</time></trkpt><trkpt lat="47.79254274776" lon="11.840223288850583"><ele>711.0</ele><time>2026-04-18T09:26:32Z</time></trkpt><trkpt lat="47.79263749807534" lon="11.840262363841983"><ele>711.0</ele><time>2026-04-18T09:26:33Z</time></trkpt><trkpt lat="47.7927355451657" lon="11.84030399048507"><ele>711.0</ele><time>2026-04-18T09:26:34Z</time></trkpt><trkpt lat="47.792837752514636" lon="11.840338231432602"><ele>711.0</ele><time>2026-04-18T09:26:35Z</time></trkpt><trkpt lat="47.792937172099485" lon="11.840366329477813"><ele>711.0</ele><time>2026-04-18T09:26:36Z</time></trkpt><trkpt lat="47.79302533722143" lon="11.840393924382822"><ele>711.0</ele><time>2026-04-18T09:26:37Z</time></trkpt><trkpt lat="47.79310363939514" lon="11.840422068623422"><ele>711.0</ele><time>2026-04-18T09:26:38Z</time></trkpt><trkpt lat="47.79317416700921" lon="11.840448141803932"><ele>711.0</ele><time>2026-04-18T09:26:39Z</time></trkpt><trkpt lat="47.793246185941804" lon="11.840470334045953"><ele>711.0</ele><time>2026-04-18T09:26:40Z</time></trkpt><trkpt lat="47.79332017291838" lon="11.840489860821686"><ele>711.0</ele><time>2026-04-18T09:26:41Z</time></trkpt><trkpt lat="47.79341617739591" lon="11.840507105459256"><ele>711.0</ele><time>2026-04-18T09:26:42Z</time></trkpt><trkpt lat="47.79355797886816" lon="11.840536068280949"><ele>711.0</ele><time>2026-04-18T09:26:43Z</time></trkpt><trkpt lat="47.79368688555207" lon="11.840575899602253"><ele>711.0</ele><time>2026-04-18T09:26:44Z</time></trkpt><trkpt lat="47.7937752134738" lon="11.840603958444179"><ele>711.0</ele><time>2026-04-18T09:26:45Z</time></trkpt><trkpt lat="47.793857298830964" lon="11.840638620044864"><ele>711.0</ele><time>2026-04-18T09:26:48Z</time></trkpt><trkpt lat="47.793947276829684" lon="11.840674732283603"><ele>711.0</ele><time>2026-04-18T09:26:54Z</time></trkpt><trkpt lat="47.794037884929004" lon="11.840758545127722"><ele>711.0</ele><time>2026-04-18T09:26:57Z</time></trkpt><trkpt lat="47.79408686391705" lon="11.840864255828782"><ele>711.0</ele><time>2026-04-18T09:26:58Z</time></trkpt><trkpt lat="47.794148197431504" lon="11.840937496933364"><ele>711.0</ele><time>2026-04-18T09:26:59Z</time></trkpt><trkpt lat="47.79420798606235" lon="11.840968281543134"><ele>711.0</ele><time>2026-04-18T09:27:00Z</time></trkpt><trkpt lat="47.79427164164427" lon="11.840973821719444"><ele>711.0</ele><time>2026-04-18T09:27:01Z</time></trkpt><trkpt lat="47.79433412487463" lon="11.840941421792559"><ele>711.0</ele><time>2026-04-18T09:27:02Z</time></trkpt><trkpt lat="47.794431483736126" lon="11.840809305891556"><ele>711.0</ele><time>2026-04-18T09:27:04Z</time></trkpt><trkpt lat="47.794454313918756" lon="11.840711769620164"><ele>711.0</ele><time>2026-04-18T09:27:05Z</time></trkpt><trkpt lat="47.794460496176406" lon="11.8406038546588"><ele>710.8333333333334</ele><time>2026-04-18T09:27:06Z</time></trkpt><trkpt lat="47.79447185389686" lon="11.840499549468307"><ele>710.6666666666666</ele><time>2026-04-18T09:27:07Z</time></trkpt><trkpt lat="47.79450670700228" lon="11.840410206150606"><ele>710.5</ele><time>2026-04-18T09:27:08Z</time></trkpt><trkpt lat="47.79456049586772" lon="11.840323907447805"><ele>710.3333333333333</ele><time>2026-04-18T09:27:09Z</time></trkpt><trkpt lat="47.79463415556474" lon="11.840254740207097"><ele>710.1666666666666</ele><time>2026-04-18T09:27:10Z</time></trkpt><trkpt lat="47.79473321634603" lon="11.840202013701163"><ele>710.0</ele><time>2026-04-18T09:27:11Z</time></trkpt><trkpt lat="47.79485304320304" lon="11.840155362211224"><ele>710.25</ele><time>2026-04-18T09:27:12Z</time></trkpt><trkpt lat="47.794970198741474" lon="11.840106394405947"><ele>710.5</ele><time>2026-04-18T09:27:13Z</time></trkpt><trkpt lat="47.79508631747194" lon="11.840058550060052"><ele>710.75</ele><time>2026-04-18T09:27:14Z</time></trkpt><trkpt lat="47.795191796131945" lon="11.840017890273247"><ele>711.0</ele><time>2026-04-18T09:27:15Z</time></trkpt><trkpt lat="47.795300546966764" lon="11.839974840164317"><ele>711.25</ele><time>2026-04-18T09:27:16Z</time></trkpt><trkpt lat="47.795418762680946" lon="11.83992410018526"><ele>711.5</ele><time>2026-04-18T09:27:17Z</time></trkpt><trkpt lat="47.79553954906321" lon="11.83987211366273"><ele>711.75</ele><time>2026-04-18T09:27:18Z</time></trkpt><trkpt lat="47.79565511442885" lon="11.839818748534498"><ele>712.0</ele><time>2026-04-18T09:27:19Z</time></trkpt><trkpt lat="47.79577037495706" lon="11.839759974764561"><ele>712.0</ele><time>2026-04-18T09:27:20Z</time></trkpt><trkpt lat="47.79589668435468" lon="11.83968948087311"><ele>712.0</ele><time>2026-04-18T09:27:21Z</time></trkpt><trkpt lat="47.7960127088659" lon="11.839610392930208"><ele>712.0</ele><time>2026-04-18T09:27:22Z</time></trkpt><trkpt lat="47.79612627839115" lon="11.83952552787552"><ele>712.0</ele><time>2026-04-18T09:27:23Z</time></trkpt><trkpt lat="47.79624055108009" lon="11.839439553933952"><ele>712.6666666666667</ele><time>2026-04-18T09:27:24Z</time></trkpt><trkpt lat="47.79636090180723" lon="11.839344374520678"><ele>713.3333333333334</ele><time>2026-04-18T09:27:25Z</time></trkpt><trkpt lat="47.79649026682402" lon="11.839231460067396"><ele>714.0</ele><time>2026-04-18T09:27:26Z</time></trkpt><trkpt lat="47.796643651894236" lon="11.839093219576112"><ele>714.0</ele><time>2026-04-18T09:27:27Z</time></trkpt><trkpt lat="47.79679082089294" lon="11.838955105746619"><ele>714.0</ele><time>2026-04-18T09:27:28Z</time></trkpt><trkpt lat="47.796928061719576" lon="11.838825429222407"><ele>714.0</ele><time>2026-04-18T09:27:29Z</time></trkpt><trkpt lat="47.79706770780201" lon="11.8386992422185"><ele>715.0</ele><time>2026-04-18T09:27:30Z</time></trkpt><trkpt lat="47.79720185016015" lon="11.838577887988396"><ele>716.0</ele><time>2026-04-18T09:27:31Z</time></trkpt><trkpt lat="47.797324401501555" lon="11.83847157534972"><ele>717.0</ele><time>2026-04-18T09:27:32Z</time></trkpt><trkpt lat="47.797442846492956" lon="11.838382822909763"><ele>718.0</ele><time>2026-04-18T09:27:33Z</time></trkpt><trkpt lat="47.7975616552399" lon="11.838298989434886"><ele>720.3333333333334</ele><time>2026-04-18T09:27:34Z</time></trkpt><trkpt lat="47.79768872293572" lon="11.838210186545908"><ele>722.6666666666666</ele><time>2026-04-18T09:27:35Z</time></trkpt><trkpt lat="47.797828096124185" lon="11.838119214017631"><ele>725.0</ele><time>2026-04-18T09:27:36Z</time></trkpt><trkpt lat="47.797977643317914" lon="11.838035467625835"><ele>725.0</ele><time>2026-04-18T09:27:37Z</time></trkpt><trkpt lat="47.79813120154246" lon="11.837963010252679"><ele>725.0</ele><time>2026-04-18T09:27:38Z</time></trkpt><trkpt lat="47.79828848002232" lon="11.837898577039756"><ele>725.0</ele><time>2026-04-18T09:27:39Z</time></trkpt><trkpt lat="47.798448055179534" lon="11.837848630974026"><ele>722.6666666666666</ele><time>2026-04-18T09:27:40Z</time></trkpt><trkpt lat="47.79861192606269" lon="11.837805741605504"><ele>720.3333333333334</ele><time>2026-04-18T09:27:41Z</time></trkpt><trkpt lat="47.79877917817699" lon="11.837778143380781"><ele>718.0</ele><time>2026-04-18T09:27:42Z</time></trkpt><trkpt lat="47.79894738284965" lon="11.83775991635646"><ele>718.0</ele><time>2026-04-18T09:27:43Z</time></trkpt><trkpt lat="47.79912488193786" lon="11.83774923826099"><ele>718.0</ele><time>2026-04-18T09:27:44Z</time></trkpt><trkpt lat="47.79931711121442" lon="11.83774569382809"><ele>718.0</ele><time>2026-04-18T09:27:45Z</time></trkpt><trkpt lat="47.799503641840325" lon="11.837752912284612"><ele>715.0</ele><time>2026-04-18T09:27:46Z</time></trkpt><trkpt lat="47.79967879551766" lon="11.837764854638605"><ele>712.0</ele><time>2026-04-18T09:27:47Z</time></trkpt><trkpt lat="47.79985051422971" lon="11.837780518157908"><ele>709.0</ele><time>2026-04-18T09:27:48Z</time></trkpt><trkpt lat="47.8000241576408" lon="11.83779331041418"><ele>708.6666666666667</ele><time>2026-04-18T09:27:49Z</time></trkpt><trkpt lat="47.80019996433" lon="11.837803182347885"><ele>708.3333333333334</ele><time>2026-04-18T09:27:50.001Z</time></trkpt><trkpt lat="47.8003897957099" lon="11.83781759682356"><ele>708.0</ele><time>2026-04-18T09:27:51.001Z</time></trkpt><trkpt lat="47.80058808021787" lon="11.837832140724224"><ele>708.0</ele><time>2026-04-18T09:27:52.001Z</time></trkpt><trkpt lat="47.80079498870397" lon="11.837842250128807"><ele>708.0</ele><time>2026-04-18T09:27:53.001Z</time></trkpt><trkpt lat="47.800986587548806" lon="11.837855259154454"><ele>708.0</ele><time>2026-04-18T09:27:54.001Z</time></trkpt><trkpt lat="47.80117408423662" lon="11.837869796086062"><ele>708.3333333333334</ele><time>2026-04-18T09:27:55.001Z</time></trkpt><trkpt lat="47.801343001013905" lon="11.83788344355328"><ele>708.6666666666667</ele><time>2026-04-18T09:27:56.001Z</time></trkpt><trkpt lat="47.801510336859444" lon="11.837894971479574"><ele>709.0</ele><time>2026-04-18T09:27:57.001Z</time></trkpt><trkpt lat="47.8016776605616" lon="11.837903792732218"><ele>709.6666666666667</ele><time>2026-04-18T09:27:58.001Z</time></trkpt><trkpt lat="47.80184878544439" lon="11.837914815485105"><ele>710.3333333333334</ele><time>2026-04-18T09:27:59.001Z</time></trkpt><trkpt lat="47.80202728754229" lon="11.837926280420376"><ele>711.0</ele><time>2026-04-18T09:28:00Z</time></trkpt><trkpt lat="47.80221184363944" lon="11.837941777030439"><ele>711.0</ele><time>2026-04-18T09:28:01Z</time></trkpt><trkpt lat="47.80240137976224" lon="11.837956850822364"><ele>711.0</ele><time>2026-04-18T09:28:02Z</time></trkpt><trkpt lat="47.80259802206362" lon="11.837967665892432"><ele>711.0</ele><time>2026-04-18T09:28:03Z</time></trkpt><trkpt lat="47.80278926161393" lon="11.837981901821745"><ele>711.0</ele><time>2026-04-18T09:28:04Z</time></trkpt><trkpt lat="47.802979075578286" lon="11.837996730777489"><ele>711.0</ele><time>2026-04-18T09:28:05Z</time></trkpt><trkpt lat="47.803170132415026" lon="11.838010415504641"><ele>711.0</ele><time>2026-04-18T09:28:06Z</time></trkpt><trkpt lat="47.80336306531177" lon="11.83802329171104"><ele>711.0</ele><time>2026-04-18T09:28:07Z</time></trkpt><trkpt lat="47.803558000102974" lon="11.83803281046157"><ele>711.0</ele><time>2026-04-18T09:28:08Z</time></trkpt><trkpt lat="47.803749864752305" lon="11.83804363201807"><ele>711.0</ele><time>2026-04-18T09:28:09Z</time></trkpt><trkpt lat="47.803939070115604" lon="11.83805831505366"><ele>711.0</ele><time>2026-04-18T09:28:10Z</time></trkpt><trkpt lat="47.804131404922" lon="11.838073362560786"><ele>711.0</ele><time>2026-04-18T09:28:11Z</time></trkpt><trkpt lat="47.804322063748145" lon="11.838087277450501"><ele>711.0</ele><time>2026-04-18T09:28:12Z</time></trkpt><trkpt lat="47.804512395079385" lon="11.83809885130258"><ele>710.0</ele><time>2026-04-18T09:28:13Z</time></trkpt><trkpt lat="47.80470287712159" lon="11.838115334193423"><ele>709.0</ele><time>2026-04-18T09:28:14Z</time></trkpt><trkpt lat="47.80489967929285" lon="11.838128825023603"><ele>708.0</ele><time>2026-04-18T09:28:15Z</time></trkpt><trkpt lat="47.80509676728422" lon="11.838138072252638"><ele>708.3333333333334</ele><time>2026-04-18T09:28:16Z</time></trkpt><trkpt lat="47.80528724891092" lon="11.83815070817808"><ele>708.6666666666667</ele><time>2026-04-18T09:28:17Z</time></trkpt><trkpt lat="47.805474044525205" lon="11.838164824744828"><ele>709.0</ele><time>2026-04-18T09:28:18Z</time></trkpt><trkpt lat="47.80566321859191" lon="11.838178226600766"><ele>709.0</ele><time>2026-04-18T09:28:19Z</time></trkpt><trkpt lat="47.80585782456763" lon="11.838193098117564"><ele>709.0</ele><time>2026-04-18T09:28:20Z</time></trkpt><trkpt lat="47.806055330646984" lon="11.83821050250554"><ele>709.0</ele><time>2026-04-18T09:28:21Z</time></trkpt><trkpt lat="47.80624300730507" lon="11.838224853929606"><ele>709.0</ele><time>2026-04-18T09:28:22Z</time></trkpt><trkpt lat="47.80642769268366" lon="11.838237846166672"><ele>709.0</ele><time>2026-04-18T09:28:23Z</time></trkpt><trkpt lat="47.806614209904495" lon="11.838248274164474"><ele>709.0</ele><time>2026-04-18T09:28:24Z</time></trkpt><trkpt lat="47.806794378788986" lon="11.838259694631994"><ele>709.6666666666667</ele><time>2026-04-18T09:28:25Z</time></trkpt><trkpt lat="47.806970673582065" lon="11.838271548263263"><ele>710.3333333333334</ele><time>2026-04-18T09:28:26Z</time></trkpt><trkpt lat="47.80714113720504" lon="11.838283927264984"><ele>711.0</ele><time>2026-04-18T09:28:27Z</time></trkpt><trkpt lat="47.80731069524368" lon="11.838294521928676"><ele>711.0</ele><time>2026-04-18T09:28:28Z</time></trkpt><trkpt lat="47.807479266590065" lon="11.838307484683956"><ele>711.0</ele><time>2026-04-18T09:28:29Z</time></trkpt><trkpt lat="47.807649181268026" lon="11.838321376777808"><ele>711.0</ele><time>2026-04-18T09:28:30Z</time></trkpt><trkpt lat="47.80782371809091" lon="11.838334001863736"><ele>711.3333333333334</ele><time>2026-04-18T09:28:31Z</time></trkpt><trkpt lat="47.80800318653835" lon="11.838346120727788"><ele>711.6666666666667</ele><time>2026-04-18T09:28:32Z</time></trkpt><trkpt lat="47.80818874403071" lon="11.838358309471577"><ele>712.0</ele><time>2026-04-18T09:28:33Z</time></trkpt><trkpt lat="47.808380463313625" lon="11.838371582904982"><ele>711.6666666666667</ele><time>2026-04-18T09:28:34Z</time></trkpt><trkpt lat="47.80857730090465" lon="11.838386578795973"><ele>711.3333333333334</ele><time>2026-04-18T09:28:35Z</time></trkpt><trkpt lat="47.808775207059895" lon="11.838400443731338"><ele>711.0</ele><time>2026-04-18T09:28:36Z</time></trkpt><trkpt lat="47.80896952700719" lon="11.838413390989459"><ele>711.0</ele><time>2026-04-18T09:28:37Z</time></trkpt><trkpt lat="47.809164974688485" lon="11.838426062390404"><ele>711.0</ele><time>2026-04-18T09:28:38Z</time></trkpt><trkpt lat="47.809362994428305" lon="11.838437041196936"><ele>711.0</ele><time>2026-04-18T09:28:39Z</time></trkpt><trkpt lat="47.8095497510904" lon="11.838449961284994"><ele>708.3333333333334</ele><time>2026-04-18T09:28:40Z</time></trkpt><trkpt lat="47.8097353900391" lon="11.838462304672035"><ele>705.6666666666667</ele><time>2026-04-18T09:28:41Z</time></trkpt><trkpt lat="47.80992310161109" lon="11.838474121678901"><ele>703.0</ele><time>2026-04-18T09:28:42Z</time></trkpt><trkpt lat="47.81011274167534" lon="11.838489912518357"><ele>699.6666666666667</ele><time>2026-04-18T09:28:43Z</time></trkpt><trkpt lat="47.810310781388175" lon="11.838503606534806"><ele>696.3333333333334</ele><time>2026-04-18T09:28:44Z</time></trkpt><trkpt lat="47.81051453778022" lon="11.838518470074453"><ele>693.0</ele><time>2026-04-18T09:28:45Z</time></trkpt><trkpt lat="47.81070836613672" lon="11.838532021692263"><ele>693.0</ele><time>2026-04-18T09:28:46Z</time></trkpt><trkpt lat="47.81090117393844" lon="11.83854268696805"><ele>693.0</ele><time>2026-04-18T09:28:47Z</time></trkpt><trkpt lat="47.81108979647869" lon="11.838550844000993"><ele>693.0</ele><time>2026-04-18T09:28:48Z</time></trkpt><trkpt lat="47.81127855398781" lon="11.838557476656487"><ele>692.3333333333334</ele><time>2026-04-18T09:28:49Z</time></trkpt><trkpt lat="47.81146972787846" lon="11.838561197309458"><ele>691.6666666666667</ele><time>2026-04-18T09:28:50Z</time></trkpt><trkpt lat="47.81166701402343" lon="11.838555371965104"><ele>691.0</ele><time>2026-04-18T09:28:51Z</time></trkpt><trkpt lat="47.811862725040584" lon="11.83854607818427"><ele>692.6666666666667</ele><time>2026-04-18T09:28:52Z</time></trkpt><trkpt lat="47.812059225568156" lon="11.838535249294663"><ele>694.3333333333334</ele><time>2026-04-18T09:28:53Z</time></trkpt><trkpt lat="47.81225313772037" lon="11.838518765226182"><ele>696.0</ele><time>2026-04-18T09:28:54Z</time></trkpt><trkpt lat="47.81244767709964" lon="11.838494976318234"><ele>696.0</ele><time>2026-04-18T09:28:55Z</time></trkpt><trkpt lat="47.81264259260187" lon="11.83846911394224"><ele>696.0</ele><time>2026-04-18T09:28:56Z</time></trkpt><trkpt lat="47.812833802487745" lon="11.838436505204186"><ele>696.0</ele><time>2026-04-18T09:28:57Z</time></trkpt><trkpt lat="47.813026917531715" lon="11.83839606142937"><ele>700.6666666666666</ele><time>2026-04-18T09:28:58Z</time></trkpt><trkpt lat="47.81322373151272" lon="11.838350284953108"><ele>705.3333333333333</ele><time>2026-04-18T09:28:59Z</time></trkpt><trkpt lat="47.81343147441882" lon="11.838304679169282"><ele>710.0</ele><time>2026-04-18T09:29:00Z</time></trkpt><trkpt lat="47.81365579865066" lon="11.838258308045015"><ele>711.3333333333333</ele><time>2026-04-18T09:29:01Z</time></trkpt><trkpt lat="47.813880039990586" lon="11.838210443711816"><ele>712.6666666666666</ele><time>2026-04-18T09:29:02Z</time></trkpt><trkpt lat="47.81409648429185" lon="11.838161511794207"><ele>714.0</ele><time>2026-04-18T09:29:03Z</time></trkpt><trkpt lat="47.81433406779447" lon="11.838118784294586"><ele>715.5</ele><time>2026-04-18T09:29:04.001Z</time></trkpt><trkpt lat="47.81456716954768" lon="11.838087293239754"><ele>717.0</ele><time>2026-04-18T09:29:05.001Z</time></trkpt><trkpt lat="47.81478533894098" lon="11.838069654657824"><ele>717.0</ele><time>2026-04-18T09:29:06.001Z</time></trkpt><trkpt lat="47.81499378307668" lon="11.838056287486827"><ele>717.0</ele><time>2026-04-18T09:29:07.001Z</time></trkpt><trkpt lat="47.815198804165746" lon="11.838047510812014"><ele>717.0</ele><time>2026-04-18T09:29:08.001Z</time></trkpt><trkpt lat="47.8153962781197" lon="11.838042914698677"><ele>721.0</ele><time>2026-04-18T09:29:09.001Z</time></trkpt><trkpt lat="47.815593610054385" lon="11.838037296819241"><ele>725.0</ele><time>2026-04-18T09:29:10.001Z</time></trkpt><trkpt lat="47.81579036216233" lon="11.838030402113295"><ele>729.0</ele><time>2026-04-18T09:29:11.001Z</time></trkpt><trkpt lat="47.81599604311533" lon="11.838017906920976"><ele>730.0</ele><time>2026-04-18T09:29:12.001Z</time></trkpt><trkpt lat="47.81620221471213" lon="11.838000386051899"><ele>731.0</ele><time>2026-04-18T09:29:13.001Z</time></trkpt><trkpt lat="47.81640239035571" lon="11.837974700931737"><ele>732.0</ele><time>2026-04-18T09:29:14.001Z</time></trkpt><trkpt lat="47.816602892972085" lon="11.837947772409173"><ele>732.0</ele><time>2026-04-18T09:29:15.001Z</time></trkpt><trkpt lat="47.816805702575174" lon="11.837910357030248"><ele>732.0</ele><time>2026-04-18T09:29:16.001Z</time></trkpt><trkpt lat="47.81700539835675" lon="11.837866389421228"><ele>732.0</ele><time>2026-04-18T09:29:17.001Z</time></trkpt><trkpt lat="47.81720312612341" lon="11.837811049767978"><ele>730.0</ele><time>2026-04-18T09:29:18.001Z</time></trkpt><trkpt lat="47.81739934732105" lon="11.837751634788708"><ele>728.0</ele><time>2026-04-18T09:29:19.001Z</time></trkpt><trkpt lat="47.8175891632349" lon="11.837691933578643"><ele>726.0</ele><time>2026-04-18T09:29:20.001Z</time></trkpt><trkpt lat="47.81777572298857" lon="11.837622947979067"><ele>724.6666666666666</ele><time>2026-04-18T09:29:21.001Z</time></trkpt><trkpt lat="47.81796124257455" lon="11.83754461945644"><ele>723.3333333333333</ele><time>2026-04-18T09:29:22.001Z</time></trkpt><trkpt lat="47.818146552226004" lon="11.83745691389845"><ele>722.0</ele><time>2026-04-18T09:29:23.001Z</time></trkpt><trkpt lat="47.81833767503983" lon="11.837354348872791"><ele>721.3333333333333</ele><time>2026-04-18T09:29:24.001Z</time></trkpt><trkpt lat="47.81853193941222" lon="11.837237995370039"><ele>720.6666666666666</ele><time>2026-04-18T09:29:25.001Z</time></trkpt><trkpt lat="47.81872861394408" lon="11.837115119338268"><ele>720.0</ele><time>2026-04-18T09:29:26.001Z</time></trkpt><trkpt lat="47.818910597726585" lon="11.836995445529709"><ele>720.0</ele><time>2026-04-18T09:29:27.001Z</time></trkpt><trkpt lat="47.81908357088815" lon="11.8368747237712"><ele>720.0</ele><time>2026-04-18T09:29:28.001Z</time></trkpt><trkpt lat="47.8192525087625" lon="11.836749155805489"><ele>720.0</ele><time>2026-04-18T09:29:29.001Z</time></trkpt><trkpt lat="47.81942534294489" lon="11.836608157097066"><ele>718.0</ele><time>2026-04-18T09:29:30.001Z</time></trkpt><trkpt lat="47.81960218942049" lon="11.836452471827977"><ele>716.0</ele><time>2026-04-18T09:29:31.001Z</time></trkpt><trkpt lat="47.81977179547101" lon="11.836289986165307"><ele>714.0</ele><time>2026-04-18T09:29:32.001Z</time></trkpt><trkpt lat="47.81993688999403" lon="11.836127961024175"><ele>714.0</ele><time>2026-04-18T09:29:33.001Z</time></trkpt><trkpt lat="47.820109631075134" lon="11.835991222927381"><ele>714.0</ele><time>2026-04-18T09:29:34.001Z</time></trkpt><trkpt lat="47.82025552591116" lon="11.835797450171363"><ele>714.0</ele><time>2026-04-18T09:29:35.001Z</time></trkpt><trkpt lat="47.82040908349269" lon="11.83562410181418"><ele>713.3333333333334</ele><time>2026-04-18T09:29:36.001Z</time></trkpt><trkpt lat="47.82056405932125" lon="11.835445428620478"><ele>712.6666666666667</ele><time>2026-04-18T09:29:37.001Z</time></trkpt><trkpt lat="47.820718529804765" lon="11.835261395442451"><ele>712.0</ele><time>2026-04-18T09:29:38.001Z</time></trkpt><trkpt lat="47.82087330110034" lon="11.835064830326923"><ele>711.6666666666667</ele><time>2026-04-18T09:29:39.001Z</time></trkpt><trkpt lat="47.82102861067615" lon="11.834861264566443"><ele>711.3333333333334</ele><time>2026-04-18T09:29:40.001Z</time></trkpt><trkpt lat="47.82117753405061" lon="11.834662470090176"><ele>711.0</ele><time>2026-04-18T09:29:41.001Z</time></trkpt><trkpt lat="47.82131347112113" lon="11.834477346271788"><ele>711.0</ele><time>2026-04-18T09:29:42.001Z</time></trkpt><trkpt lat="47.821448410842244" lon="11.834304822026843"><ele>711.0</ele><time>2026-04-18T09:29:43.001Z</time></trkpt><trkpt lat="47.821577512663985" lon="11.834133809318955"><ele>711.0</ele><time>2026-04-18T09:29:44.001Z</time></trkpt><trkpt lat="47.82169895749699" lon="11.833940496443205"><ele>710.6666666666666</ele><time>2026-04-18T09:29:45.001Z</time></trkpt><trkpt lat="47.82182941129661" lon="11.833752223372526"><ele>710.3333333333333</ele><time>2026-04-18T09:29:46.001Z</time></trkpt><trkpt lat="47.821964041755514" lon="11.833569076830923"><ele>710.0</ele><time>2026-04-18T09:29:47.001Z</time></trkpt><trkpt lat="47.822094094636284" lon="11.83337921962123"><ele>709.6666666666666</ele><time>2026-04-18T09:29:48.001Z</time></trkpt><trkpt lat="47.82222483041312" lon="11.833187920269781"><ele>709.3333333333334</ele><time>2026-04-18T09:29:49.001Z</time></trkpt><trkpt lat="47.82235587969919" lon="11.832994829937372"><ele>709.0</ele><time>2026-04-18T09:29:50.001Z</time></trkpt><trkpt lat="47.82248530517278" lon="11.832799189957235"><ele>708.3333333333334</ele><time>2026-04-18T09:29:51.001Z</time></trkpt><trkpt lat="47.82261424030789" lon="11.832600439943675"><ele>707.6666666666666</ele><time>2026-04-18T09:29:52.001Z</time></trkpt><trkpt lat="47.82274491284549" lon="11.832402166124606"><ele>707.0</ele><time>2026-04-18T09:29:53.001Z</time></trkpt><trkpt lat="47.822876705995405" lon="11.83220519489299"><ele>707.0</ele><time>2026-04-18T09:29:54.001Z</time></trkpt><trkpt lat="47.82300733723074" lon="11.83201041296269"><ele>707.0</ele><time>2026-04-18T09:29:55.001Z</time></trkpt><trkpt lat="47.82313803453951" lon="11.831819870676524"><ele>707.0</ele><time>2026-04-18T09:29:56.001Z</time></trkpt><trkpt lat="47.823272124727374" lon="11.83163533897706"><ele>707.0</ele><time>2026-04-18T09:29:57.001Z</time></trkpt><trkpt lat="47.82340118447483" lon="11.8314357865545"><ele>707.0</ele><time>2026-04-18T09:29:58.001Z</time></trkpt><trkpt lat="47.82352901501645" lon="11.831226820184035"><ele>707.0</ele><time>2026-04-18T09:29:59.001Z</time></trkpt><trkpt lat="47.82366418990491" lon="11.831021277289103"><ele>706.3333333333333</ele><time>2026-04-18T09:30:00.001Z</time></trkpt><trkpt lat="47.82380468372311" lon="11.830816433416643"><ele>705.6666666666666</ele><time>2026-04-18T09:30:01.001Z</time></trkpt><trkpt lat="47.823942836957464" lon="11.830610541803587"><ele>705.0</ele><time>2026-04-18T09:30:02.001Z</time></trkpt><trkpt lat="47.82407957870394" lon="11.830403797844504"><ele>705.0</ele><time>2026-04-18T09:30:03.001Z</time></trkpt><trkpt lat="47.824219083059546" lon="11.830199858064423"><ele>705.0</ele><time>2026-04-18T09:30:04.001Z</time></trkpt><trkpt lat="47.82435807579885" lon="11.82999168250817"><ele>705.0</ele><time>2026-04-18T09:30:05.001Z</time></trkpt><trkpt lat="47.82450028000892" lon="11.829788632052988"><ele>704.6666666666666</ele><time>2026-04-18T09:30:06.001Z</time></trkpt><trkpt lat="47.82464342959109" lon="11.829585460150732"><ele>704.3333333333333</ele><time>2026-04-18T09:30:07.001Z</time></trkpt><trkpt lat="47.824776852655496" lon="11.82936722174965"><ele>704.0</ele><time>2026-04-18T09:30:08.001Z</time></trkpt><trkpt lat="47.82492670830625" lon="11.829123927161167"><ele>703.5</ele><time>2026-04-18T09:30:09.001Z</time></trkpt><trkpt lat="47.82510603269101" lon="11.828856408333012"><ele>703.0</ele><time>2026-04-18T09:30:10.001Z</time></trkpt><trkpt lat="47.82529786547911" lon="11.828591170048243"><ele>702.0</ele><time>2026-04-18T09:30:11.001Z</time></trkpt><trkpt lat="47.82546844453802" lon="11.828353719327305"><ele>701.0</ele><time>2026-04-18T09:30:12.001Z</time></trkpt><trkpt lat="47.825628773298966" lon="11.828118535326222"><ele>701.0</ele><time>2026-04-18T09:30:13.001Z</time></trkpt><trkpt lat="47.82578463905812" lon="11.82789005767223"><ele>701.0</ele><time>2026-04-18T09:30:14.001Z</time></trkpt><trkpt lat="47.82593323953994" lon="11.827660698700114"><ele>701.0</ele><time>2026-04-18T09:30:15.001Z</time></trkpt><trkpt lat="47.826082346489564" lon="11.827433816792793"><ele>700.3333333333333</ele><time>2026-04-18T09:30:16.001Z</time></trkpt><trkpt lat="47.826237091140484" lon="11.827220494776366"><ele>699.6666666666666</ele><time>2026-04-18T09:30:17.001Z</time></trkpt><trkpt lat="47.82639009780127" lon="11.827002316899335"><ele>699.0</ele><time>2026-04-18T09:30:18.001Z</time></trkpt><trkpt lat="47.82654505595462" lon="11.826783896825878"><ele>698.6666666666666</ele><time>2026-04-18T09:30:19.001Z</time></trkpt><trkpt lat="47.826703715051494" lon="11.826571227773927"><ele>698.3333333333333</ele><time>2026-04-18T09:30:20.001Z</time></trkpt><trkpt lat="47.82686409060454" lon="11.826364575600595"><ele>698.0</ele><time>2026-04-18T09:30:21.001Z</time></trkpt><trkpt lat="47.82702504693009" lon="11.82616042487246"><ele>698.3333333333333</ele><time>2026-04-18T09:30:22.001Z</time></trkpt><trkpt lat="47.82718856466518" lon="11.825955122226077"><ele>698.6666666666666</ele><time>2026-04-18T09:30:23.001Z</time></trkpt><trkpt lat="47.82735265130271" lon="11.82574870248992"><ele>699.0</ele><time>2026-04-18T09:30:24.001Z</time></trkpt><trkpt lat="47.8275193385509" lon="11.825550473423135"><ele>698.5</ele><time>2026-04-18T09:30:25.001Z</time></trkpt><trkpt lat="47.827696415590566" lon="11.82534893107666"><ele>698.0</ele><time>2026-04-18T09:30:26.001Z</time></trkpt><trkpt lat="47.82788289837486" lon="11.825142652333922"><ele>698.0</ele><time>2026-04-18T09:30:27.001Z</time></trkpt><trkpt lat="47.82807763087212" lon="11.824932356376372"><ele>698.0</ele><time>2026-04-18T09:30:28.001Z</time></trkpt><trkpt lat="47.82827990163751" lon="11.82472203548759"><ele>698.5</ele><time>2026-04-18T09:30:29.001Z</time></trkpt><trkpt lat="47.82848518925355" lon="11.824517571499532"><ele>699.0</ele><time>2026-04-18T09:30:30.001Z</time></trkpt><trkpt lat="47.82868983543791" lon="11.824327265163195"><ele>696.5</ele><time>2026-04-18T09:30:31.001Z</time></trkpt><trkpt lat="47.828895033773854" lon="11.82414654611116"><ele>694.0</ele><time>2026-04-18T09:30:32.001Z</time></trkpt><trkpt lat="47.82910065715926" lon="11.823969459943552"><ele>694.0</ele><time>2026-04-18T09:30:33.001Z</time></trkpt><trkpt lat="47.82930626807587" lon="11.823797961475162"><ele>694.0</ele><time>2026-04-18T09:30:34.001Z</time></trkpt><trkpt lat="47.82951241256367" lon="11.823634334819484"><ele>690.0</ele><time>2026-04-18T09:30:35.001Z</time></trkpt><trkpt lat="47.829719178942746" lon="11.82346901544405"><ele>686.0</ele><time>2026-04-18T09:30:36.001Z</time></trkpt><trkpt lat="47.82992208223705" lon="11.823311034142252"><ele>686.0</ele><time>2026-04-18T09:30:37.001Z</time></trkpt><trkpt lat="47.83012469465041" lon="11.823158762536186"><ele>686.0</ele><time>2026-04-18T09:30:38.001Z</time></trkpt><trkpt lat="47.83032746277755" lon="11.823012679759769"><ele>685.6666666666666</ele><time>2026-04-18T09:30:39.001Z</time></trkpt><trkpt lat="47.83053008490209" lon="11.822871973544526"><ele>685.3333333333334</ele><time>2026-04-18T09:30:40.001Z</time></trkpt><trkpt lat="47.830730059708294" lon="11.822738678746566"><ele>685.0</ele><time>2026-04-18T09:30:41.001Z</time></trkpt><trkpt lat="47.83092194065636" lon="11.82261640052177"><ele>682.6666666666667</ele><time>2026-04-18T09:30:42.001Z</time></trkpt><trkpt lat="47.83110770444322" lon="11.822508877704097"><ele>680.3333333333334</ele><time>2026-04-18T09:30:43.001Z</time></trkpt><trkpt lat="47.831289063627906" lon="11.822409619104544"><ele>678.0</ele><time>2026-04-18T09:30:44.001Z</time></trkpt><trkpt lat="47.83146465823745" lon="11.822312541536323"><ele>678.0</ele><time>2026-04-18T09:30:45.001Z</time></trkpt><trkpt lat="47.83162993318297" lon="11.822219637772541"><ele>678.0</ele><time>2026-04-18T09:30:46.001Z</time></trkpt><trkpt lat="47.83179252577855" lon="11.822127648611966"><ele>678.0</ele><time>2026-04-18T09:30:47.001Z</time></trkpt><trkpt lat="47.83196173061872" lon="11.8220344112466"><ele>677.0</ele><time>2026-04-18T09:30:48.001Z</time></trkpt><trkpt lat="47.83213760455271" lon="11.821940782105722"><ele>676.0</ele><time>2026-04-18T09:30:49.001Z</time></trkpt><trkpt lat="47.83232157581465" lon="11.821839241854857"><ele>675.0</ele><time>2026-04-18T09:30:50.001Z</time></trkpt><trkpt lat="47.8325195331793" lon="11.821721075419736"><ele>674.5</ele><time>2026-04-18T09:30:51.001Z</time></trkpt><trkpt lat="47.83272906985715" lon="11.821600002714867"><ele>674.0</ele><time>2026-04-18T09:30:52.001Z</time></trkpt><trkpt lat="47.83294657626771" lon="11.821484998188721"><ele>674.0</ele><time>2026-04-18T09:30:53.001Z</time></trkpt><trkpt lat="47.83314761279541" lon="11.821374724772738"><ele>674.0</ele><time>2026-04-18T09:30:54.001Z</time></trkpt><trkpt lat="47.83334015861015" lon="11.821259736258938"><ele>674.0</ele><time>2026-04-18T09:30:55.001Z</time></trkpt><trkpt lat="47.83352198652635" lon="11.821146603677766"><ele>674.0</ele><time>2026-04-18T09:30:56.001Z</time></trkpt><trkpt lat="47.83369851112878" lon="11.821039255003344"><ele>674.0</ele><time>2026-04-18T09:30:57.001Z</time></trkpt><trkpt lat="47.83386762551541" lon="11.82093086642719"><ele>674.0</ele><time>2026-04-18T09:30:58.001Z</time></trkpt><trkpt lat="47.83402418688585" lon="11.820813904175045"><ele>673.3333333333333</ele><time>2026-04-18T09:30:59.001Z</time></trkpt><trkpt lat="47.83417128937383" lon="11.820709374623652"><ele>672.6666666666666</ele><time>2026-04-18T09:31:00.001Z</time></trkpt><trkpt lat="47.83430891496085" lon="11.820613875768533"><ele>672.0</ele><time>2026-04-18T09:31:01.001Z</time></trkpt><trkpt lat="47.83443888230073" lon="11.820525315311002"><ele>672.0</ele><time>2026-04-18T09:31:02.001Z</time></trkpt><trkpt lat="47.8345603619481" lon="11.820443233427353"><ele>672.0</ele><time>2026-04-18T09:31:03.001Z</time></trkpt><trkpt lat="47.83467104423665" lon="11.820364540462046"><ele>672.0</ele><time>2026-04-18T09:31:04.001Z</time></trkpt><trkpt lat="47.83477246983361" lon="11.820290488060639"><ele>672.0</ele><time>2026-04-18T09:31:05.001Z</time></trkpt><trkpt lat="47.83486634405793" lon="11.820219477839148"><ele>671.4000000000001</ele><time>2026-04-18T09:31:06.001Z</time></trkpt><trkpt lat="47.83496051755317" lon="11.82014709644984"><ele>670.8000000000001</ele><time>2026-04-18T09:31:07.001Z</time></trkpt><trkpt lat="47.835056461673595" lon="11.820067373266664"><ele>670.2</ele><time>2026-04-18T09:31:08.001Z</time></trkpt><trkpt lat="47.83515444786517" lon="11.819975243004754"><ele>669.6</ele><time>2026-04-18T09:31:09.001Z</time></trkpt><trkpt lat="47.835250549977594" lon="11.819878703610541"><ele>669.0</ele><time>2026-04-18T09:31:10.001Z</time></trkpt><trkpt lat="47.8353498117303" lon="11.819783321669014"><ele>669.0</ele><time>2026-04-18T09:31:11.001Z</time></trkpt><trkpt lat="47.83545170236896" lon="11.819687155315428"><ele>669.0</ele><time>2026-04-18T09:31:12.001Z</time></trkpt><trkpt lat="47.83555617365151" lon="11.819586852901523"><ele>669.0</ele><time>2026-04-18T09:31:13.001Z</time></trkpt><trkpt lat="47.83566086201169" lon="11.81948777816465"><ele>669.0</ele><time>2026-04-18T09:31:14.001Z</time></trkpt><trkpt lat="47.83576248127817" lon="11.819390092266348"><ele>668.5</ele><time>2026-04-18T09:31:15.001Z</time></trkpt><trkpt lat="47.83583911622783" lon="11.819316851167429"><ele>668.0</ele><time>2026-04-18T09:31:16.001Z</time></trkpt><trkpt lat="47.83590570972566" lon="11.81925499878104"><ele>667.5</ele><time>2026-04-18T09:31:17.001Z</time></trkpt><trkpt lat="47.83597766457763" lon="11.819190301549398"><ele>667.0</ele><time>2026-04-18T09:31:18.001Z</time></trkpt><trkpt lat="47.836054081594945" lon="11.819121910366855"><ele>666.5</ele><time>2026-04-18T09:31:19.001Z</time></trkpt><trkpt lat="47.83613480112567" lon="11.819050418674863"><ele>666.0</ele><time>2026-04-18T09:31:20.001Z</time></trkpt><trkpt lat="47.83621911242616" lon="11.818975074025115"><ele>666.0</ele><time>2026-04-18T09:31:21.001Z</time></trkpt><trkpt lat="47.83630583251899" lon="11.81889642087429"><ele>666.0</ele><time>2026-04-18T09:31:22.001Z</time></trkpt><trkpt lat="47.83639917075257" lon="11.81881078863831"><ele>666.0</ele><time>2026-04-18T09:31:23.001Z</time></trkpt><trkpt lat="47.83649649542656" lon="11.818723261306658"><ele>666.0</ele><time>2026-04-18T09:31:24.001Z</time></trkpt><trkpt lat="47.83659428906918" lon="11.818643737792101"><ele>666.0</ele><time>2026-04-18T09:31:25.001Z</time></trkpt><trkpt lat="47.83668378407998" lon="11.818568554979505"><ele>666.0</ele><time>2026-04-18T09:31:26.001Z</time></trkpt><trkpt lat="47.8367705833144" lon="11.81849823927772"><ele>666.0</ele><time>2026-04-18T09:31:27.001Z</time></trkpt><trkpt lat="47.836860643006645" lon="11.81842530533843"><ele>666.0</ele><time>2026-04-18T09:31:28.001Z</time></trkpt><trkpt lat="47.83695304469481" lon="11.818356095530257"><ele>666.0</ele><time>2026-04-18T09:31:29.001Z</time></trkpt><trkpt lat="47.83704955128468" lon="11.818292867592058"><ele>666.0</ele><time>2026-04-18T09:31:30.001Z</time></trkpt><trkpt lat="47.837149268089334" lon="11.8182348917771"><ele>665.75</ele><time>2026-04-18T09:31:31.001Z</time></trkpt><trkpt lat="47.83725005295153" lon="11.81816646567156"><ele>665.5</ele><time>2026-04-18T09:31:32.001Z</time></trkpt><trkpt lat="47.83735356275915" lon="11.818090769477946"><ele>665.25</ele><time>2026-04-18T09:31:33.001Z</time></trkpt><trkpt lat="47.83745634656339" lon="11.81801379388548"><ele>665.0</ele><time>2026-04-18T09:31:34.001Z</time></trkpt><trkpt lat="47.83755728817092" lon="11.817933570368998"><ele>665.25</ele><time>2026-04-18T09:31:35.001Z</time></trkpt><trkpt lat="47.83765928865875" lon="11.81786004549453"><ele>665.5</ele><time>2026-04-18T09:31:36.001Z</time></trkpt><trkpt lat="47.83776214095195" lon="11.817792162273928"><ele>665.75</ele><time>2026-04-18T09:31:37.001Z</time></trkpt><trkpt lat="47.83786584016962" lon="11.817722851835118"><ele>666.0</ele><time>2026-04-18T09:31:38.001Z</time></trkpt><trkpt lat="47.837985304819234" lon="11.817641019746558"><ele>665.0</ele><time>2026-04-18T09:31:39.001Z</time></trkpt><trkpt lat="47.838121367986915" lon="11.817554910629656"><ele>664.0</ele><time>2026-04-18T09:31:40.001Z</time></trkpt><trkpt lat="47.838272627407584" lon="11.817467068926788"><ele>663.0</ele><time>2026-04-18T09:31:41.001Z</time></trkpt><trkpt lat="47.8384427184332" lon="11.817364243069834"><ele>663.6666666666666</ele><time>2026-04-18T09:31:42.001Z</time></trkpt><trkpt lat="47.83863419301128" lon="11.817249263915912"><ele>664.3333333333333</ele><time>2026-04-18T09:31:43.001Z</time></trkpt><trkpt lat="47.83883836215997" lon="11.81712330072959"><ele>665.0</ele><time>2026-04-18T09:31:44.001Z</time></trkpt><trkpt lat="47.83907225999554" lon="11.81697966024195"><ele>665.0</ele><time>2026-04-18T09:31:45.001Z</time></trkpt><trkpt lat="47.839316763174935" lon="11.816826148905202"><ele>665.0</ele><time>2026-04-18T09:31:46.001Z</time></trkpt><trkpt lat="47.83955117073442" lon="11.816675833922742"><ele>665.0</ele><time>2026-04-18T09:31:47.001Z</time></trkpt><trkpt lat="47.83976292121031" lon="11.816534939691136"><ele>665.0</ele><time>2026-04-18T09:31:48.001Z</time></trkpt><trkpt lat="47.839950083870974" lon="11.81639806542589"><ele>665.0</ele><time>2026-04-18T09:31:49.001Z</time></trkpt><trkpt lat="47.84014316743219" lon="11.816245220155823"><ele>664.3333333333333</ele><time>2026-04-18T09:31:50.001Z</time></trkpt><trkpt lat="47.84031611105386" lon="11.816101113653502"><ele>663.6666666666666</ele><time>2026-04-18T09:31:51.001Z</time></trkpt><trkpt lat="47.84048737975065" lon="11.815952697894561"><ele>663.0</ele><time>2026-04-18T09:31:52.001Z</time></trkpt><trkpt lat="47.84065949133281" lon="11.81579096985759"><ele>663.0</ele><time>2026-04-18T09:31:53.001Z</time></trkpt><trkpt lat="47.84082847045548" lon="11.815617827031375"><ele>663.0</ele><time>2026-04-18T09:31:54.001Z</time></trkpt><trkpt lat="47.8409787953156" lon="11.815447169672648"><ele>663.0</ele><time>2026-04-18T09:31:55.001Z</time></trkpt><trkpt lat="47.841125910945" lon="11.815266523900938"><ele>665.0</ele><time>2026-04-18T09:31:56.001Z</time></trkpt><trkpt lat="47.84127111550858" lon="11.815068798417167"><ele>667.0</ele><time>2026-04-18T09:31:57.001Z</time></trkpt><trkpt lat="47.84141133564502" lon="11.814861757026796"><ele>669.0</ele><time>2026-04-18T09:31:58.001Z</time></trkpt><trkpt lat="47.8415454197404" lon="11.814645901909552"><ele>669.0</ele><time>2026-04-18T09:31:59.001Z</time></trkpt><trkpt lat="47.841678410121744" lon="11.814429758706856"><ele>669.0</ele><time>2026-04-18T09:32:00.001Z</time></trkpt><trkpt lat="47.8418132047819" lon="11.814215255336077"><ele>669.0</ele><time>2026-04-18T09:32:01.001Z</time></trkpt><trkpt lat="47.84195136412664" lon="11.814001552723184"><ele>671.0</ele><time>2026-04-18T09:32:02.001Z</time></trkpt><trkpt lat="47.84209574993169" lon="11.813794875369066"><ele>673.0</ele><time>2026-04-18T09:32:03.001Z</time></trkpt><trkpt lat="47.84224393606219" lon="11.813594695214404"><ele>675.0</ele><time>2026-04-18T09:32:04.001Z</time></trkpt><trkpt lat="47.842397434254124" lon="11.813393746511672"><ele>677.6666666666666</ele><time>2026-04-18T09:32:05.001Z</time></trkpt><trkpt lat="47.84255876699899" lon="11.813196997928658"><ele>680.3333333333333</ele><time>2026-04-18T09:32:06.001Z</time></trkpt><trkpt lat="47.84272384672663" lon="11.813007431965806"><ele>683.0</ele><time>2026-04-18T09:32:07.001Z</time></trkpt><trkpt lat="47.84289216987734" lon="11.81282948749605"><ele>683.0</ele><time>2026-04-18T09:32:08.001Z</time></trkpt><trkpt lat="47.8430559711642" lon="11.812667459098977"><ele>683.0</ele><time>2026-04-18T09:32:09.001Z</time></trkpt><trkpt lat="47.84321582733137" lon="11.812522599709256"><ele>683.0</ele><time>2026-04-18T09:32:10.001Z</time></trkpt><trkpt lat="47.843373012172165" lon="11.812391200473863"><ele>686.6666666666666</ele><time>2026-04-18T09:32:11.001Z</time></trkpt><trkpt lat="47.84353137033147" lon="11.812273222096811"><ele>690.3333333333334</ele><time>2026-04-18T09:32:12.001Z</time></trkpt><trkpt lat="47.84369237214991" lon="11.812160542787105"><ele>694.0</ele><time>2026-04-18T09:32:13.001Z</time></trkpt><trkpt lat="47.843857785160935" lon="11.812043546351303"><ele>694.0</ele><time>2026-04-18T09:32:14.001Z</time></trkpt><trkpt lat="47.844028632767476" lon="11.8119033505923"><ele>694.0</ele><time>2026-04-18T09:32:15.001Z</time></trkpt><trkpt lat="47.844195495442776" lon="11.811745899946741"><ele>694.0</ele><time>2026-04-18T09:32:16.001Z</time></trkpt><trkpt lat="47.84435077636298" lon="11.811596933342237"><ele>698.3333333333334</ele><time>2026-04-18T09:32:17.001Z</time></trkpt><trkpt lat="47.844502081113774" lon="11.811441794223041"><ele>702.6666666666666</ele><time>2026-04-18T09:32:18.001Z</time></trkpt><trkpt lat="47.84465021391879" lon="11.81128224042235"><ele>707.0</ele><time>2026-04-18T09:32:19.001Z</time></trkpt><trkpt lat="47.84479868246069" lon="11.811117036324523"><ele>707.0</ele><time>2026-04-18T09:32:20.001Z</time></trkpt><trkpt lat="47.84495042211139" lon="11.81094349368372"><ele>707.0</ele><time>2026-04-18T09:32:21.001Z</time></trkpt><trkpt lat="47.84511127703246" lon="11.810777534547963"><ele>707.0</ele><time>2026-04-18T09:32:22.001Z</time></trkpt><trkpt lat="47.84527481077573" lon="11.810622772137942"><ele>707.0</ele><time>2026-04-18T09:32:23.001Z</time></trkpt><trkpt lat="47.84543796242585" lon="11.810481615174155"><ele>707.0</ele><time>2026-04-18T09:32:24.001Z</time></trkpt><trkpt lat="47.84560046430691" lon="11.810357243600436"><ele>707.0</ele><time>2026-04-18T09:32:25.001Z</time></trkpt><trkpt lat="47.84576002221526" lon="11.81024813887365"><ele>706.0</ele><time>2026-04-18T09:32:26.001Z</time></trkpt><trkpt lat="47.84592149330959" lon="11.810157256791406"><ele>705.0</ele><time>2026-04-18T09:32:27.001Z</time></trkpt><trkpt lat="47.84608520173629" lon="11.810076801068854"><ele>704.0</ele><time>2026-04-18T09:32:28.001Z</time></trkpt><trkpt lat="47.84625510349429" lon="11.81000713697439"><ele>702.0</ele><time>2026-04-18T09:32:29.001Z</time></trkpt><trkpt lat="47.846428591936245" lon="11.809942775496683"><ele>700.0</ele><time>2026-04-18T09:32:30.001Z</time></trkpt><trkpt lat="47.84660228411426" lon="11.809886076430402"><ele>698.0</ele><time>2026-04-18T09:32:31.001Z</time></trkpt><trkpt lat="47.84677526965893" lon="11.809832924175137"><ele>696.3333333333333</ele><time>2026-04-18T09:32:32.001Z</time></trkpt><trkpt lat="47.8469462291607" lon="11.809790670401586"><ele>694.6666666666666</ele><time>2026-04-18T09:32:33.001Z</time></trkpt><trkpt lat="47.8471139480351" lon="11.80975115351146"><ele>693.0</ele><time>2026-04-18T09:32:34.001Z</time></trkpt><trkpt lat="47.84727990139237" lon="11.809707339310393"><ele>693.0</ele><time>2026-04-18T09:32:35.001Z</time></trkpt><trkpt lat="47.84744844387762" lon="11.809656789068562"><ele>693.0</ele><time>2026-04-18T09:32:36.001Z</time></trkpt><trkpt lat="47.847623237007866" lon="11.80959361793775"><ele>693.0</ele><time>2026-04-18T09:32:37.001Z</time></trkpt><trkpt lat="47.8478008308127" lon="11.809515396045311"><ele>693.3333333333334</ele><time>2026-04-18T09:32:38.001Z</time></trkpt><trkpt lat="47.847978706709846" lon="11.809409898243432"><ele>693.6666666666667</ele><time>2026-04-18T09:32:39.001Z</time></trkpt><trkpt lat="47.848152663663726" lon="11.809282194903721"><ele>694.0</ele><time>2026-04-18T09:32:40.001Z</time></trkpt><trkpt lat="47.848318853487484" lon="11.809138061890698"><ele>692.6666666666667</ele><time>2026-04-18T09:32:41.001Z</time></trkpt><trkpt lat="47.848476118093316" lon="11.808982110534089"><ele>691.3333333333334</ele><time>2026-04-18T09:32:42.001Z</time></trkpt><trkpt lat="47.84862573284109" lon="11.808811891108087"><ele>690.0</ele><time>2026-04-18T09:32:43.001Z</time></trkpt><trkpt lat="47.84877239199899" lon="11.80863723428247"><ele>690.6666666666666</ele><time>2026-04-18T09:32:44.001Z</time></trkpt><trkpt lat="47.84891653861759" lon="11.80845607886045"><ele>691.3333333333333</ele><time>2026-04-18T09:32:45.001Z</time></trkpt><trkpt lat="47.84906088764193" lon="11.808262321915775"><ele>692.0</ele><time>2026-04-18T09:32:46.001Z</time></trkpt><trkpt lat="47.849199156374894" lon="11.808066039919419"><ele>690.6666666666666</ele><time>2026-04-18T09:32:47.001Z</time></trkpt><trkpt lat="47.849326851543296" lon="11.807877903225371"><ele>689.3333333333334</ele><time>2026-04-18T09:32:48.001Z</time></trkpt><trkpt lat="47.84944677904031" lon="11.80769829720132"><ele>688.0</ele><time>2026-04-18T09:32:49.001Z</time></trkpt><trkpt lat="47.84956369342623" lon="11.807529605726227"><ele>687.3333333333334</ele><time>2026-04-18T09:32:50.001Z</time></trkpt><trkpt lat="47.84967770264625" lon="11.807366130551454"><ele>686.6666666666666</ele><time>2026-04-18T09:32:51.001Z</time></trkpt><trkpt lat="47.849794378614675" lon="11.807199338020556"><ele>686.0</ele><time>2026-04-18T09:32:52.001Z</time></trkpt><trkpt lat="47.849919646396515" lon="11.807023522604005"><ele>686.0</ele><time>2026-04-18T09:32:53.001Z</time></trkpt><trkpt lat="47.85005802603491" lon="11.806839149819108"><ele>686.0</ele><time>2026-04-18T09:32:54.001Z</time></trkpt><trkpt lat="47.850201476588175" lon="11.806661051619422"><ele>686.0</ele><time>2026-04-18T09:32:55.001Z</time></trkpt><trkpt lat="47.85034738265435" lon="11.80649046337495"><ele>684.3333333333333</ele><time>2026-04-18T09:32:56.001Z</time></trkpt><trkpt lat="47.850491506549666" lon="11.806330736420598"><ele>682.6666666666666</ele><time>2026-04-18T09:32:57.001Z</time></trkpt><trkpt lat="47.85063713487019" lon="11.806177802255679"><ele>681.0</ele><time>2026-04-18T09:32:58.001Z</time></trkpt><trkpt lat="47.85078886806225" lon="11.80602328926825"><ele>681.0</ele><time>2026-04-18T09:32:59.001Z</time></trkpt><trkpt lat="47.85094334866208" lon="11.805875078840556"><ele>681.0</ele><time>2026-04-18T09:33:00.001Z</time></trkpt><trkpt lat="47.85110262181964" lon="11.805733642654076"><ele>681.0</ele><time>2026-04-18T09:33:01.001Z</time></trkpt><trkpt lat="47.851261650979936" lon="11.805595656250008"><ele>680.6666666666666</ele><time>2026-04-18T09:33:02.001Z</time></trkpt><trkpt lat="47.851427039224404" lon="11.805455099125481"><ele>680.3333333333333</ele><time>2026-04-18T09:33:03.001Z</time></trkpt><trkpt lat="47.85159195592778" lon="11.805320509234754"><ele>680.0</ele><time>2026-04-18T09:33:04.001Z</time></trkpt><trkpt lat="47.851751175597755" lon="11.805195957256963"><ele>679.3333333333333</ele><time>2026-04-18T09:33:05.001Z</time></trkpt><trkpt lat="47.851902792073204" lon="11.805082807660234"><ele>678.6666666666666</ele><time>2026-04-18T09:33:06.001Z</time></trkpt><trkpt lat="47.852040640754836" lon="11.804979229472856"><ele>678.0</ele><time>2026-04-18T09:33:07.001Z</time></trkpt><trkpt lat="47.85218028108204" lon="11.804873726760235"><ele>678.0</ele><time>2026-04-18T09:33:08.001Z</time></trkpt><trkpt lat="47.85232132907578" lon="11.804773830866345"><ele>678.0</ele><time>2026-04-18T09:33:09.001Z</time></trkpt><trkpt lat="47.85245865148985" lon="11.804682014686055"><ele>678.0</ele><time>2026-04-18T09:33:10.001Z</time></trkpt><trkpt lat="47.85258831145434" lon="11.804597282104972"><ele>678.0</ele><time>2026-04-18T09:33:11.001Z</time></trkpt><trkpt lat="47.852707022479436" lon="11.804521281693866"><ele>678.25</ele><time>2026-04-18T09:33:12.001Z</time></trkpt><trkpt lat="47.85281690375649" lon="11.804453508247331"><ele>678.5</ele><time>2026-04-18T09:33:13.001Z</time></trkpt><trkpt lat="47.852924967663256" lon="11.804389656704535"><ele>678.75</ele><time>2026-04-18T09:33:14.001Z</time></trkpt><trkpt lat="47.85303118181016" lon="11.80432668914154"><ele>679.0</ele><time>2026-04-18T09:33:15.001Z</time></trkpt><trkpt lat="47.85314088101562" lon="11.80426034557365"><ele>679.0</ele><time>2026-04-18T09:33:16.001Z</time></trkpt><trkpt lat="47.85325096433549" lon="11.804194656918023"><ele>679.0</ele><time>2026-04-18T09:33:17.001Z</time></trkpt><trkpt lat="47.8533626578731" lon="11.804131312931268"><ele>679.0</ele><time>2026-04-18T09:33:18.001Z</time></trkpt><trkpt lat="47.85347622404209" lon="11.804067644648525"><ele>679.0</ele><time>2026-04-18T09:33:19.001Z</time></trkpt><trkpt lat="47.8535889658261" lon="11.804006998867298"><ele>680.5</ele><time>2026-04-18T09:33:20.001Z</time></trkpt><trkpt lat="47.853698980422124" lon="11.80395071004263"><ele>682.0</ele><time>2026-04-18T09:33:21.001Z</time></trkpt><trkpt lat="47.85380460377313" lon="11.803895471832671"><ele>683.5</ele><time>2026-04-18T09:33:22.001Z</time></trkpt><trkpt lat="47.85391661149976" lon="11.80383537163493"><ele>685.0</ele><time>2026-04-18T09:33:23.001Z</time></trkpt><trkpt lat="47.85404431308419" lon="11.803764390202128"><ele>685.0</ele><time>2026-04-18T09:33:24.001Z</time></trkpt><trkpt lat="47.854160170252" lon="11.803698647023644"><ele>685.0</ele><time>2026-04-18T09:33:25.001Z</time></trkpt><trkpt lat="47.85426964054693" lon="11.803642903914936"><ele>685.0</ele><time>2026-04-18T09:33:26.001Z</time></trkpt><trkpt lat="47.85437699754009" lon="11.803584646674256"><ele>685.0</ele><time>2026-04-18T09:33:27.001Z</time></trkpt><trkpt lat="47.8544880005025" lon="11.803518614653855"><ele>683.25</ele><time>2026-04-18T09:33:28.001Z</time></trkpt><trkpt lat="47.854598365243696" lon="11.803448820148645"><ele>681.5</ele><time>2026-04-18T09:33:29.001Z</time></trkpt><trkpt lat="47.854701482985796" lon="11.803379977793377"><ele>679.75</ele><time>2026-04-18T09:33:30.001Z</time></trkpt><trkpt lat="47.8548056222454" lon="11.803312171180332"><ele>678.0</ele><time>2026-04-18T09:33:31.001Z</time></trkpt><trkpt lat="47.85491211446083" lon="11.803249277905124"><ele>678.0</ele><time>2026-04-18T09:33:32.001Z</time></trkpt><trkpt lat="47.855024943019686" lon="11.803188451272243"><ele>678.0</ele><time>2026-04-18T09:33:33.001Z</time></trkpt><trkpt lat="47.855134940726494" lon="11.803124485389336"><ele>678.0</ele><time>2026-04-18T09:33:34.001Z</time></trkpt><trkpt lat="47.85524465470606" lon="11.803059181391037"><ele>678.0</ele><time>2026-04-18T09:33:35.001Z</time></trkpt><trkpt lat="47.855354895410755" lon="11.802995174602826"><ele>677.5999999999999</ele><time>2026-04-18T09:33:36.001Z</time></trkpt><trkpt lat="47.85546339128641" lon="11.802934214609873"><ele>677.1999999999999</ele><time>2026-04-18T09:33:37.001Z</time></trkpt><trkpt lat="47.855563548027995" lon="11.802878360511647"><ele>676.8</ele><time>2026-04-18T09:33:38.001Z</time></trkpt><trkpt lat="47.85565702170677" lon="11.802825801648341"><ele>676.4</ele><time>2026-04-18T09:33:39.001Z</time></trkpt><trkpt lat="47.855744517600186" lon="11.80277528971802"><ele>676.0</ele><time>2026-04-18T09:33:40.001Z</time></trkpt><trkpt lat="47.8558339308645" lon="11.802725375846856"><ele>676.0</ele><time>2026-04-18T09:33:41.001Z</time></trkpt><trkpt lat="47.8559250679847" lon="11.802672851785514"><ele>676.0</ele><time>2026-04-18T09:33:42.001Z</time></trkpt><trkpt lat="47.856017055793956" lon="11.802617286778087"><ele>676.0</ele><time>2026-04-18T09:33:43.001Z</time></trkpt><trkpt lat="47.856110760157144" lon="11.802563139975522"><ele>676.0</ele><time>2026-04-18T09:33:44.001Z</time></trkpt><trkpt lat="47.8562116221955" lon="11.80250382264208"><ele>676.0</ele><time>2026-04-18T09:33:45.001Z</time></trkpt><trkpt lat="47.85631534392168" lon="11.802441100302168"><ele>675.25</ele><time>2026-04-18T09:33:46.001Z</time></trkpt><trkpt lat="47.856422997598656" lon="11.802375629849239"><ele>674.5</ele><time>2026-04-18T09:33:47.001Z</time></trkpt><trkpt lat="47.85653393262334" lon="11.802308152602194"><ele>673.75</ele><time>2026-04-18T09:33:48.001Z</time></trkpt><trkpt lat="47.856643885641205" lon="11.802240654338206"><ele>673.0</ele><time>2026-04-18T09:33:49.001Z</time></trkpt><trkpt lat="47.85675464578985" lon="11.802179907752958"><ele>673.0</ele><time>2026-04-18T09:33:50.001Z</time></trkpt><trkpt lat="47.856864054164326" lon="11.802121528161537"><ele>673.0</ele><time>2026-04-18T09:33:51.001Z</time></trkpt><trkpt lat="47.856968935518836" lon="11.802060939297743"><ele>673.0</ele><time>2026-04-18T09:33:52.001Z</time></trkpt><trkpt lat="47.85706226542147" lon="11.802001989589069"><ele>673.0</ele><time>2026-04-18T09:33:53.001Z</time></trkpt><trkpt lat="47.85715274507186" lon="11.801936407312798"><ele>673.0</ele><time>2026-04-18T09:33:54.001Z</time></trkpt><trkpt lat="47.85724168817912" lon="11.801862804789927"><ele>672.8</ele><time>2026-04-18T09:33:55.001Z</time></trkpt><trkpt lat="47.857329338199825" lon="11.801785019917887"><ele>672.5999999999999</ele><time>2026-04-18T09:33:56.001Z</time></trkpt><trkpt lat="47.85740877731052" lon="11.801688363425031"><ele>672.4000000000001</ele><time>2026-04-18T09:33:57.001Z</time></trkpt><trkpt lat="47.857488946381544" lon="11.801582967236579"><ele>672.2</ele><time>2026-04-18T09:33:58.001Z</time></trkpt><trkpt lat="47.85756694433795" lon="11.801462372903593"><ele>672.0</ele><time>2026-04-18T09:33:59.001Z</time></trkpt><trkpt lat="47.85764081959191" lon="11.80133015378864"><ele>673.5</ele><time>2026-04-18T09:34:00.001Z</time></trkpt><trkpt lat="47.85770662937531" lon="11.801187473259896"><ele>675.0</ele><time>2026-04-18T09:34:01.001Z</time></trkpt><trkpt lat="47.85776895424511" lon="11.801042693981334"><ele>676.5</ele><time>2026-04-18T09:34:02.001Z</time></trkpt><trkpt lat="47.857833597181106" lon="11.800897343321012"><ele>678.0</ele><time>2026-04-18T09:34:03.001Z</time></trkpt><trkpt lat="47.8578987116467" lon="11.800756000758785"><ele>678.2</ele><time>2026-04-18T09:34:04.001Z</time></trkpt><trkpt lat="47.85796236840821" lon="11.80061753438186"><ele>678.4</ele><time>2026-04-18T09:34:05.001Z</time></trkpt><trkpt lat="47.85802382270281" lon="11.80048312975931"><ele>678.6</ele><time>2026-04-18T09:34:06.001Z</time></trkpt><trkpt lat="47.85807664031912" lon="11.800364860501908"><ele>678.8000000000001</ele><time>2026-04-18T09:34:07.001Z</time></trkpt><trkpt lat="47.858123158858355" lon="11.800262284547449"><ele>679.0</ele><time>2026-04-18T09:34:08.001Z</time></trkpt><trkpt lat="47.85816737862416" lon="11.800158874003543"><ele>678.4000000000001</ele><time>2026-04-18T09:34:09.001Z</time></trkpt><trkpt lat="47.85821278794239" lon="11.800048680490262"><ele>677.8</ele><time>2026-04-18T09:34:10.001Z</time></trkpt><trkpt lat="47.858262514770225" lon="11.79992924126817"><ele>677.2</ele><time>2026-04-18T09:34:11.001Z</time></trkpt><trkpt lat="47.85831526872114" lon="11.799798077163093"><ele>676.5999999999999</ele><time>2026-04-18T09:34:12.001Z</time></trkpt><trkpt lat="47.85837515850366" lon="11.79965949524443"><ele>676.0</ele><time>2026-04-18T09:34:13.001Z</time></trkpt><trkpt lat="47.85844265070241" lon="11.799512977432444"><ele>676.5</ele><time>2026-04-18T09:34:14.001Z</time></trkpt><trkpt lat="47.85851921329938" lon="11.799369004872146"><ele>677.0</ele><time>2026-04-18T09:34:15.001Z</time></trkpt><trkpt lat="47.85859799236807" lon="11.799235853464323"><ele>677.5</ele><time>2026-04-18T09:34:16.001Z</time></trkpt><trkpt lat="47.85867440107492" lon="11.799111589113016"><ele>678.0</ele><time>2026-04-18T09:34:17.001Z</time></trkpt><trkpt lat="47.8587560856865" lon="11.798999750960617"><ele>678.0</ele><time>2026-04-18T09:34:18.001Z</time></trkpt><trkpt lat="47.85884121739237" lon="11.798900897258846"><ele>678.0</ele><time>2026-04-18T09:34:19.001Z</time></trkpt><trkpt lat="47.85893078117652" lon="11.798814565338985"><ele>678.0</ele><time>2026-04-18T09:34:20.001Z</time></trkpt><trkpt lat="47.85902488582845" lon="11.798737639959437"><ele>678.0</ele><time>2026-04-18T09:34:21.001Z</time></trkpt><trkpt lat="47.859122752302376" lon="11.798660805720868"><ele>678.0</ele><time>2026-04-18T09:34:22.001Z</time></trkpt><trkpt lat="47.859230088957744" lon="11.798589843362874"><ele>677.75</ele><time>2026-04-18T09:34:23.001Z</time></trkpt><trkpt lat="47.85935822950104" lon="11.798515595706704"><ele>677.5</ele><time>2026-04-18T09:34:24.001Z</time></trkpt><trkpt lat="47.859481744775465" lon="11.798452320837875"><ele>677.25</ele><time>2026-04-18T09:34:25.001Z</time></trkpt><trkpt lat="47.859605334267435" lon="11.798394253569183"><ele>677.0</ele><time>2026-04-18T09:34:26.001Z</time></trkpt><trkpt lat="47.85973304367363" lon="11.798330605666715"><ele>677.0</ele><time>2026-04-18T09:34:27.001Z</time></trkpt><trkpt lat="47.85986187728091" lon="11.798265973114923"><ele>677.0</ele><time>2026-04-18T09:34:28.001Z</time></trkpt><trkpt lat="47.859989683206884" lon="11.798203312135138"><ele>677.0</ele><time>2026-04-18T09:34:29.001Z</time></trkpt><trkpt lat="47.86011800213492" lon="11.79814182671218"><ele>677.0</ele><time>2026-04-18T09:34:30.001Z</time></trkpt><trkpt lat="47.86023385139128" lon="11.79808378707127"><ele>676.8</ele><time>2026-04-18T09:34:31.001Z</time></trkpt><trkpt lat="47.86033991059496" lon="11.798027677199942"><ele>676.6</ele><time>2026-04-18T09:34:32.001Z</time></trkpt><trkpt lat="47.86044285204271" lon="11.797975037512757"><ele>676.4</ele><time>2026-04-18T09:34:33.001Z</time></trkpt><trkpt lat="47.860544885718426" lon="11.79791972088075"><ele>676.1999999999999</ele><time>2026-04-18T09:34:34.001Z</time></trkpt><trkpt lat="47.86064740492666" lon="11.797859890903613"><ele>676.0</ele><time>2026-04-18T09:34:35.001Z</time></trkpt><trkpt lat="47.860751309932766" lon="11.797799410793457"><ele>676.0</ele><time>2026-04-18T09:34:36.001Z</time></trkpt><trkpt lat="47.86086192814465" lon="11.797737057172322"><ele>676.0</ele><time>2026-04-18T09:34:37.001Z</time></trkpt><trkpt lat="47.860968153409566" lon="11.797674253890454"><ele>676.0</ele><time>2026-04-18T09:34:38.001Z</time></trkpt><trkpt lat="47.861067698394365" lon="11.7976095761211"><ele>676.0</ele><time>2026-04-18T09:34:39.001Z</time></trkpt><trkpt lat="47.8611588424766" lon="11.79755115866107"><ele>676.0</ele><time>2026-04-18T09:34:40.001Z</time></trkpt><trkpt lat="47.86124218053652" lon="11.797494360601682"><ele>674.8</ele><time>2026-04-18T09:34:41.001Z</time></trkpt><trkpt lat="47.861324805394005" lon="11.797436569408553"><ele>673.5999999999999</ele><time>2026-04-18T09:34:42.001Z</time></trkpt><trkpt lat="47.86140698898736" lon="11.797376031079933"><ele>672.4</ele><time>2026-04-18T09:34:43.001Z</time></trkpt><trkpt lat="47.8614846150331" lon="11.79732084845962"><ele>671.2</ele><time>2026-04-18T09:34:44.001Z</time></trkpt><trkpt lat="47.86155097072781" lon="11.797273447216952"><ele>670.0</ele><time>2026-04-18T09:34:45.001Z</time></trkpt><trkpt lat="47.86164835922964" lon="11.797206864000291"><ele>670.0</ele><time>2026-04-18T09:34:47.001Z</time></trkpt><trkpt lat="47.86172946840895" lon="11.797147036607464"><ele>670.0</ele><time>2026-04-18T09:34:49.001Z</time></trkpt><trkpt lat="47.86182818659976" lon="11.79706982828768"><ele>670.0</ele><time>2026-04-18T09:34:51.001Z</time></trkpt><trkpt lat="47.861885794537294" lon="11.797017659604329"><ele>670.0</ele><time>2026-04-18T09:34:52.001Z</time></trkpt><trkpt lat="47.86195780112964" lon="11.79699374024437"><ele>670.0</ele><time>2026-04-18T09:34:53.001Z</time></trkpt><trkpt lat="47.86202754796118" lon="11.797008618652312"><ele>670.0</ele><time>2026-04-18T09:34:54.001Z</time></trkpt><trkpt lat="47.86209208049856" lon="11.797026903473293"><ele>670.0</ele><time>2026-04-18T09:34:55.001Z</time></trkpt><trkpt lat="47.86218591386097" lon="11.796927399985018"><ele>670.0</ele><time>2026-04-18T09:34:57.001Z</time></trkpt><trkpt lat="47.86220728331159" lon="11.796760203409988"><ele>670.0</ele><time>2026-04-18T09:34:59.001Z</time></trkpt><trkpt lat="47.8621590728897" lon="11.796602974299523"><ele>670.0</ele><time>2026-04-18T09:35:01.001Z</time></trkpt><trkpt lat="47.86210351092624" lon="11.79652049449005"><ele>670.0</ele><time>2026-04-18T09:35:02.001Z</time></trkpt><trkpt lat="47.86206518345071" lon="11.796409883765998"><ele>670.0</ele><time>2026-04-18T09:35:03.001Z</time></trkpt><trkpt lat="47.86203064700332" lon="11.796303327482867"><ele>670.0</ele><time>2026-04-18T09:35:04.001Z</time></trkpt><trkpt lat="47.86206046532004" lon="11.796171002483343"><ele>670.0</ele><time>2026-04-18T09:35:05.001Z</time></trkpt><trkpt lat="47.862057362973694" lon="11.796046245750357"><ele>670.0</ele><time>2026-04-18T09:35:06.001Z</time></trkpt><trkpt lat="47.86204493507331" lon="11.795917304086467"><ele>670.0</ele><time>2026-04-18T09:35:07.001Z</time></trkpt><trkpt lat="47.862030161617746" lon="11.795782114538563"><ele>670.0</ele><time>2026-04-18T09:35:08.001Z</time></trkpt><trkpt lat="47.86201796288366" lon="11.795635526361782"><ele>669.8</ele><time>2026-04-18T09:35:09.001Z</time></trkpt><trkpt lat="47.86200673519127" lon="11.79547433437885"><ele>669.6</ele><time>2026-04-18T09:35:10.001Z</time></trkpt><trkpt lat="47.86198839958508" lon="11.79529138420136"><ele>669.4000000000001</ele><time>2026-04-18T09:35:11.001Z</time></trkpt><trkpt lat="47.86197027882223" lon="11.795130472650344"><ele>669.2</ele><time>2026-04-18T09:35:12.001Z</time></trkpt><trkpt lat="47.86195676979209" lon="11.794985066947584"><ele>669.0</ele><time>2026-04-18T09:35:13.001Z</time></trkpt><trkpt lat="47.861947787616366" lon="11.79485616390825"><ele>668.8000000000001</ele><time>2026-04-18T09:35:14.001Z</time></trkpt><trkpt lat="47.86193493025913" lon="11.794736697836786"><ele>668.6</ele><time>2026-04-18T09:35:15.001Z</time></trkpt><trkpt lat="47.86192291191768" lon="11.794629095181259"><ele>668.4</ele><time>2026-04-18T09:35:16.001Z</time></trkpt><trkpt lat="47.8619153469473" lon="11.794535757128147"><ele>668.2</ele><time>2026-04-18T09:35:17.001Z</time></trkpt><trkpt lat="47.86194380299814" lon="11.794388166044008"><ele>668.0</ele><time>2026-04-18T09:35:19Z</time></trkpt><trkpt lat="47.86205097903651" lon="11.794267158364372"><ele>668.0</ele><time>2026-04-18T09:35:21Z</time></trkpt><trkpt lat="47.86212083713912" lon="11.794208888013653"><ele>668.0</ele><time>2026-04-18T09:35:22Z</time></trkpt><trkpt lat="47.8621934494898" lon="11.794149844429018"><ele>668.0</ele><time>2026-04-18T09:35:23Z</time></trkpt><trkpt lat="47.862271545600116" lon="11.794092739935936"><ele>668.0</ele><time>2026-04-18T09:35:24Z</time></trkpt><trkpt lat="47.862355575039324" lon="11.794036553660115"><ele>668.0</ele><time>2026-04-18T09:35:25Z</time></trkpt><trkpt lat="47.86244385176277" lon="11.793979975825174"><ele>668.0</ele><time>2026-04-18T09:35:26Z</time></trkpt><trkpt lat="47.86254583800571" lon="11.793909254154944"><ele>667.75</ele><time>2026-04-18T09:35:27Z</time></trkpt><trkpt lat="47.86266857955279" lon="11.793825921838234"><ele>667.5</ele><time>2026-04-18T09:35:28Z</time></trkpt><trkpt lat="47.86277452063325" lon="11.793759100018482"><ele>667.25</ele><time>2026-04-18T09:35:29Z</time></trkpt><trkpt lat="47.862869944435616" lon="11.793696115295228"><ele>667.0</ele><time>2026-04-18T09:35:30Z</time></trkpt><trkpt lat="47.86295903985636" lon="11.793635146834847"><ele>667.0</ele><time>2026-04-18T09:35:31Z</time></trkpt><trkpt lat="47.8630422518476" lon="11.79357902947608"><ele>667.0</ele><time>2026-04-18T09:35:32Z</time></trkpt><trkpt lat="47.86312287786807" lon="11.79352383035545"><ele>667.0</ele><time>2026-04-18T09:35:33Z</time></trkpt><trkpt lat="47.86320422869757" lon="11.793466747257359"><ele>667.0</ele><time>2026-04-18T09:35:34Z</time></trkpt><trkpt lat="47.86327407656963" lon="11.793417370553136"><ele>667.0</ele><time>2026-04-18T09:35:35Z</time></trkpt><trkpt lat="47.86333607484882" lon="11.793375463231518"><ele>667.0</ele><time>2026-04-18T09:35:36Z</time></trkpt><trkpt lat="47.863395892508585" lon="11.793323800743641"><ele>667.0</ele><time>2026-04-18T09:35:37Z</time></trkpt><trkpt lat="47.86343781540821" lon="11.793239316652443"><ele>667.0</ele><time>2026-04-18T09:35:38Z</time></trkpt><trkpt lat="47.86346990412018" lon="11.793135567099418"><ele>667.0</ele><time>2026-04-18T09:35:39Z</time></trkpt><trkpt lat="47.86350100380857" lon="11.793022616671722"><ele>667.0</ele><time>2026-04-18T09:35:40Z</time></trkpt><trkpt lat="47.863529573637805" lon="11.792918367073446"><ele>667.0</ele><time>2026-04-18T09:35:41Z</time></trkpt><trkpt lat="47.86355579678161" lon="11.792825435806673"><ele>667.0</ele><time>2026-04-18T09:35:42Z</time></trkpt><trkpt lat="47.8636008792535" lon="11.792731776161139"><ele>666.8</ele><time>2026-04-18T09:35:44Z</time></trkpt><trkpt lat="47.863700334609106" lon="11.792624300334031"><ele>666.6</ele><time>2026-04-18T09:35:46Z</time></trkpt><trkpt lat="47.863794943413176" lon="11.792569653479031"><ele>666.4</ele><time>2026-04-18T09:35:47Z</time></trkpt><trkpt lat="47.863878779704756" lon="11.792523519442184"><ele>666.1999999999999</ele><time>2026-04-18T09:35:48Z</time></trkpt><trkpt lat="47.863944842963825" lon="11.792482412725782"><ele>666.0</ele><time>2026-04-18T09:35:49Z</time></trkpt><trkpt lat="47.86405502986298" lon="11.792415352482339"><ele>666.0</ele><time>2026-04-18T09:35:51Z</time></trkpt><trkpt lat="47.8641574940509" lon="11.79234967613059"><ele>666.0</ele><time>2026-04-18T09:35:53Z</time></trkpt><trkpt lat="47.86425028992901" lon="11.792280987139268"><ele>666.0</ele><time>2026-04-18T09:35:55Z</time></trkpt><trkpt lat="47.864343148279374" lon="11.792216455553636"><ele>666.0</ele><time>2026-04-18T09:35:57Z</time></trkpt><trkpt lat="47.86442853354631" lon="11.792165050199616"><ele>666.0</ele><time>2026-04-18T09:35:59Z</time></trkpt><trkpt lat="47.86451831822417" lon="11.792106870137351"><ele>666.1666666666666</ele><time>2026-04-18T09:36:01Z</time></trkpt><trkpt lat="47.864598327447744" lon="11.792058691492377"><ele>666.3333333333334</ele><time>2026-04-18T09:36:03Z</time></trkpt><trkpt lat="47.86465750917519" lon="11.79201991764537"><ele>666.5</ele><time>2026-04-18T09:36:05Z</time></trkpt><trkpt lat="47.864729679491184" lon="11.791970584998596"><ele>666.6666666666667</ele><time>2026-04-18T09:36:08Z</time></trkpt><trkpt lat="47.86479875399326" lon="11.791942487499842"><ele>666.8333333333334</ele><time>2026-04-18T09:36:28.999Z</time></trkpt><trkpt lat="47.86485858459655" lon="11.791893156116013"><ele>667.0</ele><time>2026-04-18T09:38:03Z</time></trkpt><trkpt lat="47.8649404794897" lon="11.791851473833452"><ele>667.0</ele><time>2026-04-18T09:38:05Z</time></trkpt><trkpt lat="47.865013137435334" lon="11.791784450015282"><ele>667.0</ele><time>2026-04-18T09:38:07Z</time></trkpt><trkpt lat="47.86509212783446" lon="11.791979616809698"><ele>667.0</ele><time>2026-04-18T09:38:11Z</time></trkpt><trkpt lat="47.86511250126418" lon="11.792092484135427"><ele>667.0</ele><time>2026-04-18T09:38:12Z</time></trkpt><trkpt lat="47.86510728230841" lon="11.792213799703708"><ele>667.0</ele><time>2026-04-18T09:38:14Z</time></trkpt><trkpt lat="47.86521420479815" lon="11.792268440379605"><ele>669.1666666666667</ele><time>2026-04-18T09:38:16Z</time></trkpt><trkpt lat="47.86530865614876" lon="11.792217521431125"><ele>671.3333333333334</ele><time>2026-04-18T09:38:18Z</time></trkpt><trkpt lat="47.86537207568016" lon="11.792176835320019"><ele>673.5</ele><time>2026-04-18T09:38:19Z</time></trkpt><trkpt lat="47.86545289153511" lon="11.792121079020651"><ele>675.6666666666666</ele><time>2026-04-18T09:38:21Z</time></trkpt><trkpt lat="47.86551232165044" lon="11.792077862369366"><ele>677.8333333333333</ele><time>2026-04-18T09:38:30.999Z</time></trkpt><trkpt lat="47.8655748744973" lon="11.792018756234791"><ele>680.0</ele><time>2026-04-18T09:38:59.999Z</time></trkpt><trkpt lat="47.86556250196732" lon="11.791926260185543"><ele>680.0</ele><time>2026-04-18T09:41:02.999Z</time></trkpt><trkpt lat="47.865412133348556" lon="11.79198273489594"><ele>680.0</ele><time>2026-04-18T09:42:02.059Z</time></trkpt><trkpt lat="47.86535721099631" lon="11.792128061702156"><ele>680.0</ele><time>2026-04-18T09:58:26.101Z</time></trkpt><trkpt lat="47.86527412877483" lon="11.79226826183326"><ele>680.0</ele><time>2026-04-18T09:58:32.107Z</time></trkpt><trkpt lat="47.86533457017874" lon="11.792179346952432"><ele>680.0</ele><time>2026-04-18T09:58:38.463Z</time></trkpt><trkpt lat="47.86542643556939" lon="11.792034386134914"><ele>680.0</ele><time>2026-04-18T09:58:44.64Z</time></trkpt><trkpt lat="47.86529161816295" lon="11.792236301050997"><ele>680.0</ele><time>2026-04-18T09:59:09.741Z</time></trkpt><trkpt lat="47.86537888112689" lon="11.792052990485399"><ele>680.0</ele><time>2026-04-18T09:59:21.634Z</time></trkpt><trkpt lat="47.86532399093262" lon="11.792156047495935"><ele>680.0</ele><time>2026-04-18T10:00:57.454Z</time></trkpt><trkpt lat="47.86516154633418" lon="11.792506620327181"><ele>680.0</ele><time>2026-04-18T10:03:02.46Z</time></trkpt><trkpt lat="47.865065104805964" lon="11.792700656657614"><ele>680.0</ele><time>2026-04-18T10:03:07.74Z</time></trkpt><trkpt lat="47.86537754110259" lon="11.792053623957697"><ele>680.0</ele><time>2026-04-18T10:03:08.459Z</time></trkpt><trkpt lat="47.865498448493895" lon="11.791876478537096"><ele>680.0</ele><time>2026-04-18T10:07:57.014Z</time></trkpt><trkpt lat="47.865512055666606" lon="11.791985161836429"><ele>680.0</ele><time>2026-04-18T10:08:09.006Z</time></trkpt><trkpt lat="47.8654855921868" lon="11.791872270435134"><ele>680.0</ele><time>2026-04-18T10:09:05.999Z</time></trkpt><trkpt lat="47.86544452982222" lon="11.79178511979846"><ele>680.0</ele><time>2026-04-18T10:09:07.999Z</time></trkpt><trkpt lat="47.865616993696555" lon="11.79185401846914"><ele>680.0</ele><time>2026-04-18T10:09:22.998Z</time></trkpt><trkpt lat="47.8655524035558" lon="11.79178923078364"><ele>680.0</ele><time>2026-04-18T10:09:28.047Z</time></trkpt><trkpt lat="47.86548311542992" lon="11.791990335932654"><ele>680.0</ele><time>2026-04-18T10:09:30.047Z</time></trkpt><trkpt lat="47.865573827204884" lon="11.79200899509654"><ele>680.0</ele><time>2026-04-18T10:43:02Z</time></trkpt><trkpt lat="47.865503833242514" lon="11.792020026187336"><ele>680.0</ele><time>2026-04-18T10:43:49Z</time></trkpt><trkpt lat="47.86543409571161" lon="11.792041004311223"><ele>680.0</ele><time>2026-04-18T10:43:56Z</time></trkpt><trkpt lat="47.86535883249327" lon="11.79207622201207"><ele>680.0</ele><time>2026-04-18T10:44:02Z</time></trkpt><trkpt lat="47.865288313553094" lon="11.792120037354485"><ele>680.0</ele><time>2026-04-18T10:44:08Z</time></trkpt><trkpt lat="47.865218431270314" lon="11.792148971689043"><ele>680.0</ele><time>2026-04-18T10:44:13Z</time></trkpt><trkpt lat="47.865163498218884" lon="11.792200977232875"><ele>680.0</ele><time>2026-04-18T10:44:19.999Z</time></trkpt><trkpt lat="47.86512231032427" lon="11.792121033559868"><ele>680.0</ele><time>2026-04-18T10:44:25.999Z</time></trkpt><trkpt lat="47.865127547963" lon="11.792023173540029"><ele>680.0</ele><time>2026-04-18T10:44:31.999Z</time></trkpt><trkpt lat="47.865144836704" lon="11.791932527380997"><ele>680.0</ele><time>2026-04-18T10:44:35.999Z</time></trkpt><trkpt lat="47.86513138837671" lon="11.791834009286347"><ele>680.0</ele><time>2026-04-18T10:44:41.999Z</time></trkpt><trkpt lat="47.86505814912342" lon="11.791795228829443"><ele>680.0</ele><time>2026-04-18T10:44:46.999Z</time></trkpt><trkpt lat="47.86499313090643" lon="11.791791991557321"><ele>680.0</ele><time>2026-04-18T10:44:50.999Z</time></trkpt><trkpt lat="47.864915775755286" lon="11.791801014078803"><ele>680.0</ele><time>2026-04-18T10:44:57Z</time></trkpt><trkpt lat="47.86485011441957" lon="11.791800370893732"><ele>680.0</ele><time>2026-04-18T10:45:02Z</time></trkpt><trkpt lat="47.864775216383755" lon="11.791797121776375"><ele>680.0</ele><time>2026-04-18T10:45:13Z</time></trkpt><trkpt lat="47.864733902299236" lon="11.791882003710105"><ele>677.4</ele><time>2026-04-18T10:50:09.999Z</time></trkpt><trkpt lat="47.864625745891416" lon="11.791959535126155"><ele>674.8</ele><time>2026-04-18T10:50:12.999Z</time></trkpt><trkpt lat="47.864533709501856" lon="11.792014647794861"><ele>672.2</ele><time>2026-04-18T10:50:13.999Z</time></trkpt><trkpt lat="47.86445585356356" lon="11.792062640190379"><ele>669.6</ele><time>2026-04-18T10:50:14.999Z</time></trkpt><trkpt lat="47.864389253944566" lon="11.792106359068883"><ele>667.0</ele><time>2026-04-18T10:50:15.999Z</time></trkpt><trkpt lat="47.86432015136259" lon="11.792154032959033"><ele>666.8333333333334</ele><time>2026-04-18T10:50:16.999Z</time></trkpt><trkpt lat="47.864248483933125" lon="11.792204764611336"><ele>666.6666666666667</ele><time>2026-04-18T10:50:17.999Z</time></trkpt><trkpt lat="47.86417458557913" lon="11.792258691344724"><ele>666.5</ele><time>2026-04-18T10:50:18.999Z</time></trkpt><trkpt lat="47.864098366982645" lon="11.792307188924"><ele>666.3333333333334</ele><time>2026-04-18T10:50:19.999Z</time></trkpt><trkpt lat="47.86399813058404" lon="11.792374968457212"><ele>666.1666666666666</ele><time>2026-04-18T10:50:21.999Z</time></trkpt><trkpt lat="47.86393539654231" lon="11.79241856432301"><ele>666.0</ele><time>2026-04-18T10:50:22.999Z</time></trkpt><trkpt lat="47.86387546501349" lon="11.792459873557766"><ele>666.0</ele><time>2026-04-18T10:50:23.999Z</time></trkpt><trkpt lat="47.863808296681476" lon="11.792502239406051"><ele>666.0</ele><time>2026-04-18T10:50:24.999Z</time></trkpt><trkpt lat="47.863720127619345" lon="11.79256087088385"><ele>666.0</ele><time>2026-04-18T10:50:25.999Z</time></trkpt><trkpt lat="47.863648867467305" lon="11.792612426260819"><ele>666.0</ele><time>2026-04-18T10:50:26.999Z</time></trkpt><trkpt lat="47.8635648121047" lon="11.792706135702531"><ele>666.0</ele><time>2026-04-18T10:50:28.999Z</time></trkpt><trkpt lat="47.86351490401935" lon="11.79278272469523"><ele>666.0</ele><time>2026-04-18T10:50:29.999Z</time></trkpt><trkpt lat="47.86349440323478" lon="11.792941397363247"><ele>666.1666666666666</ele><time>2026-04-18T10:50:30.999Z</time></trkpt><trkpt lat="47.86344053570389" lon="11.793086285850519"><ele>666.3333333333334</ele><time>2026-04-18T10:50:32.999Z</time></trkpt><trkpt lat="47.86340548162902" lon="11.793173178658499"><ele>666.5</ele><time>2026-04-18T10:50:33.999Z</time></trkpt><trkpt lat="47.86335627761333" lon="11.793270633179162"><ele>666.6666666666667</ele><time>2026-04-18T10:50:34.999Z</time></trkpt><trkpt lat="47.86328090065544" lon="11.793348967900755"><ele>666.8333333333334</ele><time>2026-04-18T10:50:35.999Z</time></trkpt><trkpt lat="47.8631984005195" lon="11.79340821391365"><ele>667.0</ele><time>2026-04-18T10:50:36.999Z</time></trkpt><trkpt lat="47.86311738901799" lon="11.793460918327806"><ele>667.0</ele><time>2026-04-18T10:50:37.999Z</time></trkpt><trkpt lat="47.863032398467375" lon="11.79352247928467"><ele>667.0</ele><time>2026-04-18T10:50:38.999Z</time></trkpt><trkpt lat="47.86293597907755" lon="11.79359521556974"><ele>667.0</ele><time>2026-04-18T10:50:39.999Z</time></trkpt><trkpt lat="47.862848205855876" lon="11.793657545200356"><ele>667.0</ele><time>2026-04-18T10:50:40.999Z</time></trkpt><trkpt lat="47.86276695993687" lon="11.793713238444628"><ele>667.0</ele><time>2026-04-18T10:50:41.999Z</time></trkpt><trkpt lat="47.86268942583139" lon="11.793763313221566"><ele>667.1666666666667</ele><time>2026-04-18T10:50:42.999Z</time></trkpt><trkpt lat="47.862613442248445" lon="11.793806743746059"><ele>667.3333333333334</ele><time>2026-04-18T10:50:43.999Z</time></trkpt><trkpt lat="47.86253879267761" lon="11.793854958664188"><ele>667.5</ele><time>2026-04-18T10:50:44.999Z</time></trkpt><trkpt lat="47.86246483812394" lon="11.793905410527813"><ele>667.6666666666666</ele><time>2026-04-18T10:50:45.999Z</time></trkpt><trkpt lat="47.86238982856625" lon="11.793962304728936"><ele>667.8333333333333</ele><time>2026-04-18T10:50:46.999Z</time></trkpt><trkpt lat="47.862305401574275" lon="11.794022788325151"><ele>668.0</ele><time>2026-04-18T10:50:47.999Z</time></trkpt><trkpt lat="47.862223285530256" lon="11.79407700295061"><ele>668.0</ele><time>2026-04-18T10:50:48.999Z</time></trkpt><trkpt lat="47.86216017887406" lon="11.794131099309766"><ele>668.0</ele><time>2026-04-18T10:50:49.999Z</time></trkpt><trkpt lat="47.86209355443506" lon="11.794182658987586"><ele>668.0</ele><time>2026-04-18T10:50:50.999Z</time></trkpt><trkpt lat="47.862025496034974" lon="11.794220641519795"><ele>668.0</ele><time>2026-04-18T10:50:51.999Z</time></trkpt><trkpt lat="47.861924647882375" lon="11.794240649085166"><ele>668.0</ele><time>2026-04-18T10:50:53.999Z</time></trkpt><trkpt lat="47.86184355024853" lon="11.794047966570464"><ele>668.0</ele><time>2026-04-18T10:50:56.998Z</time></trkpt><trkpt lat="47.86183280353658" lon="11.793917566860696"><ele>668.0</ele><time>2026-04-18T10:50:57.998Z</time></trkpt><trkpt lat="47.861819021904594" lon="11.793755358523965"><ele>668.0</ele><time>2026-04-18T10:50:58.998Z</time></trkpt><trkpt lat="47.861805023964834" lon="11.793610821891743"><ele>668.0</ele><time>2026-04-18T10:50:59.998Z</time></trkpt><trkpt lat="47.861794008942155" lon="11.793486122955485"><ele>668.0</ele><time>2026-04-18T10:51:00.998Z</time></trkpt><trkpt lat="47.86178840117993" lon="11.79337247343117"><ele>668.1666666666666</ele><time>2026-04-18T10:51:01.998Z</time></trkpt><trkpt lat="47.861786251767484" lon="11.793263811823048"><ele>668.3333333333333</ele><time>2026-04-18T10:51:02.998Z</time></trkpt><trkpt lat="47.86178703401095" lon="11.793149430390756"><ele>668.5</ele><time>2026-04-18T10:51:03.998Z</time></trkpt><trkpt lat="47.86179417955404" lon="11.793032948832643"><ele>668.6666666666666</ele><time>2026-04-18T10:51:04.998Z</time></trkpt><trkpt lat="47.86180501530147" lon="11.79291129202287"><ele>668.8333333333334</ele><time>2026-04-18T10:51:05.998Z</time></trkpt><trkpt lat="47.86182452845124" lon="11.79278534872414"><ele>669.0</ele><time>2026-04-18T10:51:06.998Z</time></trkpt><trkpt lat="47.861852403120196" lon="11.792664093397782"><ele>669.1666666666666</ele><time>2026-04-18T10:51:07.998Z</time></trkpt><trkpt lat="47.86188944734456" lon="11.792550346336375"><ele>669.3333333333334</ele><time>2026-04-18T10:51:08.998Z</time></trkpt><trkpt lat="47.86193631299523" lon="11.792440597496626"><ele>669.5</ele><time>2026-04-18T10:51:09.998Z</time></trkpt><trkpt lat="47.861994861568334" lon="11.792333974040092"><ele>669.6666666666667</ele><time>2026-04-18T10:51:10.998Z</time></trkpt><trkpt lat="47.8620530954235" lon="11.792231281170533"><ele>669.8333333333334</ele><time>2026-04-18T10:51:11.998Z</time></trkpt><trkpt lat="47.86210778842371" lon="11.792117577673594"><ele>670.0</ele><time>2026-04-18T10:51:12.998Z</time></trkpt><trkpt lat="47.86215868838984" lon="11.791987235864191"><ele>670.0</ele><time>2026-04-18T10:51:13.998Z</time></trkpt><trkpt lat="47.86220866918281" lon="11.791842874674193"><ele>670.0</ele><time>2026-04-18T10:51:14.998Z</time></trkpt><trkpt lat="47.86225748658801" lon="11.791697016857"><ele>670.0</ele><time>2026-04-18T10:51:15.998Z</time></trkpt><trkpt lat="47.8623061534738" lon="11.791547314504532"><ele>670.0</ele><time>2026-04-18T10:51:16.998Z</time></trkpt><trkpt lat="47.86235373432413" lon="11.791396977637046"><ele>670.0</ele><time>2026-04-18T10:51:17.998Z</time></trkpt><trkpt lat="47.862394252427286" lon="11.791241731863238"><ele>669.0</ele><time>2026-04-18T10:51:18.998Z</time></trkpt><trkpt lat="47.86243025478275" lon="11.79108287149164"><ele>668.0</ele><time>2026-04-18T10:51:19.998Z</time></trkpt><trkpt lat="47.86247668394821" lon="11.79093448168959"><ele>667.0</ele><time>2026-04-18T10:51:20.998Z</time></trkpt><trkpt lat="47.86251532901031" lon="11.790807812103624"><ele>666.0</ele><time>2026-04-18T10:51:21.998Z</time></trkpt><trkpt lat="47.86256199713394" lon="11.79067650529622"><ele>665.0</ele><time>2026-04-18T10:51:22.998Z</time></trkpt><trkpt lat="47.862617669115274" lon="11.790546881079248"><ele>664.5</ele><time>2026-04-18T10:51:23.998Z</time></trkpt><trkpt lat="47.86267816307168" lon="11.790412376490291"><ele>664.0</ele><time>2026-04-18T10:51:24.998Z</time></trkpt><trkpt lat="47.862742689292155" lon="11.790265616533562"><ele>663.5</ele><time>2026-04-18T10:51:25.998Z</time></trkpt><trkpt lat="47.862805662248256" lon="11.790117321741873"><ele>663.0</ele><time>2026-04-18T10:51:26.998Z</time></trkpt><trkpt lat="47.86286368721968" lon="11.789961651102974"><ele>661.0</ele><time>2026-04-18T10:51:27.998Z</time></trkpt><trkpt lat="47.86291824974745" lon="11.789801228935938"><ele>659.0</ele><time>2026-04-18T10:51:28.998Z</time></trkpt><trkpt lat="47.862969000490374" lon="11.78963752018176"><ele>657.0</ele><time>2026-04-18T10:51:29.998Z</time></trkpt><trkpt lat="47.86302555143894" lon="11.789477184999061"><ele>655.0</ele><time>2026-04-18T10:51:30.998Z</time></trkpt><trkpt lat="47.86309098559697" lon="11.789315738803678"><ele>655.25</ele><time>2026-04-18T10:51:31.998Z</time></trkpt><trkpt lat="47.86316757026189" lon="11.789163939824126"><ele>655.5</ele><time>2026-04-18T10:51:32.998Z</time></trkpt><trkpt lat="47.863254388740316" lon="11.789022445292133"><ele>655.75</ele><time>2026-04-18T10:51:33.998Z</time></trkpt><trkpt lat="47.86335277863166" lon="11.788895240205845"><ele>656.0</ele><time>2026-04-18T10:51:34.998Z</time></trkpt><trkpt lat="47.8634604861595" lon="11.788781295935717"><ele>656.0</ele><time>2026-04-18T10:51:35.998Z</time></trkpt><trkpt lat="47.86357871491519" lon="11.788684135940043"><ele>656.0</ele><time>2026-04-18T10:51:36.999Z</time></trkpt><trkpt lat="47.86369703577506" lon="11.788596347744091"><ele>656.0</ele><time>2026-04-18T10:51:37.999Z</time></trkpt><trkpt lat="47.863791161032914" lon="11.788521314753554"><ele>656.0</ele><time>2026-04-18T10:51:38.999Z</time></trkpt><trkpt lat="47.86387712841125" lon="11.788445557258646"><ele>651.0</ele><time>2026-04-18T10:51:39.999Z</time></trkpt><trkpt lat="47.86396412213775" lon="11.788369911817751"><ele>646.0</ele><time>2026-04-18T10:51:40.999Z</time></trkpt><trkpt lat="47.86405780324623" lon="11.78829479845332"><ele>641.0</ele><time>2026-04-18T10:51:41.999Z</time></trkpt><trkpt lat="47.86415807254583" lon="11.78821898965235"><ele>636.0</ele><time>2026-04-18T10:51:42.999Z</time></trkpt><trkpt lat="47.86424540727315" lon="11.788156677253275"><ele>631.0</ele><time>2026-04-18T10:51:43.999Z</time></trkpt><trkpt lat="47.86432900110205" lon="11.788080249292928"><ele>631.0</ele><time>2026-04-18T10:51:44.999Z</time></trkpt><trkpt lat="47.86442128583631" lon="11.788018055098926"><ele>631.0</ele><time>2026-04-18T10:51:45.999Z</time></trkpt><trkpt lat="47.864495990953756" lon="11.787956993765876"><ele>631.0</ele><time>2026-04-18T10:51:46.999Z</time></trkpt><trkpt lat="47.86455642008458" lon="11.787899221026215"><ele>631.0</ele><time>2026-04-18T10:51:47.999Z</time></trkpt><trkpt lat="47.864643989473535" lon="11.78782575897127"><ele>631.0</ele><time>2026-04-18T10:51:49.999Z</time></trkpt><trkpt lat="47.86470070053033" lon="11.787753949835189"><ele>631.0</ele><time>2026-04-18T10:51:51.999Z</time></trkpt><trkpt lat="47.86473774750851" lon="11.787672872025478"><ele>627.7142857142858</ele><time>2026-04-18T10:51:53.999Z</time></trkpt><trkpt lat="47.8647788558971" lon="11.787601761644991"><ele>624.4285714285713</ele><time>2026-04-18T10:51:56.999Z</time></trkpt><trkpt lat="47.86483773183132" lon="11.787485010045167"><ele>621.1428571428571</ele><time>2026-04-18T10:53:08.999Z</time></trkpt><trkpt lat="47.864882030086534" lon="11.787389152993683"><ele>617.8571428571429</ele><time>2026-04-18T10:53:10.999Z</time></trkpt><trkpt lat="47.86493120457497" lon="11.787301024847523"><ele>614.5714285714287</ele><time>2026-04-18T10:53:42.999Z</time></trkpt><trkpt lat="47.864964388716025" lon="11.787219968419285"><ele>611.2857142857142</ele><time>2026-04-18T10:53:44.999Z</time></trkpt><trkpt lat="47.86499674691658" lon="11.787131299268294"><ele>608.0</ele><time>2026-04-18T10:53:48.999Z</time></trkpt><trkpt lat="47.86503116802521" lon="11.787048370763115"><ele>608.0</ele><time>2026-04-18T10:53:52.999Z</time></trkpt><trkpt lat="47.865069405340805" lon="11.786966682533132"><ele>608.0</ele><time>2026-04-18T10:53:57.999Z</time></trkpt><trkpt lat="47.865122647039755" lon="11.786847082217962"><ele>608.0</ele><time>2026-04-18T10:54:00.999Z</time></trkpt><trkpt lat="47.8651667743457" lon="11.78675350897738"><ele>608.0</ele><time>2026-04-18T10:54:02.999Z</time></trkpt><trkpt lat="47.86521995392917" lon="11.786649802765039"><ele>608.0</ele><time>2026-04-18T10:54:05.999Z</time></trkpt><trkpt lat="47.865274628599614" lon="11.7865610884353"><ele>608.0</ele><time>2026-04-18T10:54:07.999Z</time></trkpt><trkpt lat="47.86532010755088" lon="11.78649185564459"><ele>609.0</ele><time>2026-04-18T10:54:08.999Z</time></trkpt><trkpt lat="47.86540000353466" lon="11.786385705353867"><ele>610.0</ele><time>2026-04-18T10:54:09.999Z</time></trkpt><trkpt lat="47.86547192735315" lon="11.786291136394853"><ele>611.0</ele><time>2026-04-18T10:54:10.999Z</time></trkpt><trkpt lat="47.865552268287104" lon="11.786205837901617"><ele>612.0</ele><time>2026-04-18T10:54:12.999Z</time></trkpt><trkpt lat="47.865625603354886" lon="11.786140124458777"><ele>613.0</ele><time>2026-04-18T10:54:14.999Z</time></trkpt><trkpt lat="47.86574168902783" lon="11.786045618025307"><ele>613.0</ele><time>2026-04-18T10:54:16.999Z</time></trkpt><trkpt lat="47.86584764567616" lon="11.785961363635888"><ele>613.0</ele><time>2026-04-18T10:54:18.999Z</time></trkpt><trkpt lat="47.86592431524538" lon="11.785907401236928"><ele>613.0</ele><time>2026-04-18T10:54:19.999Z</time></trkpt><trkpt lat="47.866023572816424" lon="11.785854636576767"><ele>613.0</ele><time>2026-04-18T10:54:21.999Z</time></trkpt><trkpt lat="47.86611218082791" lon="11.785825412596273"><ele>613.0</ele><time>2026-04-18T10:54:22.999Z</time></trkpt><trkpt lat="47.866240096776984" lon="11.78576911542926"><ele>612.8</ele><time>2026-04-18T10:54:23.999Z</time></trkpt><trkpt lat="47.86637608176753" lon="11.785693542285134"><ele>612.5999999999999</ele><time>2026-04-18T10:54:24.999Z</time></trkpt><trkpt lat="47.86647567294799" lon="11.785653749410214"><ele>612.4000000000001</ele><time>2026-04-18T10:54:25.999Z</time></trkpt><trkpt lat="47.86656057024422" lon="11.785630574782358"><ele>612.2</ele><time>2026-04-18T10:54:26.999Z</time></trkpt><trkpt lat="47.86665221143594" lon="11.785606423592892"><ele>612.0</ele><time>2026-04-18T10:54:27.999Z</time></trkpt><trkpt lat="47.86676888446608" lon="11.785578791922605"><ele>612.8000000000001</ele><time>2026-04-18T10:54:28.999Z</time></trkpt><trkpt lat="47.8668748840384" lon="11.785566453700143"><ele>613.6</ele><time>2026-04-18T10:54:29.999Z</time></trkpt><trkpt lat="47.86695986600579" lon="11.785571338959157"><ele>614.4000000000001</ele><time>2026-04-18T10:54:30.999Z</time></trkpt><trkpt lat="47.867049156911165" lon="11.785587006603953"><ele>615.2</ele><time>2026-04-18T10:54:31.999Z</time></trkpt><trkpt lat="47.86715771671231" lon="11.785609281833114"><ele>616.0</ele><time>2026-04-18T10:54:32.999Z</time></trkpt><trkpt lat="47.86727111927803" lon="11.785639688249303"><ele>616.0</ele><time>2026-04-18T10:54:33.999Z</time></trkpt><trkpt lat="47.867367286618226" lon="11.785668621169489"><ele>616.0</ele><time>2026-04-18T10:54:34.999Z</time></trkpt><trkpt lat="47.86745331147084" lon="11.785692700151394"><ele>616.0</ele><time>2026-04-18T10:54:35.999Z</time></trkpt><trkpt lat="47.86753233688015" lon="11.78571136768535"><ele>616.0</ele><time>2026-04-18T10:54:36.999Z</time></trkpt><trkpt lat="47.867603616243876" lon="11.785727810851432"><ele>616.0</ele><time>2026-04-18T10:54:37.999Z</time></trkpt><trkpt lat="47.86767077450815" lon="11.785750397953933"><ele>616.0</ele><time>2026-04-18T10:54:38.999Z</time></trkpt><trkpt lat="47.86773418882322" lon="11.785766345222836"><ele>617.4</ele><time>2026-04-18T10:54:39.999Z</time></trkpt><trkpt lat="47.86780601987205" lon="11.785788983927617"><ele>618.8</ele><time>2026-04-18T10:54:40.999Z</time></trkpt><trkpt lat="47.86789215610897" lon="11.78581374954481"><ele>620.1999999999999</ele><time>2026-04-18T10:54:41.999Z</time></trkpt><trkpt lat="47.86798358963802" lon="11.785828499911755"><ele>621.6</ele><time>2026-04-18T10:54:42.999Z</time></trkpt><trkpt lat="47.868080458073294" lon="11.785835861468557"><ele>623.0</ele><time>2026-04-18T10:54:43.999Z</time></trkpt><trkpt lat="47.868190824161495" lon="11.785853549610856"><ele>623.0</ele><time>2026-04-18T10:54:44.999Z</time></trkpt><trkpt lat="47.86831316207167" lon="11.785821478544605"><ele>623.0</ele><time>2026-04-18T10:54:45.999Z</time></trkpt><trkpt lat="47.86845489410441" lon="11.78582558546395"><ele>623.0</ele><time>2026-04-18T10:54:46.999Z</time></trkpt><trkpt lat="47.86861370605038" lon="11.785826315214242"><ele>623.0</ele><time>2026-04-18T10:54:47.999Z</time></trkpt><trkpt lat="47.86875911647089" lon="11.785846052899984"><ele>624.8</ele><time>2026-04-18T10:54:48.999Z</time></trkpt><trkpt lat="47.8688827979362" lon="11.785876685738456"><ele>626.5999999999999</ele><time>2026-04-18T10:54:49.999Z</time></trkpt><trkpt lat="47.86897725094567" lon="11.785911697972091"><ele>628.4000000000001</ele><time>2026-04-18T10:54:50.999Z</time></trkpt><trkpt lat="47.86906464797307" lon="11.785964349314748"><ele>630.2</ele><time>2026-04-18T10:54:51.999Z</time></trkpt><trkpt lat="47.86914130592955" lon="11.785994373722042"><ele>632.0</ele><time>2026-04-18T10:54:52.999Z</time></trkpt><trkpt lat="47.86921177118562" lon="11.786004310818992"><ele>630.0</ele><time>2026-04-18T10:54:53.999Z</time></trkpt><trkpt lat="47.86927961527215" lon="11.786034353224675"><ele>628.0</ele><time>2026-04-18T10:54:54.999Z</time></trkpt><trkpt lat="47.869347022914376" lon="11.786061902352602"><ele>626.0</ele><time>2026-04-18T10:54:55.999Z</time></trkpt><trkpt lat="47.869421925336894" lon="11.786085032097168"><ele>624.0</ele><time>2026-04-18T10:54:56.999Z</time></trkpt><trkpt lat="47.86950944458151" lon="11.786097601266283"><ele>622.0</ele><time>2026-04-18T10:54:57.999Z</time></trkpt><trkpt lat="47.86962278557007" lon="11.786099993075764"><ele>620.0</ele><time>2026-04-18T10:54:58.999Z</time></trkpt><trkpt lat="47.869748412732875" lon="11.786086050949377"><ele>620.0</ele><time>2026-04-18T10:54:59.999Z</time></trkpt><trkpt lat="47.86985890145197" lon="11.78607092698609"><ele>620.0</ele><time>2026-04-18T10:55:00.999Z</time></trkpt><trkpt lat="47.86995861892441" lon="11.786059332304454"><ele>620.0</ele><time>2026-04-18T10:55:01.999Z</time></trkpt><trkpt lat="47.87006489579285" lon="11.786041911928907"><ele>620.0</ele><time>2026-04-18T10:55:02.999Z</time></trkpt><trkpt lat="47.870173066917474" lon="11.786018270733464"><ele>620.0</ele><time>2026-04-18T10:55:03.999Z</time></trkpt><trkpt lat="47.87028597456552" lon="11.785985963766452"><ele>623.8</ele><time>2026-04-18T10:55:04.999Z</time></trkpt><trkpt lat="47.87040239966017" lon="11.78596755253749"><ele>627.6</ele><time>2026-04-18T10:55:05.999Z</time></trkpt><trkpt lat="47.8704913128536" lon="11.7859133257342"><ele>631.4</ele><time>2026-04-18T10:55:06.999Z</time></trkpt><trkpt lat="47.870574802238785" lon="11.785893290588449"><ele>635.2</ele><time>2026-04-18T10:55:07.999Z</time></trkpt><trkpt lat="47.87065795664862" lon="11.785858154347826"><ele>639.0</ele><time>2026-04-18T10:55:08.999Z</time></trkpt><trkpt lat="47.87074364515045" lon="11.785819788305847"><ele>639.0</ele><time>2026-04-18T10:55:09.999Z</time></trkpt><trkpt lat="47.87083790096274" lon="11.785791724745327"><ele>639.0</ele><time>2026-04-18T10:55:10.999Z</time></trkpt><trkpt lat="47.87093703190973" lon="11.785768106866046"><ele>639.0</ele><time>2026-04-18T10:55:11.999Z</time></trkpt><trkpt lat="47.8710457201666" lon="11.785770560626492"><ele>639.0</ele><time>2026-04-18T10:55:12.999Z</time></trkpt><trkpt lat="47.871155362590244" lon="11.785801924023534"><ele>639.0</ele><time>2026-04-18T10:55:13.999Z</time></trkpt><trkpt lat="47.87127063595833" lon="11.785805944110884"><ele>640.0</ele><time>2026-04-18T10:55:14.999Z</time></trkpt><trkpt lat="47.87138297954579" lon="11.785810065123616"><ele>641.0</ele><time>2026-04-18T10:55:15.999Z</time></trkpt><trkpt lat="47.87149074485655" lon="11.785771054439039"><ele>642.0</ele><time>2026-04-18T10:55:16.999Z</time></trkpt><trkpt lat="47.871602445753226" lon="11.78570502724827"><ele>643.0</ele><time>2026-04-18T10:55:17.999Z</time></trkpt><trkpt lat="47.87172620950949" lon="11.785629763814955"><ele>642.75</ele><time>2026-04-18T10:55:18.999Z</time></trkpt><trkpt lat="47.87184881258728" lon="11.785536092670863"><ele>642.5</ele><time>2026-04-18T10:55:19.999Z</time></trkpt><trkpt lat="47.87197391242455" lon="11.785506382489288"><ele>642.25</ele><time>2026-04-18T10:55:20.999Z</time></trkpt><trkpt lat="47.87209617915496" lon="11.785461392561485"><ele>642.0</ele><time>2026-04-18T10:55:21.999Z</time></trkpt><trkpt lat="47.87222550960138" lon="11.785449550991734"><ele>642.0</ele><time>2026-04-18T10:55:23Z</time></trkpt><trkpt lat="47.87232034450909" lon="11.785412820442152"><ele>642.0</ele><time>2026-04-18T10:55:23.998Z</time></trkpt><trkpt lat="47.87239761359277" lon="11.785373387989601"><ele>642.0</ele><time>2026-04-18T10:55:24.998Z</time></trkpt><trkpt lat="47.87246865832164" lon="11.785326328949452"><ele>642.0</ele><time>2026-04-18T10:55:25.998Z</time></trkpt><trkpt lat="47.87253300816107" lon="11.785264986003188"><ele>642.0</ele><time>2026-04-18T10:55:26.998Z</time></trkpt><trkpt lat="47.872588260417444" lon="11.78518954268038"><ele>642.0</ele><time>2026-04-18T10:55:27.998Z</time></trkpt><trkpt lat="47.87262520594879" lon="11.785093594343305"><ele>644.6</ele><time>2026-04-18T10:55:28.998Z</time></trkpt><trkpt lat="47.87269535478836" lon="11.785042286633601"><ele>647.2</ele><time>2026-04-18T10:55:29.998Z</time></trkpt><trkpt lat="47.8727802894024" lon="11.785006688883612"><ele>649.8</ele><time>2026-04-18T10:55:30.998Z</time></trkpt><trkpt lat="47.87288071905918" lon="11.784971572485905"><ele>652.4</ele><time>2026-04-18T10:55:31.998Z</time></trkpt><trkpt lat="47.872998715857165" lon="11.784940842380994"><ele>655.0</ele><time>2026-04-18T10:55:32.998Z</time></trkpt><trkpt lat="47.873134580934924" lon="11.784872205850306"><ele>655.0</ele><time>2026-04-18T10:55:33.998Z</time></trkpt><trkpt lat="47.87323847357594" lon="11.784818035031908"><ele>655.0</ele><time>2026-04-18T10:55:34.998Z</time></trkpt><trkpt lat="47.873326277327955" lon="11.784770791400273"><ele>655.0</ele><time>2026-04-18T10:55:35.998Z</time></trkpt><trkpt lat="47.87342119264021" lon="11.784718403316159"><ele>655.0</ele><time>2026-04-18T10:55:36.998Z</time></trkpt><trkpt lat="47.873547666451636" lon="11.784648442221114"><ele>655.0</ele><time>2026-04-18T10:55:37.998Z</time></trkpt><trkpt lat="47.87368491217638" lon="11.784575146788182"><ele>655.6666666666667</ele><time>2026-04-18T10:55:38.999Z</time></trkpt><trkpt lat="47.873847969372974" lon="11.784488803314547"><ele>656.3333333333334</ele><time>2026-04-18T10:55:39.999Z</time></trkpt><trkpt lat="47.87400864014614" lon="11.78440153766127"><ele>657.0</ele><time>2026-04-18T10:55:40.999Z</time></trkpt><trkpt lat="47.87420372258561" lon="11.78429503872608"><ele>657.3333333333334</ele><time>2026-04-18T10:55:41.999Z</time></trkpt><trkpt lat="47.87435133021906" lon="11.784215600390828"><ele>657.6666666666667</ele><time>2026-04-18T10:55:42.999Z</time></trkpt><trkpt lat="47.874496048515596" lon="11.78413859010367"><ele>658.0</ele><time>2026-04-18T10:55:43.999Z</time></trkpt><trkpt lat="47.874652286392816" lon="11.784055449625487"><ele>658.0</ele><time>2026-04-18T10:55:44.999Z</time></trkpt><trkpt lat="47.874815981866234" lon="11.78394371935959"><ele>658.0</ele><time>2026-04-18T10:55:45.999Z</time></trkpt><trkpt lat="47.87498004547541" lon="11.783877344436885"><ele>658.0</ele><time>2026-04-18T10:55:46.999Z</time></trkpt><trkpt lat="47.875128362928805" lon="11.783787083619664"><ele>658.3333333333334</ele><time>2026-04-18T10:55:47.999Z</time></trkpt><trkpt lat="47.87527148195046" lon="11.783685423306583"><ele>658.6666666666666</ele><time>2026-04-18T10:55:48.999Z</time></trkpt><trkpt lat="47.875420529203446" lon="11.783561443652836"><ele>659.0</ele><time>2026-04-18T10:55:49.999Z</time></trkpt><trkpt lat="47.875539398996175" lon="11.783456655027193"><ele>659.0</ele><time>2026-04-18T10:55:50.999Z</time></trkpt><trkpt lat="47.87564239281994" lon="11.783365861696176"><ele>659.0</ele><time>2026-04-18T10:55:51.999Z</time></trkpt><trkpt lat="47.87575419467086" lon="11.783266200820618"><ele>659.0</ele><time>2026-04-18T10:55:52.999Z</time></trkpt><trkpt lat="47.87587679119237" lon="11.78315672682879"><ele>659.0</ele><time>2026-04-18T10:55:53.999Z</time></trkpt><trkpt lat="47.876008169923374" lon="11.783017704682699"><ele>659.3333333333333</ele><time>2026-04-18T10:55:54.999Z</time></trkpt><trkpt lat="47.876160696539536" lon="11.782895997745145"><ele>659.6666666666666</ele><time>2026-04-18T10:55:55.999Z</time></trkpt><trkpt lat="47.876326190388255" lon="11.782756994376486"><ele>660.0</ele><time>2026-04-18T10:55:56.999Z</time></trkpt><trkpt lat="47.87650684596097" lon="11.782613180226996"><ele>660.0</ele><time>2026-04-18T10:55:57.999Z</time></trkpt><trkpt lat="47.87667912093334" lon="11.782482402603616"><ele>660.0</ele><time>2026-04-18T10:55:58.999Z</time></trkpt><trkpt lat="47.87683102246528" lon="11.782359570361946"><ele>660.0</ele><time>2026-04-18T10:55:59.999Z</time></trkpt><trkpt lat="47.876971339698194" lon="11.782237819331153"><ele>656.6666666666666</ele><time>2026-04-18T10:56:00.999Z</time></trkpt><trkpt lat="47.877135333994715" lon="11.78214051064703"><ele>653.3333333333333</ele><time>2026-04-18T10:56:01.999Z</time></trkpt><trkpt lat="47.87728164446264" lon="11.781993821009078"><ele>650.0</ele><time>2026-04-18T10:56:02.999Z</time></trkpt><trkpt lat="47.87743749458094" lon="11.78188910000212"><ele>650.3333333333333</ele><time>2026-04-18T10:56:03.999Z</time></trkpt><trkpt lat="47.87758106584156" lon="11.781765079906837"><ele>650.6666666666666</ele><time>2026-04-18T10:56:04.999Z</time></trkpt><trkpt lat="47.87771800084445" lon="11.78164165314871"><ele>651.0</ele><time>2026-04-18T10:56:05.999Z</time></trkpt><trkpt lat="47.877841019864576" lon="11.781509620790276"><ele>651.0</ele><time>2026-04-18T10:56:06.999Z</time></trkpt><trkpt lat="47.87796332316306" lon="11.781385631837882"><ele>651.0</ele><time>2026-04-18T10:56:07.999Z</time></trkpt><trkpt lat="47.878088345000656" lon="11.781254212080928"><ele>651.0</ele><time>2026-04-18T10:56:08.999Z</time></trkpt><trkpt lat="47.87821820541009" lon="11.781115246356425"><ele>653.0</ele><time>2026-04-18T10:56:09.999Z</time></trkpt><trkpt lat="47.87833956804328" lon="11.780952516472954"><ele>655.0</ele><time>2026-04-18T10:56:10.999Z</time></trkpt><trkpt lat="47.87846245758597" lon="11.780804654900951"><ele>657.0</ele><time>2026-04-18T10:56:11.999Z</time></trkpt><trkpt lat="47.87858860479868" lon="11.780672737317206"><ele>657.3333333333334</ele><time>2026-04-18T10:56:12.999Z</time></trkpt><trkpt lat="47.8787065025448" lon="11.780529401249428"><ele>657.6666666666667</ele><time>2026-04-18T10:56:13.999Z</time></trkpt><trkpt lat="47.878847057715554" lon="11.78041969823073"><ele>658.0</ele><time>2026-04-18T10:56:14.999Z</time></trkpt><trkpt lat="47.87899469847939" lon="11.780296430437035"><ele>658.0</ele><time>2026-04-18T10:56:15.999Z</time></trkpt><trkpt lat="47.879134011169775" lon="11.780183368100557"><ele>658.0</ele><time>2026-04-18T10:56:16.999Z</time></trkpt><trkpt lat="47.879280527481704" lon="11.780074590583446"><ele>658.0</ele><time>2026-04-18T10:56:17.999Z</time></trkpt><trkpt lat="47.87945592618718" lon="11.779945162923914"><ele>657.0</ele><time>2026-04-18T10:56:18.999Z</time></trkpt><trkpt lat="47.87960901665471" lon="11.779829774654475"><ele>656.0</ele><time>2026-04-18T10:56:19.999Z</time></trkpt><trkpt lat="47.87976216532832" lon="11.779708546388607"><ele>655.0</ele><time>2026-04-18T10:56:20.999Z</time></trkpt><trkpt lat="47.879918155140054" lon="11.779593491616405"><ele>655.0</ele><time>2026-04-18T10:56:21.999Z</time></trkpt><trkpt lat="47.88006124490541" lon="11.779482591295036"><ele>655.0</ele><time>2026-04-18T10:56:22.999Z</time></trkpt><trkpt lat="47.88021717372324" lon="11.779354836098259"><ele>655.0</ele><time>2026-04-18T10:56:23.999Z</time></trkpt><trkpt lat="47.88039303741652" lon="11.779248541872434"><ele>654.6666666666667</ele><time>2026-04-18T10:56:24.999Z</time></trkpt><trkpt lat="47.880567716680666" lon="11.779150533631901"><ele>654.3333333333334</ele><time>2026-04-18T10:56:25.999Z</time></trkpt><trkpt lat="47.88072043056062" lon="11.779044239754851"><ele>654.0</ele><time>2026-04-18T10:56:26.999Z</time></trkpt><trkpt lat="47.88086297687728" lon="11.778931078855285"><ele>653.6666666666666</ele><time>2026-04-18T10:56:27.999Z</time></trkpt><trkpt lat="47.88099636723684" lon="11.778809915579552"><ele>653.3333333333333</ele><time>2026-04-18T10:56:28.999Z</time></trkpt><trkpt lat="47.88113074937209" lon="11.778683729078102"><ele>653.0</ele><time>2026-04-18T10:56:29.999Z</time></trkpt><trkpt lat="47.88126801981225" lon="11.778556491596625"><ele>653.6666666666666</ele><time>2026-04-18T10:56:30.999Z</time></trkpt><trkpt lat="47.88140555383948" lon="11.778421754266029"><ele>654.3333333333334</ele><time>2026-04-18T10:56:31.999Z</time></trkpt><trkpt lat="47.8815454415267" lon="11.778279383469993"><ele>655.0</ele><time>2026-04-18T10:56:32.999Z</time></trkpt><trkpt lat="47.88168928660404" lon="11.778137824616527"><ele>654.6666666666667</ele><time>2026-04-18T10:56:33.999Z</time></trkpt><trkpt lat="47.881838930233236" lon="11.778007110084426"><ele>654.3333333333334</ele><time>2026-04-18T10:56:34.999Z</time></trkpt><trkpt lat="47.8819842538701" lon="11.777870861261759"><ele>654.0</ele><time>2026-04-18T10:56:35.999Z</time></trkpt><trkpt lat="47.8821340062581" lon="11.777742002998293"><ele>654.3333333333334</ele><time>2026-04-18T10:56:36.999Z</time></trkpt><trkpt lat="47.88228750343557" lon="11.777615618582468"><ele>654.6666666666667</ele><time>2026-04-18T10:56:37.999Z</time></trkpt><trkpt lat="47.882438489552285" lon="11.77749209126478"><ele>655.0</ele><time>2026-04-18T10:56:39Z</time></trkpt><trkpt lat="47.882578810672854" lon="11.777370836546416"><ele>655.0</ele><time>2026-04-18T10:56:40Z</time></trkpt><trkpt lat="47.88271379448651" lon="11.77725853208647"><ele>655.0</ele><time>2026-04-18T10:56:41Z</time></trkpt><trkpt lat="47.882845476530754" lon="11.777153315467178"><ele>655.0</ele><time>2026-04-18T10:56:42Z</time></trkpt><trkpt lat="47.88298227069239" lon="11.777048334324203"><ele>655.0</ele><time>2026-04-18T10:56:43Z</time></trkpt><trkpt lat="47.88312098742873" lon="11.776938175276012"><ele>655.0</ele><time>2026-04-18T10:56:44Z</time></trkpt><trkpt lat="47.883258705032915" lon="11.776823310144387"><ele>655.0</ele><time>2026-04-18T10:56:45Z</time></trkpt><trkpt lat="47.883393717276356" lon="11.776704834961135"><ele>654.6666666666667</ele><time>2026-04-18T10:56:46Z</time></trkpt><trkpt lat="47.88353077916658" lon="11.77659303787095"><ele>654.3333333333334</ele><time>2026-04-18T10:56:47Z</time></trkpt><trkpt lat="47.88367309175859" lon="11.776478064016246"><ele>654.0</ele><time>2026-04-18T10:56:48Z</time></trkpt><trkpt lat="47.8838167733004" lon="11.776345853138642"><ele>654.0</ele><time>2026-04-18T10:56:49Z</time></trkpt><trkpt lat="47.88396986980544" lon="11.776203240937548"><ele>654.0</ele><time>2026-04-18T10:56:50Z</time></trkpt><trkpt lat="47.88412820114353" lon="11.776054687412483"><ele>654.0</ele><time>2026-04-18T10:56:51Z</time></trkpt><trkpt lat="47.88428461827053" lon="11.775896859509157"><ele>654.0</ele><time>2026-04-18T10:56:52Z</time></trkpt><trkpt lat="47.88443229532301" lon="11.775717769395058"><ele>654.0</ele><time>2026-04-18T10:56:53Z</time></trkpt><trkpt lat="47.884571486377034" lon="11.775531715915001"><ele>654.0</ele><time>2026-04-18T10:56:54Z</time></trkpt><trkpt lat="47.88470549460449" lon="11.775350686592327"><ele>653.6666666666666</ele><time>2026-04-18T10:56:55Z</time></trkpt><trkpt lat="47.88483728890919" lon="11.775174835630681"><ele>653.3333333333333</ele><time>2026-04-18T10:56:56Z</time></trkpt><trkpt lat="47.88496599828629" lon="11.775003757039643"><ele>653.0</ele><time>2026-04-18T10:56:57Z</time></trkpt><trkpt lat="47.8850971145219" lon="11.774825464098404"><ele>653.0</ele><time>2026-04-18T10:56:58Z</time></trkpt><trkpt lat="47.88522891310675" lon="11.774649127962064"><ele>653.0</ele><time>2026-04-18T10:56:59Z</time></trkpt><trkpt lat="47.88535886262856" lon="11.774477800499922"><ele>653.0</ele><time>2026-04-18T10:57:00Z</time></trkpt><trkpt lat="47.88548469117282" lon="11.774312816812776"><ele>653.0</ele><time>2026-04-18T10:57:01Z</time></trkpt><trkpt lat="47.8856084495471" lon="11.774149024649779"><ele>653.0</ele><time>2026-04-18T10:57:02Z</time></trkpt><trkpt lat="47.88572915474145" lon="11.773990982477534"><ele>653.0</ele><time>2026-04-18T10:57:03Z</time></trkpt><trkpt lat="47.88584966925244" lon="11.773833879828551"><ele>652.6666666666666</ele><time>2026-04-18T10:57:04Z</time></trkpt><trkpt lat="47.88597367578661" lon="11.773671449072213"><ele>652.3333333333334</ele><time>2026-04-18T10:57:05Z</time></trkpt><trkpt lat="47.88609567333955" lon="11.773507570222602"><ele>652.0</ele><time>2026-04-18T10:57:06Z</time></trkpt><trkpt lat="47.88621613687244" lon="11.773337859448835"><ele>652.0</ele><time>2026-04-18T10:57:07Z</time></trkpt><trkpt lat="47.88634657871317" lon="11.773189054032466"><ele>652.0</ele><time>2026-04-18T10:57:08Z</time></trkpt><trkpt lat="47.88646897319912" lon="11.77301395805276"><ele>652.0</ele><time>2026-04-18T10:57:09Z</time></trkpt><trkpt lat="47.88658783736581" lon="11.77283697168178"><ele>652.0</ele><time>2026-04-18T10:57:10Z</time></trkpt><trkpt lat="47.886714025580936" lon="11.772667171748903"><ele>652.0</ele><time>2026-04-18T10:57:11Z</time></trkpt><trkpt lat="47.88682272069544" lon="11.77246768656066"><ele>652.0</ele><time>2026-04-18T10:57:12Z</time></trkpt><trkpt lat="47.88693523329629" lon="11.772272093597222"><ele>652.0</ele><time>2026-04-18T10:57:13Z</time></trkpt><trkpt lat="47.887042676680025" lon="11.772076084633598"><ele>652.0</ele><time>2026-04-18T10:57:14Z</time></trkpt><trkpt lat="47.887146020922216" lon="11.771884047830788"><ele>652.0</ele><time>2026-04-18T10:57:15Z</time></trkpt><trkpt lat="47.887249695111244" lon="11.771700457010727"><ele>651.75</ele><time>2026-04-18T10:57:16Z</time></trkpt><trkpt lat="47.88735144997641" lon="11.771520033337715"><ele>651.5</ele><time>2026-04-18T10:57:17Z</time></trkpt><trkpt lat="47.887446009121966" lon="11.771354435151071"><ele>651.25</ele><time>2026-04-18T10:57:18Z</time></trkpt><trkpt lat="47.88753581433053" lon="11.771193359723952"><ele>651.0</ele><time>2026-04-18T10:57:19Z</time></trkpt><trkpt lat="47.887621192105016" lon="11.771036285067362"><ele>651.0</ele><time>2026-04-18T10:57:20Z</time></trkpt><trkpt lat="47.88770430949728" lon="11.770879784612022"><ele>651.0</ele><time>2026-04-18T10:57:21Z</time></trkpt><trkpt lat="47.88778349426315" lon="11.770717008253976"><ele>651.0</ele><time>2026-04-18T10:57:22Z</time></trkpt><trkpt lat="47.88785716127216" lon="11.77056152505157"><ele>651.0</ele><time>2026-04-18T10:57:23Z</time></trkpt><trkpt lat="47.8879219104961" lon="11.770414340143827"><ele>651.0</ele><time>2026-04-18T10:57:24Z</time></trkpt><trkpt lat="47.8879700716802" lon="11.770294239875152"><ele>651.0</ele><time>2026-04-18T10:57:25Z</time></trkpt><trkpt lat="47.88801728305455" lon="11.770172742278131"><ele>651.0</ele><time>2026-04-18T10:57:26Z</time></trkpt><trkpt lat="47.88805633529419" lon="11.77005477090644"><ele>651.0</ele><time>2026-04-18T10:57:27Z</time></trkpt><trkpt lat="47.888092830613886" lon="11.769939514450993"><ele>651.0</ele><time>2026-04-18T10:57:28Z</time></trkpt><trkpt lat="47.888122428506776" lon="11.769815595442575"><ele>651.3333333333334</ele><time>2026-04-18T10:57:29Z</time></trkpt><trkpt lat="47.888148166196984" lon="11.769694286468999"><ele>651.6666666666666</ele><time>2026-04-18T10:57:29.999Z</time></trkpt><trkpt lat="47.888164139556906" lon="11.769576193771183"><ele>652.0</ele><time>2026-04-18T10:57:30.999Z</time></trkpt><trkpt lat="47.88818229085679" lon="11.769458868106055"><ele>652.3333333333333</ele><time>2026-04-18T10:57:31.999Z</time></trkpt><trkpt lat="47.88819716944011" lon="11.769336145843429"><ele>652.6666666666666</ele><time>2026-04-18T10:57:32.999Z</time></trkpt><trkpt lat="47.88820497166125" lon="11.769206060424255"><ele>653.0</ele><time>2026-04-18T10:57:33.999Z</time></trkpt><trkpt lat="47.88822091858383" lon="11.769078333070322"><ele>653.8</ele><time>2026-04-18T10:57:34.999Z</time></trkpt><trkpt lat="47.88824106268515" lon="11.768950245228242"><ele>654.5999999999999</ele><time>2026-04-18T10:57:35.999Z</time></trkpt><trkpt lat="47.888279586273015" lon="11.76882913752192"><ele>655.4000000000001</ele><time>2026-04-18T10:57:36.999Z</time></trkpt><trkpt lat="47.88834497955255" lon="11.768723255444996"><ele>656.2</ele><time>2026-04-18T10:57:37.999Z</time></trkpt><trkpt lat="47.88842675857007" lon="11.768639413349359"><ele>657.0</ele><time>2026-04-18T10:57:38.999Z</time></trkpt><trkpt lat="47.8885127451868" lon="11.768589470699636"><ele>657.3333333333334</ele><time>2026-04-18T10:57:39.999Z</time></trkpt><trkpt lat="47.88857440799898" lon="11.768555410796475"><ele>657.6666666666666</ele><time>2026-04-18T10:57:40.999Z</time></trkpt><trkpt lat="47.88865758933228" lon="11.76850825610094"><ele>658.0</ele><time>2026-04-18T10:57:43.999Z</time></trkpt><trkpt lat="47.888726819562535" lon="11.768472626891285"><ele>658.3333333333333</ele><time>2026-04-18T10:57:47.999Z</time></trkpt><trkpt lat="47.88880576938756" lon="11.768431429001613"><ele>658.6666666666666</ele><time>2026-04-18T10:57:53.999Z</time></trkpt><trkpt lat="47.888886389325656" lon="11.768402789525043"><ele>659.0</ele><time>2026-04-18T10:57:55.999Z</time></trkpt><trkpt lat="47.888882527461554" lon="11.768195800276356"><ele>658.0</ele><time>2026-04-18T10:57:57.999Z</time></trkpt><trkpt lat="47.888861136112176" lon="11.768091839121093"><ele>657.0</ele><time>2026-04-18T10:57:58.999Z</time></trkpt><trkpt lat="47.88882207538601" lon="11.767978299866188"><ele>656.0</ele><time>2026-04-18T10:58:00Z</time></trkpt><trkpt lat="47.888774605444574" lon="11.767849986574177"><ele>655.0</ele><time>2026-04-18T10:58:01Z</time></trkpt><trkpt lat="47.88872369933105" lon="11.767708733410482"><ele>654.0</ele><time>2026-04-18T10:58:02Z</time></trkpt><trkpt lat="47.88866394264672" lon="11.767558872609152"><ele>654.2</ele><time>2026-04-18T10:58:03Z</time></trkpt><trkpt lat="47.888612098382765" lon="11.76742474216463"><ele>654.4000000000001</ele><time>2026-04-18T10:58:04Z</time></trkpt><trkpt lat="47.88856625366351" lon="11.767309496687014"><ele>654.6</ele><time>2026-04-18T10:58:05Z</time></trkpt><trkpt lat="47.88851495227083" lon="11.76718901061008"><ele>654.8</ele><time>2026-04-18T10:58:06Z</time></trkpt><trkpt lat="47.88845499842799" lon="11.767068352380216"><ele>655.0</ele><time>2026-04-18T10:58:07Z</time></trkpt><trkpt lat="47.88839464429573" lon="11.766936432029595"><ele>655.0</ele><time>2026-04-18T10:58:08Z</time></trkpt><trkpt lat="47.88833181156147" lon="11.766798381023635"><ele>655.0</ele><time>2026-04-18T10:58:09Z</time></trkpt><trkpt lat="47.88826200360148" lon="11.766667715624187"><ele>655.0</ele><time>2026-04-18T10:58:10Z</time></trkpt><trkpt lat="47.88820384329405" lon="11.76654851938082"><ele>655.0</ele><time>2026-04-18T10:58:11Z</time></trkpt><trkpt lat="47.88815441903883" lon="11.766448888953276"><ele>655.0</ele><time>2026-04-18T10:58:12Z</time></trkpt><trkpt lat="47.888108045829874" lon="11.76634025004114"><ele>655.0</ele><time>2026-04-18T10:58:13Z</time></trkpt><trkpt lat="47.88805705397981" lon="11.766233794825252"><ele>655.0</ele><time>2026-04-18T10:58:14Z</time></trkpt><trkpt lat="47.88800868128374" lon="11.766114032210279"><ele>655.0</ele><time>2026-04-18T10:58:15Z</time></trkpt><trkpt lat="47.88796487997525" lon="11.765983021111143"><ele>655.0</ele><time>2026-04-18T10:58:16Z</time></trkpt><trkpt lat="47.88792234684812" lon="11.765833100286871"><ele>655.0</ele><time>2026-04-18T10:58:17Z</time></trkpt><trkpt lat="47.88788520582656" lon="11.765668867570135"><ele>655.0</ele><time>2026-04-18T10:58:18Z</time></trkpt><trkpt lat="47.88785130360828" lon="11.765496085334314"><ele>655.0</ele><time>2026-04-18T10:58:19Z</time></trkpt><trkpt lat="47.887820838802" lon="11.765322993875852"><ele>655.0</ele><time>2026-04-18T10:58:20Z</time></trkpt><trkpt lat="47.8877868733963" lon="11.765157339918224"><ele>655.0</ele><time>2026-04-18T10:58:21Z</time></trkpt><trkpt lat="47.88773978306148" lon="11.76500688411091"><ele>655.25</ele><time>2026-04-18T10:58:22Z</time></trkpt><trkpt lat="47.887676631351" lon="11.764875511008299"><ele>655.5</ele><time>2026-04-18T10:58:23Z</time></trkpt><trkpt lat="47.88759931238878" lon="11.764750090838168"><ele>655.75</ele><time>2026-04-18T10:58:24Z</time></trkpt><trkpt lat="47.88750520444034" lon="11.76463957734532"><ele>656.0</ele><time>2026-04-18T10:58:25Z</time></trkpt><trkpt lat="47.88739790868711" lon="11.76453963329218"><ele>656.0</ele><time>2026-04-18T10:58:26Z</time></trkpt><trkpt lat="47.8872911695542" lon="11.764458063866318"><ele>656.0</ele><time>2026-04-18T10:58:27Z</time></trkpt><trkpt lat="47.887182022785936" lon="11.764393695908423"><ele>656.0</ele><time>2026-04-18T10:58:28Z</time></trkpt><trkpt lat="47.88708467336199" lon="11.764303639719829"><ele>656.0</ele><time>2026-04-18T10:58:29Z</time></trkpt><trkpt lat="47.88699124705038" lon="11.764200521329498"><ele>656.0</ele><time>2026-04-18T10:58:30Z</time></trkpt><trkpt lat="47.88692931335632" lon="11.76405812826605"><ele>656.0</ele><time>2026-04-18T10:58:31Z</time></trkpt><trkpt lat="47.88687415349415" lon="11.763917176571447"><ele>656.0</ele><time>2026-04-18T10:58:32Z</time></trkpt><trkpt lat="47.886847067058625" lon="11.76376182788309"><ele>656.0</ele><time>2026-04-18T10:58:33Z</time></trkpt><trkpt lat="47.886819392865156" lon="11.76359945916212"><ele>656.0</ele><time>2026-04-18T10:58:34Z</time></trkpt><trkpt lat="47.88680589043073" lon="11.763438651046775"><ele>656.0</ele><time>2026-04-18T10:58:35Z</time></trkpt><trkpt lat="47.88678757863905" lon="11.763284005759868"><ele>656.0</ele><time>2026-04-18T10:58:36Z</time></trkpt><trkpt lat="47.88677090379223" lon="11.763131875156922"><ele>656.0</ele><time>2026-04-18T10:58:37Z</time></trkpt><trkpt lat="47.88674327584961" lon="11.762985501916122"><ele>656.0</ele><time>2026-04-18T10:58:38Z</time></trkpt><trkpt lat="47.88672122716764" lon="11.762840053630196"><ele>656.0</ele><time>2026-04-18T10:58:39Z</time></trkpt><trkpt lat="47.88669793033907" lon="11.762696091891184"><ele>656.4</ele><time>2026-04-18T10:58:40Z</time></trkpt><trkpt lat="47.88668299367256" lon="11.762550041110119"><ele>656.8</ele><time>2026-04-18T10:58:41Z</time></trkpt><trkpt lat="47.88667791802293" lon="11.762398580594024"><ele>657.1999999999999</ele><time>2026-04-18T10:58:42Z</time></trkpt><trkpt lat="47.88667187889697" lon="11.76223877766666"><ele>657.5999999999999</ele><time>2026-04-18T10:58:43Z</time></trkpt><trkpt lat="47.88667825566378" lon="11.762072447449283"><ele>658.0</ele><time>2026-04-18T10:58:44Z</time></trkpt><trkpt lat="47.88670000780623" lon="11.761895085519617"><ele>658.0</ele><time>2026-04-18T10:58:45Z</time></trkpt><trkpt lat="47.886720810804114" lon="11.761717334242832"><ele>658.0</ele><time>2026-04-18T10:58:46Z</time></trkpt><trkpt lat="47.88674325074073" lon="11.761537208047503"><ele>658.0</ele><time>2026-04-18T10:58:47Z</time></trkpt><trkpt lat="47.886771632554314" lon="11.76136066164783"><ele>658.0</ele><time>2026-04-18T10:58:48Z</time></trkpt><trkpt lat="47.88680149317772" lon="11.761188344425907"><ele>657.75</ele><time>2026-04-18T10:58:49Z</time></trkpt><trkpt lat="47.88681910750933" lon="11.761019853627081"><ele>657.5</ele><time>2026-04-18T10:58:50Z</time></trkpt><trkpt lat="47.8868135645615" lon="11.760846742670708"><ele>657.25</ele><time>2026-04-18T10:58:51Z</time></trkpt><trkpt lat="47.886803059233145" lon="11.760661180214571"><ele>657.0</ele><time>2026-04-18T10:58:52Z</time></trkpt><trkpt lat="47.886766807666824" lon="11.760482279078746"><ele>657.5</ele><time>2026-04-18T10:58:53Z</time></trkpt><trkpt lat="47.88670214305282" lon="11.760324257314576"><ele>658.0</ele><time>2026-04-18T10:58:54Z</time></trkpt><trkpt lat="47.8866322295441" lon="11.76015804727837"><ele>658.5</ele><time>2026-04-18T10:58:55Z</time></trkpt><trkpt lat="47.886551411094835" lon="11.759992193456938"><ele>659.0</ele><time>2026-04-18T10:58:56Z</time></trkpt><trkpt lat="47.88646102924891" lon="11.759821212495941"><ele>659.5</ele><time>2026-04-18T10:58:57Z</time></trkpt><trkpt lat="47.8863808794363" lon="11.759667362885281"><ele>660.0</ele><time>2026-04-18T10:58:58Z</time></trkpt><trkpt lat="47.886301313786184" lon="11.759521415355668"><ele>660.5</ele><time>2026-04-18T10:58:59Z</time></trkpt><trkpt lat="47.88621620040238" lon="11.759369525827864"><ele>661.0</ele><time>2026-04-18T10:59:00Z</time></trkpt><trkpt lat="47.886129714246884" lon="11.759210594750254"><ele>661.0</ele><time>2026-04-18T10:59:01Z</time></trkpt><trkpt lat="47.88602824342464" lon="11.759038754700509"><ele>661.0</ele><time>2026-04-18T10:59:02Z</time></trkpt><trkpt lat="47.88591144535626" lon="11.758859235859294"><ele>661.0</ele><time>2026-04-18T10:59:03Z</time></trkpt><trkpt lat="47.88578305895298" lon="11.75867242381322"><ele>661.0</ele><time>2026-04-18T10:59:04Z</time></trkpt><trkpt lat="47.88564287661913" lon="11.758507246376755"><ele>661.0</ele><time>2026-04-18T10:59:05Z</time></trkpt><trkpt lat="47.88549802458023" lon="11.75836712967888"><ele>661.0</ele><time>2026-04-18T10:59:06Z</time></trkpt><trkpt lat="47.88535879628983" lon="11.758245073358413"><ele>661.0</ele><time>2026-04-18T10:59:07Z</time></trkpt><trkpt lat="47.885226581663346" lon="11.758136456051377"><ele>661.0</ele><time>2026-04-18T10:59:08Z</time></trkpt><trkpt lat="47.885086898597855" lon="11.758019499113685"><ele>661.0</ele><time>2026-04-18T10:59:09Z</time></trkpt><trkpt lat="47.88494365233827" lon="11.757904206230357"><ele>661.6666666666667</ele><time>2026-04-18T10:59:10Z</time></trkpt><trkpt lat="47.88479464723766" lon="11.75778081016928"><ele>662.3333333333334</ele><time>2026-04-18T10:59:11Z</time></trkpt><trkpt lat="47.88464783654133" lon="11.757640243362815"><ele>663.0</ele><time>2026-04-18T10:59:12Z</time></trkpt><trkpt lat="47.88450464544399" lon="11.757491218073232"><ele>663.0</ele><time>2026-04-18T10:59:13Z</time></trkpt><trkpt lat="47.88436091505798" lon="11.757348677449793"><ele>663.0</ele><time>2026-04-18T10:59:14Z</time></trkpt><trkpt lat="47.8842183823412" lon="11.757203084367747"><ele>663.0</ele><time>2026-04-18T10:59:15Z</time></trkpt><trkpt lat="47.884083489831234" lon="11.757060691948952"><ele>663.0</ele><time>2026-04-18T10:59:16Z</time></trkpt><trkpt lat="47.88394371651725" lon="11.756916779312835"><ele>663.0</ele><time>2026-04-18T10:59:17Z</time></trkpt><trkpt lat="47.883810216682136" lon="11.756765158187282"><ele>663.0</ele><time>2026-04-18T10:59:18Z</time></trkpt><trkpt lat="47.88368400690477" lon="11.756604043932676"><ele>663.0</ele><time>2026-04-18T10:59:19Z</time></trkpt><trkpt lat="47.8835639988611" lon="11.75643411135689"><ele>663.0</ele><time>2026-04-18T10:59:20Z</time></trkpt><trkpt lat="47.883449931560165" lon="11.75625973618362"><ele>663.0</ele><time>2026-04-18T10:59:21Z</time></trkpt><trkpt lat="47.88334279682386" lon="11.756076206559436"><ele>663.3333333333334</ele><time>2026-04-18T10:59:22Z</time></trkpt><trkpt lat="47.883242713633116" lon="11.755882094748841"><ele>663.6666666666667</ele><time>2026-04-18T10:59:23Z</time></trkpt><trkpt lat="47.883142694197524" lon="11.755679922368557"><ele>664.0</ele><time>2026-04-18T10:59:24Z</time></trkpt><trkpt lat="47.88303086274955" lon="11.75547224529684"><ele>664.0</ele><time>2026-04-18T10:59:25Z</time></trkpt><trkpt lat="47.88291936551706" lon="11.755250902013573"><ele>664.0</ele><time>2026-04-18T10:59:26Z</time></trkpt><trkpt lat="47.882809058958046" lon="11.755011516613463"><ele>664.0</ele><time>2026-04-18T10:59:27Z</time></trkpt><trkpt lat="47.88268921319091" lon="11.75477047433303"><ele>664.0</ele><time>2026-04-18T10:59:28Z</time></trkpt><trkpt lat="47.88256167841304" lon="11.754529689021316"><ele>664.0</ele><time>2026-04-18T10:59:29Z</time></trkpt><trkpt lat="47.882433408525294" lon="11.754286324317887"><ele>664.0</ele><time>2026-04-18T10:59:30Z</time></trkpt><trkpt lat="47.88230403105624" lon="11.754041004668245"><ele>664.0</ele><time>2026-04-18T10:59:31Z</time></trkpt><trkpt lat="47.882168669884884" lon="11.753800182043706"><ele>664.0</ele><time>2026-04-18T10:59:32Z</time></trkpt><trkpt lat="47.88202574562341" lon="11.753543580256004"><ele>664.0</ele><time>2026-04-18T10:59:33Z</time></trkpt><trkpt lat="47.881883325155826" lon="11.75328475675792"><ele>664.0</ele><time>2026-04-18T10:59:34Z</time></trkpt><trkpt lat="47.88175609820191" lon="11.753060299038603"><ele>664.0</ele><time>2026-04-18T10:59:35Z</time></trkpt><trkpt lat="47.88162918373206" lon="11.752837017376992"><ele>664.0</ele><time>2026-04-18T10:59:36Z</time></trkpt><trkpt lat="47.881498348900536" lon="11.75260132045258"><ele>664.0</ele><time>2026-04-18T10:59:37Z</time></trkpt><trkpt lat="47.88137117565862" lon="11.752380738149265"><ele>664.0</ele><time>2026-04-18T10:59:38Z</time></trkpt><trkpt lat="47.88123544988278" lon="11.752162411136473"><ele>664.0</ele><time>2026-04-18T10:59:39Z</time></trkpt><trkpt lat="47.881097645041805" lon="11.751938294972572"><ele>663.6666666666667</ele><time>2026-04-18T10:59:40Z</time></trkpt><trkpt lat="47.88095397966257" lon="11.751711073272746"><ele>663.3333333333334</ele><time>2026-04-18T10:59:41Z</time></trkpt><trkpt lat="47.880816448563884" lon="11.751508710283144"><ele>663.0</ele><time>2026-04-18T10:59:42Z</time></trkpt><trkpt lat="47.88067734747719" lon="11.751324293181463"><ele>663.6666666666666</ele><time>2026-04-18T10:59:43Z</time></trkpt><trkpt lat="47.88054023914882" lon="11.751159043139618"><ele>664.3333333333333</ele><time>2026-04-18T10:59:44Z</time></trkpt><trkpt lat="47.88041164004025" lon="11.75101627811449"><ele>665.0</ele><time>2026-04-18T10:59:45Z</time></trkpt><trkpt lat="47.88029416466026" lon="11.750884398984203"><ele>665.0</ele><time>2026-04-18T10:59:46Z</time></trkpt><trkpt lat="47.880184740699875" lon="11.7507601335546"><ele>665.0</ele><time>2026-04-18T10:59:47Z</time></trkpt><trkpt lat="47.88007971584602" lon="11.750644883274623"><ele>665.0</ele><time>2026-04-18T10:59:48Z</time></trkpt><trkpt lat="47.879983003813564" lon="11.75054150175284"><ele>665.0</ele><time>2026-04-18T10:59:49Z</time></trkpt><trkpt lat="47.87988984817381" lon="11.750447361154478"><ele>665.2</ele><time>2026-04-18T10:59:50Z</time></trkpt><trkpt lat="47.87979837799409" lon="11.75035601061601"><ele>665.4</ele><time>2026-04-18T10:59:51Z</time></trkpt><trkpt lat="47.87970491692797" lon="11.750267382445179"><ele>665.5999999999999</ele><time>2026-04-18T10:59:52Z</time></trkpt><trkpt lat="47.87961146339079" lon="11.75017961491212"><ele>665.8</ele><time>2026-04-18T10:59:53Z</time></trkpt><trkpt lat="47.87952052524827" lon="11.750086610762368"><ele>666.0</ele><time>2026-04-18T10:59:54Z</time></trkpt><trkpt lat="47.87943044051303" lon="11.749991975231582"><ele>666.0</ele><time>2026-04-18T10:59:55Z</time></trkpt><trkpt lat="47.87932636444522" lon="11.749892019124012"><ele>666.0</ele><time>2026-04-18T10:59:56Z</time></trkpt><trkpt lat="47.87922923313964" lon="11.74977844569681"><ele>666.0</ele><time>2026-04-18T10:59:57Z</time></trkpt><trkpt lat="47.87913697182337" lon="11.749675558793722"><ele>666.0</ele><time>2026-04-18T10:59:58Z</time></trkpt><trkpt lat="47.87904392199433" lon="11.749586253358581"><ele>666.25</ele><time>2026-04-18T10:59:59Z</time></trkpt><trkpt lat="47.87896786367141" lon="11.749457018116814"><ele>666.5</ele><time>2026-04-18T11:00:00Z</time></trkpt><trkpt lat="47.878889052283306" lon="11.749308249362393"><ele>666.75</ele><time>2026-04-18T11:00:01Z</time></trkpt><trkpt lat="47.87881694764806" lon="11.74913596340475"><ele>667.0</ele><time>2026-04-18T11:00:02Z</time></trkpt><trkpt lat="47.87876538505331" lon="11.748939772702833"><ele>667.0</ele><time>2026-04-18T11:00:03Z</time></trkpt><trkpt lat="47.87871707352138" lon="11.748750214321138"><ele>667.0</ele><time>2026-04-18T11:00:04Z</time></trkpt><trkpt lat="47.87864904848361" lon="11.748574232907847"><ele>667.0</ele><time>2026-04-18T11:00:05Z</time></trkpt><trkpt lat="47.87856820440459" lon="11.748408533700792"><ele>667.0</ele><time>2026-04-18T11:00:06Z</time></trkpt><trkpt lat="47.87847869411169" lon="11.748259310760197"><ele>667.5</ele><time>2026-04-18T11:00:07Z</time></trkpt><trkpt lat="47.87838955048682" lon="11.748134870631329"><ele>668.0</ele><time>2026-04-18T11:00:08Z</time></trkpt><trkpt lat="47.87831307544677" lon="11.748018863473906"><ele>668.5</ele><time>2026-04-18T11:00:09Z</time></trkpt><trkpt lat="47.8782391912907" lon="11.747900021118976"><ele>669.0</ele><time>2026-04-18T11:00:10Z</time></trkpt><trkpt lat="47.878160631751356" lon="11.74778357604393"><ele>668.75</ele><time>2026-04-18T11:00:11Z</time></trkpt><trkpt lat="47.87807398666437" lon="11.747674040522309"><ele>668.5</ele><time>2026-04-18T11:00:12Z</time></trkpt><trkpt lat="47.87798837065832" lon="11.747553112036444"><ele>668.25</ele><time>2026-04-18T11:00:13Z</time></trkpt><trkpt lat="47.877904818070306" lon="11.747428272470327"><ele>668.0</ele><time>2026-04-18T11:00:14Z</time></trkpt><trkpt lat="47.877823715007956" lon="11.74732145155357"><ele>668.0</ele><time>2026-04-18T11:00:15Z</time></trkpt><trkpt lat="47.87775389756524" lon="11.74721991893941"><ele>668.0</ele><time>2026-04-18T11:00:16Z</time></trkpt><trkpt lat="47.877685130289976" lon="11.747117908186375"><ele>668.0</ele><time>2026-04-18T11:00:17Z</time></trkpt><trkpt lat="47.877614610044596" lon="11.747015530656999"><ele>668.0</ele><time>2026-04-18T11:00:18Z</time></trkpt><trkpt lat="47.87753644648836" lon="11.746912482764966"><ele>668.0</ele><time>2026-04-18T11:00:19Z</time></trkpt><trkpt lat="47.8774566170686" lon="11.746803601946743"><ele>668.0</ele><time>2026-04-18T11:00:20.001Z</time></trkpt><trkpt lat="47.87737738058571" lon="11.746682317229677"><ele>668.0</ele><time>2026-04-18T11:00:21.001Z</time></trkpt><trkpt lat="47.87729542977656" lon="11.746563936243911"><ele>668.0</ele><time>2026-04-18T11:00:22.001Z</time></trkpt><trkpt lat="47.877208603862776" lon="11.746445066465924"><ele>668.0</ele><time>2026-04-18T11:00:23.001Z</time></trkpt><trkpt lat="47.87712232517723" lon="11.746322024444144"><ele>668.0</ele><time>2026-04-18T11:00:24.001Z</time></trkpt><trkpt lat="47.87703092601755" lon="11.746199979376534"><ele>668.0</ele><time>2026-04-18T11:00:25.001Z</time></trkpt><trkpt lat="47.87694210320499" lon="11.746073944136358"><ele>668.0</ele><time>2026-04-18T11:00:26.001Z</time></trkpt><trkpt lat="47.87685216290477" lon="11.745943533519949"><ele>668.0</ele><time>2026-04-18T11:00:27.001Z</time></trkpt><trkpt lat="47.87675878192397" lon="11.745818774068253"><ele>668.2</ele><time>2026-04-18T11:00:28.001Z</time></trkpt><trkpt lat="47.87667347351864" lon="11.74569618724539"><ele>668.4</ele><time>2026-04-18T11:00:29.001Z</time></trkpt><trkpt lat="47.876599601522805" lon="11.745589721075547"><ele>668.6</ele><time>2026-04-18T11:00:30.001Z</time></trkpt><trkpt lat="47.876536350314844" lon="11.745500327482274"><ele>668.8000000000001</ele><time>2026-04-18T11:00:31.001Z</time></trkpt><trkpt lat="47.87648148519865" lon="11.745422300881183"><ele>669.0</ele><time>2026-04-18T11:00:32.001Z</time></trkpt><trkpt lat="47.87643196472052" lon="11.74535103173497"><ele>669.0</ele><time>2026-04-18T11:00:33.001Z</time></trkpt><trkpt lat="47.876379869584575" lon="11.745278853213323"><ele>669.0</ele><time>2026-04-18T11:00:34.001Z</time></trkpt><trkpt lat="47.87632228872043" lon="11.745196542487442"><ele>669.0</ele><time>2026-04-18T11:00:35.001Z</time></trkpt><trkpt lat="47.8762773364566" lon="11.745122960858671"><ele>669.0</ele><time>2026-04-18T11:00:36.001Z</time></trkpt><trkpt lat="47.8762213243393" lon="11.744980837186077"><ele>669.0</ele><time>2026-04-18T11:00:38.001Z</time></trkpt><trkpt lat="47.87616828295656" lon="11.744857856527817"><ele>669.0</ele><time>2026-04-18T11:00:39.001Z</time></trkpt><trkpt lat="47.87610569422165" lon="11.74470879906828"><ele>668.75</ele><time>2026-04-18T11:00:40.001Z</time></trkpt><trkpt lat="47.87604657219889" lon="11.744560016502787"><ele>668.5</ele><time>2026-04-18T11:00:41.001Z</time></trkpt><trkpt lat="47.875987539665424" lon="11.744410813723832"><ele>668.25</ele><time>2026-04-18T11:00:42.001Z</time></trkpt><trkpt lat="47.875928141211965" lon="11.744259992314987"><ele>668.0</ele><time>2026-04-18T11:00:43.001Z</time></trkpt><trkpt lat="47.87586764111162" lon="11.74411889727084"><ele>668.5999999999999</ele><time>2026-04-18T11:00:44.001Z</time></trkpt><trkpt lat="47.87580921583885" lon="11.743980215564267"><ele>669.1999999999999</ele><time>2026-04-18T11:00:45.001Z</time></trkpt><trkpt lat="47.875758615410305" lon="11.743842298034247"><ele>669.8</ele><time>2026-04-18T11:00:46.001Z</time></trkpt><trkpt lat="47.87571055836718" lon="11.74371032705033"><ele>670.4</ele><time>2026-04-18T11:00:47.001Z</time></trkpt><trkpt lat="47.87565951806058" lon="11.743585234689963"><ele>671.0</ele><time>2026-04-18T11:00:48.001Z</time></trkpt><trkpt lat="47.87561401261817" lon="11.74346467182626"><ele>671.1428571428571</ele><time>2026-04-18T11:00:49.001Z</time></trkpt><trkpt lat="47.87557383475252" lon="11.74336109605744"><ele>671.2857142857143</ele><time>2026-04-18T11:00:50.001Z</time></trkpt><trkpt lat="47.875533335466365" lon="11.743271634972762"><ele>671.4285714285714</ele><time>2026-04-18T11:00:51.001Z</time></trkpt><trkpt lat="47.87549737695399" lon="11.743183070711524"><ele>671.5714285714286</ele><time>2026-04-18T11:00:52.001Z</time></trkpt><trkpt lat="47.87546267818659" lon="11.743095167268764"><ele>671.7142857142858</ele><time>2026-04-18T11:00:53.001Z</time></trkpt><trkpt lat="47.87542287091891" lon="11.743004907164662"><ele>671.8571428571429</ele><time>2026-04-18T11:00:54.001Z</time></trkpt><trkpt lat="47.87538516579772" lon="11.742908346862134"><ele>672.0</ele><time>2026-04-18T11:00:55.001Z</time></trkpt><trkpt lat="47.87534540117232" lon="11.742810255492838"><ele>672.0</ele><time>2026-04-18T11:00:56.001Z</time></trkpt><trkpt lat="47.87530919097273" lon="11.742716529349302"><ele>672.0</ele><time>2026-04-18T11:00:57.001Z</time></trkpt><trkpt lat="47.8752808534001" lon="11.742607973295186"><ele>672.0</ele><time>2026-04-18T11:00:59.001Z</time></trkpt><trkpt lat="47.87526453320194" lon="11.742498472148988"><ele>672.0</ele><time>2026-04-18T11:01:02.001Z</time></trkpt><trkpt lat="47.87526152331853" lon="11.742366414946684"><ele>672.0</ele><time>2026-04-18T11:01:14.001Z</time></trkpt><trkpt lat="47.87529907217286" lon="11.742232247424113"><ele>672.0</ele><time>2026-04-18T11:01:16.001Z</time></trkpt><trkpt lat="47.87533168238557" lon="11.742106850566783"><ele>672.4000000000001</ele><time>2026-04-18T11:01:17.001Z</time></trkpt><trkpt lat="47.87537571286172" lon="11.741952233039658"><ele>672.8000000000001</ele><time>2026-04-18T11:01:18.001Z</time></trkpt><trkpt lat="47.87541599752561" lon="11.7418116350119"><ele>673.2</ele><time>2026-04-18T11:01:19.001Z</time></trkpt><trkpt lat="47.875458667136115" lon="11.741662835653646"><ele>673.6</ele><time>2026-04-18T11:01:20.001Z</time></trkpt><trkpt lat="47.87550315762233" lon="11.741506491043436"><ele>674.0</ele><time>2026-04-18T11:01:21.001Z</time></trkpt><trkpt lat="47.87554957057777" lon="11.74134750092225"><ele>674.0</ele><time>2026-04-18T11:01:22.001Z</time></trkpt><trkpt lat="47.875595623529236" lon="11.741189192914904"><ele>674.0</ele><time>2026-04-18T11:01:23.001Z</time></trkpt><trkpt lat="47.875645074348455" lon="11.741031160737574"><ele>674.0</ele><time>2026-04-18T11:01:24.001Z</time></trkpt><trkpt lat="47.87570888101921" lon="11.740885855222807"><ele>674.0</ele><time>2026-04-18T11:01:25.001Z</time></trkpt><trkpt lat="47.875755559743595" lon="11.74072799228457"><ele>674.0</ele><time>2026-04-18T11:01:26.001Z</time></trkpt><trkpt lat="47.87579771082767" lon="11.74056706023426"><ele>674.0</ele><time>2026-04-18T11:01:27.001Z</time></trkpt><trkpt lat="47.87584994433588" lon="11.740385752408523"><ele>674.0</ele><time>2026-04-18T11:01:28.001Z</time></trkpt><trkpt lat="47.875897457709286" lon="11.740217286390669"><ele>674.0</ele><time>2026-04-18T11:01:29.001Z</time></trkpt><trkpt lat="47.87594207803577" lon="11.740054918264413"><ele>673.75</ele><time>2026-04-18T11:01:30.001Z</time></trkpt><trkpt lat="47.87598312427709" lon="11.739896928456224"><ele>673.5</ele><time>2026-04-18T11:01:31.001Z</time></trkpt><trkpt lat="47.87602067020987" lon="11.739742394226866"><ele>673.25</ele><time>2026-04-18T11:01:32.001Z</time></trkpt><trkpt lat="47.876063322454876" lon="11.739587833681197"><ele>673.0</ele><time>2026-04-18T11:01:33.001Z</time></trkpt><trkpt lat="47.876111172131175" lon="11.739427733242088"><ele>673.0</ele><time>2026-04-18T11:01:34.001Z</time></trkpt><trkpt lat="47.87615765607636" lon="11.739260428196431"><ele>673.0</ele><time>2026-04-18T11:01:35.001Z</time></trkpt><trkpt lat="47.8762038395401" lon="11.739088146456263"><ele>673.0</ele><time>2026-04-18T11:01:36.001Z</time></trkpt><trkpt lat="47.876256000263474" lon="11.73891311158576"><ele>673.0</ele><time>2026-04-18T11:01:37.001Z</time></trkpt><trkpt lat="47.876314902162875" lon="11.73873618466698"><ele>673.0</ele><time>2026-04-18T11:01:38.001Z</time></trkpt><trkpt lat="47.876375584932084" lon="11.738564820339862"><ele>673.0</ele><time>2026-04-18T11:01:39.001Z</time></trkpt><trkpt lat="47.876438703539" lon="11.738401803218796"><ele>673.0</ele><time>2026-04-18T11:01:40.001Z</time></trkpt><trkpt lat="47.87650095576462" lon="11.738241770037972"><ele>673.0</ele><time>2026-04-18T11:01:41.001Z</time></trkpt><trkpt lat="47.87656475969824" lon="11.738083272164582"><ele>673.0</ele><time>2026-04-18T11:01:42.001Z</time></trkpt><trkpt lat="47.87663238010061" lon="11.737924701095377"><ele>673.0</ele><time>2026-04-18T11:01:43.001Z</time></trkpt><trkpt lat="47.876699025943495" lon="11.737760213963217"><ele>673.0</ele><time>2026-04-18T11:01:44.001Z</time></trkpt><trkpt lat="47.87676641211959" lon="11.737593431562"><ele>673.0</ele><time>2026-04-18T11:01:45.001Z</time></trkpt><trkpt lat="47.87683809596949" lon="11.737431463378067"><ele>673.0</ele><time>2026-04-18T11:01:46.001Z</time></trkpt><trkpt lat="47.876901631189355" lon="11.737264625869054"><ele>673.0</ele><time>2026-04-18T11:01:47.001Z</time></trkpt><trkpt lat="47.876951492352774" lon="11.73709360803644"><ele>673.0</ele><time>2026-04-18T11:01:48.001Z</time></trkpt><trkpt lat="47.87698976273324" lon="11.736918820240241"><ele>673.0</ele><time>2026-04-18T11:01:49.001Z</time></trkpt><trkpt lat="47.877016393173086" lon="11.736738616362233"><ele>673.5</ele><time>2026-04-18T11:01:50.001Z</time></trkpt><trkpt lat="47.877032188899044" lon="11.736550384597662"><ele>674.0</ele><time>2026-04-18T11:01:51.001Z</time></trkpt><trkpt lat="47.877042789652094" lon="11.736359071460708"><ele>674.5</ele><time>2026-04-18T11:01:52.001Z</time></trkpt><trkpt lat="47.87705124523736" lon="11.73616614824903"><ele>675.0</ele><time>2026-04-18T11:01:53.001Z</time></trkpt><trkpt lat="47.87705951397085" lon="11.735972625893353"><ele>675.25</ele><time>2026-04-18T11:01:54.001Z</time></trkpt><trkpt lat="47.87706250728981" lon="11.73578584336221"><ele>675.5</ele><time>2026-04-18T11:01:55.001Z</time></trkpt><trkpt lat="47.87706221059909" lon="11.735603291647426"><ele>675.75</ele><time>2026-04-18T11:01:56.001Z</time></trkpt><trkpt lat="47.877061667842646" lon="11.73542639574287"><ele>676.0</ele><time>2026-04-18T11:01:57.001Z</time></trkpt><trkpt lat="47.87706287497914" lon="11.735252944282605"><ele>675.75</ele><time>2026-04-18T11:01:58.001Z</time></trkpt><trkpt lat="47.87706354718483" lon="11.735078339869782"><ele>675.5</ele><time>2026-04-18T11:01:59.001Z</time></trkpt><trkpt lat="47.877062175061994" lon="11.734890823356176"><ele>675.25</ele><time>2026-04-18T11:02:00.001Z</time></trkpt><trkpt lat="47.877062360211134" lon="11.73469382689526"><ele>675.0</ele><time>2026-04-18T11:02:01.001Z</time></trkpt><trkpt lat="47.87706421664931" lon="11.734489227334588"><ele>675.5</ele><time>2026-04-18T11:02:02.001Z</time></trkpt><trkpt lat="47.87706515582424" lon="11.73427508642308"><ele>676.0</ele><time>2026-04-18T11:02:03.001Z</time></trkpt><trkpt lat="47.87706580372998" lon="11.73406042398505"><ele>676.5</ele><time>2026-04-18T11:02:04.001Z</time></trkpt><trkpt lat="47.87706947979666" lon="11.733847061794854"><ele>677.0</ele><time>2026-04-18T11:02:05.001Z</time></trkpt><trkpt lat="47.8770697727903" lon="11.73363717059234"><ele>678.25</ele><time>2026-04-18T11:02:06.001Z</time></trkpt><trkpt lat="47.87707300889662" lon="11.733426334626252"><ele>679.5</ele><time>2026-04-18T11:02:07.001Z</time></trkpt><trkpt lat="47.87707780462945" lon="11.733219868413938"><ele>680.75</ele><time>2026-04-18T11:02:08.001Z</time></trkpt><trkpt lat="47.87708588072959" lon="11.733014482313552"><ele>682.0</ele><time>2026-04-18T11:02:09.001Z</time></trkpt><trkpt lat="47.87709543174669" lon="11.73281383620706"><ele>683.25</ele><time>2026-04-18T11:02:10.001Z</time></trkpt><trkpt lat="47.877106162943974" lon="11.732616190070862"><ele>684.5</ele><time>2026-04-18T11:02:11.001Z</time></trkpt><trkpt lat="47.87712338028303" lon="11.732406400290163"><ele>685.75</ele><time>2026-04-18T11:02:12.001Z</time></trkpt><trkpt lat="47.87713720579034" lon="11.73218778095072"><ele>687.0</ele><time>2026-04-18T11:02:13.001Z</time></trkpt><trkpt lat="47.87714532055698" lon="11.731958521368037"><ele>686.5</ele><time>2026-04-18T11:02:14.001Z</time></trkpt><trkpt lat="47.877158213693015" lon="11.73173329996823"><ele>686.0</ele><time>2026-04-18T11:02:15.001Z</time></trkpt><trkpt lat="47.87717053932258" lon="11.731525729887355"><ele>685.5</ele><time>2026-04-18T11:02:16.001Z</time></trkpt><trkpt lat="47.87717930682958" lon="11.731334638042705"><ele>685.0</ele><time>2026-04-18T11:02:17.001Z</time></trkpt><trkpt lat="47.877185766257554" lon="11.731146851902876"><ele>684.75</ele><time>2026-04-18T11:02:18.001Z</time></trkpt><trkpt lat="47.87718687424618" lon="11.73095618290427"><ele>684.5</ele><time>2026-04-18T11:02:19.001Z</time></trkpt><trkpt lat="47.87718223977246" lon="11.730760874775562"><ele>684.25</ele><time>2026-04-18T11:02:20.001Z</time></trkpt><trkpt lat="47.877177146993596" lon="11.730562381793517"><ele>684.0</ele><time>2026-04-18T11:02:21.001Z</time></trkpt><trkpt lat="47.877168821120435" lon="11.7303579005602"><ele>684.25</ele><time>2026-04-18T11:02:22.001Z</time></trkpt><trkpt lat="47.87716412922456" lon="11.730150886192403"><ele>684.5</ele><time>2026-04-18T11:02:23.001Z</time></trkpt><trkpt lat="47.87716226501288" lon="11.729942183652124"><ele>684.75</ele><time>2026-04-18T11:02:24.001Z</time></trkpt><trkpt lat="47.877155843066255" lon="11.729728388262247"><ele>685.0</ele><time>2026-04-18T11:02:25.001Z</time></trkpt><trkpt lat="47.87714887231242" lon="11.729506869068432"><ele>684.6666666666667</ele><time>2026-04-18T11:02:26.001Z</time></trkpt><trkpt lat="47.87713954949132" lon="11.729279654856452"><ele>684.3333333333334</ele><time>2026-04-18T11:02:27.001Z</time></trkpt><trkpt lat="47.8771331980575" lon="11.729048679930653"><ele>684.0</ele><time>2026-04-18T11:02:28.001Z</time></trkpt><trkpt lat="47.877127962983785" lon="11.728813287196932"><ele>684.0</ele><time>2026-04-18T11:02:29.001Z</time></trkpt><trkpt lat="47.87712377884775" lon="11.72858206647694"><ele>684.0</ele><time>2026-04-18T11:02:30.001Z</time></trkpt><trkpt lat="47.877118437460794" lon="11.728375804867095"><ele>684.0</ele><time>2026-04-18T11:02:31.001Z</time></trkpt><trkpt lat="47.877116156748095" lon="11.728171881288588"><ele>684.0</ele><time>2026-04-18T11:02:32.001Z</time></trkpt><trkpt lat="47.87711063759014" lon="11.727969097192439"><ele>684.0</ele><time>2026-04-18T11:02:33.001Z</time></trkpt><trkpt lat="47.87710439200949" lon="11.727765719832952"><ele>684.0</ele><time>2026-04-18T11:02:34.001Z</time></trkpt><trkpt lat="47.8771066976225" lon="11.7275621729742"><ele>684.0</ele><time>2026-04-18T11:02:35.001Z</time></trkpt><trkpt lat="47.87710628146083" lon="11.727359223590641"><ele>684.0</ele><time>2026-04-18T11:02:36.001Z</time></trkpt><trkpt lat="47.87710205511561" lon="11.727155926944013"><ele>684.0</ele><time>2026-04-18T11:02:37.001Z</time></trkpt><trkpt lat="47.877096741937414" lon="11.72695764950277"><ele>684.0</ele><time>2026-04-18T11:02:38.001Z</time></trkpt><trkpt lat="47.87709216219473" lon="11.726752342538287"><ele>684.0</ele><time>2026-04-18T11:02:39.001Z</time></trkpt><trkpt lat="47.87708457916624" lon="11.726538183613389"><ele>684.0</ele><time>2026-04-18T11:02:40.001Z</time></trkpt><trkpt lat="47.877071956970134" lon="11.726325016111481"><ele>684.0</ele><time>2026-04-18T11:02:41.001Z</time></trkpt><trkpt lat="47.877057711410174" lon="11.72607831801833"><ele>684.0</ele><time>2026-04-18T11:02:42.001Z</time></trkpt><trkpt lat="47.87704193901461" lon="11.725830819410584"><ele>684.0</ele><time>2026-04-18T11:02:43.001Z</time></trkpt><trkpt lat="47.877025979842024" lon="11.725610661548064"><ele>685.0</ele><time>2026-04-18T11:02:44.001Z</time></trkpt><trkpt lat="47.87701562041521" lon="11.72540705683241"><ele>686.0</ele><time>2026-04-18T11:02:45.001Z</time></trkpt><trkpt lat="47.8770045596463" lon="11.725209916803967"><ele>687.0</ele><time>2026-04-18T11:02:46.001Z</time></trkpt><trkpt lat="47.876992651883945" lon="11.725015662064687"><ele>688.0</ele><time>2026-04-18T11:02:47.001Z</time></trkpt><trkpt lat="47.87697773520023" lon="11.724819949644754"><ele>688.5</ele><time>2026-04-18T11:02:48.001Z</time></trkpt><trkpt lat="47.876965518315984" lon="11.724618760783548"><ele>689.0</ele><time>2026-04-18T11:02:49.001Z</time></trkpt><trkpt lat="47.876952781522036" lon="11.724405860546485"><ele>689.5</ele><time>2026-04-18T11:02:50.001Z</time></trkpt><trkpt lat="47.87693780223475" lon="11.7241675223971"><ele>690.0</ele><time>2026-04-18T11:02:51.001Z</time></trkpt><trkpt lat="47.87692235331224" lon="11.723945730617796"><ele>690.0</ele><time>2026-04-18T11:02:52.001Z</time></trkpt><trkpt lat="47.876907393389146" lon="11.723730930608056"><ele>690.0</ele><time>2026-04-18T11:02:53.001Z</time></trkpt><trkpt lat="47.876893953887695" lon="11.723522604652649"><ele>690.0</ele><time>2026-04-18T11:02:54.001Z</time></trkpt><trkpt lat="47.87688059706814" lon="11.72332213343039"><ele>690.0</ele><time>2026-04-18T11:02:55.001Z</time></trkpt><trkpt lat="47.87686827743716" lon="11.723122868401191"><ele>690.0</ele><time>2026-04-18T11:02:56.001Z</time></trkpt><trkpt lat="47.876856049795386" lon="11.722915173453563"><ele>690.0</ele><time>2026-04-18T11:02:57.001Z</time></trkpt><trkpt lat="47.876839664607566" lon="11.722701831143047"><ele>690.0</ele><time>2026-04-18T11:02:58.001Z</time></trkpt><trkpt lat="47.87682458164916" lon="11.72248327739356"><ele>690.0</ele><time>2026-04-18T11:02:59.001Z</time></trkpt><trkpt lat="47.876811005961216" lon="11.722274636107853"><ele>689.0</ele><time>2026-04-18T11:03:00.001Z</time></trkpt><trkpt lat="47.87679734863514" lon="11.722067198384327"><ele>688.0</ele><time>2026-04-18T11:03:01.001Z</time></trkpt><trkpt lat="47.87678413862868" lon="11.72186001030604"><ele>687.0</ele><time>2026-04-18T11:03:02.001Z</time></trkpt><trkpt lat="47.8767690201075" lon="11.7216573696712"><ele>686.0</ele><time>2026-04-18T11:03:03.001Z</time></trkpt><trkpt lat="47.87675058612382" lon="11.72145746796263"><ele>684.0</ele><time>2026-04-18T11:03:04.001Z</time></trkpt><trkpt lat="47.87673386580466" lon="11.721258115393828"><ele>682.0</ele><time>2026-04-18T11:03:05.001Z</time></trkpt><trkpt lat="47.876719727831386" lon="11.721061742433559"><ele>680.0</ele><time>2026-04-18T11:03:06.001Z</time></trkpt><trkpt lat="47.87669796158154" lon="11.72087569713049"><ele>678.0</ele><time>2026-04-18T11:03:07.001Z</time></trkpt><trkpt lat="47.87667336778972" lon="11.720702814455768"><ele>678.0</ele><time>2026-04-18T11:03:08.001Z</time></trkpt><trkpt lat="47.87665440371775" lon="11.720556131672689"><ele>678.0</ele><time>2026-04-18T11:03:09.001Z</time></trkpt><trkpt lat="47.87666256483742" lon="11.72042838449933"><ele>678.0</ele><time>2026-04-18T11:03:10.001Z</time></trkpt><trkpt lat="47.87665111128793" lon="11.720327285092585"><ele>678.0</ele><time>2026-04-18T11:03:11.001Z</time></trkpt><trkpt lat="47.87663136263932" lon="11.720152965025447"><ele>678.0</ele><time>2026-04-18T11:03:13.001Z</time></trkpt><trkpt lat="47.87661318148532" lon="11.719992481343082"><ele>677.8</ele><time>2026-04-18T11:03:15.001Z</time></trkpt><trkpt lat="47.87659446300414" lon="11.719827254751984"><ele>677.5999999999999</ele><time>2026-04-18T11:03:17.001Z</time></trkpt><trkpt lat="47.8765789400235" lon="11.719690236476216"><ele>677.4000000000001</ele><time>2026-04-18T11:03:19.001Z</time></trkpt><trkpt lat="47.876435526913845" lon="11.719696217474008"><ele>677.2</ele><time>2026-04-18T11:03:20.001Z</time></trkpt><trkpt lat="47.876372963120915" lon="11.719725900858949"><ele>677.0</ele><time>2026-04-18T11:03:21.001Z</time></trkpt><trkpt lat="47.87628963005986" lon="11.719724032220736"><ele>677.0</ele><time>2026-04-18T11:03:22.001Z</time></trkpt><trkpt lat="47.8761773799189" lon="11.719751532934328"><ele>677.0</ele><time>2026-04-18T11:03:23.001Z</time></trkpt><trkpt lat="47.8760388665085" lon="11.719737943795987"><ele>677.0</ele><time>2026-04-18T11:03:24.001Z</time></trkpt><trkpt lat="47.875913299267715" lon="11.719682042709731"><ele>677.0</ele><time>2026-04-18T11:03:25.001Z</time></trkpt><trkpt lat="47.875804235599475" lon="11.719571626832503"><ele>677.0</ele><time>2026-04-18T11:03:26.001Z</time></trkpt><trkpt lat="47.87569648643611" lon="11.719486860804736"><ele>677.0</ele><time>2026-04-18T11:03:27.001Z</time></trkpt><trkpt lat="47.87562097046037" lon="11.719370446202465"><ele>677.0</ele><time>2026-04-18T11:03:28.001Z</time></trkpt><trkpt lat="47.875556447447615" lon="11.719254709945252"><ele>677.0</ele><time>2026-04-18T11:03:29.001Z</time></trkpt><trkpt lat="47.87550383455021" lon="11.719138953070654"><ele>677.0</ele><time>2026-04-18T11:03:30.001Z</time></trkpt><trkpt lat="47.87546868765856" lon="11.719023841773396"><ele>676.5</ele><time>2026-04-18T11:03:31.001Z</time></trkpt><trkpt lat="47.875448818351586" lon="11.718908028203119"><ele>676.0</ele><time>2026-04-18T11:03:32.001Z</time></trkpt><trkpt lat="47.87544445070522" lon="11.718797337495959"><ele>675.5</ele><time>2026-04-18T11:03:33.002Z</time></trkpt><trkpt lat="47.875452098591325" lon="11.718693967153568"><ele>675.0</ele><time>2026-04-18T11:03:34.002Z</time></trkpt><trkpt lat="47.87550399323132" lon="11.718560462682392"><ele>674.5</ele><time>2026-04-18T11:03:36.002Z</time></trkpt><trkpt lat="47.875553350584475" lon="11.718491876522934"><ele>674.0</ele><time>2026-04-18T11:03:40.001Z</time></trkpt><trkpt lat="47.87560629025092" lon="11.71843485810398"><ele>673.8000000000001</ele><time>2026-04-18T11:04:29Z</time></trkpt><trkpt lat="47.87567628768793" lon="11.7184244427373"><ele>673.6</ele><time>2026-04-18T11:04:31Z</time></trkpt><trkpt lat="47.87578991624544" lon="11.718473244077648"><ele>673.4</ele><time>2026-04-18T11:04:33Z</time></trkpt><trkpt lat="47.87587599148684" lon="11.718513719595032"><ele>673.2</ele><time>2026-04-18T11:04:34Z</time></trkpt><trkpt lat="47.875993982931234" lon="11.718547907074305"><ele>673.0</ele><time>2026-04-18T11:04:35Z</time></trkpt><trkpt lat="47.87614088042686" lon="11.718590876791243"><ele>673.6666666666667</ele><time>2026-04-18T11:04:36Z</time></trkpt><trkpt lat="47.8762956051002" lon="11.718647669703715"><ele>674.3333333333334</ele><time>2026-04-18T11:04:37Z</time></trkpt><trkpt lat="47.87645879861269" lon="11.718707318364348"><ele>675.0</ele><time>2026-04-18T11:04:38Z</time></trkpt><trkpt lat="47.87662359638967" lon="11.718768583613294"><ele>674.3333333333334</ele><time>2026-04-18T11:04:39Z</time></trkpt><trkpt lat="47.876820172697656" lon="11.718836047327722"><ele>673.6666666666667</ele><time>2026-04-18T11:04:40Z</time></trkpt><trkpt lat="47.87700959993728" lon="11.718901787609346"><ele>673.0</ele><time>2026-04-18T11:04:41Z</time></trkpt><trkpt lat="47.87718202092993" lon="11.718960621970337"><ele>673.0</ele><time>2026-04-18T11:04:42Z</time></trkpt><trkpt lat="47.8773384934421" lon="11.719015150250634"><ele>673.0</ele><time>2026-04-18T11:04:43Z</time></trkpt><trkpt lat="47.87749939472146" lon="11.719079525106313"><ele>673.0</ele><time>2026-04-18T11:04:44Z</time></trkpt><trkpt lat="47.8776436055949" lon="11.719131877980615"><ele>672.75</ele><time>2026-04-18T11:04:45Z</time></trkpt><trkpt lat="47.87777037539906" lon="11.719182628645676"><ele>672.5</ele><time>2026-04-18T11:04:46Z</time></trkpt><trkpt lat="47.87787996314919" lon="11.719240588881286"><ele>672.25</ele><time>2026-04-18T11:04:47Z</time></trkpt><trkpt lat="47.87797829564037" lon="11.719304232304705"><ele>672.0</ele><time>2026-04-18T11:04:48Z</time></trkpt><trkpt lat="47.87807021628847" lon="11.719342453705558"><ele>672.0</ele><time>2026-04-18T11:04:49Z</time></trkpt><trkpt lat="47.878153073287926" lon="11.719368929518119"><ele>672.0</ele><time>2026-04-18T11:04:50Z</time></trkpt><trkpt lat="47.87822371443795" lon="11.719392803123926"><ele>672.0</ele><time>2026-04-18T11:04:51Z</time></trkpt><trkpt lat="47.878296970876676" lon="11.719420104533283"><ele>672.0</ele><time>2026-04-18T11:04:52Z</time></trkpt><trkpt lat="47.87837891833494" lon="11.719444210756395"><ele>672.0</ele><time>2026-04-18T11:04:53Z</time></trkpt><trkpt lat="47.87846747534058" lon="11.719473532189255"><ele>672.0</ele><time>2026-04-18T11:04:54Z</time></trkpt><trkpt lat="47.87855448762267" lon="11.719523415374832"><ele>672.1666666666666</ele><time>2026-04-18T11:04:55Z</time></trkpt><trkpt lat="47.8786251950948" lon="11.71956489355"><ele>672.3333333333334</ele><time>2026-04-18T11:04:56Z</time></trkpt><trkpt lat="47.878732922872544" lon="11.719609268059871"><ele>672.5</ele><time>2026-04-18T11:04:58Z</time></trkpt><trkpt lat="47.87881551009375" lon="11.71964300323162"><ele>672.6666666666667</ele><time>2026-04-18T11:05:00Z</time></trkpt><trkpt lat="47.8788861219975" lon="11.719675858689943"><ele>672.8333333333334</ele><time>2026-04-18T11:05:03Z</time></trkpt><trkpt lat="47.878982214264845" lon="11.719696138749825"><ele>673.0</ele><time>2026-04-18T11:05:17Z</time></trkpt><trkpt lat="47.879092863321056" lon="11.719783119437079"><ele>673.0</ele><time>2026-04-18T11:05:19Z</time></trkpt><trkpt lat="47.87913860677265" lon="11.719878573927708"><ele>673.0</ele><time>2026-04-18T11:05:20Z</time></trkpt><trkpt lat="47.879160013081396" lon="11.719982093287594"><ele>673.0</ele><time>2026-04-18T11:05:21Z</time></trkpt><trkpt lat="47.87917084531009" lon="11.720095687358642"><ele>673.0</ele><time>2026-04-18T11:05:22Z</time></trkpt><trkpt lat="47.87918692262914" lon="11.720214049897669"><ele>673.0</ele><time>2026-04-18T11:05:23Z</time></trkpt><trkpt lat="47.879230676656825" lon="11.720319847259509"><ele>673.0</ele><time>2026-04-18T11:05:24Z</time></trkpt><trkpt lat="47.879234013423606" lon="11.72044693708834"><ele>674.0</ele><time>2026-04-18T11:05:25Z</time></trkpt><trkpt lat="47.87929325137981" lon="11.72054691393674"><ele>675.0</ele><time>2026-04-18T11:05:26Z</time></trkpt><trkpt lat="47.879380033572765" lon="11.720650413512523"><ele>676.0</ele><time>2026-04-18T11:05:27Z</time></trkpt><trkpt lat="47.879442895647536" lon="11.720712702963477"><ele>677.0</ele><time>2026-04-18T11:05:28Z</time></trkpt><trkpt lat="47.87954086509348" lon="11.720779586333103"><ele>678.0</ele><time>2026-04-18T11:05:30Z</time></trkpt><trkpt lat="47.87960474979858" lon="11.72080884137152"><ele>678.0</ele><time>2026-04-18T11:05:31Z</time></trkpt><trkpt lat="47.87969796825811" lon="11.72082127341334"><ele>678.0</ele><time>2026-04-18T11:05:32Z</time></trkpt><trkpt lat="47.87980454265874" lon="11.720807244980227"><ele>678.0</ele><time>2026-04-18T11:05:33Z</time></trkpt><trkpt lat="47.87991064816927" lon="11.720749090230393"><ele>678.0</ele><time>2026-04-18T11:05:34Z</time></trkpt><trkpt lat="47.8800094401747" lon="11.720653917340037"><ele>678.0</ele><time>2026-04-18T11:05:35.001Z</time></trkpt><trkpt lat="47.88008355240626" lon="11.720532632075114"><ele>678.0</ele><time>2026-04-18T11:05:36.001Z</time></trkpt><trkpt lat="47.880138614572324" lon="11.720399097812098"><ele>678.0</ele><time>2026-04-18T11:05:37.001Z</time></trkpt><trkpt lat="47.880194996582695" lon="11.720258985779786"><ele>678.0</ele><time>2026-04-18T11:05:38.001Z</time></trkpt><trkpt lat="47.88021302718408" lon="11.72009898559288"><ele>678.0</ele><time>2026-04-18T11:05:39.001Z</time></trkpt><trkpt lat="47.880259142076895" lon="11.719916419407673"><ele>678.0</ele><time>2026-04-18T11:05:40.001Z</time></trkpt><trkpt lat="47.88030334168516" lon="11.719716197163144"><ele>678.0</ele><time>2026-04-18T11:05:41.001Z</time></trkpt><trkpt lat="47.880339520066194" lon="11.719555972550179"><ele>678.0</ele><time>2026-04-18T11:05:42.001Z</time></trkpt><trkpt lat="47.88037433994867" lon="11.719402044987648"><ele>678.0</ele><time>2026-04-18T11:05:43.001Z</time></trkpt><trkpt lat="47.88041336503308" lon="11.719248921148736"><ele>677.25</ele><time>2026-04-18T11:05:44.001Z</time></trkpt><trkpt lat="47.880459010710545" lon="11.719092964020838"><ele>676.5</ele><time>2026-04-18T11:05:45.001Z</time></trkpt><trkpt lat="47.88050587525449" lon="11.718932698158033"><ele>675.75</ele><time>2026-04-18T11:05:46.001Z</time></trkpt><trkpt lat="47.88055262517306" lon="11.718768590847475"><ele>675.0</ele><time>2026-04-18T11:05:47.001Z</time></trkpt><trkpt lat="47.88061302620002" lon="11.718607202716859"><ele>674.8</ele><time>2026-04-18T11:05:48.001Z</time></trkpt><trkpt lat="47.88068069953812" lon="11.718455410894318"><ele>674.6</ele><time>2026-04-18T11:05:49.001Z</time></trkpt><trkpt lat="47.88075837088391" lon="11.718326367165972"><ele>674.4000000000001</ele><time>2026-04-18T11:05:50.001Z</time></trkpt><trkpt lat="47.8808464648951" lon="11.718230609624417"><ele>674.2</ele><time>2026-04-18T11:05:51.001Z</time></trkpt><trkpt lat="47.88092951078839" lon="11.718155281737614"><ele>674.0</ele><time>2026-04-18T11:05:52.001Z</time></trkpt><trkpt lat="47.88100318115808" lon="11.718092899814579"><ele>675.1666666666666</ele><time>2026-04-18T11:05:53.001Z</time></trkpt><trkpt lat="47.88106760796232" lon="11.718037066054936"><ele>676.3333333333333</ele><time>2026-04-18T11:05:54Z</time></trkpt><trkpt lat="47.88112529645699" lon="11.717991292262798"><ele>677.5</ele><time>2026-04-18T11:05:55Z</time></trkpt><trkpt lat="47.881178330779484" lon="11.71793308642731"><ele>678.6666666666666</ele><time>2026-04-18T11:05:56Z</time></trkpt><trkpt lat="47.881255603437545" lon="11.717825312226411"><ele>679.8333333333334</ele><time>2026-04-18T11:05:58Z</time></trkpt><trkpt lat="47.88130835986946" lon="11.717758644573129"><ele>681.0</ele><time>2026-04-18T11:06:00Z</time></trkpt><trkpt lat="47.88138457709092" lon="11.717678720730882"><ele>681.0</ele><time>2026-04-18T11:06:03Z</time></trkpt><trkpt lat="47.88149835153998" lon="11.717664997648779"><ele>681.0</ele><time>2026-04-18T11:06:05Z</time></trkpt><trkpt lat="47.88155033581546" lon="11.717599422813366"><ele>681.0</ele><time>2026-04-18T11:06:06Z</time></trkpt><trkpt lat="47.88158451435518" lon="11.717502908026475"><ele>681.0</ele><time>2026-04-18T11:06:07Z</time></trkpt><trkpt lat="47.88164105539168" lon="11.717361170913538"><ele>681.0</ele><time>2026-04-18T11:06:09Z</time></trkpt><trkpt lat="47.88171481007736" lon="11.717328366874874"><ele>681.0</ele><time>2026-04-18T11:06:10Z</time></trkpt><trkpt lat="47.88177372761554" lon="11.717284008620808"><ele>680.1999999999999</ele><time>2026-04-18T11:06:11Z</time></trkpt><trkpt lat="47.88184243145195" lon="11.71724682834401"><ele>679.4</ele><time>2026-04-18T11:06:12Z</time></trkpt><trkpt lat="47.88192387407331" lon="11.717220153053507"><ele>678.6</ele><time>2026-04-18T11:06:13Z</time></trkpt><trkpt lat="47.88204060811584" lon="11.717187576436523"><ele>677.8</ele><time>2026-04-18T11:06:14Z</time></trkpt><trkpt lat="47.88219192830695" lon="11.717165649077934"><ele>677.0</ele><time>2026-04-18T11:06:15Z</time></trkpt><trkpt lat="47.882348832697986" lon="11.717175600808227"><ele>677.0</ele><time>2026-04-18T11:06:16Z</time></trkpt><trkpt lat="47.88249280890997" lon="11.717201242716774"><ele>677.0</ele><time>2026-04-18T11:06:17Z</time></trkpt><trkpt lat="47.882632696811314" lon="11.717232985403179"><ele>677.0</ele><time>2026-04-18T11:06:18Z</time></trkpt><trkpt lat="47.882760714790614" lon="11.71725864842953"><ele>677.0</ele><time>2026-04-18T11:06:19Z</time></trkpt><trkpt lat="47.88288042498457" lon="11.71729116963596"><ele>675.5</ele><time>2026-04-18T11:06:20Z</time></trkpt><trkpt lat="47.88299834805568" lon="11.717326709654563"><ele>674.0</ele><time>2026-04-18T11:06:21Z</time></trkpt><trkpt lat="47.88314087737703" lon="11.717363643097745"><ele>672.5</ele><time>2026-04-18T11:06:22Z</time></trkpt><trkpt lat="47.88329212325202" lon="11.717395736398338"><ele>671.0</ele><time>2026-04-18T11:06:23Z</time></trkpt><trkpt lat="47.88342387034396" lon="11.717408938266026"><ele>672.75</ele><time>2026-04-18T11:06:24Z</time></trkpt><trkpt lat="47.883551789463404" lon="11.717404615328709"><ele>674.5</ele><time>2026-04-18T11:06:25Z</time></trkpt><trkpt lat="47.88368054612395" lon="11.717387896247047"><ele>676.25</ele><time>2026-04-18T11:06:26Z</time></trkpt><trkpt lat="47.88381201905134" lon="11.717364711602707"><ele>678.0</ele><time>2026-04-18T11:06:27Z</time></trkpt><trkpt lat="47.88394252288584" lon="11.71732125547438"><ele>678.0</ele><time>2026-04-18T11:06:28Z</time></trkpt><trkpt lat="47.884071129455975" lon="11.717251650297884"><ele>678.0</ele><time>2026-04-18T11:06:29Z</time></trkpt><trkpt lat="47.88420745463564" lon="11.717161618447962"><ele>678.0</ele><time>2026-04-18T11:06:30Z</time></trkpt><trkpt lat="47.88434872811869" lon="11.717048487845496"><ele>678.0</ele><time>2026-04-18T11:06:31Z</time></trkpt><trkpt lat="47.884463199883754" lon="11.716925579030807"><ele>679.0</ele><time>2026-04-18T11:06:32Z</time></trkpt><trkpt lat="47.88456730814817" lon="11.716799199557931"><ele>680.0</ele><time>2026-04-18T11:06:33Z</time></trkpt><trkpt lat="47.88466597649359" lon="11.716667627999884"><ele>681.0</ele><time>2026-04-18T11:06:34Z</time></trkpt><trkpt lat="47.884762859763995" lon="11.716541885296927"><ele>682.0</ele><time>2026-04-18T11:06:35Z</time></trkpt><trkpt lat="47.88485849428536" lon="11.716428289126037"><ele>682.0</ele><time>2026-04-18T11:06:36Z</time></trkpt><trkpt lat="47.884959019354866" lon="11.716307983231298"><ele>682.0</ele><time>2026-04-18T11:06:37Z</time></trkpt><trkpt lat="47.88508385549327" lon="11.716161003704277"><ele>682.0</ele><time>2026-04-18T11:06:38Z</time></trkpt><trkpt lat="47.88520208216134" lon="11.716024915881963"><ele>682.0</ele><time>2026-04-18T11:06:39Z</time></trkpt><trkpt lat="47.88530432284324" lon="11.715906611831839"><ele>681.6</ele><time>2026-04-18T11:06:40Z</time></trkpt><trkpt lat="47.88539999812453" lon="11.71580401030246"><ele>681.2</ele><time>2026-04-18T11:06:41Z</time></trkpt><trkpt lat="47.88548654394271" lon="11.715712933523017"><ele>680.8</ele><time>2026-04-18T11:06:42Z</time></trkpt><trkpt lat="47.88556717960794" lon="11.715629288267328"><ele>680.4</ele><time>2026-04-18T11:06:43Z</time></trkpt><trkpt lat="47.88564277978283" lon="11.715550954389501"><ele>680.0</ele><time>2026-04-18T11:06:44Z</time></trkpt><trkpt lat="47.885714005738194" lon="11.715476451746921"><ele>680.0</ele><time>2026-04-18T11:06:45Z</time></trkpt><trkpt lat="47.88578400942981" lon="11.715410085639617"><ele>680.0</ele><time>2026-04-18T11:06:46Z</time></trkpt><trkpt lat="47.88584997851385" lon="11.715343776946595"><ele>680.0</ele><time>2026-04-18T11:06:47Z</time></trkpt><trkpt lat="47.88590923370695" lon="11.715283861903016"><ele>680.0</ele><time>2026-04-18T11:06:48Z</time></trkpt><trkpt lat="47.88600316148556" lon="11.715201408353787"><ele>680.0</ele><time>2026-04-18T11:06:50Z</time></trkpt><trkpt lat="47.88609272465699" lon="11.715130145122473"><ele>680.0</ele><time>2026-04-18T11:06:52Z</time></trkpt><trkpt lat="47.886190594499666" lon="11.715054690054279"><ele>678.2</ele><time>2026-04-18T11:06:54Z</time></trkpt><trkpt lat="47.886298292051144" lon="11.71499098614937"><ele>676.4</ele><time>2026-04-18T11:06:56Z</time></trkpt><trkpt lat="47.886361558442196" lon="11.714977378058052"><ele>674.5999999999999</ele><time>2026-04-18T11:06:57Z</time></trkpt><trkpt lat="47.886477659062244" lon="11.71502114745718"><ele>672.8</ele><time>2026-04-18T11:06:59Z</time></trkpt><trkpt lat="47.886535510231475" lon="11.71497441190728"><ele>671.0</ele><time>2026-04-18T11:07:00Z</time></trkpt><trkpt lat="47.88658776459578" lon="11.714810392110795"><ele>671.0</ele><time>2026-04-18T11:07:02Z</time></trkpt><trkpt lat="47.886543556713434" lon="11.714633856332897"><ele>671.0</ele><time>2026-04-18T11:07:04Z</time></trkpt><trkpt lat="47.88648913745578" lon="11.714567951356434"><ele>671.0</ele><time>2026-04-18T11:07:05Z</time></trkpt><trkpt lat="47.886420417265484" lon="11.714544086258886"><ele>671.0</ele><time>2026-04-18T11:07:06Z</time></trkpt><trkpt lat="47.886352468772465" lon="11.714567074608262"><ele>671.0</ele><time>2026-04-18T11:07:07Z</time></trkpt><trkpt lat="47.88626695371495" lon="11.714718453114866"><ele>671.0</ele><time>2026-04-18T11:07:09Z</time></trkpt><trkpt lat="47.88627759793839" lon="11.71487524373568"><ele>671.0</ele><time>2026-04-18T11:07:11Z</time></trkpt><trkpt lat="47.886363732067004" lon="11.715000292029952"><ele>671.0</ele><time>2026-04-18T11:07:13Z</time></trkpt><trkpt lat="47.886428490551246" lon="11.715018630783074"><ele>671.0</ele><time>2026-04-18T11:07:14Z</time></trkpt><trkpt lat="47.886495136647504" lon="11.714981574531196"><ele>671.0</ele><time>2026-04-18T11:07:15Z</time></trkpt><trkpt lat="47.8865442536659" lon="11.714895412003642"><ele>671.0</ele><time>2026-04-18T11:07:16Z</time></trkpt><trkpt lat="47.886569948533364" lon="11.714786500108772"><ele>671.0</ele><time>2026-04-18T11:07:17Z</time></trkpt><trkpt lat="47.88661462472378" lon="11.714696285095892"><ele>671.0</ele><time>2026-04-18T11:07:18Z</time></trkpt><trkpt lat="47.88666778777293" lon="11.714636033647945"><ele>671.0</ele><time>2026-04-18T11:07:19Z</time></trkpt><trkpt lat="47.8867325015904" lon="11.714587572411236"><ele>671.0</ele><time>2026-04-18T11:07:20Z</time></trkpt><trkpt lat="47.88680913314129" lon="11.714531641291067"><ele>671.0</ele><time>2026-04-18T11:07:21Z</time></trkpt><trkpt lat="47.88689559860167" lon="11.71447226693364"><ele>671.0</ele><time>2026-04-18T11:07:22Z</time></trkpt><trkpt lat="47.886984291023005" lon="11.714414393928214"><ele>669.5</ele><time>2026-04-18T11:07:23Z</time></trkpt><trkpt lat="47.887070166187144" lon="11.71435386254937"><ele>668.0</ele><time>2026-04-18T11:07:24Z</time></trkpt><trkpt lat="47.887165707044495" lon="11.71429600518335"><ele>666.5</ele><time>2026-04-18T11:07:25Z</time></trkpt><trkpt lat="47.88730631331151" lon="11.714207970601041"><ele>665.0</ele><time>2026-04-18T11:07:26Z</time></trkpt><trkpt lat="47.88748777469525" lon="11.71409480878221"><ele>665.0</ele><time>2026-04-18T11:07:27Z</time></trkpt><trkpt lat="47.88762649011416" lon="11.714002784817852"><ele>665.0</ele><time>2026-04-18T11:07:28Z</time></trkpt><trkpt lat="47.88775627908818" lon="11.71393052024883"><ele>665.0</ele><time>2026-04-18T11:07:29Z</time></trkpt><trkpt lat="47.88788922955364" lon="11.71386216273943"><ele>665.0</ele><time>2026-04-18T11:07:30Z</time></trkpt><trkpt lat="47.88803917077454" lon="11.713779423002338"><ele>665.0</ele><time>2026-04-18T11:07:31Z</time></trkpt><trkpt lat="47.888199321036055" lon="11.713669298843715"><ele>665.0</ele><time>2026-04-18T11:07:32Z</time></trkpt><trkpt lat="47.888336687177656" lon="11.713556909619927"><ele>665.0</ele><time>2026-04-18T11:07:33Z</time></trkpt><trkpt lat="47.88844965836734" lon="11.713398102858278"><ele>664.0</ele><time>2026-04-18T11:07:34Z</time></trkpt><trkpt lat="47.88854225720177" lon="11.713222684596412"><ele>663.0</ele><time>2026-04-18T11:07:35Z</time></trkpt><trkpt lat="47.888633904772085" lon="11.713092824244942"><ele>662.0</ele><time>2026-04-18T11:07:36Z</time></trkpt><trkpt lat="47.88868539144185" lon="11.712931858581516"><ele>661.0</ele><time>2026-04-18T11:07:37Z</time></trkpt><trkpt lat="47.888748622733544" lon="11.712776894954665"><ele>661.25</ele><time>2026-04-18T11:07:38Z</time></trkpt><trkpt lat="47.88879808237282" lon="11.712601499945062"><ele>661.5</ele><time>2026-04-18T11:07:39Z</time></trkpt><trkpt lat="47.88883595525804" lon="11.712412792162658"><ele>661.75</ele><time>2026-04-18T11:07:40Z</time></trkpt><trkpt lat="47.88886755100696" lon="11.712207433415596"><ele>662.0</ele><time>2026-04-18T11:07:41Z</time></trkpt><trkpt lat="47.88888473422055" lon="11.712018092487993"><ele>662.75</ele><time>2026-04-18T11:07:42Z</time></trkpt><trkpt lat="47.88888867974649" lon="11.711839620992444"><ele>663.5</ele><time>2026-04-18T11:07:43Z</time></trkpt><trkpt lat="47.88888028555508" lon="11.711659742342418"><ele>664.25</ele><time>2026-04-18T11:07:44Z</time></trkpt><trkpt lat="47.888884004964694" lon="11.711461079787423"><ele>665.0</ele><time>2026-04-18T11:07:45Z</time></trkpt><trkpt lat="47.88885311891336" lon="11.711244918892099"><ele>665.0</ele><time>2026-04-18T11:07:46Z</time></trkpt><trkpt lat="47.88883358201757" lon="11.711010580949596"><ele>665.0</ele><time>2026-04-18T11:07:47Z</time></trkpt><trkpt lat="47.888817900200166" lon="11.710806668599751"><ele>665.0</ele><time>2026-04-18T11:07:48Z</time></trkpt><trkpt lat="47.888804792053" lon="11.710622476846245"><ele>665.0</ele><time>2026-04-18T11:07:49Z</time></trkpt><trkpt lat="47.888792300883054" lon="11.710441433191917"><ele>665.25</ele><time>2026-04-18T11:07:50Z</time></trkpt><trkpt lat="47.888785327735235" lon="11.710238683167523"><ele>665.5</ele><time>2026-04-18T11:07:51Z</time></trkpt><trkpt lat="47.88878621940336" lon="11.71005179975033"><ele>665.75</ele><time>2026-04-18T11:07:52Z</time></trkpt><trkpt lat="47.88878815296341" lon="11.709894900533877"><ele>666.0</ele><time>2026-04-18T11:07:53Z</time></trkpt><trkpt lat="47.88879526645551" lon="11.709756424660426"><ele>666.0</ele><time>2026-04-18T11:07:54Z</time></trkpt><trkpt lat="47.88880169172846" lon="11.709628856693431"><ele>666.0</ele><time>2026-04-18T11:07:55Z</time></trkpt><trkpt lat="47.88880517307868" lon="11.709505427886372"><ele>666.0</ele><time>2026-04-18T11:07:56Z</time></trkpt><trkpt lat="47.88881957838184" lon="11.709385964383442"><ele>666.0</ele><time>2026-04-18T11:07:57Z</time></trkpt><trkpt lat="47.88883553554658" lon="11.709276308333612"><ele>666.0</ele><time>2026-04-18T11:07:58Z</time></trkpt><trkpt lat="47.88885091793112" lon="11.709182559045901"><ele>666.0</ele><time>2026-04-18T11:07:59Z</time></trkpt><trkpt lat="47.88887668485885" lon="11.709035558293992"><ele>666.8</ele><time>2026-04-18T11:08:01Z</time></trkpt><trkpt lat="47.88890079925289" lon="11.708937237442361"><ele>667.5999999999999</ele><time>2026-04-18T11:08:03Z</time></trkpt><trkpt lat="47.88894967208988" lon="11.708843556142753"><ele>668.4</ele><time>2026-04-18T11:08:05Z</time></trkpt><trkpt lat="47.889051635515756" lon="11.70877023936744"><ele>669.2</ele><time>2026-04-18T11:08:07Z</time></trkpt><trkpt lat="47.889179745526576" lon="11.708728083780818"><ele>670.0</ele><time>2026-04-18T11:08:09Z</time></trkpt><trkpt lat="47.88927218505632" lon="11.708727018243643"><ele>670.0</ele><time>2026-04-18T11:08:10Z</time></trkpt><trkpt lat="47.889384200732465" lon="11.708733215344635"><ele>670.0</ele><time>2026-04-18T11:08:11Z</time></trkpt><trkpt lat="47.889502604265594" lon="11.70875003423264"><ele>670.0</ele><time>2026-04-18T11:08:12Z</time></trkpt><trkpt lat="47.88961443626584" lon="11.708768523668292"><ele>670.0</ele><time>2026-04-18T11:08:13Z</time></trkpt><trkpt lat="47.889736175097894" lon="11.70879043361474"><ele>670.0</ele><time>2026-04-18T11:08:14Z</time></trkpt><trkpt lat="47.889898279685" lon="11.708822373879194"><ele>670.0</ele><time>2026-04-18T11:08:15Z</time></trkpt><trkpt lat="47.890058247043356" lon="11.708859818921205"><ele>670.0</ele><time>2026-04-18T11:08:16Z</time></trkpt><trkpt lat="47.89019872955567" lon="11.708912494182268"><ele>670.6666666666667</ele><time>2026-04-18T11:08:17Z</time></trkpt><trkpt lat="47.89034116279139" lon="11.708971153508323"><ele>671.3333333333334</ele><time>2026-04-18T11:08:18Z</time></trkpt><trkpt lat="47.89049028567612" lon="11.709048801559597"><ele>672.0</ele><time>2026-04-18T11:08:19Z</time></trkpt><trkpt lat="47.89063589593137" lon="11.709138296211085"><ele>672.0</ele><time>2026-04-18T11:08:20Z</time></trkpt><trkpt lat="47.89076293593499" lon="11.709235587086079"><ele>672.0</ele><time>2026-04-18T11:08:21Z</time></trkpt><trkpt lat="47.89088338556126" lon="11.709340540978342"><ele>672.0</ele><time>2026-04-18T11:08:22Z</time></trkpt><trkpt lat="47.89100282934685" lon="11.709451061729395"><ele>672.0</ele><time>2026-04-18T11:08:23Z</time></trkpt><trkpt lat="47.89112582128619" lon="11.709557867098956"><ele>671.75</ele><time>2026-04-18T11:08:24Z</time></trkpt><trkpt lat="47.89124764752939" lon="11.709666439384433"><ele>671.5</ele><time>2026-04-18T11:08:25Z</time></trkpt><trkpt lat="47.891364532698844" lon="11.709779953811692"><ele>671.25</ele><time>2026-04-18T11:08:26Z</time></trkpt><trkpt lat="47.89147758271613" lon="11.709888963335027"><ele>671.0</ele><time>2026-04-18T11:08:27Z</time></trkpt><trkpt lat="47.89158118738402" lon="11.709987706815019"><ele>671.0</ele><time>2026-04-18T11:08:28Z</time></trkpt><trkpt lat="47.89167944366937" lon="11.710089605805251"><ele>671.0</ele><time>2026-04-18T11:08:29Z</time></trkpt><trkpt lat="47.891775314591094" lon="11.710185695710857"><ele>671.0</ele><time>2026-04-18T11:08:30Z</time></trkpt><trkpt lat="47.89187346894826" lon="11.7102741305752"><ele>671.0</ele><time>2026-04-18T11:08:31Z</time></trkpt><trkpt lat="47.89197238222959" lon="11.710357627779649"><ele>669.75</ele><time>2026-04-18T11:08:32Z</time></trkpt><trkpt lat="47.8920673959438" lon="11.710449197267053"><ele>668.5</ele><time>2026-04-18T11:08:33Z</time></trkpt><trkpt lat="47.8921666245838" lon="11.710543093302896"><ele>667.25</ele><time>2026-04-18T11:08:34Z</time></trkpt><trkpt lat="47.89226981946305" lon="11.710633425890448"><ele>666.0</ele><time>2026-04-18T11:08:35Z</time></trkpt><trkpt lat="47.89236577234808" lon="11.710734755517928"><ele>666.0</ele><time>2026-04-18T11:08:36Z</time></trkpt><trkpt lat="47.892453384777134" lon="11.710841702066302"><ele>666.0</ele><time>2026-04-18T11:08:37Z</time></trkpt><trkpt lat="47.89254918677333" lon="11.710928204781839"><ele>666.0</ele><time>2026-04-18T11:08:38Z</time></trkpt><trkpt lat="47.892640788834726" lon="11.711020127849649"><ele>666.0</ele><time>2026-04-18T11:08:39Z</time></trkpt><trkpt lat="47.8927387321687" lon="11.711136878765355"><ele>666.0</ele><time>2026-04-18T11:08:40Z</time></trkpt><trkpt lat="47.89284918368327" lon="11.71129146325474"><ele>666.0</ele><time>2026-04-18T11:08:41Z</time></trkpt><trkpt lat="47.8929426345106" lon="11.711477120030846"><ele>666.0</ele><time>2026-04-18T11:08:42Z</time></trkpt><trkpt lat="47.89302118575918" lon="11.711648960645181"><ele>666.0</ele><time>2026-04-18T11:08:43Z</time></trkpt><trkpt lat="47.893101582983114" lon="11.711802571599264"><ele>665.75</ele><time>2026-04-18T11:08:44Z</time></trkpt><trkpt lat="47.89317486911436" lon="11.711946902923033"><ele>665.5</ele><time>2026-04-18T11:08:45Z</time></trkpt><trkpt lat="47.893251554287204" lon="11.712070206964212"><ele>665.25</ele><time>2026-04-18T11:08:46Z</time></trkpt><trkpt lat="47.89332250674206" lon="11.712193915405859"><ele>665.0</ele><time>2026-04-18T11:08:47Z</time></trkpt><trkpt lat="47.89339698527368" lon="11.712316461107822"><ele>665.0</ele><time>2026-04-18T11:08:48Z</time></trkpt><trkpt lat="47.893484621394116" lon="11.71241395046713"><ele>665.0</ele><time>2026-04-18T11:08:49Z</time></trkpt><trkpt lat="47.893577046046325" lon="11.712500929399335"><ele>665.0</ele><time>2026-04-18T11:08:50Z</time></trkpt><trkpt lat="47.893673068810386" lon="11.7125784181916"><ele>665.0</ele><time>2026-04-18T11:08:51Z</time></trkpt><trkpt lat="47.89377868346123" lon="11.71263549672528"><ele>665.0</ele><time>2026-04-18T11:08:52Z</time></trkpt><trkpt lat="47.8938838748766" lon="11.712703151302549"><ele>665.0</ele><time>2026-04-18T11:08:53Z</time></trkpt><trkpt lat="47.89398522749728" lon="11.712790685812461"><ele>665.0</ele><time>2026-04-18T11:08:54Z</time></trkpt><trkpt lat="47.89407808940136" lon="11.71289080432725"><ele>665.0</ele><time>2026-04-18T11:08:55Z</time></trkpt><trkpt lat="47.89414964787289" lon="11.713040018521298"><ele>665.0</ele><time>2026-04-18T11:08:56Z</time></trkpt><trkpt lat="47.894190833654015" lon="11.713226819442891"><ele>665.0</ele><time>2026-04-18T11:08:57Z</time></trkpt><trkpt lat="47.89419253737246" lon="11.713423697288931"><ele>665.0</ele><time>2026-04-18T11:08:58Z</time></trkpt><trkpt lat="47.89416234677895" lon="11.713607454324636"><ele>665.0</ele><time>2026-04-18T11:08:59Z</time></trkpt><trkpt lat="47.894142433003864" lon="11.713779612132411"><ele>665.0</ele><time>2026-04-18T11:09:00Z</time></trkpt><trkpt lat="47.89413884971932" lon="11.713937963988974"><ele>664.8</ele><time>2026-04-18T11:09:01Z</time></trkpt><trkpt lat="47.8941200172436" lon="11.714091649860503"><ele>664.6</ele><time>2026-04-18T11:09:02Z</time></trkpt><trkpt lat="47.8941277580051" lon="11.71426949561585"><ele>664.4000000000001</ele><time>2026-04-18T11:09:03Z</time></trkpt><trkpt lat="47.894125901026385" lon="11.714383233124986"><ele>664.2</ele><time>2026-04-18T11:09:04Z</time></trkpt><trkpt lat="47.89415416738411" lon="11.714521952795959"><ele>664.0</ele><time>2026-04-18T11:09:05Z</time></trkpt><trkpt lat="47.89420563743273" lon="11.714650069517225"><ele>663.8000000000001</ele><time>2026-04-18T11:09:06Z</time></trkpt><trkpt lat="47.89426491560453" lon="11.714778498892601"><ele>663.6</ele><time>2026-04-18T11:09:07Z</time></trkpt><trkpt lat="47.8943318038206" lon="11.714901974632202"><ele>663.4</ele><time>2026-04-18T11:09:08Z</time></trkpt><trkpt lat="47.894410469772374" lon="11.715007107793538"><ele>663.2</ele><time>2026-04-18T11:09:09Z</time></trkpt><trkpt lat="47.89448721412353" lon="11.715115861910624"><ele>663.0</ele><time>2026-04-18T11:09:10Z</time></trkpt><trkpt lat="47.8945771025215" lon="11.715230522732279"><ele>662.5999999999999</ele><time>2026-04-18T11:09:11Z</time></trkpt><trkpt lat="47.89467363327856" lon="11.715341915724602"><ele>662.1999999999999</ele><time>2026-04-18T11:09:12Z</time></trkpt><trkpt lat="47.8947389291019" lon="11.715421825515884"><ele>661.8</ele><time>2026-04-18T11:09:13Z</time></trkpt><trkpt lat="47.89481514815364" lon="11.715524235672497"><ele>661.4</ele><time>2026-04-18T11:09:14Z</time></trkpt><trkpt lat="47.894904575181506" lon="11.715649009027885"><ele>661.0</ele><time>2026-04-18T11:09:15Z</time></trkpt><trkpt lat="47.89499444072397" lon="11.715772189754825"><ele>661.0</ele><time>2026-04-18T11:09:16Z</time></trkpt><trkpt lat="47.895086593539276" lon="11.71590099190751"><ele>661.0</ele><time>2026-04-18T11:09:17Z</time></trkpt><trkpt lat="47.895188108208465" lon="11.716026164101306"><ele>661.0</ele><time>2026-04-18T11:09:18Z</time></trkpt><trkpt lat="47.89528754137188" lon="11.716157196862278"><ele>661.0</ele><time>2026-04-18T11:09:19Z</time></trkpt><trkpt lat="47.8953920595633" lon="11.716268065252478"><ele>661.4</ele><time>2026-04-18T11:09:20Z</time></trkpt><trkpt lat="47.89548211576676" lon="11.716370937378462"><ele>661.8</ele><time>2026-04-18T11:09:21Z</time></trkpt><trkpt lat="47.89555691822963" lon="11.716477978669593"><ele>662.1999999999999</ele><time>2026-04-18T11:09:22Z</time></trkpt><trkpt lat="47.895633521434426" lon="11.716598669914932"><ele>662.5999999999999</ele><time>2026-04-18T11:09:23Z</time></trkpt><trkpt lat="47.89569910527691" lon="11.716744150673124"><ele>663.0</ele><time>2026-04-18T11:09:24Z</time></trkpt><trkpt lat="47.895762841815376" lon="11.716885962320832"><ele>662.5</ele><time>2026-04-18T11:09:25Z</time></trkpt><trkpt lat="47.895826620519465" lon="11.71703532547677"><ele>662.0</ele><time>2026-04-18T11:09:26Z</time></trkpt><trkpt lat="47.89590390663395" lon="11.717209897907853"><ele>661.5</ele><time>2026-04-18T11:09:27Z</time></trkpt><trkpt lat="47.89598708538234" lon="11.717357025410259"><ele>661.0</ele><time>2026-04-18T11:09:28Z</time></trkpt><trkpt lat="47.89609449039997" lon="11.717462664365668"><ele>661.4</ele><time>2026-04-18T11:09:29Z</time></trkpt><trkpt lat="47.89619423964996" lon="11.717556275495815"><ele>661.8</ele><time>2026-04-18T11:09:30Z</time></trkpt><trkpt lat="47.89626636203147" lon="11.717695714170237"><ele>662.1999999999999</ele><time>2026-04-18T11:09:31Z</time></trkpt><trkpt lat="47.89632371599182" lon="11.717797783260972"><ele>662.5999999999999</ele><time>2026-04-18T11:09:32Z</time></trkpt><trkpt lat="47.896371989446585" lon="11.717879358240912"><ele>663.0</ele><time>2026-04-18T11:09:33Z</time></trkpt><trkpt lat="47.89643013259346" lon="11.718006235318885"><ele>663.0</ele><time>2026-04-18T11:09:35Z</time></trkpt><trkpt lat="47.896472826146145" lon="11.718106771562267"><ele>663.0</ele><time>2026-04-18T11:09:37Z</time></trkpt><trkpt lat="47.896497896091624" lon="11.71823461961708"><ele>663.0</ele><time>2026-04-18T11:09:39Z</time></trkpt><trkpt lat="47.896534286527114" lon="11.718348611652152"><ele>663.0</ele><time>2026-04-18T11:09:41Z</time></trkpt><trkpt lat="47.896554325781516" lon="11.718446345117476"><ele>663.0</ele><time>2026-04-18T11:09:43Z</time></trkpt><trkpt lat="47.89658142670965" lon="11.71857240578456"><ele>663.0</ele><time>2026-04-18T11:09:46Z</time></trkpt><trkpt lat="47.89661028038429" lon="11.718733211817725"><ele>663.1666666666666</ele><time>2026-04-18T11:09:48Z</time></trkpt><trkpt lat="47.896634161926976" lon="11.718837034171466"><ele>663.3333333333334</ele><time>2026-04-18T11:09:49Z</time></trkpt><trkpt lat="47.89666900295367" lon="11.718933729328443"><ele>663.5</ele><time>2026-04-18T11:09:50Z</time></trkpt><trkpt lat="47.89670447249607" lon="11.719018203666785"><ele>663.6666666666667</ele><time>2026-04-18T11:09:51Z</time></trkpt><trkpt lat="47.89674443826675" lon="11.719119142552715"><ele>663.8333333333334</ele><time>2026-04-18T11:09:52Z</time></trkpt><trkpt lat="47.89679090974697" lon="11.719239634955388"><ele>664.0</ele><time>2026-04-18T11:09:53Z</time></trkpt><trkpt lat="47.8968406426795" lon="11.719354784641968"><ele>663.8333333333334</ele><time>2026-04-18T11:09:54Z</time></trkpt><trkpt lat="47.89687621754306" lon="11.719438652966078"><ele>663.6666666666667</ele><time>2026-04-18T11:09:55Z</time></trkpt><trkpt lat="47.896915457665415" lon="11.71952965854853"><ele>663.5</ele><time>2026-04-18T11:09:57Z</time></trkpt><trkpt lat="47.89696001462925" lon="11.719605720221177"><ele>663.3333333333334</ele><time>2026-04-18T11:09:59Z</time></trkpt><trkpt lat="47.89702634841367" lon="11.719709596751388"><ele>663.1666666666666</ele><time>2026-04-18T11:10:03Z</time></trkpt><trkpt lat="47.897077699111804" lon="11.719778535561462"><ele>663.0</ele><time>2026-04-18T11:10:04Z</time></trkpt><trkpt lat="47.89715206664736" lon="11.719846830153594"><ele>663.0</ele><time>2026-04-18T11:10:06Z</time></trkpt><trkpt lat="47.89722234459901" lon="11.719904566073552"><ele>663.0</ele><time>2026-04-18T11:11:02Z</time></trkpt><trkpt lat="47.89732143463882" lon="11.720006895711236"><ele>663.0</ele><time>2026-04-18T11:11:04Z</time></trkpt><trkpt lat="47.897382060266395" lon="11.72005601333064"><ele>663.0</ele><time>2026-04-18T11:11:05Z</time></trkpt><trkpt lat="47.897474294785546" lon="11.720156411314083"><ele>663.0</ele><time>2026-04-18T11:11:07Z</time></trkpt><trkpt lat="47.897565128330044" lon="11.72024519378883"><ele>662.8</ele><time>2026-04-18T11:11:09Z</time></trkpt><trkpt lat="47.897651651563045" lon="11.720338357417987"><ele>662.5999999999999</ele><time>2026-04-18T11:11:11Z</time></trkpt><trkpt lat="47.89774827231357" lon="11.720448976714549"><ele>662.4000000000001</ele><time>2026-04-18T11:11:13Z</time></trkpt><trkpt lat="47.89780691033522" lon="11.720517895008312"><ele>662.2</ele><time>2026-04-18T11:11:14Z</time></trkpt><trkpt lat="47.89786906165114" lon="11.720594480237072"><ele>662.0</ele><time>2026-04-18T11:11:15Z</time></trkpt><trkpt lat="47.89793638685206" lon="11.720694907804932"><ele>662.0</ele><time>2026-04-18T11:11:16Z</time></trkpt><trkpt lat="47.89801555351285" lon="11.720817782842582"><ele>662.0</ele><time>2026-04-18T11:11:17Z</time></trkpt><trkpt lat="47.89810877529989" lon="11.720948386788825"><ele>662.0</ele><time>2026-04-18T11:11:18Z</time></trkpt><trkpt lat="47.89819369077274" lon="11.721085878692817"><ele>662.0</ele><time>2026-04-18T11:11:19Z</time></trkpt><trkpt lat="47.898265711563546" lon="11.72121973903833"><ele>662.0</ele><time>2026-04-18T11:11:20Z</time></trkpt><trkpt lat="47.89835227561965" lon="11.721370911479514"><ele>662.0</ele><time>2026-04-18T11:11:21Z</time></trkpt><trkpt lat="47.89844199293831" lon="11.721528620120873"><ele>662.0</ele><time>2026-04-18T11:11:22Z</time></trkpt><trkpt lat="47.89851173932052" lon="11.721656788993661"><ele>662.0</ele><time>2026-04-18T11:11:23Z</time></trkpt><trkpt lat="47.89858981550243" lon="11.721790778956098"><ele>662.25</ele><time>2026-04-18T11:11:24Z</time></trkpt><trkpt lat="47.89867898388303" lon="11.721945958438331"><ele>662.5</ele><time>2026-04-18T11:11:25Z</time></trkpt><trkpt lat="47.89876463826599" lon="11.722099165880897"><ele>662.75</ele><time>2026-04-18T11:11:26Z</time></trkpt><trkpt lat="47.89882916294843" lon="11.722252990298008"><ele>663.0</ele><time>2026-04-18T11:11:27Z</time></trkpt><trkpt lat="47.89893685192124" lon="11.722459295288502"><ele>663.0</ele><time>2026-04-18T11:11:28Z</time></trkpt><trkpt lat="47.89902833172804" lon="11.722631687304112"><ele>663.0</ele><time>2026-04-18T11:11:29Z</time></trkpt><trkpt lat="47.899104160819356" lon="11.722770568238031"><ele>663.0</ele><time>2026-04-18T11:11:30Z</time></trkpt><trkpt lat="47.899192171049016" lon="11.72289700768348"><ele>663.0</ele><time>2026-04-18T11:11:31Z</time></trkpt><trkpt lat="47.899269818600345" lon="11.723050489539139"><ele>663.0</ele><time>2026-04-18T11:11:32Z</time></trkpt><trkpt lat="47.899348936910556" lon="11.723208935445392"><ele>663.0</ele><time>2026-04-18T11:11:33Z</time></trkpt><trkpt lat="47.8994314191228" lon="11.72336655806544"><ele>663.0</ele><time>2026-04-18T11:11:34Z</time></trkpt><trkpt lat="47.89951731757939" lon="11.723530276242936"><ele>663.0</ele><time>2026-04-18T11:11:35Z</time></trkpt><trkpt lat="47.899602712137906" lon="11.723697832669968"><ele>663.0</ele><time>2026-04-18T11:11:36Z</time></trkpt><trkpt lat="47.899689463731335" lon="11.723873798279865"><ele>663.0</ele><time>2026-04-18T11:11:37Z</time></trkpt><trkpt lat="47.899770649750444" lon="11.724051720023322"><ele>663.0</ele><time>2026-04-18T11:11:38Z</time></trkpt><trkpt lat="47.89983778407687" lon="11.72420959769605"><ele>663.0</ele><time>2026-04-18T11:11:39Z</time></trkpt><trkpt lat="47.89990239986832" lon="11.72436935815769"><ele>662.5</ele><time>2026-04-18T11:11:40Z</time></trkpt><trkpt lat="47.89996561799944" lon="11.724540548926354"><ele>662.0</ele><time>2026-04-18T11:11:41Z</time></trkpt><trkpt lat="47.9000399429397" lon="11.724736900483531"><ele>661.5</ele><time>2026-04-18T11:11:42Z</time></trkpt><trkpt lat="47.90011095538717" lon="11.724922470864911"><ele>661.0</ele><time>2026-04-18T11:11:43Z</time></trkpt><trkpt lat="47.90017938519575" lon="11.725108835873277"><ele>660.3333333333334</ele><time>2026-04-18T11:11:44.001Z</time></trkpt><trkpt lat="47.90025654792912" lon="11.72530729449344"><ele>659.6666666666666</ele><time>2026-04-18T11:11:45.001Z</time></trkpt><trkpt lat="47.900335569193814" lon="11.725494528878833"><ele>659.0</ele><time>2026-04-18T11:11:46.001Z</time></trkpt><trkpt lat="47.900417063837494" lon="11.725691942010215"><ele>659.0</ele><time>2026-04-18T11:11:47.001Z</time></trkpt><trkpt lat="47.900501206177786" lon="11.725884941110404"><ele>659.0</ele><time>2026-04-18T11:11:48.001Z</time></trkpt><trkpt lat="47.90058847661043" lon="11.726085503267615"><ele>659.0</ele><time>2026-04-18T11:11:49.001Z</time></trkpt><trkpt lat="47.900681083749625" lon="11.726288795649497"><ele>658.6666666666666</ele><time>2026-04-18T11:11:50.001Z</time></trkpt><trkpt lat="47.90078249593108" lon="11.726512647107516"><ele>658.3333333333334</ele><time>2026-04-18T11:11:51.001Z</time></trkpt><trkpt lat="47.90087215239709" lon="11.72671140745779"><ele>658.0</ele><time>2026-04-18T11:11:52.001Z</time></trkpt><trkpt lat="47.90095233397922" lon="11.726893564158912"><ele>658.25</ele><time>2026-04-18T11:11:53.001Z</time></trkpt><trkpt lat="47.90102827873609" lon="11.727063966106217"><ele>658.5</ele><time>2026-04-18T11:11:54.001Z</time></trkpt><trkpt lat="47.901103279829194" lon="11.727230312380332"><ele>658.75</ele><time>2026-04-18T11:11:55.001Z</time></trkpt><trkpt lat="47.90118184959439" lon="11.727401109716608"><ele>659.0</ele><time>2026-04-18T11:11:56.001Z</time></trkpt><trkpt lat="47.901265828318536" lon="11.727572409118226"><ele>658.6666666666666</ele><time>2026-04-18T11:11:57.001Z</time></trkpt><trkpt lat="47.90136234871606" lon="11.72775122788117"><ele>658.3333333333334</ele><time>2026-04-18T11:11:58.001Z</time></trkpt><trkpt lat="47.90145076801883" lon="11.727943960010034"><ele>658.0</ele><time>2026-04-18T11:11:59.001Z</time></trkpt><trkpt lat="47.90153410325336" lon="11.72815037366542"><ele>658.0</ele><time>2026-04-18T11:12:00.001Z</time></trkpt><trkpt lat="47.90161719142665" lon="11.728363993728806"><ele>658.0</ele><time>2026-04-18T11:12:01.001Z</time></trkpt><trkpt lat="47.901694231436664" lon="11.7285590157438"><ele>658.0</ele><time>2026-04-18T11:12:02.001Z</time></trkpt><trkpt lat="47.901766244737956" lon="11.728743429281707"><ele>657.75</ele><time>2026-04-18T11:12:03.001Z</time></trkpt><trkpt lat="47.90183410205277" lon="11.728917276430595"><ele>657.5</ele><time>2026-04-18T11:12:04.001Z</time></trkpt><trkpt lat="47.90190041860335" lon="11.729082739252677"><ele>657.25</ele><time>2026-04-18T11:12:05.001Z</time></trkpt><trkpt lat="47.90196495678096" lon="11.729244589476064"><ele>657.0</ele><time>2026-04-18T11:12:06.001Z</time></trkpt><trkpt lat="47.902030276353635" lon="11.729399272550573"><ele>657.5</ele><time>2026-04-18T11:12:07.001Z</time></trkpt><trkpt lat="47.90209374607353" lon="11.729553277779585"><ele>658.0</ele><time>2026-04-18T11:12:08.001Z</time></trkpt><trkpt lat="47.90215422460536" lon="11.729705638379464"><ele>658.5</ele><time>2026-04-18T11:12:09.001Z</time></trkpt><trkpt lat="47.902214473428096" lon="11.729857413511183"><ele>659.0</ele><time>2026-04-18T11:12:10.001Z</time></trkpt><trkpt lat="47.90227439240237" lon="11.730014668727705"><ele>659.0</ele><time>2026-04-18T11:12:11.001Z</time></trkpt><trkpt lat="47.902335377401876" lon="11.730179047451026"><ele>659.0</ele><time>2026-04-18T11:12:12Z</time></trkpt><trkpt lat="47.90239777050107" lon="11.73034409955291"><ele>659.0</ele><time>2026-04-18T11:12:13Z</time></trkpt><trkpt lat="47.902460274074045" lon="11.73051149028485"><ele>659.0</ele><time>2026-04-18T11:12:14Z</time></trkpt><trkpt lat="47.90252033475194" lon="11.73067565034399"><ele>659.0</ele><time>2026-04-18T11:12:15Z</time></trkpt><trkpt lat="47.9025757302226" lon="11.730836952369582"><ele>659.0</ele><time>2026-04-18T11:12:16Z</time></trkpt><trkpt lat="47.90262778601078" lon="11.730985487641103"><ele>659.0</ele><time>2026-04-18T11:12:17Z</time></trkpt><trkpt lat="47.90267427506327" lon="11.731117725722747"><ele>659.0</ele><time>2026-04-18T11:12:18Z</time></trkpt><trkpt lat="47.9027171400155" lon="11.731252862484084"><ele>659.0</ele><time>2026-04-18T11:12:19Z</time></trkpt><trkpt lat="47.90275485794687" lon="11.731394177346564"><ele>659.5</ele><time>2026-04-18T11:12:20Z</time></trkpt><trkpt lat="47.90279623776732" lon="11.731538063423097"><ele>660.0</ele><time>2026-04-18T11:12:21Z</time></trkpt><trkpt lat="47.90284582925442" lon="11.731688455704244"><ele>660.5</ele><time>2026-04-18T11:12:22Z</time></trkpt><trkpt lat="47.90290113327962" lon="11.731856061126713"><ele>661.0</ele><time>2026-04-18T11:12:23Z</time></trkpt><trkpt lat="47.90295206177601" lon="11.73201644319432"><ele>660.3333333333334</ele><time>2026-04-18T11:12:24Z</time></trkpt><trkpt lat="47.903001248206216" lon="11.73216664206606"><ele>659.6666666666667</ele><time>2026-04-18T11:12:25Z</time></trkpt><trkpt lat="47.90304035911919" lon="11.73229229824678"><ele>659.0</ele><time>2026-04-18T11:12:26Z</time></trkpt><trkpt lat="47.90307648445569" lon="11.73239878275962"><ele>658.3333333333334</ele><time>2026-04-18T11:12:27Z</time></trkpt><trkpt lat="47.903107738781166" lon="11.73249040989215"><ele>657.6666666666666</ele><time>2026-04-18T11:12:28Z</time></trkpt><trkpt lat="47.90314200833" lon="11.73259593677604"><ele>657.0</ele><time>2026-04-18T11:12:29Z</time></trkpt><trkpt lat="47.9031829712683" lon="11.732704775289054"><ele>657.0</ele><time>2026-04-18T11:12:30Z</time></trkpt><trkpt lat="47.90324274576325" lon="11.732799720636288"><ele>657.0</ele><time>2026-04-18T11:12:31Z</time></trkpt><trkpt lat="47.90333128332355" lon="11.732872136873066"><ele>657.0</ele><time>2026-04-18T11:12:32Z</time></trkpt><trkpt lat="47.90341801155058" lon="11.732924150500637"><ele>657.0</ele><time>2026-04-18T11:12:33Z</time></trkpt><trkpt lat="47.903510313021094" lon="11.732933341859958"><ele>657.0</ele><time>2026-04-18T11:12:34Z</time></trkpt><trkpt lat="47.903606470868915" lon="11.732923790134786"><ele>656.5</ele><time>2026-04-18T11:12:35Z</time></trkpt><trkpt lat="47.90371574567842" lon="11.732916782241377"><ele>656.0</ele><time>2026-04-18T11:12:36Z</time></trkpt><trkpt lat="47.903845817312764" lon="11.732827217914757"><ele>655.5</ele><time>2026-04-18T11:12:37Z</time></trkpt><trkpt lat="47.9039776850757" lon="11.732735859842332"><ele>655.0</ele><time>2026-04-18T11:12:38Z</time></trkpt><trkpt lat="47.904084292080476" lon="11.732643833438102"><ele>655.0</ele><time>2026-04-18T11:12:39Z</time></trkpt><trkpt lat="47.90418501523205" lon="11.732549729334654"><ele>655.0</ele><time>2026-04-18T11:12:40Z</time></trkpt><trkpt lat="47.904287850804344" lon="11.732455706507025"><ele>655.0</ele><time>2026-04-18T11:12:41Z</time></trkpt><trkpt lat="47.904399491529794" lon="11.732360332815468"><ele>655.0</ele><time>2026-04-18T11:12:42Z</time></trkpt><trkpt lat="47.90451625610485" lon="11.732254842166594"><ele>654.75</ele><time>2026-04-18T11:12:43Z</time></trkpt><trkpt lat="47.9046404130425" lon="11.732147916550701"><ele>654.5</ele><time>2026-04-18T11:12:44Z</time></trkpt><trkpt lat="47.904772331357435" lon="11.732049895363913"><ele>654.25</ele><time>2026-04-18T11:12:45Z</time></trkpt><trkpt lat="47.904909229188114" lon="11.731964022329334"><ele>654.0</ele><time>2026-04-18T11:12:46Z</time></trkpt><trkpt lat="47.9050511441183" lon="11.731891682406221"><ele>654.3333333333334</ele><time>2026-04-18T11:12:47Z</time></trkpt><trkpt lat="47.90520004982156" lon="11.731829421595872"><ele>654.6666666666667</ele><time>2026-04-18T11:12:48Z</time></trkpt><trkpt lat="47.90535333210606" lon="11.731777879972146"><ele>655.0</ele><time>2026-04-18T11:12:48.999Z</time></trkpt><trkpt lat="47.90551050049266" lon="11.731734471120973"><ele>655.0</ele><time>2026-04-18T11:12:49.999Z</time></trkpt><trkpt lat="47.90566984972486" lon="11.73170068168679"><ele>655.0</ele><time>2026-04-18T11:12:50.999Z</time></trkpt><trkpt lat="47.90583114429313" lon="11.731669179331908"><ele>655.0</ele><time>2026-04-18T11:12:51.999Z</time></trkpt><trkpt lat="47.905988970809226" lon="11.731634529431886"><ele>654.6666666666667</ele><time>2026-04-18T11:12:52.999Z</time></trkpt><trkpt lat="47.90614318569965" lon="11.73160155736381"><ele>654.3333333333334</ele><time>2026-04-18T11:12:53.999Z</time></trkpt><trkpt lat="47.906292234678446" lon="11.731572063354491"><ele>654.0</ele><time>2026-04-18T11:12:54.999Z</time></trkpt><trkpt lat="47.906440072545905" lon="11.731543503444435"><ele>654.0</ele><time>2026-04-18T11:12:55.999Z</time></trkpt><trkpt lat="47.906585403523884" lon="11.731511613940876"><ele>654.0</ele><time>2026-04-18T11:12:56.999Z</time></trkpt><trkpt lat="47.90673230248071" lon="11.731477674548136"><ele>654.0</ele><time>2026-04-18T11:12:57.999Z</time></trkpt><trkpt lat="47.906882493329896" lon="11.731445795932265"><ele>654.0</ele><time>2026-04-18T11:12:58.999Z</time></trkpt><trkpt lat="47.90703052981683" lon="11.731413140179324"><ele>653.6666666666666</ele><time>2026-04-18T11:12:59.999Z</time></trkpt><trkpt lat="47.90717687094973" lon="11.731375789927515"><ele>653.3333333333333</ele><time>2026-04-18T11:13:00.999Z</time></trkpt><trkpt lat="47.90732801151515" lon="11.731378440676076"><ele>653.0</ele><time>2026-04-18T11:13:01.999Z</time></trkpt><trkpt lat="47.90749037873162" lon="11.731429784987533"><ele>652.0</ele><time>2026-04-18T11:13:02.999Z</time></trkpt><trkpt lat="47.907646610719105" lon="11.731505163626824"><ele>651.0</ele><time>2026-04-18T11:13:03.999Z</time></trkpt><trkpt lat="47.90779593213993" lon="11.731570594484415"><ele>650.0</ele><time>2026-04-18T11:13:04.999Z</time></trkpt><trkpt lat="47.90793952661179" lon="11.731643985356838"><ele>650.0</ele><time>2026-04-18T11:13:05.999Z</time></trkpt><trkpt lat="47.90808118276521" lon="11.73170200466341"><ele>650.0</ele><time>2026-04-18T11:13:06.999Z</time></trkpt><trkpt lat="47.90822248149931" lon="11.731761562705941"><ele>650.0</ele><time>2026-04-18T11:13:07.999Z</time></trkpt><trkpt lat="47.9083635682904" lon="11.731824722540068"><ele>650.0</ele><time>2026-04-18T11:13:08.999Z</time></trkpt><trkpt lat="47.908513999788894" lon="11.731890262616114"><ele>648.6666666666666</ele><time>2026-04-18T11:13:09.999Z</time></trkpt><trkpt lat="47.908665540326474" lon="11.731960794436283"><ele>647.3333333333334</ele><time>2026-04-18T11:13:10.999Z</time></trkpt><trkpt lat="47.908816220518155" lon="11.732027659906915"><ele>646.0</ele><time>2026-04-18T11:13:11.999Z</time></trkpt><trkpt lat="47.90896677513029" lon="11.732092756473858"><ele>646.0</ele><time>2026-04-18T11:13:12.999Z</time></trkpt><trkpt lat="47.909110957314084" lon="11.73216014713801"><ele>646.0</ele><time>2026-04-18T11:13:13.999Z</time></trkpt><trkpt lat="47.909250195666836" lon="11.73222724412599"><ele>646.0</ele><time>2026-04-18T11:13:14.999Z</time></trkpt><trkpt lat="47.909388534032" lon="11.732294390362682"><ele>646.0</ele><time>2026-04-18T11:13:15.999Z</time></trkpt><trkpt lat="47.90952588533395" lon="11.73236487796431"><ele>645.0</ele><time>2026-04-18T11:13:16.999Z</time></trkpt><trkpt lat="47.90965939673682" lon="11.732444743932836"><ele>644.0</ele><time>2026-04-18T11:13:17.999Z</time></trkpt><trkpt lat="47.9098066020858" lon="11.732538097712958"><ele>643.0</ele><time>2026-04-18T11:13:18.999Z</time></trkpt><trkpt lat="47.90997132731793" lon="11.732646518139449"><ele>641.6666666666667</ele><time>2026-04-18T11:13:19.999Z</time></trkpt><trkpt lat="47.9101170859402" lon="11.732757647915395"><ele>640.3333333333334</ele><time>2026-04-18T11:13:20.999Z</time></trkpt><trkpt lat="47.91025936229591" lon="11.732874139994948"><ele>639.0</ele><time>2026-04-18T11:13:21.999Z</time></trkpt><trkpt lat="47.910399709988745" lon="11.732991351579276"><ele>639.0</ele><time>2026-04-18T11:13:22.999Z</time></trkpt><trkpt lat="47.910534547136706" lon="11.733115087053518"><ele>639.0</ele><time>2026-04-18T11:13:23.999Z</time></trkpt><trkpt lat="47.91066684710484" lon="11.733247125111037"><ele>639.0</ele><time>2026-04-18T11:13:24.999Z</time></trkpt><trkpt lat="47.91080568063814" lon="11.733384533430957"><ele>640.3333333333334</ele><time>2026-04-18T11:13:25.999Z</time></trkpt><trkpt lat="47.91094622288192" lon="11.733537616871278"><ele>641.6666666666667</ele><time>2026-04-18T11:13:26.999Z</time></trkpt><trkpt lat="47.91108747767588" lon="11.733725074041997"><ele>643.0</ele><time>2026-04-18T11:13:27.999Z</time></trkpt><trkpt lat="47.911213280488525" lon="11.733922554774457"><ele>643.0</ele><time>2026-04-18T11:13:28.999Z</time></trkpt><trkpt lat="47.91132132192531" lon="11.734121536204512"><ele>643.0</ele><time>2026-04-18T11:13:29.999Z</time></trkpt><trkpt lat="47.91140863663079" lon="11.734314937406491"><ele>643.0</ele><time>2026-04-18T11:13:30.999Z</time></trkpt><trkpt lat="47.91148418332116" lon="11.734513255837554"><ele>642.6666666666667</ele><time>2026-04-18T11:13:32Z</time></trkpt><trkpt lat="47.91155241498026" lon="11.734727502313882"><ele>642.3333333333334</ele><time>2026-04-18T11:13:33Z</time></trkpt><trkpt lat="47.91161795260266" lon="11.734971104390853"><ele>642.0</ele><time>2026-04-18T11:13:34Z</time></trkpt><trkpt lat="47.91168241429114" lon="11.73523295781689"><ele>643.6666666666666</ele><time>2026-04-18T11:13:35Z</time></trkpt><trkpt lat="47.911745409093335" lon="11.735485541773807"><ele>645.3333333333333</ele><time>2026-04-18T11:13:36Z</time></trkpt><trkpt lat="47.911809065191534" lon="11.735736724669927"><ele>647.0</ele><time>2026-04-18T11:13:37Z</time></trkpt><trkpt lat="47.91187364553777" lon="11.735994270437685"><ele>647.3333333333333</ele><time>2026-04-18T11:13:38Z</time></trkpt><trkpt lat="47.911941828783256" lon="11.736253935348516"><ele>647.6666666666666</ele><time>2026-04-18T11:13:39Z</time></trkpt><trkpt lat="47.91201672653007" lon="11.736504877688587"><ele>648.0</ele><time>2026-04-18T11:13:40Z</time></trkpt><trkpt lat="47.91209945796897" lon="11.7367489381975"><ele>647.0</ele><time>2026-04-18T11:13:41Z</time></trkpt><trkpt lat="47.91218986805928" lon="11.73697893118491"><ele>646.0</ele><time>2026-04-18T11:13:42Z</time></trkpt><trkpt lat="47.91228290457076" lon="11.737196534549186"><ele>645.0</ele><time>2026-04-18T11:13:43Z</time></trkpt><trkpt lat="47.912377900990805" lon="11.737410731909236"><ele>645.0</ele><time>2026-04-18T11:13:44Z</time></trkpt><trkpt lat="47.91247602925782" lon="11.73762865020243"><ele>645.0</ele><time>2026-04-18T11:13:45Z</time></trkpt><trkpt lat="47.91258235077362" lon="11.737859166369773"><ele>645.0</ele><time>2026-04-18T11:13:46Z</time></trkpt><trkpt lat="47.91269498828727" lon="11.738097966455696"><ele>646.6666666666666</ele><time>2026-04-18T11:13:47Z</time></trkpt><trkpt lat="47.91279946260863" lon="11.738321875166015"><ele>648.3333333333333</ele><time>2026-04-18T11:13:48Z</time></trkpt><trkpt lat="47.91289858003167" lon="11.738544642726453"><ele>650.0</ele><time>2026-04-18T11:13:49Z</time></trkpt><trkpt lat="47.91299990738385" lon="11.738776194713939"><ele>650.6666666666666</ele><time>2026-04-18T11:13:50Z</time></trkpt><trkpt lat="47.91310944192719" lon="11.739020567315116"><ele>651.3333333333334</ele><time>2026-04-18T11:13:51Z</time></trkpt><trkpt lat="47.9132331058224" lon="11.73929594801037"><ele>652.0</ele><time>2026-04-18T11:13:52Z</time></trkpt><trkpt lat="47.91336344545916" lon="11.73958153788239"><ele>651.3333333333334</ele><time>2026-04-18T11:13:53Z</time></trkpt><trkpt lat="47.91348801822524" lon="11.739860229594953"><ele>650.6666666666666</ele><time>2026-04-18T11:13:54Z</time></trkpt><trkpt lat="47.91361021601508" lon="11.740132150422728"><ele>650.0</ele><time>2026-04-18T11:13:55Z</time></trkpt><trkpt lat="47.91373070124296" lon="11.740396382037966"><ele>649.6666666666666</ele><time>2026-04-18T11:13:56Z</time></trkpt><trkpt lat="47.913848947142604" lon="11.740653953326728"><ele>649.3333333333334</ele><time>2026-04-18T11:13:57Z</time></trkpt><trkpt lat="47.913958788803484" lon="11.740910175016932"><ele>649.0</ele><time>2026-04-18T11:13:58Z</time></trkpt><trkpt lat="47.914066759290236" lon="11.741161495389496"><ele>649.3333333333334</ele><time>2026-04-18T11:13:59Z</time></trkpt><trkpt lat="47.914182694181214" lon="11.741408418862674"><ele>649.6666666666666</ele><time>2026-04-18T11:14:00Z</time></trkpt><trkpt lat="47.914299088597375" lon="11.741663493649922"><ele>650.0</ele><time>2026-04-18T11:14:01Z</time></trkpt><trkpt lat="47.914422810871564" lon="11.741932208624503"><ele>649.0</ele><time>2026-04-18T11:14:02Z</time></trkpt><trkpt lat="47.914544876335135" lon="11.742213670244325"><ele>648.0</ele><time>2026-04-18T11:14:03Z</time></trkpt><trkpt lat="47.91466654189257" lon="11.742489934012216"><ele>647.0</ele><time>2026-04-18T11:14:04Z</time></trkpt><trkpt lat="47.91479472475557" lon="11.742773896636757"><ele>645.0</ele><time>2026-04-18T11:14:05Z</time></trkpt><trkpt lat="47.914921904291134" lon="11.743054645073306"><ele>643.0</ele><time>2026-04-18T11:14:06Z</time></trkpt><trkpt lat="47.91504823013397" lon="11.743330385072214"><ele>645.0</ele><time>2026-04-18T11:14:07Z</time></trkpt><trkpt lat="47.915166399190625" lon="11.743600946078887"><ele>647.0</ele><time>2026-04-18T11:14:08Z</time></trkpt><trkpt lat="47.915285953101375" lon="11.743871879934005"><ele>649.0</ele><time>2026-04-18T11:14:09Z</time></trkpt><trkpt lat="47.91541151170168" lon="11.744151253993337"><ele>648.5</ele><time>2026-04-18T11:14:10Z</time></trkpt><trkpt lat="47.915539867195854" lon="11.744433447010142"><ele>648.0</ele><time>2026-04-18T11:14:11Z</time></trkpt><trkpt lat="47.91566845165409" lon="11.744701553204667"><ele>648.0</ele><time>2026-04-18T11:14:12Z</time></trkpt><trkpt lat="47.91578821465194" lon="11.744962034244962"><ele>648.0</ele><time>2026-04-18T11:14:13Z</time></trkpt><trkpt lat="47.91590644634665" lon="11.745219722078353"><ele>648.0</ele><time>2026-04-18T11:14:14Z</time></trkpt><trkpt lat="47.916025009808884" lon="11.74548038568436"><ele>648.0</ele><time>2026-04-18T11:14:15Z</time></trkpt><trkpt lat="47.91614755980127" lon="11.745751202193233"><ele>648.0</ele><time>2026-04-18T11:14:16Z</time></trkpt><trkpt lat="47.91626376213984" lon="11.74601117142359"><ele>648.0</ele><time>2026-04-18T11:14:17Z</time></trkpt><trkpt lat="47.916374778506345" lon="11.746270535156455"><ele>648.0</ele><time>2026-04-18T11:14:17.999Z</time></trkpt><trkpt lat="47.91648920792123" lon="11.746524757127519"><ele>648.0</ele><time>2026-04-18T11:14:18.999Z</time></trkpt><trkpt lat="47.916605955041405" lon="11.74678369693427"><ele>648.0</ele><time>2026-04-18T11:14:19.999Z</time></trkpt><trkpt lat="47.91672289505324" lon="11.74703701451355"><ele>648.3333333333334</ele><time>2026-04-18T11:14:20.999Z</time></trkpt><trkpt lat="47.916842107576876" lon="11.74729341742501"><ele>648.6666666666667</ele><time>2026-04-18T11:14:21.999Z</time></trkpt><trkpt lat="47.91695746745151" lon="11.74754947032863"><ele>649.0</ele><time>2026-04-18T11:14:23Z</time></trkpt><trkpt lat="47.917073067666124" lon="11.747805638171647"><ele>647.6666666666667</ele><time>2026-04-18T11:14:24Z</time></trkpt><trkpt lat="47.91718886895624" lon="11.7480614476606"><ele>646.3333333333334</ele><time>2026-04-18T11:14:25Z</time></trkpt><trkpt lat="47.91730134295334" lon="11.748318915589973"><ele>645.0</ele><time>2026-04-18T11:14:26Z</time></trkpt><trkpt lat="47.91741694845364" lon="11.74859030316656"><ele>645.0</ele><time>2026-04-18T11:14:27Z</time></trkpt><trkpt lat="47.91754524386374" lon="11.748875087147116"><ele>645.0</ele><time>2026-04-18T11:14:28Z</time></trkpt><trkpt lat="47.91767736479913" lon="11.749164797689737"><ele>645.0</ele><time>2026-04-18T11:14:29Z</time></trkpt><trkpt lat="47.91780506210159" lon="11.749447752324992"><ele>645.0</ele><time>2026-04-18T11:14:30Z</time></trkpt><trkpt lat="47.91792921778656" lon="11.749728364571281"><ele>645.0</ele><time>2026-04-18T11:14:31Z</time></trkpt><trkpt lat="47.91805178207006" lon="11.75000230719022"><ele>645.0</ele><time>2026-04-18T11:14:32Z</time></trkpt><trkpt lat="47.91817454724227" lon="11.750274923149789"><ele>645.0</ele><time>2026-04-18T11:14:33Z</time></trkpt><trkpt lat="47.91829934231395" lon="11.750557751161594"><ele>643.0</ele><time>2026-04-18T11:14:34Z</time></trkpt><trkpt lat="47.91842486638864" lon="11.750841725737851"><ele>641.0</ele><time>2026-04-18T11:14:35Z</time></trkpt><trkpt lat="47.91854749464232" lon="11.751120822747906"><ele>640.3333333333333</ele><time>2026-04-18T11:14:36Z</time></trkpt><trkpt lat="47.91866316467589" lon="11.75138426783641"><ele>639.6666666666666</ele><time>2026-04-18T11:14:37Z</time></trkpt><trkpt lat="47.91877641939533" lon="11.751647702768656"><ele>639.0</ele><time>2026-04-18T11:14:38Z</time></trkpt><trkpt lat="47.91888725226558" lon="11.751905393487629"><ele>638.6666666666666</ele><time>2026-04-18T11:14:39Z</time></trkpt><trkpt lat="47.918998039628" lon="11.752158659251961"><ele>638.3333333333333</ele><time>2026-04-18T11:14:40Z</time></trkpt><trkpt lat="47.919110788954754" lon="11.752409589444154"><ele>638.0</ele><time>2026-04-18T11:14:41Z</time></trkpt><trkpt lat="47.91922075087391" lon="11.752659449099932"><ele>637.6666666666666</ele><time>2026-04-18T11:14:42Z</time></trkpt><trkpt lat="47.91932977554574" lon="11.75290704217715"><ele>637.3333333333334</ele><time>2026-04-18T11:14:43Z</time></trkpt><trkpt lat="47.91943669690388" lon="11.753152781377104"><ele>637.0</ele><time>2026-04-18T11:14:44Z</time></trkpt><trkpt lat="47.919538664860454" lon="11.753381268932596"><ele>637.3333333333334</ele><time>2026-04-18T11:14:45Z</time></trkpt><trkpt lat="47.91963360148579" lon="11.753597945028973"><ele>637.6666666666666</ele><time>2026-04-18T11:14:46Z</time></trkpt><trkpt lat="47.919723432863236" lon="11.753798266997828"><ele>638.0</ele><time>2026-04-18T11:14:47Z</time></trkpt><trkpt lat="47.91980825684826" lon="11.753986498900954"><ele>638.0</ele><time>2026-04-18T11:14:48Z</time></trkpt><trkpt lat="47.919885762759385" lon="11.75416037413017"><ele>638.0</ele><time>2026-04-18T11:14:49Z</time></trkpt><trkpt lat="47.91995463526016" lon="11.75431765043437"><ele>638.0</ele><time>2026-04-18T11:14:50Z</time></trkpt><trkpt lat="47.92001876413769" lon="11.754463081691103"><ele>638.0</ele><time>2026-04-18T11:14:51Z</time></trkpt><trkpt lat="47.92008188735509" lon="11.754604692226188"><ele>637.8</ele><time>2026-04-18T11:14:52Z</time></trkpt><trkpt lat="47.92014144083183" lon="11.754741013650516"><ele>637.5999999999999</ele><time>2026-04-18T11:14:53Z</time></trkpt><trkpt lat="47.920194112612904" lon="11.754858764017778"><ele>637.4000000000001</ele><time>2026-04-18T11:14:54Z</time></trkpt><trkpt lat="47.920243387648426" lon="11.754971663284838"><ele>637.2</ele><time>2026-04-18T11:14:55Z</time></trkpt><trkpt lat="47.92029080579843" lon="11.755080334297212"><ele>637.0</ele><time>2026-04-18T11:14:56Z</time></trkpt><trkpt lat="47.920336268822055" lon="11.755184421407092"><ele>637.1428571428571</ele><time>2026-04-18T11:14:57Z</time></trkpt><trkpt lat="47.92038049728241" lon="11.755283075355724"><ele>637.2857142857142</ele><time>2026-04-18T11:14:58Z</time></trkpt><trkpt lat="47.92042403877074" lon="11.755373670767941"><ele>637.4285714285714</ele><time>2026-04-18T11:14:59Z</time></trkpt><trkpt lat="47.920464259979816" lon="11.755459927589989"><ele>637.5714285714286</ele><time>2026-04-18T11:15:00Z</time></trkpt><trkpt lat="47.92050305078859" lon="11.755542631162303"><ele>637.7142857142857</ele><time>2026-04-18T11:15:01.001Z</time></trkpt><trkpt lat="47.9205400278867" lon="11.755624414633068"><ele>637.8571428571429</ele><time>2026-04-18T11:15:02.001Z</time></trkpt><trkpt lat="47.92057553557094" lon="11.755705743974897"><ele>638.0</ele><time>2026-04-18T11:15:03.001Z</time></trkpt><trkpt lat="47.92061251415172" lon="11.755787587136343"><ele>638.0</ele><time>2026-04-18T11:15:04.001Z</time></trkpt><trkpt lat="47.92064798856117" lon="11.755867670935858"><ele>638.0</ele><time>2026-04-18T11:15:05.001Z</time></trkpt><trkpt lat="47.92075612616309" lon="11.75593290047083"><ele>638.0</ele><time>2026-04-18T11:15:07.001Z</time></trkpt><trkpt lat="47.92087683906968" lon="11.75593615285554"><ele>638.0</ele><time>2026-04-18T11:15:09.001Z</time></trkpt><trkpt lat="47.92095900620993" lon="11.755952566528585"><ele>638.0</ele><time>2026-04-18T11:15:10.001Z</time></trkpt><trkpt lat="47.921063891118905" lon="11.755967756793993"><ele>638.0</ele><time>2026-04-18T11:15:11.001Z</time></trkpt><trkpt lat="47.921197966640875" lon="11.755979112797233"><ele>638.0</ele><time>2026-04-18T11:15:12.001Z</time></trkpt><trkpt lat="47.92136707083151" lon="11.755998830144454"><ele>638.0</ele><time>2026-04-18T11:15:13.001Z</time></trkpt><trkpt lat="47.9215472927121" lon="11.75602881551216"><ele>638.3333333333333</ele><time>2026-04-18T11:15:14.001Z</time></trkpt><trkpt lat="47.92170026782528" lon="11.75605311481741"><ele>638.6666666666666</ele><time>2026-04-18T11:15:15.001Z</time></trkpt><trkpt lat="47.921836727912016" lon="11.756076199089"><ele>639.0</ele><time>2026-04-18T11:15:16.001Z</time></trkpt><trkpt lat="47.92199472414146" lon="11.75609905993114"><ele>639.6666666666666</ele><time>2026-04-18T11:15:17.001Z</time></trkpt><trkpt lat="47.92217472468889" lon="11.75611694490526"><ele>640.3333333333333</ele><time>2026-04-18T11:15:18.001Z</time></trkpt><trkpt lat="47.92237172664561" lon="11.756138567465607"><ele>641.0</ele><time>2026-04-18T11:15:19.001Z</time></trkpt><trkpt lat="47.92256057048947" lon="11.756162364292091"><ele>640.0</ele><time>2026-04-18T11:15:20.001Z</time></trkpt><trkpt lat="47.92272126860085" lon="11.756184614900716"><ele>639.0</ele><time>2026-04-18T11:15:21.001Z</time></trkpt><trkpt lat="47.922874059307546" lon="11.756203573572167"><ele>638.0</ele><time>2026-04-18T11:15:22.001Z</time></trkpt><trkpt lat="47.92302660679031" lon="11.756221962565014"><ele>638.0</ele><time>2026-04-18T11:15:23.001Z</time></trkpt><trkpt lat="47.92318609051577" lon="11.756240306809614"><ele>638.0</ele><time>2026-04-18T11:15:24.001Z</time></trkpt><trkpt lat="47.92334208459536" lon="11.75625914101032"><ele>638.0</ele><time>2026-04-18T11:15:25.001Z</time></trkpt><trkpt lat="47.9234940164101" lon="11.756279649526189"><ele>639.0</ele><time>2026-04-18T11:15:26.001Z</time></trkpt><trkpt lat="47.92364484464198" lon="11.756299321592175"><ele>640.0</ele><time>2026-04-18T11:15:27.001Z</time></trkpt><trkpt lat="47.92379743200987" lon="11.756318379613424"><ele>641.0</ele><time>2026-04-18T11:15:28.001Z</time></trkpt><trkpt lat="47.92396789907084" lon="11.756338434871665"><ele>641.0</ele><time>2026-04-18T11:15:29.001Z</time></trkpt><trkpt lat="47.924137375778294" lon="11.756366956170993"><ele>641.0</ele><time>2026-04-18T11:15:30.001Z</time></trkpt><trkpt lat="47.92430048441758" lon="11.756388987708798"><ele>641.0</ele><time>2026-04-18T11:15:31.001Z</time></trkpt><trkpt lat="47.92447812798858" lon="11.756408571611548"><ele>642.0</ele><time>2026-04-18T11:15:32.001Z</time></trkpt><trkpt lat="47.92464478521167" lon="11.75642893669634"><ele>643.0</ele><time>2026-04-18T11:15:33.001Z</time></trkpt><trkpt lat="47.92481376746872" lon="11.756450023865868"><ele>644.0</ele><time>2026-04-18T11:15:34.001Z</time></trkpt><trkpt lat="47.92497802076466" lon="11.75647443295953"><ele>644.0</ele><time>2026-04-18T11:15:35.001Z</time></trkpt><trkpt lat="47.92516019906949" lon="11.756497460761764"><ele>644.0</ele><time>2026-04-18T11:15:36.001Z</time></trkpt><trkpt lat="47.92534656094105" lon="11.756520248131505"><ele>644.0</ele><time>2026-04-18T11:15:37.001Z</time></trkpt><trkpt lat="47.92553215277138" lon="11.756540562434255"><ele>644.0</ele><time>2026-04-18T11:15:38.001Z</time></trkpt><trkpt lat="47.92570814027359" lon="11.756560897638105"><ele>644.0</ele><time>2026-04-18T11:15:39.001Z</time></trkpt><trkpt lat="47.92587457397233" lon="11.756586079205308"><ele>644.0</ele><time>2026-04-18T11:15:40.001Z</time></trkpt><trkpt lat="47.92603761204118" lon="11.756605295567137"><ele>642.0</ele><time>2026-04-18T11:15:41.001Z</time></trkpt><trkpt lat="47.926205101688346" lon="11.756622953066216"><ele>640.0</ele><time>2026-04-18T11:15:42.001Z</time></trkpt><trkpt lat="47.92637511940544" lon="11.756640551100928"><ele>638.0</ele><time>2026-04-18T11:15:43.001Z</time></trkpt><trkpt lat="47.926547854470286" lon="11.756663603668184"><ele>638.0</ele><time>2026-04-18T11:15:44.001Z</time></trkpt><trkpt lat="47.92672277139264" lon="11.756689160717956"><ele>638.0</ele><time>2026-04-18T11:15:45.001Z</time></trkpt><trkpt lat="47.92689913995605" lon="11.756713782936114"><ele>638.0</ele><time>2026-04-18T11:15:46.001Z</time></trkpt><trkpt lat="47.92707148596645" lon="11.756735928130874"><ele>637.3333333333333</ele><time>2026-04-18T11:15:47.001Z</time></trkpt><trkpt lat="47.9272376473375" lon="11.756754414115711"><ele>636.6666666666666</ele><time>2026-04-18T11:15:48.001Z</time></trkpt><trkpt lat="47.92739998212791" lon="11.756772262785601"><ele>636.0</ele><time>2026-04-18T11:15:49.001Z</time></trkpt><trkpt lat="47.927558083435315" lon="11.75678604535944"><ele>636.6666666666666</ele><time>2026-04-18T11:15:50.001Z</time></trkpt><trkpt lat="47.927708973830704" lon="11.756808505893705"><ele>637.3333333333333</ele><time>2026-04-18T11:15:51.001Z</time></trkpt><trkpt lat="47.92785958303804" lon="11.756822143770618"><ele>638.0</ele><time>2026-04-18T11:15:52.001Z</time></trkpt><trkpt lat="47.92801420712846" lon="11.756843719045815"><ele>638.0</ele><time>2026-04-18T11:15:53.001Z</time></trkpt><trkpt lat="47.92817548282755" lon="11.756869066523285"><ele>638.0</ele><time>2026-04-18T11:15:54.001Z</time></trkpt><trkpt lat="47.928346883663224" lon="11.756884588221986"><ele>638.0</ele><time>2026-04-18T11:15:55.001Z</time></trkpt><trkpt lat="47.9285142850514" lon="11.756904492486527"><ele>640.0</ele><time>2026-04-18T11:15:56.001Z</time></trkpt><trkpt lat="47.92868035628529" lon="11.756926947479238"><ele>642.0</ele><time>2026-04-18T11:15:57.001Z</time></trkpt><trkpt lat="47.928859930206556" lon="11.756950814007508"><ele>644.0</ele><time>2026-04-18T11:15:58.001Z</time></trkpt><trkpt lat="47.929043779284164" lon="11.756971422287052"><ele>644.0</ele><time>2026-04-18T11:15:59.001Z</time></trkpt><trkpt lat="47.92922332451493" lon="11.756991574321471"><ele>644.0</ele><time>2026-04-18T11:16:00.001Z</time></trkpt><trkpt lat="47.929396514865616" lon="11.757007625775174"><ele>644.0</ele><time>2026-04-18T11:16:01.001Z</time></trkpt><trkpt lat="47.929556719062155" lon="11.757030746501487"><ele>644.0</ele><time>2026-04-18T11:16:02.001Z</time></trkpt><trkpt lat="47.92971212471046" lon="11.757052683277948"><ele>644.0</ele><time>2026-04-18T11:16:03.001Z</time></trkpt><trkpt lat="47.929862424419866" lon="11.757069199199067"><ele>644.0</ele><time>2026-04-18T11:16:04.001Z</time></trkpt><trkpt lat="47.93002062777962" lon="11.75708571754889"><ele>643.3333333333333</ele><time>2026-04-18T11:16:05.001Z</time></trkpt><trkpt lat="47.930184468816535" lon="11.75710867410952"><ele>642.6666666666666</ele><time>2026-04-18T11:16:06.001Z</time></trkpt><trkpt lat="47.93034859268656" lon="11.757126147955175"><ele>642.0</ele><time>2026-04-18T11:16:07.001Z</time></trkpt><trkpt lat="47.93051759141741" lon="11.757145848498888"><ele>642.0</ele><time>2026-04-18T11:16:08.001Z</time></trkpt><trkpt lat="47.930677796937175" lon="11.757161991470145"><ele>642.0</ele><time>2026-04-18T11:16:09.001Z</time></trkpt><trkpt lat="47.93083802144895" lon="11.757180732126878"><ele>642.0</ele><time>2026-04-18T11:16:10.001Z</time></trkpt><trkpt lat="47.93099722353808" lon="11.757201380452955"><ele>640.3333333333334</ele><time>2026-04-18T11:16:11.001Z</time></trkpt><trkpt lat="47.93115979418825" lon="11.757218752689962"><ele>638.6666666666667</ele><time>2026-04-18T11:16:12.001Z</time></trkpt><trkpt lat="47.931325407939" lon="11.757240911418851"><ele>637.0</ele><time>2026-04-18T11:16:13.001Z</time></trkpt><trkpt lat="47.93149356182015" lon="11.757264090235292"><ele>637.0</ele><time>2026-04-18T11:16:14.001Z</time></trkpt><trkpt lat="47.9316594337383" lon="11.75728180627904"><ele>637.0</ele><time>2026-04-18T11:16:15.001Z</time></trkpt><trkpt lat="47.93181832276438" lon="11.757301009966545"><ele>637.0</ele><time>2026-04-18T11:16:16.001Z</time></trkpt><trkpt lat="47.9319707237499" lon="11.757317770559734"><ele>637.0</ele><time>2026-04-18T11:16:17.001Z</time></trkpt><trkpt lat="47.932120142376384" lon="11.75733271106676"><ele>637.0</ele><time>2026-04-18T11:16:18.001Z</time></trkpt><trkpt lat="47.932271157990286" lon="11.757353185950793"><ele>637.0</ele><time>2026-04-18T11:16:19.001Z</time></trkpt><trkpt lat="47.932427891936946" lon="11.757375132814847"><ele>637.3333333333334</ele><time>2026-04-18T11:16:20.001Z</time></trkpt><trkpt lat="47.932586995686215" lon="11.757381452448932"><ele>637.6666666666666</ele><time>2026-04-18T11:16:21.001Z</time></trkpt><trkpt lat="47.93274958691857" lon="11.757410942929132"><ele>638.0</ele><time>2026-04-18T11:16:22.001Z</time></trkpt><trkpt lat="47.932912079694496" lon="11.757447166236956"><ele>638.0</ele><time>2026-04-18T11:16:23.001Z</time></trkpt><trkpt lat="47.933073984523105" lon="11.757450409934838"><ele>638.0</ele><time>2026-04-18T11:16:24.001Z</time></trkpt><trkpt lat="47.933238876224955" lon="11.75748660542878"><ele>638.0</ele><time>2026-04-18T11:16:25.001Z</time></trkpt><trkpt lat="47.93340265389212" lon="11.757506683085625"><ele>638.0</ele><time>2026-04-18T11:16:26.001Z</time></trkpt><trkpt lat="47.93356939643502" lon="11.757495262715635"><ele>638.0</ele><time>2026-04-18T11:16:27.001Z</time></trkpt><trkpt lat="47.93373487174374" lon="11.757529121334779"><ele>638.0</ele><time>2026-04-18T11:16:28.001Z</time></trkpt><trkpt lat="47.933893389784664" lon="11.757540052644663"><ele>638.0</ele><time>2026-04-18T11:16:29.001Z</time></trkpt><trkpt lat="47.93404837092782" lon="11.757530561266575"><ele>638.0</ele><time>2026-04-18T11:16:30.001Z</time></trkpt><trkpt lat="47.93420256754132" lon="11.757532675863139"><ele>638.0</ele><time>2026-04-18T11:16:31.001Z</time></trkpt><trkpt lat="47.9343612872563" lon="11.757519264785962"><ele>637.6666666666666</ele><time>2026-04-18T11:16:32.001Z</time></trkpt><trkpt lat="47.934530361882395" lon="11.757514638879503"><ele>637.3333333333334</ele><time>2026-04-18T11:16:33.001Z</time></trkpt><trkpt lat="47.93470623087258" lon="11.75748893997064"><ele>637.0</ele><time>2026-04-18T11:16:34.001Z</time></trkpt><trkpt lat="47.93488729007363" lon="11.757458433672639"><ele>635.6666666666667</ele><time>2026-04-18T11:16:35.001Z</time></trkpt><trkpt lat="47.93506492472052" lon="11.757438586171785"><ele>634.3333333333334</ele><time>2026-04-18T11:16:36.001Z</time></trkpt><trkpt lat="47.93524206140993" lon="11.757419650710442"><ele>633.0</ele><time>2026-04-18T11:16:37.001Z</time></trkpt><trkpt lat="47.935416406486596" lon="11.757388315630342"><ele>633.0</ele><time>2026-04-18T11:16:38.001Z</time></trkpt><trkpt lat="47.935588605064524" lon="11.757349099865998"><ele>633.0</ele><time>2026-04-18T11:16:39.001Z</time></trkpt><trkpt lat="47.93576387564261" lon="11.757304139188696"><ele>633.0</ele><time>2026-04-18T11:16:40.001Z</time></trkpt><trkpt lat="47.935948139128094" lon="11.757254818860199"><ele>632.0</ele><time>2026-04-18T11:16:41.001Z</time></trkpt><trkpt lat="47.93613396561387" lon="11.757197199894616"><ele>631.0</ele><time>2026-04-18T11:16:42.001Z</time></trkpt><trkpt lat="47.93630384054703" lon="11.757143662108792"><ele>630.0</ele><time>2026-04-18T11:16:43.001Z</time></trkpt><trkpt lat="47.936464664501834" lon="11.75708942818824"><ele>630.0</ele><time>2026-04-18T11:16:44.001Z</time></trkpt><trkpt lat="47.93662361010912" lon="11.757029337864138"><ele>630.0</ele><time>2026-04-18T11:16:45.001Z</time></trkpt><trkpt lat="47.93679038208639" lon="11.756960168549956"><ele>630.0</ele><time>2026-04-18T11:16:46.001Z</time></trkpt><trkpt lat="47.936962889646516" lon="11.756883250004515"><ele>630.0</ele><time>2026-04-18T11:16:47.001Z</time></trkpt><trkpt lat="47.9371363920814" lon="11.756796691222878"><ele>630.0</ele><time>2026-04-18T11:16:48.001Z</time></trkpt><trkpt lat="47.937303470596724" lon="11.756720841616177"><ele>630.0</ele><time>2026-04-18T11:16:49.001Z</time></trkpt><trkpt lat="47.93746019550268" lon="11.756648501728499"><ele>631.0</ele><time>2026-04-18T11:16:50.001Z</time></trkpt><trkpt lat="47.937606244657346" lon="11.756578645340579"><ele>632.0</ele><time>2026-04-18T11:16:51.001Z</time></trkpt><trkpt lat="47.93774447922275" lon="11.756508071167987"><ele>633.0</ele><time>2026-04-18T11:16:52.001Z</time></trkpt><trkpt lat="47.937878517187706" lon="11.756441547422755"><ele>634.0</ele><time>2026-04-18T11:16:53.001Z</time></trkpt><trkpt lat="47.93801400333615" lon="11.756369988354505"><ele>634.0</ele><time>2026-04-18T11:16:54.001Z</time></trkpt><trkpt lat="47.938151209315265" lon="11.756297761177922"><ele>634.0</ele><time>2026-04-18T11:16:55.001Z</time></trkpt><trkpt lat="47.93829013441342" lon="11.756225727181874"><ele>634.0</ele><time>2026-04-18T11:16:56.001Z</time></trkpt><trkpt lat="47.93843005400534" lon="11.756154308879474"><ele>634.0</ele><time>2026-04-18T11:16:57.001Z</time></trkpt><trkpt lat="47.93858201788413" lon="11.756072287685143"><ele>634.0</ele><time>2026-04-18T11:16:58.001Z</time></trkpt><trkpt lat="47.938760388328724" lon="11.755980989140765"><ele>634.0</ele><time>2026-04-18T11:16:59.001Z</time></trkpt><trkpt lat="47.938949975571724" lon="11.755890176009865"><ele>634.0</ele><time>2026-04-18T11:17:00.001Z</time></trkpt><trkpt lat="47.939132431601735" lon="11.755799354031991"><ele>633.3333333333334</ele><time>2026-04-18T11:17:01.001Z</time></trkpt><trkpt lat="47.93931167662414" lon="11.755701715995997"><ele>632.6666666666666</ele><time>2026-04-18T11:17:02.001Z</time></trkpt><trkpt lat="47.93949082706499" lon="11.755606693479471"><ele>632.0</ele><time>2026-04-18T11:17:03.001Z</time></trkpt><trkpt lat="47.93967459039317" lon="11.75552335933011"><ele>632.0</ele><time>2026-04-18T11:17:04.001Z</time></trkpt><trkpt lat="47.93985339096891" lon="11.755440000571694"><ele>632.0</ele><time>2026-04-18T11:17:05.001Z</time></trkpt><trkpt lat="47.94002649047108" lon="11.755347521480594"><ele>632.0</ele><time>2026-04-18T11:17:06.001Z</time></trkpt><trkpt lat="47.94020504846659" lon="11.755253852898525"><ele>631.3333333333333</ele><time>2026-04-18T11:17:07.001Z</time></trkpt><trkpt lat="47.94038070570663" lon="11.755165564123482"><ele>630.6666666666666</ele><time>2026-04-18T11:17:08.001Z</time></trkpt><trkpt lat="47.940549102611186" lon="11.755079463414576"><ele>630.0</ele><time>2026-04-18T11:17:09.001Z</time></trkpt><trkpt lat="47.940713791053895" lon="11.754996638277726"><ele>630.0</ele><time>2026-04-18T11:17:10.001Z</time></trkpt><trkpt lat="47.940874512175164" lon="11.754913573618914"><ele>630.0</ele><time>2026-04-18T11:17:11.001Z</time></trkpt><trkpt lat="47.941035008064496" lon="11.754829429553762"><ele>630.0</ele><time>2026-04-18T11:17:12.001Z</time></trkpt><trkpt lat="47.94119728347465" lon="11.754747494779556"><ele>630.0</ele><time>2026-04-18T11:17:13.001Z</time></trkpt><trkpt lat="47.9413608172873" lon="11.754663515093874"><ele>630.0</ele><time>2026-04-18T11:17:14.001Z</time></trkpt><trkpt lat="47.94152480770179" lon="11.754577956138384"><ele>630.0</ele><time>2026-04-18T11:17:15.001Z</time></trkpt><trkpt lat="47.94168383157128" lon="11.75449513990214"><ele>630.0</ele><time>2026-04-18T11:17:16.001Z</time></trkpt><trkpt lat="47.94184439463377" lon="11.754413938672332"><ele>630.0</ele><time>2026-04-18T11:17:17.001Z</time></trkpt><trkpt lat="47.9420004776063" lon="11.754333436969459"><ele>630.0</ele><time>2026-04-18T11:17:18.001Z</time></trkpt><trkpt lat="47.94215213853328" lon="11.754254003886905"><ele>630.0</ele><time>2026-04-18T11:17:19.001Z</time></trkpt><trkpt lat="47.94230085647901" lon="11.754179262150515"><ele>630.0</ele><time>2026-04-18T11:17:20.001Z</time></trkpt><trkpt lat="47.94245037200607" lon="11.754099245331213"><ele>630.0</ele><time>2026-04-18T11:17:21.001Z</time></trkpt><trkpt lat="47.94260834763844" lon="11.754015976668555"><ele>631.6666666666666</ele><time>2026-04-18T11:17:22.001Z</time></trkpt><trkpt lat="47.94277443697647" lon="11.753928133561876"><ele>633.3333333333333</ele><time>2026-04-18T11:17:23.001Z</time></trkpt><trkpt lat="47.942944975721524" lon="11.753840525812462"><ele>635.0</ele><time>2026-04-18T11:17:24.001Z</time></trkpt><trkpt lat="47.94311808826846" lon="11.753751429692521"><ele>635.0</ele><time>2026-04-18T11:17:25.001Z</time></trkpt><trkpt lat="47.94329416247783" lon="11.75366009136509"><ele>635.0</ele><time>2026-04-18T11:17:26.001Z</time></trkpt><trkpt lat="47.943471714198445" lon="11.753569067551343"><ele>635.0</ele><time>2026-04-18T11:17:27.001Z</time></trkpt><trkpt lat="47.94364353066251" lon="11.753481237698853"><ele>633.6666666666666</ele><time>2026-04-18T11:17:28.001Z</time></trkpt><trkpt lat="47.94381267459406" lon="11.753393831033543"><ele>632.3333333333334</ele><time>2026-04-18T11:17:29.001Z</time></trkpt><trkpt lat="47.943979907777305" lon="11.753305186464193"><ele>631.0</ele><time>2026-04-18T11:17:30.001Z</time></trkpt><trkpt lat="47.94414581028983" lon="11.75322002478235"><ele>633.0</ele><time>2026-04-18T11:17:31.001Z</time></trkpt><trkpt lat="47.94430796153952" lon="11.753135162329688"><ele>635.0</ele><time>2026-04-18T11:17:32.001Z</time></trkpt><trkpt lat="47.94446497333096" lon="11.75305363438428"><ele>637.0</ele><time>2026-04-18T11:17:33.001Z</time></trkpt><trkpt lat="47.94461883813903" lon="11.75297186718002"><ele>637.0</ele><time>2026-04-18T11:17:34.001Z</time></trkpt><trkpt lat="47.94476911489047" lon="11.752890544421739"><ele>637.0</ele><time>2026-04-18T11:17:35.001Z</time></trkpt><trkpt lat="47.94492573580461" lon="11.75281350698348"><ele>637.0</ele><time>2026-04-18T11:17:36.001Z</time></trkpt><trkpt lat="47.94508597811393" lon="11.752738031460568"><ele>634.0</ele><time>2026-04-18T11:17:37.001Z</time></trkpt><trkpt lat="47.9452571898404" lon="11.75266402276216"><ele>631.0</ele><time>2026-04-18T11:17:38.001Z</time></trkpt><trkpt lat="47.94543306273497" lon="11.752593673214172"><ele>628.0</ele><time>2026-04-18T11:17:39.001Z</time></trkpt><trkpt lat="47.945613667925194" lon="11.752528533224316"><ele>628.0</ele><time>2026-04-18T11:17:40.001Z</time></trkpt><trkpt lat="47.945786874042085" lon="11.752420565331567"><ele>628.0</ele><time>2026-04-18T11:17:41.001Z</time></trkpt><trkpt lat="47.94590923792494" lon="11.75231130478262"><ele>628.0</ele><time>2026-04-18T11:17:42.001Z</time></trkpt><trkpt lat="47.946072014677604" lon="11.752229357959946"><ele>628.6666666666667</ele><time>2026-04-18T11:17:43.001Z</time></trkpt><trkpt lat="47.946232409064166" lon="11.752142010666017"><ele>629.3333333333334</ele><time>2026-04-18T11:17:44.001Z</time></trkpt><trkpt lat="47.946392607219224" lon="11.752055012470604"><ele>630.0</ele><time>2026-04-18T11:17:45.001Z</time></trkpt><trkpt lat="47.94655596632131" lon="11.751970978112828"><ele>629.6666666666666</ele><time>2026-04-18T11:17:46.001Z</time></trkpt><trkpt lat="47.946717861812594" lon="11.751888607401971"><ele>629.3333333333333</ele><time>2026-04-18T11:17:47.001Z</time></trkpt><trkpt lat="47.94687766870338" lon="11.75180780534374"><ele>629.0</ele><time>2026-04-18T11:17:48.001Z</time></trkpt><trkpt lat="47.947035909897906" lon="11.751725136111414"><ele>630.0</ele><time>2026-04-18T11:17:49.001Z</time></trkpt><trkpt lat="47.94719418929874" lon="11.751637025864058"><ele>631.0</ele><time>2026-04-18T11:17:50Z</time></trkpt><trkpt lat="47.94735546877802" lon="11.7515507621724"><ele>632.0</ele><time>2026-04-18T11:17:51Z</time></trkpt><trkpt lat="47.94751838803636" lon="11.75146653211289"><ele>632.0</ele><time>2026-04-18T11:17:52Z</time></trkpt><trkpt lat="47.94768124372669" lon="11.751383126034241"><ele>632.0</ele><time>2026-04-18T11:17:53Z</time></trkpt><trkpt lat="47.9478391463552" lon="11.751299813499156"><ele>632.0</ele><time>2026-04-18T11:17:54Z</time></trkpt><trkpt lat="47.94799477843625" lon="11.75121311422998"><ele>632.0</ele><time>2026-04-18T11:17:55Z</time></trkpt><trkpt lat="47.94815481659887" lon="11.751134855685818"><ele>632.0</ele><time>2026-04-18T11:17:56Z</time></trkpt><trkpt lat="47.94831615061281" lon="11.75105715578453"><ele>632.0</ele><time>2026-04-18T11:17:57Z</time></trkpt><trkpt lat="47.948479543818394" lon="11.750975416124648"><ele>629.6666666666666</ele><time>2026-04-18T11:17:58Z</time></trkpt><trkpt lat="47.948639818873" lon="11.750886302510036"><ele>627.3333333333334</ele><time>2026-04-18T11:17:59Z</time></trkpt><trkpt lat="47.94880225293885" lon="11.750799932509358"><ele>625.0</ele><time>2026-04-18T11:18:00Z</time></trkpt><trkpt lat="47.94895984108749" lon="11.750715994600949"><ele>625.0</ele><time>2026-04-18T11:18:01Z</time></trkpt><trkpt lat="47.949116182360555" lon="11.75062366335037"><ele>625.0</ele><time>2026-04-18T11:18:02Z</time></trkpt><trkpt lat="47.949277395391476" lon="11.750539092857466"><ele>625.0</ele><time>2026-04-18T11:18:03Z</time></trkpt><trkpt lat="47.94943641028169" lon="11.750455026439056"><ele>626.0</ele><time>2026-04-18T11:18:04Z</time></trkpt><trkpt lat="47.94959116587832" lon="11.75037098691787"><ele>627.0</ele><time>2026-04-18T11:18:05Z</time></trkpt><trkpt lat="47.94975212821201" lon="11.750290020818014"><ele>628.0</ele><time>2026-04-18T11:18:06Z</time></trkpt><trkpt lat="47.94991443873249" lon="11.75020957007885"><ele>628.0</ele><time>2026-04-18T11:18:07Z</time></trkpt><trkpt lat="47.950078248979295" lon="11.750131952468438"><ele>628.0</ele><time>2026-04-18T11:18:08Z</time></trkpt><trkpt lat="47.950237510214436" lon="11.750047637538922"><ele>628.0</ele><time>2026-04-18T11:18:09Z</time></trkpt><trkpt lat="47.95039530880318" lon="11.749957868503452"><ele>628.0</ele><time>2026-04-18T11:18:10Z</time></trkpt><trkpt lat="47.95055567263443" lon="11.749873889368162"><ele>628.0</ele><time>2026-04-18T11:18:11Z</time></trkpt><trkpt lat="47.950715601807566" lon="11.7497943281901"><ele>628.0</ele><time>2026-04-18T11:18:12Z</time></trkpt><trkpt lat="47.95087749597448" lon="11.749709502750038"><ele>627.3333333333334</ele><time>2026-04-18T11:18:13Z</time></trkpt><trkpt lat="47.95103705661852" lon="11.749627447371068"><ele>626.6666666666666</ele><time>2026-04-18T11:18:14Z</time></trkpt><trkpt lat="47.95119651841051" lon="11.749541558863474"><ele>626.0</ele><time>2026-04-18T11:18:15Z</time></trkpt><trkpt lat="47.951353849216645" lon="11.749445788761687"><ele>626.6666666666666</ele><time>2026-04-18T11:18:16Z</time></trkpt><trkpt lat="47.951512329148095" lon="11.749357301788631"><ele>627.3333333333334</ele><time>2026-04-18T11:18:17Z</time></trkpt><trkpt lat="47.95166926983474" lon="11.749259237841265"><ele>628.0</ele><time>2026-04-18T11:18:18Z</time></trkpt><trkpt lat="47.9518236582114" lon="11.749151522431605"><ele>628.3333333333334</ele><time>2026-04-18T11:18:19Z</time></trkpt><trkpt lat="47.951974552761975" lon="11.749042275720022"><ele>628.6666666666666</ele><time>2026-04-18T11:18:20Z</time></trkpt><trkpt lat="47.95212724264343" lon="11.748924598187047"><ele>629.0</ele><time>2026-04-18T11:18:21Z</time></trkpt><trkpt lat="47.95227146008805" lon="11.74880012410023"><ele>629.0</ele><time>2026-04-18T11:18:22Z</time></trkpt><trkpt lat="47.95241244572843" lon="11.748659062516966"><ele>629.0</ele><time>2026-04-18T11:18:23Z</time></trkpt><trkpt lat="47.952559939721134" lon="11.748535428557462"><ele>629.0</ele><time>2026-04-18T11:18:24Z</time></trkpt><trkpt lat="47.952690803273306" lon="11.748373645135835"><ele>630.3333333333333</ele><time>2026-04-18T11:18:25Z</time></trkpt><trkpt lat="47.95283540192495" lon="11.748236858988081"><ele>631.6666666666666</ele><time>2026-04-18T11:18:26Z</time></trkpt><trkpt lat="47.95297768824621" lon="11.748102748132888"><ele>633.0</ele><time>2026-04-18T11:18:27Z</time></trkpt><trkpt lat="47.95310857926978" lon="11.747948019336727"><ele>633.0</ele><time>2026-04-18T11:18:28Z</time></trkpt><trkpt lat="47.95324645204716" lon="11.747802529584199"><ele>633.0</ele><time>2026-04-18T11:18:29Z</time></trkpt><trkpt lat="47.95338228761569" lon="11.747651225048777"><ele>633.0</ele><time>2026-04-18T11:18:30Z</time></trkpt><trkpt lat="47.95351872990729" lon="11.747501884122359"><ele>629.6666666666666</ele><time>2026-04-18T11:18:31Z</time></trkpt><trkpt lat="47.95365685829255" lon="11.7473539945017"><ele>626.3333333333333</ele><time>2026-04-18T11:18:32Z</time></trkpt><trkpt lat="47.95379386563725" lon="11.747203417882774"><ele>623.0</ele><time>2026-04-18T11:18:33Z</time></trkpt><trkpt lat="47.953924821361056" lon="11.747047505404769"><ele>623.0</ele><time>2026-04-18T11:18:34Z</time></trkpt><trkpt lat="47.95406365953866" lon="11.746894488295453"><ele>623.0</ele><time>2026-04-18T11:18:35Z</time></trkpt><trkpt lat="47.95419980712018" lon="11.746739569320667"><ele>623.0</ele><time>2026-04-18T11:18:36Z</time></trkpt><trkpt lat="47.95433202274563" lon="11.746584266155542"><ele>626.3333333333333</ele><time>2026-04-18T11:18:37Z</time></trkpt><trkpt lat="47.954466516272745" lon="11.746430954775358"><ele>629.6666666666666</ele><time>2026-04-18T11:18:38Z</time></trkpt><trkpt lat="47.95459911123874" lon="11.74627612885866"><ele>633.0</ele><time>2026-04-18T11:18:39Z</time></trkpt><trkpt lat="47.95474445459508" lon="11.746140908305277"><ele>633.0</ele><time>2026-04-18T11:18:40Z</time></trkpt><trkpt lat="47.954878808638" lon="11.745991834637431"><ele>633.0</ele><time>2026-04-18T11:18:41Z</time></trkpt><trkpt lat="47.955012456984576" lon="11.745843544010484"><ele>633.0</ele><time>2026-04-18T11:18:42Z</time></trkpt><trkpt lat="47.95514830198759" lon="11.745692039028095"><ele>632.6666666666666</ele><time>2026-04-18T11:18:43Z</time></trkpt><trkpt lat="47.95528444170163" lon="11.745540178011186"><ele>632.3333333333333</ele><time>2026-04-18T11:18:44Z</time></trkpt><trkpt lat="47.95541947579999" lon="11.745389550299576"><ele>632.0</ele><time>2026-04-18T11:18:45Z</time></trkpt><trkpt lat="47.95555549349492" lon="11.745237887954769"><ele>631.0</ele><time>2026-04-18T11:18:46Z</time></trkpt><trkpt lat="47.955691361011226" lon="11.745087240953334"><ele>630.0</ele><time>2026-04-18T11:18:47Z</time></trkpt><trkpt lat="47.95582672883263" lon="11.744937245162276"><ele>629.0</ele><time>2026-04-18T11:18:48Z</time></trkpt><trkpt lat="47.95596468997796" lon="11.744783949742825"><ele>629.6666666666666</ele><time>2026-04-18T11:18:49Z</time></trkpt><trkpt lat="47.95609912360073" lon="11.74463457394657"><ele>630.3333333333334</ele><time>2026-04-18T11:18:50Z</time></trkpt><trkpt lat="47.956233085441745" lon="11.74448572230246"><ele>631.0</ele><time>2026-04-18T11:18:51Z</time></trkpt><trkpt lat="47.95637051515922" lon="11.744331933040836"><ele>631.0</ele><time>2026-04-18T11:18:52Z</time></trkpt><trkpt lat="47.956505435162256" lon="11.744179745495368"><ele>631.0</ele><time>2026-04-18T11:18:53Z</time></trkpt><trkpt lat="47.95663993539932" lon="11.744028031466478"><ele>631.0</ele><time>2026-04-18T11:18:54Z</time></trkpt><trkpt lat="47.95677148774704" lon="11.743879642584893"><ele>630.3333333333334</ele><time>2026-04-18T11:18:55Z</time></trkpt><trkpt lat="47.95690828222144" lon="11.743725342515125"><ele>629.6666666666666</ele><time>2026-04-18T11:18:56Z</time></trkpt><trkpt lat="47.95704558363384" lon="11.743572732411561"><ele>629.0</ele><time>2026-04-18T11:18:57Z</time></trkpt><trkpt lat="47.957180548871754" lon="11.743423146042245"><ele>629.0</ele><time>2026-04-18T11:18:58Z</time></trkpt><trkpt lat="47.95731834553406" lon="11.743270421298014"><ele>629.0</ele><time>2026-04-18T11:18:59Z</time></trkpt><trkpt lat="47.95744375950782" lon="11.743098620647027"><ele>629.0</ele><time>2026-04-18T11:19:00Z</time></trkpt><trkpt lat="47.95757981512763" lon="11.742945333419652"><ele>629.3333333333333</ele><time>2026-04-18T11:19:01Z</time></trkpt><trkpt lat="47.9577156610747" lon="11.74279280592059"><ele>629.6666666666666</ele><time>2026-04-18T11:19:02Z</time></trkpt><trkpt lat="47.95785205699377" lon="11.742645350707173"><ele>630.0</ele><time>2026-04-18T11:19:03Z</time></trkpt><trkpt lat="47.95798803295379" lon="11.74249492733306"><ele>630.0</ele><time>2026-04-18T11:19:04Z</time></trkpt><trkpt lat="47.95811669601974" lon="11.742361269426743"><ele>630.0</ele><time>2026-04-18T11:19:05Z</time></trkpt><trkpt lat="47.95825786782581" lon="11.742194140351977"><ele>630.0</ele><time>2026-04-18T11:19:06Z</time></trkpt><trkpt lat="47.95838624322303" lon="11.742053144280685"><ele>631.25</ele><time>2026-04-18T11:19:07Z</time></trkpt><trkpt lat="47.958505584205376" lon="11.74192256890011"><ele>632.5</ele><time>2026-04-18T11:19:08Z</time></trkpt><trkpt lat="47.95862635297501" lon="11.741799189583245"><ele>633.75</ele><time>2026-04-18T11:19:09Z</time></trkpt><trkpt lat="47.95873809351757" lon="11.7416631761001"><ele>635.0</ele><time>2026-04-18T11:19:10Z</time></trkpt><trkpt lat="47.95886096053227" lon="11.741533168416872"><ele>635.0</ele><time>2026-04-18T11:19:11Z</time></trkpt><trkpt lat="47.95899485657403" lon="11.74137757526718"><ele>635.0</ele><time>2026-04-18T11:19:12Z</time></trkpt><trkpt lat="47.959122943152344" lon="11.741233853836725"><ele>635.0</ele><time>2026-04-18T11:19:13Z</time></trkpt><trkpt lat="47.95925062651612" lon="11.741082909097731"><ele>635.6666666666666</ele><time>2026-04-18T11:19:14Z</time></trkpt><trkpt lat="47.95937679088945" lon="11.740945504702465"><ele>636.3333333333334</ele><time>2026-04-18T11:19:15Z</time></trkpt><trkpt lat="47.959503889463704" lon="11.740802452438404"><ele>637.0</ele><time>2026-04-18T11:19:16Z</time></trkpt><trkpt lat="47.95963299688955" lon="11.740661140164026"><ele>637.0</ele><time>2026-04-18T11:19:17Z</time></trkpt><trkpt lat="47.959764598849304" lon="11.740504424273128"><ele>637.0</ele><time>2026-04-18T11:19:18Z</time></trkpt><trkpt lat="47.959907447960155" lon="11.74036368419672"><ele>637.0</ele><time>2026-04-18T11:19:19Z</time></trkpt><trkpt lat="47.96003410740003" lon="11.740199306583689"><ele>633.3333333333334</ele><time>2026-04-18T11:19:20Z</time></trkpt><trkpt lat="47.96016644457058" lon="11.740047988640608"><ele>629.6666666666666</ele><time>2026-04-18T11:19:21Z</time></trkpt><trkpt lat="47.960314864150895" lon="11.739907610249237"><ele>626.0</ele><time>2026-04-18T11:19:22Z</time></trkpt><trkpt lat="47.96043763355517" lon="11.739739714852504"><ele>626.0</ele><time>2026-04-18T11:19:23Z</time></trkpt><trkpt lat="47.96058020084232" lon="11.73960476738496"><ele>626.0</ele><time>2026-04-18T11:19:24Z</time></trkpt><trkpt lat="47.960712501375475" lon="11.739438891036574"><ele>626.0</ele><time>2026-04-18T11:19:25Z</time></trkpt><trkpt lat="47.96085376666901" lon="11.739283166933765"><ele>624.3333333333333</ele><time>2026-04-18T11:19:26Z</time></trkpt><trkpt lat="47.960997700877435" lon="11.73912240539214"><ele>622.6666666666666</ele><time>2026-04-18T11:19:27Z</time></trkpt><trkpt lat="47.96114063005357" lon="11.738965943710792"><ele>621.0</ele><time>2026-04-18T11:19:28Z</time></trkpt><trkpt lat="47.96127352354267" lon="11.738820253837146"><ele>621.0</ele><time>2026-04-18T11:19:29Z</time></trkpt><trkpt lat="47.96140132937215" lon="11.738678489425856"><ele>621.0</ele><time>2026-04-18T11:19:30Z</time></trkpt><trkpt lat="47.96152239497335" lon="11.738547375089633"><ele>621.0</ele><time>2026-04-18T11:19:31Z</time></trkpt><trkpt lat="47.961642440000006" lon="11.73840449687571"><ele>620.6666666666666</ele><time>2026-04-18T11:19:32Z</time></trkpt><trkpt lat="47.96177546065044" lon="11.738262345096864"><ele>620.3333333333333</ele><time>2026-04-18T11:19:33Z</time></trkpt><trkpt lat="47.961913986286596" lon="11.738106359616673"><ele>620.0</ele><time>2026-04-18T11:19:34Z</time></trkpt><trkpt lat="47.9620607774439" lon="11.737945004419398"><ele>620.0</ele><time>2026-04-18T11:19:35Z</time></trkpt><trkpt lat="47.96220255225315" lon="11.737786200496922"><ele>620.0</ele><time>2026-04-18T11:19:36Z</time></trkpt><trkpt lat="47.96234030566051" lon="11.73763359639042"><ele>620.0</ele><time>2026-04-18T11:19:37Z</time></trkpt><trkpt lat="47.962469892934166" lon="11.737489148980657"><ele>620.6666666666666</ele><time>2026-04-18T11:19:38Z</time></trkpt><trkpt lat="47.9625953615655" lon="11.737342929241546"><ele>621.3333333333334</ele><time>2026-04-18T11:19:39Z</time></trkpt><trkpt lat="47.962724623563425" lon="11.737201121140082"><ele>622.0</ele><time>2026-04-18T11:19:40Z</time></trkpt><trkpt lat="47.96285507675396" lon="11.73705554508526"><ele>622.0</ele><time>2026-04-18T11:19:41Z</time></trkpt><trkpt lat="47.96298766244036" lon="11.736907126978814"><ele>622.0</ele><time>2026-04-18T11:19:42Z</time></trkpt><trkpt lat="47.963124821357034" lon="11.736753713525307"><ele>622.0</ele><time>2026-04-18T11:19:43Z</time></trkpt><trkpt lat="47.96326034406763" lon="11.736601015136786"><ele>623.3333333333334</ele><time>2026-04-18T11:19:44Z</time></trkpt><trkpt lat="47.96339323419438" lon="11.736451756367973"><ele>624.6666666666666</ele><time>2026-04-18T11:19:45Z</time></trkpt><trkpt lat="47.96352137877263" lon="11.736301868259408"><ele>626.0</ele><time>2026-04-18T11:19:46Z</time></trkpt><trkpt lat="47.96364886543973" lon="11.736163801697096"><ele>627.3333333333333</ele><time>2026-04-18T11:19:47Z</time></trkpt><trkpt lat="47.96377219421309" lon="11.736028199698824"><ele>628.6666666666666</ele><time>2026-04-18T11:19:48Z</time></trkpt><trkpt lat="47.963896224284746" lon="11.735893085339528"><ele>630.0</ele><time>2026-04-18T11:19:49Z</time></trkpt><trkpt lat="47.96402519899124" lon="11.735744447934769"><ele>629.5</ele><time>2026-04-18T11:19:50Z</time></trkpt><trkpt lat="47.9642831127637" lon="11.735462456801304"><ele>629.0</ele><time>2026-04-18T11:19:52Z</time></trkpt><trkpt lat="47.964409305501974" lon="11.735320355531288"><ele>628.0</ele><time>2026-04-18T11:19:53Z</time></trkpt><trkpt lat="47.96454039526693" lon="11.73517079680443"><ele>627.0</ele><time>2026-04-18T11:19:54Z</time></trkpt><trkpt lat="47.964675476408885" lon="11.735018052664094"><ele>626.0</ele><time>2026-04-18T11:19:55Z</time></trkpt><trkpt lat="47.96480922406509" lon="11.73486741869949"><ele>626.0</ele><time>2026-04-18T11:19:56Z</time></trkpt><trkpt lat="47.96493824119995" lon="11.734714853933891"><ele>626.0</ele><time>2026-04-18T11:19:57Z</time></trkpt><trkpt lat="47.96507056992328" lon="11.734569162186883"><ele>626.0</ele><time>2026-04-18T11:19:58Z</time></trkpt><trkpt lat="47.96520115990672" lon="11.734420921208143"><ele>626.0</ele><time>2026-04-18T11:19:59Z</time></trkpt><trkpt lat="47.965330604355984" lon="11.734270350759548"><ele>626.0</ele><time>2026-04-18T11:20:00Z</time></trkpt><trkpt lat="47.96546138017692" lon="11.734127035800334"><ele>626.0</ele><time>2026-04-18T11:20:01Z</time></trkpt><trkpt lat="47.96558763393239" lon="11.733986973797618"><ele>626.0</ele><time>2026-04-18T11:20:02Z</time></trkpt><trkpt lat="47.96571037832208" lon="11.733845923643363"><ele>626.0</ele><time>2026-04-18T11:20:03Z</time></trkpt><trkpt lat="47.965835534299416" lon="11.733704790978472"><ele>626.0</ele><time>2026-04-18T11:20:04Z</time></trkpt><trkpt lat="47.965963025113794" lon="11.73356551670758"><ele>627.0</ele><time>2026-04-18T11:20:05Z</time></trkpt><trkpt lat="47.96609182538845" lon="11.733419789530977"><ele>628.0</ele><time>2026-04-18T11:20:06Z</time></trkpt><trkpt lat="47.966220589020054" lon="11.733270931956046"><ele>629.0</ele><time>2026-04-18T11:20:07Z</time></trkpt><trkpt lat="47.96636347164722" lon="11.733118120816593"><ele>629.0</ele><time>2026-04-18T11:20:08Z</time></trkpt><trkpt lat="47.96651426306144" lon="11.732946265106882"><ele>629.0</ele><time>2026-04-18T11:20:09Z</time></trkpt><trkpt lat="47.96666664554809" lon="11.732772832650248"><ele>629.0</ele><time>2026-04-18T11:20:10Z</time></trkpt><trkpt lat="47.96681158034782" lon="11.732608961688733"><ele>628.3333333333333</ele><time>2026-04-18T11:20:11Z</time></trkpt><trkpt lat="47.96695525261916" lon="11.732455628249394"><ele>627.6666666666666</ele><time>2026-04-18T11:20:12Z</time></trkpt><trkpt lat="47.96709266835137" lon="11.732298138808437"><ele>627.0</ele><time>2026-04-18T11:20:13Z</time></trkpt><trkpt lat="47.967231977063065" lon="11.73213902453296"><ele>627.0</ele><time>2026-04-18T11:20:14Z</time></trkpt><trkpt lat="47.96737086628016" lon="11.73198311710647"><ele>627.0</ele><time>2026-04-18T11:20:15Z</time></trkpt><trkpt lat="47.96751242637737" lon="11.731831086512214"><ele>627.0</ele><time>2026-04-18T11:20:16Z</time></trkpt><trkpt lat="47.96764886316093" lon="11.731673926620214"><ele>625.0</ele><time>2026-04-18T11:20:17Z</time></trkpt><trkpt lat="47.967788037178565" lon="11.731517352419743"><ele>623.0</ele><time>2026-04-18T11:20:18Z</time></trkpt><trkpt lat="47.967916232661956" lon="11.731374917616899"><ele>621.0</ele><time>2026-04-18T11:20:19Z</time></trkpt><trkpt lat="47.96805224834347" lon="11.731228494252777"><ele>621.0</ele><time>2026-04-18T11:20:20Z</time></trkpt><trkpt lat="47.9681802673032" lon="11.731077993025963"><ele>621.0</ele><time>2026-04-18T11:20:21Z</time></trkpt><trkpt lat="47.96831429950726" lon="11.730926802383538"><ele>621.0</ele><time>2026-04-18T11:20:22Z</time></trkpt><trkpt lat="47.96844894410296" lon="11.730773662529481"><ele>618.3333333333334</ele><time>2026-04-18T11:20:23Z</time></trkpt><trkpt lat="47.96858550797393" lon="11.730618968408018"><ele>615.6666666666667</ele><time>2026-04-18T11:20:24Z</time></trkpt><trkpt lat="47.968724045755664" lon="11.730462209319644"><ele>613.0</ele><time>2026-04-18T11:20:25Z</time></trkpt><trkpt lat="47.968861851417905" lon="11.73031277169936"><ele>613.6666666666667</ele><time>2026-04-18T11:20:26Z</time></trkpt><trkpt lat="47.96899419388669" lon="11.730163729676278"><ele>614.3333333333334</ele><time>2026-04-18T11:20:27Z</time></trkpt><trkpt lat="47.969123590943155" lon="11.730018707869267"><ele>615.0</ele><time>2026-04-18T11:20:28Z</time></trkpt><trkpt lat="47.96924855246356" lon="11.7298739303618"><ele>615.6666666666666</ele><time>2026-04-18T11:20:29Z</time></trkpt><trkpt lat="47.969376852875754" lon="11.729727874374278"><ele>616.3333333333333</ele><time>2026-04-18T11:20:30Z</time></trkpt><trkpt lat="47.9695081206494" lon="11.729581295395082"><ele>617.0</ele><time>2026-04-18T11:20:31.001Z</time></trkpt><trkpt lat="47.96964157524252" lon="11.729429687414235"><ele>617.0</ele><time>2026-04-18T11:20:32.001Z</time></trkpt><trkpt lat="47.969777527225126" lon="11.72928419566087"><ele>617.0</ele><time>2026-04-18T11:20:33.001Z</time></trkpt><trkpt lat="47.96991438725127" lon="11.729138696795848"><ele>617.0</ele><time>2026-04-18T11:20:34.001Z</time></trkpt><trkpt lat="47.97005123207571" lon="11.728988778222611"><ele>617.0</ele><time>2026-04-18T11:20:35.001Z</time></trkpt><trkpt lat="47.97018305878148" lon="11.728838523127354"><ele>617.0</ele><time>2026-04-18T11:20:36.001Z</time></trkpt><trkpt lat="47.970313981370495" lon="11.728690971825474"><ele>617.0</ele><time>2026-04-18T11:20:37.001Z</time></trkpt><trkpt lat="47.97044346884819" lon="11.728543861927614"><ele>616.6666666666666</ele><time>2026-04-18T11:20:38.001Z</time></trkpt><trkpt lat="47.97057348085353" lon="11.728395645306556"><ele>616.3333333333334</ele><time>2026-04-18T11:20:39.001Z</time></trkpt><trkpt lat="47.97070349079031" lon="11.728249099887925"><ele>616.0</ele><time>2026-04-18T11:20:40.001Z</time></trkpt><trkpt lat="47.97083514819849" lon="11.728101609902012"><ele>615.3333333333334</ele><time>2026-04-18T11:20:41.001Z</time></trkpt><trkpt lat="47.97096500085095" lon="11.72794930284793"><ele>614.6666666666666</ele><time>2026-04-18T11:20:42.001Z</time></trkpt><trkpt lat="47.971099333918055" lon="11.72780155949976"><ele>614.0</ele><time>2026-04-18T11:20:43.001Z</time></trkpt><trkpt lat="47.971235386816694" lon="11.72764801101284"><ele>614.0</ele><time>2026-04-18T11:20:44.001Z</time></trkpt><trkpt lat="47.971373369292685" lon="11.727497694427733"><ele>614.0</ele><time>2026-04-18T11:20:45.001Z</time></trkpt><trkpt lat="47.971514630582874" lon="11.727341421624384"><ele>614.0</ele><time>2026-04-18T11:20:46.001Z</time></trkpt><trkpt lat="47.97165633325583" lon="11.727181174153362"><ele>613.6666666666666</ele><time>2026-04-18T11:20:47.001Z</time></trkpt><trkpt lat="47.97179613179706" lon="11.727022899547842"><ele>613.3333333333334</ele><time>2026-04-18T11:20:48.001Z</time></trkpt><trkpt lat="47.971934827552765" lon="11.726865718581953"><ele>613.0</ele><time>2026-04-18T11:20:49.001Z</time></trkpt><trkpt lat="47.97207417070188" lon="11.726708201501825"><ele>613.6666666666667</ele><time>2026-04-18T11:20:50.001Z</time></trkpt><trkpt lat="47.9722114253907" lon="11.726552281402745"><ele>614.3333333333334</ele><time>2026-04-18T11:20:51.001Z</time></trkpt><trkpt lat="47.97234685218747" lon="11.72639940239224"><ele>615.0</ele><time>2026-04-18T11:20:52.001Z</time></trkpt><trkpt lat="47.97247797646317" lon="11.726255809005382"><ele>615.0</ele><time>2026-04-18T11:20:53.001Z</time></trkpt><trkpt lat="47.972600646833754" lon="11.726118775728693"><ele>615.0</ele><time>2026-04-18T11:20:54.001Z</time></trkpt><trkpt lat="47.972718299990106" lon="11.72598808733402"><ele>615.0</ele><time>2026-04-18T11:20:55.001Z</time></trkpt><trkpt lat="47.972833557294315" lon="11.725855832887524"><ele>615.0</ele><time>2026-04-18T11:20:56.001Z</time></trkpt><trkpt lat="47.97295487203636" lon="11.725721539762498"><ele>615.3333333333334</ele><time>2026-04-18T11:20:57.001Z</time></trkpt><trkpt lat="47.97308227213241" lon="11.7255834203043"><ele>615.6666666666667</ele><time>2026-04-18T11:20:58.001Z</time></trkpt><trkpt lat="47.97321444123189" lon="11.725436926532309"><ele>616.0</ele><time>2026-04-18T11:20:59.001Z</time></trkpt><trkpt lat="47.97335182727954" lon="11.725278034890279"><ele>616.6666666666667</ele><time>2026-04-18T11:21:00.001Z</time></trkpt><trkpt lat="47.97349195204878" lon="11.725116867630474"><ele>617.3333333333334</ele><time>2026-04-18T11:21:01.001Z</time></trkpt><trkpt lat="47.97363223300355" lon="11.72495616225436"><ele>618.0</ele><time>2026-04-18T11:21:02.001Z</time></trkpt><trkpt lat="47.97376840050436" lon="11.724806402974913"><ele>618.0</ele><time>2026-04-18T11:21:03.001Z</time></trkpt><trkpt lat="47.973897379161755" lon="11.72466771528331"><ele>618.0</ele><time>2026-04-18T11:21:04.001Z</time></trkpt><trkpt lat="47.97401591159974" lon="11.724531909222454"><ele>618.0</ele><time>2026-04-18T11:21:05.001Z</time></trkpt><trkpt lat="47.97413171440862" lon="11.724400037808095"><ele>619.25</ele><time>2026-04-18T11:21:06.001Z</time></trkpt><trkpt lat="47.97424965114772" lon="11.724271821655257"><ele>620.5</ele><time>2026-04-18T11:21:07.001Z</time></trkpt><trkpt lat="47.974367467399354" lon="11.724139971258856"><ele>621.75</ele><time>2026-04-18T11:21:08.001Z</time></trkpt><trkpt lat="47.97448497520743" lon="11.724005377878113"><ele>623.0</ele><time>2026-04-18T11:21:09.001Z</time></trkpt><trkpt lat="47.974604660896325" lon="11.723866336513515"><ele>623.0</ele><time>2026-04-18T11:21:10.001Z</time></trkpt><trkpt lat="47.974728185248544" lon="11.723728468984865"><ele>623.0</ele><time>2026-04-18T11:21:11.001Z</time></trkpt><trkpt lat="47.97485834733992" lon="11.723587220541626"><ele>623.0</ele><time>2026-04-18T11:21:12.001Z</time></trkpt><trkpt lat="47.97499530490772" lon="11.723434775406666"><ele>622.6666666666666</ele><time>2026-04-18T11:21:13Z</time></trkpt><trkpt lat="47.97513692465371" lon="11.72327812935776"><ele>622.3333333333334</ele><time>2026-04-18T11:21:14Z</time></trkpt><trkpt lat="47.97528446592471" lon="11.723113303964027"><ele>622.0</ele><time>2026-04-18T11:21:15Z</time></trkpt><trkpt lat="47.9754367635443" lon="11.722941944079082"><ele>622.0</ele><time>2026-04-18T11:21:16Z</time></trkpt><trkpt lat="47.97559147234653" lon="11.722769118206681"><ele>622.0</ele><time>2026-04-18T11:21:17Z</time></trkpt><trkpt lat="47.975744584862575" lon="11.722599801426378"><ele>622.0</ele><time>2026-04-18T11:21:18Z</time></trkpt><trkpt lat="47.97589315636843" lon="11.722433589565952"><ele>621.0</ele><time>2026-04-18T11:21:19Z</time></trkpt><trkpt lat="47.97603700730604" lon="11.722272338609704"><ele>620.0</ele><time>2026-04-18T11:21:20Z</time></trkpt><trkpt lat="47.97617646566372" lon="11.722113147857876"><ele>619.0</ele><time>2026-04-18T11:21:21Z</time></trkpt><trkpt lat="47.97631413437132" lon="11.721957899646961"><ele>618.6666666666667</ele><time>2026-04-18T11:21:22Z</time></trkpt><trkpt lat="47.97644766002542" lon="11.72180545716233"><ele>618.3333333333334</ele><time>2026-04-18T11:21:23Z</time></trkpt><trkpt lat="47.97658175524394" lon="11.721665134028212"><ele>618.0</ele><time>2026-04-18T11:21:24Z</time></trkpt><trkpt lat="47.97670979934635" lon="11.721524594028146"><ele>618.0</ele><time>2026-04-18T11:21:25Z</time></trkpt><trkpt lat="47.976838801967276" lon="11.72138788167513"><ele>618.0</ele><time>2026-04-18T11:21:26Z</time></trkpt><trkpt lat="47.97697040251549" lon="11.721241950200438"><ele>618.0</ele><time>2026-04-18T11:21:27Z</time></trkpt><trkpt lat="47.97710359744068" lon="11.721087219636384"><ele>619.3333333333334</ele><time>2026-04-18T11:21:28Z</time></trkpt><trkpt lat="47.97724193800384" lon="11.720926364202906"><ele>620.6666666666667</ele><time>2026-04-18T11:21:29Z</time></trkpt><trkpt lat="47.97739006925772" lon="11.720748714490862"><ele>622.0</ele><time>2026-04-18T11:21:30Z</time></trkpt><trkpt lat="47.9775426407845" lon="11.720572277239125"><ele>622.3333333333334</ele><time>2026-04-18T11:21:31Z</time></trkpt><trkpt lat="47.977692410537884" lon="11.720404655980365"><ele>622.6666666666666</ele><time>2026-04-18T11:21:32Z</time></trkpt><trkpt lat="47.977835800631134" lon="11.72024061042165"><ele>623.0</ele><time>2026-04-18T11:21:33Z</time></trkpt><trkpt lat="47.97797904334578" lon="11.720081354153821"><ele>623.0</ele><time>2026-04-18T11:21:34Z</time></trkpt><trkpt lat="47.97812004346671" lon="11.719925202402353"><ele>623.0</ele><time>2026-04-18T11:21:35Z</time></trkpt><trkpt lat="47.97826316673959" lon="11.719765949247867"><ele>623.0</ele><time>2026-04-18T11:21:36Z</time></trkpt><trkpt lat="47.97840902374009" lon="11.719605045339694"><ele>621.3333333333333</ele><time>2026-04-18T11:21:37Z</time></trkpt><trkpt lat="47.97855187844546" lon="11.719436483164746"><ele>619.6666666666666</ele><time>2026-04-18T11:21:38Z</time></trkpt><trkpt lat="47.978693788942714" lon="11.719266488204092"><ele>618.0</ele><time>2026-04-18T11:21:39Z</time></trkpt><trkpt lat="47.97883721808955" lon="11.719112656143444"><ele>618.3333333333334</ele><time>2026-04-18T11:21:40Z</time></trkpt><trkpt lat="47.978977306446936" lon="11.718966514438842"><ele>618.6666666666667</ele><time>2026-04-18T11:21:41Z</time></trkpt><trkpt lat="47.97911185664486" lon="11.71883009108802"><ele>619.0</ele><time>2026-04-18T11:21:42Z</time></trkpt><trkpt lat="47.979245495015114" lon="11.718704891648262"><ele>619.0</ele><time>2026-04-18T11:21:43Z</time></trkpt><trkpt lat="47.979377787255785" lon="11.718589283270843"><ele>619.0</ele><time>2026-04-18T11:21:44Z</time></trkpt><trkpt lat="47.979503261393425" lon="11.718478231647849"><ele>619.0</ele><time>2026-04-18T11:21:45Z</time></trkpt><trkpt lat="47.97961752864504" lon="11.71837550408834"><ele>619.0</ele><time>2026-04-18T11:21:46Z</time></trkpt><trkpt lat="47.97971141968078" lon="11.718292554038538"><ele>618.0</ele><time>2026-04-18T11:21:47Z</time></trkpt><trkpt lat="47.97979951912386" lon="11.718213830244096"><ele>617.0</ele><time>2026-04-18T11:21:48Z</time></trkpt><trkpt lat="47.97988727475209" lon="11.718133589379255"><ele>616.0</ele><time>2026-04-18T11:21:49Z</time></trkpt><trkpt lat="47.979974463979694" lon="11.718060067543604"><ele>615.0</ele><time>2026-04-18T11:21:50Z</time></trkpt><trkpt lat="47.98005678740707" lon="11.717985913865352"><ele>614.0</ele><time>2026-04-18T11:21:51Z</time></trkpt><trkpt lat="47.98014753189947" lon="11.717899112342128"><ele>613.75</ele><time>2026-04-18T11:21:52Z</time></trkpt><trkpt lat="47.98026414754746" lon="11.717799588456634"><ele>613.5</ele><time>2026-04-18T11:21:53Z</time></trkpt><trkpt lat="47.9803596180641" lon="11.717712501152"><ele>613.25</ele><time>2026-04-18T11:21:54Z</time></trkpt><trkpt lat="47.98045241153882" lon="11.717628087582355"><ele>613.0</ele><time>2026-04-18T11:21:55Z</time></trkpt><trkpt lat="47.98054528627489" lon="11.717554962884595"><ele>612.4</ele><time>2026-04-18T11:21:56Z</time></trkpt><trkpt lat="47.98063595315179" lon="11.717483265002762"><ele>611.8</ele><time>2026-04-18T11:21:57Z</time></trkpt><trkpt lat="47.98072391408112" lon="11.717407817652393"><ele>611.2</ele><time>2026-04-18T11:21:58Z</time></trkpt><trkpt lat="47.980815798756886" lon="11.717354834485441"><ele>610.6</ele><time>2026-04-18T11:21:59Z</time></trkpt><trkpt lat="47.98090338402611" lon="11.717293233180117"><ele>610.0</ele><time>2026-04-18T11:22:00Z</time></trkpt><trkpt lat="47.9809861572332" lon="11.717218427144498"><ele>609.6</ele><time>2026-04-18T11:22:01Z</time></trkpt><trkpt lat="47.98107246539843" lon="11.717153197803448"><ele>609.2</ele><time>2026-04-18T11:22:02Z</time></trkpt><trkpt lat="47.98114698477809" lon="11.71706059875877"><ele>608.8</ele><time>2026-04-18T11:22:03Z</time></trkpt><trkpt lat="47.98123928915308" lon="11.717019197736604"><ele>608.4</ele><time>2026-04-18T11:22:04Z</time></trkpt><trkpt lat="47.98132426393756" lon="11.716948104667448"><ele>608.0</ele><time>2026-04-18T11:22:05Z</time></trkpt><trkpt lat="47.98141698650369" lon="11.7169017840484"><ele>608.0</ele><time>2026-04-18T11:22:06Z</time></trkpt><trkpt lat="47.98152430568466" lon="11.716878178862293"><ele>608.0</ele><time>2026-04-18T11:22:07Z</time></trkpt><trkpt lat="47.98166461971163" lon="11.716844188504819"><ele>608.0</ele><time>2026-04-18T11:22:08Z</time></trkpt><trkpt lat="47.981809852475536" lon="11.716814889280691"><ele>608.0</ele><time>2026-04-18T11:22:09Z</time></trkpt><trkpt lat="47.981928383507494" lon="11.7167966989245"><ele>608.0</ele><time>2026-04-18T11:22:10Z</time></trkpt><trkpt lat="47.982039285857134" lon="11.716771767674024"><ele>608.0</ele><time>2026-04-18T11:22:11Z</time></trkpt><trkpt lat="47.98217564503557" lon="11.716741316240162"><ele>608.0</ele><time>2026-04-18T11:22:12Z</time></trkpt><trkpt lat="47.982307083067596" lon="11.716714008824754"><ele>608.0</ele><time>2026-04-18T11:22:13.001Z</time></trkpt><trkpt lat="47.98241806606704" lon="11.716697935317764"><ele>607.75</ele><time>2026-04-18T11:22:14.001Z</time></trkpt><trkpt lat="47.982514623655405" lon="11.716679916935872"><ele>607.5</ele><time>2026-04-18T11:22:15.001Z</time></trkpt><trkpt lat="47.9826092876676" lon="11.716657277446286"><ele>607.25</ele><time>2026-04-18T11:22:16.001Z</time></trkpt><trkpt lat="47.9827324270618" lon="11.716622835199772"><ele>607.0</ele><time>2026-04-18T11:22:17.001Z</time></trkpt><trkpt lat="47.98286311712118" lon="11.71658333016539"><ele>607.0</ele><time>2026-04-18T11:22:18.001Z</time></trkpt><trkpt lat="47.9829702558427" lon="11.716550031135563"><ele>607.0</ele><time>2026-04-18T11:22:19.001Z</time></trkpt><trkpt lat="47.9830625180324" lon="11.716525737574557"><ele>607.0</ele><time>2026-04-18T11:22:20.001Z</time></trkpt><trkpt lat="47.98314857774778" lon="11.71650093344103"><ele>607.0</ele><time>2026-04-18T11:22:21.001Z</time></trkpt><trkpt lat="47.983245680948855" lon="11.716486683129226"><ele>607.0</ele><time>2026-04-18T11:22:22.001Z</time></trkpt><trkpt lat="47.98336771491595" lon="11.716472830290284"><ele>606.8000000000001</ele><time>2026-04-18T11:22:23.001Z</time></trkpt><trkpt lat="47.98347557118121" lon="11.716440643165214"><ele>606.6</ele><time>2026-04-18T11:22:24.001Z</time></trkpt><trkpt lat="47.983584351458575" lon="11.716395836243551"><ele>606.4000000000001</ele><time>2026-04-18T11:22:25.001Z</time></trkpt><trkpt lat="47.983701311722754" lon="11.716348479889954"><ele>606.2</ele><time>2026-04-18T11:22:26.001Z</time></trkpt><trkpt lat="47.9838005732713" lon="11.716306628342375"><ele>606.0</ele><time>2026-04-18T11:22:27.001Z</time></trkpt><trkpt lat="47.98389146919969" lon="11.71626044890421"><ele>606.0</ele><time>2026-04-18T11:22:28.001Z</time></trkpt><trkpt lat="47.9839791303236" lon="11.716211546405164"><ele>606.0</ele><time>2026-04-18T11:22:29.001Z</time></trkpt><trkpt lat="47.98406387690247" lon="11.716169601154226"><ele>606.0</ele><time>2026-04-18T11:22:30.001Z</time></trkpt><trkpt lat="47.98414242544406" lon="11.716125837783803"><ele>606.0</ele><time>2026-04-18T11:22:31.001Z</time></trkpt><trkpt lat="47.984209846591796" lon="11.716082787546606"><ele>606.0</ele><time>2026-04-18T11:22:32.001Z</time></trkpt><trkpt lat="47.984273766911976" lon="11.716037773018808"><ele>606.0</ele><time>2026-04-18T11:22:33.001Z</time></trkpt><trkpt lat="47.984336452134045" lon="11.715996669173412"><ele>606.1666666666666</ele><time>2026-04-18T11:22:34.001Z</time></trkpt><trkpt lat="47.984399891720905" lon="11.715952979071607"><ele>606.3333333333334</ele><time>2026-04-18T11:22:35.001Z</time></trkpt><trkpt lat="47.98446214232422" lon="11.715904281593495"><ele>606.5</ele><time>2026-04-18T11:22:36.001Z</time></trkpt><trkpt lat="47.98452289632425" lon="11.715852333308707"><ele>606.6666666666667</ele><time>2026-04-18T11:22:37.001Z</time></trkpt><trkpt lat="47.984579156374984" lon="11.715802169516445"><ele>606.8333333333334</ele><time>2026-04-18T11:22:38.001Z</time></trkpt><trkpt lat="47.98467352170989" lon="11.715710110578323"><ele>607.0</ele><time>2026-04-18T11:22:40.001Z</time></trkpt><trkpt lat="47.98474868154361" lon="11.71565195550432"><ele>607.0</ele><time>2026-04-18T11:22:42.001Z</time></trkpt><trkpt lat="47.9848060419039" lon="11.715581180299425"><ele>607.0</ele><time>2026-04-18T11:23:32Z</time></trkpt><trkpt lat="47.98487221729128" lon="11.715504590029948"><ele>607.0</ele><time>2026-04-18T11:23:34Z</time></trkpt><trkpt lat="47.98493177278228" lon="11.7154472487115"><ele>607.0</ele><time>2026-04-18T11:23:35Z</time></trkpt><trkpt lat="47.98500402433928" lon="11.71539809415134"><ele>607.0</ele><time>2026-04-18T11:23:36Z</time></trkpt><trkpt lat="47.985072664375814" lon="11.715354337698486"><ele>607.0</ele><time>2026-04-18T11:23:37Z</time></trkpt><trkpt lat="47.985143343131526" lon="11.715318037432368"><ele>607.1666666666667</ele><time>2026-04-18T11:23:38Z</time></trkpt><trkpt lat="47.98521218580865" lon="11.715291389153071"><ele>607.3333333333334</ele><time>2026-04-18T11:23:39Z</time></trkpt><trkpt lat="47.98527768453252" lon="11.715269069202566"><ele>607.5</ele><time>2026-04-18T11:23:40Z</time></trkpt><trkpt lat="47.98534003223388" lon="11.715251534212738"><ele>607.6666666666666</ele><time>2026-04-18T11:23:41Z</time></trkpt><trkpt lat="47.98546157109327" lon="11.715210112725906"><ele>607.8333333333333</ele><time>2026-04-18T11:23:43Z</time></trkpt><trkpt lat="47.98552962444037" lon="11.715185938916436"><ele>608.0</ele><time>2026-04-18T11:23:44Z</time></trkpt><trkpt lat="47.98560405255201" lon="11.715157650009166"><ele>608.0</ele><time>2026-04-18T11:23:45Z</time></trkpt><trkpt lat="47.98568552124662" lon="11.715131871276691"><ele>608.0</ele><time>2026-04-18T11:23:46Z</time></trkpt><trkpt lat="47.98577364625422" lon="11.715107610780466"><ele>608.0</ele><time>2026-04-18T11:23:47Z</time></trkpt><trkpt lat="47.985866930286804" lon="11.715082311412079"><ele>608.0</ele><time>2026-04-18T11:23:48Z</time></trkpt><trkpt lat="47.98595979301059" lon="11.715033925770934"><ele>608.0</ele><time>2026-04-18T11:23:49Z</time></trkpt><trkpt lat="47.986049447058036" lon="11.714977503714664"><ele>607.6</ele><time>2026-04-18T11:23:50Z</time></trkpt><trkpt lat="47.98613577867079" lon="11.714918834717961"><ele>607.1999999999999</ele><time>2026-04-18T11:23:51Z</time></trkpt><trkpt lat="47.98622213275323" lon="11.714860095711995"><ele>606.8</ele><time>2026-04-18T11:23:52Z</time></trkpt><trkpt lat="47.986312816591166" lon="11.714792734604341"><ele>606.4</ele><time>2026-04-18T11:23:53Z</time></trkpt><trkpt lat="47.98642655381801" lon="11.714720937643111"><ele>606.0</ele><time>2026-04-18T11:23:54Z</time></trkpt><trkpt lat="47.986539971081065" lon="11.714660772533628"><ele>606.0</ele><time>2026-04-18T11:23:55Z</time></trkpt><trkpt lat="47.98664085450545" lon="11.714608515298236"><ele>606.0</ele><time>2026-04-18T11:23:56Z</time></trkpt><trkpt lat="47.986736200065494" lon="11.714572321002063"><ele>606.0</ele><time>2026-04-18T11:23:57Z</time></trkpt><trkpt lat="47.98682614453656" lon="11.714535628989625"><ele>606.0</ele><time>2026-04-18T11:23:58Z</time></trkpt><trkpt lat="47.98692324749503" lon="11.714492855218229"><ele>606.0</ele><time>2026-04-18T11:23:59Z</time></trkpt><trkpt lat="47.987031201389804" lon="11.71444786882839"><ele>605.5</ele><time>2026-04-18T11:24:00Z</time></trkpt><trkpt lat="47.98714234079571" lon="11.714400787277501"><ele>605.0</ele><time>2026-04-18T11:24:01Z</time></trkpt><trkpt lat="47.987256491032255" lon="11.714344277522802"><ele>604.5</ele><time>2026-04-18T11:24:02Z</time></trkpt><trkpt lat="47.98737070048493" lon="11.714286294804133"><ele>604.0</ele><time>2026-04-18T11:24:03Z</time></trkpt><trkpt lat="47.98747690388084" lon="11.71422696545067"><ele>603.8</ele><time>2026-04-18T11:24:04Z</time></trkpt><trkpt lat="47.98757431873834" lon="11.714170761135772"><ele>603.5999999999999</ele><time>2026-04-18T11:24:05Z</time></trkpt><trkpt lat="47.98766537512359" lon="11.714116216441758"><ele>603.4</ele><time>2026-04-18T11:24:06Z</time></trkpt><trkpt lat="47.98775186942998" lon="11.714062058679351"><ele>603.1999999999999</ele><time>2026-04-18T11:24:07Z</time></trkpt><trkpt lat="47.987840655584755" lon="11.714013923507977"><ele>603.0</ele><time>2026-04-18T11:24:08Z</time></trkpt><trkpt lat="47.9879306089011" lon="11.713958504138226"><ele>603.0</ele><time>2026-04-18T11:24:09Z</time></trkpt><trkpt lat="47.988024863620375" lon="11.713902347465124"><ele>603.0</ele><time>2026-04-18T11:24:10Z</time></trkpt><trkpt lat="47.988125521187456" lon="11.713848302638308"><ele>603.0</ele><time>2026-04-18T11:24:11Z</time></trkpt><trkpt lat="47.98822721514796" lon="11.71379045141134"><ele>603.0</ele><time>2026-04-18T11:24:12Z</time></trkpt><trkpt lat="47.9883277246011" lon="11.713729535232757"><ele>603.0</ele><time>2026-04-18T11:24:13Z</time></trkpt><trkpt lat="47.988423776092446" lon="11.713664832975796"><ele>602.8</ele><time>2026-04-18T11:24:14Z</time></trkpt><trkpt lat="47.988518113611825" lon="11.713606535950465"><ele>602.5999999999999</ele><time>2026-04-18T11:24:15Z</time></trkpt><trkpt lat="47.98861190176607" lon="11.713553725000635"><ele>602.4000000000001</ele><time>2026-04-18T11:24:16Z</time></trkpt><trkpt lat="47.98870838504509" lon="11.713508704588863"><ele>602.2</ele><time>2026-04-18T11:24:17Z</time></trkpt><trkpt lat="47.98880376875934" lon="11.713470081946626"><ele>602.0</ele><time>2026-04-18T11:24:18Z</time></trkpt><trkpt lat="47.98889966048555" lon="11.713430522160973"><ele>602.0</ele><time>2026-04-18T11:24:19Z</time></trkpt><trkpt lat="47.98900350457308" lon="11.713387509207136"><ele>602.0</ele><time>2026-04-18T11:24:20Z</time></trkpt><trkpt lat="47.98912710487516" lon="11.713342019288392"><ele>602.0</ele><time>2026-04-18T11:24:21Z</time></trkpt><trkpt lat="47.989268936505944" lon="11.713297259120807"><ele>602.0</ele><time>2026-04-18T11:24:22Z</time></trkpt><trkpt lat="47.989448635219084" lon="11.713243555629429"><ele>602.0</ele><time>2026-04-18T11:24:23Z</time></trkpt><trkpt lat="47.98966206864426" lon="11.713172964987907"><ele>602.0</ele><time>2026-04-18T11:24:24Z</time></trkpt><trkpt lat="47.98990151323331" lon="11.713086475760388"><ele>601.5</ele><time>2026-04-18T11:24:25Z</time></trkpt><trkpt lat="47.990160196421705" lon="11.712990783676213"><ele>601.0</ele><time>2026-04-18T11:24:26Z</time></trkpt><trkpt lat="47.99040501464606" lon="11.712895658327476"><ele>601.0</ele><time>2026-04-18T11:24:27Z</time></trkpt><trkpt lat="47.990641149042055" lon="11.712800051304644"><ele>601.0</ele><time>2026-04-18T11:24:28Z</time></trkpt><trkpt lat="47.99086962089563" lon="11.712706465564306"><ele>600.0</ele><time>2026-04-18T11:24:29Z</time></trkpt><trkpt lat="47.99109005370043" lon="11.712611177337799"><ele>599.0</ele><time>2026-04-18T11:24:30Z</time></trkpt><trkpt lat="47.99130374991415" lon="11.71251641271061"><ele>599.0</ele><time>2026-04-18T11:24:31Z</time></trkpt><trkpt lat="47.99151005395256" lon="11.712422126178089"><ele>599.0</ele><time>2026-04-18T11:24:32Z</time></trkpt><trkpt lat="47.99171000470204" lon="11.7123332000602"><ele>599.0</ele><time>2026-04-18T11:24:33Z</time></trkpt><trkpt lat="47.99190375975556" lon="11.712248000243294"><ele>599.0</ele><time>2026-04-18T11:24:34Z</time></trkpt><trkpt lat="47.9920831124129" lon="11.712169561651356"><ele>599.0</ele><time>2026-04-18T11:24:35Z</time></trkpt><trkpt lat="47.9922543955705" lon="11.712092303840057"><ele>599.0</ele><time>2026-04-18T11:24:36Z</time></trkpt><trkpt lat="47.99241589554305" lon="11.7120197581576"><ele>598.6666666666666</ele><time>2026-04-18T11:24:37Z</time></trkpt><trkpt lat="47.99256795529379" lon="11.711940430863732"><ele>598.3333333333334</ele><time>2026-04-18T11:24:38Z</time></trkpt><trkpt lat="47.9927114216912" lon="11.711871753632103"><ele>598.0</ele><time>2026-04-18T11:24:39Z</time></trkpt><trkpt lat="47.99285662881485" lon="11.711826649105262"><ele>598.0</ele><time>2026-04-18T11:24:40Z</time></trkpt><trkpt lat="47.99299321686212" lon="11.7117632669513"><ele>598.0</ele><time>2026-04-18T11:24:41Z</time></trkpt><trkpt lat="47.99312810519403" lon="11.711701949238316"><ele>598.0</ele><time>2026-04-18T11:24:42Z</time></trkpt><trkpt lat="47.99326666963305" lon="11.7116522896401"><ele>598.0</ele><time>2026-04-18T11:24:43Z</time></trkpt><trkpt lat="47.99340847931222" lon="11.711595612858542"><ele>598.0</ele><time>2026-04-18T11:24:44Z</time></trkpt><trkpt lat="47.99355078405646" lon="11.711524154540044"><ele>598.0</ele><time>2026-04-18T11:24:45Z</time></trkpt><trkpt lat="47.993693576558826" lon="11.711419990375525"><ele>598.0</ele><time>2026-04-18T11:24:46Z</time></trkpt><trkpt lat="47.993837362071126" lon="11.711274722738898"><ele>598.0</ele><time>2026-04-18T11:24:47Z</time></trkpt><trkpt lat="47.993974481528575" lon="11.71109565970187"><ele>598.0</ele><time>2026-04-18T11:24:48Z</time></trkpt><trkpt lat="47.99409799167907" lon="11.710921363884564"><ele>598.0</ele><time>2026-04-18T11:24:49Z</time></trkpt><trkpt lat="47.99422030299646" lon="11.710763440051775"><ele>600.0</ele><time>2026-04-18T11:24:50Z</time></trkpt><trkpt lat="47.994344283641716" lon="11.710606137269357"><ele>602.0</ele><time>2026-04-18T11:24:51Z</time></trkpt><trkpt lat="47.99446527421621" lon="11.71044315616931"><ele>604.0</ele><time>2026-04-18T11:24:52Z</time></trkpt><trkpt lat="47.99459037811316" lon="11.710272014217349"><ele>605.3333333333334</ele><time>2026-04-18T11:24:53Z</time></trkpt><trkpt lat="47.99472321430808" lon="11.71009669716679"><ele>606.6666666666666</ele><time>2026-04-18T11:24:54Z</time></trkpt><trkpt lat="47.994859805019786" lon="11.709912218250539"><ele>608.0</ele><time>2026-04-18T11:24:55Z</time></trkpt><trkpt lat="47.995001565646135" lon="11.709722368672296"><ele>607.6666666666666</ele><time>2026-04-18T11:24:56Z</time></trkpt><trkpt lat="47.99514898506444" lon="11.709531374502085"><ele>607.3333333333334</ele><time>2026-04-18T11:24:57Z</time></trkpt><trkpt lat="47.99530918262381" lon="11.709346074425474"><ele>607.0</ele><time>2026-04-18T11:24:58Z</time></trkpt><trkpt lat="47.99548845400756" lon="11.70919104169417"><ele>607.0</ele><time>2026-04-18T11:24:59Z</time></trkpt><trkpt lat="47.995666347045585" lon="11.709037788148578"><ele>607.0</ele><time>2026-04-18T11:25:00Z</time></trkpt><trkpt lat="47.99584411101404" lon="11.708914687486105"><ele>607.0</ele><time>2026-04-18T11:25:01Z</time></trkpt><trkpt lat="47.99602490970689" lon="11.708805099803511"><ele>607.0</ele><time>2026-04-18T11:25:02Z</time></trkpt><trkpt lat="47.99620330758694" lon="11.708676018276472"><ele>607.0</ele><time>2026-04-18T11:25:03Z</time></trkpt><trkpt lat="47.99636617560805" lon="11.708592385054834"><ele>607.0</ele><time>2026-04-18T11:25:04Z</time></trkpt><trkpt lat="47.99652017456418" lon="11.708507304303723"><ele>607.0</ele><time>2026-04-18T11:25:05Z</time></trkpt><trkpt lat="47.99666920664957" lon="11.708420406752527"><ele>607.0</ele><time>2026-04-18T11:25:06Z</time></trkpt><trkpt lat="47.99681954484711" lon="11.708333764145648"><ele>607.0</ele><time>2026-04-18T11:25:07Z</time></trkpt><trkpt lat="47.99708027721681" lon="11.708193401355121"><ele>606.6666666666667</ele><time>2026-04-18T11:25:08Z</time></trkpt><trkpt lat="47.99728122299551" lon="11.708080585261166"><ele>606.3333333333334</ele><time>2026-04-18T11:25:09Z</time></trkpt><trkpt lat="47.9974803119625" lon="11.70796420697441"><ele>606.0</ele><time>2026-04-18T11:25:10Z</time></trkpt><trkpt lat="47.99768436415936" lon="11.707849846068576"><ele>608.0</ele><time>2026-04-18T11:25:11Z</time></trkpt><trkpt lat="47.997896764208896" lon="11.707733771696715"><ele>610.0</ele><time>2026-04-18T11:25:12Z</time></trkpt><trkpt lat="47.99811627574084" lon="11.707614457275056"><ele>610.0</ele><time>2026-04-18T11:25:13Z</time></trkpt><trkpt lat="47.99832797097764" lon="11.707497484593828"><ele>610.0</ele><time>2026-04-18T11:25:14Z</time></trkpt><trkpt lat="47.99853677436309" lon="11.707389492530048"><ele>610.0</ele><time>2026-04-18T11:25:15Z</time></trkpt><trkpt lat="47.99874801873754" lon="11.70729684286215"><ele>609.6666666666667</ele><time>2026-04-18T11:25:16Z</time></trkpt><trkpt lat="47.998954058056945" lon="11.707217321175184"><ele>609.3333333333334</ele><time>2026-04-18T11:25:17Z</time></trkpt><trkpt lat="47.999164444518925" lon="11.70715432958856"><ele>609.0</ele><time>2026-04-18T11:25:18Z</time></trkpt><trkpt lat="47.9993767727318" lon="11.707106128753306"><ele>609.6666666666666</ele><time>2026-04-18T11:25:19Z</time></trkpt><trkpt lat="47.99959520396528" lon="11.707068312119695"><ele>610.3333333333333</ele><time>2026-04-18T11:25:20Z</time></trkpt><trkpt lat="47.99981615821924" lon="11.707035426565117"><ele>611.0</ele><time>2026-04-18T11:25:21Z</time></trkpt><trkpt lat="48.000039471977225" lon="11.707000182460888"><ele>611.0</ele><time>2026-04-18T11:25:22Z</time></trkpt><trkpt lat="48.00026158623417" lon="11.706967514611046"><ele>611.0</ele><time>2026-04-18T11:25:23Z</time></trkpt><trkpt lat="48.000487888282315" lon="11.70693140124534"><ele>608.0</ele><time>2026-04-18T11:25:24Z</time></trkpt><trkpt lat="48.0007230454747" lon="11.706891995113008"><ele>605.0</ele><time>2026-04-18T11:25:25Z</time></trkpt><trkpt lat="48.00095795703896" lon="11.706853671085733"><ele>604.3333333333333</ele><time>2026-04-18T11:25:26Z</time></trkpt><trkpt lat="48.00118373874082" lon="11.70681835778764"><ele>603.6666666666666</ele><time>2026-04-18T11:25:27Z</time></trkpt><trkpt lat="48.00140284368988" lon="11.706783911926516"><ele>603.0</ele><time>2026-04-18T11:25:28Z</time></trkpt><trkpt lat="48.00161691954456" lon="11.706748910531369"><ele>600.6666666666666</ele><time>2026-04-18T11:25:29Z</time></trkpt><trkpt lat="48.001829321449435" lon="11.706708844089786"><ele>598.3333333333333</ele><time>2026-04-18T11:25:30Z</time></trkpt><trkpt lat="48.0020481907144" lon="11.706678657248187"><ele>596.0</ele><time>2026-04-18T11:25:31Z</time></trkpt><trkpt lat="48.00226378912021" lon="11.706673502361202"><ele>596.0</ele><time>2026-04-18T11:25:32Z</time></trkpt><trkpt lat="48.0024720472252" lon="11.706695789650173"><ele>596.0</ele><time>2026-04-18T11:25:33Z</time></trkpt><trkpt lat="48.00267320461833" lon="11.706739955354244"><ele>596.0</ele><time>2026-04-18T11:25:34Z</time></trkpt><trkpt lat="48.00286958094981" lon="11.706797788991434"><ele>596.6666666666666</ele><time>2026-04-18T11:25:35Z</time></trkpt><trkpt lat="48.003064260770735" lon="11.706870891188284"><ele>597.3333333333334</ele><time>2026-04-18T11:25:36Z</time></trkpt><trkpt lat="48.003257320802405" lon="11.706952147076684"><ele>598.0</ele><time>2026-04-18T11:25:37Z</time></trkpt><trkpt lat="48.00345850731723" lon="11.707026696731871"><ele>600.6666666666667</ele><time>2026-04-18T11:25:38Z</time></trkpt><trkpt lat="48.00366499562639" lon="11.70710372677248"><ele>603.3333333333334</ele><time>2026-04-18T11:25:39Z</time></trkpt><trkpt lat="48.00387138489392" lon="11.70718521980044"><ele>606.0</ele><time>2026-04-18T11:25:40Z</time></trkpt><trkpt lat="48.004074090954994" lon="11.707267685816996"><ele>603.6666666666666</ele><time>2026-04-18T11:25:41Z</time></trkpt><trkpt lat="48.004277330297654" lon="11.707343793410507"><ele>601.3333333333333</ele><time>2026-04-18T11:25:42Z</time></trkpt><trkpt lat="48.004476683802714" lon="11.70741598863679"><ele>599.0</ele><time>2026-04-18T11:25:43Z</time></trkpt><trkpt lat="48.004675533244416" lon="11.707497109498192"><ele>599.0</ele><time>2026-04-18T11:25:44Z</time></trkpt><trkpt lat="48.0048721050477" lon="11.7075775590236"><ele>599.0</ele><time>2026-04-18T11:25:45Z</time></trkpt><trkpt lat="48.005067943288296" lon="11.707664711439907"><ele>599.0</ele><time>2026-04-18T11:25:46Z</time></trkpt><trkpt lat="48.0052586632748" lon="11.707774081671023"><ele>598.0</ele><time>2026-04-18T11:25:47Z</time></trkpt><trkpt lat="48.005433456163914" lon="11.707898351867158"><ele>597.0</ele><time>2026-04-18T11:25:48Z</time></trkpt><trkpt lat="48.00559938928691" lon="11.708030717198982"><ele>596.0</ele><time>2026-04-18T11:25:49Z</time></trkpt><trkpt lat="48.00576669300436" lon="11.70816247260006"><ele>595.3333333333333</ele><time>2026-04-18T11:25:50Z</time></trkpt><trkpt lat="48.00592995562442" lon="11.708310373146894"><ele>594.6666666666666</ele><time>2026-04-18T11:25:51Z</time></trkpt><trkpt lat="48.00609096625113" lon="11.70845384657838"><ele>594.0</ele><time>2026-04-18T11:25:52Z</time></trkpt><trkpt lat="48.006248004552226" lon="11.708585699698759"><ele>594.0</ele><time>2026-04-18T11:25:53Z</time></trkpt><trkpt lat="48.0063975828133" lon="11.708704328927299"><ele>594.0</ele><time>2026-04-18T11:25:54Z</time></trkpt><trkpt lat="48.00654254744676" lon="11.708814206748489"><ele>594.0</ele><time>2026-04-18T11:25:55Z</time></trkpt><trkpt lat="48.00668325542453" lon="11.70891406473625"><ele>596.0</ele><time>2026-04-18T11:25:56Z</time></trkpt><trkpt lat="48.00682192255389" lon="11.709006425022977"><ele>598.0</ele><time>2026-04-18T11:25:57Z</time></trkpt><trkpt lat="48.00696156410791" lon="11.709099192853547"><ele>600.0</ele><time>2026-04-18T11:25:58Z</time></trkpt><trkpt lat="48.007112075775254" lon="11.709190776416161"><ele>600.0</ele><time>2026-04-18T11:25:59Z</time></trkpt><trkpt lat="48.00726095050382" lon="11.709261376695741"><ele>600.0</ele><time>2026-04-18T11:26:00Z</time></trkpt><trkpt lat="48.007411131162435" lon="11.709316036707888"><ele>600.0</ele><time>2026-04-18T11:26:01Z</time></trkpt><trkpt lat="48.007556986541175" lon="11.709371835826744"><ele>602.0</ele><time>2026-04-18T11:26:02Z</time></trkpt><trkpt lat="48.00769493688715" lon="11.709435624469817"><ele>604.0</ele><time>2026-04-18T11:26:03Z</time></trkpt><trkpt lat="48.00783013570723" lon="11.709503233461076"><ele>606.0</ele><time>2026-04-18T11:26:04Z</time></trkpt><trkpt lat="48.00796093229164" lon="11.709572570131494"><ele>608.0</ele><time>2026-04-18T11:26:05Z</time></trkpt><trkpt lat="48.00808349879361" lon="11.709642722202167"><ele>608.0</ele><time>2026-04-18T11:26:06Z</time></trkpt><trkpt lat="48.008197958522544" lon="11.70971325161695"><ele>608.0</ele><time>2026-04-18T11:26:07Z</time></trkpt><trkpt lat="48.00830376955937" lon="11.709786916537702"><ele>608.0</ele><time>2026-04-18T11:26:08Z</time></trkpt><trkpt lat="48.008396207294886" lon="11.709855871482162"><ele>608.0</ele><time>2026-04-18T11:26:09Z</time></trkpt><trkpt lat="48.00847760996003" lon="11.70991688029807"><ele>608.0</ele><time>2026-04-18T11:26:10Z</time></trkpt><trkpt lat="48.00855239242369" lon="11.709969683102987"><ele>607.1999999999999</ele><time>2026-04-18T11:26:11Z</time></trkpt><trkpt lat="48.008616563968374" lon="11.7100119013376"><ele>606.4</ele><time>2026-04-18T11:26:12Z</time></trkpt><trkpt lat="48.008719624079696" lon="11.7100900935335"><ele>605.5999999999999</ele><time>2026-04-18T11:26:14Z</time></trkpt><trkpt lat="48.008832242161226" lon="11.710179358846085"><ele>604.8</ele><time>2026-04-18T11:26:16Z</time></trkpt><trkpt lat="48.00890744948123" lon="11.71024466164278"><ele>604.0</ele><time>2026-04-18T11:26:17Z</time></trkpt><trkpt lat="48.008963891216915" lon="11.71029163439147"><ele>604.0</ele><time>2026-04-18T11:26:18Z</time></trkpt><trkpt lat="48.00903539088685" lon="11.710358837702682"><ele>604.0</ele><time>2026-04-18T11:26:20Z</time></trkpt><trkpt lat="48.009110882276765" lon="11.710362820685411"><ele>604.0</ele><time>2026-04-18T11:26:22Z</time></trkpt><trkpt lat="48.00917964760076" lon="11.710206605183105"><ele>604.0</ele><time>2026-04-18T11:26:24Z</time></trkpt><trkpt lat="48.009196784086214" lon="11.71010326162896"><ele>604.0</ele><time>2026-04-18T11:26:25Z</time></trkpt><trkpt lat="48.009211813975796" lon="11.709987332117198"><ele>604.0</ele><time>2026-04-18T11:26:26Z</time></trkpt><trkpt lat="48.009232852868664" lon="11.70985059434522"><ele>604.5</ele><time>2026-04-18T11:26:27Z</time></trkpt><trkpt lat="48.009257498307896" lon="11.709703944531292"><ele>605.0</ele><time>2026-04-18T11:26:28Z</time></trkpt><trkpt lat="48.00929950770536" lon="11.709496589570923"><ele>605.5</ele><time>2026-04-18T11:26:29Z</time></trkpt><trkpt lat="48.00935427845871" lon="11.709242262722103"><ele>606.0</ele><time>2026-04-18T11:26:30Z</time></trkpt><trkpt lat="48.009422858679926" lon="11.708958103920907"><ele>606.0</ele><time>2026-04-18T11:26:31Z</time></trkpt><trkpt lat="48.00950074866198" lon="11.708675926853703"><ele>606.0</ele><time>2026-04-18T11:26:32Z</time></trkpt><trkpt lat="48.00959397389204" lon="11.708381294167461"><ele>606.0</ele><time>2026-04-18T11:26:33Z</time></trkpt><trkpt lat="48.00968623753871" lon="11.708112052121084"><ele>606.3333333333334</ele><time>2026-04-18T11:26:34Z</time></trkpt><trkpt lat="48.0097836676122" lon="11.707842090925473"><ele>606.6666666666667</ele><time>2026-04-18T11:26:35Z</time></trkpt><trkpt lat="48.00990039095353" lon="11.707555673237655"><ele>607.0</ele><time>2026-04-18T11:26:36Z</time></trkpt><trkpt lat="48.01003086227794" lon="11.70726740072903"><ele>607.0</ele><time>2026-04-18T11:26:37Z</time></trkpt><trkpt lat="48.01016923741245" lon="11.70697174287322"><ele>607.0</ele><time>2026-04-18T11:26:38Z</time></trkpt><trkpt lat="48.01030590577782" lon="11.706673433167655"><ele>607.6666666666667</ele><time>2026-04-18T11:26:39Z</time></trkpt><trkpt lat="48.010431665839164" lon="11.706397184815284"><ele>608.3333333333334</ele><time>2026-04-18T11:26:40Z</time></trkpt><trkpt lat="48.01055026308785" lon="11.70613208530321"><ele>609.0</ele><time>2026-04-18T11:26:41Z</time></trkpt><trkpt lat="48.01066562068381" lon="11.705870415328436"><ele>609.0</ele><time>2026-04-18T11:26:42Z</time></trkpt><trkpt lat="48.01077900247573" lon="11.705596841439464"><ele>609.0</ele><time>2026-04-18T11:26:43Z</time></trkpt><trkpt lat="48.01089028103401" lon="11.705313347118492"><ele>609.0</ele><time>2026-04-18T11:26:44Z</time></trkpt><trkpt lat="48.01099672153329" lon="11.705018495628178"><ele>606.0</ele><time>2026-04-18T11:26:45Z</time></trkpt><trkpt lat="48.01109046014959" lon="11.704720287255352"><ele>603.0</ele><time>2026-04-18T11:26:46Z</time></trkpt><trkpt lat="48.01117632071191" lon="11.70441756316283"><ele>600.0</ele><time>2026-04-18T11:26:47Z</time></trkpt><trkpt lat="48.011253271203785" lon="11.704119138899637"><ele>600.0</ele><time>2026-04-18T11:26:48Z</time></trkpt><trkpt lat="48.01131863285905" lon="11.7038356558382"><ele>600.0</ele><time>2026-04-18T11:26:49Z</time></trkpt><trkpt lat="48.01137740435655" lon="11.703564593866762"><ele>600.0</ele><time>2026-04-18T11:26:50Z</time></trkpt><trkpt lat="48.011428545351094" lon="11.703301265065102"><ele>599.3333333333334</ele><time>2026-04-18T11:26:51Z</time></trkpt><trkpt lat="48.01147912725286" lon="11.703049031214386"><ele>598.6666666666667</ele><time>2026-04-18T11:26:52Z</time></trkpt><trkpt lat="48.011529189777136" lon="11.702794146568262"><ele>598.0</ele><time>2026-04-18T11:26:53Z</time></trkpt><trkpt lat="48.011584636862146" lon="11.702534823378754"><ele>597.0</ele><time>2026-04-18T11:26:54Z</time></trkpt><trkpt lat="48.01164482042369" lon="11.702276320864625"><ele>596.0</ele><time>2026-04-18T11:26:55Z</time></trkpt><trkpt lat="48.011706342307995" lon="11.702017608339483"><ele>595.0</ele><time>2026-04-18T11:26:56Z</time></trkpt><trkpt lat="48.01177255451865" lon="11.701759660513002"><ele>593.3333333333334</ele><time>2026-04-18T11:26:57Z</time></trkpt><trkpt lat="48.011842922361026" lon="11.70150527459555"><ele>591.6666666666666</ele><time>2026-04-18T11:26:58Z</time></trkpt><trkpt lat="48.01192153622269" lon="11.701257037360735"><ele>590.0</ele><time>2026-04-18T11:26:59Z</time></trkpt><trkpt lat="48.012009576120604" lon="11.701015018067682"><ele>589.3333333333333</ele><time>2026-04-18T11:27:00Z</time></trkpt><trkpt lat="48.01211244781135" lon="11.700766149223858"><ele>588.6666666666666</ele><time>2026-04-18T11:27:01Z</time></trkpt><trkpt lat="48.01222387126966" lon="11.700516894786322"><ele>588.0</ele><time>2026-04-18T11:27:02Z</time></trkpt><trkpt lat="48.01233815653262" lon="11.700269264646245"><ele>588.0</ele><time>2026-04-18T11:27:03Z</time></trkpt><trkpt lat="48.01245928394581" lon="11.70002814899099"><ele>588.0</ele><time>2026-04-18T11:27:04Z</time></trkpt><trkpt lat="48.01258966162598" lon="11.699796759673772"><ele>588.0</ele><time>2026-04-18T11:27:05Z</time></trkpt><trkpt lat="48.01272761697391" lon="11.699580106062971"><ele>587.6666666666666</ele><time>2026-04-18T11:27:06Z</time></trkpt><trkpt lat="48.01286937687402" lon="11.699374079877076"><ele>587.3333333333333</ele><time>2026-04-18T11:27:07Z</time></trkpt><trkpt lat="48.01301319051564" lon="11.699170307729382"><ele>587.0</ele><time>2026-04-18T11:27:08Z</time></trkpt><trkpt lat="48.01316277252544" lon="11.698975155756948"><ele>587.0</ele><time>2026-04-18T11:27:09Z</time></trkpt><trkpt lat="48.01332100015286" lon="11.698786433608484"><ele>587.0</ele><time>2026-04-18T11:27:10Z</time></trkpt><trkpt lat="48.01348739291993" lon="11.69860959804261"><ele>587.0</ele><time>2026-04-18T11:27:11Z</time></trkpt><trkpt lat="48.01366466474717" lon="11.698448289951761"><ele>587.0</ele><time>2026-04-18T11:27:12Z</time></trkpt><trkpt lat="48.01384285757758" lon="11.698303623636495"><ele>587.0</ele><time>2026-04-18T11:27:13Z</time></trkpt><trkpt lat="48.01402164130859" lon="11.698171834013456"><ele>587.0</ele><time>2026-04-18T11:27:14Z</time></trkpt><trkpt lat="48.01420264952598" lon="11.698050860048845"><ele>587.0</ele><time>2026-04-18T11:27:15Z</time></trkpt><trkpt lat="48.014385578729836" lon="11.697934284298404"><ele>587.0</ele><time>2026-04-18T11:27:16Z</time></trkpt><trkpt lat="48.01457234627019" lon="11.697820352310359"><ele>587.0</ele><time>2026-04-18T11:27:17Z</time></trkpt><trkpt lat="48.01475867583444" lon="11.697702090109493"><ele>587.0</ele><time>2026-04-18T11:27:18Z</time></trkpt><trkpt lat="48.01494922098202" lon="11.697582192073018"><ele>587.0</ele><time>2026-04-18T11:27:19Z</time></trkpt><trkpt lat="48.015145479698774" lon="11.697469951444448"><ele>587.0</ele><time>2026-04-18T11:27:20Z</time></trkpt><trkpt lat="48.01535451220344" lon="11.697349591814705"><ele>586.0</ele><time>2026-04-18T11:27:21Z</time></trkpt><trkpt lat="48.01557419688158" lon="11.697221363448435"><ele>585.0</ele><time>2026-04-18T11:27:22Z</time></trkpt><trkpt lat="48.015802366472656" lon="11.697086826855159"><ele>585.5</ele><time>2026-04-18T11:27:23Z</time></trkpt><trkpt lat="48.01603369612248" lon="11.69694913946042"><ele>586.0</ele><time>2026-04-18T11:27:24Z</time></trkpt><trkpt lat="48.01625516642698" lon="11.696815537549295"><ele>587.0</ele><time>2026-04-18T11:27:25Z</time></trkpt><trkpt lat="48.01646713738427" lon="11.696687131141307"><ele>588.0</ele><time>2026-04-18T11:27:26Z</time></trkpt><trkpt lat="48.01667473347795" lon="11.696564409378198"><ele>588.0</ele><time>2026-04-18T11:27:27Z</time></trkpt><trkpt lat="48.01688400074622" lon="11.696440038807356"><ele>588.0</ele><time>2026-04-18T11:27:28Z</time></trkpt><trkpt lat="48.01710034379274" lon="11.696307535629582"><ele>588.0</ele><time>2026-04-18T11:27:29Z</time></trkpt><trkpt lat="48.017325203812945" lon="11.696172244997754"><ele>588.0</ele><time>2026-04-18T11:27:30Z</time></trkpt><trkpt lat="48.017551372303295" lon="11.696037264757825"><ele>589.0</ele><time>2026-04-18T11:27:31Z</time></trkpt><trkpt lat="48.017782096186515" lon="11.695901438521826"><ele>590.0</ele><time>2026-04-18T11:27:32Z</time></trkpt><trkpt lat="48.01801364481818" lon="11.695766110939095"><ele>590.0</ele><time>2026-04-18T11:27:33Z</time></trkpt><trkpt lat="48.01823764331083" lon="11.69563301180977"><ele>590.0</ele><time>2026-04-18T11:27:34Z</time></trkpt><trkpt lat="48.01845453529891" lon="11.695502605326844"><ele>588.6666666666666</ele><time>2026-04-18T11:27:35Z</time></trkpt><trkpt lat="48.018664624545025" lon="11.695378279408095"><ele>587.3333333333334</ele><time>2026-04-18T11:27:36Z</time></trkpt><trkpt lat="48.018867934772" lon="11.695258025149233"><ele>586.0</ele><time>2026-04-18T11:27:37Z</time></trkpt><trkpt lat="48.019065958795736" lon="11.695142180911814"><ele>588.0</ele><time>2026-04-18T11:27:38Z</time></trkpt><trkpt lat="48.019264203483644" lon="11.695027912799631"><ele>590.0</ele><time>2026-04-18T11:27:39Z</time></trkpt><trkpt lat="48.01946805629206" lon="11.694916800527443"><ele>592.0</ele><time>2026-04-18T11:27:40Z</time></trkpt><trkpt lat="48.01968026901839" lon="11.694824071171883"><ele>592.0</ele><time>2026-04-18T11:27:41Z</time></trkpt><trkpt lat="48.01989629660961" lon="11.694746181314985"><ele>592.0</ele><time>2026-04-18T11:27:42Z</time></trkpt><trkpt lat="48.020113527818005" lon="11.694684755032565"><ele>592.0</ele><time>2026-04-18T11:27:43Z</time></trkpt><trkpt lat="48.0203303252904" lon="11.694642670911728"><ele>592.0</ele><time>2026-04-18T11:27:44Z</time></trkpt><trkpt lat="48.02054742153606" lon="11.694613954457317"><ele>592.0</ele><time>2026-04-18T11:27:45Z</time></trkpt><trkpt lat="48.02077006978959" lon="11.694593790836601"><ele>592.0</ele><time>2026-04-18T11:27:46Z</time></trkpt><trkpt lat="48.020997025194646" lon="11.694588903114669"><ele>589.3333333333334</ele><time>2026-04-18T11:27:47Z</time></trkpt><trkpt lat="48.02121798440376" lon="11.694605176221208"><ele>586.6666666666666</ele><time>2026-04-18T11:27:48Z</time></trkpt><trkpt lat="48.02142914246302" lon="11.694635111143015"><ele>584.0</ele><time>2026-04-18T11:27:49Z</time></trkpt><trkpt lat="48.02163326006824" lon="11.694678271374224"><ele>583.6666666666666</ele><time>2026-04-18T11:27:50Z</time></trkpt><trkpt lat="48.02183468498579" lon="11.694731763337346"><ele>583.3333333333334</ele><time>2026-04-18T11:27:51Z</time></trkpt><trkpt lat="48.02203539937558" lon="11.69479349035373"><ele>583.0</ele><time>2026-04-18T11:27:52Z</time></trkpt><trkpt lat="48.02223548934632" lon="11.694863802339977"><ele>583.0</ele><time>2026-04-18T11:27:53Z</time></trkpt><trkpt lat="48.02243521557087" lon="11.694945844470297"><ele>583.0</ele><time>2026-04-18T11:27:54Z</time></trkpt><trkpt lat="48.02263442136078" lon="11.695029628141379"><ele>583.0</ele><time>2026-04-18T11:27:55Z</time></trkpt><trkpt lat="48.0228360043023" lon="11.695103919089066"><ele>583.0</ele><time>2026-04-18T11:27:56Z</time></trkpt><trkpt lat="48.023038756983695" lon="11.69517135484565"><ele>583.0</ele><time>2026-04-18T11:27:57Z</time></trkpt><trkpt lat="48.023240767827545" lon="11.695241912464562"><ele>583.0</ele><time>2026-04-18T11:27:58Z</time></trkpt><trkpt lat="48.02344282701594" lon="11.695319428108885"><ele>582.6666666666667</ele><time>2026-04-18T11:27:59Z</time></trkpt><trkpt lat="48.023641213017314" lon="11.695399773335136"><ele>582.3333333333334</ele><time>2026-04-18T11:28:00Z</time></trkpt><trkpt lat="48.0238291362431" lon="11.695470612466233"><ele>582.0</ele><time>2026-04-18T11:28:01Z</time></trkpt><trkpt lat="48.02400046476116" lon="11.695533901868977"><ele>582.0</ele><time>2026-04-18T11:28:02Z</time></trkpt><trkpt lat="48.024143536437826" lon="11.695588452592318"><ele>582.0</ele><time>2026-04-18T11:28:03Z</time></trkpt><trkpt lat="48.02427999721568" lon="11.69564099772747"><ele>582.0</ele><time>2026-04-18T11:28:04Z</time></trkpt><trkpt lat="48.0244150319232" lon="11.695692300971523"><ele>582.0</ele><time>2026-04-18T11:28:05Z</time></trkpt><trkpt lat="48.02455884897905" lon="11.695746596084359"><ele>582.6666666666666</ele><time>2026-04-18T11:28:06Z</time></trkpt><trkpt lat="48.02471862313372" lon="11.69580252356776"><ele>583.3333333333333</ele><time>2026-04-18T11:28:07Z</time></trkpt><trkpt lat="48.02489414983501" lon="11.695857722332354"><ele>584.0</ele><time>2026-04-18T11:28:08Z</time></trkpt><trkpt lat="48.025077761850014" lon="11.695907056214669"><ele>584.0</ele><time>2026-04-18T11:28:09Z</time></trkpt><trkpt lat="48.02526615529297" lon="11.695955682149066"><ele>584.0</ele><time>2026-04-18T11:28:10Z</time></trkpt><trkpt lat="48.02545777636839" lon="11.696009133979098"><ele>584.0</ele><time>2026-04-18T11:28:11Z</time></trkpt><trkpt lat="48.02564973783766" lon="11.69606429178246"><ele>584.0</ele><time>2026-04-18T11:28:12Z</time></trkpt><trkpt lat="48.02578152984079" lon="11.69598770143933"><ele>584.0</ele><time>2026-04-18T11:28:13Z</time></trkpt><trkpt lat="48.02595971794486" lon="11.695988575449373"><ele>584.0</ele><time>2026-04-18T11:28:14Z</time></trkpt><trkpt lat="48.02613755957289" lon="11.69598626324794"><ele>585.3333333333333</ele><time>2026-04-18T11:28:15Z</time></trkpt><trkpt lat="48.026313608051545" lon="11.695966154056487"><ele>586.6666666666666</ele><time>2026-04-18T11:28:16Z</time></trkpt><trkpt lat="48.02647754426889" lon="11.695934372174655"><ele>588.0</ele><time>2026-04-18T11:28:17Z</time></trkpt><trkpt lat="48.02663933730242" lon="11.695888474445537"><ele>589.6666666666666</ele><time>2026-04-18T11:28:18Z</time></trkpt><trkpt lat="48.026800762145115" lon="11.695845732616682"><ele>591.3333333333333</ele><time>2026-04-18T11:28:19Z</time></trkpt><trkpt lat="48.02695833278018" lon="11.695782150093638"><ele>593.0</ele><time>2026-04-18T11:28:20Z</time></trkpt><trkpt lat="48.02712018443455" lon="11.695723580098068"><ele>593.0</ele><time>2026-04-18T11:28:21Z</time></trkpt><trkpt lat="48.027279590728874" lon="11.695657710029597"><ele>593.0</ele><time>2026-04-18T11:28:22Z</time></trkpt><trkpt lat="48.027423050942865" lon="11.695581223116"><ele>593.0</ele><time>2026-04-18T11:28:23Z</time></trkpt><trkpt lat="48.02755706889576" lon="11.695495430373015"><ele>593.0</ele><time>2026-04-18T11:28:24Z</time></trkpt><trkpt lat="48.02768824221227" lon="11.695397812630961"><ele>593.0</ele><time>2026-04-18T11:28:25Z</time></trkpt><trkpt lat="48.027822403866445" lon="11.695287024925168"><ele>593.0</ele><time>2026-04-18T11:28:26Z</time></trkpt><trkpt lat="48.027959735934154" lon="11.695175620450463"><ele>593.0</ele><time>2026-04-18T11:28:27Z</time></trkpt><trkpt lat="48.02807193059849" lon="11.695082118166333"><ele>593.0</ele><time>2026-04-18T11:28:28Z</time></trkpt><trkpt lat="48.028159156873656" lon="11.694999093983888"><ele>593.0</ele><time>2026-04-18T11:28:29Z</time></trkpt><trkpt lat="48.02823471837085" lon="11.694929166165815"><ele>593.0</ele><time>2026-04-18T11:28:30Z</time></trkpt><trkpt lat="48.02829433568447" lon="11.694871484784137"><ele>593.0</ele><time>2026-04-18T11:28:31Z</time></trkpt><trkpt lat="48.02839701566642" lon="11.694774481196617"><ele>592.5</ele><time>2026-04-18T11:28:33Z</time></trkpt><trkpt lat="48.028462880888554" lon="11.69469837279948"><ele>592.0</ele><time>2026-04-18T11:28:34Z</time></trkpt><trkpt lat="48.028545828351355" lon="11.694583304997073"><ele>591.5</ele><time>2026-04-18T11:28:35Z</time></trkpt><trkpt lat="48.028657236047735" lon="11.694457240853561"><ele>591.0</ele><time>2026-04-18T11:28:36Z</time></trkpt><trkpt lat="48.028784160536134" lon="11.694303752314061"><ele>591.0</ele><time>2026-04-18T11:28:37Z</time></trkpt><trkpt lat="48.02891327280026" lon="11.694140302540383"><ele>591.0</ele><time>2026-04-18T11:28:38Z</time></trkpt><trkpt lat="48.029027643771016" lon="11.6939909573545"><ele>591.0</ele><time>2026-04-18T11:28:39Z</time></trkpt><trkpt lat="48.02913049475493" lon="11.693855270580633"><ele>589.5</ele><time>2026-04-18T11:28:40Z</time></trkpt><trkpt lat="48.02923235583335" lon="11.693728542848733"><ele>588.0</ele><time>2026-04-18T11:28:41Z</time></trkpt><trkpt lat="48.02934068788622" lon="11.693592135999117"><ele>586.5</ele><time>2026-04-18T11:28:42Z</time></trkpt><trkpt lat="48.02945213244297" lon="11.693443386133875"><ele>585.0</ele><time>2026-04-18T11:28:43Z</time></trkpt><trkpt lat="48.029571470284125" lon="11.693288197859685"><ele>585.0</ele><time>2026-04-18T11:28:44Z</time></trkpt><trkpt lat="48.029706085079255" lon="11.693114815094754"><ele>585.0</ele><time>2026-04-18T11:28:45Z</time></trkpt><trkpt lat="48.02985682829054" lon="11.692930865020319"><ele>585.0</ele><time>2026-04-18T11:28:46Z</time></trkpt><trkpt lat="48.03000764478281" lon="11.69273159758797"><ele>584.0</ele><time>2026-04-18T11:28:47Z</time></trkpt><trkpt lat="48.0301526156366" lon="11.69253777582582"><ele>583.0</ele><time>2026-04-18T11:28:48Z</time></trkpt><trkpt lat="48.03029659359998" lon="11.692349712569026"><ele>582.0</ele><time>2026-04-18T11:28:49Z</time></trkpt><trkpt lat="48.030434952604935" lon="11.692170774151215"><ele>582.0</ele><time>2026-04-18T11:28:50Z</time></trkpt><trkpt lat="48.03056876182241" lon="11.6920006615274"><ele>582.0</ele><time>2026-04-18T11:28:51Z</time></trkpt><trkpt lat="48.03070061471349" lon="11.691832745031371"><ele>582.0</ele><time>2026-04-18T11:28:52Z</time></trkpt><trkpt lat="48.03084173858137" lon="11.691655534747026"><ele>581.6666666666666</ele><time>2026-04-18T11:28:53Z</time></trkpt><trkpt lat="48.03099210193114" lon="11.691464698932124"><ele>581.3333333333333</ele><time>2026-04-18T11:28:54Z</time></trkpt><trkpt lat="48.03113863101647" lon="11.69127409574099"><ele>581.0</ele><time>2026-04-18T11:28:55Z</time></trkpt><trkpt lat="48.03128326408767" lon="11.69109166938955"><ele>580.3333333333333</ele><time>2026-04-18T11:28:56Z</time></trkpt><trkpt lat="48.03142505624311" lon="11.690917061583917"><ele>579.6666666666666</ele><time>2026-04-18T11:28:57Z</time></trkpt><trkpt lat="48.03156781969403" lon="11.69074393827776"><ele>579.0</ele><time>2026-04-18T11:28:58Z</time></trkpt><trkpt lat="48.031710676645304" lon="11.690571286432993"><ele>579.0</ele><time>2026-04-18T11:28:59Z</time></trkpt><trkpt lat="48.03185803616719" lon="11.690393831946334"><ele>579.0</ele><time>2026-04-18T11:29:00Z</time></trkpt><trkpt lat="48.032014677875175" lon="11.690220631068362"><ele>579.0</ele><time>2026-04-18T11:29:01Z</time></trkpt><trkpt lat="48.032167016040844" lon="11.690049423080227"><ele>578.6666666666666</ele><time>2026-04-18T11:29:02Z</time></trkpt><trkpt lat="48.03231160626388" lon="11.689883855246721"><ele>578.3333333333333</ele><time>2026-04-18T11:29:03Z</time></trkpt><trkpt lat="48.03245649671244" lon="11.68971981290851"><ele>578.0</ele><time>2026-04-18T11:29:04Z</time></trkpt><trkpt lat="48.03260607793402" lon="11.689550072874226"><ele>578.0</ele><time>2026-04-18T11:29:05Z</time></trkpt><trkpt lat="48.03276950466435" lon="11.689366743912188"><ele>578.0</ele><time>2026-04-18T11:29:06Z</time></trkpt><trkpt lat="48.03293354202814" lon="11.689180107430195"><ele>578.0</ele><time>2026-04-18T11:29:07Z</time></trkpt><trkpt lat="48.03308970429646" lon="11.688994742050053"><ele>578.0</ele><time>2026-04-18T11:29:08Z</time></trkpt><trkpt lat="48.033245050538255" lon="11.688810845648526"><ele>578.0</ele><time>2026-04-18T11:29:09Z</time></trkpt><trkpt lat="48.0333992076907" lon="11.688627918417861"><ele>578.0</ele><time>2026-04-18T11:29:10Z</time></trkpt><trkpt lat="48.03355214104889" lon="11.688443942681975"><ele>578.3333333333333</ele><time>2026-04-18T11:29:11Z</time></trkpt><trkpt lat="48.03369853352604" lon="11.6882652339488"><ele>578.6666666666666</ele><time>2026-04-18T11:29:12Z</time></trkpt><trkpt lat="48.03383774953097" lon="11.688082951683214"><ele>579.0</ele><time>2026-04-18T11:29:13Z</time></trkpt><trkpt lat="48.033983745459956" lon="11.687913968727402"><ele>578.3333333333334</ele><time>2026-04-18T11:29:14Z</time></trkpt><trkpt lat="48.03412845932334" lon="11.687731613758594"><ele>577.6666666666667</ele><time>2026-04-18T11:29:15Z</time></trkpt><trkpt lat="48.034266374965306" lon="11.687540285753782"><ele>577.0</ele><time>2026-04-18T11:29:16Z</time></trkpt><trkpt lat="48.03440407470775" lon="11.687349728094748"><ele>577.0</ele><time>2026-04-18T11:29:17Z</time></trkpt><trkpt lat="48.03453353031566" lon="11.687174379968354"><ele>577.0</ele><time>2026-04-18T11:29:18Z</time></trkpt><trkpt lat="48.034644611910245" lon="11.687026200664627"><ele>577.0</ele><time>2026-04-18T11:29:19Z</time></trkpt><trkpt lat="48.03474366758407" lon="11.686895020355879"><ele>576.5</ele><time>2026-04-18T11:29:20Z</time></trkpt><trkpt lat="48.03484865037431" lon="11.686774102533592"><ele>576.0</ele><time>2026-04-18T11:29:21Z</time></trkpt><trkpt lat="48.03495198712083" lon="11.686646608239592"><ele>575.5</ele><time>2026-04-18T11:29:22Z</time></trkpt><trkpt lat="48.03505778977" lon="11.686507101303075"><ele>575.0</ele><time>2026-04-18T11:29:23Z</time></trkpt><trkpt lat="48.03517384210487" lon="11.686368032228478"><ele>575.6666666666666</ele><time>2026-04-18T11:29:24Z</time></trkpt><trkpt lat="48.035293087177486" lon="11.686226987030244"><ele>576.3333333333334</ele><time>2026-04-18T11:29:25Z</time></trkpt><trkpt lat="48.03540398857676" lon="11.68607205868286"><ele>577.0</ele><time>2026-04-18T11:29:26Z</time></trkpt><trkpt lat="48.03551403078494" lon="11.685917848898603"><ele>577.0</ele><time>2026-04-18T11:29:27Z</time></trkpt><trkpt lat="48.03562704681438" lon="11.685774655535466"><ele>577.0</ele><time>2026-04-18T11:29:28Z</time></trkpt><trkpt lat="48.03574008295739" lon="11.68562468777639"><ele>577.0</ele><time>2026-04-18T11:29:29Z</time></trkpt><trkpt lat="48.035857370192595" lon="11.685465150093755"><ele>577.0</ele><time>2026-04-18T11:29:30Z</time></trkpt><trkpt lat="48.035986038218" lon="11.685291709105593"><ele>577.0</ele><time>2026-04-18T11:29:31Z</time></trkpt><trkpt lat="48.03612428843194" lon="11.685097021954888"><ele>577.0</ele><time>2026-04-18T11:29:32Z</time></trkpt><trkpt lat="48.03628438842899" lon="11.684875320995026"><ele>577.0</ele><time>2026-04-18T11:29:33Z</time></trkpt><trkpt lat="48.03646267755019" lon="11.684634356065509"><ele>577.0</ele><time>2026-04-18T11:29:34Z</time></trkpt><trkpt lat="48.036645492325455" lon="11.684391191321888"><ele>576.5</ele><time>2026-04-18T11:29:35Z</time></trkpt><trkpt lat="48.0368227462906" lon="11.684157986037587"><ele>576.0</ele><time>2026-04-18T11:29:36Z</time></trkpt><trkpt lat="48.036990857341436" lon="11.683935704071954"><ele>576.0</ele><time>2026-04-18T11:29:37Z</time></trkpt><trkpt lat="48.03714559820974" lon="11.683727553988733"><ele>576.0</ele><time>2026-04-18T11:29:38Z</time></trkpt><trkpt lat="48.037290620175966" lon="11.68352737887511"><ele>576.0</ele><time>2026-04-18T11:29:39Z</time></trkpt><trkpt lat="48.037428272529354" lon="11.683340430677084"><ele>575.3333333333334</ele><time>2026-04-18T11:29:40Z</time></trkpt><trkpt lat="48.037550952514" lon="11.683176563051955"><ele>574.6666666666667</ele><time>2026-04-18T11:29:41Z</time></trkpt><trkpt lat="48.03766580792713" lon="11.683023381885713"><ele>574.0</ele><time>2026-04-18T11:29:42Z</time></trkpt><trkpt lat="48.03777818360785" lon="11.68286523070014"><ele>574.0</ele><time>2026-04-18T11:29:43Z</time></trkpt><trkpt lat="48.037894856444666" lon="11.682704513929812"><ele>574.0</ele><time>2026-04-18T11:29:44Z</time></trkpt><trkpt lat="48.03801495922378" lon="11.682547853450327"><ele>574.0</ele><time>2026-04-18T11:29:45Z</time></trkpt><trkpt lat="48.03813300463802" lon="11.682391055724002"><ele>574.0</ele><time>2026-04-18T11:29:46Z</time></trkpt><trkpt lat="48.03824713516596" lon="11.68223549532966"><ele>574.0</ele><time>2026-04-18T11:29:47Z</time></trkpt><trkpt lat="48.03835779948226" lon="11.682089771374784"><ele>574.0</ele><time>2026-04-18T11:29:48Z</time></trkpt><trkpt lat="48.03846184513305" lon="11.681951630839656"><ele>574.0</ele><time>2026-04-18T11:29:49Z</time></trkpt><trkpt lat="48.03855807792203" lon="11.68182089810858"><ele>573.0</ele><time>2026-04-18T11:29:50Z</time></trkpt><trkpt lat="48.038651764402665" lon="11.68169557026267"><ele>572.0</ele><time>2026-04-18T11:29:51Z</time></trkpt><trkpt lat="48.038754026778506" lon="11.681560808590415"><ele>571.0</ele><time>2026-04-18T11:29:52Z</time></trkpt><trkpt lat="48.03886423716214" lon="11.681414065334549"><ele>570.0</ele><time>2026-04-18T11:29:53Z</time></trkpt><trkpt lat="48.03898207857548" lon="11.681262415735414"><ele>570.0</ele><time>2026-04-18T11:29:54Z</time></trkpt><trkpt lat="48.03909962550902" lon="11.681114280701575"><ele>570.0</ele><time>2026-04-18T11:29:55Z</time></trkpt><trkpt lat="48.039222004692476" lon="11.680960755130425"><ele>570.0</ele><time>2026-04-18T11:29:56Z</time></trkpt><trkpt lat="48.039350360841894" lon="11.680792812341894"><ele>570.0</ele><time>2026-04-18T11:29:57Z</time></trkpt><trkpt lat="48.03949130032951" lon="11.680607938131846"><ele>570.0</ele><time>2026-04-18T11:29:58Z</time></trkpt><trkpt lat="48.03963535466467" lon="11.68042219938438"><ele>570.0</ele><time>2026-04-18T11:29:59Z</time></trkpt><trkpt lat="48.039771473980146" lon="11.68024601875709"><ele>570.0</ele><time>2026-04-18T11:30:00Z</time></trkpt><trkpt lat="48.03989910695896" lon="11.680080020321398"><ele>570.0</ele><time>2026-04-18T11:30:01Z</time></trkpt><trkpt lat="48.040025378196844" lon="11.679922635368795"><ele>570.0</ele><time>2026-04-18T11:30:02Z</time></trkpt><trkpt lat="48.04013329427375" lon="11.679766041018489"><ele>569.6666666666666</ele><time>2026-04-18T11:30:03Z</time></trkpt><trkpt lat="48.04025580967049" lon="11.679616766671469"><ele>569.3333333333333</ele><time>2026-04-18T11:30:04Z</time></trkpt><trkpt lat="48.040391607003535" lon="11.679420916790553"><ele>569.0</ele><time>2026-04-18T11:30:05Z</time></trkpt><trkpt lat="48.04053921697232" lon="11.67921560436444"><ele>569.0</ele><time>2026-04-18T11:30:06Z</time></trkpt><trkpt lat="48.040690938573796" lon="11.679030638458325"><ele>569.0</ele><time>2026-04-18T11:30:07Z</time></trkpt><trkpt lat="48.04082640309833" lon="11.678865393948623"><ele>569.0</ele><time>2026-04-18T11:30:08Z</time></trkpt><trkpt lat="48.040948766629704" lon="11.678713143795669"><ele>568.6666666666666</ele><time>2026-04-18T11:30:09Z</time></trkpt><trkpt lat="48.04106479794854" lon="11.67856594337758"><ele>568.3333333333334</ele><time>2026-04-18T11:30:10Z</time></trkpt><trkpt lat="48.041182474724174" lon="11.678414436277162"><ele>568.0</ele><time>2026-04-18T11:30:11Z</time></trkpt><trkpt lat="48.04131125814253" lon="11.678246994172325"><ele>568.0</ele><time>2026-04-18T11:30:12Z</time></trkpt><trkpt lat="48.04144285127862" lon="11.678084749234522"><ele>568.0</ele><time>2026-04-18T11:30:13Z</time></trkpt><trkpt lat="48.041567137817616" lon="11.677928478630296"><ele>568.0</ele><time>2026-04-18T11:30:14Z</time></trkpt><trkpt lat="48.04168898037721" lon="11.677767265436566"><ele>569.3333333333334</ele><time>2026-04-18T11:30:15Z</time></trkpt><trkpt lat="48.04181338416018" lon="11.677598493124616"><ele>570.6666666666666</ele><time>2026-04-18T11:30:16Z</time></trkpt><trkpt lat="48.04194470938784" lon="11.677421079792762"><ele>572.0</ele><time>2026-04-18T11:30:17Z</time></trkpt><trkpt lat="48.042083782697276" lon="11.677232202506714"><ele>572.0</ele><time>2026-04-18T11:30:18Z</time></trkpt><trkpt lat="48.042225827708755" lon="11.677035969098851"><ele>572.0</ele><time>2026-04-18T11:30:19Z</time></trkpt><trkpt lat="48.04235327031212" lon="11.67685274820268"><ele>572.0</ele><time>2026-04-18T11:30:20Z</time></trkpt><trkpt lat="48.04247484199147" lon="11.676682575920314"><ele>571.6666666666666</ele><time>2026-04-18T11:30:21Z</time></trkpt><trkpt lat="48.04259349144969" lon="11.676519195806165"><ele>571.3333333333334</ele><time>2026-04-18T11:30:22Z</time></trkpt><trkpt lat="48.04270701327719" lon="11.676356292867956"><ele>571.0</ele><time>2026-04-18T11:30:23Z</time></trkpt><trkpt lat="48.04282072738631" lon="11.676195955452549"><ele>570.6666666666667</ele><time>2026-04-18T11:30:24Z</time></trkpt><trkpt lat="48.04294142133169" lon="11.67602893458716"><ele>570.3333333333334</ele><time>2026-04-18T11:30:25Z</time></trkpt><trkpt lat="48.043064975199115" lon="11.675856262690358"><ele>570.0</ele><time>2026-04-18T11:30:26Z</time></trkpt><trkpt lat="48.043191694902085" lon="11.675674392953775"><ele>570.0</ele><time>2026-04-18T11:30:27Z</time></trkpt><trkpt lat="48.04332617886446" lon="11.675488912598336"><ele>570.0</ele><time>2026-04-18T11:30:28Z</time></trkpt><trkpt lat="48.04346454768162" lon="11.675308357939764"><ele>570.0</ele><time>2026-04-18T11:30:29Z</time></trkpt><trkpt lat="48.04359128540278" lon="11.675148440397317"><ele>570.0</ele><time>2026-04-18T11:30:30Z</time></trkpt><trkpt lat="48.04371177233783" lon="11.675003208741018"><ele>570.0</ele><time>2026-04-18T11:30:31Z</time></trkpt><trkpt lat="48.043824514096" lon="11.674869341881958"><ele>570.0</ele><time>2026-04-18T11:30:32Z</time></trkpt><trkpt lat="48.04393661177271" lon="11.67474333403217"><ele>570.0</ele><time>2026-04-18T11:30:33Z</time></trkpt><trkpt lat="48.04405162240137" lon="11.674617184795936"><ele>569.5</ele><time>2026-04-18T11:30:34Z</time></trkpt><trkpt lat="48.044173172411085" lon="11.674493058418266"><ele>569.0</ele><time>2026-04-18T11:30:35Z</time></trkpt><trkpt lat="48.044291083728716" lon="11.674386788812944"><ele>568.5</ele><time>2026-04-18T11:30:36Z</time></trkpt><trkpt lat="48.04439120266142" lon="11.674298814871396"><ele>568.0</ele><time>2026-04-18T11:30:37Z</time></trkpt><trkpt lat="48.04448963998144" lon="11.674219252419663"><ele>568.0</ele><time>2026-04-18T11:30:38Z</time></trkpt><trkpt lat="48.04458317874183" lon="11.674146353459646"><ele>568.0</ele><time>2026-04-18T11:30:39Z</time></trkpt><trkpt lat="48.044667689284445" lon="11.674073416751918"><ele>568.0</ele><time>2026-04-18T11:30:40Z</time></trkpt><trkpt lat="48.0447419163297" lon="11.673985980991336"><ele>568.0</ele><time>2026-04-18T11:30:41Z</time></trkpt><trkpt lat="48.044837788994684" lon="11.673913441043528"><ele>568.0</ele><time>2026-04-18T11:30:42Z</time></trkpt><trkpt lat="48.0449284964876" lon="11.67384704740605"><ele>568.1666666666667</ele><time>2026-04-18T11:30:43Z</time></trkpt><trkpt lat="48.0450052420998" lon="11.673792922114622"><ele>568.3333333333334</ele><time>2026-04-18T11:30:44Z</time></trkpt><trkpt lat="48.04507830732783" lon="11.673741392692005"><ele>568.5</ele><time>2026-04-18T11:30:45Z</time></trkpt><trkpt lat="48.04515045780585" lon="11.67369416278662"><ele>568.6666666666666</ele><time>2026-04-18T11:30:46Z</time></trkpt><trkpt lat="48.04520887958008" lon="11.673655710586026"><ele>568.8333333333333</ele><time>2026-04-18T11:30:47Z</time></trkpt><trkpt lat="48.045330407739236" lon="11.67375724878657"><ele>569.0</ele><time>2026-04-18T11:30:49Z</time></trkpt><trkpt lat="48.045438443590015" lon="11.67386787690122"><ele>569.0</ele><time>2026-04-18T11:30:51Z</time></trkpt><trkpt lat="48.04550213254936" lon="11.673972319860873"><ele>569.0</ele><time>2026-04-18T11:30:52Z</time></trkpt><trkpt lat="48.045554793841276" lon="11.674084980866615"><ele>569.0</ele><time>2026-04-18T11:30:53Z</time></trkpt><trkpt lat="48.045493175159514" lon="11.67433540248432"><ele>569.0</ele><time>2026-04-18T11:30:54Z</time></trkpt><trkpt lat="48.04552448629411" lon="11.674548354259649"><ele>570.3333333333333</ele><time>2026-04-18T11:30:55Z</time></trkpt><trkpt lat="48.04556121146389" lon="11.674823468984535"><ele>571.6666666666666</ele><time>2026-04-18T11:30:56Z</time></trkpt><trkpt lat="48.045595290727306" lon="11.675101613213185"><ele>573.0</ele><time>2026-04-18T11:30:57Z</time></trkpt><trkpt lat="48.04562280810747" lon="11.675344689145055"><ele>574.3333333333334</ele><time>2026-04-18T11:30:58Z</time></trkpt><trkpt lat="48.045651578302575" lon="11.675587857866127"><ele>575.6666666666667</ele><time>2026-04-18T11:30:59Z</time></trkpt><trkpt lat="48.04568139134421" lon="11.675840364179228"><ele>577.0</ele><time>2026-04-18T11:31:00Z</time></trkpt><trkpt lat="48.04570972061547" lon="11.676092247713642"><ele>576.3333333333334</ele><time>2026-04-18T11:31:01Z</time></trkpt><trkpt lat="48.045737805221734" lon="11.676337672266792"><ele>575.6666666666666</ele><time>2026-04-18T11:31:02Z</time></trkpt><trkpt lat="48.045765604659415" lon="11.676569107863994"><ele>575.0</ele><time>2026-04-18T11:31:03Z</time></trkpt><trkpt lat="48.04579368381688" lon="11.676785388116341"><ele>574.0</ele><time>2026-04-18T11:31:04Z</time></trkpt><trkpt lat="48.0458224206692" lon="11.67699331246794"><ele>573.0</ele><time>2026-04-18T11:31:05Z</time></trkpt><trkpt lat="48.04584898220929" lon="11.677206736203937"><ele>572.0</ele><time>2026-04-18T11:31:06Z</time></trkpt><trkpt lat="48.045875474118226" lon="11.677425042857152"><ele>571.0</ele><time>2026-04-18T11:31:07Z</time></trkpt><trkpt lat="48.045904740391826" lon="11.677659491767443"><ele>569.3333333333334</ele><time>2026-04-18T11:31:08Z</time></trkpt><trkpt lat="48.04593656734335" lon="11.677908122186865"><ele>567.6666666666666</ele><time>2026-04-18T11:31:09Z</time></trkpt><trkpt lat="48.045967497075154" lon="11.678159235294423"><ele>566.0</ele><time>2026-04-18T11:31:10Z</time></trkpt><trkpt lat="48.045995158089575" lon="11.678405439181674"><ele>566.0</ele><time>2026-04-18T11:31:11Z</time></trkpt><trkpt lat="48.046025774003276" lon="11.678656529187124"><ele>566.0</ele><time>2026-04-18T11:31:12Z</time></trkpt><trkpt lat="48.04605745907883" lon="11.678914258703813"><ele>566.0</ele><time>2026-04-18T11:31:13Z</time></trkpt><trkpt lat="48.04608794379289" lon="11.679177556098104"><ele>566.3333333333333</ele><time>2026-04-18T11:31:14Z</time></trkpt><trkpt lat="48.046120245084396" lon="11.67944507554893"><ele>566.6666666666666</ele><time>2026-04-18T11:31:15Z</time></trkpt><trkpt lat="48.0461492448176" lon="11.679705536209902"><ele>567.0</ele><time>2026-04-18T11:31:16Z</time></trkpt><trkpt lat="48.04617821096856" lon="11.679960474509418"><ele>567.0</ele><time>2026-04-18T11:31:17Z</time></trkpt><trkpt lat="48.046208185847924" lon="11.680214387727244"><ele>567.0</ele><time>2026-04-18T11:31:18Z</time></trkpt><trkpt lat="48.046236845173354" lon="11.680466175722021"><ele>567.0</ele><time>2026-04-18T11:31:19Z</time></trkpt><trkpt lat="48.04626857350821" lon="11.680719770584995"><ele>567.3333333333334</ele><time>2026-04-18T11:31:20Z</time></trkpt><trkpt lat="48.046299133002826" lon="11.680973498421798"><ele>567.6666666666667</ele><time>2026-04-18T11:31:21Z</time></trkpt><trkpt lat="48.04633080866107" lon="11.68122404769112"><ele>568.0</ele><time>2026-04-18T11:31:22Z</time></trkpt><trkpt lat="48.04636146848354" lon="11.681468891356602"><ele>568.0</ele><time>2026-04-18T11:31:23Z</time></trkpt><trkpt lat="48.04639221921861" lon="11.681711251758335"><ele>568.0</ele><time>2026-04-18T11:31:24Z</time></trkpt><trkpt lat="48.04642352570764" lon="11.681950335475417"><ele>568.0</ele><time>2026-04-18T11:31:25Z</time></trkpt><trkpt lat="48.04645391285028" lon="11.682185103784642"><ele>568.0</ele><time>2026-04-18T11:31:26Z</time></trkpt><trkpt lat="48.04648467594068" lon="11.682418951436098"><ele>568.0</ele><time>2026-04-18T11:31:27Z</time></trkpt><trkpt lat="48.046513183822" lon="11.682652744917275"><ele>568.0</ele><time>2026-04-18T11:31:28Z</time></trkpt><trkpt lat="48.04654303479749" lon="11.682889310463773"><ele>568.0</ele><time>2026-04-18T11:31:29Z</time></trkpt><trkpt lat="48.046577073751344" lon="11.68313252429369"><ele>568.0</ele><time>2026-04-18T11:31:30Z</time></trkpt><trkpt lat="48.04661250525871" lon="11.683385529479482"><ele>568.0</ele><time>2026-04-18T11:31:31Z</time></trkpt><trkpt lat="48.046646288194296" lon="11.683650090640866"><ele>568.3333333333334</ele><time>2026-04-18T11:31:32Z</time></trkpt><trkpt lat="48.0466851177217" lon="11.683920690710103"><ele>568.6666666666666</ele><time>2026-04-18T11:31:33Z</time></trkpt><trkpt lat="48.04671921829836" lon="11.68419036416949"><ele>569.0</ele><time>2026-04-18T11:31:34Z</time></trkpt><trkpt lat="48.04674893486062" lon="11.684457009957232"><ele>569.0</ele><time>2026-04-18T11:31:35Z</time></trkpt><trkpt lat="48.0467780441865" lon="11.684716833177186"><ele>569.0</ele><time>2026-04-18T11:31:36Z</time></trkpt><trkpt lat="48.04680604301942" lon="11.684972950422653"><ele>569.0</ele><time>2026-04-18T11:31:37Z</time></trkpt><trkpt lat="48.046828766468565" lon="11.685233182986961"><ele>568.3333333333333</ele><time>2026-04-18T11:31:38Z</time></trkpt><trkpt lat="48.04685127131718" lon="11.685500156064311"><ele>567.6666666666666</ele><time>2026-04-18T11:31:39Z</time></trkpt><trkpt lat="48.04687940192991" lon="11.685775234840346"><ele>567.0</ele><time>2026-04-18T11:31:40Z</time></trkpt><trkpt lat="48.04690805433172" lon="11.68607053915507"><ele>567.0</ele><time>2026-04-18T11:31:41.001Z</time></trkpt><trkpt lat="48.046934779620834" lon="11.686375899349452"><ele>567.0</ele><time>2026-04-18T11:31:42Z</time></trkpt><trkpt lat="48.04696438599332" lon="11.686703004934715"><ele>567.0</ele><time>2026-04-18T11:31:43.001Z</time></trkpt><trkpt lat="48.046997600642705" lon="11.6870499293627"><ele>567.0</ele><time>2026-04-18T11:31:44.001Z</time></trkpt><trkpt lat="48.04701023543754" lon="11.687457706195763"><ele>567.0</ele><time>2026-04-18T11:31:45.001Z</time></trkpt><trkpt lat="48.047030716255186" lon="11.687815428495616"><ele>567.0</ele><time>2026-04-18T11:31:46.001Z</time></trkpt><trkpt lat="48.047041728113896" lon="11.688142772486067"><ele>567.0</ele><time>2026-04-18T11:31:47.001Z</time></trkpt><trkpt lat="48.04704877770344" lon="11.688457703319457"><ele>567.0</ele><time>2026-04-18T11:31:48.001Z</time></trkpt><trkpt lat="48.04705612912136" lon="11.688768447523424"><ele>567.0</ele><time>2026-04-18T11:31:49.001Z</time></trkpt><trkpt lat="48.04706357567166" lon="11.689082943949353"><ele>567.0</ele><time>2026-04-18T11:31:50.001Z</time></trkpt><trkpt lat="48.0470734863544" lon="11.68941044905053"><ele>567.0</ele><time>2026-04-18T11:31:51.001Z</time></trkpt><trkpt lat="48.047085761959" lon="11.689752018149768"><ele>567.5</ele><time>2026-04-18T11:31:52.001Z</time></trkpt><trkpt lat="48.04709637645756" lon="11.690103436583488"><ele>568.0</ele><time>2026-04-18T11:31:53.001Z</time></trkpt><trkpt lat="48.04710511933368" lon="11.69046456830685"><ele>568.0</ele><time>2026-04-18T11:31:54.001Z</time></trkpt><trkpt lat="48.04711871101278" lon="11.690832099743302"><ele>568.0</ele><time>2026-04-18T11:31:55.001Z</time></trkpt><trkpt lat="48.04713524009004" lon="11.691204451689693"><ele>567.5</ele><time>2026-04-18T11:31:56.001Z</time></trkpt><trkpt lat="48.04715199131601" lon="11.691574533057544"><ele>567.0</ele><time>2026-04-18T11:31:57.001Z</time></trkpt><trkpt lat="48.0471716822193" lon="11.69191796048531"><ele>567.0</ele><time>2026-04-18T11:31:58.001Z</time></trkpt><trkpt lat="48.04719147896903" lon="11.692238101949613"><ele>567.0</ele><time>2026-04-18T11:31:59.001Z</time></trkpt><trkpt lat="48.04721178311861" lon="11.692548341487685"><ele>567.0</ele><time>2026-04-18T11:32:00.001Z</time></trkpt><trkpt lat="48.04723166553619" lon="11.69284419251528"><ele>567.3333333333334</ele><time>2026-04-18T11:32:01.001Z</time></trkpt><trkpt lat="48.04725006606084" lon="11.693129843813374"><ele>567.6666666666667</ele><time>2026-04-18T11:32:02.001Z</time></trkpt><trkpt lat="48.04726916815403" lon="11.693409448179665"><ele>568.0</ele><time>2026-04-18T11:32:03.001Z</time></trkpt><trkpt lat="48.04729062966845" lon="11.693690302745685"><ele>568.0</ele><time>2026-04-18T11:32:04.001Z</time></trkpt><trkpt lat="48.04731072100048" lon="11.69397272641512"><ele>568.0</ele><time>2026-04-18T11:32:05.001Z</time></trkpt><trkpt lat="48.04733228937483" lon="11.694261964130053"><ele>568.0</ele><time>2026-04-18T11:32:06.001Z</time></trkpt><trkpt lat="48.047354625196995" lon="11.694549977461437"><ele>568.0</ele><time>2026-04-18T11:32:07.001Z</time></trkpt><trkpt lat="48.04737738606057" lon="11.694845852684347"><ele>568.0</ele><time>2026-04-18T11:32:08.001Z</time></trkpt><trkpt lat="48.04740362774606" lon="11.695148889514467"><ele>568.0</ele><time>2026-04-18T11:32:09.001Z</time></trkpt><trkpt lat="48.04743425939996" lon="11.69546111139394"><ele>567.6666666666667</ele><time>2026-04-18T11:32:10.001Z</time></trkpt><trkpt lat="48.04746628491637" lon="11.695778120437604"><ele>567.3333333333334</ele><time>2026-04-18T11:32:11.001Z</time></trkpt><trkpt lat="48.04749524448725" lon="11.696077929187396"><ele>567.0</ele><time>2026-04-18T11:32:12.001Z</time></trkpt><trkpt lat="48.047516097738615" lon="11.696328954033389"><ele>567.0</ele><time>2026-04-18T11:32:13.001Z</time></trkpt><trkpt lat="48.04753531253461" lon="11.696560648632234"><ele>567.0</ele><time>2026-04-18T11:32:14.001Z</time></trkpt><trkpt lat="48.04755287387539" lon="11.696772124821168"><ele>567.0</ele><time>2026-04-18T11:32:15.001Z</time></trkpt><trkpt lat="48.04757137434882" lon="11.696975103981515"><ele>567.0</ele><time>2026-04-18T11:32:16.001Z</time></trkpt><trkpt lat="48.04759153021844" lon="11.697170455092792"><ele>566.75</ele><time>2026-04-18T11:32:17.001Z</time></trkpt><trkpt lat="48.0476102137964" lon="11.697360584479606"><ele>566.5</ele><time>2026-04-18T11:32:18.001Z</time></trkpt><trkpt lat="48.047624446270746" lon="11.697538663463895"><ele>566.25</ele><time>2026-04-18T11:32:19.001Z</time></trkpt><trkpt lat="48.04764558348594" lon="11.697727860925283"><ele>566.0</ele><time>2026-04-18T11:32:20Z</time></trkpt><trkpt lat="48.04766953016059" lon="11.697939285349625"><ele>567.0</ele><time>2026-04-18T11:32:21Z</time></trkpt><trkpt lat="48.04768463474396" lon="11.698130366837706"><ele>568.0</ele><time>2026-04-18T11:32:22Z</time></trkpt><trkpt lat="48.047694269520356" lon="11.698320627078349"><ele>569.0</ele><time>2026-04-18T11:32:23Z</time></trkpt><trkpt lat="48.047709181441824" lon="11.698491083877371"><ele>570.0</ele><time>2026-04-18T11:32:24Z</time></trkpt><trkpt lat="48.04772075242152" lon="11.698650209043251"><ele>570.2</ele><time>2026-04-18T11:32:25Z</time></trkpt><trkpt lat="48.04773274724271" lon="11.698803234450995"><ele>570.4</ele><time>2026-04-18T11:32:26Z</time></trkpt><trkpt lat="48.047740495653684" lon="11.698953269178297"><ele>570.6</ele><time>2026-04-18T11:32:27Z</time></trkpt><trkpt lat="48.04774821466603" lon="11.699131158926415"><ele>570.8</ele><time>2026-04-18T11:32:28Z</time></trkpt><trkpt lat="48.04776397104604" lon="11.699313856782855"><ele>571.0</ele><time>2026-04-18T11:32:29Z</time></trkpt><trkpt lat="48.04778200570304" lon="11.699480471233302"><ele>570.6666666666667</ele><time>2026-04-18T11:32:30Z</time></trkpt><trkpt lat="48.04779500205008" lon="11.699634134798517"><ele>570.3333333333334</ele><time>2026-04-18T11:32:31Z</time></trkpt><trkpt lat="48.04781002194829" lon="11.699775854072563"><ele>570.0</ele><time>2026-04-18T11:32:32Z</time></trkpt><trkpt lat="48.047820081469126" lon="11.699892193086864"><ele>569.6666666666666</ele><time>2026-04-18T11:32:33Z</time></trkpt><trkpt lat="48.04782824084296" lon="11.699993670213242"><ele>569.3333333333333</ele><time>2026-04-18T11:32:34Z</time></trkpt><trkpt lat="48.047839460942896" lon="11.700092249063811"><ele>569.0</ele><time>2026-04-18T11:32:35Z</time></trkpt><trkpt lat="48.04784924576727" lon="11.700188059835074"><ele>569.0</ele><time>2026-04-18T11:32:36Z</time></trkpt><trkpt lat="48.04786728588068" lon="11.70036851659322"><ele>569.0</ele><time>2026-04-18T11:32:38Z</time></trkpt><trkpt lat="48.04788502660817" lon="11.700534767554595"><ele>569.0</ele><time>2026-04-18T11:32:40Z</time></trkpt><trkpt lat="48.0478971832606" lon="11.700652112987205"><ele>569.0</ele><time>2026-04-18T11:32:42Z</time></trkpt><trkpt lat="48.047908148327885" lon="11.70075228222699"><ele>569.0</ele><time>2026-04-18T11:32:45Z</time></trkpt><trkpt lat="48.04792613487538" lon="11.700862951833829"><ele>569.0</ele><time>2026-04-18T11:32:50Z</time></trkpt><trkpt lat="48.04794265420985" lon="11.700983692325467"><ele>569.0</ele><time>2026-04-18T11:32:52Z</time></trkpt><trkpt lat="48.04795994086303" lon="11.70110399000381"><ele>569.0</ele><time>2026-04-18T11:32:54Z</time></trkpt><trkpt lat="48.04797573924712" lon="11.701210967810207"><ele>569.0</ele><time>2026-04-18T11:32:55Z</time></trkpt><trkpt lat="48.04799059110767" lon="11.70133437154549"><ele>569.0</ele><time>2026-04-18T11:32:56Z</time></trkpt><trkpt lat="48.0480163526361" lon="11.7015059060186"><ele>569.0</ele><time>2026-04-18T11:32:58Z</time></trkpt><trkpt lat="48.048033128367" lon="11.701599234987683"><ele>569.2</ele><time>2026-04-18T11:32:59Z</time></trkpt><trkpt lat="48.0480500973412" lon="11.701698423902721"><ele>569.4</ele><time>2026-04-18T11:33:00Z</time></trkpt><trkpt lat="48.04806240785364" lon="11.701795080144723"><ele>569.6</ele><time>2026-04-18T11:33:01Z</time></trkpt><trkpt lat="48.04807600602174" lon="11.701911670241648"><ele>569.8</ele><time>2026-04-18T11:33:02Z</time></trkpt><trkpt lat="48.048086587954366" lon="11.702093412011875"><ele>570.0</ele><time>2026-04-18T11:33:03Z</time></trkpt><trkpt lat="48.04809248123688" lon="11.702266512966789"><ele>570.2</ele><time>2026-04-18T11:33:04Z</time></trkpt><trkpt lat="48.048095438519546" lon="11.702405547985373"><ele>570.4</ele><time>2026-04-18T11:33:05Z</time></trkpt><trkpt lat="48.04809617878173" lon="11.70254190839282"><ele>570.6</ele><time>2026-04-18T11:33:06Z</time></trkpt><trkpt lat="48.04809650547118" lon="11.702681557474115"><ele>570.8</ele><time>2026-04-18T11:33:07Z</time></trkpt><trkpt lat="48.04810566394657" lon="11.702832544256177"><ele>571.0</ele><time>2026-04-18T11:33:08Z</time></trkpt><trkpt lat="48.04811700925859" lon="11.702982182204641"><ele>571.2</ele><time>2026-04-18T11:33:09Z</time></trkpt><trkpt lat="48.04813106919679" lon="11.70312633262595"><ele>571.4000000000001</ele><time>2026-04-18T11:33:10Z</time></trkpt><trkpt lat="48.048145025437165" lon="11.703270338111777"><ele>571.6</ele><time>2026-04-18T11:33:11Z</time></trkpt><trkpt lat="48.04816722392943" lon="11.703414969279347"><ele>571.8000000000001</ele><time>2026-04-18T11:33:12Z</time></trkpt><trkpt lat="48.04818626092422" lon="11.703569646477426"><ele>572.0</ele><time>2026-04-18T11:33:13Z</time></trkpt><trkpt lat="48.048207643512015" lon="11.703740633125822"><ele>571.6</ele><time>2026-04-18T11:33:14Z</time></trkpt><trkpt lat="48.04822265923585" lon="11.703874632013598"><ele>571.2</ele><time>2026-04-18T11:33:15Z</time></trkpt><trkpt lat="48.04824128531035" lon="11.704016270567646"><ele>570.8</ele><time>2026-04-18T11:33:16Z</time></trkpt><trkpt lat="48.04825608468642" lon="11.704161169562276"><ele>570.4</ele><time>2026-04-18T11:33:17Z</time></trkpt><trkpt lat="48.04826794718203" lon="11.704306548492342"><ele>570.0</ele><time>2026-04-18T11:33:18Z</time></trkpt><trkpt lat="48.048279459161506" lon="11.704446696661616"><ele>569.8</ele><time>2026-04-18T11:33:19Z</time></trkpt><trkpt lat="48.048290625261416" lon="11.704592623567363"><ele>569.6</ele><time>2026-04-18T11:33:20Z</time></trkpt><trkpt lat="48.04830317697228" lon="11.70475086168066"><ele>569.4</ele><time>2026-04-18T11:33:21Z</time></trkpt><trkpt lat="48.04832187585619" lon="11.70490221966445"><ele>569.2</ele><time>2026-04-18T11:33:22Z</time></trkpt><trkpt lat="48.04834108866421" lon="11.705047429634261"><ele>569.0</ele><time>2026-04-18T11:33:23Z</time></trkpt><trkpt lat="48.048372320735" lon="11.705186898872277"><ele>568.6</ele><time>2026-04-18T11:33:24Z</time></trkpt><trkpt lat="48.048427077696395" lon="11.705336943761592"><ele>568.2</ele><time>2026-04-18T11:33:25Z</time></trkpt><trkpt lat="48.0485065871654" lon="11.70546096397249"><ele>567.8000000000001</ele><time>2026-04-18T11:33:26Z</time></trkpt><trkpt lat="48.04858799910149" lon="11.705545762927661"><ele>567.4</ele><time>2026-04-18T11:33:27Z</time></trkpt><trkpt lat="48.04866434743509" lon="11.705607522691087"><ele>567.0</ele><time>2026-04-18T11:33:28Z</time></trkpt><trkpt lat="48.04874493584741" lon="11.705665572632196"><ele>567.0</ele><time>2026-04-18T11:33:29Z</time></trkpt><trkpt lat="48.04883759466301" lon="11.705719591973654"><ele>567.0</ele><time>2026-04-18T11:33:30Z</time></trkpt><trkpt lat="48.04894337047255" lon="11.705744137227347"><ele>567.0</ele><time>2026-04-18T11:33:31Z</time></trkpt><trkpt lat="48.04906455116074" lon="11.705746173303414"><ele>567.0</ele><time>2026-04-18T11:33:32Z</time></trkpt><trkpt lat="48.04920065432633" lon="11.705730001412231"><ele>567.0</ele><time>2026-04-18T11:33:33Z</time></trkpt><trkpt lat="48.04932860672068" lon="11.705690539603848"><ele>567.0</ele><time>2026-04-18T11:33:34Z</time></trkpt><trkpt lat="48.049442666032164" lon="11.705627051446733"><ele>567.0</ele><time>2026-04-18T11:33:35Z</time></trkpt><trkpt lat="48.049549960327624" lon="11.705543522503405"><ele>567.0</ele><time>2026-04-18T11:33:36Z</time></trkpt><trkpt lat="48.049661848288444" lon="11.705459635943578"><ele>567.0</ele><time>2026-04-18T11:33:37Z</time></trkpt><trkpt lat="48.049775478184145" lon="11.705368344211626"><ele>567.0</ele><time>2026-04-18T11:33:38Z</time></trkpt><trkpt lat="48.04988913125089" lon="11.705280352811272"><ele>567.0</ele><time>2026-04-18T11:33:39Z</time></trkpt><trkpt lat="48.04999796590554" lon="11.705190030238423"><ele>567.0</ele><time>2026-04-18T11:33:40Z</time></trkpt><trkpt lat="48.05010710988866" lon="11.705106088759404"><ele>567.0</ele><time>2026-04-18T11:33:41Z</time></trkpt><trkpt lat="48.05021703179676" lon="11.705028317898297"><ele>567.0</ele><time>2026-04-18T11:33:42Z</time></trkpt><trkpt lat="48.050328652676775" lon="11.704956186037881"><ele>567.0</ele><time>2026-04-18T11:33:43Z</time></trkpt><trkpt lat="48.05044350209186" lon="11.704892614919991"><ele>567.0</ele><time>2026-04-18T11:33:44Z</time></trkpt><trkpt lat="48.05056076276258" lon="11.704835109677493"><ele>567.0</ele><time>2026-04-18T11:33:45Z</time></trkpt><trkpt lat="48.050682798756924" lon="11.704783263779913"><ele>567.0</ele><time>2026-04-18T11:33:46Z</time></trkpt><trkpt lat="48.050788817376734" lon="11.704739127540602"><ele>567.0</ele><time>2026-04-18T11:33:47Z</time></trkpt><trkpt lat="48.05088623522622" lon="11.704693106423923"><ele>567.0</ele><time>2026-04-18T11:33:48Z</time></trkpt><trkpt lat="48.050991788342515" lon="11.704661062569535"><ele>567.0</ele><time>2026-04-18T11:33:49Z</time></trkpt><trkpt lat="48.051095420543355" lon="11.704634642799434"><ele>567.0</ele><time>2026-04-18T11:33:50Z</time></trkpt><trkpt lat="48.0511804375497" lon="11.70461786795087"><ele>567.0</ele><time>2026-04-18T11:33:51Z</time></trkpt><trkpt lat="48.05125127626584" lon="11.704610973802849"><ele>567.0</ele><time>2026-04-18T11:33:52Z</time></trkpt><trkpt lat="48.051367378250625" lon="11.70461135623244"><ele>567.0</ele><time>2026-04-18T11:33:54Z</time></trkpt><trkpt lat="48.051452048763934" lon="11.704613993019253"><ele>567.0</ele><time>2026-04-18T11:33:56Z</time></trkpt><trkpt lat="48.051518858176735" lon="11.704617133946966"><ele>567.0</ele><time>2026-04-18T11:33:58Z</time></trkpt><trkpt lat="48.05159005125793" lon="11.704663879655271"><ele>567.6</ele><time>2026-04-18T11:34:00Z</time></trkpt><trkpt lat="48.05164998841252" lon="11.704744790299257"><ele>568.2</ele><time>2026-04-18T11:34:02Z</time></trkpt><trkpt lat="48.051733046242404" lon="11.704687140817388"><ele>568.8</ele><time>2026-04-18T11:34:04Z</time></trkpt><trkpt lat="48.05183813892056" lon="11.70463943633828"><ele>569.4</ele><time>2026-04-18T11:34:06Z</time></trkpt><trkpt lat="48.0519271469426" lon="11.704655943808904"><ele>570.0</ele><time>2026-04-18T11:34:07Z</time></trkpt><trkpt lat="48.0520302550078" lon="11.704675122594965"><ele>570.0</ele><time>2026-04-18T11:34:08Z</time></trkpt><trkpt lat="48.052136768841244" lon="11.704702576143687"><ele>570.0</ele><time>2026-04-18T11:34:09Z</time></trkpt><trkpt lat="48.05227508232338" lon="11.7047404877356"><ele>570.0</ele><time>2026-04-18T11:34:10Z</time></trkpt><trkpt lat="48.05242319369058" lon="11.704786561951545"><ele>570.0</ele><time>2026-04-18T11:34:11Z</time></trkpt><trkpt lat="48.05259174527081" lon="11.70485285459712"><ele>569.0</ele><time>2026-04-18T11:34:12Z</time></trkpt><trkpt lat="48.05277076059302" lon="11.704929047521963"><ele>568.0</ele><time>2026-04-18T11:34:13Z</time></trkpt><trkpt lat="48.05292899905483" lon="11.704997170635895"><ele>567.0</ele><time>2026-04-18T11:34:14Z</time></trkpt><trkpt lat="48.05310238944983" lon="11.705074765904218"><ele>567.0</ele><time>2026-04-18T11:34:15Z</time></trkpt><trkpt lat="48.053284542551175" lon="11.70515627948216"><ele>567.0</ele><time>2026-04-18T11:34:16Z</time></trkpt><trkpt lat="48.05346334783485" lon="11.70522944432732"><ele>567.0</ele><time>2026-04-18T11:34:17Z</time></trkpt><trkpt lat="48.053647036035805" lon="11.705292980632557"><ele>566.0</ele><time>2026-04-18T11:34:18Z</time></trkpt><trkpt lat="48.053830249349666" lon="11.705350126236366"><ele>565.0</ele><time>2026-04-18T11:34:19Z</time></trkpt><trkpt lat="48.05401003014062" lon="11.70540438614952"><ele>564.0</ele><time>2026-04-18T11:34:20Z</time></trkpt><trkpt lat="48.05419639818004" lon="11.705457686321612"><ele>564.0</ele><time>2026-04-18T11:34:21Z</time></trkpt><trkpt lat="48.0543976898714" lon="11.705508739211187"><ele>564.0</ele><time>2026-04-18T11:34:22Z</time></trkpt><trkpt lat="48.05458932478158" lon="11.705545641058158"><ele>564.0</ele><time>2026-04-18T11:34:23Z</time></trkpt><trkpt lat="48.05477122012597" lon="11.70558444457382"><ele>564.6666666666666</ele><time>2026-04-18T11:34:24Z</time></trkpt><trkpt lat="48.054955538480755" lon="11.705621096686716"><ele>565.3333333333333</ele><time>2026-04-18T11:34:25Z</time></trkpt><trkpt lat="48.05514777235907" lon="11.705651798691264"><ele>566.0</ele><time>2026-04-18T11:34:26Z</time></trkpt><trkpt lat="48.0553447807126" lon="11.705684793618776"><ele>566.0</ele><time>2026-04-18T11:34:27Z</time></trkpt><trkpt lat="48.0555430203968" lon="11.705710418943614"><ele>566.0</ele><time>2026-04-18T11:34:28Z</time></trkpt><trkpt lat="48.055737470977114" lon="11.705732577763841"><ele>566.0</ele><time>2026-04-18T11:34:29Z</time></trkpt><trkpt lat="48.05593898580587" lon="11.705767137120308"><ele>565.3333333333333</ele><time>2026-04-18T11:34:30Z</time></trkpt><trkpt lat="48.05616513855296" lon="11.705822420147424"><ele>564.6666666666666</ele><time>2026-04-18T11:34:31Z</time></trkpt><trkpt lat="48.05637182730771" lon="11.705881875134653"><ele>564.0</ele><time>2026-04-18T11:34:32Z</time></trkpt><trkpt lat="48.056564758842896" lon="11.705937619618478"><ele>564.0</ele><time>2026-04-18T11:34:33Z</time></trkpt><trkpt lat="48.05674512102994" lon="11.705995759178148"><ele>564.0</ele><time>2026-04-18T11:34:34Z</time></trkpt><trkpt lat="48.05691484061179" lon="11.706057685784339"><ele>564.0</ele><time>2026-04-18T11:34:35Z</time></trkpt><trkpt lat="48.05708427636293" lon="11.706118751643693"><ele>564.0</ele><time>2026-04-18T11:34:36Z</time></trkpt><trkpt lat="48.057250870780614" lon="11.706188769241411"><ele>564.0</ele><time>2026-04-18T11:34:37Z</time></trkpt><trkpt lat="48.05741386229381" lon="11.706264684097599"><ele>564.0</ele><time>2026-04-18T11:34:38Z</time></trkpt><trkpt lat="48.05757320354636" lon="11.706340236794011"><ele>564.0</ele><time>2026-04-18T11:34:39Z</time></trkpt><trkpt lat="48.05772869887589" lon="11.706417894829888"><ele>564.0</ele><time>2026-04-18T11:34:40Z</time></trkpt><trkpt lat="48.057875668820095" lon="11.70649561928904"><ele>564.0</ele><time>2026-04-18T11:34:41Z</time></trkpt><trkpt lat="48.05801949951299" lon="11.706573931199841"><ele>564.0</ele><time>2026-04-18T11:34:42Z</time></trkpt><trkpt lat="48.0581665707609" lon="11.706662877461541"><ele>564.0</ele><time>2026-04-18T11:34:43Z</time></trkpt><trkpt lat="48.058310739215024" lon="11.706762104504651"><ele>564.0</ele><time>2026-04-18T11:34:44Z</time></trkpt><trkpt lat="48.05846043531978" lon="11.706838590304438"><ele>564.0</ele><time>2026-04-18T11:34:45Z</time></trkpt><trkpt lat="48.058611097534985" lon="11.706936878783246"><ele>564.0</ele><time>2026-04-18T11:34:46Z</time></trkpt><trkpt lat="48.05875373004377" lon="11.70703781020632"><ele>564.0</ele><time>2026-04-18T11:34:47Z</time></trkpt><trkpt lat="48.05888659215446" lon="11.7071300349692"><ele>564.0</ele><time>2026-04-18T11:34:48Z</time></trkpt><trkpt lat="48.05901165337401" lon="11.707218907845611"><ele>564.0</ele><time>2026-04-18T11:34:49Z</time></trkpt><trkpt lat="48.059128527130575" lon="11.707303744295926"><ele>564.0</ele><time>2026-04-18T11:34:50Z</time></trkpt><trkpt lat="48.05923689956191" lon="11.7073849280217"><ele>564.0</ele><time>2026-04-18T11:34:51Z</time></trkpt><trkpt lat="48.0593372985664" lon="11.707461858616929"><ele>563.5</ele><time>2026-04-18T11:34:52Z</time></trkpt><trkpt lat="48.059430234935114" lon="11.707539136617072"><ele>563.0</ele><time>2026-04-18T11:34:53Z</time></trkpt><trkpt lat="48.05951926735343" lon="11.707609841830703"><ele>562.5</ele><time>2026-04-18T11:34:54Z</time></trkpt><trkpt lat="48.059594377003634" lon="11.707667629031715"><ele>562.0</ele><time>2026-04-18T11:34:55Z</time></trkpt><trkpt lat="48.05965202137838" lon="11.707711564894835"><ele>561.5</ele><time>2026-04-18T11:34:56Z</time></trkpt><trkpt lat="48.059723977323706" lon="11.707772922939691"><ele>561.0</ele><time>2026-04-18T11:34:58Z</time></trkpt><trkpt lat="48.059807761987784" lon="11.707841037277284"><ele>561.0</ele><time>2026-04-18T11:35:01Z</time></trkpt><trkpt lat="48.059898740884584" lon="11.70790608872491"><ele>561.0</ele><time>2026-04-18T11:35:03Z</time></trkpt><trkpt lat="48.05998070133722" lon="11.70796977619658"><ele>561.0</ele><time>2026-04-18T11:35:05Z</time></trkpt><trkpt lat="48.06008257326402" lon="11.707980804837039"><ele>561.0</ele><time>2026-04-18T11:35:07Z</time></trkpt><trkpt lat="48.06012554942097" lon="11.707901768831777"><ele>561.0</ele><time>2026-04-18T11:35:08Z</time></trkpt><trkpt lat="48.06015448830536" lon="11.707816484684846"><ele>561.0</ele><time>2026-04-18T11:35:09Z</time></trkpt><trkpt lat="48.060216901721326" lon="11.707637708998526"><ele>561.4</ele><time>2026-04-18T11:35:11Z</time></trkpt><trkpt lat="48.06027323641638" lon="11.707523419524266"><ele>561.8</ele><time>2026-04-18T11:35:12Z</time></trkpt><trkpt lat="48.06032229406577" lon="11.707394141594333"><ele>562.1999999999999</ele><time>2026-04-18T11:35:13Z</time></trkpt><trkpt lat="48.06037660603396" lon="11.707269242018802"><ele>562.6</ele><time>2026-04-18T11:35:14Z</time></trkpt><trkpt lat="48.06042734299464" lon="11.707138787624046"><ele>563.0</ele><time>2026-04-18T11:35:15Z</time></trkpt><trkpt lat="48.06049803986161" lon="11.707023866129063"><ele>562.8</ele><time>2026-04-18T11:35:16Z</time></trkpt><trkpt lat="48.06056431825292" lon="11.70689855894583"><ele>562.5999999999999</ele><time>2026-04-18T11:35:17Z</time></trkpt><trkpt lat="48.06063947765718" lon="11.70678176437134"><ele>562.4000000000001</ele><time>2026-04-18T11:35:18Z</time></trkpt><trkpt lat="48.06072426538609" lon="11.706680650684168"><ele>562.2</ele><time>2026-04-18T11:35:19Z</time></trkpt><trkpt lat="48.06080884223919" lon="11.706587873295161"><ele>562.0</ele><time>2026-04-18T11:35:20Z</time></trkpt><trkpt lat="48.06089685557841" lon="11.706503343426037"><ele>562.75</ele><time>2026-04-18T11:35:21Z</time></trkpt><trkpt lat="48.0609937100837" lon="11.70643388938425"><ele>563.5</ele><time>2026-04-18T11:35:22Z</time></trkpt><trkpt lat="48.06110949163857" lon="11.70639447482134"><ele>564.25</ele><time>2026-04-18T11:35:23Z</time></trkpt><trkpt lat="48.061240280052225" lon="11.706396002216502"><ele>565.0</ele><time>2026-04-18T11:35:24Z</time></trkpt><trkpt lat="48.06136650814305" lon="11.706437775996308"><ele>565.0</ele><time>2026-04-18T11:35:25Z</time></trkpt><trkpt lat="48.061475822852735" lon="11.706518764593627"><ele>565.0</ele><time>2026-04-18T11:35:26Z</time></trkpt><trkpt lat="48.061558827435896" lon="11.706636452783425"><ele>565.0</ele><time>2026-04-18T11:35:27Z</time></trkpt><trkpt lat="48.0616253626311" lon="11.706777070014352"><ele>565.0</ele><time>2026-04-18T11:35:28Z</time></trkpt><trkpt lat="48.06170105543425" lon="11.70693283878235"><ele>565.6666666666667</ele><time>2026-04-18T11:35:29Z</time></trkpt><trkpt lat="48.06180066828221" lon="11.707133162537477"><ele>566.3333333333334</ele><time>2026-04-18T11:35:30Z</time></trkpt><trkpt lat="48.06195034235605" lon="11.70733751257942"><ele>567.0</ele><time>2026-04-18T11:35:31Z</time></trkpt><trkpt lat="48.062074177627714" lon="11.70767449687092"><ele>569.0</ele><time>2026-04-18T11:35:32Z</time></trkpt><trkpt lat="48.062230234055605" lon="11.708018754858116"><ele>571.0</ele><time>2026-04-18T11:35:33Z</time></trkpt><trkpt lat="48.06238665174768" lon="11.708396854343146"><ele>567.5</ele><time>2026-04-18T11:35:34Z</time></trkpt><trkpt lat="48.06254151375914" lon="11.70872089781693"><ele>564.0</ele><time>2026-04-18T11:35:35Z</time></trkpt><trkpt lat="48.06268233224336" lon="11.709008814122363"><ele>564.0</ele><time>2026-04-18T11:35:36Z</time></trkpt><trkpt lat="48.06282743921215" lon="11.709288917591495"><ele>564.0</ele><time>2026-04-18T11:35:37Z</time></trkpt><trkpt lat="48.06297084763842" lon="11.709572384651933"><ele>564.0</ele><time>2026-04-18T11:35:38Z</time></trkpt><trkpt lat="48.06310637651509" lon="11.70985767928992"><ele>564.0</ele><time>2026-04-18T11:35:39Z</time></trkpt><trkpt lat="48.06323586234879" lon="11.710128987394544"><ele>563.6666666666666</ele><time>2026-04-18T11:35:40Z</time></trkpt><trkpt lat="48.06336388042602" lon="11.710395474941734"><ele>563.3333333333333</ele><time>2026-04-18T11:35:41Z</time></trkpt><trkpt lat="48.06348481396953" lon="11.710667942542045"><ele>563.0</ele><time>2026-04-18T11:35:42Z</time></trkpt><trkpt lat="48.0636232333" lon="11.710960593663009"><ele>562.5</ele><time>2026-04-18T11:35:43Z</time></trkpt><trkpt lat="48.06377137610617" lon="11.711254196024468"><ele>562.0</ele><time>2026-04-18T11:35:44Z</time></trkpt><trkpt lat="48.0639283442536" lon="11.711561685236715"><ele>562.0</ele><time>2026-04-18T11:35:45Z</time></trkpt><trkpt lat="48.06409618573881" lon="11.71187517009788"><ele>562.0</ele><time>2026-04-18T11:35:46Z</time></trkpt><trkpt lat="48.064260100247964" lon="11.712198487275453"><ele>564.5</ele><time>2026-04-18T11:35:47Z</time></trkpt><trkpt lat="48.064415040987825" lon="11.712522651272602"><ele>567.0</ele><time>2026-04-18T11:35:48Z</time></trkpt><trkpt lat="48.064562208727324" lon="11.712823476428225"><ele>567.5</ele><time>2026-04-18T11:35:49Z</time></trkpt><trkpt lat="48.06471260012995" lon="11.713122976009696"><ele>568.0</ele><time>2026-04-18T11:35:50Z</time></trkpt><trkpt lat="48.06486611547325" lon="11.713429847865536"><ele>565.0</ele><time>2026-04-18T11:35:51Z</time></trkpt><trkpt lat="48.06502857034665" lon="11.713746465971152"><ele>562.0</ele><time>2026-04-18T11:35:52Z</time></trkpt><trkpt lat="48.06519223025092" lon="11.714071926175631"><ele>562.0</ele><time>2026-04-18T11:35:53Z</time></trkpt><trkpt lat="48.06535613671839" lon="11.714386135936904"><ele>562.0</ele><time>2026-04-18T11:35:54Z</time></trkpt><trkpt lat="48.06552356354422" lon="11.71468581792731"><ele>561.5</ele><time>2026-04-18T11:35:55Z</time></trkpt><trkpt lat="48.06568890385337" lon="11.714986870082553"><ele>561.0</ele><time>2026-04-18T11:35:56Z</time></trkpt><trkpt lat="48.065849191717454" lon="11.715288238113986"><ele>560.0</ele><time>2026-04-18T11:35:57Z</time></trkpt><trkpt lat="48.06600714741382" lon="11.715590053407041"><ele>559.0</ele><time>2026-04-18T11:35:58Z</time></trkpt><trkpt lat="48.06616645399906" lon="11.71589520302274"><ele>559.0</ele><time>2026-04-18T11:35:59Z</time></trkpt><trkpt lat="48.066332412115926" lon="11.716204512535636"><ele>559.0</ele><time>2026-04-18T11:36:00Z</time></trkpt><trkpt lat="48.06650342998822" lon="11.716506065511888"><ele>559.5</ele><time>2026-04-18T11:36:01Z</time></trkpt><trkpt lat="48.06666990380943" lon="11.716795784297517"><ele>560.0</ele><time>2026-04-18T11:36:02Z</time></trkpt><trkpt lat="48.0668299685478" lon="11.717083868210818"><ele>560.0</ele><time>2026-04-18T11:36:03Z</time></trkpt><trkpt lat="48.066987416481695" lon="11.717372444684054"><ele>560.0</ele><time>2026-04-18T11:36:04Z</time></trkpt><trkpt lat="48.06714966980661" lon="11.717663657483993"><ele>559.5</ele><time>2026-04-18T11:36:05Z</time></trkpt><trkpt lat="48.067314649437215" lon="11.717959633414377"><ele>559.0</ele><time>2026-04-18T11:36:06Z</time></trkpt><trkpt lat="48.06748463907917" lon="11.718260665266282"><ele>559.0</ele><time>2026-04-18T11:36:07Z</time></trkpt><trkpt lat="48.06766372328509" lon="11.718575326985631"><ele>559.0</ele><time>2026-04-18T11:36:08Z</time></trkpt><trkpt lat="48.06784867402905" lon="11.718903187570723"><ele>559.0</ele><time>2026-04-18T11:36:09Z</time></trkpt><trkpt lat="48.068036384709934" lon="11.719239448291082"><ele>559.0</ele><time>2026-04-18T11:36:10Z</time></trkpt><trkpt lat="48.068228155510546" lon="11.719575766174623"><ele>559.0</ele><time>2026-04-18T11:36:11Z</time></trkpt><trkpt lat="48.06842587507784" lon="11.719914219416024"><ele>559.0</ele><time>2026-04-18T11:36:12Z</time></trkpt><trkpt lat="48.068625836596496" lon="11.72025349988068"><ele>559.0</ele><time>2026-04-18T11:36:13Z</time></trkpt><trkpt lat="48.06882923062315" lon="11.720596820800983"><ele>559.0</ele><time>2026-04-18T11:36:14Z</time></trkpt><trkpt lat="48.06904136043939" lon="11.720945677201481"><ele>559.5</ele><time>2026-04-18T11:36:15Z</time></trkpt><trkpt lat="48.06925431787803" lon="11.721291749666705"><ele>560.0</ele><time>2026-04-18T11:36:16Z</time></trkpt><trkpt lat="48.06946136346784" lon="11.721622397091474"><ele>559.0</ele><time>2026-04-18T11:36:17Z</time></trkpt><trkpt lat="48.0696613242865" lon="11.721941518551336"><ele>558.0</ele><time>2026-04-18T11:36:18Z</time></trkpt><trkpt lat="48.0698556702955" lon="11.722255282529352"><ele>558.5</ele><time>2026-04-18T11:36:19Z</time></trkpt><trkpt lat="48.070045162612324" lon="11.722559700764265"><ele>559.0</ele><time>2026-04-18T11:36:20Z</time></trkpt><trkpt lat="48.07023178022603" lon="11.722858240237446"><ele>559.0</ele><time>2026-04-18T11:36:21Z</time></trkpt><trkpt lat="48.07042366429158" lon="11.723161513643257"><ele>559.0</ele><time>2026-04-18T11:36:22Z</time></trkpt><trkpt lat="48.070622397482" lon="11.723471769863163"><ele>560.5</ele><time>2026-04-18T11:36:23Z</time></trkpt><trkpt lat="48.070825210747216" lon="11.723789686399524"><ele>562.0</ele><time>2026-04-18T11:36:24Z</time></trkpt><trkpt lat="48.07103159675213" lon="11.724107854872495"><ele>562.0</ele><time>2026-04-18T11:36:25Z</time></trkpt><trkpt lat="48.07123378675132" lon="11.724414641076232"><ele>562.0</ele><time>2026-04-18T11:36:26Z</time></trkpt><trkpt lat="48.071430117836954" lon="11.724713031929207"><ele>560.0</ele><time>2026-04-18T11:36:27Z</time></trkpt><trkpt lat="48.07162343981304" lon="11.72500240645071"><ele>558.0</ele><time>2026-04-18T11:36:28Z</time></trkpt><trkpt lat="48.071814769333024" lon="11.725283905459616"><ele>558.0</ele><time>2026-04-18T11:36:29Z</time></trkpt><trkpt lat="48.072006521835455" lon="11.725562168126254"><ele>558.0</ele><time>2026-04-18T11:36:30Z</time></trkpt><trkpt lat="48.07220059501669" lon="11.725844371635091"><ele>558.0</ele><time>2026-04-18T11:36:31Z</time></trkpt><trkpt lat="48.072396238801176" lon="11.72613285758375"><ele>558.0</ele><time>2026-04-18T11:36:32Z</time></trkpt><trkpt lat="48.07260020137673" lon="11.72642758030931"><ele>559.0</ele><time>2026-04-18T11:36:33Z</time></trkpt><trkpt lat="48.072804837336385" lon="11.726723105510407"><ele>560.0</ele><time>2026-04-18T11:36:34Z</time></trkpt><trkpt lat="48.0730030802817" lon="11.727005111148179"><ele>560.0</ele><time>2026-04-18T11:36:35Z</time></trkpt><trkpt lat="48.073200970429504" lon="11.727282361760363"><ele>560.0</ele><time>2026-04-18T11:36:36Z</time></trkpt><trkpt lat="48.07340182721692" lon="11.727560808141085"><ele>558.5</ele><time>2026-04-18T11:36:37Z</time></trkpt><trkpt lat="48.07360561143249" lon="11.72784643781246"><ele>557.0</ele><time>2026-04-18T11:36:38Z</time></trkpt><trkpt lat="48.07380905687416" lon="11.728128521032822"><ele>557.0</ele><time>2026-04-18T11:36:39Z</time></trkpt><trkpt lat="48.07401433872029" lon="11.728404987259122"><ele>557.0</ele><time>2026-04-18T11:36:40Z</time></trkpt><trkpt lat="48.07421881767317" lon="11.728682194012917"><ele>557.5</ele><time>2026-04-18T11:36:41Z</time></trkpt><trkpt lat="48.07442633825283" lon="11.728961551774635"><ele>558.0</ele><time>2026-04-18T11:36:42Z</time></trkpt><trkpt lat="48.074635617467514" lon="11.729235065823948"><ele>557.5</ele><time>2026-04-18T11:36:43Z</time></trkpt><trkpt lat="48.07484441773771" lon="11.729505394097291"><ele>557.0</ele><time>2026-04-18T11:36:44Z</time></trkpt><trkpt lat="48.07504889788369" lon="11.72977560543239"><ele>556.5</ele><time>2026-04-18T11:36:45Z</time></trkpt><trkpt lat="48.075247085519784" lon="11.730053657744547"><ele>556.0</ele><time>2026-04-18T11:36:46Z</time></trkpt><trkpt lat="48.07544413800184" lon="11.730337553560448"><ele>556.0</ele><time>2026-04-18T11:36:47Z</time></trkpt><trkpt lat="48.075642860104885" lon="11.730613270028096"><ele>556.0</ele><time>2026-04-18T11:36:48Z</time></trkpt><trkpt lat="48.0758439220179" lon="11.730872539830148"><ele>556.0</ele><time>2026-04-18T11:36:49Z</time></trkpt><trkpt lat="48.076040581123344" lon="11.731124451871985"><ele>556.0</ele><time>2026-04-18T11:36:50Z</time></trkpt><trkpt lat="48.07623929235262" lon="11.731372433613597"><ele>556.0</ele><time>2026-04-18T11:36:51Z</time></trkpt><trkpt lat="48.07643855775997" lon="11.731624866278096"><ele>556.0</ele><time>2026-04-18T11:36:52Z</time></trkpt><trkpt lat="48.07664000320165" lon="11.731875704954714"><ele>556.5</ele><time>2026-04-18T11:36:53Z</time></trkpt><trkpt lat="48.07684517692111" lon="11.732126547143865"><ele>557.0</ele><time>2026-04-18T11:36:54Z</time></trkpt><trkpt lat="48.077053189863456" lon="11.73237519024491"><ele>557.0</ele><time>2026-04-18T11:36:55Z</time></trkpt><trkpt lat="48.077258474184646" lon="11.732622507146546"><ele>557.0</ele><time>2026-04-18T11:36:56Z</time></trkpt><trkpt lat="48.077455728900915" lon="11.732861574467957"><ele>556.5</ele><time>2026-04-18T11:36:57Z</time></trkpt><trkpt lat="48.07764936840688" lon="11.733093234759052"><ele>556.0</ele><time>2026-04-18T11:36:58Z</time></trkpt><trkpt lat="48.07784313556554" lon="11.733323300964209"><ele>556.0</ele><time>2026-04-18T11:36:59Z</time></trkpt><trkpt lat="48.07804015694018" lon="11.733555249165516"><ele>556.0</ele><time>2026-04-18T11:37:00Z</time></trkpt><trkpt lat="48.07824257344332" lon="11.733786256483876"><ele>555.5</ele><time>2026-04-18T11:37:01Z</time></trkpt><trkpt lat="48.07844834249658" lon="11.734024094333638"><ele>555.0</ele><time>2026-04-18T11:37:02Z</time></trkpt><trkpt lat="48.078660461740846" lon="11.734269906987109"><ele>556.0</ele><time>2026-04-18T11:37:03Z</time></trkpt><trkpt lat="48.07888447637576" lon="11.734527057421456"><ele>557.0</ele><time>2026-04-18T11:37:04Z</time></trkpt><trkpt lat="48.07911893375756" lon="11.734795524597326"><ele>557.5</ele><time>2026-04-18T11:37:05Z</time></trkpt><trkpt lat="48.079346677383775" lon="11.735051889963856"><ele>558.0</ele><time>2026-04-18T11:37:06Z</time></trkpt><trkpt lat="48.0795727052" lon="11.735299488499276"><ele>557.0</ele><time>2026-04-18T11:37:07Z</time></trkpt><trkpt lat="48.079795609841284" lon="11.735542275976774"><ele>556.0</ele><time>2026-04-18T11:37:08Z</time></trkpt><trkpt lat="48.08001421930784" lon="11.735782352280125"><ele>555.0</ele><time>2026-04-18T11:37:09Z</time></trkpt><trkpt lat="48.08023161419355" lon="11.736018706675798"><ele>554.0</ele><time>2026-04-18T11:37:10Z</time></trkpt><trkpt lat="48.0804478534037" lon="11.73625294323532"><ele>554.0</ele><time>2026-04-18T11:37:11Z</time></trkpt><trkpt lat="48.08066835254846" lon="11.736492636738552"><ele>554.0</ele><time>2026-04-18T11:37:12Z</time></trkpt><trkpt lat="48.08089629944706" lon="11.736733090376763"><ele>554.5</ele><time>2026-04-18T11:37:13Z</time></trkpt><trkpt lat="48.08112781494189" lon="11.736972395403113"><ele>555.0</ele><time>2026-04-18T11:37:14Z</time></trkpt><trkpt lat="48.08135224971758" lon="11.737205923396377"><ele>555.0</ele><time>2026-04-18T11:37:15Z</time></trkpt><trkpt lat="48.08156791643001" lon="11.737431512035297"><ele>555.0</ele><time>2026-04-18T11:37:16Z</time></trkpt><trkpt lat="48.081776586220755" lon="11.737646802300238"><ele>554.0</ele><time>2026-04-18T11:37:17Z</time></trkpt><trkpt lat="48.08197772499561" lon="11.737852762024486"><ele>553.0</ele><time>2026-04-18T11:37:18Z</time></trkpt><trkpt lat="48.082177918874635" lon="11.738056702473324"><ele>553.0</ele><time>2026-04-18T11:37:19Z</time></trkpt><trkpt lat="48.08237939170873" lon="11.738256476513108"><ele>553.0</ele><time>2026-04-18T11:37:20Z</time></trkpt><trkpt lat="48.08258168535808" lon="11.738453929674053"><ele>553.5</ele><time>2026-04-18T11:37:21Z</time></trkpt><trkpt lat="48.08278520095724" lon="11.738655684207064"><ele>554.0</ele><time>2026-04-18T11:37:22Z</time></trkpt><trkpt lat="48.08298974991343" lon="11.738856900797375"><ele>554.0</ele><time>2026-04-18T11:37:23Z</time></trkpt><trkpt lat="48.083190516623105" lon="11.739054933854037"><ele>554.0</ele><time>2026-04-18T11:37:24Z</time></trkpt><trkpt lat="48.08339021169762" lon="11.739248569426229"><ele>554.0</ele><time>2026-04-18T11:37:25Z</time></trkpt><trkpt lat="48.08358844223743" lon="11.739438107380929"><ele>554.0</ele><time>2026-04-18T11:37:26Z</time></trkpt><trkpt lat="48.08378732115895" lon="11.739629697150894"><ele>554.0</ele><time>2026-04-18T11:37:27Z</time></trkpt><trkpt lat="48.08398793084855" lon="11.739821910772031"><ele>554.0</ele><time>2026-04-18T11:37:28Z</time></trkpt><trkpt lat="48.08419238074566" lon="11.740014441940641"><ele>554.0</ele><time>2026-04-18T11:37:29Z</time></trkpt><trkpt lat="48.08439891767521" lon="11.740204527749206"><ele>554.0</ele><time>2026-04-18T11:37:30Z</time></trkpt><trkpt lat="48.08460365885959" lon="11.740392949998853"><ele>554.0</ele><time>2026-04-18T11:37:31Z</time></trkpt><trkpt lat="48.08480603403502" lon="11.740579928951595"><ele>554.0</ele><time>2026-04-18T11:37:32Z</time></trkpt><trkpt lat="48.08500469799721" lon="11.74076412100449"><ele>553.5</ele><time>2026-04-18T11:37:33Z</time></trkpt><trkpt lat="48.08520053086425" lon="11.74094237779797"><ele>553.0</ele><time>2026-04-18T11:37:34Z</time></trkpt><trkpt lat="48.085395394610586" lon="11.741116757241151"><ele>552.3333333333334</ele><time>2026-04-18T11:37:35Z</time></trkpt><trkpt lat="48.08559014056813" lon="11.74128177965174"><ele>551.6666666666666</ele><time>2026-04-18T11:37:36Z</time></trkpt><trkpt lat="48.08578859617155" lon="11.74143454930798"><ele>551.0</ele><time>2026-04-18T11:37:37Z</time></trkpt><trkpt lat="48.08599571057248" lon="11.7415815886236"><ele>551.0</ele><time>2026-04-18T11:37:38Z</time></trkpt><trkpt lat="48.086203793876564" lon="11.741748803865553"><ele>551.0</ele><time>2026-04-18T11:37:39Z</time></trkpt><trkpt lat="48.086416149818874" lon="11.741929539745195"><ele>552.0</ele><time>2026-04-18T11:37:40Z</time></trkpt><trkpt lat="48.08662911858319" lon="11.742107701887708"><ele>553.0</ele><time>2026-04-18T11:37:41Z</time></trkpt><trkpt lat="48.08683514513243" lon="11.742281301214893"><ele>553.0</ele><time>2026-04-18T11:37:42Z</time></trkpt><trkpt lat="48.08703483391016" lon="11.742453868897075"><ele>553.0</ele><time>2026-04-18T11:37:43Z</time></trkpt><trkpt lat="48.08723309420174" lon="11.742624024892557"><ele>552.0</ele><time>2026-04-18T11:37:44Z</time></trkpt><trkpt lat="48.08743551652935" lon="11.742788617191266"><ele>551.0</ele><time>2026-04-18T11:37:45Z</time></trkpt><trkpt lat="48.08764547190275" lon="11.742957340324383"><ele>551.0</ele><time>2026-04-18T11:37:46Z</time></trkpt><trkpt lat="48.08786071201531" lon="11.743133995485508"><ele>551.0</ele><time>2026-04-18T11:37:47Z</time></trkpt><trkpt lat="48.08807782382988" lon="11.743311954423412"><ele>551.0</ele><time>2026-04-18T11:37:48Z</time></trkpt><trkpt lat="48.088297731572986" lon="11.743492419926696"><ele>551.0</ele><time>2026-04-18T11:37:49Z</time></trkpt><trkpt lat="48.088517970645185" lon="11.743672220079462"><ele>551.0</ele><time>2026-04-18T11:37:50Z</time></trkpt><trkpt lat="48.08872587226658" lon="11.743841393860466"><ele>551.0</ele><time>2026-04-18T11:37:51Z</time></trkpt><trkpt lat="48.08892584858118" lon="11.744000749890867"><ele>552.0</ele><time>2026-04-18T11:37:52Z</time></trkpt><trkpt lat="48.08911787207092" lon="11.74415327969362"><ele>553.0</ele><time>2026-04-18T11:37:53Z</time></trkpt><trkpt lat="48.08930207241632" lon="11.744299331142413"><ele>554.0</ele><time>2026-04-18T11:37:54Z</time></trkpt><trkpt lat="48.08948334614777" lon="11.744442239837507"><ele>554.0</ele><time>2026-04-18T11:37:55Z</time></trkpt><trkpt lat="48.089661293957086" lon="11.744582804425825"><ele>554.0</ele><time>2026-04-18T11:37:56Z</time></trkpt><trkpt lat="48.0898331712418" lon="11.744726128875474"><ele>554.0</ele><time>2026-04-18T11:37:57Z</time></trkpt><trkpt lat="48.08999887905561" lon="11.744874274305365"><ele>553.6666666666666</ele><time>2026-04-18T11:37:58Z</time></trkpt><trkpt lat="48.090163203301024" lon="11.745023026632326"><ele>553.3333333333334</ele><time>2026-04-18T11:37:59Z</time></trkpt><trkpt lat="48.09032908578045" lon="11.745161818136445"><ele>553.0</ele><time>2026-04-18T11:38:00Z</time></trkpt><trkpt lat="48.09049377955335" lon="11.745289539194491"><ele>553.0</ele><time>2026-04-18T11:38:01Z</time></trkpt><trkpt lat="48.09065746715281" lon="11.74541296696093"><ele>553.0</ele><time>2026-04-18T11:38:02Z</time></trkpt><trkpt lat="48.090822358124136" lon="11.745538447304513"><ele>553.0</ele><time>2026-04-18T11:38:03Z</time></trkpt><trkpt lat="48.09098822736873" lon="11.745664665304313"><ele>553.3333333333334</ele><time>2026-04-18T11:38:04Z</time></trkpt><trkpt lat="48.091160692769115" lon="11.745794187840863"><ele>553.6666666666666</ele><time>2026-04-18T11:38:05Z</time></trkpt><trkpt lat="48.091339541070795" lon="11.74592552569595"><ele>554.0</ele><time>2026-04-18T11:38:06Z</time></trkpt><trkpt lat="48.09152902350135" lon="11.74605805255726"><ele>554.3333333333333</ele><time>2026-04-18T11:38:07Z</time></trkpt><trkpt lat="48.091712537111206" lon="11.74619179395905"><ele>554.6666666666666</ele><time>2026-04-18T11:38:08Z</time></trkpt><trkpt lat="48.09188546318674" lon="11.746316924639864"><ele>555.0</ele><time>2026-04-18T11:38:09Z</time></trkpt><trkpt lat="48.0920538007379" lon="11.746437011547808"><ele>555.0</ele><time>2026-04-18T11:38:10Z</time></trkpt><trkpt lat="48.092224945031674" lon="11.746557905105231"><ele>555.0</ele><time>2026-04-18T11:38:11Z</time></trkpt><trkpt lat="48.092403267793465" lon="11.746681501384776"><ele>555.0</ele><time>2026-04-18T11:38:12Z</time></trkpt><trkpt lat="48.09258651265331" lon="11.746812192215604"><ele>554.6666666666666</ele><time>2026-04-18T11:38:13Z</time></trkpt><trkpt lat="48.09277133342728" lon="11.74694135993391"><ele>554.3333333333333</ele><time>2026-04-18T11:38:14Z</time></trkpt><trkpt lat="48.09295262228572" lon="11.74707046094757"><ele>554.0</ele><time>2026-04-18T11:38:15Z</time></trkpt><trkpt lat="48.09313083681579" lon="11.747192395034112"><ele>553.6666666666666</ele><time>2026-04-18T11:38:16Z</time></trkpt><trkpt lat="48.0933137796824" lon="11.74731559218488"><ele>553.3333333333334</ele><time>2026-04-18T11:38:17Z</time></trkpt><trkpt lat="48.09349627599035" lon="11.747440353903798"><ele>553.0</ele><time>2026-04-18T11:38:18Z</time></trkpt><trkpt lat="48.093678393607334" lon="11.747563618240212"><ele>553.0</ele><time>2026-04-18T11:38:19Z</time></trkpt><trkpt lat="48.09386119380144" lon="11.747685665055725"><ele>553.0</ele><time>2026-04-18T11:38:20Z</time></trkpt><trkpt lat="48.09404403119896" lon="11.747803859024271"><ele>553.0</ele><time>2026-04-18T11:38:21Z</time></trkpt><trkpt lat="48.09422470001524" lon="11.747921269244143"><ele>554.0</ele><time>2026-04-18T11:38:22Z</time></trkpt><trkpt lat="48.094403451776614" lon="11.74803967849915"><ele>555.0</ele><time>2026-04-18T11:38:23Z</time></trkpt><trkpt lat="48.09458217051871" lon="11.748154803785642"><ele>556.0</ele><time>2026-04-18T11:38:24Z</time></trkpt><trkpt lat="48.09476306663549" lon="11.748270176616664"><ele>554.3333333333334</ele><time>2026-04-18T11:38:25Z</time></trkpt><trkpt lat="48.09494799319075" lon="11.748388199278116"><ele>552.6666666666666</ele><time>2026-04-18T11:38:26Z</time></trkpt><trkpt lat="48.095137424240924" lon="11.748510189700065"><ele>551.0</ele><time>2026-04-18T11:38:27Z</time></trkpt><trkpt lat="48.09533052744518" lon="11.748633856228839"><ele>551.0</ele><time>2026-04-18T11:38:28Z</time></trkpt><trkpt lat="48.095522509337016" lon="11.748756268305225"><ele>551.0</ele><time>2026-04-18T11:38:29Z</time></trkpt><trkpt lat="48.09570857305438" lon="11.748875211365387"><ele>551.0</ele><time>2026-04-18T11:38:30Z</time></trkpt><trkpt lat="48.09588662160301" lon="11.748986726428337"><ele>551.0</ele><time>2026-04-18T11:38:31Z</time></trkpt><trkpt lat="48.09606141509394" lon="11.749093774092259"><ele>551.0</ele><time>2026-04-18T11:38:32Z</time></trkpt><trkpt lat="48.09623594656232" lon="11.74919703448672"><ele>551.0</ele><time>2026-04-18T11:38:33Z</time></trkpt><trkpt lat="48.096412811019654" lon="11.749304819635757"><ele>551.3333333333333</ele><time>2026-04-18T11:38:34Z</time></trkpt><trkpt lat="48.09658769491883" lon="11.74941482644661"><ele>551.6666666666666</ele><time>2026-04-18T11:38:35Z</time></trkpt><trkpt lat="48.09676355553149" lon="11.749521621202073"><ele>552.0</ele><time>2026-04-18T11:38:36Z</time></trkpt><trkpt lat="48.09694033477935" lon="11.749625983634404"><ele>552.0</ele><time>2026-04-18T11:38:37Z</time></trkpt><trkpt lat="48.097116696134506" lon="11.749734142025243"><ele>552.0</ele><time>2026-04-18T11:38:38Z</time></trkpt><trkpt lat="48.09729495154676" lon="11.74984205114667"><ele>552.0</ele><time>2026-04-18T11:38:39Z</time></trkpt><trkpt lat="48.097472580112836" lon="11.749947140160126"><ele>551.3333333333334</ele><time>2026-04-18T11:38:40Z</time></trkpt><trkpt lat="48.0976508263347" lon="11.750053334073932"><ele>550.6666666666667</ele><time>2026-04-18T11:38:41Z</time></trkpt><trkpt lat="48.09783096918515" lon="11.750157206044781"><ele>550.0</ele><time>2026-04-18T11:38:42Z</time></trkpt><trkpt lat="48.09801035402577" lon="11.750261105228711"><ele>550.0</ele><time>2026-04-18T11:38:43Z</time></trkpt><trkpt lat="48.09819137063479" lon="11.75036451338899"><ele>550.0</ele><time>2026-04-18T11:38:44Z</time></trkpt><trkpt lat="48.09837262599089" lon="11.750468972097991"><ele>550.0</ele><time>2026-04-18T11:38:45Z</time></trkpt><trkpt lat="48.09855403598248" lon="11.750574510470225"><ele>549.3333333333334</ele><time>2026-04-18T11:38:46Z</time></trkpt><trkpt lat="48.098737327906115" lon="11.750678840507277"><ele>548.6666666666666</ele><time>2026-04-18T11:38:47Z</time></trkpt><trkpt lat="48.0989209078524" lon="11.750784763773055"><ele>548.0</ele><time>2026-04-18T11:38:48Z</time></trkpt><trkpt lat="48.099104689180805" lon="11.75088960616864"><ele>547.6666666666666</ele><time>2026-04-18T11:38:49Z</time></trkpt><trkpt lat="48.099290164640465" lon="11.75099271274552"><ele>547.3333333333334</ele><time>2026-04-18T11:38:50Z</time></trkpt><trkpt lat="48.09947581976732" lon="11.751091223722325"><ele>547.0</ele><time>2026-04-18T11:38:51Z</time></trkpt><trkpt lat="48.099662890146725" lon="11.751192347256081"><ele>547.0</ele><time>2026-04-18T11:38:52Z</time></trkpt><trkpt lat="48.09984145801334" lon="11.751297438211122"><ele>547.0</ele><time>2026-04-18T11:38:53Z</time></trkpt><trkpt lat="48.1000156422728" lon="11.751399252705594"><ele>547.0</ele><time>2026-04-18T11:38:54Z</time></trkpt><trkpt lat="48.1001841857319" lon="11.75149886689793"><ele>545.3333333333334</ele><time>2026-04-18T11:38:55Z</time></trkpt><trkpt lat="48.100350045855315" lon="11.75159537095871"><ele>543.6666666666666</ele><time>2026-04-18T11:38:56Z</time></trkpt><trkpt lat="48.10051774463312" lon="11.75169104619815"><ele>542.0</ele><time>2026-04-18T11:38:57Z</time></trkpt><trkpt lat="48.10068855806672" lon="11.75178836687386"><ele>543.6666666666666</ele><time>2026-04-18T11:38:58Z</time></trkpt><trkpt lat="48.1008652665698" lon="11.751886535876512"><ele>545.3333333333334</ele><time>2026-04-18T11:38:59Z</time></trkpt><trkpt lat="48.1010472352952" lon="11.751985977818105"><ele>547.0</ele><time>2026-04-18T11:39:00Z</time></trkpt><trkpt lat="48.10122745336404" lon="11.752084676081456"><ele>547.0</ele><time>2026-04-18T11:39:01Z</time></trkpt><trkpt lat="48.10139987365075" lon="11.752180350553859"><ele>547.0</ele><time>2026-04-18T11:39:02Z</time></trkpt><trkpt lat="48.101569683621726" lon="11.752269460854142"><ele>547.0</ele><time>2026-04-18T11:39:03Z</time></trkpt><trkpt lat="48.10174205418736" lon="11.7523548872299"><ele>546.6666666666667</ele><time>2026-04-18T11:39:04Z</time></trkpt><trkpt lat="48.101918146871434" lon="11.752447460576889"><ele>546.3333333333334</ele><time>2026-04-18T11:39:05Z</time></trkpt><trkpt lat="48.10209768643972" lon="11.752542780795725"><ele>546.0</ele><time>2026-04-18T11:39:06Z</time></trkpt><trkpt lat="48.10228032040897" lon="11.752636617348037"><ele>546.3333333333334</ele><time>2026-04-18T11:39:07Z</time></trkpt><trkpt lat="48.10246289174375" lon="11.752730155854719"><ele>546.6666666666667</ele><time>2026-04-18T11:39:08Z</time></trkpt><trkpt lat="48.102641469817044" lon="11.752820559414136"><ele>547.0</ele><time>2026-04-18T11:39:09Z</time></trkpt><trkpt lat="48.102817171778" lon="11.752912533595442"><ele>547.0</ele><time>2026-04-18T11:39:10Z</time></trkpt><trkpt lat="48.10298898494866" lon="11.752998074043992"><ele>547.0</ele><time>2026-04-18T11:39:11Z</time></trkpt><trkpt lat="48.10316180969845" lon="11.753081585331845"><ele>547.0</ele><time>2026-04-18T11:39:12Z</time></trkpt><trkpt lat="48.10333083733818" lon="11.75316373728711"><ele>546.3333333333334</ele><time>2026-04-18T11:39:13Z</time></trkpt><trkpt lat="48.10349899821027" lon="11.753244386160691"><ele>545.6666666666666</ele><time>2026-04-18T11:39:14Z</time></trkpt><trkpt lat="48.10366670589265" lon="11.753324352170994"><ele>545.0</ele><time>2026-04-18T11:39:15Z</time></trkpt><trkpt lat="48.10384858172921" lon="11.753413025660942"><ele>545.0</ele><time>2026-04-18T11:39:16Z</time></trkpt><trkpt lat="48.104033547452985" lon="11.75349795190603"><ele>545.0</ele><time>2026-04-18T11:39:17Z</time></trkpt><trkpt lat="48.10421633980584" lon="11.753571927928682"><ele>545.0</ele><time>2026-04-18T11:39:18Z</time></trkpt><trkpt lat="48.104398680884714" lon="11.753641472949091"><ele>545.0</ele><time>2026-04-18T11:39:19Z</time></trkpt><trkpt lat="48.10458738164712" lon="11.75371135046935"><ele>545.0</ele><time>2026-04-18T11:39:20Z</time></trkpt><trkpt lat="48.10478525572642" lon="11.753792079556428"><ele>545.0</ele><time>2026-04-18T11:39:21Z</time></trkpt><trkpt lat="48.10498771115932" lon="11.75388382385461"><ele>543.0</ele><time>2026-04-18T11:39:22Z</time></trkpt><trkpt lat="48.105196092573316" lon="11.753987266488707"><ele>541.0</ele><time>2026-04-18T11:39:23Z</time></trkpt><trkpt lat="48.10540517237545" lon="11.754061755671978"><ele>539.0</ele><time>2026-04-18T11:39:24Z</time></trkpt><trkpt lat="48.105604130043865" lon="11.75415002201739"><ele>539.0</ele><time>2026-04-18T11:39:25Z</time></trkpt><trkpt lat="48.10579875178767" lon="11.754229975341204"><ele>539.0</ele><time>2026-04-18T11:39:26Z</time></trkpt><trkpt lat="48.10599035249537" lon="11.754307817702088"><ele>539.0</ele><time>2026-04-18T11:39:27Z</time></trkpt><trkpt lat="48.106181158909024" lon="11.754390817326135"><ele>540.3333333333333</ele><time>2026-04-18T11:39:28Z</time></trkpt><trkpt lat="48.106374211082056" lon="11.754475042413931"><ele>541.6666666666666</ele><time>2026-04-18T11:39:29Z</time></trkpt><trkpt lat="48.106581466050905" lon="11.754564148584606"><ele>543.0</ele><time>2026-04-18T11:39:30Z</time></trkpt><trkpt lat="48.10678109128213" lon="11.754647573101485"><ele>543.0</ele><time>2026-04-18T11:39:31Z</time></trkpt><trkpt lat="48.106971811477244" lon="11.754723427428301"><ele>543.0</ele><time>2026-04-18T11:39:32Z</time></trkpt><trkpt lat="48.10717450054514" lon="11.754801748436133"><ele>543.0</ele><time>2026-04-18T11:39:33Z</time></trkpt><trkpt lat="48.10737545094436" lon="11.754884492050742"><ele>542.3333333333334</ele><time>2026-04-18T11:39:34Z</time></trkpt><trkpt lat="48.107573456548444" lon="11.754963473697272"><ele>541.6666666666667</ele><time>2026-04-18T11:39:35Z</time></trkpt><trkpt lat="48.10775290438714" lon="11.755030837620883"><ele>541.0</ele><time>2026-04-18T11:39:36Z</time></trkpt><trkpt lat="48.10790277459719" lon="11.755089146862833"><ele>541.0</ele><time>2026-04-18T11:39:37Z</time></trkpt><trkpt lat="48.10805404460989" lon="11.755141694747023"><ele>541.0</ele><time>2026-04-18T11:39:38Z</time></trkpt><trkpt lat="48.108210012321486" lon="11.755176247522618"><ele>541.0</ele><time>2026-04-18T11:39:39Z</time></trkpt><trkpt lat="48.10835880772472" lon="11.755212787675537"><ele>541.6666666666667</ele><time>2026-04-18T11:39:40Z</time></trkpt><trkpt lat="48.10850833607241" lon="11.75526702692996"><ele>542.3333333333334</ele><time>2026-04-18T11:39:41Z</time></trkpt><trkpt lat="48.108672439161325" lon="11.755337400449674"><ele>543.0</ele><time>2026-04-18T11:39:42Z</time></trkpt><trkpt lat="48.10884991409385" lon="11.755403236848986"><ele>543.0</ele><time>2026-04-18T11:39:43Z</time></trkpt><trkpt lat="48.10903108433737" lon="11.755473339905686"><ele>543.0</ele><time>2026-04-18T11:39:44Z</time></trkpt><trkpt lat="48.109218599361284" lon="11.755553576101386"><ele>543.0</ele><time>2026-04-18T11:39:45Z</time></trkpt><trkpt lat="48.10942476371006" lon="11.75565266880726"><ele>542.6666666666666</ele><time>2026-04-18T11:39:46Z</time></trkpt><trkpt lat="48.109634826723436" lon="11.755748479866277"><ele>542.3333333333333</ele><time>2026-04-18T11:39:47Z</time></trkpt><trkpt lat="48.109832030876284" lon="11.755816036450218"><ele>542.0</ele><time>2026-04-18T11:39:48Z</time></trkpt><trkpt lat="48.11002368482669" lon="11.75588018818299"><ele>542.0</ele><time>2026-04-18T11:39:49Z</time></trkpt><trkpt lat="48.11021632346828" lon="11.755949896833622"><ele>542.0</ele><time>2026-04-18T11:39:50Z</time></trkpt><trkpt lat="48.110409861202825" lon="11.756017600132157"><ele>542.0</ele><time>2026-04-18T11:39:51Z</time></trkpt><trkpt lat="48.11060223690314" lon="11.756082629096856"><ele>543.0</ele><time>2026-04-18T11:39:52Z</time></trkpt><trkpt lat="48.11079110713415" lon="11.756146463902805"><ele>544.0</ele><time>2026-04-18T11:39:53Z</time></trkpt><trkpt lat="48.11097479159984" lon="11.756210771756779"><ele>545.0</ele><time>2026-04-18T11:39:54Z</time></trkpt><trkpt lat="48.111154501559966" lon="11.756269071856897"><ele>545.0</ele><time>2026-04-18T11:39:55Z</time></trkpt><trkpt lat="48.11133445472964" lon="11.756327251479984"><ele>545.0</ele><time>2026-04-18T11:39:56Z</time></trkpt><trkpt lat="48.11152705314682" lon="11.756391582567979"><ele>545.0</ele><time>2026-04-18T11:39:57Z</time></trkpt><trkpt lat="48.11171699333071" lon="11.756454620766576"><ele>544.3333333333333</ele><time>2026-04-18T11:39:58Z</time></trkpt><trkpt lat="48.111910904488454" lon="11.756514876576338"><ele>543.6666666666666</ele><time>2026-04-18T11:39:59Z</time></trkpt><trkpt lat="48.11211321135342" lon="11.756576745004333"><ele>543.0</ele><time>2026-04-18T11:40:00Z</time></trkpt><trkpt lat="48.112288800225826" lon="11.756625209690537"><ele>542.3333333333334</ele><time>2026-04-18T11:40:01Z</time></trkpt><trkpt lat="48.11247048649258" lon="11.756678640608843"><ele>541.6666666666667</ele><time>2026-04-18T11:40:02Z</time></trkpt><trkpt lat="48.112646456817" lon="11.756734033556649"><ele>541.0</ele><time>2026-04-18T11:40:03Z</time></trkpt><trkpt lat="48.112821588948236" lon="11.756793632681328"><ele>541.0</ele><time>2026-04-18T11:40:04Z</time></trkpt><trkpt lat="48.113002756935956" lon="11.756848146687936"><ele>541.0</ele><time>2026-04-18T11:40:05Z</time></trkpt><trkpt lat="48.11317825174019" lon="11.756894520947021"><ele>541.0</ele><time>2026-04-18T11:40:06Z</time></trkpt><trkpt lat="48.11335577214819" lon="11.756947112989407"><ele>540.6666666666667</ele><time>2026-04-18T11:40:07Z</time></trkpt><trkpt lat="48.113542470795444" lon="11.757007804509769"><ele>540.3333333333334</ele><time>2026-04-18T11:40:08Z</time></trkpt><trkpt lat="48.11373466108229" lon="11.757067522880241"><ele>540.0</ele><time>2026-04-18T11:40:09Z</time></trkpt><trkpt lat="48.11391905149109" lon="11.757124033141832"><ele>540.0</ele><time>2026-04-18T11:40:10Z</time></trkpt><trkpt lat="48.11410276726039" lon="11.757174639428356"><ele>540.0</ele><time>2026-04-18T11:40:11Z</time></trkpt><trkpt lat="48.11429224822061" lon="11.757228356027012"><ele>540.0</ele><time>2026-04-18T11:40:12Z</time></trkpt><trkpt lat="48.11448483131421" lon="11.7572878256723"><ele>540.0</ele><time>2026-04-18T11:40:13Z</time></trkpt><trkpt lat="48.11466984863109" lon="11.757334408427779"><ele>540.0</ele><time>2026-04-18T11:40:14Z</time></trkpt><trkpt lat="48.11486262622484" lon="11.757375042353924"><ele>540.0</ele><time>2026-04-18T11:40:15Z</time></trkpt><trkpt lat="48.11506344306074" lon="11.757431152468774"><ele>539.6666666666666</ele><time>2026-04-18T11:40:16Z</time></trkpt><trkpt lat="48.11525362235802" lon="11.757477743625927"><ele>539.3333333333333</ele><time>2026-04-18T11:40:17Z</time></trkpt><trkpt lat="48.11544036855309" lon="11.757523778822403"><ele>539.0</ele><time>2026-04-18T11:40:18Z</time></trkpt><trkpt lat="48.11562685173309" lon="11.75757504091004"><ele>538.6666666666666</ele><time>2026-04-18T11:40:19Z</time></trkpt><trkpt lat="48.1158215176301" lon="11.75761796346739"><ele>538.3333333333334</ele><time>2026-04-18T11:40:20Z</time></trkpt><trkpt lat="48.11602967489618" lon="11.757669532723948"><ele>538.0</ele><time>2026-04-18T11:40:21Z</time></trkpt><trkpt lat="48.116224827244885" lon="11.757727549792916"><ele>537.6666666666667</ele><time>2026-04-18T11:40:22Z</time></trkpt><trkpt lat="48.11643042136558" lon="11.757786068940247"><ele>537.3333333333334</ele><time>2026-04-18T11:40:23Z</time></trkpt><trkpt lat="48.11663504535291" lon="11.757828386118323"><ele>537.0</ele><time>2026-04-18T11:40:24Z</time></trkpt><trkpt lat="48.11684625102265" lon="11.757877818521923"><ele>537.6666666666666</ele><time>2026-04-18T11:40:25Z</time></trkpt><trkpt lat="48.11706005079823" lon="11.757922023151007"><ele>538.3333333333333</ele><time>2026-04-18T11:40:26Z</time></trkpt><trkpt lat="48.11727614591401" lon="11.757966945304606"><ele>539.0</ele><time>2026-04-18T11:40:27Z</time></trkpt><trkpt lat="48.117489717130034" lon="11.758010231916664"><ele>539.0</ele><time>2026-04-18T11:40:28Z</time></trkpt><trkpt lat="48.117710405189804" lon="11.75805644727007"><ele>539.0</ele><time>2026-04-18T11:40:29Z</time></trkpt><trkpt lat="48.117961431437934" lon="11.758116233080994"><ele>539.0</ele><time>2026-04-18T11:40:30Z</time></trkpt><trkpt lat="48.11823076989894" lon="11.758177881816716"><ele>539.0</ele><time>2026-04-18T11:40:31Z</time></trkpt><trkpt lat="48.11848589909721" lon="11.758229991768172"><ele>538.5</ele><time>2026-04-18T11:40:32Z</time></trkpt><trkpt lat="48.1187261224598" lon="11.75827832776458"><ele>538.0</ele><time>2026-04-18T11:40:33Z</time></trkpt><trkpt lat="48.118958590785944" lon="11.758322591286468"><ele>537.0</ele><time>2026-04-18T11:40:34Z</time></trkpt><trkpt lat="48.11918667297184" lon="11.758366754461258"><ele>536.0</ele><time>2026-04-18T11:40:35Z</time></trkpt><trkpt lat="48.11942479566813" lon="11.75841245210873"><ele>536.0</ele><time>2026-04-18T11:40:36Z</time></trkpt><trkpt lat="48.11965949066306" lon="11.758455599404986"><ele>536.0</ele><time>2026-04-18T11:40:37Z</time></trkpt><trkpt lat="48.11988539834995" lon="11.758493801814796"><ele>537.0</ele><time>2026-04-18T11:40:38Z</time></trkpt><trkpt lat="48.12011399850097" lon="11.758532766388889"><ele>538.0</ele><time>2026-04-18T11:40:39Z</time></trkpt><trkpt lat="48.12036364014211" lon="11.758577988438889"><ele>538.0</ele><time>2026-04-18T11:40:40Z</time></trkpt><trkpt lat="48.120611217282345" lon="11.758621556773292"><ele>538.0</ele><time>2026-04-18T11:40:41Z</time></trkpt><trkpt lat="48.120838942292885" lon="11.758662841393672"><ele>538.3333333333334</ele><time>2026-04-18T11:40:42Z</time></trkpt><trkpt lat="48.12105897779195" lon="11.758698827403046"><ele>538.6666666666666</ele><time>2026-04-18T11:40:43Z</time></trkpt><trkpt lat="48.12128417574309" lon="11.758732022611284"><ele>539.0</ele><time>2026-04-18T11:40:44Z</time></trkpt><trkpt lat="48.12153672416744" lon="11.758766601194287"><ele>539.0</ele><time>2026-04-18T11:40:45Z</time></trkpt><trkpt lat="48.12179614462736" lon="11.758805346876343"><ele>539.0</ele><time>2026-04-18T11:40:46Z</time></trkpt><trkpt lat="48.12204389062291" lon="11.758843735561221"><ele>539.0</ele><time>2026-04-18T11:40:47Z</time></trkpt><trkpt lat="48.12228381541995" lon="11.758879664204809"><ele>539.0</ele><time>2026-04-18T11:40:48Z</time></trkpt><trkpt lat="48.12252061740323" lon="11.758912369746545"><ele>538.0</ele><time>2026-04-18T11:40:49Z</time></trkpt><trkpt lat="48.122765165450396" lon="11.758946184051057"><ele>537.0</ele><time>2026-04-18T11:40:50Z</time></trkpt><trkpt lat="48.12300444411629" lon="11.758979186208135"><ele>536.5</ele><time>2026-04-18T11:40:51Z</time></trkpt><trkpt lat="48.123243521888796" lon="11.759009181411269"><ele>536.0</ele><time>2026-04-18T11:40:52Z</time></trkpt><trkpt lat="48.12348887668333" lon="11.759037920604896"><ele>536.0</ele><time>2026-04-18T11:40:53Z</time></trkpt><trkpt lat="48.123748781839915" lon="11.759068646161378"><ele>536.0</ele><time>2026-04-18T11:40:54Z</time></trkpt><trkpt lat="48.12399075617615" lon="11.759097219724012"><ele>535.5</ele><time>2026-04-18T11:40:55Z</time></trkpt><trkpt lat="48.1242202498458" lon="11.7591205942616"><ele>535.0</ele><time>2026-04-18T11:40:56Z</time></trkpt><trkpt lat="48.12444632261245" lon="11.759145936805771"><ele>535.0</ele><time>2026-04-18T11:40:57Z</time></trkpt><trkpt lat="48.12467676712081" lon="11.759170824896234"><ele>535.0</ele><time>2026-04-18T11:40:58Z</time></trkpt><trkpt lat="48.12491006464635" lon="11.759191843133623"><ele>535.5</ele><time>2026-04-18T11:40:59Z</time></trkpt><trkpt lat="48.12513702573221" lon="11.759210971848189"><ele>536.0</ele><time>2026-04-18T11:41:00Z</time></trkpt><trkpt lat="48.12536265990265" lon="11.75923015055779"><ele>536.0</ele><time>2026-04-18T11:41:01Z</time></trkpt><trkpt lat="48.1255969770442" lon="11.759250645060071"><ele>536.0</ele><time>2026-04-18T11:41:02Z</time></trkpt><trkpt lat="48.125832895254305" lon="11.759273171939979"><ele>535.5</ele><time>2026-04-18T11:41:03Z</time></trkpt><trkpt lat="48.12606682687862" lon="11.759292414398304"><ele>535.0</ele><time>2026-04-18T11:41:04Z</time></trkpt><trkpt lat="48.12629931236435" lon="11.759309498491394"><ele>535.0</ele><time>2026-04-18T11:41:05Z</time></trkpt><trkpt lat="48.12652420102423" lon="11.759323925397865"><ele>535.0</ele><time>2026-04-18T11:41:06Z</time></trkpt><trkpt lat="48.12675370767939" lon="11.759338260360726"><ele>534.0</ele><time>2026-04-18T11:41:07Z</time></trkpt><trkpt lat="48.12698398254382" lon="11.759351149252034"><ele>533.0</ele><time>2026-04-18T11:41:08Z</time></trkpt><trkpt lat="48.12721522673365" lon="11.759365894994616"><ele>532.5</ele><time>2026-04-18T11:41:09Z</time></trkpt><trkpt lat="48.127446324997784" lon="11.759377702458027"><ele>532.0</ele><time>2026-04-18T11:41:10Z</time></trkpt><trkpt lat="48.12766652589325" lon="11.759388356559237"><ele>532.0</ele><time>2026-04-18T11:41:11Z</time></trkpt><trkpt lat="48.12788302514087" lon="11.759395906516428"><ele>532.0</ele><time>2026-04-18T11:41:12Z</time></trkpt><trkpt lat="48.12811287992587" lon="11.759405417380812"><ele>532.0</ele><time>2026-04-18T11:41:13Z</time></trkpt><trkpt lat="48.128353297801695" lon="11.759414448766604"><ele>532.0</ele><time>2026-04-18T11:41:14Z</time></trkpt><trkpt lat="48.12859139795249" lon="11.759422643542388"><ele>532.0</ele><time>2026-04-18T11:41:15Z</time></trkpt><trkpt lat="48.12882452982392" lon="11.759430565321242"><ele>532.0</ele><time>2026-04-18T11:41:16Z</time></trkpt><trkpt lat="48.12906701972532" lon="11.759438107864105"><ele>532.0</ele><time>2026-04-18T11:41:17Z</time></trkpt><trkpt lat="48.12932173302094" lon="11.759441945185706"><ele>532.0</ele><time>2026-04-18T11:41:18Z</time></trkpt><trkpt lat="48.12957752102978" lon="11.759443539147778"><ele>532.0</ele><time>2026-04-18T11:41:19Z</time></trkpt><trkpt lat="48.12981924191166" lon="11.759451478110485"><ele>531.5</ele><time>2026-04-18T11:41:20Z</time></trkpt><trkpt lat="48.13005087790238" lon="11.759458789155973"><ele>531.0</ele><time>2026-04-18T11:41:21Z</time></trkpt><trkpt lat="48.13027961519494" lon="11.759462126254412"><ele>531.0</ele><time>2026-04-18T11:41:22Z</time></trkpt><trkpt lat="48.13051343647911" lon="11.759464502672268"><ele>531.0</ele><time>2026-04-18T11:41:23Z</time></trkpt><trkpt lat="48.130741703642606" lon="11.759465077808766"><ele>530.5</ele><time>2026-04-18T11:41:24Z</time></trkpt><trkpt lat="48.130965185298656" lon="11.759463947635433"><ele>530.0</ele><time>2026-04-18T11:41:25Z</time></trkpt><trkpt lat="48.13119967254428" lon="11.759462460521615"><ele>530.0</ele><time>2026-04-18T11:41:26Z</time></trkpt><trkpt lat="48.13143520138047" lon="11.75946209926292"><ele>530.0</ele><time>2026-04-18T11:41:27Z</time></trkpt><trkpt lat="48.13165628514112" lon="11.759456062068372"><ele>530.5</ele><time>2026-04-18T11:41:28Z</time></trkpt><trkpt lat="48.1318769503431" lon="11.759454383014216"><ele>531.0</ele><time>2026-04-18T11:41:29Z</time></trkpt><trkpt lat="48.13210667868639" lon="11.759449311497512"><ele>531.0</ele><time>2026-04-18T11:41:30Z</time></trkpt><trkpt lat="48.13233124006855" lon="11.759442271393697"><ele>531.0</ele><time>2026-04-18T11:41:31Z</time></trkpt><trkpt lat="48.13255076561162" lon="11.759431165949408"><ele>531.0</ele><time>2026-04-18T11:41:32Z</time></trkpt><trkpt lat="48.13276979492739" lon="11.759416886168337"><ele>530.5</ele><time>2026-04-18T11:41:33Z</time></trkpt><trkpt lat="48.13300009125659" lon="11.759402988787103"><ele>530.0</ele><time>2026-04-18T11:41:34Z</time></trkpt><trkpt lat="48.133231774451396" lon="11.759386478755244"><ele>529.5</ele><time>2026-04-18T11:41:35Z</time></trkpt><trkpt lat="48.133479906382945" lon="11.759356467536191"><ele>529.0</ele><time>2026-04-18T11:41:36Z</time></trkpt><trkpt lat="48.13373318645309" lon="11.75932894540337"><ele>529.0</ele><time>2026-04-18T11:41:37Z</time></trkpt><trkpt lat="48.13398371642789" lon="11.759315935158586"><ele>529.0</ele><time>2026-04-18T11:41:38Z</time></trkpt><trkpt lat="48.13422330422799" lon="11.75930591897924"><ele>530.0</ele><time>2026-04-18T11:41:39Z</time></trkpt><trkpt lat="48.13445640608548" lon="11.759293753303373"><ele>531.0</ele><time>2026-04-18T11:41:40Z</time></trkpt><trkpt lat="48.1346917411593" lon="11.759281903069523"><ele>530.5</ele><time>2026-04-18T11:41:41Z</time></trkpt><trkpt lat="48.134935745221256" lon="11.759269981915391"><ele>530.0</ele><time>2026-04-18T11:41:42Z</time></trkpt><trkpt lat="48.135190984396615" lon="11.759248559056317"><ele>530.0</ele><time>2026-04-18T11:41:43Z</time></trkpt><trkpt lat="48.13545896896761" lon="11.759222412578435"><ele>530.0</ele><time>2026-04-18T11:41:44Z</time></trkpt><trkpt lat="48.13573659593186" lon="11.759200775940977"><ele>530.5</ele><time>2026-04-18T11:41:45Z</time></trkpt><trkpt lat="48.13601425879251" lon="11.759180542946153"><ele>531.0</ele><time>2026-04-18T11:41:46Z</time></trkpt><trkpt lat="48.136288879188704" lon="11.759156159430125"><ele>530.5</ele><time>2026-04-18T11:41:47Z</time></trkpt><trkpt lat="48.13657749911387" lon="11.759127233724211"><ele>530.0</ele><time>2026-04-18T11:41:48Z</time></trkpt><trkpt lat="48.1368787540044" lon="11.759096244001984"><ele>530.0</ele><time>2026-04-18T11:41:49Z</time></trkpt><trkpt lat="48.13716874478119" lon="11.759068382738272"><ele>530.0</ele><time>2026-04-18T11:41:50Z</time></trkpt><trkpt lat="48.13744888416505" lon="11.759037018617546"><ele>529.0</ele><time>2026-04-18T11:41:51Z</time></trkpt><trkpt lat="48.137719921938334" lon="11.758993395194087"><ele>528.0</ele><time>2026-04-18T11:41:52Z</time></trkpt><trkpt lat="48.137992953773605" lon="11.758938023556473"><ele>527.5</ele><time>2026-04-18T11:41:53Z</time></trkpt><trkpt lat="48.13827198415109" lon="11.758885509837105"><ele>527.0</ele><time>2026-04-18T11:41:54Z</time></trkpt><trkpt lat="48.138549539938786" lon="11.758842123044072"><ele>527.0</ele><time>2026-04-18T11:41:55Z</time></trkpt><trkpt lat="48.13881719928482" lon="11.758801870671858"><ele>527.0</ele><time>2026-04-18T11:41:56Z</time></trkpt><trkpt lat="48.13907099999073" lon="11.758764290401926"><ele>527.0</ele><time>2026-04-18T11:41:57Z</time></trkpt><trkpt lat="48.1393278713272" lon="11.758726139871257"><ele>527.0</ele><time>2026-04-18T11:41:58Z</time></trkpt><trkpt lat="48.13960253389982" lon="11.758683945983165"><ele>526.0</ele><time>2026-04-18T11:41:59Z</time></trkpt><trkpt lat="48.13989259631065" lon="11.7586324543627"><ele>525.0</ele><time>2026-04-18T11:42:00Z</time></trkpt><trkpt lat="48.140182084587465" lon="11.758578025784388"><ele>524.5</ele><time>2026-04-18T11:42:01Z</time></trkpt><trkpt lat="48.14046361420094" lon="11.758525761388762"><ele>524.0</ele><time>2026-04-18T11:42:02Z</time></trkpt><trkpt lat="48.140741384244535" lon="11.758471620719801"><ele>524.0</ele><time>2026-04-18T11:42:03Z</time></trkpt><trkpt lat="48.14102723215956" lon="11.75841048040596"><ele>524.0</ele><time>2026-04-18T11:42:04Z</time></trkpt><trkpt lat="48.14132048982544" lon="11.758343844158668"><ele>526.0</ele><time>2026-04-18T11:42:05Z</time></trkpt><trkpt lat="48.14160241465694" lon="11.758276825788398"><ele>528.0</ele><time>2026-04-18T11:42:06Z</time></trkpt><trkpt lat="48.14187768570215" lon="11.758207605256011"><ele>528.0</ele><time>2026-04-18T11:42:07Z</time></trkpt><trkpt lat="48.14214708828473" lon="11.758138097714319"><ele>528.0</ele><time>2026-04-18T11:42:08Z</time></trkpt><trkpt lat="48.14241423300192" lon="11.758070060588675"><ele>527.5</ele><time>2026-04-18T11:42:09Z</time></trkpt><trkpt lat="48.14268254156966" lon="11.757999675710677"><ele>527.0</ele><time>2026-04-18T11:42:10Z</time></trkpt><trkpt lat="48.14294917582134" lon="11.757919028410381"><ele>525.5</ele><time>2026-04-18T11:42:11Z</time></trkpt><trkpt lat="48.143234908591715" lon="11.757845487330393"><ele>524.0</ele><time>2026-04-18T11:42:12Z</time></trkpt><trkpt lat="48.143529571989575" lon="11.757757728621115"><ele>524.0</ele><time>2026-04-18T11:42:13Z</time></trkpt><trkpt lat="48.14384353721371" lon="11.75765815162926"><ele>524.0</ele><time>2026-04-18T11:42:14Z</time></trkpt><trkpt lat="48.14414975003787" lon="11.75756612902308"><ele>523.0</ele><time>2026-04-18T11:42:15Z</time></trkpt><trkpt lat="48.14443835359398" lon="11.757494395609477"><ele>522.0</ele><time>2026-04-18T11:42:16Z</time></trkpt><trkpt lat="48.14471162053035" lon="11.757432103947867"><ele>523.5</ele><time>2026-04-18T11:42:17Z</time></trkpt><trkpt lat="48.14497028108399" lon="11.75736309123808"><ele>525.0</ele><time>2026-04-18T11:42:18Z</time></trkpt><trkpt lat="48.145214227968026" lon="11.75727908204601"><ele>525.0</ele><time>2026-04-18T11:42:19Z</time></trkpt><trkpt lat="48.14544698005905" lon="11.757187720274827"><ele>525.0</ele><time>2026-04-18T11:42:20Z</time></trkpt><trkpt lat="48.14567485902748" lon="11.757100660110053"><ele>524.0</ele><time>2026-04-18T11:42:21Z</time></trkpt><trkpt lat="48.14589582080817" lon="11.757020038605908"><ele>523.0</ele><time>2026-04-18T11:42:22Z</time></trkpt><trkpt lat="48.14611268047293" lon="11.756933802926447"><ele>522.5</ele><time>2026-04-18T11:42:23Z</time></trkpt><trkpt lat="48.14632891722454" lon="11.756842786101263"><ele>522.0</ele><time>2026-04-18T11:42:24Z</time></trkpt><trkpt lat="48.146546105618015" lon="11.756749307244712"><ele>523.0</ele><time>2026-04-18T11:42:25Z</time></trkpt><trkpt lat="48.14677145941756" lon="11.756648815320304"><ele>524.0</ele><time>2026-04-18T11:42:26Z</time></trkpt><trkpt lat="48.14700181178482" lon="11.75654665502163"><ele>524.0</ele><time>2026-04-18T11:42:27Z</time></trkpt><trkpt lat="48.147228401979156" lon="11.756447161778176"><ele>524.0</ele><time>2026-04-18T11:42:28Z</time></trkpt><trkpt lat="48.14745627259091" lon="11.756344210319508"><ele>523.5</ele><time>2026-04-18T11:42:29Z</time></trkpt><trkpt lat="48.14768677673752" lon="11.75623247884795"><ele>523.0</ele><time>2026-04-18T11:42:30Z</time></trkpt><trkpt lat="48.14793153593367" lon="11.756113297170485"><ele>523.0</ele><time>2026-04-18T11:42:31Z</time></trkpt><trkpt lat="48.14818798271269" lon="11.755985331818643"><ele>523.0</ele><time>2026-04-18T11:42:32Z</time></trkpt><trkpt lat="48.14845618605645" lon="11.75584865150856"><ele>523.0</ele><time>2026-04-18T11:42:33Z</time></trkpt><trkpt lat="48.148739404563976" lon="11.755701349344426"><ele>523.0</ele><time>2026-04-18T11:42:34Z</time></trkpt><trkpt lat="48.149006460820104" lon="11.755555922849934"><ele>523.0</ele><time>2026-04-18T11:42:35Z</time></trkpt><trkpt lat="48.149259616554126" lon="11.755406923807385"><ele>523.0</ele><time>2026-04-18T11:42:36Z</time></trkpt><trkpt lat="48.14950331637706" lon="11.755264246445604"><ele>523.0</ele><time>2026-04-18T11:42:37Z</time></trkpt><trkpt lat="48.14974861084592" lon="11.755120308560432"><ele>523.0</ele><time>2026-04-18T11:42:38Z</time></trkpt><trkpt lat="48.149991982574655" lon="11.75496745374738"><ele>522.5</ele><time>2026-04-18T11:42:39Z</time></trkpt><trkpt lat="48.15023375037149" lon="11.754812834391066"><ele>522.0</ele><time>2026-04-18T11:42:40Z</time></trkpt><trkpt lat="48.15047423823277" lon="11.754664505751402"><ele>521.0</ele><time>2026-04-18T11:42:41Z</time></trkpt><trkpt lat="48.15071094114919" lon="11.7545201251719"><ele>520.0</ele><time>2026-04-18T11:42:42Z</time></trkpt><trkpt lat="48.15094621638527" lon="11.754373494541728"><ele>520.0</ele><time>2026-04-18T11:42:43Z</time></trkpt><trkpt lat="48.15118536703603" lon="11.75422420614081"><ele>520.0</ele><time>2026-04-18T11:42:44Z</time></trkpt><trkpt lat="48.15142453125504" lon="11.754073452530388"><ele>521.0</ele><time>2026-04-18T11:42:45Z</time></trkpt><trkpt lat="48.15166940824217" lon="11.753915620743115"><ele>522.0</ele><time>2026-04-18T11:42:46Z</time></trkpt><trkpt lat="48.15192169019043" lon="11.75375210270308"><ele>522.0</ele><time>2026-04-18T11:42:47Z</time></trkpt><trkpt lat="48.152175747153855" lon="11.7535807410356"><ele>522.0</ele><time>2026-04-18T11:42:48Z</time></trkpt><trkpt lat="48.15242958266651" lon="11.753408426098511"><ele>521.5</ele><time>2026-04-18T11:42:49Z</time></trkpt><trkpt lat="48.152690891272734" lon="11.7532297771967"><ele>521.0</ele><time>2026-04-18T11:42:50Z</time></trkpt><trkpt lat="48.15295855881251" lon="11.753044546510289"><ele>520.5</ele><time>2026-04-18T11:42:51Z</time></trkpt><trkpt lat="48.153222710169864" lon="11.752859405224935"><ele>520.0</ele><time>2026-04-18T11:42:52Z</time></trkpt><trkpt lat="48.15348103158556" lon="11.752676425041416"><ele>520.0</ele><time>2026-04-18T11:42:53Z</time></trkpt><trkpt lat="48.15373195885" lon="11.752497156019727"><ele>520.0</ele><time>2026-04-18T11:42:54Z</time></trkpt><trkpt lat="48.15398222306286" lon="11.752327479574364"><ele>519.5</ele><time>2026-04-18T11:42:55Z</time></trkpt><trkpt lat="48.15423208651331" lon="11.752168869080508"><ele>519.0</ele><time>2026-04-18T11:42:56Z</time></trkpt><trkpt lat="48.154474289873114" lon="11.752008531521561"><ele>519.0</ele><time>2026-04-18T11:42:57Z</time></trkpt><trkpt lat="48.15470592225413" lon="11.751834974536399"><ele>519.0</ele><time>2026-04-18T11:42:58Z</time></trkpt><trkpt lat="48.154926042950166" lon="11.75166763775424"><ele>519.0</ele><time>2026-04-18T11:42:59Z</time></trkpt><trkpt lat="48.15513970418716" lon="11.75150916501731"><ele>519.0</ele><time>2026-04-18T11:43:00Z</time></trkpt><trkpt lat="48.155347667848865" lon="11.751350654818287"><ele>519.0</ele><time>2026-04-18T11:43:01Z</time></trkpt><trkpt lat="48.15555695711179" lon="11.751186641113934"><ele>519.0</ele><time>2026-04-18T11:43:02Z</time></trkpt><trkpt lat="48.15577411705542" lon="11.751012577414825"><ele>518.5</ele><time>2026-04-18T11:43:03Z</time></trkpt><trkpt lat="48.15600002190375" lon="11.75083113866765"><ele>518.0</ele><time>2026-04-18T11:43:04Z</time></trkpt><trkpt lat="48.15622780907765" lon="11.750650343793058"><ele>518.0</ele><time>2026-04-18T11:43:05Z</time></trkpt><trkpt lat="48.15645446606817" lon="11.75046996800137"><ele>518.0</ele><time>2026-04-18T11:43:06Z</time></trkpt><trkpt lat="48.156675493884215" lon="11.750296649540031"><ele>518.0</ele><time>2026-04-18T11:43:07Z</time></trkpt><trkpt lat="48.156893247942165" lon="11.750124959709652"><ele>518.0</ele><time>2026-04-18T11:43:08Z</time></trkpt><trkpt lat="48.15710310442128" lon="11.749952275827551"><ele>518.0</ele><time>2026-04-18T11:43:09Z</time></trkpt><trkpt lat="48.15730909574897" lon="11.749782366835618"><ele>518.0</ele><time>2026-04-18T11:43:10Z</time></trkpt><trkpt lat="48.15751129536378" lon="11.749615143842702"><ele>518.5</ele><time>2026-04-18T11:43:11Z</time></trkpt><trkpt lat="48.15770964750669" lon="11.749449688755154"><ele>519.0</ele><time>2026-04-18T11:43:12Z</time></trkpt><trkpt lat="48.15790921923292" lon="11.749287024866542"><ele>517.5</ele><time>2026-04-18T11:43:13Z</time></trkpt><trkpt lat="48.15810859401642" lon="11.749122583012747"><ele>516.0</ele><time>2026-04-18T11:43:14Z</time></trkpt><trkpt lat="48.15830464790089" lon="11.748960299836002"><ele>516.0</ele><time>2026-04-18T11:43:15Z</time></trkpt><trkpt lat="48.158496953653675" lon="11.748801585968376"><ele>516.0</ele><time>2026-04-18T11:43:16Z</time></trkpt><trkpt lat="48.15868370729145" lon="11.748647445032788"><ele>516.0</ele><time>2026-04-18T11:43:17Z</time></trkpt><trkpt lat="48.15886430851323" lon="11.748496739964004"><ele>516.6666666666666</ele><time>2026-04-18T11:43:18Z</time></trkpt><trkpt lat="48.15904001795461" lon="11.748348769381773"><ele>517.3333333333333</ele><time>2026-04-18T11:43:19Z</time></trkpt><trkpt lat="48.159212636172555" lon="11.74820533450998"><ele>518.0</ele><time>2026-04-18T11:43:20Z</time></trkpt><trkpt lat="48.15938377186983" lon="11.748065706215122"><ele>518.0</ele><time>2026-04-18T11:43:21Z</time></trkpt><trkpt lat="48.15955722424718" lon="11.747929507486052"><ele>518.0</ele><time>2026-04-18T11:43:22Z</time></trkpt><trkpt lat="48.15974645882665" lon="11.747793084672347"><ele>518.0</ele><time>2026-04-18T11:43:23Z</time></trkpt><trkpt lat="48.15994929057936" lon="11.747660868466445"><ele>517.0</ele><time>2026-04-18T11:43:24Z</time></trkpt><trkpt lat="48.16013663626259" lon="11.747440425377901"><ele>516.0</ele><time>2026-04-18T11:43:25Z</time></trkpt><trkpt lat="48.16033625690888" lon="11.747270662197533"><ele>516.0</ele><time>2026-04-18T11:43:26Z</time></trkpt><trkpt lat="48.16052887996737" lon="11.747109028739121"><ele>516.0</ele><time>2026-04-18T11:43:27Z</time></trkpt><trkpt lat="48.16071357323835" lon="11.746960545834028"><ele>516.0</ele><time>2026-04-18T11:43:28Z</time></trkpt><trkpt lat="48.16089190713611" lon="11.746823204304706"><ele>517.0</ele><time>2026-04-18T11:43:29Z</time></trkpt><trkpt lat="48.16106433047024" lon="11.74668634395198"><ele>518.0</ele><time>2026-04-18T11:43:30Z</time></trkpt><trkpt lat="48.16121475104512" lon="11.746558386957718"><ele>519.0</ele><time>2026-04-18T11:43:31Z</time></trkpt><trkpt lat="48.16135710933205" lon="11.746433464098365"><ele>519.0</ele><time>2026-04-18T11:43:32Z</time></trkpt><trkpt lat="48.1614930456271" lon="11.746313679036756"><ele>519.0</ele><time>2026-04-18T11:43:33Z</time></trkpt><trkpt lat="48.16162680207049" lon="11.746193232277303"><ele>519.0</ele><time>2026-04-18T11:43:34Z</time></trkpt><trkpt lat="48.161759270195404" lon="11.74607576598335"><ele>518.25</ele><time>2026-04-18T11:43:35Z</time></trkpt><trkpt lat="48.16188991396556" lon="11.745959785081638"><ele>517.5</ele><time>2026-04-18T11:43:36Z</time></trkpt><trkpt lat="48.16201569632484" lon="11.745850214726579"><ele>516.75</ele><time>2026-04-18T11:43:37Z</time></trkpt><trkpt lat="48.16213547797403" lon="11.745741905716944"><ele>516.0</ele><time>2026-04-18T11:43:38Z</time></trkpt><trkpt lat="48.16225139540004" lon="11.745637369426078"><ele>516.25</ele><time>2026-04-18T11:43:39Z</time></trkpt><trkpt lat="48.16236859616554" lon="11.745533392412302"><ele>516.5</ele><time>2026-04-18T11:43:40Z</time></trkpt><trkpt lat="48.16249309211793" lon="11.745420348402185"><ele>516.75</ele><time>2026-04-18T11:43:41Z</time></trkpt><trkpt lat="48.162625203151734" lon="11.74530402140106"><ele>517.0</ele><time>2026-04-18T11:43:42Z</time></trkpt><trkpt lat="48.16276266645021" lon="11.745188356502641"><ele>517.0</ele><time>2026-04-18T11:43:43Z</time></trkpt><trkpt lat="48.16290006481355" lon="11.74507830768044"><ele>517.0</ele><time>2026-04-18T11:43:44Z</time></trkpt><trkpt lat="48.163035463004455" lon="11.744970755942491"><ele>517.0</ele><time>2026-04-18T11:43:45Z</time></trkpt><trkpt lat="48.16316555126767" lon="11.74486515756175"><ele>516.5</ele><time>2026-04-18T11:43:46Z</time></trkpt><trkpt lat="48.1632837299092" lon="11.74476615590243"><ele>516.0</ele><time>2026-04-18T11:43:47Z</time></trkpt><trkpt lat="48.16339166007984" lon="11.744673350405872"><ele>515.5</ele><time>2026-04-18T11:43:48Z</time></trkpt><trkpt lat="48.16349089994807" lon="11.74458115539702"><ele>515.0</ele><time>2026-04-18T11:43:49Z</time></trkpt><trkpt lat="48.163587178259064" lon="11.744487620187027"><ele>515.0</ele><time>2026-04-18T11:43:50Z</time></trkpt><trkpt lat="48.163685235901724" lon="11.74440161624842"><ele>515.0</ele><time>2026-04-18T11:43:51Z</time></trkpt><trkpt lat="48.163786292194075" lon="11.744311378397517"><ele>515.0</ele><time>2026-04-18T11:43:52Z</time></trkpt><trkpt lat="48.163888493149756" lon="11.744213677948215"><ele>515.0</ele><time>2026-04-18T11:43:53Z</time></trkpt><trkpt lat="48.16399555225981" lon="11.74411579470313"><ele>514.75</ele><time>2026-04-18T11:43:54Z</time></trkpt><trkpt lat="48.16410856434294" lon="11.744011874890523"><ele>514.5</ele><time>2026-04-18T11:43:55Z</time></trkpt><trkpt lat="48.16422835787158" lon="11.743897191772643"><ele>514.25</ele><time>2026-04-18T11:43:56Z</time></trkpt><trkpt lat="48.164353131393405" lon="11.74376938917952"><ele>514.0</ele><time>2026-04-18T11:43:57Z</time></trkpt><trkpt lat="48.16449452865" lon="11.743629783204787"><ele>514.0</ele><time>2026-04-18T11:43:58Z</time></trkpt><trkpt lat="48.164639946013075" lon="11.743493811128133"><ele>514.0</ele><time>2026-04-18T11:43:59Z</time></trkpt><trkpt lat="48.16478013061607" lon="11.743360608971038"><ele>514.0</ele><time>2026-04-18T11:44:00Z</time></trkpt><trkpt lat="48.164951860668616" lon="11.743203334722184"><ele>514.5</ele><time>2026-04-18T11:44:01Z</time></trkpt><trkpt lat="48.16515635516321" lon="11.743022461733535"><ele>515.0</ele><time>2026-04-18T11:44:02Z</time></trkpt><trkpt lat="48.16537543883932" lon="11.742809489758857"><ele>515.0</ele><time>2026-04-18T11:44:03Z</time></trkpt><trkpt lat="48.16561642749955" lon="11.742603555835025"><ele>515.0</ele><time>2026-04-18T11:44:04Z</time></trkpt><trkpt lat="48.16584574964677" lon="11.742434357350918"><ele>515.0</ele><time>2026-04-18T11:44:05Z</time></trkpt><trkpt lat="48.16601407278386" lon="11.742302690294254"><ele>515.0</ele><time>2026-04-18T11:44:06Z</time></trkpt><trkpt lat="48.1661564964276" lon="11.742182647446048"><ele>515.0</ele><time>2026-04-18T11:44:07Z</time></trkpt><trkpt lat="48.166313608182605" lon="11.742047083519308"><ele>515.0</ele><time>2026-04-18T11:44:08Z</time></trkpt><trkpt lat="48.16646712507425" lon="11.7419085595451"><ele>515.0</ele><time>2026-04-18T11:44:09Z</time></trkpt><trkpt lat="48.16661341701655" lon="11.74177089982909"><ele>515.0</ele><time>2026-04-18T11:44:10Z</time></trkpt><trkpt lat="48.166760386750596" lon="11.741636711020314"><ele>515.0</ele><time>2026-04-18T11:44:11Z</time></trkpt><trkpt lat="48.16691947376605" lon="11.741491588794723"><ele>515.0</ele><time>2026-04-18T11:44:12Z</time></trkpt><trkpt lat="48.1671014107937" lon="11.741323587437067"><ele>515.0</ele><time>2026-04-18T11:44:13Z</time></trkpt><trkpt lat="48.16727830135053" lon="11.741157752085547"><ele>515.3333333333333</ele><time>2026-04-18T11:44:14Z</time></trkpt><trkpt lat="48.167440946791956" lon="11.74099930117234"><ele>515.6666666666666</ele><time>2026-04-18T11:44:15Z</time></trkpt><trkpt lat="48.167592288317074" lon="11.740848610216798"><ele>516.0</ele><time>2026-04-18T11:44:16Z</time></trkpt><trkpt lat="48.16773613024569" lon="11.740710913735438"><ele>516.0</ele><time>2026-04-18T11:44:17Z</time></trkpt><trkpt lat="48.16787337902101" lon="11.740581076357087"><ele>516.0</ele><time>2026-04-18T11:44:18Z</time></trkpt><trkpt lat="48.168003958952895" lon="11.740457876660058"><ele>516.0</ele><time>2026-04-18T11:44:19Z</time></trkpt><trkpt lat="48.16813069921798" lon="11.740340460853226"><ele>515.0</ele><time>2026-04-18T11:44:20Z</time></trkpt><trkpt lat="48.16825459042405" lon="11.740220611603371"><ele>514.0</ele><time>2026-04-18T11:44:21Z</time></trkpt><trkpt lat="48.16838679807328" lon="11.740117119022967"><ele>513.0</ele><time>2026-04-18T11:44:22Z</time></trkpt><trkpt lat="48.16852978559678" lon="11.740028331110729"><ele>513.0</ele><time>2026-04-18T11:44:23Z</time></trkpt><trkpt lat="48.168662554661935" lon="11.739916429829112"><ele>513.0</ele><time>2026-04-18T11:44:24Z</time></trkpt><trkpt lat="48.16877947082596" lon="11.73979620147911"><ele>513.0</ele><time>2026-04-18T11:44:25Z</time></trkpt><trkpt lat="48.16889780811819" lon="11.73968492368961"><ele>513.0</ele><time>2026-04-18T11:44:26Z</time></trkpt><trkpt lat="48.16901135839957" lon="11.739573512131448"><ele>513.0</ele><time>2026-04-18T11:44:27Z</time></trkpt><trkpt lat="48.16912035912929" lon="11.73947009703653"><ele>513.0</ele><time>2026-04-18T11:44:28Z</time></trkpt><trkpt lat="48.16922385070545" lon="11.739374754871315"><ele>513.0</ele><time>2026-04-18T11:44:29Z</time></trkpt><trkpt lat="48.169304667417514" lon="11.739286620230033"><ele>513.0</ele><time>2026-04-18T11:44:30Z</time></trkpt><trkpt lat="48.16940307917029" lon="11.739191823798144"><ele>513.0</ele><time>2026-04-18T11:44:31Z</time></trkpt><trkpt lat="48.16950181020374" lon="11.739107530965555"><ele>513.0</ele><time>2026-04-18T11:44:32Z</time></trkpt><trkpt lat="48.16959251920364" lon="11.739023803016748"><ele>513.0</ele><time>2026-04-18T11:44:33Z</time></trkpt><trkpt lat="48.169683732048725" lon="11.738951791090408"><ele>513.0</ele><time>2026-04-18T11:44:34Z</time></trkpt><trkpt lat="48.1697893056982" lon="11.738910481001286"><ele>513.0</ele><time>2026-04-18T11:44:35Z</time></trkpt><trkpt lat="48.16990355472675" lon="11.7388904741411"><ele>512.75</ele><time>2026-04-18T11:44:36Z</time></trkpt><trkpt lat="48.17003614658221" lon="11.738909410571754"><ele>512.5</ele><time>2026-04-18T11:44:37Z</time></trkpt><trkpt lat="48.17018651066451" lon="11.738954017723087"><ele>512.25</ele><time>2026-04-18T11:44:38Z</time></trkpt><trkpt lat="48.17032278577624" lon="11.7390692689924"><ele>512.0</ele><time>2026-04-18T11:44:39Z</time></trkpt><trkpt lat="48.1704236093586" lon="11.739234431171598"><ele>512.75</ele><time>2026-04-18T11:44:40Z</time></trkpt><trkpt lat="48.170497684902166" lon="11.73941358772733"><ele>513.5</ele><time>2026-04-18T11:44:41Z</time></trkpt><trkpt lat="48.170533280477144" lon="11.739610012503894"><ele>514.25</ele><time>2026-04-18T11:44:42Z</time></trkpt><trkpt lat="48.17053729294076" lon="11.739797676419867"><ele>515.0</ele><time>2026-04-18T11:44:43Z</time></trkpt><trkpt lat="48.17052037472729" lon="11.73998224483133"><ele>515.0</ele><time>2026-04-18T11:44:44Z</time></trkpt><trkpt lat="48.17048405856337" lon="11.740157493756339"><ele>515.0</ele><time>2026-04-18T11:44:45Z</time></trkpt><trkpt lat="48.170409699439745" lon="11.74030256292519"><ele>515.0</ele><time>2026-04-18T11:44:46Z</time></trkpt><trkpt lat="48.17033152411373" lon="11.740428579721494"><ele>515.0</ele><time>2026-04-18T11:44:47Z</time></trkpt><trkpt lat="48.170237017472424" lon="11.740525503856963"><ele>515.0</ele><time>2026-04-18T11:44:48Z</time></trkpt><trkpt lat="48.1701338234994" lon="11.740610177787234"><ele>515.0</ele><time>2026-04-18T11:44:49Z</time></trkpt><trkpt lat="48.17001944864599" lon="11.74066819155288"><ele>515.0</ele><time>2026-04-18T11:44:50Z</time></trkpt><trkpt lat="48.16990711152555" lon="11.740671817124973"><ele>515.0</ele><time>2026-04-18T11:44:51Z</time></trkpt><trkpt lat="48.169798275647686" lon="11.740635715872898"><ele>515.0</ele><time>2026-04-18T11:44:52Z</time></trkpt><trkpt lat="48.16968719942898" lon="11.740580799433191"><ele>515.0</ele><time>2026-04-18T11:44:53Z</time></trkpt><trkpt lat="48.16957912946918" lon="11.74049977849851"><ele>515.0</ele><time>2026-04-18T11:44:54Z</time></trkpt><trkpt lat="48.169500800107095" lon="11.74036137375388"><ele>515.0</ele><time>2026-04-18T11:44:55Z</time></trkpt><trkpt lat="48.169426298778646" lon="11.74022150721948"><ele>515.0</ele><time>2026-04-18T11:44:56Z</time></trkpt><trkpt lat="48.169373843569254" lon="11.740061270479751"><ele>515.0</ele><time>2026-04-18T11:44:57Z</time></trkpt><trkpt lat="48.169323829713285" lon="11.739891420374065"><ele>515.0</ele><time>2026-04-18T11:44:58Z</time></trkpt><trkpt lat="48.16927816760978" lon="11.739715134393789"><ele>515.0</ele><time>2026-04-18T11:44:59Z</time></trkpt><trkpt lat="48.169228272557724" lon="11.739526616007325"><ele>514.3333333333333</ele><time>2026-04-18T11:45:00Z</time></trkpt><trkpt lat="48.169152159055706" lon="11.73933777869349"><ele>513.6666666666666</ele><time>2026-04-18T11:45:01Z</time></trkpt><trkpt lat="48.16908657101793" lon="11.739115680662481"><ele>513.0</ele><time>2026-04-18T11:45:02Z</time></trkpt><trkpt lat="48.16901602438569" lon="11.738891691906915"><ele>512.75</ele><time>2026-04-18T11:45:03Z</time></trkpt><trkpt lat="48.16897175443219" lon="11.738668494630453"><ele>512.5</ele><time>2026-04-18T11:45:04Z</time></trkpt><trkpt lat="48.1689193621392" lon="11.738476747539432"><ele>512.25</ele><time>2026-04-18T11:45:05Z</time></trkpt><trkpt lat="48.16886808984335" lon="11.738293836712124"><ele>512.0</ele><time>2026-04-18T11:45:06Z</time></trkpt><trkpt lat="48.16881379852242" lon="11.738103819943277"><ele>512.6666666666666</ele><time>2026-04-18T11:45:07Z</time></trkpt><trkpt lat="48.16875438742008" lon="11.737895980263813"><ele>513.3333333333334</ele><time>2026-04-18T11:45:08Z</time></trkpt><trkpt lat="48.168688007379515" lon="11.73766421777901"><ele>514.0</ele><time>2026-04-18T11:45:09Z</time></trkpt><trkpt lat="48.168620234171435" lon="11.737428347760668"><ele>514.6666666666667</ele><time>2026-04-18T11:45:10Z</time></trkpt><trkpt lat="48.16855509836979" lon="11.73720427237226"><ele>515.3333333333334</ele><time>2026-04-18T11:45:11Z</time></trkpt><trkpt lat="48.16848977455536" lon="11.73698119376776"><ele>516.0</ele><time>2026-04-18T11:45:12Z</time></trkpt><trkpt lat="48.168421094759815" lon="11.736753216363114"><ele>516.0</ele><time>2026-04-18T11:45:13Z</time></trkpt><trkpt lat="48.16835221857122" lon="11.736528201556608"><ele>516.0</ele><time>2026-04-18T11:45:14.001Z</time></trkpt><trkpt lat="48.16827707645366" lon="11.736297519142907"><ele>516.0</ele><time>2026-04-18T11:45:15.001Z</time></trkpt><trkpt lat="48.16818644973499" lon="11.73604665634455"><ele>515.6666666666666</ele><time>2026-04-18T11:45:16.001Z</time></trkpt><trkpt lat="48.16808809247397" lon="11.735810923188536"><ele>515.3333333333333</ele><time>2026-04-18T11:45:17.001Z</time></trkpt><trkpt lat="48.167970501233924" lon="11.73560183408113"><ele>515.0</ele><time>2026-04-18T11:45:18.001Z</time></trkpt><trkpt lat="48.16786329777704" lon="11.735399758530095"><ele>515.3333333333333</ele><time>2026-04-18T11:45:19.001Z</time></trkpt><trkpt lat="48.16775761925941" lon="11.735214292185113"><ele>515.6666666666666</ele><time>2026-04-18T11:45:20.001Z</time></trkpt><trkpt lat="48.167650216986544" lon="11.735035682615866"><ele>516.0</ele><time>2026-04-18T11:45:21.001Z</time></trkpt><trkpt lat="48.16753074801744" lon="11.73485281477666"><ele>516.0</ele><time>2026-04-18T11:45:22.001Z</time></trkpt><trkpt lat="48.16740898057324" lon="11.734642943518688"><ele>516.0</ele><time>2026-04-18T11:45:23.001Z</time></trkpt><trkpt lat="48.16726950567767" lon="11.734460275720705"><ele>516.0</ele><time>2026-04-18T11:45:24.001Z</time></trkpt><trkpt lat="48.16712483355709" lon="11.73430570604919"><ele>516.3333333333334</ele><time>2026-04-18T11:45:25.001Z</time></trkpt><trkpt lat="48.166972254136546" lon="11.734181442499837"><ele>516.6666666666667</ele><time>2026-04-18T11:45:26.001Z</time></trkpt><trkpt lat="48.16682437758751" lon="11.734058982713591"><ele>517.0</ele><time>2026-04-18T11:45:27.001Z</time></trkpt><trkpt lat="48.16667582198521" lon="11.733952528420708"><ele>517.0</ele><time>2026-04-18T11:45:28.001Z</time></trkpt><trkpt lat="48.16653327959072" lon="11.733833819380054"><ele>517.0</ele><time>2026-04-18T11:45:29.001Z</time></trkpt><trkpt lat="48.166371708509416" lon="11.733765568554668"><ele>517.0</ele><time>2026-04-18T11:45:30.001Z</time></trkpt><trkpt lat="48.166210917519905" lon="11.733672339517577"><ele>516.3333333333334</ele><time>2026-04-18T11:45:31.001Z</time></trkpt><trkpt lat="48.16604082747206" lon="11.733591244431661"><ele>515.6666666666666</ele><time>2026-04-18T11:45:32.001Z</time></trkpt><trkpt lat="48.16588191419871" lon="11.733532457088181"><ele>515.0</ele><time>2026-04-18T11:45:33.001Z</time></trkpt><trkpt lat="48.165744258934716" lon="11.733486532104175"><ele>515.0</ele><time>2026-04-18T11:45:34.001Z</time></trkpt><trkpt lat="48.16562064573254" lon="11.733448311740682"><ele>515.0</ele><time>2026-04-18T11:45:35.001Z</time></trkpt><trkpt lat="48.16550367722841" lon="11.733414155709497"><ele>515.0</ele><time>2026-04-18T11:45:36.001Z</time></trkpt><trkpt lat="48.16539539704943" lon="11.733379325404865"><ele>515.0</ele><time>2026-04-18T11:45:37.001Z</time></trkpt><trkpt lat="48.165298359525934" lon="11.733353978152156"><ele>515.0</ele><time>2026-04-18T11:45:38.001Z</time></trkpt><trkpt lat="48.165222111620906" lon="11.733338764039138"><ele>515.0</ele><time>2026-04-18T11:45:39.001Z</time></trkpt><trkpt lat="48.165145474175155" lon="11.733331292373231"><ele>515.0</ele><time>2026-04-18T11:45:40.001Z</time></trkpt><trkpt lat="48.16506248290253" lon="11.733324014544886"><ele>515.0</ele><time>2026-04-18T11:45:41.001Z</time></trkpt><trkpt lat="48.164976354160224" lon="11.733309645287427"><ele>515.0</ele><time>2026-04-18T11:45:42.001Z</time></trkpt><trkpt lat="48.16489201561306" lon="11.733285166288395"><ele>515.0</ele><time>2026-04-18T11:45:43.001Z</time></trkpt><trkpt lat="48.16481975485454" lon="11.733222097519185"><ele>514.8</ele><time>2026-04-18T11:45:44.001Z</time></trkpt><trkpt lat="48.164766859161105" lon="11.732993346078835"><ele>514.6</ele><time>2026-04-18T11:45:46.001Z</time></trkpt><trkpt lat="48.16474184986936" lon="11.732879797504706"><ele>514.4</ele><time>2026-04-18T11:45:47.001Z</time></trkpt><trkpt lat="48.16477476258147" lon="11.732748275689882"><ele>514.2</ele><time>2026-04-18T11:45:48Z</time></trkpt><trkpt lat="48.16480366006568" lon="11.732605714610933"><ele>514.0</ele><time>2026-04-18T11:45:49Z</time></trkpt><trkpt lat="48.16486883236253" lon="11.732497447490928"><ele>514.0</ele><time>2026-04-18T11:45:50Z</time></trkpt><trkpt lat="48.16493997571802" lon="11.732420776809295"><ele>514.0</ele><time>2026-04-18T11:45:51Z</time></trkpt><trkpt lat="48.165013717008385" lon="11.73237500404324"><ele>514.0</ele><time>2026-04-18T11:45:52Z</time></trkpt><trkpt lat="48.16508049888449" lon="11.73232625970642"><ele>514.0</ele><time>2026-04-18T11:45:53Z</time></trkpt><trkpt lat="48.165153524004374" lon="11.732313815139875"><ele>514.0</ele><time>2026-04-18T11:45:54Z</time></trkpt><trkpt lat="48.165232622970024" lon="11.732316334052811"><ele>514.0</ele><time>2026-04-18T11:45:55Z</time></trkpt><trkpt lat="48.16531452096961" lon="11.732333738389165"><ele>514.0</ele><time>2026-04-18T11:45:56Z</time></trkpt><trkpt lat="48.16539358335989" lon="11.732363654622509"><ele>514.0</ele><time>2026-04-18T11:45:57Z</time></trkpt><trkpt lat="48.16546383749831" lon="11.732394811190495"><ele>514.0</ele><time>2026-04-18T11:45:58Z</time></trkpt><trkpt lat="48.16554531126669" lon="11.732526534436717"><ele>514.0</ele><time>2026-04-18T11:46:00Z</time></trkpt><trkpt lat="48.16561691397862" lon="11.732588121864545"><ele>514.0</ele><time>2026-04-18T11:46:02Z</time></trkpt><trkpt lat="48.165664526502425" lon="11.732672806562636"><ele>514.0</ele><time>2026-04-18T11:46:04Z</time></trkpt><trkpt lat="48.165695318291675" lon="11.732769914484265"><ele>513.8333333333334</ele><time>2026-04-18T11:46:06Z</time></trkpt><trkpt lat="48.16570870479452" lon="11.732900792730685"><ele>513.6666666666667</ele><time>2026-04-18T11:46:08Z</time></trkpt><trkpt lat="48.16575248424811" lon="11.73296875090835"><ele>513.5</ele><time>2026-04-18T11:46:09Z</time></trkpt><trkpt lat="48.165688448496574" lon="11.73310825115059"><ele>513.3333333333334</ele><time>2026-04-18T11:46:10Z</time></trkpt><trkpt lat="48.16568394639192" lon="11.733230697987397"><ele>513.1666666666666</ele><time>2026-04-18T11:46:11Z</time></trkpt><trkpt lat="48.165673789259145" lon="11.73336651685982"><ele>513.0</ele><time>2026-04-18T11:46:12Z</time></trkpt><trkpt lat="48.16565601012778" lon="11.733492206727254"><ele>513.5</ele><time>2026-04-18T11:46:13Z</time></trkpt><trkpt lat="48.165635138074485" lon="11.733617040715954"><ele>514.0</ele><time>2026-04-18T11:46:14Z</time></trkpt><trkpt lat="48.165607355918" lon="11.733762464858463"><ele>514.5</ele><time>2026-04-18T11:46:15Z</time></trkpt><trkpt lat="48.165572538196706" lon="11.733946700630717"><ele>515.0</ele><time>2026-04-18T11:46:16Z</time></trkpt><trkpt lat="48.16553295636522" lon="11.734165938168132"><ele>515.0</ele><time>2026-04-18T11:46:17Z</time></trkpt><trkpt lat="48.16550271176046" lon="11.734354113053515"><ele>515.0</ele><time>2026-04-18T11:46:18Z</time></trkpt><trkpt lat="48.16547831446127" lon="11.734517213041656"><ele>515.0</ele><time>2026-04-18T11:46:19Z</time></trkpt><trkpt lat="48.16545484872396" lon="11.734654439477612"><ele>515.0</ele><time>2026-04-18T11:46:20Z</time></trkpt><trkpt lat="48.165432617205546" lon="11.734794378394989"><ele>515.0</ele><time>2026-04-18T11:46:21Z</time></trkpt><trkpt lat="48.16540841062228" lon="11.734930225993619"><ele>515.0</ele><time>2026-04-18T11:46:22Z</time></trkpt><trkpt lat="48.165385391652116" lon="11.735058537849445"><ele>515.0</ele><time>2026-04-18T11:46:23Z</time></trkpt><trkpt lat="48.16536820509848" lon="11.735183609577136"><ele>515.0</ele><time>2026-04-18T11:46:24Z</time></trkpt><trkpt lat="48.165349907942094" lon="11.735311396980334"><ele>515.0</ele><time>2026-04-18T11:46:25Z</time></trkpt><trkpt lat="48.165329038807975" lon="11.73544989481263"><ele>515.0</ele><time>2026-04-18T11:46:26Z</time></trkpt><trkpt lat="48.165308364502636" lon="11.735594224254992"><ele>515.0</ele><time>2026-04-18T11:46:27Z</time></trkpt><trkpt lat="48.16528501300147" lon="11.735746982091324"><ele>515.0</ele><time>2026-04-18T11:46:28Z</time></trkpt><trkpt lat="48.165255710816204" lon="11.735936469163804"><ele>515.0</ele><time>2026-04-18T11:46:29Z</time></trkpt><trkpt lat="48.165231151471886" lon="11.73611838586215"><ele>515.0</ele><time>2026-04-18T11:46:30Z</time></trkpt><trkpt lat="48.16521146539731" lon="11.736279140015286"><ele>515.0</ele><time>2026-04-18T11:46:31Z</time></trkpt><trkpt lat="48.16518838730785" lon="11.73642029814419"><ele>515.0</ele><time>2026-04-18T11:46:32Z</time></trkpt><trkpt lat="48.16516290561014" lon="11.736552843601448"><ele>515.0</ele><time>2026-04-18T11:46:33Z</time></trkpt><trkpt lat="48.16513789079788" lon="11.736683978806868"><ele>515.0</ele><time>2026-04-18T11:46:34Z</time></trkpt><trkpt lat="48.16510839735571" lon="11.736808132928347"><ele>515.0</ele><time>2026-04-18T11:46:35Z</time></trkpt><trkpt lat="48.16506831883782" lon="11.736905646967294"><ele>515.0</ele><time>2026-04-18T11:46:36Z</time></trkpt><trkpt lat="48.16501685071504" lon="11.736963479597579"><ele>515.0</ele><time>2026-04-18T11:46:37Z</time></trkpt><trkpt lat="48.16491336531519" lon="11.73706181561333"><ele>515.0</ele><time>2026-04-18T11:46:39Z</time></trkpt><trkpt lat="48.16491878215894" lon="11.737188613922878"><ele>515.0</ele><time>2026-04-18T11:46:40Z</time></trkpt><trkpt lat="48.164911646723255" lon="11.737296892007745"><ele>515.0</ele><time>2026-04-18T11:46:41Z</time></trkpt><trkpt lat="48.16492892939271" lon="11.737402292173103"><ele>515.0</ele><time>2026-04-18T11:46:42Z</time></trkpt><trkpt lat="48.16496321992386" lon="11.737503405141435"><ele>515.0</ele><time>2026-04-18T11:46:42.999Z</time></trkpt><trkpt lat="48.165016187338004" lon="11.737590679070598"><ele>515.0</ele><time>2026-04-18T11:46:43.999Z</time></trkpt><trkpt lat="48.165084841573346" lon="11.737661216662259"><ele>515.0</ele><time>2026-04-18T11:46:44.999Z</time></trkpt><trkpt lat="48.16517164380229" lon="11.737671349260717"><ele>515.0</ele><time>2026-04-18T11:46:45.999Z</time></trkpt><trkpt lat="48.16524890124153" lon="11.737643811240538"><ele>515.0</ele><time>2026-04-18T11:46:46.999Z</time></trkpt><trkpt lat="48.16531426812509" lon="11.737597789561171"><ele>515.0</ele><time>2026-04-18T11:46:47.999Z</time></trkpt><trkpt lat="48.165383452255" lon="11.7375814305265"><ele>515.0</ele><time>2026-04-18T11:46:48.999Z</time></trkpt><trkpt lat="48.165457855191626" lon="11.737608000517938"><ele>515.0</ele><time>2026-04-18T11:46:49.999Z</time></trkpt><trkpt lat="48.16553220170003" lon="11.737674003763997"><ele>515.0</ele><time>2026-04-18T11:46:50.999Z</time></trkpt><trkpt lat="48.16561114474196" lon="11.737771403506754"><ele>515.0</ele><time>2026-04-18T11:46:51.999Z</time></trkpt><trkpt lat="48.16569755579827" lon="11.737864654341557"><ele>515.0</ele><time>2026-04-18T11:46:52.999Z</time></trkpt><trkpt lat="48.165756128388296" lon="11.738019444011384"><ele>515.0</ele><time>2026-04-18T11:46:53.999Z</time></trkpt><trkpt lat="48.165808382242915" lon="11.738167714508265"><ele>514.8</ele><time>2026-04-18T11:46:54.999Z</time></trkpt><trkpt lat="48.16585060817948" lon="11.738314667668549"><ele>514.6</ele><time>2026-04-18T11:46:55.999Z</time></trkpt><trkpt lat="48.1658947714286" lon="11.738455081902604"><ele>514.4</ele><time>2026-04-18T11:46:56.999Z</time></trkpt><trkpt lat="48.165941067874705" lon="11.738588999310657"><ele>514.2</ele><time>2026-04-18T11:46:57.999Z</time></trkpt><trkpt lat="48.16598743480075" lon="11.738716919184055"><ele>514.0</ele><time>2026-04-18T11:46:58.999Z</time></trkpt><trkpt lat="48.16602647827487" lon="11.738826455815238"><ele>514.0</ele><time>2026-04-18T11:46:59.999Z</time></trkpt><trkpt lat="48.16605965586167" lon="11.73891222727999"><ele>514.0</ele><time>2026-04-18T11:47:00.999Z</time></trkpt><trkpt lat="48.16612482689412" lon="11.739063973052781"><ele>514.0</ele><time>2026-04-18T11:47:02.999Z</time></trkpt><trkpt lat="48.166166111986335" lon="11.739145843756711"><ele>514.0</ele><time>2026-04-18T11:47:03.999Z</time></trkpt><trkpt lat="48.16621690413491" lon="11.739232459713346"><ele>514.0</ele><time>2026-04-18T11:47:04.999Z</time></trkpt><trkpt lat="48.166238651171014" lon="11.739370867973488"><ele>514.0</ele><time>2026-04-18T11:47:05.999Z</time></trkpt><trkpt lat="48.16625516927082" lon="11.739484541346664"><ele>514.0</ele><time>2026-04-18T11:47:06.999Z</time></trkpt><trkpt lat="48.16628642553664" lon="11.73956657856632"><ele>514.0</ele><time>2026-04-18T11:47:07.999Z</time></trkpt><trkpt lat="48.16637891977378" lon="11.739687551657907"><ele>514.0</ele><time>2026-04-18T11:47:09.999Z</time></trkpt><trkpt lat="48.16644531208979" lon="11.73972118105884"><ele>514.0</ele><time>2026-04-18T11:47:10.999Z</time></trkpt><trkpt lat="48.16653151765217" lon="11.739737540146349"><ele>514.0</ele><time>2026-04-18T11:47:11.999Z</time></trkpt><trkpt lat="48.16661845211777" lon="11.739679439028231"><ele>514.0</ele><time>2026-04-18T11:47:12.999Z</time></trkpt><trkpt lat="48.16668530852857" lon="11.739583871828328"><ele>514.0</ele><time>2026-04-18T11:47:13.999Z</time></trkpt><trkpt lat="48.16672539901324" lon="11.739467709011816"><ele>514.0</ele><time>2026-04-18T11:47:14.999Z</time></trkpt><trkpt lat="48.166730742331225" lon="11.739339719304827"><ele>514.0</ele><time>2026-04-18T11:47:15.999Z</time></trkpt><trkpt lat="48.16673718719372" lon="11.739216256276462"><ele>514.0</ele><time>2026-04-18T11:47:16.999Z</time></trkpt><trkpt lat="48.16667866976717" lon="11.739114229295678"><ele>514.0</ele><time>2026-04-18T11:47:17.999Z</time></trkpt><trkpt lat="48.16664429957819" lon="11.739005149140105"><ele>514.0</ele><time>2026-04-18T11:47:18.999Z</time></trkpt><trkpt lat="48.16655245528868" lon="11.738969551351406"><ele>514.0</ele><time>2026-04-18T11:47:19.999Z</time></trkpt><trkpt lat="48.166471576364" lon="11.738946887939026"><ele>514.0</ele><time>2026-04-18T11:47:20.999Z</time></trkpt><trkpt lat="48.166386826773696" lon="11.738962660207882"><ele>514.0</ele><time>2026-04-18T11:47:21.999Z</time></trkpt><trkpt lat="48.166308385049874" lon="11.739029944569062"><ele>514.0</ele><time>2026-04-18T11:47:22.999Z</time></trkpt><trkpt lat="48.16624694588988" lon="11.739137877029673"><ele>514.0</ele><time>2026-04-18T11:47:23.999Z</time></trkpt><trkpt lat="48.166237675242684" lon="11.739279748842737"><ele>514.0</ele><time>2026-04-18T11:47:24.999Z</time></trkpt><trkpt lat="48.166204011373715" lon="11.739394716337022"><ele>514.0</ele><time>2026-04-18T11:47:25.999Z</time></trkpt><trkpt lat="48.16622739566365" lon="11.739502477080027"><ele>514.0</ele><time>2026-04-18T11:47:27Z</time></trkpt><trkpt lat="48.16626797960833" lon="11.739598526517087"><ele>514.0</ele><time>2026-04-18T11:47:28Z</time></trkpt><trkpt lat="48.166327396508436" lon="11.73967096344768"><ele>514.0</ele><time>2026-04-18T11:47:29Z</time></trkpt><trkpt lat="48.16640221731629" lon="11.739714284649875"><ele>514.0</ele><time>2026-04-18T11:47:30Z</time></trkpt><trkpt lat="48.16648765169772" lon="11.739728521940963"><ele>514.0</ele><time>2026-04-18T11:47:31Z</time></trkpt><trkpt lat="48.166578370545935" lon="11.73969736262021"><ele>514.0</ele><time>2026-04-18T11:47:32Z</time></trkpt><trkpt lat="48.16665668383626" lon="11.739615178055908"><ele>514.0</ele><time>2026-04-18T11:47:33Z</time></trkpt><trkpt lat="48.166709632592465" lon="11.739495106805867"><ele>514.0</ele><time>2026-04-18T11:47:34Z</time></trkpt><trkpt lat="48.1667497891348" lon="11.739364612756649"><ele>514.0</ele><time>2026-04-18T11:47:35Z</time></trkpt><trkpt lat="48.166722249155185" lon="11.739220016048103"><ele>514.0</ele><time>2026-04-18T11:47:36Z</time></trkpt><trkpt lat="48.16668919242685" lon="11.739092124902633"><ele>514.0</ele><time>2026-04-18T11:47:37Z</time></trkpt><trkpt lat="48.16669183996692" lon="11.738958225871558"><ele>514.0</ele><time>2026-04-18T11:47:38Z</time></trkpt><trkpt lat="48.16670584370473" lon="11.738815635583288"><ele>514.0</ele><time>2026-04-18T11:47:39Z</time></trkpt><trkpt lat="48.16671993603461" lon="11.738663783069066"><ele>514.0</ele><time>2026-04-18T11:47:40Z</time></trkpt><trkpt lat="48.16679124174424" lon="11.738530846881114"><ele>514.0</ele><time>2026-04-18T11:47:41Z</time></trkpt><trkpt lat="48.166847058305414" lon="11.738368823016149"><ele>514.3333333333334</ele><time>2026-04-18T11:47:42Z</time></trkpt><trkpt lat="48.16692084985167" lon="11.738165667676"><ele>514.6666666666666</ele><time>2026-04-18T11:47:43Z</time></trkpt><trkpt lat="48.16699579563481" lon="11.737975840569252"><ele>515.0</ele><time>2026-04-18T11:47:44Z</time></trkpt><trkpt lat="48.167084878240104" lon="11.737767815094596"><ele>515.0</ele><time>2026-04-18T11:47:45Z</time></trkpt><trkpt lat="48.16718357720463" lon="11.73756600924626"><ele>515.0</ele><time>2026-04-18T11:47:46Z</time></trkpt><trkpt lat="48.16728084926772" lon="11.737381517764492"><ele>515.0</ele><time>2026-04-18T11:47:47Z</time></trkpt><trkpt lat="48.167381555435625" lon="11.737197139460326"><ele>514.6666666666666</ele><time>2026-04-18T11:47:48Z</time></trkpt><trkpt lat="48.16748672685041" lon="11.737021815269381"><ele>514.3333333333334</ele><time>2026-04-18T11:47:49Z</time></trkpt><trkpt lat="48.16759966663743" lon="11.736853463048794"><ele>514.0</ele><time>2026-04-18T11:47:50Z</time></trkpt><trkpt lat="48.16771824178451" lon="11.736689090903512"><ele>514.0</ele><time>2026-04-18T11:47:51Z</time></trkpt><trkpt lat="48.16783137517477" lon="11.736514684124293"><ele>514.0</ele><time>2026-04-18T11:47:52Z</time></trkpt><trkpt lat="48.16795998320831" lon="11.73637456666738"><ele>514.0</ele><time>2026-04-18T11:47:53Z</time></trkpt><trkpt lat="48.16809709644682" lon="11.736247186380433"><ele>514.3333333333334</ele><time>2026-04-18T11:47:53.999Z</time></trkpt><trkpt lat="48.16824023259657" lon="11.736118611573778"><ele>514.6666666666666</ele><time>2026-04-18T11:47:54.999Z</time></trkpt><trkpt lat="48.16839950966375" lon="11.735979785106938"><ele>515.0</ele><time>2026-04-18T11:47:55.999Z</time></trkpt><trkpt lat="48.16856754560412" lon="11.735839399649134"><ele>515.0</ele><time>2026-04-18T11:47:56.999Z</time></trkpt><trkpt lat="48.16873309608697" lon="11.735699582601796"><ele>515.0</ele><time>2026-04-18T11:47:57.999Z</time></trkpt><trkpt lat="48.16888051966826" lon="11.73557077899596"><ele>515.0</ele><time>2026-04-18T11:47:58.999Z</time></trkpt><trkpt lat="48.16901990875007" lon="11.735446281860405"><ele>514.25</ele><time>2026-04-18T11:47:59.999Z</time></trkpt><trkpt lat="48.16915980900109" lon="11.735361326883606"><ele>513.5</ele><time>2026-04-18T11:48:00.999Z</time></trkpt><trkpt lat="48.16927685529366" lon="11.735243179097758"><ele>512.75</ele><time>2026-04-18T11:48:01.999Z</time></trkpt><trkpt lat="48.16939900440041" lon="11.735149233615726"><ele>512.0</ele><time>2026-04-18T11:48:02.999Z</time></trkpt><trkpt lat="48.16952468067241" lon="11.735050554518118"><ele>512.0</ele><time>2026-04-18T11:48:03.999Z</time></trkpt><trkpt lat="48.16965638182943" lon="11.73494843261007"><ele>512.0</ele><time>2026-04-18T11:48:04.999Z</time></trkpt><trkpt lat="48.16979668186664" lon="11.734839805175739"><ele>512.0</ele><time>2026-04-18T11:48:05.999Z</time></trkpt><trkpt lat="48.16995157325233" lon="11.734723959514008"><ele>511.66666666666663</ele><time>2026-04-18T11:48:06.999Z</time></trkpt><trkpt lat="48.170106442853566" lon="11.734619020672774"><ele>511.33333333333337</ele><time>2026-04-18T11:48:07.999Z</time></trkpt><trkpt lat="48.17026157973819" lon="11.734512678869926"><ele>511.0</ele><time>2026-04-18T11:48:08.999Z</time></trkpt><trkpt lat="48.17041424460117" lon="11.734397086504382"><ele>511.0</ele><time>2026-04-18T11:48:09.999Z</time></trkpt><trkpt lat="48.1705636057854" lon="11.73427506240393"><ele>511.0</ele><time>2026-04-18T11:48:10.999Z</time></trkpt><trkpt lat="48.170710642917214" lon="11.734152680413978"><ele>511.0</ele><time>2026-04-18T11:48:11.999Z</time></trkpt><trkpt lat="48.17086137293415" lon="11.734032947818061"><ele>511.0</ele><time>2026-04-18T11:48:12.999Z</time></trkpt><trkpt lat="48.17101712537026" lon="11.73390960812835"><ele>511.0</ele><time>2026-04-18T11:48:13.999Z</time></trkpt><trkpt lat="48.17117285202118" lon="11.733774633977342"><ele>511.0</ele><time>2026-04-18T11:48:14.999Z</time></trkpt><trkpt lat="48.171330085535104" lon="11.733631299345735"><ele>511.0</ele><time>2026-04-18T11:48:15.999Z</time></trkpt><trkpt lat="48.17148658214425" lon="11.733497895280147"><ele>511.0</ele><time>2026-04-18T11:48:16.999Z</time></trkpt><trkpt lat="48.17164152700314" lon="11.73338608350187"><ele>511.0</ele><time>2026-04-18T11:48:17.999Z</time></trkpt><trkpt lat="48.17178742568129" lon="11.733246765596896"><ele>511.33333333333337</ele><time>2026-04-18T11:48:18.999Z</time></trkpt><trkpt lat="48.171941195309024" lon="11.73312421837365"><ele>511.66666666666663</ele><time>2026-04-18T11:48:19.999Z</time></trkpt><trkpt lat="48.17209460183336" lon="11.733005189194316"><ele>512.0</ele><time>2026-04-18T11:48:20.999Z</time></trkpt><trkpt lat="48.172254239323884" lon="11.73287658041528"><ele>511.66666666666663</ele><time>2026-04-18T11:48:21.999Z</time></trkpt><trkpt lat="48.17240480244578" lon="11.732755790129271"><ele>511.33333333333337</ele><time>2026-04-18T11:48:22.999Z</time></trkpt><trkpt lat="48.172548050764675" lon="11.732643286056769"><ele>511.0</ele><time>2026-04-18T11:48:23.999Z</time></trkpt><trkpt lat="48.17268945900335" lon="11.732532433186753"><ele>511.0</ele><time>2026-04-18T11:48:24.999Z</time></trkpt><trkpt lat="48.17283083031036" lon="11.732421987043436"><ele>511.0</ele><time>2026-04-18T11:48:25.999Z</time></trkpt><trkpt lat="48.17297659701121" lon="11.732302395235216"><ele>511.0</ele><time>2026-04-18T11:48:26.999Z</time></trkpt><trkpt lat="48.173131221895304" lon="11.732176690249704"><ele>511.0</ele><time>2026-04-18T11:48:27.999Z</time></trkpt><trkpt lat="48.173294292876776" lon="11.732046750956844"><ele>511.0</ele><time>2026-04-18T11:48:28.999Z</time></trkpt><trkpt lat="48.17344325903843" lon="11.731923593368828"><ele>511.0</ele><time>2026-04-18T11:48:29.999Z</time></trkpt><trkpt lat="48.17359423458998" lon="11.731830928159658"><ele>510.33333333333337</ele><time>2026-04-18T11:48:30.999Z</time></trkpt><trkpt lat="48.17372814485152" lon="11.73169924824478"><ele>509.66666666666663</ele><time>2026-04-18T11:48:31.999Z</time></trkpt><trkpt lat="48.17386891759656" lon="11.731590092948771"><ele>509.0</ele><time>2026-04-18T11:48:32.999Z</time></trkpt><trkpt lat="48.174017948445915" lon="11.731473100665205"><ele>509.3333333333333</ele><time>2026-04-18T11:48:33.999Z</time></trkpt><trkpt lat="48.174169808855375" lon="11.731348015958979"><ele>509.66666666666663</ele><time>2026-04-18T11:48:34.999Z</time></trkpt><trkpt lat="48.17431874955089" lon="11.731227142624592"><ele>510.0</ele><time>2026-04-18T11:48:35.999Z</time></trkpt><trkpt lat="48.174473099715186" lon="11.731131902470043"><ele>510.0</ele><time>2026-04-18T11:48:36.999Z</time></trkpt><trkpt lat="48.17461007715244" lon="11.730997393745403"><ele>510.0</ele><time>2026-04-18T11:48:37.999Z</time></trkpt><trkpt lat="48.17475787249436" lon="11.730878641213957"><ele>510.0</ele><time>2026-04-18T11:48:38.999Z</time></trkpt><trkpt lat="48.17491984669177" lon="11.730777917126366"><ele>510.0</ele><time>2026-04-18T11:48:39.999Z</time></trkpt><trkpt lat="48.17506275585595" lon="11.730637782701509"><ele>510.0</ele><time>2026-04-18T11:48:40.999Z</time></trkpt><trkpt lat="48.17521043299674" lon="11.730521500321498"><ele>510.0</ele><time>2026-04-18T11:48:41.999Z</time></trkpt><trkpt lat="48.17535757143722" lon="11.730404847446877"><ele>510.0</ele><time>2026-04-18T11:48:42.999Z</time></trkpt><trkpt lat="48.17550210297218" lon="11.730290483026767"><ele>510.0</ele><time>2026-04-18T11:48:43.999Z</time></trkpt><trkpt lat="48.17564219229391" lon="11.73018166057333"><ele>510.0</ele><time>2026-04-18T11:48:44.999Z</time></trkpt><trkpt lat="48.17577791797281" lon="11.730073533581217"><ele>509.66666666666663</ele><time>2026-04-18T11:48:45.999Z</time></trkpt><trkpt lat="48.175916394092084" lon="11.729959441591722"><ele>509.3333333333333</ele><time>2026-04-18T11:48:46.999Z</time></trkpt><trkpt lat="48.17606855521675" lon="11.729866833527115"><ele>509.0</ele><time>2026-04-18T11:48:47.999Z</time></trkpt><trkpt lat="48.176216295806526" lon="11.729749917416743"><ele>509.0</ele><time>2026-04-18T11:48:48.999Z</time></trkpt><trkpt lat="48.176360135344545" lon="11.729610897656842"><ele>509.0</ele><time>2026-04-18T11:48:49.999Z</time></trkpt><trkpt lat="48.17651366403513" lon="11.72949013989984"><ele>509.0</ele><time>2026-04-18T11:48:50.999Z</time></trkpt><trkpt lat="48.17666708871636" lon="11.729391018334088"><ele>508.66666666666663</ele><time>2026-04-18T11:48:51.999Z</time></trkpt><trkpt lat="48.176809636443906" lon="11.729273784298744"><ele>508.33333333333337</ele><time>2026-04-18T11:48:52.999Z</time></trkpt><trkpt lat="48.17694535635322" lon="11.729162165595204"><ele>508.0</ele><time>2026-04-18T11:48:53.999Z</time></trkpt><trkpt lat="48.17707965774587" lon="11.7290484892697"><ele>508.0</ele><time>2026-04-18T11:48:54.999Z</time></trkpt><trkpt lat="48.17722244126719" lon="11.728926504159972"><ele>508.0</ele><time>2026-04-18T11:48:55.999Z</time></trkpt><trkpt lat="48.17737257144717" lon="11.72879573972951"><ele>508.0</ele><time>2026-04-18T11:48:56.999Z</time></trkpt><trkpt lat="48.17752288769589" lon="11.728661627190606"><ele>508.33333333333337</ele><time>2026-04-18T11:48:57.999Z</time></trkpt><trkpt lat="48.177681832057544" lon="11.728513576439434"><ele>508.66666666666663</ele><time>2026-04-18T11:48:58.999Z</time></trkpt><trkpt lat="48.177842885630035" lon="11.728358249321465"><ele>509.0</ele><time>2026-04-18T11:48:59.999Z</time></trkpt><trkpt lat="48.17800176152409" lon="11.728200803091378"><ele>509.0</ele><time>2026-04-18T11:49:00.999Z</time></trkpt><trkpt lat="48.178158931869774" lon="11.728039965467785"><ele>509.0</ele><time>2026-04-18T11:49:01.999Z</time></trkpt><trkpt lat="48.178314442969565" lon="11.72787560435794"><ele>509.0</ele><time>2026-04-18T11:49:02.999Z</time></trkpt><trkpt lat="48.178462327248155" lon="11.727682806173583"><ele>509.0</ele><time>2026-04-18T11:49:03.999Z</time></trkpt><trkpt lat="48.17863088274204" lon="11.727523413568186"><ele>509.0</ele><time>2026-04-18T11:49:04.999Z</time></trkpt><trkpt lat="48.1787874681234" lon="11.727343383242088"><ele>509.0</ele><time>2026-04-18T11:49:05.999Z</time></trkpt><trkpt lat="48.17894025002556" lon="11.727153413045055"><ele>509.66666666666663</ele><time>2026-04-18T11:49:06.999Z</time></trkpt><trkpt lat="48.17909256331275" lon="11.726964025053887"><ele>510.33333333333337</ele><time>2026-04-18T11:49:07.999Z</time></trkpt><trkpt lat="48.17923507343335" lon="11.72675537086805"><ele>511.0</ele><time>2026-04-18T11:49:08.999Z</time></trkpt><trkpt lat="48.17939529804286" lon="11.726583141961802"><ele>511.0</ele><time>2026-04-18T11:49:09.999Z</time></trkpt><trkpt lat="48.17954463091899" lon="11.726389342477288"><ele>511.0</ele><time>2026-04-18T11:49:10.999Z</time></trkpt><trkpt lat="48.17969444042941" lon="11.726193870548842"><ele>511.0</ele><time>2026-04-18T11:49:11.999Z</time></trkpt><trkpt lat="48.17984333711022" lon="11.725997787919749"><ele>511.33333333333337</ele><time>2026-04-18T11:49:12.999Z</time></trkpt><trkpt lat="48.179991182587734" lon="11.725800350724116"><ele>511.66666666666663</ele><time>2026-04-18T11:49:13.999Z</time></trkpt><trkpt lat="48.1801384214579" lon="11.725602886866474"><ele>512.0</ele><time>2026-04-18T11:49:14.999Z</time></trkpt><trkpt lat="48.18027484962629" lon="11.725386326127602"><ele>512.0</ele><time>2026-04-18T11:49:15.999Z</time></trkpt><trkpt lat="48.18042186381482" lon="11.72518843169621"><ele>512.0</ele><time>2026-04-18T11:49:16.999Z</time></trkpt><trkpt lat="48.180567539486326" lon="11.724988961224186"><ele>512.0</ele><time>2026-04-18T11:49:17.999Z</time></trkpt><trkpt lat="48.180713507780276" lon="11.72478823983178"><ele>510.66666666666663</ele><time>2026-04-18T11:49:18.999Z</time></trkpt><trkpt lat="48.180861295768935" lon="11.724587551001397"><ele>509.33333333333337</ele><time>2026-04-18T11:49:19.999Z</time></trkpt><trkpt lat="48.181016095328125" lon="11.724361931079207"><ele>508.0</ele><time>2026-04-18T11:49:21Z</time></trkpt><trkpt lat="48.1811938953199" lon="11.724138768291088"><ele>508.0</ele><time>2026-04-18T11:49:22Z</time></trkpt><trkpt lat="48.18137303666937" lon="11.723879224487849"><ele>508.0</ele><time>2026-04-18T11:49:23Z</time></trkpt><trkpt lat="48.18154859117362" lon="11.723623128029901"><ele>507.6666666666667</ele><time>2026-04-18T11:49:24Z</time></trkpt><trkpt lat="48.181711744793944" lon="11.723383785963026"><ele>507.33333333333337</ele><time>2026-04-18T11:49:25Z</time></trkpt><trkpt lat="48.18186456212753" lon="11.723156381012162"><ele>507.0</ele><time>2026-04-18T11:49:26Z</time></trkpt><trkpt lat="48.18200775846358" lon="11.722940990217896"><ele>506.66666666666663</ele><time>2026-04-18T11:49:27Z</time></trkpt><trkpt lat="48.18214700908975" lon="11.72273079712799"><ele>506.3333333333333</ele><time>2026-04-18T11:49:28Z</time></trkpt><trkpt lat="48.182284054665104" lon="11.722521341005333"><ele>506.0</ele><time>2026-04-18T11:49:29Z</time></trkpt><trkpt lat="48.182403546845926" lon="11.722304235285801"><ele>505.66666666666663</ele><time>2026-04-18T11:49:30Z</time></trkpt><trkpt lat="48.182543724775165" lon="11.722086726578494"><ele>505.33333333333337</ele><time>2026-04-18T11:49:31Z</time></trkpt><trkpt lat="48.182681096920675" lon="11.721871349452982"><ele>505.0</ele><time>2026-04-18T11:49:32Z</time></trkpt><trkpt lat="48.18281475604814" lon="11.721652527811198"><ele>504.6666666666667</ele><time>2026-04-18T11:49:33Z</time></trkpt><trkpt lat="48.18296059920951" lon="11.721455986929742"><ele>504.33333333333337</ele><time>2026-04-18T11:49:34Z</time></trkpt><trkpt lat="48.18309199204823" lon="11.721241748794377"><ele>504.0</ele><time>2026-04-18T11:49:35Z</time></trkpt><trkpt lat="48.18321656311048" lon="11.721035549728233"><ele>504.66666666666663</ele><time>2026-04-18T11:49:36Z</time></trkpt><trkpt lat="48.18333443437212" lon="11.720837601801879"><ele>505.3333333333333</ele><time>2026-04-18T11:49:37Z</time></trkpt><trkpt lat="48.183455166722375" lon="11.720632167901458"><ele>506.0</ele><time>2026-04-18T11:49:38Z</time></trkpt><trkpt lat="48.18358342045983" lon="11.720411081800325"><ele>505.66666666666663</ele><time>2026-04-18T11:49:39Z</time></trkpt><trkpt lat="48.18371779007984" lon="11.720179453005908"><ele>505.33333333333337</ele><time>2026-04-18T11:49:40Z</time></trkpt><trkpt lat="48.18383896285882" lon="11.719931598612035"><ele>505.0</ele><time>2026-04-18T11:49:41Z</time></trkpt><trkpt lat="48.18398375660488" lon="11.719714730134536"><ele>505.0</ele><time>2026-04-18T11:49:42Z</time></trkpt><trkpt lat="48.18411439940324" lon="11.71948043964183"><ele>505.0</ele><time>2026-04-18T11:49:43Z</time></trkpt><trkpt lat="48.18423055521051" lon="11.719268892624374"><ele>505.0</ele><time>2026-04-18T11:49:44Z</time></trkpt><trkpt lat="48.18434325950184" lon="11.71906063247823"><ele>505.0</ele><time>2026-04-18T11:49:45Z</time></trkpt><trkpt lat="48.18444832976005" lon="11.718866479384491"><ele>505.0</ele><time>2026-04-18T11:49:46Z</time></trkpt><trkpt lat="48.18454604124993" lon="11.718683831070809"><ele>505.0</ele><time>2026-04-18T11:49:47Z</time></trkpt><trkpt lat="48.18463310943947" lon="11.71848560564522"><ele>505.0</ele><time>2026-04-18T11:49:48Z</time></trkpt><trkpt lat="48.184739309587414" lon="11.71828866525079"><ele>505.0</ele><time>2026-04-18T11:49:49Z</time></trkpt><trkpt lat="48.18484855445358" lon="11.718081493145597"><ele>505.0</ele><time>2026-04-18T11:49:50Z</time></trkpt><trkpt lat="48.18495956894735" lon="11.717863373808646"><ele>505.0</ele><time>2026-04-18T11:49:51Z</time></trkpt><trkpt lat="48.18507404387127" lon="11.71763354389963"><ele>505.0</ele><time>2026-04-18T11:49:52Z</time></trkpt><trkpt lat="48.18519413354819" lon="11.717394704454248"><ele>505.0</ele><time>2026-04-18T11:49:53Z</time></trkpt><trkpt lat="48.18532103532957" lon="11.7171451130405"><ele>504.6666666666667</ele><time>2026-04-18T11:49:54Z</time></trkpt><trkpt lat="48.18544571071897" lon="11.71689822586421"><ele>504.33333333333337</ele><time>2026-04-18T11:49:55Z</time></trkpt><trkpt lat="48.18556947046958" lon="11.716652169800996"><ele>504.0</ele><time>2026-04-18T11:49:56Z</time></trkpt><trkpt lat="48.18568973070141" lon="11.716402044462038"><ele>504.0</ele><time>2026-04-18T11:49:57Z</time></trkpt><trkpt lat="48.18580687242314" lon="11.716149673897487"><ele>504.0</ele><time>2026-04-18T11:49:58Z</time></trkpt><trkpt lat="48.185921591408466" lon="11.715896749278052"><ele>504.0</ele><time>2026-04-18T11:49:59Z</time></trkpt><trkpt lat="48.186036082945556" lon="11.715643235248153"><ele>504.0</ele><time>2026-04-18T11:49:59.999Z</time></trkpt><trkpt lat="48.18615120411639" lon="11.715389952787538"><ele>504.0</ele><time>2026-04-18T11:50:00.999Z</time></trkpt><trkpt lat="48.18626680899025" lon="11.715138011571712"><ele>504.0</ele><time>2026-04-18T11:50:01.999Z</time></trkpt><trkpt lat="48.186392739965676" lon="11.714865735431792"><ele>504.0</ele><time>2026-04-18T11:50:02.999Z</time></trkpt><trkpt lat="48.18652782044741" lon="11.714555342601653"><ele>504.0</ele><time>2026-04-18T11:50:03.999Z</time></trkpt><trkpt lat="48.1866608022177" lon="11.714246494422456"><ele>504.0</ele><time>2026-04-18T11:50:04.999Z</time></trkpt><trkpt lat="48.18678343367513" lon="11.713942775017806"><ele>504.0</ele><time>2026-04-18T11:50:05.999Z</time></trkpt><trkpt lat="48.186896814690584" lon="11.713642914248153"><ele>503.5</ele><time>2026-04-18T11:50:06.999Z</time></trkpt><trkpt lat="48.18700216523604" lon="11.713344807133108"><ele>503.0</ele><time>2026-04-18T11:50:07.999Z</time></trkpt><trkpt lat="48.187100698419925" lon="11.713033643180836"><ele>503.0</ele><time>2026-04-18T11:50:08.999Z</time></trkpt><trkpt lat="48.18718514038865" lon="11.712734313345148"><ele>503.0</ele><time>2026-04-18T11:50:09.999Z</time></trkpt><trkpt lat="48.18726450945689" lon="11.712434142152427"><ele>503.0</ele><time>2026-04-18T11:50:10.999Z</time></trkpt><trkpt lat="48.18732686775352" lon="11.712145069185734"><ele>503.0</ele><time>2026-04-18T11:50:11.999Z</time></trkpt><trkpt lat="48.18738619586498" lon="11.711852839630597"><ele>503.0</ele><time>2026-04-18T11:50:12.999Z</time></trkpt><trkpt lat="48.18743825590091" lon="11.711558937218227"><ele>503.0</ele><time>2026-04-18T11:50:13.999Z</time></trkpt><trkpt lat="48.187484616935166" lon="11.71126316470788"><ele>503.0</ele><time>2026-04-18T11:50:14.999Z</time></trkpt><trkpt lat="48.187517301597445" lon="11.711009224917586"><ele>503.0</ele><time>2026-04-18T11:50:15.999Z</time></trkpt><trkpt lat="48.18753896962012" lon="11.710789305193671"><ele>503.0</ele><time>2026-04-18T11:50:16.999Z</time></trkpt><trkpt lat="48.18755740262595" lon="11.710550973566948"><ele>503.0</ele><time>2026-04-18T11:50:17.999Z</time></trkpt><trkpt lat="48.187572853587774" lon="11.710296374541636"><ele>503.0</ele><time>2026-04-18T11:50:18.999Z</time></trkpt><trkpt lat="48.18759122076644" lon="11.710026188661065"><ele>503.0</ele><time>2026-04-18T11:50:19.999Z</time></trkpt><trkpt lat="48.187610452358484" lon="11.709726455769376"><ele>503.3333333333333</ele><time>2026-04-18T11:50:20.999Z</time></trkpt><trkpt lat="48.187627080151984" lon="11.709404885223234"><ele>503.66666666666663</ele><time>2026-04-18T11:50:21.999Z</time></trkpt><trkpt lat="48.18767133854228" lon="11.709110347086344"><ele>504.0</ele><time>2026-04-18T11:50:22.999Z</time></trkpt><trkpt lat="48.18770238038312" lon="11.708829919865021"><ele>504.0</ele><time>2026-04-18T11:50:23.999Z</time></trkpt><trkpt lat="48.18772506611066" lon="11.708554052013007"><ele>504.0</ele><time>2026-04-18T11:50:24.999Z</time></trkpt><trkpt lat="48.187771563894735" lon="11.708287779970345"><ele>504.0</ele><time>2026-04-18T11:50:25.999Z</time></trkpt><trkpt lat="48.18782771408267" lon="11.708024438462472"><ele>504.0</ele><time>2026-04-18T11:50:26.999Z</time></trkpt><trkpt lat="48.18789367745891" lon="11.70775680305803"><ele>504.0</ele><time>2026-04-18T11:50:27.999Z</time></trkpt><trkpt lat="48.18797039310291" lon="11.707487560949223"><ele>504.0</ele><time>2026-04-18T11:50:28.999Z</time></trkpt><trkpt lat="48.188052768614654" lon="11.707227953448356"><ele>503.66666666666663</ele><time>2026-04-18T11:50:29.999Z</time></trkpt><trkpt lat="48.18814110838687" lon="11.706975807558116"><ele>503.3333333333333</ele><time>2026-04-18T11:50:30.999Z</time></trkpt><trkpt lat="48.18823418205627" lon="11.706737282404758"><ele>503.0</ele><time>2026-04-18T11:50:31.999Z</time></trkpt><trkpt lat="48.188336830872316" lon="11.706509209619208"><ele>503.0</ele><time>2026-04-18T11:50:32.999Z</time></trkpt><trkpt lat="48.18844576121481" lon="11.706291488897094"><ele>503.0</ele><time>2026-04-18T11:50:33.999Z</time></trkpt><trkpt lat="48.188552700632876" lon="11.706093799502634"><ele>503.0</ele><time>2026-04-18T11:50:34.999Z</time></trkpt><trkpt lat="48.18865835719781" lon="11.705911884511218"><ele>502.66666666666663</ele><time>2026-04-18T11:50:35.999Z</time></trkpt><trkpt lat="48.18876932259158" lon="11.70573251226161"><ele>502.33333333333337</ele><time>2026-04-18T11:50:36.999Z</time></trkpt><trkpt lat="48.18889169212073" lon="11.705553701836713"><ele>502.0</ele><time>2026-04-18T11:50:37.999Z</time></trkpt><trkpt lat="48.18903146517898" lon="11.705368461349792"><ele>503.0</ele><time>2026-04-18T11:50:38.999Z</time></trkpt><trkpt lat="48.189192216549834" lon="11.70517392267574"><ele>504.0</ele><time>2026-04-18T11:50:39.999Z</time></trkpt><trkpt lat="48.189352021413164" lon="11.705001638195078"><ele>505.0</ele><time>2026-04-18T11:50:40.999Z</time></trkpt><trkpt lat="48.18950831717996" lon="11.704848867969618"><ele>505.0</ele><time>2026-04-18T11:50:41.999Z</time></trkpt><trkpt lat="48.18966561692191" lon="11.70470209679947"><ele>505.0</ele><time>2026-04-18T11:50:42.999Z</time></trkpt><trkpt lat="48.189845178126824" lon="11.70455703715933"><ele>505.0</ele><time>2026-04-18T11:50:43.999Z</time></trkpt><trkpt lat="48.19002469984868" lon="11.704428571082687"><ele>505.33333333333337</ele><time>2026-04-18T11:50:44.999Z</time></trkpt><trkpt lat="48.19019703028977" lon="11.704306385485022"><ele>505.66666666666663</ele><time>2026-04-18T11:50:45.999Z</time></trkpt><trkpt lat="48.19037543366695" lon="11.704172582706871"><ele>506.0</ele><time>2026-04-18T11:50:46.999Z</time></trkpt><trkpt lat="48.190556289922014" lon="11.70403543400846"><ele>505.66666666666663</ele><time>2026-04-18T11:50:47.999Z</time></trkpt><trkpt lat="48.190728488951144" lon="11.7039141290165"><ele>505.33333333333337</ele><time>2026-04-18T11:50:48.999Z</time></trkpt><trkpt lat="48.19088822484242" lon="11.703803797756935"><ele>505.0</ele><time>2026-04-18T11:50:49.999Z</time></trkpt><trkpt lat="48.191044435928674" lon="11.703693811724351"><ele>505.0</ele><time>2026-04-18T11:50:50.999Z</time></trkpt><trkpt lat="48.191198896215" lon="11.703582501134779"><ele>505.0</ele><time>2026-04-18T11:50:51.999Z</time></trkpt><trkpt lat="48.19134981329712" lon="11.70347157685308"><ele>505.0</ele><time>2026-04-18T11:50:52.999Z</time></trkpt><trkpt lat="48.19149845081983" lon="11.703363625661648"><ele>505.0</ele><time>2026-04-18T11:50:53.999Z</time></trkpt><trkpt lat="48.191645962608824" lon="11.703264684011478"><ele>505.0</ele><time>2026-04-18T11:50:54.999Z</time></trkpt><trkpt lat="48.191792435609855" lon="11.703172760797926"><ele>505.0</ele><time>2026-04-18T11:50:55.999Z</time></trkpt><trkpt lat="48.19194196338626" lon="11.703077180841476"><ele>505.0</ele><time>2026-04-18T11:50:57Z</time></trkpt><trkpt lat="48.19209629585696" lon="11.702975580162944"><ele>505.0</ele><time>2026-04-18T11:50:58Z</time></trkpt><trkpt lat="48.19225938550288" lon="11.702898987841856"><ele>505.0</ele><time>2026-04-18T11:50:59Z</time></trkpt><trkpt lat="48.1924213748748" lon="11.702778357603528"><ele>505.0</ele><time>2026-04-18T11:51:00Z</time></trkpt><trkpt lat="48.192605946027776" lon="11.70268420761079"><ele>505.0</ele><time>2026-04-18T11:51:01Z</time></trkpt><trkpt lat="48.1927999800435" lon="11.702596415555425"><ele>505.0</ele><time>2026-04-18T11:51:02Z</time></trkpt><trkpt lat="48.192990368255835" lon="11.702502442107354"><ele>504.6666666666667</ele><time>2026-04-18T11:51:03Z</time></trkpt><trkpt lat="48.19317798952663" lon="11.702412472861852"><ele>504.33333333333337</ele><time>2026-04-18T11:51:04Z</time></trkpt><trkpt lat="48.193357525260176" lon="11.702339748274744"><ele>504.0</ele><time>2026-04-18T11:51:05Z</time></trkpt><trkpt lat="48.19352872572858" lon="11.7022754488287"><ele>504.0</ele><time>2026-04-18T11:51:06Z</time></trkpt><trkpt lat="48.193692735067685" lon="11.702221255310869"><ele>504.0</ele><time>2026-04-18T11:51:07Z</time></trkpt><trkpt lat="48.19385084537122" lon="11.702173697500399"><ele>504.0</ele><time>2026-04-18T11:51:08Z</time></trkpt><trkpt lat="48.19400424609489" lon="11.702135510667244"><ele>503.0</ele><time>2026-04-18T11:51:09Z</time></trkpt><trkpt lat="48.19416135181431" lon="11.70209778128687"><ele>502.0</ele><time>2026-04-18T11:51:10Z</time></trkpt><trkpt lat="48.19431839382004" lon="11.70206472434886"><ele>501.0</ele><time>2026-04-18T11:51:11Z</time></trkpt><trkpt lat="48.19447660472997" lon="11.702042832530433"><ele>501.0</ele><time>2026-04-18T11:51:12Z</time></trkpt><trkpt lat="48.194635224726305" lon="11.70202551718267"><ele>501.0</ele><time>2026-04-18T11:51:13Z</time></trkpt><trkpt lat="48.194784324738485" lon="11.702014129770129"><ele>501.0</ele><time>2026-04-18T11:51:14Z</time></trkpt><trkpt lat="48.19491290838518" lon="11.70200944515696"><ele>501.0</ele><time>2026-04-18T11:51:15Z</time></trkpt><trkpt lat="48.19504275445049" lon="11.702006635417472"><ele>501.0</ele><time>2026-04-18T11:51:16Z</time></trkpt><trkpt lat="48.19517660540267" lon="11.70201121239372"><ele>501.0</ele><time>2026-04-18T11:51:17Z</time></trkpt><trkpt lat="48.195314999932535" lon="11.702029763841898"><ele>501.0</ele><time>2026-04-18T11:51:18Z</time></trkpt><trkpt lat="48.19545827666265" lon="11.702055940270416"><ele>501.0</ele><time>2026-04-18T11:51:19Z</time></trkpt><trkpt lat="48.19560393784111" lon="11.702090792273333"><ele>500.33333333333337</ele><time>2026-04-18T11:51:20Z</time></trkpt><trkpt lat="48.19575230303517" lon="11.702139588633251"><ele>499.6666666666667</ele><time>2026-04-18T11:51:21Z</time></trkpt><trkpt lat="48.195899428142106" lon="11.702209595072416"><ele>499.0</ele><time>2026-04-18T11:51:22Z</time></trkpt><trkpt lat="48.19604996459063" lon="11.702301185369908"><ele>499.0</ele><time>2026-04-18T11:51:23Z</time></trkpt><trkpt lat="48.19620386548551" lon="11.7024028009532"><ele>499.0</ele><time>2026-04-18T11:51:24Z</time></trkpt><trkpt lat="48.196348313796754" lon="11.702509647553587"><ele>499.0</ele><time>2026-04-18T11:51:25Z</time></trkpt><trkpt lat="48.196485273598384" lon="11.702619521902022"><ele>498.6666666666667</ele><time>2026-04-18T11:51:26Z</time></trkpt><trkpt lat="48.1966241491199" lon="11.702721035243009"><ele>498.33333333333337</ele><time>2026-04-18T11:51:27Z</time></trkpt><trkpt lat="48.19676330245722" lon="11.702819505839244"><ele>498.0</ele><time>2026-04-18T11:51:28Z</time></trkpt><trkpt lat="48.19690335509208" lon="11.702902488816362"><ele>498.0</ele><time>2026-04-18T11:51:29Z</time></trkpt><trkpt lat="48.19704849618467" lon="11.702946033553976"><ele>498.0</ele><time>2026-04-18T11:51:30Z</time></trkpt><trkpt lat="48.19718808524639" lon="11.702953476801744"><ele>498.0</ele><time>2026-04-18T11:51:31Z</time></trkpt><trkpt lat="48.197315059266366" lon="11.702933202479143"><ele>498.0</ele><time>2026-04-18T11:51:32Z</time></trkpt><trkpt lat="48.197430449408444" lon="11.70289913855729"><ele>498.0</ele><time>2026-04-18T11:51:33Z</time></trkpt><trkpt lat="48.19752363132069" lon="11.702859833572887"><ele>498.0</ele><time>2026-04-18T11:51:34Z</time></trkpt><trkpt lat="48.19759271591627" lon="11.702824679674881"><ele>498.0</ele><time>2026-04-18T11:51:35Z</time></trkpt><trkpt lat="48.19768256448918" lon="11.702770468871163"><ele>498.0</ele><time>2026-04-18T11:51:37Z</time></trkpt><trkpt lat="48.19775854687105" lon="11.702729922156204"><ele>498.0</ele><time>2026-04-18T11:51:39Z</time></trkpt><trkpt lat="48.19782233318286" lon="11.702685935096882"><ele>498.0</ele><time>2026-04-18T11:51:41Z</time></trkpt><trkpt lat="48.197927045651" lon="11.702650824970608"><ele>498.1666666666667</ele><time>2026-04-18T11:51:44Z</time></trkpt><trkpt lat="48.197991642083664" lon="11.702680868653438"><ele>498.33333333333337</ele><time>2026-04-18T11:51:45Z</time></trkpt><trkpt lat="48.19806670144511" lon="11.702724176395103"><ele>498.5</ele><time>2026-04-18T11:51:46Z</time></trkpt><trkpt lat="48.19814835178238" lon="11.702738204532489"><ele>498.6666666666667</ele><time>2026-04-18T11:51:47Z</time></trkpt><trkpt lat="48.19822669712415" lon="11.702724876023678"><ele>498.83333333333337</ele><time>2026-04-18T11:51:48Z</time></trkpt><trkpt lat="48.198304407011435" lon="11.702682019065673"><ele>499.0</ele><time>2026-04-18T11:51:49Z</time></trkpt><trkpt lat="48.19837932536903" lon="11.702612014692127"><ele>499.0</ele><time>2026-04-18T11:51:50Z</time></trkpt><trkpt lat="48.19844668200173" lon="11.702513012550606"><ele>499.0</ele><time>2026-04-18T11:51:51Z</time></trkpt><trkpt lat="48.19849410081379" lon="11.702388954857188"><ele>499.0</ele><time>2026-04-18T11:51:52Z</time></trkpt><trkpt lat="48.198515666594105" lon="11.702248202899836"><ele>499.0</ele><time>2026-04-18T11:51:53Z</time></trkpt><trkpt lat="48.198515235026754" lon="11.702108250513453"><ele>499.0</ele><time>2026-04-18T11:51:54Z</time></trkpt><trkpt lat="48.198485899236225" lon="11.701968412879237"><ele>498.79999999999995</ele><time>2026-04-18T11:51:55Z</time></trkpt><trkpt lat="48.198432147871515" lon="11.701848460722697"><ele>498.59999999999997</ele><time>2026-04-18T11:51:56Z</time></trkpt><trkpt lat="48.198360212621" lon="11.701748199183683"><ele>498.4</ele><time>2026-04-18T11:51:57Z</time></trkpt><trkpt lat="48.1982746465354" lon="11.701677342217259"><ele>498.2</ele><time>2026-04-18T11:51:58Z</time></trkpt><trkpt lat="48.198178577030994" lon="11.701646073552965"><ele>498.0</ele><time>2026-04-18T11:51:59Z</time></trkpt><trkpt lat="48.19808321419036" lon="11.70164965177924"><ele>498.0</ele><time>2026-04-18T11:52:00Z</time></trkpt><trkpt lat="48.1979946474836" lon="11.701689040565636"><ele>497.99999999999994</ele><time>2026-04-18T11:52:01Z</time></trkpt><trkpt lat="48.19791987934119" lon="11.701769111747144"><ele>497.99999999999994</ele><time>2026-04-18T11:52:02Z</time></trkpt><trkpt lat="48.197856159104475" lon="11.701870639139052"><ele>498.0</ele><time>2026-04-18T11:52:03Z</time></trkpt><trkpt lat="48.197807389635344" lon="11.70199538025293"><ele>498.0</ele><time>2026-04-18T11:52:04Z</time></trkpt><trkpt lat="48.197792829684" lon="11.702144384304587"><ele>498.2</ele><time>2026-04-18T11:52:05Z</time></trkpt><trkpt lat="48.197812341597746" lon="11.702297975189717"><ele>498.4</ele><time>2026-04-18T11:52:06Z</time></trkpt><trkpt lat="48.19786281431089" lon="11.702452881985671"><ele>498.59999999999997</ele><time>2026-04-18T11:52:07Z</time></trkpt><trkpt lat="48.19793062773622" lon="11.702574570947647"><ele>498.79999999999995</ele><time>2026-04-18T11:52:08Z</time></trkpt><trkpt lat="48.19801062136008" lon="11.702656465843752"><ele>499.0</ele><time>2026-04-18T11:52:09Z</time></trkpt><trkpt lat="48.198103184905555" lon="11.702698145177642"><ele>499.0</ele><time>2026-04-18T11:52:10Z</time></trkpt><trkpt lat="48.19820023495561" lon="11.702692748175494"><ele>499.0</ele><time>2026-04-18T11:52:11Z</time></trkpt><trkpt lat="48.19829971893619" lon="11.702649340410046"><ele>499.0</ele><time>2026-04-18T11:52:12Z</time></trkpt><trkpt lat="48.19839218632365" lon="11.702570032476448"><ele>499.0</ele><time>2026-04-18T11:52:13Z</time></trkpt><trkpt lat="48.1984617070416" lon="11.702458967434534"><ele>499.0</ele><time>2026-04-18T11:52:14Z</time></trkpt><trkpt lat="48.19849994700966" lon="11.702331334766274"><ele>499.0</ele><time>2026-04-18T11:52:15Z</time></trkpt><trkpt lat="48.19851668268391" lon="11.702200896504968"><ele>499.0</ele><time>2026-04-18T11:52:16Z</time></trkpt><trkpt lat="48.19851161072605" lon="11.702068820106273"><ele>499.0</ele><time>2026-04-18T11:52:17Z</time></trkpt><trkpt lat="48.198475820768884" lon="11.701942866213676"><ele>499.0</ele><time>2026-04-18T11:52:18Z</time></trkpt><trkpt lat="48.198412549048456" lon="11.7018340914532"><ele>499.0</ele><time>2026-04-18T11:52:19Z</time></trkpt><trkpt lat="48.19834448738786" lon="11.701747685983033"><ele>498.83333333333337</ele><time>2026-04-18T11:52:20Z</time></trkpt><trkpt lat="48.198276637587185" lon="11.701685073460007"><ele>498.6666666666667</ele><time>2026-04-18T11:52:21Z</time></trkpt><trkpt lat="48.198206833340556" lon="11.70164706264024"><ele>498.5</ele><time>2026-04-18T11:52:22Z</time></trkpt><trkpt lat="48.19812849750034" lon="11.701635382558454"><ele>498.33333333333337</ele><time>2026-04-18T11:52:23Z</time></trkpt><trkpt lat="48.19804492025181" lon="11.701658652222358"><ele>498.1666666666667</ele><time>2026-04-18T11:52:24Z</time></trkpt><trkpt lat="48.1979614862136" lon="11.701719470874275"><ele>498.0</ele><time>2026-04-18T11:52:25Z</time></trkpt><trkpt lat="48.19788572435841" lon="11.701820632068928"><ele>498.2</ele><time>2026-04-18T11:52:26Z</time></trkpt><trkpt lat="48.19782902289641" lon="11.701949926778141"><ele>498.4</ele><time>2026-04-18T11:52:27Z</time></trkpt><trkpt lat="48.19779366223385" lon="11.702109573630622"><ele>498.59999999999997</ele><time>2026-04-18T11:52:28Z</time></trkpt><trkpt lat="48.197801614085655" lon="11.70227344953617"><ele>498.79999999999995</ele><time>2026-04-18T11:52:29Z</time></trkpt><trkpt lat="48.19784296152784" lon="11.70242582819099"><ele>499.0</ele><time>2026-04-18T11:52:30Z</time></trkpt><trkpt lat="48.197906979520866" lon="11.702553510321907"><ele>499.0</ele><time>2026-04-18T11:52:31Z</time></trkpt><trkpt lat="48.1979890929226" lon="11.702646366114667"><ele>499.0</ele><time>2026-04-18T11:52:32Z</time></trkpt><trkpt lat="48.19807916602834" lon="11.702692692133068"><ele>499.0</ele><time>2026-04-18T11:52:33Z</time></trkpt><trkpt lat="48.1981693975195" lon="11.702696318469588"><ele>499.0</ele><time>2026-04-18T11:52:34Z</time></trkpt><trkpt lat="48.19825676099727" lon="11.70266869165408"><ele>499.0</ele><time>2026-04-18T11:52:35Z</time></trkpt><trkpt lat="48.198336666553125" lon="11.702612759607785"><ele>499.00000000000006</ele><time>2026-04-18T11:52:36Z</time></trkpt><trkpt lat="48.19840707659611" lon="11.702534648662834"><ele>499.0</ele><time>2026-04-18T11:52:37Z</time></trkpt><trkpt lat="48.19845916527943" lon="11.70243259247432"><ele>499.0</ele><time>2026-04-18T11:52:38Z</time></trkpt><trkpt lat="48.19848962696396" lon="11.702318863222823"><ele>499.0</ele><time>2026-04-18T11:52:39Z</time></trkpt><trkpt lat="48.19849655459557" lon="11.702210297070812"><ele>499.00000000000006</ele><time>2026-04-18T11:52:40Z</time></trkpt><trkpt lat="48.198487667104686" lon="11.702102410705407"><ele>499.0</ele><time>2026-04-18T11:52:41Z</time></trkpt><trkpt lat="48.19847310565186" lon="11.702002027172679"><ele>498.83333333333337</ele><time>2026-04-18T11:52:42Z</time></trkpt><trkpt lat="48.198446860812474" lon="11.701908555694535"><ele>498.6666666666667</ele><time>2026-04-18T11:52:43Z</time></trkpt><trkpt lat="48.19840004261752" lon="11.701824687736682"><ele>498.5</ele><time>2026-04-18T11:52:44Z</time></trkpt><trkpt lat="48.198331364031084" lon="11.701758962952002"><ele>498.33333333333337</ele><time>2026-04-18T11:52:45Z</time></trkpt><trkpt lat="48.19823712512648" lon="11.7016931415222"><ele>498.1666666666667</ele><time>2026-04-18T11:52:46Z</time></trkpt><trkpt lat="48.19815772207521" lon="11.701627083031156"><ele>498.0</ele><time>2026-04-18T11:52:47Z</time></trkpt><trkpt lat="48.198099878480804" lon="11.701530657151737"><ele>498.0</ele><time>2026-04-18T11:52:48Z</time></trkpt><trkpt lat="48.19808184451844" lon="11.701413845259886"><ele>497.99999999999994</ele><time>2026-04-18T11:52:49Z</time></trkpt><trkpt lat="48.198037955284015" lon="11.701301445158915"><ele>497.99999999999994</ele><time>2026-04-18T11:52:50Z</time></trkpt><trkpt lat="48.1980046084385" lon="11.701160847547602"><ele>498.0</ele><time>2026-04-18T11:52:51Z</time></trkpt><trkpt lat="48.19794583012964" lon="11.70101652840044"><ele>498.0</ele><time>2026-04-18T11:52:52Z</time></trkpt><trkpt lat="48.19786185468998" lon="11.700877170396566"><ele>498.0</ele><time>2026-04-18T11:52:53Z</time></trkpt><trkpt lat="48.19776229357907" lon="11.700735128293813"><ele>498.0</ele><time>2026-04-18T11:52:54Z</time></trkpt><trkpt lat="48.197636453009615" lon="11.700607881250518"><ele>498.0</ele><time>2026-04-18T11:52:55Z</time></trkpt><trkpt lat="48.19748114106955" lon="11.700507076846966"><ele>498.0</ele><time>2026-04-18T11:52:56Z</time></trkpt><trkpt lat="48.197356362986056" lon="11.700411501752667"><ele>498.0</ele><time>2026-04-18T11:52:57Z</time></trkpt><trkpt lat="48.19725872237758" lon="11.700301653736663"><ele>498.0</ele><time>2026-04-18T11:52:58Z</time></trkpt><trkpt lat="48.19716975744704" lon="11.7001867405511"><ele>498.0</ele><time>2026-04-18T11:52:59Z</time></trkpt><trkpt lat="48.1970891649563" lon="11.70006409309564"><ele>498.0</ele><time>2026-04-18T11:53:00Z</time></trkpt><trkpt lat="48.19701848418495" lon="11.69993208642481"><ele>498.0</ele><time>2026-04-18T11:53:01Z</time></trkpt><trkpt lat="48.1969530689218" lon="11.699777890353351"><ele>498.0</ele><time>2026-04-18T11:53:02Z</time></trkpt><trkpt lat="48.19688908271811" lon="11.699577970405755"><ele>498.0</ele><time>2026-04-18T11:53:03Z</time></trkpt><trkpt lat="48.196827839254496" lon="11.699335007258597"><ele>498.0</ele><time>2026-04-18T11:53:04Z</time></trkpt><trkpt lat="48.19677365066463" lon="11.699089190482937"><ele>498.0</ele><time>2026-04-18T11:53:05Z</time></trkpt><trkpt lat="48.19670976698386" lon="11.698824236885539"><ele>498.0</ele><time>2026-04-18T11:53:06Z</time></trkpt><trkpt lat="48.196644901949924" lon="11.698566555671599"><ele>498.0</ele><time>2026-04-18T11:53:07Z</time></trkpt><trkpt lat="48.1965828436731" lon="11.6983152608593"><ele>498.0</ele><time>2026-04-18T11:53:08Z</time></trkpt><trkpt lat="48.19651749648108" lon="11.698060762562411"><ele>498.0</ele><time>2026-04-18T11:53:09Z</time></trkpt><trkpt lat="48.19643736653411" lon="11.697808475416071"><ele>498.0</ele><time>2026-04-18T11:53:10Z</time></trkpt><trkpt lat="48.19633837301326" lon="11.697546323041017"><ele>498.0</ele><time>2026-04-18T11:53:11Z</time></trkpt><trkpt lat="48.19623426943867" lon="11.697293934024712"><ele>498.0</ele><time>2026-04-18T11:53:12Z</time></trkpt><trkpt lat="48.19613409658874" lon="11.697054605472287"><ele>498.0</ele><time>2026-04-18T11:53:13Z</time></trkpt><trkpt lat="48.1960325428376" lon="11.696824807753709"><ele>498.0</ele><time>2026-04-18T11:53:14Z</time></trkpt><trkpt lat="48.19592221714849" lon="11.696607647169392"><ele>498.0</ele><time>2026-04-18T11:53:15Z</time></trkpt><trkpt lat="48.19579908191066" lon="11.696392570999096"><ele>498.0</ele><time>2026-04-18T11:53:16Z</time></trkpt><trkpt lat="48.19566956526121" lon="11.696178193330347"><ele>498.0</ele><time>2026-04-18T11:53:17Z</time></trkpt><trkpt lat="48.19553761768724" lon="11.695967688605272"><ele>498.0</ele><time>2026-04-18T11:53:18Z</time></trkpt><trkpt lat="48.19540126731047" lon="11.695760855478662"><ele>498.33333333333337</ele><time>2026-04-18T11:53:19Z</time></trkpt><trkpt lat="48.195262499099975" lon="11.69556793603674"><ele>498.6666666666667</ele><time>2026-04-18T11:53:20Z</time></trkpt><trkpt lat="48.19511859411458" lon="11.695395622786842"><ele>499.0</ele><time>2026-04-18T11:53:21Z</time></trkpt><trkpt lat="48.194974637083455" lon="11.69524177335368"><ele>498.6666666666667</ele><time>2026-04-18T11:53:22Z</time></trkpt><trkpt lat="48.19483066845166" lon="11.695096091835383"><ele>498.33333333333337</ele><time>2026-04-18T11:53:23Z</time></trkpt><trkpt lat="48.19468582349393" lon="11.694961266494358"><ele>498.0</ele><time>2026-04-18T11:53:24Z</time></trkpt><trkpt lat="48.194535909166575" lon="11.69484156487579"><ele>498.0</ele><time>2026-04-18T11:53:25Z</time></trkpt><trkpt lat="48.194381208122074" lon="11.694719977632456"><ele>498.0</ele><time>2026-04-18T11:53:26Z</time></trkpt><trkpt lat="48.194223725069776" lon="11.694601561970964"><ele>498.0</ele><time>2026-04-18T11:53:27Z</time></trkpt><trkpt lat="48.194061700946854" lon="11.6944949428541"><ele>499.33333333333337</ele><time>2026-04-18T11:53:28Z</time></trkpt><trkpt lat="48.19390169363586" lon="11.6943961575247"><ele>500.6666666666667</ele><time>2026-04-18T11:53:29Z</time></trkpt><trkpt lat="48.193731900188205" lon="11.694297342897766"><ele>502.0</ele><time>2026-04-18T11:53:30Z</time></trkpt><trkpt lat="48.193570959133616" lon="11.6941799927965"><ele>502.0</ele><time>2026-04-18T11:53:31Z</time></trkpt><trkpt lat="48.19340788406017" lon="11.694092506467097"><ele>502.0</ele><time>2026-04-18T11:53:32Z</time></trkpt><trkpt lat="48.193239969670365" lon="11.694003024149477"><ele>502.0</ele><time>2026-04-18T11:53:33Z</time></trkpt><trkpt lat="48.19306239999473" lon="11.693908543706607"><ele>501.6666666666667</ele><time>2026-04-18T11:53:34Z</time></trkpt><trkpt lat="48.19289443707694" lon="11.693818179955668"><ele>501.33333333333337</ele><time>2026-04-18T11:53:35Z</time></trkpt><trkpt lat="48.1927297610481" lon="11.693730851617644"><ele>501.0</ele><time>2026-04-18T11:53:36Z</time></trkpt><trkpt lat="48.1925661085356" lon="11.693646743714178"><ele>501.0</ele><time>2026-04-18T11:53:37Z</time></trkpt><trkpt lat="48.192392482703816" lon="11.693583239102962"><ele>501.0</ele><time>2026-04-18T11:53:38Z</time></trkpt><trkpt lat="48.19221487313972" lon="11.693494985718466"><ele>501.0</ele><time>2026-04-18T11:53:39Z</time></trkpt><trkpt lat="48.19202743124829" lon="11.693398677790444"><ele>501.0</ele><time>2026-04-18T11:53:40Z</time></trkpt><trkpt lat="48.19184983132447" lon="11.69330079626741"><ele>501.0</ele><time>2026-04-18T11:53:41Z</time></trkpt><trkpt lat="48.19168133908926" lon="11.693207222680332"><ele>501.0</ele><time>2026-04-18T11:53:42Z</time></trkpt><trkpt lat="48.19151867339036" lon="11.693122635850628"><ele>500.33333333333337</ele><time>2026-04-18T11:53:43Z</time></trkpt><trkpt lat="48.19135443658548" lon="11.6930410470517"><ele>499.6666666666667</ele><time>2026-04-18T11:53:44Z</time></trkpt><trkpt lat="48.191182321394685" lon="11.692950263302455"><ele>499.0</ele><time>2026-04-18T11:53:45Z</time></trkpt><trkpt lat="48.19099530007769" lon="11.692849933599122"><ele>499.33333333333337</ele><time>2026-04-18T11:53:46Z</time></trkpt><trkpt lat="48.19081016650595" lon="11.69274987086015"><ele>499.66666666666663</ele><time>2026-04-18T11:53:47Z</time></trkpt><trkpt lat="48.19062980382675" lon="11.692648111507978"><ele>500.0</ele><time>2026-04-18T11:53:48Z</time></trkpt><trkpt lat="48.190453313664776" lon="11.692556845927333"><ele>500.0</ele><time>2026-04-18T11:53:49Z</time></trkpt><trkpt lat="48.190290959218025" lon="11.692472455406666"><ele>500.0</ele><time>2026-04-18T11:53:50Z</time></trkpt><trkpt lat="48.190149508778305" lon="11.692396412945666"><ele>500.0</ele><time>2026-04-18T11:53:51Z</time></trkpt><trkpt lat="48.190009983553935" lon="11.6923257978995"><ele>500.0</ele><time>2026-04-18T11:53:52Z</time></trkpt><trkpt lat="48.1898770831895" lon="11.692256923840494"><ele>500.0</ele><time>2026-04-18T11:53:53Z</time></trkpt><trkpt lat="48.1897464902716" lon="11.692187691543685"><ele>500.0</ele><time>2026-04-18T11:53:54Z</time></trkpt><trkpt lat="48.18961580054665" lon="11.692120019837732"><ele>500.0</ele><time>2026-04-18T11:53:55Z</time></trkpt><trkpt lat="48.18948258360713" lon="11.692054091387364"><ele>500.0</ele><time>2026-04-18T11:53:56Z</time></trkpt><trkpt lat="48.18934425952809" lon="11.691985372969928"><ele>500.0</ele><time>2026-04-18T11:53:57Z</time></trkpt><trkpt lat="48.18920048603508" lon="11.691916316541485"><ele>500.0</ele><time>2026-04-18T11:53:58Z</time></trkpt><trkpt lat="48.18905479490775" lon="11.691841974613949"><ele>500.25</ele><time>2026-04-18T11:53:59Z</time></trkpt><trkpt lat="48.188917210410644" lon="11.69176589304239"><ele>500.5</ele><time>2026-04-18T11:54:00Z</time></trkpt><trkpt lat="48.18878582228674" lon="11.691694905694803"><ele>500.75</ele><time>2026-04-18T11:54:01Z</time></trkpt><trkpt lat="48.188655132878246" lon="11.691628356901482"><ele>501.0</ele><time>2026-04-18T11:54:02Z</time></trkpt><trkpt lat="48.18852945468823" lon="11.691563308172311"><ele>501.0</ele><time>2026-04-18T11:54:03Z</time></trkpt><trkpt lat="48.18840968312352" lon="11.691517158382847"><ele>501.0</ele><time>2026-04-18T11:54:04Z</time></trkpt><trkpt lat="48.18830424147882" lon="11.691443969522725"><ele>501.0</ele><time>2026-04-18T11:54:05Z</time></trkpt><trkpt lat="48.18819656560082" lon="11.691387630866304"><ele>501.0</ele><time>2026-04-18T11:54:06Z</time></trkpt><trkpt lat="48.1880933684841" lon="11.691333581763143"><ele>501.0</ele><time>2026-04-18T11:54:07Z</time></trkpt><trkpt lat="48.18799463469944" lon="11.691281711907015"><ele>501.0</ele><time>2026-04-18T11:54:08Z</time></trkpt><trkpt lat="48.18789703553397" lon="11.691230543720435"><ele>501.0</ele><time>2026-04-18T11:54:09Z</time></trkpt><trkpt lat="48.18779346847012" lon="11.69119875714386"><ele>501.0</ele><time>2026-04-18T11:54:10Z</time></trkpt><trkpt lat="48.18768844324221" lon="11.691145403546342"><ele>501.0</ele><time>2026-04-18T11:54:11Z</time></trkpt><trkpt lat="48.187566494691254" lon="11.69108406949923"><ele>501.0</ele><time>2026-04-18T11:54:12Z</time></trkpt><trkpt lat="48.18742556186803" lon="11.691008894292382"><ele>501.0</ele><time>2026-04-18T11:54:13Z</time></trkpt><trkpt lat="48.18727354502515" lon="11.690930231909391"><ele>501.0</ele><time>2026-04-18T11:54:14Z</time></trkpt><trkpt lat="48.18711512223686" lon="11.690841687788765"><ele>501.0</ele><time>2026-04-18T11:54:15Z</time></trkpt><trkpt lat="48.18695214513571" lon="11.690751895204802"><ele>501.0</ele><time>2026-04-18T11:54:16Z</time></trkpt><trkpt lat="48.18678592401422" lon="11.690662414829385"><ele>501.0</ele><time>2026-04-18T11:54:17Z</time></trkpt><trkpt lat="48.18661771702171" lon="11.690575634017083"><ele>501.0</ele><time>2026-04-18T11:54:18Z</time></trkpt><trkpt lat="48.18644988428749" lon="11.690486348085152"><ele>501.0</ele><time>2026-04-18T11:54:19Z</time></trkpt><trkpt lat="48.18628567100697" lon="11.690385259964222"><ele>501.0</ele><time>2026-04-18T11:54:20Z</time></trkpt><trkpt lat="48.1861193112016" lon="11.690286684690442"><ele>501.0</ele><time>2026-04-18T11:54:21Z</time></trkpt><trkpt lat="48.18595157023789" lon="11.690196858239718"><ele>501.0</ele><time>2026-04-18T11:54:22Z</time></trkpt><trkpt lat="48.185784668755744" lon="11.690102595489371"><ele>501.0</ele><time>2026-04-18T11:54:23Z</time></trkpt><trkpt lat="48.18561994783002" lon="11.690006537480825"><ele>501.66666666666663</ele><time>2026-04-18T11:54:24Z</time></trkpt><trkpt lat="48.18545489826888" lon="11.689910499148153"><ele>502.3333333333333</ele><time>2026-04-18T11:54:25Z</time></trkpt><trkpt lat="48.185292196024285" lon="11.68980716963713"><ele>503.0</ele><time>2026-04-18T11:54:26Z</time></trkpt><trkpt lat="48.18513198426851" lon="11.68969623193075"><ele>503.0</ele><time>2026-04-18T11:54:27Z</time></trkpt><trkpt lat="48.1849730280021" lon="11.68958094227371"><ele>503.0</ele><time>2026-04-18T11:54:28Z</time></trkpt><trkpt lat="48.18481346844021" lon="11.689463191652713"><ele>503.0</ele><time>2026-04-18T11:54:29Z</time></trkpt><trkpt lat="48.18465557336818" lon="11.689343101989447"><ele>503.0</ele><time>2026-04-18T11:54:30Z</time></trkpt><trkpt lat="48.1845014979196" lon="11.689215064535457"><ele>503.0</ele><time>2026-04-18T11:54:31Z</time></trkpt><trkpt lat="48.18434832573679" lon="11.689083689020324"><ele>503.0</ele><time>2026-04-18T11:54:32Z</time></trkpt><trkpt lat="48.184231768138694" lon="11.688983256104546"><ele>503.0</ele><time>2026-04-18T11:54:33Z</time></trkpt><trkpt lat="48.184131151997335" lon="11.688890415443927"><ele>503.0</ele><time>2026-04-18T11:54:34Z</time></trkpt><trkpt lat="48.18402013799388" lon="11.688784351904747"><ele>503.0</ele><time>2026-04-18T11:54:35Z</time></trkpt><trkpt lat="48.183908793440786" lon="11.68866939419902"><ele>503.0</ele><time>2026-04-18T11:54:36Z</time></trkpt><trkpt lat="48.18379097888487" lon="11.688544556409663"><ele>503.25</ele><time>2026-04-18T11:54:37Z</time></trkpt><trkpt lat="48.183671967974995" lon="11.68840288087949"><ele>503.5</ele><time>2026-04-18T11:54:38Z</time></trkpt><trkpt lat="48.183561722912465" lon="11.68826102794444"><ele>503.75</ele><time>2026-04-18T11:54:39Z</time></trkpt><trkpt lat="48.183454255123586" lon="11.688119396602016"><ele>504.0</ele><time>2026-04-18T11:54:40Z</time></trkpt><trkpt lat="48.183348564445524" lon="11.687972821880729"><ele>504.0</ele><time>2026-04-18T11:54:41Z</time></trkpt><trkpt lat="48.18323152937028" lon="11.687809317731089"><ele>504.0</ele><time>2026-04-18T11:54:42Z</time></trkpt><trkpt lat="48.18311750774601" lon="11.687643343335967"><ele>504.0</ele><time>2026-04-18T11:54:43Z</time></trkpt><trkpt lat="48.18300584789085" lon="11.687482216952196"><ele>503.75</ele><time>2026-04-18T11:54:44Z</time></trkpt><trkpt lat="48.18290650811866" lon="11.687326035961187"><ele>503.5</ele><time>2026-04-18T11:54:45Z</time></trkpt><trkpt lat="48.18281968012515" lon="11.6871722164994"><ele>503.25</ele><time>2026-04-18T11:54:46Z</time></trkpt><trkpt lat="48.18273876730094" lon="11.68702031459292"><ele>503.0</ele><time>2026-04-18T11:54:47Z</time></trkpt><trkpt lat="48.18265860134481" lon="11.686859770286699"><ele>502.66666666666663</ele><time>2026-04-18T11:54:48Z</time></trkpt><trkpt lat="48.18257475313356" lon="11.686686153728571"><ele>502.33333333333337</ele><time>2026-04-18T11:54:49Z</time></trkpt><trkpt lat="48.182486369440156" lon="11.686494670806889"><ele>502.0</ele><time>2026-04-18T11:54:50Z</time></trkpt><trkpt lat="48.182392589007534" lon="11.686277518490858"><ele>502.33333333333337</ele><time>2026-04-18T11:54:51Z</time></trkpt><trkpt lat="48.182298365975484" lon="11.68604736872469"><ele>502.66666666666663</ele><time>2026-04-18T11:54:52Z</time></trkpt><trkpt lat="48.1822087792605" lon="11.68580935175916"><ele>503.0</ele><time>2026-04-18T11:54:53Z</time></trkpt><trkpt lat="48.18212869379713" lon="11.68556739721454"><ele>503.0</ele><time>2026-04-18T11:54:54Z</time></trkpt><trkpt lat="48.18205159711662" lon="11.68532486136147"><ele>503.0</ele><time>2026-04-18T11:54:55Z</time></trkpt><trkpt lat="48.18198017449977" lon="11.6850787492652"><ele>503.0</ele><time>2026-04-18T11:54:56Z</time></trkpt><trkpt lat="48.1819131187518" lon="11.684827999508235"><ele>503.0</ele><time>2026-04-18T11:54:57Z</time></trkpt><trkpt lat="48.181852885156694" lon="11.684574480870308"><ele>503.0</ele><time>2026-04-18T11:54:58Z</time></trkpt><trkpt lat="48.18179917525908" lon="11.684316497331196"><ele>503.0</ele><time>2026-04-18T11:54:59Z</time></trkpt><trkpt lat="48.18175130023754" lon="11.684053677956499"><ele>502.66666666666663</ele><time>2026-04-18T11:55:00Z</time></trkpt><trkpt lat="48.181709055537986" lon="11.683776499417739"><ele>502.33333333333337</ele><time>2026-04-18T11:55:01Z</time></trkpt><trkpt lat="48.18167134691344" lon="11.683483129336961"><ele>502.0</ele><time>2026-04-18T11:55:02Z</time></trkpt><trkpt lat="48.18163781287081" lon="11.683170188768877"><ele>502.0</ele><time>2026-04-18T11:55:03Z</time></trkpt><trkpt lat="48.18161025430952" lon="11.68285055559801"><ele>502.0</ele><time>2026-04-18T11:55:04Z</time></trkpt><trkpt lat="48.181589231771575" lon="11.68253266239432"><ele>502.0</ele><time>2026-04-18T11:55:05Z</time></trkpt><trkpt lat="48.1815779104121" lon="11.682203068952637"><ele>502.33333333333337</ele><time>2026-04-18T11:55:06Z</time></trkpt><trkpt lat="48.181570185211626" lon="11.681879438349752"><ele>502.66666666666663</ele><time>2026-04-18T11:55:07Z</time></trkpt><trkpt lat="48.181568112323546" lon="11.681555652289926"><ele>503.0</ele><time>2026-04-18T11:55:08Z</time></trkpt><trkpt lat="48.18157394775435" lon="11.68124606711887"><ele>503.0</ele><time>2026-04-18T11:55:09Z</time></trkpt><trkpt lat="48.18158243345006" lon="11.680946016746322"><ele>503.0</ele><time>2026-04-18T11:55:10Z</time></trkpt><trkpt lat="48.181592269765225" lon="11.680649782974179"><ele>503.0</ele><time>2026-04-18T11:55:11Z</time></trkpt><trkpt lat="48.181606582850065" lon="11.68034972869601"><ele>503.0</ele><time>2026-04-18T11:55:12Z</time></trkpt><trkpt lat="48.181624961408765" lon="11.680044849754653"><ele>503.0</ele><time>2026-04-18T11:55:13Z</time></trkpt><trkpt lat="48.18164617934017" lon="11.67973699501126"><ele>503.0</ele><time>2026-04-18T11:55:14Z</time></trkpt><trkpt lat="48.18166967674741" lon="11.67942370040435"><ele>503.0</ele><time>2026-04-18T11:55:15Z</time></trkpt><trkpt lat="48.18169694925575" lon="11.679106328883618"><ele>503.0</ele><time>2026-04-18T11:55:16Z</time></trkpt><trkpt lat="48.181723069794934" lon="11.678788400706736"><ele>503.0</ele><time>2026-04-18T11:55:17Z</time></trkpt><trkpt lat="48.181742044721965" lon="11.678467173652388"><ele>503.0</ele><time>2026-04-18T11:55:18Z</time></trkpt><trkpt lat="48.181783772371546" lon="11.678143173875176"><ele>503.0</ele><time>2026-04-18T11:55:19Z</time></trkpt><trkpt lat="48.18181351365698" lon="11.677806895139279"><ele>503.0</ele><time>2026-04-18T11:55:20Z</time></trkpt><trkpt lat="48.181841884313336" lon="11.677466524142863"><ele>503.3333333333333</ele><time>2026-04-18T11:55:21Z</time></trkpt><trkpt lat="48.181868921424645" lon="11.677133683464636"><ele>503.66666666666663</ele><time>2026-04-18T11:55:22Z</time></trkpt><trkpt lat="48.181879673354224" lon="11.676811979545299"><ele>504.0</ele><time>2026-04-18T11:55:23Z</time></trkpt><trkpt lat="48.18192332471163" lon="11.676512756248005"><ele>504.0</ele><time>2026-04-18T11:55:24Z</time></trkpt><trkpt lat="48.181949443196466" lon="11.676224082096358"><ele>504.0</ele><time>2026-04-18T11:55:25Z</time></trkpt><trkpt lat="48.18197468311491" lon="11.675945134720505"><ele>504.0</ele><time>2026-04-18T11:55:26Z</time></trkpt><trkpt lat="48.18199862949265" lon="11.675678829821775"><ele>503.66666666666663</ele><time>2026-04-18T11:55:27Z</time></trkpt><trkpt lat="48.182019918026036" lon="11.675418929162973"><ele>503.3333333333333</ele><time>2026-04-18T11:55:28Z</time></trkpt><trkpt lat="48.18202516464456" lon="11.675160880747978"><ele>503.0</ele><time>2026-04-18T11:55:29Z</time></trkpt><trkpt lat="48.18204624498204" lon="11.674904293442626"><ele>503.0</ele><time>2026-04-18T11:55:30Z</time></trkpt><trkpt lat="48.182085992813896" lon="11.674651912252063"><ele>503.0</ele><time>2026-04-18T11:55:31Z</time></trkpt><trkpt lat="48.18210966898588" lon="11.67439437406424"><ele>503.0</ele><time>2026-04-18T11:55:32Z</time></trkpt><trkpt lat="48.182131710436714" lon="11.674154617622513"><ele>503.0</ele><time>2026-04-18T11:55:33Z</time></trkpt><trkpt lat="48.18215250730167" lon="11.673925606408195"><ele>503.0</ele><time>2026-04-18T11:55:34Z</time></trkpt><trkpt lat="48.182172303621" lon="11.673705748007917"><ele>503.0</ele><time>2026-04-18T11:55:35Z</time></trkpt><trkpt lat="48.18219151840021" lon="11.6734864403691"><ele>503.0</ele><time>2026-04-18T11:55:36Z</time></trkpt><trkpt lat="48.1821967104259" lon="11.673263113689568"><ele>503.0</ele><time>2026-04-18T11:55:37Z</time></trkpt><trkpt lat="48.18221861587315" lon="11.673043457481484"><ele>503.0</ele><time>2026-04-18T11:55:38Z</time></trkpt><trkpt lat="48.18224023692645" lon="11.672821220683781"><ele>503.0</ele><time>2026-04-18T11:55:39Z</time></trkpt><trkpt lat="48.182261381756526" lon="11.67260139476272"><ele>503.0</ele><time>2026-04-18T11:55:40Z</time></trkpt><trkpt lat="48.18228248866512" lon="11.67237974887438"><ele>503.0</ele><time>2026-04-18T11:55:41Z</time></trkpt><trkpt lat="48.182304306252" lon="11.672157289538925"><ele>503.0</ele><time>2026-04-18T11:55:42Z</time></trkpt><trkpt lat="48.182326559977646" lon="11.671926194675374"><ele>503.0</ele><time>2026-04-18T11:55:43Z</time></trkpt><trkpt lat="48.182344434594995" lon="11.671688438275611"><ele>503.0</ele><time>2026-04-18T11:55:44Z</time></trkpt><trkpt lat="48.182366652189486" lon="11.671447404881622"><ele>503.0</ele><time>2026-04-18T11:55:45Z</time></trkpt><trkpt lat="48.1823901874262" lon="11.671216517892207"><ele>503.0</ele><time>2026-04-18T11:55:46Z</time></trkpt><trkpt lat="48.18240854758067" lon="11.67098787629755"><ele>503.0</ele><time>2026-04-18T11:55:47Z</time></trkpt><trkpt lat="48.182427856562676" lon="11.670762207069076"><ele>503.0</ele><time>2026-04-18T11:55:48Z</time></trkpt><trkpt lat="48.18244460536212" lon="11.670540953936406"><ele>503.0</ele><time>2026-04-18T11:55:49Z</time></trkpt><trkpt lat="48.182461868474874" lon="11.670320925797691"><ele>503.0</ele><time>2026-04-18T11:55:50Z</time></trkpt><trkpt lat="48.182480066104574" lon="11.670104530079657"><ele>503.25</ele><time>2026-04-18T11:55:51Z</time></trkpt><trkpt lat="48.18249567868653" lon="11.669887476503066"><ele>503.5</ele><time>2026-04-18T11:55:52Z</time></trkpt><trkpt lat="48.182510737967554" lon="11.669670853596115"><ele>503.75</ele><time>2026-04-18T11:55:53.001Z</time></trkpt><trkpt lat="48.18254636787854" lon="11.669452864083562"><ele>504.0</ele><time>2026-04-18T11:55:54.001Z</time></trkpt><trkpt lat="48.182566935224386" lon="11.6692253552257"><ele>504.0</ele><time>2026-04-18T11:55:55.001Z</time></trkpt><trkpt lat="48.18258808454063" lon="11.668991408719311"><ele>504.0</ele><time>2026-04-18T11:55:56.001Z</time></trkpt><trkpt lat="48.182609369396715" lon="11.66874810909135"><ele>504.0</ele><time>2026-04-18T11:55:57.001Z</time></trkpt><trkpt lat="48.18263153104535" lon="11.668490421085734"><ele>504.0</ele><time>2026-04-18T11:55:58.001Z</time></trkpt><trkpt lat="48.18265432635615" lon="11.668226427991492"><ele>504.0</ele><time>2026-04-18T11:55:59.001Z</time></trkpt><trkpt lat="48.1826638346616" lon="11.667937090577155"><ele>504.0</ele><time>2026-04-18T11:56:00.001Z</time></trkpt><trkpt lat="48.18269144461004" lon="11.66762361350455"><ele>504.5</ele><time>2026-04-18T11:56:01.001Z</time></trkpt><trkpt lat="48.18272511008559" lon="11.667263327722369"><ele>505.0</ele><time>2026-04-18T11:56:02.001Z</time></trkpt><trkpt lat="48.18275861532607" lon="11.66688739209972"><ele>505.0</ele><time>2026-04-18T11:56:03.001Z</time></trkpt><trkpt lat="48.18280774785668" lon="11.66652298093693"><ele>505.0</ele><time>2026-04-18T11:56:04.001Z</time></trkpt><trkpt lat="48.18282374865793" lon="11.666153176383286"><ele>505.0</ele><time>2026-04-18T11:56:05.001Z</time></trkpt><trkpt lat="48.182871588009434" lon="11.66580273589889"><ele>505.0</ele><time>2026-04-18T11:56:06.001Z</time></trkpt><trkpt lat="48.182902899255794" lon="11.665449482134571"><ele>506.0</ele><time>2026-04-18T11:56:07.001Z</time></trkpt><trkpt lat="48.18293495796848" lon="11.665092905900641"><ele>507.0</ele><time>2026-04-18T11:56:08.001Z</time></trkpt><trkpt lat="48.1829559787197" lon="11.664746678654584"><ele>506.0</ele><time>2026-04-18T11:56:09.001Z</time></trkpt><trkpt lat="48.182980434655036" lon="11.664410381817257"><ele>505.0</ele><time>2026-04-18T11:56:10.001Z</time></trkpt><trkpt lat="48.183006331969395" lon="11.664086703425198"><ele>504.0</ele><time>2026-04-18T11:56:11.001Z</time></trkpt><trkpt lat="48.1830325061958" lon="11.663769818005152"><ele>504.0</ele><time>2026-04-18T11:56:12.001Z</time></trkpt><trkpt lat="48.18305008386498" lon="11.66345673728516"><ele>504.0</ele><time>2026-04-18T11:56:13.001Z</time></trkpt><trkpt lat="48.183080859407255" lon="11.663141995771223"><ele>504.0</ele><time>2026-04-18T11:56:14.001Z</time></trkpt><trkpt lat="48.18307937012567" lon="11.66280626461326"><ele>504.5</ele><time>2026-04-18T11:56:15.001Z</time></trkpt><trkpt lat="48.18308487228859" lon="11.662449793446944"><ele>505.0</ele><time>2026-04-18T11:56:16.001Z</time></trkpt><trkpt lat="48.18307311092293" lon="11.662081648539317"><ele>504.6666666666667</ele><time>2026-04-18T11:56:17.001Z</time></trkpt><trkpt lat="48.18304722974359" lon="11.661734919472856"><ele>504.33333333333337</ele><time>2026-04-18T11:56:18.001Z</time></trkpt><trkpt lat="48.183018870035276" lon="11.661415520044136"><ele>504.0</ele><time>2026-04-18T11:56:19.001Z</time></trkpt><trkpt lat="48.1829865985735" lon="11.661134885914539"><ele>503.33333333333337</ele><time>2026-04-18T11:56:20.001Z</time></trkpt><trkpt lat="48.18296426889465" lon="11.660862949302915"><ele>502.6666666666667</ele><time>2026-04-18T11:56:21.001Z</time></trkpt><trkpt lat="48.18291885945023" lon="11.660599536995665"><ele>502.0</ele><time>2026-04-18T11:56:22.001Z</time></trkpt><trkpt lat="48.182869615817104" lon="11.660336109903541"><ele>502.0</ele><time>2026-04-18T11:56:23.001Z</time></trkpt><trkpt lat="48.1828183657048" lon="11.660079309417469"><ele>502.0</ele><time>2026-04-18T11:56:24.001Z</time></trkpt><trkpt lat="48.18276568674227" lon="11.659843073398257"><ele>502.0</ele><time>2026-04-18T11:56:25.001Z</time></trkpt><trkpt lat="48.18269942820567" lon="11.659627810813857"><ele>502.6666666666667</ele><time>2026-04-18T11:56:26.001Z</time></trkpt><trkpt lat="48.1826575651557" lon="11.659402211805157"><ele>503.33333333333337</ele><time>2026-04-18T11:56:27.001Z</time></trkpt><trkpt lat="48.18260222234867" lon="11.659185689685696"><ele>504.0</ele><time>2026-04-18T11:56:28.001Z</time></trkpt><trkpt lat="48.182533123775904" lon="11.658974709949042"><ele>504.0</ele><time>2026-04-18T11:56:29.001Z</time></trkpt><trkpt lat="48.182456527832485" lon="11.658762623475193"><ele>504.0</ele><time>2026-04-18T11:56:30.001Z</time></trkpt><trkpt lat="48.18236598855703" lon="11.658527557465513"><ele>504.0</ele><time>2026-04-18T11:56:31.001Z</time></trkpt><trkpt lat="48.18227872617605" lon="11.658302251693092"><ele>504.0</ele><time>2026-04-18T11:56:32.001Z</time></trkpt><trkpt lat="48.18219112634646" lon="11.658100593063812"><ele>504.0</ele><time>2026-04-18T11:56:33.001Z</time></trkpt><trkpt lat="48.182101854150076" lon="11.657911424816922"><ele>504.0</ele><time>2026-04-18T11:56:34.001Z</time></trkpt><trkpt lat="48.18201027670438" lon="11.657721879038986"><ele>504.33333333333337</ele><time>2026-04-18T11:56:35.001Z</time></trkpt><trkpt lat="48.18191438706414" lon="11.657531573334502"><ele>504.6666666666667</ele><time>2026-04-18T11:56:36.001Z</time></trkpt><trkpt lat="48.18181417711065" lon="11.657351294941035"><ele>505.0</ele><time>2026-04-18T11:56:37.001Z</time></trkpt><trkpt lat="48.181711772637556" lon="11.657184850220082"><ele>505.0</ele><time>2026-04-18T11:56:38.001Z</time></trkpt><trkpt lat="48.181612242766676" lon="11.657024550915441"><ele>505.0</ele><time>2026-04-18T11:56:39.001Z</time></trkpt><trkpt lat="48.181514815268145" lon="11.656870802764196"><ele>505.0</ele><time>2026-04-18T11:56:40.001Z</time></trkpt><trkpt lat="48.18141854512962" lon="11.656731086866474"><ele>505.0</ele><time>2026-04-18T11:56:41.001Z</time></trkpt><trkpt lat="48.18132605663402" lon="11.656598316061881"><ele>504.8</ele><time>2026-04-18T11:56:42.001Z</time></trkpt><trkpt lat="48.181236764744405" lon="11.656477037475458"><ele>504.6</ele><time>2026-04-18T11:56:43.001Z</time></trkpt><trkpt lat="48.181159373815994" lon="11.656376017402845"><ele>504.4</ele><time>2026-04-18T11:56:44.001Z</time></trkpt><trkpt lat="48.181089515004544" lon="11.656278556739775"><ele>504.2</ele><time>2026-04-18T11:56:45.001Z</time></trkpt><trkpt lat="48.181022045959615" lon="11.656178339897513"><ele>504.0</ele><time>2026-04-18T11:56:46.001Z</time></trkpt><trkpt lat="48.18095109255268" lon="11.656082349265393"><ele>504.0</ele><time>2026-04-18T11:56:47.001Z</time></trkpt><trkpt lat="48.180881095969156" lon="11.65598368034023"><ele>504.0</ele><time>2026-04-18T11:56:48.001Z</time></trkpt><trkpt lat="48.18082032614864" lon="11.65587111070589"><ele>504.0</ele><time>2026-04-18T11:56:49.001Z</time></trkpt><trkpt lat="48.18077138036786" lon="11.655745440283642"><ele>504.0</ele><time>2026-04-18T11:56:50.001Z</time></trkpt><trkpt lat="48.180738102273445" lon="11.655609947152355"><ele>504.0</ele><time>2026-04-18T11:56:51.001Z</time></trkpt><trkpt lat="48.180727493565016" lon="11.655461797539765"><ele>504.0</ele><time>2026-04-18T11:56:52.001Z</time></trkpt><trkpt lat="48.1807333446623" lon="11.655307210627141"><ele>504.0</ele><time>2026-04-18T11:56:53.001Z</time></trkpt><trkpt lat="48.18075047089577" lon="11.655144671954286"><ele>504.0</ele><time>2026-04-18T11:56:54.001Z</time></trkpt><trkpt lat="48.18078952047827" lon="11.65497762019615"><ele>504.0</ele><time>2026-04-18T11:56:55.001Z</time></trkpt><trkpt lat="48.18085275224842" lon="11.654828252339364"><ele>504.0</ele><time>2026-04-18T11:56:56.001Z</time></trkpt><trkpt lat="48.180929368075695" lon="11.654703582245777"><ele>504.0</ele><time>2026-04-18T11:56:57.001Z</time></trkpt><trkpt lat="48.18099857277062" lon="11.654578713645579"><ele>504.0</ele><time>2026-04-18T11:56:58.001Z</time></trkpt><trkpt lat="48.18105679380424" lon="11.654433327178"><ele>504.0</ele><time>2026-04-18T11:56:59.001Z</time></trkpt><trkpt lat="48.18112328675117" lon="11.654288408282286"><ele>504.0</ele><time>2026-04-18T11:57:00.001Z</time></trkpt><trkpt lat="48.18120155628572" lon="11.654141154929842"><ele>503.75</ele><time>2026-04-18T11:57:01.001Z</time></trkpt><trkpt lat="48.18127933474401" lon="11.654001625944824"><ele>503.5</ele><time>2026-04-18T11:57:02.001Z</time></trkpt><trkpt lat="48.18135081696988" lon="11.65386994647251"><ele>503.25</ele><time>2026-04-18T11:57:03.001Z</time></trkpt><trkpt lat="48.18142272036905" lon="11.653738958960725"><ele>503.0</ele><time>2026-04-18T11:57:04.001Z</time></trkpt><trkpt lat="48.18149350750422" lon="11.653596209663458"><ele>503.79999999999995</ele><time>2026-04-18T11:57:05.001Z</time></trkpt><trkpt lat="48.18155811545807" lon="11.653455347154955"><ele>504.59999999999997</ele><time>2026-04-18T11:57:06.001Z</time></trkpt><trkpt lat="48.18161518387736" lon="11.653325365555295"><ele>505.40000000000003</ele><time>2026-04-18T11:57:07.001Z</time></trkpt><trkpt lat="48.1816628994602" lon="11.653208107607814"><ele>506.20000000000005</ele><time>2026-04-18T11:57:08.001Z</time></trkpt><trkpt lat="48.18170661476662" lon="11.653100801330638"><ele>507.0</ele><time>2026-04-18T11:57:09.001Z</time></trkpt><trkpt lat="48.1817468386203" lon="11.652993986491104"><ele>507.0</ele><time>2026-04-18T11:57:10.001Z</time></trkpt><trkpt lat="48.18177978603484" lon="11.652890685072695"><ele>507.0</ele><time>2026-04-18T11:57:11.001Z</time></trkpt><trkpt lat="48.181823225677334" lon="11.65280626959013"><ele>507.0</ele><time>2026-04-18T11:57:12.001Z</time></trkpt><trkpt lat="48.18189033504733" lon="11.652772230348072"><ele>507.0</ele><time>2026-04-18T11:57:13.001Z</time></trkpt><trkpt lat="48.18195709502782" lon="11.652763546617923"><ele>507.0</ele><time>2026-04-18T11:57:14.001Z</time></trkpt><trkpt lat="48.18201450981069" lon="11.652716544382852"><ele>507.0</ele><time>2026-04-18T11:57:15.001Z</time></trkpt><trkpt lat="48.18205201165887" lon="11.652622885182044"><ele>507.0</ele><time>2026-04-18T11:57:16.001Z</time></trkpt><trkpt lat="48.18206063716043" lon="11.652510818858513"><ele>506.8333333333333</ele><time>2026-04-18T11:57:17.001Z</time></trkpt><trkpt lat="48.18203732598149" lon="11.652393477658348"><ele>506.66666666666663</ele><time>2026-04-18T11:57:18.001Z</time></trkpt><trkpt lat="48.18198597414655" lon="11.652299454747416"><ele>506.5</ele><time>2026-04-18T11:57:19.001Z</time></trkpt><trkpt lat="48.18191423262568" lon="11.652251696580873"><ele>506.3333333333333</ele><time>2026-04-18T11:57:20.001Z</time></trkpt><trkpt lat="48.1818371653998" lon="11.652260166376571"><ele>506.16666666666663</ele><time>2026-04-18T11:57:21.001Z</time></trkpt><trkpt lat="48.1817706206799" lon="11.652314438725643"><ele>506.0</ele><time>2026-04-18T11:57:22.001Z</time></trkpt><trkpt lat="48.18172556635749" lon="11.652407607212512"><ele>505.99999999999994</ele><time>2026-04-18T11:57:23.001Z</time></trkpt><trkpt lat="48.18170848830674" lon="11.65251608267766"><ele>506.0</ele><time>2026-04-18T11:57:24.001Z</time></trkpt><trkpt lat="48.18172726359986" lon="11.652625830239836"><ele>506.0</ele><time>2026-04-18T11:57:25.001Z</time></trkpt><trkpt lat="48.18173736748434" lon="11.652738343492477"><ele>506.0</ele><time>2026-04-18T11:57:26.001Z</time></trkpt><trkpt lat="48.18171165526194" lon="11.652866960106179"><ele>505.99999999999994</ele><time>2026-04-18T11:57:27.001Z</time></trkpt><trkpt lat="48.181674338706436" lon="11.652993575343977"><ele>506.0</ele><time>2026-04-18T11:57:28.001Z</time></trkpt><trkpt lat="48.18163392141955" lon="11.653124285522054"><ele>506.0</ele><time>2026-04-18T11:57:29.001Z</time></trkpt><trkpt lat="48.18159395887407" lon="11.653246272521413"><ele>506.0</ele><time>2026-04-18T11:57:30.001Z</time></trkpt><trkpt lat="48.18154855749766" lon="11.653365344278066"><ele>506.0</ele><time>2026-04-18T11:57:31.001Z</time></trkpt><trkpt lat="48.18149192769755" lon="11.653499531179447"><ele>506.0</ele><time>2026-04-18T11:57:32.001Z</time></trkpt><trkpt lat="48.1814189618394" lon="11.653641221350036"><ele>506.0</ele><time>2026-04-18T11:57:33.001Z</time></trkpt><trkpt lat="48.18134852401974" lon="11.653773211844516"><ele>505.4</ele><time>2026-04-18T11:57:34.001Z</time></trkpt><trkpt lat="48.18128443703981" lon="11.65390029413821"><ele>504.8</ele><time>2026-04-18T11:57:35.001Z</time></trkpt><trkpt lat="48.18122207600966" lon="11.654021189749482"><ele>504.19999999999993</ele><time>2026-04-18T11:57:36.001Z</time></trkpt><trkpt lat="48.181157174170416" lon="11.654134210342807"><ele>503.59999999999997</ele><time>2026-04-18T11:57:37.001Z</time></trkpt><trkpt lat="48.181091657502954" lon="11.654250536663062"><ele>503.0</ele><time>2026-04-18T11:57:38.001Z</time></trkpt><trkpt lat="48.18101925688734" lon="11.65437888040665"><ele>503.2</ele><time>2026-04-18T11:57:39.001Z</time></trkpt><trkpt lat="48.180949258911006" lon="11.654498928829046"><ele>503.4</ele><time>2026-04-18T11:57:40.001Z</time></trkpt><trkpt lat="48.18088592941147" lon="11.654612482592485"><ele>503.59999999999997</ele><time>2026-04-18T11:57:41.001Z</time></trkpt><trkpt lat="48.18082718452794" lon="11.654725368497663"><ele>503.79999999999995</ele><time>2026-04-18T11:57:42.001Z</time></trkpt><trkpt lat="48.180769483966785" lon="11.654837073645501"><ele>504.0</ele><time>2026-04-18T11:57:43.001Z</time></trkpt><trkpt lat="48.18071596396607" lon="11.654941365893489"><ele>504.0</ele><time>2026-04-18T11:57:44.001Z</time></trkpt><trkpt lat="48.180668755085435" lon="11.655024972567281"><ele>504.0</ele><time>2026-04-18T11:57:45.001Z</time></trkpt><trkpt lat="48.180627343382305" lon="11.655096433192016"><ele>504.0</ele><time>2026-04-18T11:57:46.001Z</time></trkpt><trkpt lat="48.18051016689605" lon="11.655185512740033"><ele>504.0</ele><time>2026-04-18T11:57:48.001Z</time></trkpt><trkpt lat="48.18042151377587" lon="11.655204696725916"><ele>504.0</ele><time>2026-04-18T11:57:49.001Z</time></trkpt><trkpt lat="48.18032808718488" lon="11.65522909450094"><ele>504.3333333333333</ele><time>2026-04-18T11:57:50.001Z</time></trkpt><trkpt lat="48.18025886570373" lon="11.655344206846861"><ele>504.66666666666663</ele><time>2026-04-18T11:57:51.001Z</time></trkpt><trkpt lat="48.18022036872234" lon="11.655438420352942"><ele>505.0</ele><time>2026-04-18T11:57:52.001Z</time></trkpt><trkpt lat="48.18020086976136" lon="11.655535394136173"><ele>505.3333333333333</ele><time>2026-04-18T11:57:53.001Z</time></trkpt><trkpt lat="48.180202883263874" lon="11.655635244260033"><ele>505.66666666666663</ele><time>2026-04-18T11:57:54.001Z</time></trkpt><trkpt lat="48.18022308245369" lon="11.655739272061089"><ele>506.0</ele><time>2026-04-18T11:57:55.001Z</time></trkpt><trkpt lat="48.18026780424827" lon="11.655829748582208"><ele>505.99999999999994</ele><time>2026-04-18T11:57:56.001Z</time></trkpt><trkpt lat="48.1803313436369" lon="11.655892991169335"><ele>506.0</ele><time>2026-04-18T11:57:57.001Z</time></trkpt><trkpt lat="48.180402709517686" lon="11.655946031391373"><ele>506.0</ele><time>2026-04-18T11:57:58.001Z</time></trkpt><trkpt lat="48.18048497392919" lon="11.655915890998928"><ele>506.0</ele><time>2026-04-18T11:57:59.001Z</time></trkpt><trkpt lat="48.18055574991974" lon="11.655864961859297"><ele>505.99999999999994</ele><time>2026-04-18T11:58:00.001Z</time></trkpt><trkpt lat="48.18061489094884" lon="11.65578840137871"><ele>506.0</ele><time>2026-04-18T11:58:01.001Z</time></trkpt><trkpt lat="48.18064675179656" lon="11.655682065813478"><ele>505.99999999999994</ele><time>2026-04-18T11:58:02.001Z</time></trkpt><trkpt lat="48.180646663838935" lon="11.65556602582991"><ele>506.0</ele><time>2026-04-18T11:58:03.001Z</time></trkpt><trkpt lat="48.18062166805177" lon="11.655452089519484"><ele>506.0</ele><time>2026-04-18T11:58:04.001Z</time></trkpt><trkpt lat="48.180571274852014" lon="11.655342890801649"><ele>506.0</ele><time>2026-04-18T11:58:05.001Z</time></trkpt><trkpt lat="48.180496390220455" lon="11.655259342423063"><ele>505.99999999999994</ele><time>2026-04-18T11:58:06.001Z</time></trkpt><trkpt lat="48.18040392945587" lon="11.655258792109878"><ele>506.0</ele><time>2026-04-18T11:58:07.001Z</time></trkpt><trkpt lat="48.180330439888515" lon="11.655287765227783"><ele>506.00000000000006</ele><time>2026-04-18T11:58:08.001Z</time></trkpt><trkpt lat="48.18026270416464" lon="11.6553416156824"><ele>506.0</ele><time>2026-04-18T11:58:09.001Z</time></trkpt><trkpt lat="48.180221441786166" lon="11.655436595762096"><ele>506.00000000000006</ele><time>2026-04-18T11:58:10.001Z</time></trkpt><trkpt lat="48.18019815838527" lon="11.65554599544249"><ele>506.00000000000006</ele><time>2026-04-18T11:58:11.001Z</time></trkpt><trkpt lat="48.18020425118243" lon="11.655658088138194"><ele>506.0</ele><time>2026-04-18T11:58:12.001Z</time></trkpt><trkpt lat="48.18022847647577" lon="11.655764367619124"><ele>506.00000000000006</ele><time>2026-04-18T11:58:13.001Z</time></trkpt><trkpt lat="48.18027253209053" lon="11.655838817859705"><ele>506.00000000000006</ele><time>2026-04-18T11:58:14.001Z</time></trkpt><trkpt lat="48.18032750253381" lon="11.655889735470216"><ele>505.99999999999994</ele><time>2026-04-18T11:58:15.001Z</time></trkpt><trkpt lat="48.180394930623166" lon="11.655922183442827"><ele>506.0</ele><time>2026-04-18T11:58:16.001Z</time></trkpt><trkpt lat="48.18047117177233" lon="11.655933056040876"><ele>506.0</ele><time>2026-04-18T11:58:17.001Z</time></trkpt><trkpt lat="48.18054974480869" lon="11.655867680305667"><ele>506.0</ele><time>2026-04-18T11:58:18.001Z</time></trkpt><trkpt lat="48.180613268055396" lon="11.655767117460103"><ele>505.99999999999994</ele><time>2026-04-18T11:58:19.001Z</time></trkpt><trkpt lat="48.1806484671116" lon="11.655648314392867"><ele>506.0</ele><time>2026-04-18T11:58:20.001Z</time></trkpt><trkpt lat="48.18064478366768" lon="11.65553127863342"><ele>505.99999999999994</ele><time>2026-04-18T11:58:21.001Z</time></trkpt><trkpt lat="48.1806134507998" lon="11.655426528247284"><ele>506.0</ele><time>2026-04-18T11:58:22.001Z</time></trkpt><trkpt lat="48.180559085583134" lon="11.65534393188317"><ele>506.0</ele><time>2026-04-18T11:58:23.001Z</time></trkpt><trkpt lat="48.1804858757663" lon="11.655296494934422"><ele>506.0</ele><time>2026-04-18T11:58:24.001Z</time></trkpt><trkpt lat="48.180389799232394" lon="11.655297369639992"><ele>505.99999999999994</ele><time>2026-04-18T11:58:25.001Z</time></trkpt><trkpt lat="48.180293966898915" lon="11.655314273016346"><ele>506.0</ele><time>2026-04-18T11:58:26.001Z</time></trkpt><trkpt lat="48.180215673979674" lon="11.655264467968964"><ele>506.0</ele><time>2026-04-18T11:58:27.001Z</time></trkpt><trkpt lat="48.18015719376527" lon="11.655212717679513"><ele>506.0</ele><time>2026-04-18T11:58:28.001Z</time></trkpt><trkpt lat="48.180099540705854" lon="11.65513924670391"><ele>506.0</ele><time>2026-04-18T11:58:29.001Z</time></trkpt><trkpt lat="48.18002372527956" lon="11.655042723775745"><ele>506.0</ele><time>2026-04-18T11:58:30.001Z</time></trkpt><trkpt lat="48.17993107181872" lon="11.654933719570968"><ele>506.0</ele><time>2026-04-18T11:58:31.001Z</time></trkpt><trkpt lat="48.17982436505981" lon="11.65481496686795"><ele>506.0</ele><time>2026-04-18T11:58:32.001Z</time></trkpt><trkpt lat="48.17972635863676" lon="11.654693454731952"><ele>506.0</ele><time>2026-04-18T11:58:33.001Z</time></trkpt><trkpt lat="48.179621163153215" lon="11.654547864412672"><ele>506.0</ele><time>2026-04-18T11:58:34.001Z</time></trkpt><trkpt lat="48.179530843085324" lon="11.654416594262987"><ele>506.0</ele><time>2026-04-18T11:58:35.001Z</time></trkpt><trkpt lat="48.17943514958083" lon="11.654270645196448"><ele>505.3333333333333</ele><time>2026-04-18T11:58:36.001Z</time></trkpt><trkpt lat="48.17932310790729" lon="11.654051108173956"><ele>504.66666666666663</ele><time>2026-04-18T11:58:37.001Z</time></trkpt><trkpt lat="48.17920452795242" lon="11.65384905491758"><ele>504.0</ele><time>2026-04-18T11:58:38.001Z</time></trkpt><trkpt lat="48.1791031773796" lon="11.653664346775546"><ele>503.66666666666663</ele><time>2026-04-18T11:58:39.001Z</time></trkpt><trkpt lat="48.179008030786726" lon="11.65348243125871"><ele>503.3333333333333</ele><time>2026-04-18T11:58:40.001Z</time></trkpt><trkpt lat="48.17890827720307" lon="11.653277946263987"><ele>503.0</ele><time>2026-04-18T11:58:41.001Z</time></trkpt><trkpt lat="48.1788036224879" lon="11.653046018276342"><ele>503.0</ele><time>2026-04-18T11:58:42.001Z</time></trkpt><trkpt lat="48.17871453985098" lon="11.652833689268338"><ele>503.0</ele><time>2026-04-18T11:58:43.001Z</time></trkpt><trkpt lat="48.1786324138206" lon="11.652624866555227"><ele>503.0</ele><time>2026-04-18T11:58:44.001Z</time></trkpt><trkpt lat="48.178551530583064" lon="11.652403493755338"><ele>504.3333333333333</ele><time>2026-04-18T11:58:45.001Z</time></trkpt><trkpt lat="48.17847088841478" lon="11.652170360976237"><ele>505.66666666666663</ele><time>2026-04-18T11:58:46.001Z</time></trkpt><trkpt lat="48.178393106900444" lon="11.651925707453715"><ele>507.0</ele><time>2026-04-18T11:58:47.001Z</time></trkpt><trkpt lat="48.178318383031986" lon="11.651657672292774"><ele>507.66666666666663</ele><time>2026-04-18T11:58:48.001Z</time></trkpt><trkpt lat="48.17824424985477" lon="11.651367166832866"><ele>508.3333333333333</ele><time>2026-04-18T11:58:49.001Z</time></trkpt><trkpt lat="48.17816865093432" lon="11.65110541281857"><ele>509.0</ele><time>2026-04-18T11:58:50.001Z</time></trkpt><trkpt lat="48.17811261316973" lon="11.650841890868902"><ele>509.66666666666663</ele><time>2026-04-18T11:58:51.001Z</time></trkpt><trkpt lat="48.17805360986177" lon="11.650561454445647"><ele>510.33333333333337</ele><time>2026-04-18T11:58:52.001Z</time></trkpt><trkpt lat="48.1780010484036" lon="11.650294414679244"><ele>511.0</ele><time>2026-04-18T11:58:53.001Z</time></trkpt><trkpt lat="48.17795409572021" lon="11.650034189537207"><ele>511.33333333333337</ele><time>2026-04-18T11:58:54.001Z</time></trkpt><trkpt lat="48.177909527185264" lon="11.649783572274224"><ele>511.66666666666663</ele><time>2026-04-18T11:58:55.001Z</time></trkpt><trkpt lat="48.177862951433056" lon="11.64954193761276"><ele>512.0</ele><time>2026-04-18T11:58:56.001Z</time></trkpt><trkpt lat="48.17783367669191" lon="11.649295710461532"><ele>512.0</ele><time>2026-04-18T11:58:57.001Z</time></trkpt><trkpt lat="48.17778923995123" lon="11.649055560766154"><ele>512.0</ele><time>2026-04-18T11:58:58.001Z</time></trkpt><trkpt lat="48.177728348732586" lon="11.648819011756132"><ele>512.0</ele><time>2026-04-18T11:58:59.001Z</time></trkpt><trkpt lat="48.17768505587791" lon="11.648574066871298"><ele>512.0</ele><time>2026-04-18T11:59:00.001Z</time></trkpt><trkpt lat="48.17765513877729" lon="11.648322709328358"><ele>512.0</ele><time>2026-04-18T11:59:01.001Z</time></trkpt><trkpt lat="48.177610649979" lon="11.648078522713194"><ele>512.0</ele><time>2026-04-18T11:59:02.001Z</time></trkpt><trkpt lat="48.17756672297746" lon="11.647839954318728"><ele>512.0</ele><time>2026-04-18T11:59:03.001Z</time></trkpt><trkpt lat="48.17750858445364" lon="11.647610934360888"><ele>512.0</ele><time>2026-04-18T11:59:04.001Z</time></trkpt><trkpt lat="48.17746735041948" lon="11.647375319094362"><ele>512.0</ele><time>2026-04-18T11:59:05.001Z</time></trkpt><trkpt lat="48.177427948944334" lon="11.647143633166037"><ele>512.3333333333333</ele><time>2026-04-18T11:59:06.001Z</time></trkpt><trkpt lat="48.17738405750562" lon="11.64691479280532"><ele>512.6666666666666</ele><time>2026-04-18T11:59:07.001Z</time></trkpt><trkpt lat="48.17733956795921" lon="11.64668554263608"><ele>513.0</ele><time>2026-04-18T11:59:08.001Z</time></trkpt><trkpt lat="48.17729303303422" lon="11.646457084109848"><ele>513.0</ele><time>2026-04-18T11:59:09.001Z</time></trkpt><trkpt lat="48.1772628954739" lon="11.646208427418005"><ele>513.0</ele><time>2026-04-18T11:59:10.001Z</time></trkpt><trkpt lat="48.177199269478436" lon="11.645957175922335"><ele>513.0</ele><time>2026-04-18T11:59:11.001Z</time></trkpt><trkpt lat="48.17715858911993" lon="11.645680101871838"><ele>513.6666666666666</ele><time>2026-04-18T11:59:12.001Z</time></trkpt><trkpt lat="48.17710890315857" lon="11.645409245751432"><ele>514.3333333333333</ele><time>2026-04-18T11:59:13.001Z</time></trkpt><trkpt lat="48.17705579640208" lon="11.64513975542675"><ele>515.0</ele><time>2026-04-18T11:59:14.001Z</time></trkpt><trkpt lat="48.17700778365833" lon="11.644880537191149"><ele>515.3333333333333</ele><time>2026-04-18T11:59:15.001Z</time></trkpt><trkpt lat="48.17696522406338" lon="11.644633191635844"><ele>515.6666666666666</ele><time>2026-04-18T11:59:16.001Z</time></trkpt><trkpt lat="48.176922060901546" lon="11.644399653186632"><ele>516.0</ele><time>2026-04-18T11:59:17.001Z</time></trkpt><trkpt lat="48.176878946529" lon="11.644173887217287"><ele>516.0</ele><time>2026-04-18T11:59:18.001Z</time></trkpt><trkpt lat="48.17683481521333" lon="11.643936913311913"><ele>516.0</ele><time>2026-04-18T11:59:19.001Z</time></trkpt><trkpt lat="48.17678720168275" lon="11.643686932263687"><ele>516.0</ele><time>2026-04-18T11:59:20.001Z</time></trkpt><trkpt lat="48.17673689058295" lon="11.643420730607648"><ele>515.6666666666666</ele><time>2026-04-18T11:59:21.001Z</time></trkpt><trkpt lat="48.17669142215344" lon="11.643162596827079"><ele>515.3333333333333</ele><time>2026-04-18T11:59:22.001Z</time></trkpt><trkpt lat="48.1766484208224" lon="11.642914870508061"><ele>515.0</ele><time>2026-04-18T11:59:23.001Z</time></trkpt><trkpt lat="48.17660399692685" lon="11.64267302366873"><ele>515.0</ele><time>2026-04-18T11:59:24.001Z</time></trkpt><trkpt lat="48.176561690199506" lon="11.642442013306963"><ele>515.0</ele><time>2026-04-18T11:59:25.001Z</time></trkpt><trkpt lat="48.17653077541758" lon="11.642223324031596"><ele>515.0</ele><time>2026-04-18T11:59:26.001Z</time></trkpt><trkpt lat="48.176503720070706" lon="11.642026723872638"><ele>515.0</ele><time>2026-04-18T11:59:27.001Z</time></trkpt><trkpt lat="48.176470827465955" lon="11.641842299269936"><ele>514.75</ele><time>2026-04-18T11:59:28.001Z</time></trkpt><trkpt lat="48.17643952348924" lon="11.641664033785412"><ele>514.5</ele><time>2026-04-18T11:59:29.001Z</time></trkpt><trkpt lat="48.1764126608693" lon="11.641487944107185"><ele>514.25</ele><time>2026-04-18T11:59:30.001Z</time></trkpt><trkpt lat="48.17637568368672" lon="11.641313693624785"><ele>514.0</ele><time>2026-04-18T11:59:31.001Z</time></trkpt><trkpt lat="48.17634875342925" lon="11.64113414396582"><ele>514.25</ele><time>2026-04-18T11:59:32.001Z</time></trkpt><trkpt lat="48.17632279278248" lon="11.640954010822039"><ele>514.5</ele><time>2026-04-18T11:59:33.001Z</time></trkpt><trkpt lat="48.176291899694846" lon="11.640772201061859"><ele>514.75</ele><time>2026-04-18T11:59:34.001Z</time></trkpt><trkpt lat="48.17627429835579" lon="11.640581525939753"><ele>515.0</ele><time>2026-04-18T11:59:35.001Z</time></trkpt><trkpt lat="48.17624143430923" lon="11.640387565070252"><ele>514.0</ele><time>2026-04-18T11:59:36.001Z</time></trkpt><trkpt lat="48.17621752720336" lon="11.640156700816616"><ele>513.0</ele><time>2026-04-18T11:59:37.001Z</time></trkpt><trkpt lat="48.17620311971455" lon="11.639894458791677"><ele>512.0</ele><time>2026-04-18T11:59:38.001Z</time></trkpt><trkpt lat="48.17618163762536" lon="11.639613711983179"><ele>512.0</ele><time>2026-04-18T11:59:39.001Z</time></trkpt><trkpt lat="48.17618420827005" lon="11.639334158357435"><ele>512.0</ele><time>2026-04-18T11:59:40.001Z</time></trkpt><trkpt lat="48.17622342136788" lon="11.639048807185773"><ele>512.0</ele><time>2026-04-18T11:59:41.001Z</time></trkpt><trkpt lat="48.1762916614405" lon="11.638769961419952"><ele>511.3333333333333</ele><time>2026-04-18T11:59:42.001Z</time></trkpt><trkpt lat="48.176388169581834" lon="11.638548934580516"><ele>510.66666666666663</ele><time>2026-04-18T11:59:43.001Z</time></trkpt><trkpt lat="48.17650837345039" lon="11.638369477998367"><ele>510.0</ele><time>2026-04-18T11:59:44.001Z</time></trkpt><trkpt lat="48.1766461662757" lon="11.638229441516081"><ele>510.0</ele><time>2026-04-18T11:59:45.001Z</time></trkpt><trkpt lat="48.176776728727674" lon="11.638134416605698"><ele>510.0</ele><time>2026-04-18T11:59:46.001Z</time></trkpt><trkpt lat="48.17690144933984" lon="11.638076885386074"><ele>510.0</ele><time>2026-04-18T11:59:47.001Z</time></trkpt><trkpt lat="48.17701471570439" lon="11.638012233632013"><ele>510.0</ele><time>2026-04-18T11:59:48.001Z</time></trkpt><trkpt lat="48.17713769835836" lon="11.638001674886969"><ele>510.0</ele><time>2026-04-18T11:59:49.001Z</time></trkpt><trkpt lat="48.17726538116437" lon="11.637960866387605"><ele>510.0</ele><time>2026-04-18T11:59:50.001Z</time></trkpt><trkpt lat="48.17739793440439" lon="11.637911934586349"><ele>510.0</ele><time>2026-04-18T11:59:51.001Z</time></trkpt><trkpt lat="48.17753347234918" lon="11.637858651519577"><ele>510.0</ele><time>2026-04-18T11:59:52.001Z</time></trkpt><trkpt lat="48.17767130142994" lon="11.63779270847188"><ele>510.66666666666663</ele><time>2026-04-18T11:59:53.001Z</time></trkpt><trkpt lat="48.17780569797389" lon="11.637715234932672"><ele>511.3333333333333</ele><time>2026-04-18T11:59:54.001Z</time></trkpt><trkpt lat="48.17792584751563" lon="11.63759227759832"><ele>512.0</ele><time>2026-04-18T11:59:55.001Z</time></trkpt><trkpt lat="48.17807202117416" lon="11.637490891799978"><ele>512.3333333333333</ele><time>2026-04-18T11:59:56.001Z</time></trkpt><trkpt lat="48.17822430644356" lon="11.63740405045982"><ele>512.6666666666666</ele><time>2026-04-18T11:59:57.001Z</time></trkpt><trkpt lat="48.17835145720232" lon="11.637269807342127"><ele>513.0</ele><time>2026-04-18T11:59:58.001Z</time></trkpt><trkpt lat="48.17847763856844" lon="11.63711710900648"><ele>513.0</ele><time>2026-04-18T11:59:59.001Z</time></trkpt><trkpt lat="48.17861348632481" lon="11.636975621049167"><ele>513.0</ele><time>2026-04-18T12:00:00.001Z</time></trkpt><trkpt lat="48.178766567514806" lon="11.636852552357889"><ele>513.0</ele><time>2026-04-18T12:00:01.001Z</time></trkpt><trkpt lat="48.178911610543885" lon="11.636713345965326"><ele>512.5</ele><time>2026-04-18T12:00:02.001Z</time></trkpt><trkpt lat="48.17900048835333" lon="11.636577220719742"><ele>512.0</ele><time>2026-04-18T12:00:03.001Z</time></trkpt><trkpt lat="48.17911538873373" lon="11.636441380567994"><ele>511.5</ele><time>2026-04-18T12:00:04.001Z</time></trkpt><trkpt lat="48.179230460502446" lon="11.636303929610296"><ele>511.0</ele><time>2026-04-18T12:00:05.001Z</time></trkpt><trkpt lat="48.179340552148524" lon="11.636178284666173"><ele>510.75</ele><time>2026-04-18T12:00:06.001Z</time></trkpt><trkpt lat="48.17944302338612" lon="11.636049102296942"><ele>510.5</ele><time>2026-04-18T12:00:07.001Z</time></trkpt><trkpt lat="48.17954259649868" lon="11.63592054847687"><ele>510.25</ele><time>2026-04-18T12:00:08.001Z</time></trkpt><trkpt lat="48.179637682275846" lon="11.635788440776968"><ele>510.0</ele><time>2026-04-18T12:00:09.001Z</time></trkpt><trkpt lat="48.17973133700441" lon="11.635655276494727"><ele>510.0</ele><time>2026-04-18T12:00:10.001Z</time></trkpt><trkpt lat="48.17983015303917" lon="11.63551983864618"><ele>510.0</ele><time>2026-04-18T12:00:11.001Z</time></trkpt><trkpt lat="48.17993073862426" lon="11.635378924153345"><ele>510.0</ele><time>2026-04-18T12:00:12.001Z</time></trkpt><trkpt lat="48.18003291150356" lon="11.635233457145638"><ele>510.0</ele><time>2026-04-18T12:00:13.001Z</time></trkpt><trkpt lat="48.180145479213365" lon="11.63506145592446"><ele>510.0</ele><time>2026-04-18T12:00:14.001Z</time></trkpt><trkpt lat="48.180258960431" lon="11.634880095323062"><ele>510.0</ele><time>2026-04-18T12:00:15.001Z</time></trkpt><trkpt lat="48.18036760656932" lon="11.634702267604613"><ele>510.0</ele><time>2026-04-18T12:00:16.001Z</time></trkpt><trkpt lat="48.18047264296869" lon="11.63452718257056"><ele>510.33333333333337</ele><time>2026-04-18T12:00:17.001Z</time></trkpt><trkpt lat="48.18057482952331" lon="11.634354479703584"><ele>510.6666666666667</ele><time>2026-04-18T12:00:18.001Z</time></trkpt><trkpt lat="48.18067990225832" lon="11.634181614596145"><ele>511.0</ele><time>2026-04-18T12:00:19.001Z</time></trkpt><trkpt lat="48.180780286293874" lon="11.634007067755984"><ele>510.75</ele><time>2026-04-18T12:00:20.001Z</time></trkpt><trkpt lat="48.18087198576937" lon="11.63383415070279"><ele>510.5</ele><time>2026-04-18T12:00:21.001Z</time></trkpt><trkpt lat="48.180951081651536" lon="11.633677779694823"><ele>510.25</ele><time>2026-04-18T12:00:22.001Z</time></trkpt><trkpt lat="48.18102476415199" lon="11.633531427367931"><ele>510.0</ele><time>2026-04-18T12:00:23.001Z</time></trkpt><trkpt lat="48.1810982984158" lon="11.633390043716284"><ele>510.0</ele><time>2026-04-18T12:00:24.001Z</time></trkpt><trkpt lat="48.18116966939322" lon="11.63325440598945"><ele>510.0</ele><time>2026-04-18T12:00:25.001Z</time></trkpt><trkpt lat="48.18124242913531" lon="11.633116162604358"><ele>510.0</ele><time>2026-04-18T12:00:26.001Z</time></trkpt><trkpt lat="48.181311837311355" lon="11.632975258501043"><ele>510.0</ele><time>2026-04-18T12:00:27.001Z</time></trkpt><trkpt lat="48.181377096564724" lon="11.632836433917971"><ele>510.6</ele><time>2026-04-18T12:00:28.001Z</time></trkpt><trkpt lat="48.18143796700828" lon="11.632706953991972"><ele>511.2</ele><time>2026-04-18T12:00:29.001Z</time></trkpt><trkpt lat="48.18149670249987" lon="11.632583059502226"><ele>511.79999999999995</ele><time>2026-04-18T12:00:30.001Z</time></trkpt><trkpt lat="48.18154846210813" lon="11.632460903251395"><ele>512.4</ele><time>2026-04-18T12:00:31.001Z</time></trkpt><trkpt lat="48.181597141425826" lon="11.632342794352153"><ele>513.0</ele><time>2026-04-18T12:00:32.001Z</time></trkpt><trkpt lat="48.181648350459746" lon="11.63222902739068"><ele>513.0</ele><time>2026-04-18T12:00:33.001Z</time></trkpt><trkpt lat="48.18169772334554" lon="11.632120386824454"><ele>513.0</ele><time>2026-04-18T12:00:34.001Z</time></trkpt><trkpt lat="48.18174482676795" lon="11.632018399596742"><ele>513.0</ele><time>2026-04-18T12:00:35.001Z</time></trkpt><trkpt lat="48.181792726727814" lon="11.631919215151676"><ele>513.0</ele><time>2026-04-18T12:00:36.001Z</time></trkpt><trkpt lat="48.18184729958162" lon="11.631787366596635"><ele>513.0</ele><time>2026-04-18T12:00:37.001Z</time></trkpt><trkpt lat="48.18189187891656" lon="11.631686111148882"><ele>513.0</ele><time>2026-04-18T12:00:38.001Z</time></trkpt><trkpt lat="48.18194288725642" lon="11.631568886292262"><ele>513.1666666666666</ele><time>2026-04-18T12:00:39.001Z</time></trkpt><trkpt lat="48.18199098367806" lon="11.631448579165056"><ele>513.3333333333334</ele><time>2026-04-18T12:00:40.001Z</time></trkpt><trkpt lat="48.18204006801615" lon="11.63133138505051"><ele>513.5</ele><time>2026-04-18T12:00:41.001Z</time></trkpt><trkpt lat="48.182083401779224" lon="11.631231994757258"><ele>513.6666666666667</ele><time>2026-04-18T12:00:42.001Z</time></trkpt><trkpt lat="48.182130258209845" lon="11.631140773818345"><ele>513.8333333333334</ele><time>2026-04-18T12:00:43.001Z</time></trkpt><trkpt lat="48.18218070167503" lon="11.631045698770015"><ele>514.0</ele><time>2026-04-18T12:00:44.001Z</time></trkpt><trkpt lat="48.1822303800041" lon="11.630928915692644"><ele>514.0</ele><time>2026-04-18T12:00:45.001Z</time></trkpt><trkpt lat="48.182286483001654" lon="11.630799036789828"><ele>514.0</ele><time>2026-04-18T12:00:46.001Z</time></trkpt><trkpt lat="48.18234798508393" lon="11.63067097412295"><ele>514.0</ele><time>2026-04-18T12:00:47.001Z</time></trkpt><trkpt lat="48.18240774842516" lon="11.6305377519861"><ele>514.0</ele><time>2026-04-18T12:00:48.001Z</time></trkpt><trkpt lat="48.18246533126023" lon="11.63039794998194"><ele>514.0</ele><time>2026-04-18T12:00:49.001Z</time></trkpt><trkpt lat="48.1825251571786" lon="11.630262209866473"><ele>512.4</ele><time>2026-04-18T12:00:50.001Z</time></trkpt><trkpt lat="48.18258547063205" lon="11.630124128118242"><ele>510.79999999999995</ele><time>2026-04-18T12:00:51.001Z</time></trkpt><trkpt lat="48.1826415682541" lon="11.629990966100804"><ele>509.20000000000005</ele><time>2026-04-18T12:00:52.001Z</time></trkpt><trkpt lat="48.182692521198916" lon="11.629870151050408"><ele>507.6</ele><time>2026-04-18T12:00:53Z</time></trkpt><trkpt lat="48.18274018922161" lon="11.629755512197596"><ele>506.0</ele><time>2026-04-18T12:00:54Z</time></trkpt><trkpt lat="48.18278633802578" lon="11.629643767575745"><ele>506.0</ele><time>2026-04-18T12:00:55Z</time></trkpt><trkpt lat="48.18283318552617" lon="11.629530918681866"><ele>506.0</ele><time>2026-04-18T12:00:56Z</time></trkpt><trkpt lat="48.18288120200491" lon="11.62941863378102"><ele>506.0</ele><time>2026-04-18T12:00:57Z</time></trkpt><trkpt lat="48.18292882305822" lon="11.629304522780375"><ele>506.0</ele><time>2026-04-18T12:00:58Z</time></trkpt><trkpt lat="48.1829752136675" lon="11.62918765752561"><ele>506.0</ele><time>2026-04-18T12:00:59Z</time></trkpt><trkpt lat="48.183027304768395" lon="11.629069017918672"><ele>505.0</ele><time>2026-04-18T12:01:00Z</time></trkpt><trkpt lat="48.1830840707814" lon="11.62893980305727"><ele>504.0</ele><time>2026-04-18T12:01:01Z</time></trkpt><trkpt lat="48.183142008504085" lon="11.628800011577303"><ele>503.0</ele><time>2026-04-18T12:01:02Z</time></trkpt><trkpt lat="48.18320166993813" lon="11.628666389790414"><ele>502.0</ele><time>2026-04-18T12:01:03Z</time></trkpt><trkpt lat="48.183258243604705" lon="11.628531803630343"><ele>501.0</ele><time>2026-04-18T12:01:04Z</time></trkpt><trkpt lat="48.18331420526626" lon="11.628405847526244"><ele>500.6</ele><time>2026-04-18T12:01:05Z</time></trkpt><trkpt lat="48.18336786286479" lon="11.62827958016325"><ele>500.20000000000005</ele><time>2026-04-18T12:01:06Z</time></trkpt><trkpt lat="48.18342309438731" lon="11.628146329329311"><ele>499.79999999999995</ele><time>2026-04-18T12:01:07Z</time></trkpt><trkpt lat="48.183478527725704" lon="11.628009617822324"><ele>499.4</ele><time>2026-04-18T12:01:08Z</time></trkpt><trkpt lat="48.183537889167404" lon="11.627872823592348"><ele>499.0</ele><time>2026-04-18T12:01:09Z</time></trkpt><trkpt lat="48.183599323621" lon="11.627732226137345"><ele>499.0</ele><time>2026-04-18T12:01:10Z</time></trkpt><trkpt lat="48.18366126427008" lon="11.627589001856743"><ele>499.0</ele><time>2026-04-18T12:01:11Z</time></trkpt><trkpt lat="48.18372410580636" lon="11.62744502202132"><ele>499.0</ele><time>2026-04-18T12:01:12Z</time></trkpt><trkpt lat="48.18378602007771" lon="11.627301124455588"><ele>499.0</ele><time>2026-04-18T12:01:13Z</time></trkpt><trkpt lat="48.18384567258675" lon="11.627157743789397"><ele>499.0</ele><time>2026-04-18T12:01:14Z</time></trkpt><trkpt lat="48.18390458483103" lon="11.627020247019779"><ele>499.0</ele><time>2026-04-18T12:01:15Z</time></trkpt><trkpt lat="48.18395849178868" lon="11.626892990586946"><ele>499.0</ele><time>2026-04-18T12:01:16Z</time></trkpt><trkpt lat="48.18401113907259" lon="11.626771897906346"><ele>499.0</ele><time>2026-04-18T12:01:17Z</time></trkpt><trkpt lat="48.18406156801598" lon="11.626654064525274"><ele>499.0</ele><time>2026-04-18T12:01:18Z</time></trkpt><trkpt lat="48.18411215906496" lon="11.626536363705434"><ele>499.2</ele><time>2026-04-18T12:01:19Z</time></trkpt><trkpt lat="48.18416426849021" lon="11.62641453112736"><ele>499.4</ele><time>2026-04-18T12:01:20Z</time></trkpt><trkpt lat="48.184217026503156" lon="11.626289031263285"><ele>499.6</ele><time>2026-04-18T12:01:21Z</time></trkpt><trkpt lat="48.18427115565612" lon="11.62616124510398"><ele>499.8</ele><time>2026-04-18T12:01:22Z</time></trkpt><trkpt lat="48.184325317839175" lon="11.626028935800614"><ele>500.0</ele><time>2026-04-18T12:01:23Z</time></trkpt><trkpt lat="48.18438123714665" lon="11.625894590758167"><ele>500.5</ele><time>2026-04-18T12:01:24Z</time></trkpt><trkpt lat="48.18443773672934" lon="11.625756909095022"><ele>501.0</ele><time>2026-04-18T12:01:25Z</time></trkpt><trkpt lat="48.184495999453134" lon="11.625616823866691"><ele>501.5</ele><time>2026-04-18T12:01:26Z</time></trkpt><trkpt lat="48.18455898389937" lon="11.625473294445184"><ele>502.0</ele><time>2026-04-18T12:01:27Z</time></trkpt><trkpt lat="48.18462224938292" lon="11.625323999833624"><ele>502.25</ele><time>2026-04-18T12:01:28Z</time></trkpt><trkpt lat="48.18468564653791" lon="11.625172175747698"><ele>502.5</ele><time>2026-04-18T12:01:29Z</time></trkpt><trkpt lat="48.18474852900739" lon="11.625022971327446"><ele>502.75</ele><time>2026-04-18T12:01:30Z</time></trkpt><trkpt lat="48.18481028472012" lon="11.624877944680414"><ele>503.0</ele><time>2026-04-18T12:01:31Z</time></trkpt><trkpt lat="48.18486842420055" lon="11.624737606205306"><ele>503.0</ele><time>2026-04-18T12:01:32Z</time></trkpt><trkpt lat="48.18492664355788" lon="11.624606970906123"><ele>502.99999999999994</ele><time>2026-04-18T12:01:33Z</time></trkpt><trkpt lat="48.184981116655514" lon="11.624481489910337"><ele>502.99999999999994</ele><time>2026-04-18T12:01:34Z</time></trkpt><trkpt lat="48.18503367966039" lon="11.6243603046162"><ele>503.0</ele><time>2026-04-18T12:01:35Z</time></trkpt><trkpt lat="48.18508523007645" lon="11.624242640504733"><ele>503.0</ele><time>2026-04-18T12:01:36Z</time></trkpt><trkpt lat="48.18513349140034" lon="11.6241123834178"><ele>503.0</ele><time>2026-04-18T12:01:37Z</time></trkpt><trkpt lat="48.18518828420162" lon="11.623979892020875"><ele>502.99999999999994</ele><time>2026-04-18T12:01:38Z</time></trkpt><trkpt lat="48.18524209090223" lon="11.623836090951363"><ele>502.99999999999994</ele><time>2026-04-18T12:01:39Z</time></trkpt><trkpt lat="48.18530564043561" lon="11.623697150762576"><ele>503.0</ele><time>2026-04-18T12:01:40Z</time></trkpt><trkpt lat="48.18536824407857" lon="11.623549856416048"><ele>503.0</ele><time>2026-04-18T12:01:41Z</time></trkpt><trkpt lat="48.185432580620905" lon="11.623400622967038"><ele>503.0</ele><time>2026-04-18T12:01:42Z</time></trkpt><trkpt lat="48.18549822724343" lon="11.623244642720898"><ele>503.0</ele><time>2026-04-18T12:01:43Z</time></trkpt><trkpt lat="48.18557525916929" lon="11.623067479155852"><ele>503.0</ele><time>2026-04-18T12:01:44Z</time></trkpt><trkpt lat="48.185657938141446" lon="11.622873417608021"><ele>503.0</ele><time>2026-04-18T12:01:45Z</time></trkpt><trkpt lat="48.18573216035026" lon="11.622694736460865"><ele>502.5</ele><time>2026-04-18T12:01:46Z</time></trkpt><trkpt lat="48.18580156716739" lon="11.622524358706748"><ele>502.0</ele><time>2026-04-18T12:01:47Z</time></trkpt><trkpt lat="48.185870686744174" lon="11.622356448436378"><ele>501.5</ele><time>2026-04-18T12:01:48Z</time></trkpt><trkpt lat="48.18594455142994" lon="11.622182561504918"><ele>501.0</ele><time>2026-04-18T12:01:49Z</time></trkpt><trkpt lat="48.186017584726166" lon="11.622000711589793"><ele>500.75</ele><time>2026-04-18T12:01:50Z</time></trkpt><trkpt lat="48.18608901167515" lon="11.621810064788155"><ele>500.5</ele><time>2026-04-18T12:01:51Z</time></trkpt><trkpt lat="48.186162086805844" lon="11.621620251109597"><ele>500.25</ele><time>2026-04-18T12:01:52Z</time></trkpt><trkpt lat="48.18622984257379" lon="11.621424464128815"><ele>500.0</ele><time>2026-04-18T12:01:53Z</time></trkpt><trkpt lat="48.186288672632436" lon="11.621226592401323"><ele>499.75</ele><time>2026-04-18T12:01:54Z</time></trkpt><trkpt lat="48.18634423430653" lon="11.621026946744216"><ele>499.5</ele><time>2026-04-18T12:01:55Z</time></trkpt><trkpt lat="48.186401922791305" lon="11.62082819226046"><ele>499.25</ele><time>2026-04-18T12:01:56Z</time></trkpt><trkpt lat="48.18645431219876" lon="11.62061845948153"><ele>499.0</ele><time>2026-04-18T12:01:57Z</time></trkpt><trkpt lat="48.186497165372636" lon="11.620400480210927"><ele>500.25</ele><time>2026-04-18T12:01:58Z</time></trkpt><trkpt lat="48.18654111890291" lon="11.620187284627423"><ele>501.5</ele><time>2026-04-18T12:01:59Z</time></trkpt><trkpt lat="48.18658256719259" lon="11.619972745207077"><ele>502.75</ele><time>2026-04-18T12:02:00Z</time></trkpt><trkpt lat="48.18661491847412" lon="11.619755814425174"><ele>504.0</ele><time>2026-04-18T12:02:01Z</time></trkpt><trkpt lat="48.18664325994548" lon="11.619533581920866"><ele>503.75</ele><time>2026-04-18T12:02:02Z</time></trkpt><trkpt lat="48.18666889206221" lon="11.619306874266055"><ele>503.5</ele><time>2026-04-18T12:02:03Z</time></trkpt><trkpt lat="48.186688736469634" lon="11.619094016317279"><ele>503.25</ele><time>2026-04-18T12:02:04Z</time></trkpt><trkpt lat="48.186706169616144" lon="11.618898761088252"><ele>503.0</ele><time>2026-04-18T12:02:05Z</time></trkpt><trkpt lat="48.18672243180268" lon="11.618705486818795"><ele>502.75</ele><time>2026-04-18T12:02:06Z</time></trkpt><trkpt lat="48.186741983825726" lon="11.618509082255988"><ele>502.5</ele><time>2026-04-18T12:02:07Z</time></trkpt><trkpt lat="48.18676746288038" lon="11.618316675214917"><ele>502.25</ele><time>2026-04-18T12:02:08Z</time></trkpt><trkpt lat="48.18679070420715" lon="11.618124182595539"><ele>502.0</ele><time>2026-04-18T12:02:09Z</time></trkpt><trkpt lat="48.18681126822032" lon="11.61793128785718"><ele>501.5</ele><time>2026-04-18T12:02:10Z</time></trkpt><trkpt lat="48.18683852099923" lon="11.617738441549038"><ele>501.0</ele><time>2026-04-18T12:02:11Z</time></trkpt><trkpt lat="48.18687155421312" lon="11.617548086505401"><ele>500.5</ele><time>2026-04-18T12:02:12Z</time></trkpt><trkpt lat="48.18690262051624" lon="11.6173655979564"><ele>500.0</ele><time>2026-04-18T12:02:13Z</time></trkpt><trkpt lat="48.18693659130322" lon="11.617187197797833"><ele>500.0</ele><time>2026-04-18T12:02:14Z</time></trkpt><trkpt lat="48.18696728834534" lon="11.617009839390168"><ele>500.0</ele><time>2026-04-18T12:02:15Z</time></trkpt><trkpt lat="48.186993566643764" lon="11.616832905247962"><ele>500.0</ele><time>2026-04-18T12:02:16Z</time></trkpt><trkpt lat="48.18701757683938" lon="11.616664257788948"><ele>500.0</ele><time>2026-04-18T12:02:17Z</time></trkpt><trkpt lat="48.18704432496744" lon="11.61650696072174"><ele>500.6</ele><time>2026-04-18T12:02:18Z</time></trkpt><trkpt lat="48.18706130535016" lon="11.616351789337935"><ele>501.2</ele><time>2026-04-18T12:02:19Z</time></trkpt><trkpt lat="48.18705572623143" lon="11.616193129914487"><ele>501.79999999999995</ele><time>2026-04-18T12:02:20Z</time></trkpt><trkpt lat="48.18703272299937" lon="11.616033989977101"><ele>502.4</ele><time>2026-04-18T12:02:21Z</time></trkpt><trkpt lat="48.18698321859953" lon="11.615884680312874"><ele>503.0</ele><time>2026-04-18T12:02:22Z</time></trkpt><trkpt lat="48.18690969874671" lon="11.615750100949333"><ele>503.25</ele><time>2026-04-18T12:02:23Z</time></trkpt><trkpt lat="48.186808428976285" lon="11.615644274016034"><ele>503.5</ele><time>2026-04-18T12:02:24Z</time></trkpt><trkpt lat="48.18669697157676" lon="11.615555429029268"><ele>503.75</ele><time>2026-04-18T12:02:25Z</time></trkpt><trkpt lat="48.1865845043637" lon="11.615483932256176"><ele>504.0</ele><time>2026-04-18T12:02:26Z</time></trkpt><trkpt lat="48.1864691006533" lon="11.615411089994806"><ele>502.5</ele><time>2026-04-18T12:02:27Z</time></trkpt><trkpt lat="48.18635447092121" lon="11.615321702028252"><ele>501.0</ele><time>2026-04-18T12:02:28Z</time></trkpt><trkpt lat="48.18624523545634" lon="11.615232405886351"><ele>499.5</ele><time>2026-04-18T12:02:29Z</time></trkpt><trkpt lat="48.186153166811316" lon="11.61515228959463"><ele>498.0</ele><time>2026-04-18T12:02:30Z</time></trkpt><trkpt lat="48.186075339595035" lon="11.615083781855013"><ele>498.0</ele><time>2026-04-18T12:02:31Z</time></trkpt><trkpt lat="48.18599912548875" lon="11.614998232533951"><ele>498.0</ele><time>2026-04-18T12:02:32Z</time></trkpt><trkpt lat="48.185931665596165" lon="11.614913140678617"><ele>498.0</ele><time>2026-04-18T12:02:33Z</time></trkpt><trkpt lat="48.18588011619495" lon="11.614826355114637"><ele>498.0</ele><time>2026-04-18T12:02:34Z</time></trkpt><trkpt lat="48.18583604011681" lon="11.614741523415283"><ele>498.0</ele><time>2026-04-18T12:02:35Z</time></trkpt><trkpt lat="48.18580386887486" lon="11.614654771225897"><ele>498.0</ele><time>2026-04-18T12:02:36Z</time></trkpt><trkpt lat="48.185773727093604" lon="11.614570120716579"><ele>498.0</ele><time>2026-04-18T12:02:37Z</time></trkpt><trkpt lat="48.18572989750947" lon="11.614388935138136"><ele>498.0</ele><time>2026-04-18T12:02:39Z</time></trkpt><trkpt lat="48.185715712931525" lon="11.614284384090794"><ele>498.0</ele><time>2026-04-18T12:02:40Z</time></trkpt><trkpt lat="48.1857103108471" lon="11.61417337697744"><ele>498.0</ele><time>2026-04-18T12:02:41Z</time></trkpt><trkpt lat="48.18570725739726" lon="11.61405465118235"><ele>498.0</ele><time>2026-04-18T12:02:41.999Z</time></trkpt><trkpt lat="48.18570842887109" lon="11.6139333767956"><ele>498.0</ele><time>2026-04-18T12:02:42.999Z</time></trkpt><trkpt lat="48.185715227944996" lon="11.613809015804739"><ele>498.0</ele><time>2026-04-18T12:02:43.999Z</time></trkpt><trkpt lat="48.18573010287741" lon="11.613683487715647"><ele>498.0</ele><time>2026-04-18T12:02:44.999Z</time></trkpt><trkpt lat="48.18574288521344" lon="11.613554579638707"><ele>498.0</ele><time>2026-04-18T12:02:45.999Z</time></trkpt><trkpt lat="48.18575708143836" lon="11.613428727359466"><ele>498.0</ele><time>2026-04-18T12:02:46.999Z</time></trkpt><trkpt lat="48.18576900270912" lon="11.613303299086564"><ele>498.0</ele><time>2026-04-18T12:02:48Z</time></trkpt><trkpt lat="48.18578106215378" lon="11.613183897872926"><ele>498.0</ele><time>2026-04-18T12:02:49Z</time></trkpt><trkpt lat="48.18579613595845" lon="11.613074359284088"><ele>498.3333333333333</ele><time>2026-04-18T12:02:50Z</time></trkpt><trkpt lat="48.18580582106973" lon="11.612967752598385"><ele>498.66666666666663</ele><time>2026-04-18T12:02:51Z</time></trkpt><trkpt lat="48.18581691050748" lon="11.61285263233897"><ele>499.0</ele><time>2026-04-18T12:02:52Z</time></trkpt><trkpt lat="48.18583377761645" lon="11.612729667368322"><ele>499.3333333333333</ele><time>2026-04-18T12:02:53Z</time></trkpt><trkpt lat="48.18585052757513" lon="11.612603662849212"><ele>499.66666666666663</ele><time>2026-04-18T12:02:54Z</time></trkpt><trkpt lat="48.18587058929495" lon="11.612476338712295"><ele>500.0</ele><time>2026-04-18T12:02:55Z</time></trkpt><trkpt lat="48.18588391495728" lon="11.61235845107557"><ele>499.99999999999994</ele><time>2026-04-18T12:02:56Z</time></trkpt><trkpt lat="48.18589663228107" lon="11.612251636353406"><ele>500.0</ele><time>2026-04-18T12:02:57Z</time></trkpt><trkpt lat="48.185909406310614" lon="11.612142007367167"><ele>500.0</ele><time>2026-04-18T12:02:58Z</time></trkpt><trkpt lat="48.18591871081713" lon="11.612044516612281"><ele>500.0</ele><time>2026-04-18T12:02:59Z</time></trkpt><trkpt lat="48.1859306625097" lon="11.611898130517222"><ele>499.99999999999994</ele><time>2026-04-18T12:03:01Z</time></trkpt><trkpt lat="48.18594467736523" lon="11.61178314906032"><ele>500.0</ele><time>2026-04-18T12:03:03Z</time></trkpt><trkpt lat="48.18595885365185" lon="11.611677808800867"><ele>500.2</ele><time>2026-04-18T12:03:06Z</time></trkpt><trkpt lat="48.185966716896395" lon="11.611574541925151"><ele>500.4</ele><time>2026-04-18T12:03:12Z</time></trkpt><trkpt lat="48.18598394619184" lon="11.611377985729211"><ele>500.6</ele><time>2026-04-18T12:03:42Z</time></trkpt><trkpt lat="48.186002177068374" lon="11.611215747929725"><ele>500.8</ele><time>2026-04-18T12:03:43Z</time></trkpt><trkpt lat="48.18602410521148" lon="11.611024611149075"><ele>501.0</ele><time>2026-04-18T12:03:44Z</time></trkpt><trkpt lat="48.186038946749505" lon="11.610870656237696"><ele>501.25</ele><time>2026-04-18T12:03:45Z</time></trkpt><trkpt lat="48.18605565225187" lon="11.610678103948738"><ele>501.5</ele><time>2026-04-18T12:03:46Z</time></trkpt><trkpt lat="48.18607366195836" lon="11.610506113174274"><ele>501.75</ele><time>2026-04-18T12:03:47Z</time></trkpt><trkpt lat="48.18609213283902" lon="11.610354267067363"><ele>502.0</ele><time>2026-04-18T12:03:48Z</time></trkpt><trkpt lat="48.186108823700664" lon="11.610197468305326"><ele>502.0</ele><time>2026-04-18T12:03:49Z</time></trkpt><trkpt lat="48.18612914143747" lon="11.610014573414436"><ele>502.0</ele><time>2026-04-18T12:03:50Z</time></trkpt><trkpt lat="48.18614519755393" lon="11.60980372327069"><ele>502.0</ele><time>2026-04-18T12:03:51Z</time></trkpt><trkpt lat="48.18616585438256" lon="11.609594763816913"><ele>502.0</ele><time>2026-04-18T12:03:52Z</time></trkpt><trkpt lat="48.18619091679612" lon="11.609425079619681"><ele>502.0</ele><time>2026-04-18T12:03:53Z</time></trkpt><trkpt lat="48.18620061515348" lon="11.609273303584374"><ele>502.00000000000006</ele><time>2026-04-18T12:03:54Z</time></trkpt><trkpt lat="48.18621451258687" lon="11.609115543711967"><ele>502.00000000000006</ele><time>2026-04-18T12:03:55Z</time></trkpt><trkpt lat="48.18622777666097" lon="11.608959820677779"><ele>502.0</ele><time>2026-04-18T12:03:56Z</time></trkpt><trkpt lat="48.186235463404145" lon="11.60881557953495"><ele>502.0</ele><time>2026-04-18T12:03:57Z</time></trkpt><trkpt lat="48.186243547138446" lon="11.608670324179482"><ele>502.0</ele><time>2026-04-18T12:03:58Z</time></trkpt><trkpt lat="48.18625605025348" lon="11.60850292798798"><ele>502.00000000000006</ele><time>2026-04-18T12:03:59Z</time></trkpt><trkpt lat="48.186273126623114" lon="11.608311310515118"><ele>502.00000000000006</ele><time>2026-04-18T12:04:00Z</time></trkpt><trkpt lat="48.186293244079664" lon="11.608149049765233"><ele>502.0</ele><time>2026-04-18T12:04:01Z</time></trkpt><trkpt lat="48.18630938734503" lon="11.608004273365383"><ele>502.0</ele><time>2026-04-18T12:04:02Z</time></trkpt><trkpt lat="48.18632428973855" lon="11.607869793576421"><ele>501.8</ele><time>2026-04-18T12:04:03Z</time></trkpt><trkpt lat="48.186356845833444" lon="11.607729474235715"><ele>501.6</ele><time>2026-04-18T12:04:04Z</time></trkpt><trkpt lat="48.186372539096396" lon="11.60757593051551"><ele>501.40000000000003</ele><time>2026-04-18T12:04:05Z</time></trkpt><trkpt lat="48.1863749062706" lon="11.60742411316587"><ele>501.20000000000005</ele><time>2026-04-18T12:04:06Z</time></trkpt><trkpt lat="48.186392131925246" lon="11.607283500151553"><ele>501.0</ele><time>2026-04-18T12:04:07Z</time></trkpt><trkpt lat="48.18640680972969" lon="11.607145724154678"><ele>501.0</ele><time>2026-04-18T12:04:08Z</time></trkpt><trkpt lat="48.18642412438496" lon="11.606996002642699"><ele>501.0</ele><time>2026-04-18T12:04:09Z</time></trkpt><trkpt lat="48.186442574868565" lon="11.606832613105265"><ele>501.0</ele><time>2026-04-18T12:04:10Z</time></trkpt><trkpt lat="48.186462087671316" lon="11.606665870251078"><ele>501.0</ele><time>2026-04-18T12:04:11Z</time></trkpt><trkpt lat="48.18648072032774" lon="11.606496755021467"><ele>501.0</ele><time>2026-04-18T12:04:12Z</time></trkpt><trkpt lat="48.186502327789704" lon="11.606313268679944"><ele>501.0</ele><time>2026-04-18T12:04:13Z</time></trkpt><trkpt lat="48.186528129161026" lon="11.606105050636444"><ele>501.0</ele><time>2026-04-18T12:04:14Z</time></trkpt><trkpt lat="48.18655274025761" lon="11.605915625682899"><ele>501.0</ele><time>2026-04-18T12:04:15Z</time></trkpt><trkpt lat="48.18657526943231" lon="11.605736892553404"><ele>501.0</ele><time>2026-04-18T12:04:16Z</time></trkpt><trkpt lat="48.18659401943288" lon="11.605559344155779"><ele>501.0</ele><time>2026-04-18T12:04:17Z</time></trkpt><trkpt lat="48.18661161453703" lon="11.605381474724942"><ele>501.0</ele><time>2026-04-18T12:04:18Z</time></trkpt><trkpt lat="48.18662983888158" lon="11.605201049872328"><ele>501.0</ele><time>2026-04-18T12:04:19Z</time></trkpt><trkpt lat="48.1866464750858" lon="11.605016967030508"><ele>501.0</ele><time>2026-04-18T12:04:20Z</time></trkpt><trkpt lat="48.18666475228655" lon="11.604831170726158"><ele>501.0</ele><time>2026-04-18T12:04:21Z</time></trkpt><trkpt lat="48.18668720698248" lon="11.604646152658509"><ele>501.0</ele><time>2026-04-18T12:04:22Z</time></trkpt><trkpt lat="48.1867058828278" lon="11.60445787145508"><ele>501.0</ele><time>2026-04-18T12:04:23Z</time></trkpt><trkpt lat="48.18672548868356" lon="11.60426552405005"><ele>501.0</ele><time>2026-04-18T12:04:24Z</time></trkpt><trkpt lat="48.18674749499713" lon="11.604071643073434"><ele>501.25</ele><time>2026-04-18T12:04:25Z</time></trkpt><trkpt lat="48.18676982188877" lon="11.603876729503941"><ele>501.5</ele><time>2026-04-18T12:04:26Z</time></trkpt><trkpt lat="48.186789625206686" lon="11.603682651728882"><ele>501.75</ele><time>2026-04-18T12:04:27Z</time></trkpt><trkpt lat="48.186808256658935" lon="11.603490340259434"><ele>502.0</ele><time>2026-04-18T12:04:28Z</time></trkpt><trkpt lat="48.186827138652795" lon="11.603308323118055"><ele>502.0</ele><time>2026-04-18T12:04:29Z</time></trkpt><trkpt lat="48.1868479955901" lon="11.603133173798852"><ele>502.0</ele><time>2026-04-18T12:04:30Z</time></trkpt><trkpt lat="48.18686527065612" lon="11.602951502739412"><ele>502.0</ele><time>2026-04-18T12:04:31Z</time></trkpt><trkpt lat="48.18688539616259" lon="11.602756147124307"><ele>502.0</ele><time>2026-04-18T12:04:32Z</time></trkpt><trkpt lat="48.18691192376689" lon="11.602563887509985"><ele>502.5</ele><time>2026-04-18T12:04:33Z</time></trkpt><trkpt lat="48.18693524941377" lon="11.602380317289278"><ele>503.0</ele><time>2026-04-18T12:04:34Z</time></trkpt><trkpt lat="48.18695526155983" lon="11.602196643804792"><ele>503.5</ele><time>2026-04-18T12:04:35Z</time></trkpt><trkpt lat="48.18697136681183" lon="11.60200662875816"><ele>504.0</ele><time>2026-04-18T12:04:36Z</time></trkpt><trkpt lat="48.18698548963458" lon="11.601802963350186"><ele>504.0</ele><time>2026-04-18T12:04:37Z</time></trkpt><trkpt lat="48.18701433305204" lon="11.601616576282732"><ele>504.0</ele><time>2026-04-18T12:04:38Z</time></trkpt><trkpt lat="48.18703463331337" lon="11.601439538482374"><ele>504.0</ele><time>2026-04-18T12:04:39Z</time></trkpt><trkpt lat="48.18705251885588" lon="11.601264380997828"><ele>504.0</ele><time>2026-04-18T12:04:40Z</time></trkpt><trkpt lat="48.18707251310705" lon="11.601086471230635"><ele>504.0</ele><time>2026-04-18T12:04:41Z</time></trkpt><trkpt lat="48.18709044183276" lon="11.600903658704409"><ele>504.0</ele><time>2026-04-18T12:04:42Z</time></trkpt><trkpt lat="48.1871093763517" lon="11.600712067279987"><ele>504.0</ele><time>2026-04-18T12:04:43Z</time></trkpt><trkpt lat="48.18713162903059" lon="11.600524715797476"><ele>504.0</ele><time>2026-04-18T12:04:44Z</time></trkpt><trkpt lat="48.18715297274881" lon="11.600346476570179"><ele>504.25</ele><time>2026-04-18T12:04:45Z</time></trkpt><trkpt lat="48.187171918314036" lon="11.600161351241391"><ele>504.5</ele><time>2026-04-18T12:04:46Z</time></trkpt><trkpt lat="48.18719309290406" lon="11.599975320433337"><ele>504.75</ele><time>2026-04-18T12:04:47Z</time></trkpt><trkpt lat="48.18721161959127" lon="11.599771271914133"><ele>505.0</ele><time>2026-04-18T12:04:48Z</time></trkpt><trkpt lat="48.18723888283385" lon="11.599579204133384"><ele>505.0</ele><time>2026-04-18T12:04:49Z</time></trkpt><trkpt lat="48.18726190054463" lon="11.599400720507978"><ele>505.0</ele><time>2026-04-18T12:04:50Z</time></trkpt><trkpt lat="48.187281153038526" lon="11.599231182903617"><ele>505.0</ele><time>2026-04-18T12:04:51Z</time></trkpt><trkpt lat="48.187299942009" lon="11.599060596315974"><ele>505.0</ele><time>2026-04-18T12:04:52Z</time></trkpt><trkpt lat="48.187317276913035" lon="11.598885282673663"><ele>505.0</ele><time>2026-04-18T12:04:53Z</time></trkpt><trkpt lat="48.18733477544909" lon="11.59870368639913"><ele>505.0</ele><time>2026-04-18T12:04:54Z</time></trkpt><trkpt lat="48.187358920718935" lon="11.598517217220493"><ele>505.0</ele><time>2026-04-18T12:04:55Z</time></trkpt><trkpt lat="48.18738024057601" lon="11.598324082020964"><ele>505.0</ele><time>2026-04-18T12:04:56Z</time></trkpt><trkpt lat="48.187398753031246" lon="11.598115896936202"><ele>504.0</ele><time>2026-04-18T12:04:57Z</time></trkpt><trkpt lat="48.18741475173252" lon="11.597894533239534"><ele>503.0</ele><time>2026-04-18T12:04:58Z</time></trkpt><trkpt lat="48.187444945346186" lon="11.5976763130265"><ele>502.0</ele><time>2026-04-18T12:04:59Z</time></trkpt><trkpt lat="48.18746754413341" lon="11.597461816453977"><ele>501.0</ele><time>2026-04-18T12:05:00Z</time></trkpt><trkpt lat="48.187488606101894" lon="11.597269062559269"><ele>501.0</ele><time>2026-04-18T12:05:01Z</time></trkpt><trkpt lat="48.187508963325335" lon="11.59708513404037"><ele>501.0</ele><time>2026-04-18T12:05:02Z</time></trkpt><trkpt lat="48.18753208369854" lon="11.596876339740211"><ele>501.0</ele><time>2026-04-18T12:05:03Z</time></trkpt><trkpt lat="48.1875559797151" lon="11.596661653837584"><ele>501.0</ele><time>2026-04-18T12:05:04Z</time></trkpt><trkpt lat="48.187578220646905" lon="11.596461837592114"><ele>501.0</ele><time>2026-04-18T12:05:05Z</time></trkpt><trkpt lat="48.187598662399694" lon="11.596278185301676"><ele>501.0</ele><time>2026-04-18T12:05:06Z</time></trkpt><trkpt lat="48.18761739512447" lon="11.596109887105467"><ele>501.0</ele><time>2026-04-18T12:05:07Z</time></trkpt><trkpt lat="48.18763463397753" lon="11.595951932074769"><ele>501.0</ele><time>2026-04-18T12:05:08Z</time></trkpt><trkpt lat="48.18765149493826" lon="11.59579674793177"><ele>501.0</ele><time>2026-04-18T12:05:09Z</time></trkpt><trkpt lat="48.18767139632163" lon="11.595613580272214"><ele>501.0</ele><time>2026-04-18T12:05:10Z</time></trkpt><trkpt lat="48.18769070855983" lon="11.595435835752854"><ele>501.0</ele><time>2026-04-18T12:05:11Z</time></trkpt><trkpt lat="48.18770832440719" lon="11.595273703693751"><ele>501.0</ele><time>2026-04-18T12:05:12Z</time></trkpt><trkpt lat="48.18772508371151" lon="11.595119455513242"><ele>501.0</ele><time>2026-04-18T12:05:13Z</time></trkpt><trkpt lat="48.18774103066609" lon="11.594972683878323"><ele>501.0</ele><time>2026-04-18T12:05:14Z</time></trkpt><trkpt lat="48.187755285215935" lon="11.594841488246438"><ele>501.0</ele><time>2026-04-18T12:05:15Z</time></trkpt><trkpt lat="48.18776668692592" lon="11.594736550141915"><ele>501.0</ele><time>2026-04-18T12:05:16Z</time></trkpt><trkpt lat="48.18777710612573" lon="11.594640654291206"><ele>501.0</ele><time>2026-04-18T12:05:17Z</time></trkpt><trkpt lat="48.187787876366" lon="11.594541527872707"><ele>501.0</ele><time>2026-04-18T12:05:18Z</time></trkpt><trkpt lat="48.187798008239625" lon="11.594447709086182"><ele>501.0</ele><time>2026-04-18T12:05:19Z</time></trkpt><trkpt lat="48.187815806302964" lon="11.594276354067942"><ele>501.0</ele><time>2026-04-18T12:05:21Z</time></trkpt><trkpt lat="48.187831884517436" lon="11.59412155716632"><ele>501.20000000000005</ele><time>2026-04-18T12:05:23Z</time></trkpt><trkpt lat="48.1878444716503" lon="11.593994503943957"><ele>501.40000000000003</ele><time>2026-04-18T12:05:25Z</time></trkpt><trkpt lat="48.187854536110265" lon="11.593888827326303"><ele>501.6</ele><time>2026-04-18T12:05:28Z</time></trkpt><trkpt lat="48.1878663456286" lon="11.593764827075065"><ele>501.8</ele><time>2026-04-18T12:05:36Z</time></trkpt><trkpt lat="48.18788211857905" lon="11.593574028740731"><ele>502.0</ele><time>2026-04-18T12:05:38Z</time></trkpt><trkpt lat="48.187893517366405" lon="11.593433856281456"><ele>502.33333333333337</ele><time>2026-04-18T12:05:39Z</time></trkpt><trkpt lat="48.187903757181225" lon="11.593297302494781"><ele>502.6666666666667</ele><time>2026-04-18T12:05:40Z</time></trkpt><trkpt lat="48.18791236613297" lon="11.593170592265603"><ele>503.0</ele><time>2026-04-18T12:05:41Z</time></trkpt><trkpt lat="48.18792105063106" lon="11.593042770666102"><ele>503.33333333333337</ele><time>2026-04-18T12:05:42Z</time></trkpt><trkpt lat="48.18792878692382" lon="11.592905884246456"><ele>503.6666666666667</ele><time>2026-04-18T12:05:43Z</time></trkpt><trkpt lat="48.187936246964064" lon="11.592764881381267"><ele>504.0</ele><time>2026-04-18T12:05:44Z</time></trkpt><trkpt lat="48.18794209197047" lon="11.59261476468669"><ele>504.0</ele><time>2026-04-18T12:05:45Z</time></trkpt><trkpt lat="48.18794646009942" lon="11.592456952972762"><ele>504.0</ele><time>2026-04-18T12:05:46Z</time></trkpt><trkpt lat="48.18795044434979" lon="11.59230449298099"><ele>504.0</ele><time>2026-04-18T12:05:47Z</time></trkpt><trkpt lat="48.187954075461406" lon="11.592159217251426"><ele>504.0</ele><time>2026-04-18T12:05:48Z</time></trkpt><trkpt lat="48.187957941431996" lon="11.592004545162963"><ele>504.0</ele><time>2026-04-18T12:05:49Z</time></trkpt><trkpt lat="48.1879613492718" lon="11.591841003292718"><ele>504.0</ele><time>2026-04-18T12:05:50Z</time></trkpt><trkpt lat="48.18796432374645" lon="11.591658692902536"><ele>504.0</ele><time>2026-04-18T12:05:51Z</time></trkpt><trkpt lat="48.18796711827419" lon="11.591487411406035"><ele>504.0</ele><time>2026-04-18T12:05:52Z</time></trkpt><trkpt lat="48.18796886737077" lon="11.591317715367458"><ele>504.0</ele><time>2026-04-18T12:05:53Z</time></trkpt><trkpt lat="48.18797058651629" lon="11.591145229510312"><ele>504.0</ele><time>2026-04-18T12:05:54Z</time></trkpt><trkpt lat="48.1879708637244" lon="11.59094292029611"><ele>504.0</ele><time>2026-04-18T12:05:55Z</time></trkpt><trkpt lat="48.1879708637239" lon="11.590738449243194"><ele>504.0</ele><time>2026-04-18T12:05:56Z</time></trkpt><trkpt lat="48.18797067263718" lon="11.590551266830273"><ele>504.0</ele><time>2026-04-18T12:05:57Z</time></trkpt><trkpt lat="48.18796928995646" lon="11.590369831559414"><ele>504.75</ele><time>2026-04-18T12:05:58Z</time></trkpt><trkpt lat="48.187969120814145" lon="11.590188146235977"><ele>505.5</ele><time>2026-04-18T12:05:59Z</time></trkpt><trkpt lat="48.18796882635725" lon="11.590000030528849"><ele>506.25</ele><time>2026-04-18T12:06:00Z</time></trkpt><trkpt lat="48.18796855485397" lon="11.589805815280513"><ele>507.0</ele><time>2026-04-18T12:06:01Z</time></trkpt><trkpt lat="48.18796828314962" lon="11.589611456229033"><ele>506.5</ele><time>2026-04-18T12:06:02Z</time></trkpt><trkpt lat="48.18796801798737" lon="11.589421777912749"><ele>506.0</ele><time>2026-04-18T12:06:03Z</time></trkpt><trkpt lat="48.18796708506804" lon="11.58922859963754"><ele>505.5</ele><time>2026-04-18T12:06:04Z</time></trkpt><trkpt lat="48.187966834149925" lon="11.589034241438048"><ele>505.0</ele><time>2026-04-18T12:06:05Z</time></trkpt><trkpt lat="48.18796648919902" lon="11.588838635155344"><ele>505.0</ele><time>2026-04-18T12:06:06Z</time></trkpt><trkpt lat="48.187966162384484" lon="11.588653312926585"><ele>505.0</ele><time>2026-04-18T12:06:07Z</time></trkpt><trkpt lat="48.18796583682064" lon="11.588468700549026"><ele>505.0</ele><time>2026-04-18T12:06:08Z</time></trkpt><trkpt lat="48.18796549452878" lon="11.588274601809854"><ele>505.0</ele><time>2026-04-18T12:06:09Z</time></trkpt><trkpt lat="48.18796528929496" lon="11.588067611413182"><ele>505.0</ele><time>2026-04-18T12:06:10Z</time></trkpt><trkpt lat="48.187948557989536" lon="11.587873347711861"><ele>505.0</ele><time>2026-04-18T12:06:11Z</time></trkpt><trkpt lat="48.18796492977567" lon="11.587677013716723"><ele>505.0</ele><time>2026-04-18T12:06:12Z</time></trkpt><trkpt lat="48.187964750911064" lon="11.587482687205002"><ele>505.0</ele><time>2026-04-18T12:06:13Z</time></trkpt><trkpt lat="48.18796457802755" lon="11.587294858338527"><ele>505.75</ele><time>2026-04-18T12:06:14Z</time></trkpt><trkpt lat="48.18796276372334" lon="11.587103131112695"><ele>506.5</ele><time>2026-04-18T12:06:15Z</time></trkpt><trkpt lat="48.187964500223664" lon="11.586910108983929"><ele>507.25</ele><time>2026-04-18T12:06:16Z</time></trkpt><trkpt lat="48.187968946899225" lon="11.586721253279602"><ele>508.0</ele><time>2026-04-18T12:06:17Z</time></trkpt><trkpt lat="48.18793790273533" lon="11.586524521645465"><ele>508.0</ele><time>2026-04-18T12:06:18Z</time></trkpt><trkpt lat="48.187931149995066" lon="11.586321558068251"><ele>508.0</ele><time>2026-04-18T12:06:19Z</time></trkpt><trkpt lat="48.18792574761262" lon="11.58610362973069"><ele>508.0</ele><time>2026-04-18T12:06:20Z</time></trkpt><trkpt lat="48.18792280679438" lon="11.585877756162748"><ele>508.0</ele><time>2026-04-18T12:06:21Z</time></trkpt><trkpt lat="48.18791938360338" lon="11.585679564711846"><ele>508.0</ele><time>2026-04-18T12:06:22Z</time></trkpt><trkpt lat="48.18791374753051" lon="11.585485240882658"><ele>508.0</ele><time>2026-04-18T12:06:23Z</time></trkpt><trkpt lat="48.187908304894954" lon="11.58530074007836"><ele>508.0</ele><time>2026-04-18T12:06:24Z</time></trkpt><trkpt lat="48.18790139588778" lon="11.585129640592347"><ele>508.0</ele><time>2026-04-18T12:06:25Z</time></trkpt><trkpt lat="48.18789570405683" lon="11.584960131277377"><ele>508.0</ele><time>2026-04-18T12:06:26Z</time></trkpt><trkpt lat="48.18788933601602" lon="11.584768701924599"><ele>508.0</ele><time>2026-04-18T12:06:27Z</time></trkpt><trkpt lat="48.18788146891275" lon="11.584578043731643"><ele>508.0</ele><time>2026-04-18T12:06:28Z</time></trkpt><trkpt lat="48.18787434810364" lon="11.584401072994677"><ele>508.0</ele><time>2026-04-18T12:06:29Z</time></trkpt><trkpt lat="48.18786857848173" lon="11.58423171151024"><ele>507.5</ele><time>2026-04-18T12:06:30Z</time></trkpt><trkpt lat="48.18786367031001" lon="11.584064287376297"><ele>507.0</ele><time>2026-04-18T12:06:31Z</time></trkpt><trkpt lat="48.187856657604904" lon="11.58388975552609"><ele>506.5</ele><time>2026-04-18T12:06:32Z</time></trkpt><trkpt lat="48.18785010040715" lon="11.583713075020412"><ele>506.0</ele><time>2026-04-18T12:06:33Z</time></trkpt><trkpt lat="48.18784501196807" lon="11.583536634354001"><ele>505.75</ele><time>2026-04-18T12:06:34Z</time></trkpt><trkpt lat="48.18783873539976" lon="11.583358819250853"><ele>505.5</ele><time>2026-04-18T12:06:35Z</time></trkpt><trkpt lat="48.18783388737729" lon="11.583182426881676"><ele>505.25</ele><time>2026-04-18T12:06:36Z</time></trkpt><trkpt lat="48.18782904305765" lon="11.583000251650974"><ele>505.0</ele><time>2026-04-18T12:06:37Z</time></trkpt><trkpt lat="48.18782338979307" lon="11.582811269036972"><ele>505.5</ele><time>2026-04-18T12:06:38Z</time></trkpt><trkpt lat="48.18781709795753" lon="11.582617233975707"><ele>506.0</ele><time>2026-04-18T12:06:39Z</time></trkpt><trkpt lat="48.1878129592863" lon="11.582432605884815"><ele>506.5</ele><time>2026-04-18T12:06:40Z</time></trkpt><trkpt lat="48.18780990647721" lon="11.582258024471816"><ele>507.0</ele><time>2026-04-18T12:06:41Z</time></trkpt><trkpt lat="48.18780758055448" lon="11.582084878620789"><ele>507.0</ele><time>2026-04-18T12:06:42Z</time></trkpt><trkpt lat="48.187807246526404" lon="11.581909813871883"><ele>507.0</ele><time>2026-04-18T12:06:43Z</time></trkpt><trkpt lat="48.18780571609331" lon="11.581714672322262"><ele>507.0</ele><time>2026-04-18T12:06:44Z</time></trkpt><trkpt lat="48.1878007407232" lon="11.581509085476489"><ele>507.0</ele><time>2026-04-18T12:06:45Z</time></trkpt><trkpt lat="48.187793714760694" lon="11.581282967214342"><ele>506.5</ele><time>2026-04-18T12:06:46Z</time></trkpt><trkpt lat="48.187804727457134" lon="11.581055194733063"><ele>506.0</ele><time>2026-04-18T12:06:47Z</time></trkpt><trkpt lat="48.1877997977417" lon="11.580845420536379"><ele>505.5</ele><time>2026-04-18T12:06:48Z</time></trkpt><trkpt lat="48.18777020932441" lon="11.580644920114517"><ele>505.0</ele><time>2026-04-18T12:06:49Z</time></trkpt><trkpt lat="48.187763830429006" lon="11.580444095889298"><ele>504.75</ele><time>2026-04-18T12:06:50Z</time></trkpt><trkpt lat="48.18775838898786" lon="11.580215253974995"><ele>504.5</ele><time>2026-04-18T12:06:51Z</time></trkpt><trkpt lat="48.187753641278086" lon="11.58000731627153"><ele>504.25</ele><time>2026-04-18T12:06:52Z</time></trkpt><trkpt lat="48.18774665289666" lon="11.579814446155542"><ele>504.0</ele><time>2026-04-18T12:06:53Z</time></trkpt><trkpt lat="48.18774031604301" lon="11.579636037165846"><ele>504.75</ele><time>2026-04-18T12:06:54Z</time></trkpt><trkpt lat="48.18775523878658" lon="11.579461187231693"><ele>505.5</ele><time>2026-04-18T12:06:55Z</time></trkpt><trkpt lat="48.18775059521339" lon="11.579295764617909"><ele>506.25</ele><time>2026-04-18T12:06:56Z</time></trkpt><trkpt lat="48.18774593845948" lon="11.57913321396587"><ele>507.0</ele><time>2026-04-18T12:06:57Z</time></trkpt><trkpt lat="48.18773976888111" lon="11.578959880787426"><ele>507.0</ele><time>2026-04-18T12:06:58Z</time></trkpt><trkpt lat="48.187718609324804" lon="11.578775203045627"><ele>507.00000000000006</ele><time>2026-04-18T12:06:59Z</time></trkpt><trkpt lat="48.187713628603206" lon="11.57859814724107"><ele>507.00000000000006</ele><time>2026-04-18T12:07:00Z</time></trkpt><trkpt lat="48.18771037636974" lon="11.578441874697619"><ele>507.0</ele><time>2026-04-18T12:07:01Z</time></trkpt><trkpt lat="48.18770411484066" lon="11.578318402765612"><ele>507.0</ele><time>2026-04-18T12:07:02Z</time></trkpt><trkpt lat="48.18770170428743" lon="11.578222614597125"><ele>506.8</ele><time>2026-04-18T12:07:03Z</time></trkpt><trkpt lat="48.18769528522694" lon="11.578039257651996"><ele>506.6</ele><time>2026-04-18T12:07:05Z</time></trkpt><trkpt lat="48.18768816171093" lon="11.577859399950276"><ele>506.40000000000003</ele><time>2026-04-18T12:07:07Z</time></trkpt><trkpt lat="48.187681547917215" lon="11.577688740288913"><ele>506.20000000000005</ele><time>2026-04-18T12:07:09Z</time></trkpt><trkpt lat="48.18767724922482" lon="11.577569373136367"><ele>506.0</ele><time>2026-04-18T12:07:11Z</time></trkpt><trkpt lat="48.1876757771868" lon="11.577471375792022"><ele>506.0</ele><time>2026-04-18T12:07:14Z</time></trkpt><trkpt lat="48.18767293303597" lon="11.577372838399942"><ele>506.0</ele><time>2026-04-18T12:07:24Z</time></trkpt><trkpt lat="48.187674688914505" lon="11.577184930587448"><ele>506.0</ele><time>2026-04-18T12:07:26Z</time></trkpt><trkpt lat="48.187671522166205" lon="11.577085689515236"><ele>506.0</ele><time>2026-04-18T12:07:27Z</time></trkpt><trkpt lat="48.18766256727647" lon="11.576933722269917"><ele>506.0</ele><time>2026-04-18T12:07:29Z</time></trkpt><trkpt lat="48.187660488593416" lon="11.576731801464565"><ele>505.99999999999994</ele><time>2026-04-18T12:07:31Z</time></trkpt><trkpt lat="48.18765800432403" lon="11.576617545767784"><ele>506.0</ele><time>2026-04-18T12:07:32Z</time></trkpt><trkpt lat="48.18765549503499" lon="11.576515856725463"><ele>506.0</ele><time>2026-04-18T12:07:33Z</time></trkpt><trkpt lat="48.18765093832766" lon="11.576397663549574"><ele>506.0</ele><time>2026-04-18T12:07:34Z</time></trkpt><trkpt lat="48.187643593255274" lon="11.5762599746586"><ele>505.99999999999994</ele><time>2026-04-18T12:07:35Z</time></trkpt><trkpt lat="48.1876382036355" lon="11.576118948350507"><ele>506.0</ele><time>2026-04-18T12:07:36Z</time></trkpt><trkpt lat="48.18763396848455" lon="11.575972317655875"><ele>506.0</ele><time>2026-04-18T12:07:37Z</time></trkpt><trkpt lat="48.18762635313941" lon="11.575803316927615"><ele>506.0</ele><time>2026-04-18T12:07:38Z</time></trkpt><trkpt lat="48.18762074942115" lon="11.575635687564944"><ele>506.0</ele><time>2026-04-18T12:07:39Z</time></trkpt><trkpt lat="48.187614158384406" lon="11.575480436283193"><ele>506.0</ele><time>2026-04-18T12:07:40Z</time></trkpt><trkpt lat="48.18760823078468" lon="11.575332202809742"><ele>506.0</ele><time>2026-04-18T12:07:41Z</time></trkpt><trkpt lat="48.187604745045164" lon="11.575186350926934"><ele>505.99999999999994</ele><time>2026-04-18T12:07:42Z</time></trkpt><trkpt lat="48.18760011608979" lon="11.575038775060056"><ele>506.0</ele><time>2026-04-18T12:07:43Z</time></trkpt><trkpt lat="48.187593400937175" lon="11.574894975640822"><ele>506.0</ele><time>2026-04-18T12:07:44Z</time></trkpt><trkpt lat="48.18758737847401" lon="11.574761224915187"><ele>506.0</ele><time>2026-04-18T12:07:45Z</time></trkpt><trkpt lat="48.187585660088054" lon="11.574644582755807"><ele>505.99999999999994</ele><time>2026-04-18T12:07:46Z</time></trkpt><trkpt lat="48.18758322114953" lon="11.574545907078809"><ele>506.0</ele><time>2026-04-18T12:07:47Z</time></trkpt><trkpt lat="48.187580143638826" lon="11.574412469334678"><ele>506.0</ele><time>2026-04-18T12:07:49Z</time></trkpt><trkpt lat="48.187579213007794" lon="11.574289804396745"><ele>506.0</ele><time>2026-04-18T12:07:52Z</time></trkpt><trkpt lat="48.18757731306478" lon="11.574027783428217"><ele>506.0</ele><time>2026-04-18T12:08:01Z</time></trkpt><trkpt lat="48.18757162453364" lon="11.57386525017881"><ele>506.0</ele><time>2026-04-18T12:08:03Z</time></trkpt><trkpt lat="48.1875679548704" lon="11.573752852580055"><ele>506.0</ele><time>2026-04-18T12:08:04Z</time></trkpt><trkpt lat="48.18756212711791" lon="11.573635871916347"><ele>505.6</ele><time>2026-04-18T12:08:05Z</time></trkpt><trkpt lat="48.18755938018059" lon="11.57353784409824"><ele>505.20000000000005</ele><time>2026-04-18T12:08:06Z</time></trkpt><trkpt lat="48.187555637072144" lon="11.573383487891999"><ele>504.79999999999995</ele><time>2026-04-18T12:08:08Z</time></trkpt><trkpt lat="48.18755554899558" lon="11.573259636236344"><ele>504.4</ele><time>2026-04-18T12:08:10Z</time></trkpt><trkpt lat="48.187549651623094" lon="11.573162587758873"><ele>504.0</ele><time>2026-04-18T12:08:13Z</time></trkpt><trkpt lat="48.18754557504999" lon="11.572930081526248"><ele>504.0</ele><time>2026-04-18T12:09:23Z</time></trkpt><trkpt lat="48.18753919732491" lon="11.572737953088465"><ele>504.0</ele><time>2026-04-18T12:09:25Z</time></trkpt><trkpt lat="48.187534726114286" lon="11.572630016754195"><ele>504.0</ele><time>2026-04-18T12:09:26Z</time></trkpt><trkpt lat="48.18752417320101" lon="11.572510453005702"><ele>504.0</ele><time>2026-04-18T12:09:27Z</time></trkpt><trkpt lat="48.18751760812623" lon="11.572383599021434"><ele>504.0</ele><time>2026-04-18T12:09:28Z</time></trkpt><trkpt lat="48.18751192037274" lon="11.572248479044976"><ele>504.0</ele><time>2026-04-18T12:09:29Z</time></trkpt><trkpt lat="48.187507436413995" lon="11.57210288937349"><ele>504.0</ele><time>2026-04-18T12:09:30Z</time></trkpt><trkpt lat="48.18750540005907" lon="11.57195105827281"><ele>504.0</ele><time>2026-04-18T12:09:31Z</time></trkpt><trkpt lat="48.187500910238576" lon="11.571786554704643"><ele>504.0</ele><time>2026-04-18T12:09:32Z</time></trkpt><trkpt lat="48.18749447603139" lon="11.571615260156454"><ele>504.0</ele><time>2026-04-18T12:09:33Z</time></trkpt><trkpt lat="48.187490048278676" lon="11.571451065913207"><ele>504.0</ele><time>2026-04-18T12:09:34Z</time></trkpt><trkpt lat="48.18748533269019" lon="11.57127340157476"><ele>504.0</ele><time>2026-04-18T12:09:35Z</time></trkpt><trkpt lat="48.1874794340837" lon="11.571076223173085"><ele>504.0</ele><time>2026-04-18T12:09:36Z</time></trkpt><trkpt lat="48.187471280812815" lon="11.570833276778158"><ele>504.0</ele><time>2026-04-18T12:09:37Z</time></trkpt><trkpt lat="48.18746563907714" lon="11.570610372277857"><ele>504.25</ele><time>2026-04-18T12:09:38Z</time></trkpt><trkpt lat="48.18745730464379" lon="11.570405107110806"><ele>504.5</ele><time>2026-04-18T12:09:39Z</time></trkpt><trkpt lat="48.18745155942611" lon="11.570212247037778"><ele>504.75</ele><time>2026-04-18T12:09:40Z</time></trkpt><trkpt lat="48.18744541960454" lon="11.570020249443928"><ele>505.0</ele><time>2026-04-18T12:09:41Z</time></trkpt><trkpt lat="48.18743723791387" lon="11.569830730630258"><ele>505.0</ele><time>2026-04-18T12:09:42Z</time></trkpt><trkpt lat="48.187428389133366" lon="11.569632636440694"><ele>505.0</ele><time>2026-04-18T12:09:43Z</time></trkpt><trkpt lat="48.187426107315225" lon="11.569432024206053"><ele>505.0</ele><time>2026-04-18T12:09:44Z</time></trkpt><trkpt lat="48.18741667148262" lon="11.56924003349094"><ele>505.0</ele><time>2026-04-18T12:09:45Z</time></trkpt><trkpt lat="48.18740465940775" lon="11.569051891255898"><ele>505.0</ele><time>2026-04-18T12:09:46Z</time></trkpt><trkpt lat="48.187396412743055" lon="11.568874348272495"><ele>505.0</ele><time>2026-04-18T12:09:47Z</time></trkpt><trkpt lat="48.18738833668887" lon="11.56870594705503"><ele>505.0</ele><time>2026-04-18T12:09:48Z</time></trkpt><trkpt lat="48.187381257948154" lon="11.56855277577101"><ele>505.0</ele><time>2026-04-18T12:09:49Z</time></trkpt><trkpt lat="48.18737414952787" lon="11.568412328913452"><ele>505.0</ele><time>2026-04-18T12:09:50Z</time></trkpt><trkpt lat="48.18736814022812" lon="11.568278450381868"><ele>505.0</ele><time>2026-04-18T12:09:51Z</time></trkpt><trkpt lat="48.18736357637597" lon="11.56811853089722"><ele>505.0</ele><time>2026-04-18T12:09:52Z</time></trkpt><trkpt lat="48.187348911222216" lon="11.567939395460803"><ele>505.0</ele><time>2026-04-18T12:09:53Z</time></trkpt><trkpt lat="48.187334757806404" lon="11.567775611748447"><ele>505.0</ele><time>2026-04-18T12:09:54Z</time></trkpt><trkpt lat="48.18732390346811" lon="11.567633949296985"><ele>505.0</ele><time>2026-04-18T12:09:55Z</time></trkpt><trkpt lat="48.18731676533042" lon="11.567507001822412"><ele>505.83333333333337</ele><time>2026-04-18T12:09:56Z</time></trkpt><trkpt lat="48.18731032269801" lon="11.567409815280946"><ele>506.6666666666667</ele><time>2026-04-18T12:09:57Z</time></trkpt><trkpt lat="48.18729933137959" lon="11.567242113045154"><ele>507.5</ele><time>2026-04-18T12:09:59Z</time></trkpt><trkpt lat="48.187284839008704" lon="11.56710090041301"><ele>508.33333333333337</ele><time>2026-04-18T12:10:01Z</time></trkpt><trkpt lat="48.18727465148518" lon="11.567007696559143"><ele>509.1666666666667</ele><time>2026-04-18T12:10:04Z</time></trkpt><trkpt lat="48.18726984108433" lon="11.566872268297951"><ele>510.0</ele><time>2026-04-18T12:10:28Z</time></trkpt><trkpt lat="48.18725320312313" lon="11.566716859548695"><ele>510.0</ele><time>2026-04-18T12:10:30Z</time></trkpt><trkpt lat="48.187236145589836" lon="11.566581726699207"><ele>510.0</ele><time>2026-04-18T12:10:32Z</time></trkpt><trkpt lat="48.187229080980536" lon="11.566446345632613"><ele>510.0</ele><time>2026-04-18T12:10:34Z</time></trkpt><trkpt lat="48.18721721711013" lon="11.566300554444107"><ele>510.0</ele><time>2026-04-18T12:10:36Z</time></trkpt><trkpt lat="48.187215808907006" lon="11.56612517415072"><ele>510.0</ele><time>2026-04-18T12:10:38Z</time></trkpt><trkpt lat="48.18703566132164" lon="11.566038992563028"><ele>509.6666666666667</ele><time>2026-04-18T12:10:40Z</time></trkpt><trkpt lat="48.18695150225064" lon="11.566043488972602"><ele>509.33333333333337</ele><time>2026-04-18T12:10:41Z</time></trkpt><trkpt lat="48.1868777810088" lon="11.566072469417723"><ele>509.0</ele><time>2026-04-18T12:10:42Z</time></trkpt><trkpt lat="48.18680510641316" lon="11.566099627865038"><ele>508.6666666666667</ele><time>2026-04-18T12:10:43Z</time></trkpt><trkpt lat="48.186711545215644" lon="11.56612201934981"><ele>508.33333333333337</ele><time>2026-04-18T12:10:44Z</time></trkpt><trkpt lat="48.18659722769317" lon="11.566159754168531"><ele>508.0</ele><time>2026-04-18T12:10:45Z</time></trkpt><trkpt lat="48.18649729752887" lon="11.566186606617748"><ele>508.59999999999997</ele><time>2026-04-18T12:10:46Z</time></trkpt><trkpt lat="48.18640298072888" lon="11.566200982908152"><ele>509.19999999999993</ele><time>2026-04-18T12:10:47Z</time></trkpt><trkpt lat="48.18631239923275" lon="11.56621780032125"><ele>509.8</ele><time>2026-04-18T12:10:48Z</time></trkpt><trkpt lat="48.186225261608904" lon="11.566231341150749"><ele>510.4</ele><time>2026-04-18T12:10:49Z</time></trkpt><trkpt lat="48.18613828653178" lon="11.566240990453876"><ele>511.0</ele><time>2026-04-18T12:10:50Z</time></trkpt><trkpt lat="48.18604832640226" lon="11.566253094946402"><ele>511.0</ele><time>2026-04-18T12:10:51Z</time></trkpt><trkpt lat="48.18595411738539" lon="11.566263722903653"><ele>511.0</ele><time>2026-04-18T12:10:52Z</time></trkpt><trkpt lat="48.18585818835435" lon="11.566275415912797"><ele>511.0</ele><time>2026-04-18T12:10:53Z</time></trkpt><trkpt lat="48.1857599616138" lon="11.566294495234493"><ele>511.0</ele><time>2026-04-18T12:10:54Z</time></trkpt><trkpt lat="48.18565924332577" lon="11.566309803234581"><ele>511.0</ele><time>2026-04-18T12:10:55Z</time></trkpt><trkpt lat="48.185557707159425" lon="11.566325077871518"><ele>510.1666666666667</ele><time>2026-04-18T12:10:56Z</time></trkpt><trkpt lat="48.18547146781598" lon="11.566340783598426"><ele>509.33333333333337</ele><time>2026-04-18T12:10:57Z</time></trkpt><trkpt lat="48.18539576317662" lon="11.566352500467215"><ele>508.5</ele><time>2026-04-18T12:10:58Z</time></trkpt><trkpt lat="48.18532991850958" lon="11.566355703568759"><ele>507.66666666666663</ele><time>2026-04-18T12:10:59Z</time></trkpt><trkpt lat="48.18521461342624" lon="11.566371782444595"><ele>506.8333333333333</ele><time>2026-04-18T12:11:00.999Z</time></trkpt><trkpt lat="48.18512874349331" lon="11.566391575565234"><ele>506.0</ele><time>2026-04-18T12:11:02.999Z</time></trkpt><trkpt lat="48.18505463934931" lon="11.56640573080513"><ele>505.99999999999994</ele><time>2026-04-18T12:11:04.999Z</time></trkpt><trkpt lat="48.184978600032466" lon="11.566413062577434"><ele>506.0</ele><time>2026-04-18T12:11:07.999Z</time></trkpt><trkpt lat="48.18485134455593" lon="11.56642123973257"><ele>506.0</ele><time>2026-04-18T12:11:13.999Z</time></trkpt><trkpt lat="48.184766444461665" lon="11.566427608828686"><ele>506.0</ele><time>2026-04-18T12:11:14.999Z</time></trkpt><trkpt lat="48.18468750003226" lon="11.566437058410054"><ele>505.99999999999994</ele><time>2026-04-18T12:11:15.999Z</time></trkpt><trkpt lat="48.18461157370842" lon="11.566447520323692"><ele>506.0</ele><time>2026-04-18T12:11:17Z</time></trkpt><trkpt lat="48.18453830512412" lon="11.566458325220488"><ele>506.3333333333333</ele><time>2026-04-18T12:11:18Z</time></trkpt><trkpt lat="48.18446660082091" lon="11.566470446327532"><ele>506.66666666666663</ele><time>2026-04-18T12:11:19Z</time></trkpt><trkpt lat="48.18439028683588" lon="11.566482841356562"><ele>507.0</ele><time>2026-04-18T12:11:20Z</time></trkpt><trkpt lat="48.18428986427809" lon="11.566494831141592"><ele>507.33333333333337</ele><time>2026-04-18T12:11:21Z</time></trkpt><trkpt lat="48.18419128071938" lon="11.566505881002259"><ele>507.6666666666667</ele><time>2026-04-18T12:11:22Z</time></trkpt><trkpt lat="48.184095678311266" lon="11.566521346456545"><ele>508.0</ele><time>2026-04-18T12:11:23Z</time></trkpt><trkpt lat="48.183999552397395" lon="11.566538045910086"><ele>508.0</ele><time>2026-04-18T12:11:24Z</time></trkpt><trkpt lat="48.18387064512318" lon="11.566560115122877"><ele>508.0</ele><time>2026-04-18T12:11:25Z</time></trkpt><trkpt lat="48.18374013239557" lon="11.56657962670625"><ele>508.0</ele><time>2026-04-18T12:11:26Z</time></trkpt><trkpt lat="48.183627834813386" lon="11.566596065360116"><ele>508.0</ele><time>2026-04-18T12:11:27Z</time></trkpt><trkpt lat="48.18352610131611" lon="11.566611346715487"><ele>508.0</ele><time>2026-04-18T12:11:28Z</time></trkpt><trkpt lat="48.183435971078296" lon="11.566624474279186"><ele>507.99999999999994</ele><time>2026-04-18T12:11:29Z</time></trkpt><trkpt lat="48.1833436347732" lon="11.566637300427939"><ele>507.99999999999994</ele><time>2026-04-18T12:11:30Z</time></trkpt><trkpt lat="48.18324089891598" lon="11.566653106375705"><ele>508.0</ele><time>2026-04-18T12:11:31Z</time></trkpt><trkpt lat="48.183139139115966" lon="11.566669367450709"><ele>508.0</ele><time>2026-04-18T12:11:32Z</time></trkpt><trkpt lat="48.183040438851094" lon="11.566677286989487"><ele>508.2</ele><time>2026-04-18T12:11:33Z</time></trkpt><trkpt lat="48.18294413711109" lon="11.566686110062873"><ele>508.4</ele><time>2026-04-18T12:11:34Z</time></trkpt><trkpt lat="48.18285774543052" lon="11.566700832637737"><ele>508.59999999999997</ele><time>2026-04-18T12:11:35Z</time></trkpt><trkpt lat="48.18275250190417" lon="11.566713577760627"><ele>508.79999999999995</ele><time>2026-04-18T12:11:36Z</time></trkpt><trkpt lat="48.18263383882845" lon="11.566732014891686"><ele>509.0</ele><time>2026-04-18T12:11:37Z</time></trkpt><trkpt lat="48.18252741849146" lon="11.566751879305047"><ele>509.0</ele><time>2026-04-18T12:11:38Z</time></trkpt><trkpt lat="48.182426238387585" lon="11.566765111999842"><ele>509.0</ele><time>2026-04-18T12:11:39Z</time></trkpt><trkpt lat="48.18232883757457" lon="11.566780546416899"><ele>509.0</ele><time>2026-04-18T12:11:40Z</time></trkpt><trkpt lat="48.182234884626894" lon="11.566792362805467"><ele>509.0</ele><time>2026-04-18T12:11:41Z</time></trkpt><trkpt lat="48.18214054416635" lon="11.566809532580411"><ele>509.0</ele><time>2026-04-18T12:11:42Z</time></trkpt><trkpt lat="48.18204581222108" lon="11.566821364742248"><ele>509.66666666666663</ele><time>2026-04-18T12:11:43Z</time></trkpt><trkpt lat="48.181949182556544" lon="11.566834632439674"><ele>510.3333333333333</ele><time>2026-04-18T12:11:44Z</time></trkpt><trkpt lat="48.181857481223446" lon="11.566845899457403"><ele>511.0</ele><time>2026-04-18T12:11:45Z</time></trkpt><trkpt lat="48.1817686807876" lon="11.566855568363685"><ele>511.66666666666663</ele><time>2026-04-18T12:11:46Z</time></trkpt><trkpt lat="48.181683789168105" lon="11.56685082869994"><ele>512.3333333333334</ele><time>2026-04-18T12:11:47Z</time></trkpt><trkpt lat="48.18160294216193" lon="11.56685194071776"><ele>513.0</ele><time>2026-04-18T12:11:48Z</time></trkpt><trkpt lat="48.181520558098704" lon="11.566874534565455"><ele>513.6</ele><time>2026-04-18T12:11:49Z</time></trkpt><trkpt lat="48.18142954160596" lon="11.566886157209021"><ele>514.1999999999999</ele><time>2026-04-18T12:11:50Z</time></trkpt><trkpt lat="48.18132197472799" lon="11.566904792139386"><ele>514.8</ele><time>2026-04-18T12:11:51Z</time></trkpt><trkpt lat="48.18122156418827" lon="11.566921913514124"><ele>515.4</ele><time>2026-04-18T12:11:52Z</time></trkpt><trkpt lat="48.181125308238656" lon="11.566940439619763"><ele>516.0</ele><time>2026-04-18T12:11:53Z</time></trkpt><trkpt lat="48.18102997059215" lon="11.566955669385461"><ele>516.0</ele><time>2026-04-18T12:11:54Z</time></trkpt><trkpt lat="48.18093874899886" lon="11.566969911393368"><ele>516.0</ele><time>2026-04-18T12:11:55Z</time></trkpt><trkpt lat="48.18084437019238" lon="11.566988148331324"><ele>516.0</ele><time>2026-04-18T12:11:56Z</time></trkpt><trkpt lat="48.1807438724624" lon="11.567001154779614"><ele>516.0</ele><time>2026-04-18T12:11:57Z</time></trkpt><trkpt lat="48.18064962567119" lon="11.567015632701645"><ele>516.0</ele><time>2026-04-18T12:11:58Z</time></trkpt><trkpt lat="48.18055748063484" lon="11.567030879911517"><ele>514.8333333333334</ele><time>2026-04-18T12:11:59Z</time></trkpt><trkpt lat="48.18046839172225" lon="11.567042578152515"><ele>513.6666666666666</ele><time>2026-04-18T12:12:00Z</time></trkpt><trkpt lat="48.18037634905749" lon="11.567055426727343"><ele>512.5</ele><time>2026-04-18T12:12:01Z</time></trkpt><trkpt lat="48.18028534487235" lon="11.567069294128688"><ele>511.3333333333333</ele><time>2026-04-18T12:12:02Z</time></trkpt><trkpt lat="48.18019614044098" lon="11.567082592932314"><ele>510.16666666666663</ele><time>2026-04-18T12:12:03Z</time></trkpt><trkpt lat="48.18011078619681" lon="11.567092098077692"><ele>509.0</ele><time>2026-04-18T12:12:04Z</time></trkpt><trkpt lat="48.180028463606924" lon="11.56710472463278"><ele>509.0</ele><time>2026-04-18T12:12:05Z</time></trkpt><trkpt lat="48.17994258878094" lon="11.567117682278164"><ele>509.0</ele><time>2026-04-18T12:12:06Z</time></trkpt><trkpt lat="48.179852820186994" lon="11.567125975206922"><ele>509.0</ele><time>2026-04-18T12:12:07Z</time></trkpt><trkpt lat="48.17975848597435" lon="11.567134308152946"><ele>509.0</ele><time>2026-04-18T12:12:08Z</time></trkpt><trkpt lat="48.179664576439" lon="11.567134973171601"><ele>509.0</ele><time>2026-04-18T12:12:09Z</time></trkpt><trkpt lat="48.17956353952925" lon="11.567149172205141"><ele>509.4</ele><time>2026-04-18T12:12:10Z</time></trkpt><trkpt lat="48.179452752196575" lon="11.567167044997248"><ele>509.79999999999995</ele><time>2026-04-18T12:12:11Z</time></trkpt><trkpt lat="48.17934395193604" lon="11.567180914001636"><ele>510.20000000000005</ele><time>2026-04-18T12:12:12Z</time></trkpt><trkpt lat="48.17924753182437" lon="11.567194885033699"><ele>510.6</ele><time>2026-04-18T12:12:13Z</time></trkpt><trkpt lat="48.17915172911012" lon="11.5672097096167"><ele>511.0</ele><time>2026-04-18T12:12:14Z</time></trkpt><trkpt lat="48.17905973436936" lon="11.567220413716315"><ele>510.8</ele><time>2026-04-18T12:12:15Z</time></trkpt><trkpt lat="48.178968636691195" lon="11.56723388184432"><ele>510.6</ele><time>2026-04-18T12:12:16Z</time></trkpt><trkpt lat="48.178882907572245" lon="11.56724700958731"><ele>510.4</ele><time>2026-04-18T12:12:17Z</time></trkpt><trkpt lat="48.17879771554267" lon="11.567259988651923"><ele>510.2</ele><time>2026-04-18T12:12:18Z</time></trkpt><trkpt lat="48.178698574469195" lon="11.567275694883786"><ele>510.0</ele><time>2026-04-18T12:12:19Z</time></trkpt><trkpt lat="48.178596955264005" lon="11.567294179563568"><ele>510.0</ele><time>2026-04-18T12:12:20Z</time></trkpt><trkpt lat="48.178495318939156" lon="11.567308369760745"><ele>510.0</ele><time>2026-04-18T12:12:21Z</time></trkpt><trkpt lat="48.17840451370777" lon="11.567321271376937"><ele>510.0</ele><time>2026-04-18T12:12:22Z</time></trkpt><trkpt lat="48.17831198118427" lon="11.567338081749043"><ele>510.0</ele><time>2026-04-18T12:12:23Z</time></trkpt><trkpt lat="48.178228856510074" lon="11.56735161580503"><ele>510.0</ele><time>2026-04-18T12:12:24Z</time></trkpt><trkpt lat="48.178149164626056" lon="11.567358782295196"><ele>509.8</ele><time>2026-04-18T12:12:25Z</time></trkpt><trkpt lat="48.17807623517805" lon="11.567371655083788"><ele>509.6</ele><time>2026-04-18T12:12:26Z</time></trkpt><trkpt lat="48.178010898454595" lon="11.567384748844189"><ele>509.4</ele><time>2026-04-18T12:12:27Z</time></trkpt><trkpt lat="48.17789253808067" lon="11.567403313930289"><ele>509.2</ele><time>2026-04-18T12:12:29Z</time></trkpt><trkpt lat="48.177770516889275" lon="11.567422488301947"><ele>509.0</ele><time>2026-04-18T12:12:31Z</time></trkpt><trkpt lat="48.17768209436987" lon="11.56744515458484"><ele>509.0</ele><time>2026-04-18T12:12:32Z</time></trkpt><trkpt lat="48.17758024081578" lon="11.567462174048764"><ele>509.0</ele><time>2026-04-18T12:12:33Z</time></trkpt><trkpt lat="48.17747634205465" lon="11.567498248264132"><ele>509.0</ele><time>2026-04-18T12:12:34Z</time></trkpt><trkpt lat="48.17738285528471" lon="11.567511803183402"><ele>509.0</ele><time>2026-04-18T12:12:35Z</time></trkpt><trkpt lat="48.17730691203858" lon="11.567515426370182"><ele>509.0</ele><time>2026-04-18T12:12:36Z</time></trkpt><trkpt lat="48.177195595351414" lon="11.567506621056557"><ele>508.99999999999994</ele><time>2026-04-18T12:12:38Z</time></trkpt><trkpt lat="48.17709686290141" lon="11.567498993845346"><ele>509.0</ele><time>2026-04-18T12:12:40Z</time></trkpt><trkpt lat="48.17701824026851" lon="11.567500912712731"><ele>509.0</ele><time>2026-04-18T12:12:42Z</time></trkpt><trkpt lat="48.176940526247265" lon="11.567524916446937"><ele>509.0</ele><time>2026-04-18T12:12:45Z</time></trkpt><trkpt lat="48.176867752084064" lon="11.567532547517276"><ele>508.99999999999994</ele><time>2026-04-18T12:13:36Z</time></trkpt><trkpt lat="48.17679135289481" lon="11.567528376924013"><ele>509.0</ele><time>2026-04-18T12:13:38Z</time></trkpt><trkpt lat="48.17672400725191" lon="11.567526864800765"><ele>509.0</ele><time>2026-04-18T12:13:44Z</time></trkpt><trkpt lat="48.176652451737" lon="11.567482316044368"><ele>509.0</ele><time>2026-04-18T12:13:47Z</time></trkpt><trkpt lat="48.17666097657996" lon="11.56730207314844"><ele>509.0</ele><time>2026-04-18T12:13:57Z</time></trkpt><trkpt lat="48.17663139257296" lon="11.56718720552331"><ele>509.0</ele><time>2026-04-18T12:13:58Z</time></trkpt><trkpt lat="48.17658489653971" lon="11.567012335585712"><ele>509.0</ele><time>2026-04-18T12:13:59Z</time></trkpt><trkpt lat="48.176543736207506" lon="11.566866163500345"><ele>509.2</ele><time>2026-04-18T12:14:00Z</time></trkpt><trkpt lat="48.176506803949344" lon="11.566737211451237"><ele>509.4</ele><time>2026-04-18T12:14:01Z</time></trkpt><trkpt lat="48.17647141623289" lon="11.56660829080942"><ele>509.6</ele><time>2026-04-18T12:14:02Z</time></trkpt><trkpt lat="48.17643642716262" lon="11.566479449344968"><ele>509.8</ele><time>2026-04-18T12:14:03Z</time></trkpt><trkpt lat="48.176397520072555" lon="11.566340385440403"><ele>510.0</ele><time>2026-04-18T12:14:04Z</time></trkpt><trkpt lat="48.17635781590977" lon="11.566198551752695"><ele>510.5</ele><time>2026-04-18T12:14:05Z</time></trkpt><trkpt lat="48.17632146791659" lon="11.566060443217175"><ele>511.0</ele><time>2026-04-18T12:14:06Z</time></trkpt><trkpt lat="48.176292017739904" lon="11.565938267680673"><ele>511.5</ele><time>2026-04-18T12:14:07Z</time></trkpt><trkpt lat="48.17626716000089" lon="11.565827355462643"><ele>512.0</ele><time>2026-04-18T12:14:08Z</time></trkpt><trkpt lat="48.176245740209865" lon="11.565729475795173"><ele>512.5</ele><time>2026-04-18T12:14:09Z</time></trkpt><trkpt lat="48.17621120816579" lon="11.5655648727116"><ele>513.0</ele><time>2026-04-18T12:14:11.001Z</time></trkpt><trkpt lat="48.176200160892094" lon="11.565452638235993"><ele>513.0</ele><time>2026-04-18T12:14:13.001Z</time></trkpt><trkpt lat="48.17630263468498" lon="11.565372222009401"><ele>513.0</ele><time>2026-04-18T12:14:15.001Z</time></trkpt><trkpt lat="48.17637011694896" lon="11.565341256667233"><ele>513.0</ele><time>2026-04-18T12:14:16.001Z</time></trkpt><trkpt lat="48.17644441690156" lon="11.565296623585105"><ele>513.0</ele><time>2026-04-18T12:14:17.001Z</time></trkpt><trkpt lat="48.17653531631652" lon="11.565243458242024"><ele>513.0</ele><time>2026-04-18T12:14:18.001Z</time></trkpt><trkpt lat="48.17661262034692" lon="11.565207729963632"><ele>513.0</ele><time>2026-04-18T12:14:19.001Z</time></trkpt><trkpt lat="48.17668708508056" lon="11.565174474975885"><ele>512.7142857142858</ele><time>2026-04-18T12:14:20.001Z</time></trkpt><trkpt lat="48.176757336610756" lon="11.565144764533803"><ele>512.4285714285714</ele><time>2026-04-18T12:14:21.001Z</time></trkpt><trkpt lat="48.17682604563723" lon="11.565114520341199"><ele>512.1428571428571</ele><time>2026-04-18T12:14:22.001Z</time></trkpt><trkpt lat="48.17689359668646" lon="11.565082246132528"><ele>511.8571428571429</ele><time>2026-04-18T12:14:23.001Z</time></trkpt><trkpt lat="48.176959762820985" lon="11.5650541218662"><ele>511.57142857142856</ele><time>2026-04-18T12:14:24.001Z</time></trkpt><trkpt lat="48.17702340939069" lon="11.565028274968688"><ele>511.2857142857143</ele><time>2026-04-18T12:14:25.001Z</time></trkpt><trkpt lat="48.17708512373761" lon="11.565003111782516"><ele>511.0</ele><time>2026-04-18T12:14:26.001Z</time></trkpt><trkpt lat="48.17714643176645" lon="11.564979947312834"><ele>511.00000000000006</ele><time>2026-04-18T12:14:27.001Z</time></trkpt><trkpt lat="48.1772586682212" lon="11.56492860720668"><ele>511.0</ele><time>2026-04-18T12:14:29.001Z</time></trkpt><trkpt lat="48.17734993315155" lon="11.564883710903404"><ele>511.0</ele><time>2026-04-18T12:14:31.001Z</time></trkpt><trkpt lat="48.17742270383019" lon="11.564851427008941"><ele>511.0</ele><time>2026-04-18T12:14:33.001Z</time></trkpt><trkpt lat="48.177508015589" lon="11.56481162506152"><ele>511.00000000000006</ele><time>2026-04-18T12:14:40.001Z</time></trkpt><trkpt lat="48.17757361231246" lon="11.564779987219437"><ele>511.0</ele><time>2026-04-18T12:14:41.001Z</time></trkpt><trkpt lat="48.17766892388029" lon="11.564743826265687"><ele>511.0</ele><time>2026-04-18T12:14:42.001Z</time></trkpt><trkpt lat="48.17779372468354" lon="11.56469110454753"><ele>511.0</ele><time>2026-04-18T12:14:43.001Z</time></trkpt><trkpt lat="48.17793344845869" lon="11.564624919693458"><ele>511.0</ele><time>2026-04-18T12:14:44.001Z</time></trkpt><trkpt lat="48.178058210942226" lon="11.564560197093929"><ele>511.0</ele><time>2026-04-18T12:14:45.001Z</time></trkpt><trkpt lat="48.178173049238694" lon="11.56450141322232"><ele>511.1666666666667</ele><time>2026-04-18T12:14:46.001Z</time></trkpt><trkpt lat="48.178277627860496" lon="11.564455918517535"><ele>511.33333333333337</ele><time>2026-04-18T12:14:47.001Z</time></trkpt><trkpt lat="48.17836348297032" lon="11.564414788297563"><ele>511.5</ele><time>2026-04-18T12:14:48.001Z</time></trkpt><trkpt lat="48.178430194044815" lon="11.5643843542602"><ele>511.66666666666663</ele><time>2026-04-18T12:14:49.001Z</time></trkpt><trkpt lat="48.17851081622634" lon="11.56433906565687"><ele>511.8333333333333</ele><time>2026-04-18T12:14:51Z</time></trkpt><trkpt lat="48.17858083140603" lon="11.564347238803384"><ele>512.0</ele><time>2026-04-18T12:14:54Z</time></trkpt><trkpt lat="48.178663605714156" lon="11.564307826054392"><ele>512.0</ele><time>2026-04-18T12:14:59Z</time></trkpt><trkpt lat="48.178735462651645" lon="11.564273407278748"><ele>511.99999999999994</ele><time>2026-04-18T12:15:01Z</time></trkpt><trkpt lat="48.17880224691128" lon="11.564249211230619"><ele>512.0</ele><time>2026-04-18T12:15:04Z</time></trkpt><trkpt lat="48.17886340068524" lon="11.564207645426766"><ele>512.0</ele><time>2026-04-18T12:15:07Z</time></trkpt><trkpt lat="48.17893791400958" lon="11.564176435091406"><ele>511.99999999999994</ele><time>2026-04-18T12:15:47Z</time></trkpt><trkpt lat="48.178873163305084" lon="11.564167489786627"><ele>512.0</ele><time>2026-04-18T12:16:50Z</time></trkpt><trkpt lat="48.17880541912922" lon="11.56418218196131"><ele>512.0</ele><time>2026-04-18T12:16:57Z</time></trkpt><trkpt lat="48.178813916252615" lon="11.564278988132003"><ele>512.0</ele><time>2026-04-18T12:17:16Z</time></trkpt><trkpt lat="48.17884511777015" lon="11.564364487998603"><ele>512.0</ele><time>2026-04-18T12:17:32Z</time></trkpt><trkpt lat="48.17892857219234" lon="11.564451316817456"><ele>512.0</ele><time>2026-04-18T12:19:03.001Z</time></trkpt><trkpt lat="48.17901020616093" lon="11.56462700197552"><ele>512.0</ele><time>2026-04-18T12:19:08.001Z</time></trkpt><trkpt lat="48.17900311418404" lon="11.56452314935807"><ele>512.0</ele><time>2026-04-18T12:19:18.001Z</time></trkpt><trkpt lat="48.17896623898609" lon="11.564389822169774"><ele>511.5</ele><time>2026-04-18T12:19:31.034Z</time></trkpt><trkpt lat="48.17903487870525" lon="11.564443026720747"><ele>511.0</ele><time>2026-04-18T12:19:38.03Z</time></trkpt><trkpt lat="48.17928783294584" lon="11.564925915714415"><ele>511.0</ele><time>2026-04-18T12:19:42.033Z</time></trkpt><trkpt lat="48.17923806324715" lon="11.56479802726374"><ele>511.0</ele><time>2026-04-18T12:19:43.031Z</time></trkpt><trkpt lat="48.17914507958958" lon="11.564558546857329"><ele>511.0</ele><time>2026-04-18T12:19:44.028Z</time></trkpt><trkpt lat="48.179052533194195" lon="11.564488927617314"><ele>511.0</ele><time>2026-04-18T12:19:47.034Z</time></trkpt><trkpt lat="48.178937919975" lon="11.564332104309733"><ele>514.0</ele><time>2026-04-18T12:19:53.029Z</time></trkpt><trkpt lat="48.17833219071521" lon="11.563578310333842"><ele>514.0</ele><time>2026-04-18T12:19:59.027Z</time></trkpt><trkpt lat="48.17856331864666" lon="11.563552751374559"><ele>514.0</ele><time>2026-04-18T12:20:00.026Z</time></trkpt><trkpt lat="48.178565848409875" lon="11.563419337669714"><ele>514.0</ele><time>2026-04-18T12:20:01.027Z</time></trkpt><trkpt lat="48.17866432471994" lon="11.563423314628736"><ele>514.0</ele><time>2026-04-18T12:20:02.027Z</time></trkpt><trkpt lat="48.17872975194516" lon="11.563425956923524"><ele>514.0</ele><time>2026-04-18T12:20:03.029Z</time></trkpt><trkpt lat="48.17878844466968" lon="11.563461411409047"><ele>514.0</ele><time>2026-04-18T12:20:05.037Z</time></trkpt><trkpt lat="48.17873834115499" lon="11.563921409495073"><ele>514.0</ele><time>2026-04-18T12:20:08Z</time></trkpt><trkpt lat="48.17874853785451" lon="11.564029160424228"><ele>514.0</ele><time>2026-04-18T12:20:10Z</time></trkpt><trkpt lat="48.17877010260208" lon="11.564128942062597"><ele>513.6666666666667</ele><time>2026-04-18T12:20:13Z</time></trkpt><trkpt lat="48.17873498694944" lon="11.564251276826727"><ele>513.3333333333334</ele><time>2026-04-18T12:21:35Z</time></trkpt><trkpt lat="48.17884790843689" lon="11.56425786709689"><ele>513.0</ele><time>2026-04-18T12:22:24Z</time></trkpt><trkpt lat="48.178822223449224" lon="11.564347717045806"><ele>512.6666666666666</ele><time>2026-04-18T12:22:47Z</time></trkpt><trkpt lat="48.17878639154849" lon="11.564190762033645"><ele>512.3333333333333</ele><time>2026-04-18T12:22:58Z</time></trkpt><trkpt lat="48.17875511311882" lon="11.564095035836747"><ele>512.0</ele><time>2026-04-18T12:23:02Z</time></trkpt><trkpt lat="48.17898451388418" lon="11.563979690968138"><ele>511.99999999999994</ele><time>2026-04-18T12:23:09Z</time></trkpt><trkpt lat="48.17894784329486" lon="11.564093056113967"><ele>512.0</ele><time>2026-04-18T12:23:13Z</time></trkpt><trkpt lat="48.17886488497234" lon="11.564152470778035"><ele>512.0</ele><time>2026-04-18T12:23:16Z</time></trkpt><trkpt lat="48.17880706476284" lon="11.564199945170838"><ele>512.0</ele><time>2026-04-18T12:23:21.001Z</time></trkpt><trkpt lat="48.17890118775765" lon="11.564247591915446"><ele>511.99999999999994</ele><time>2026-04-18T12:26:16.014Z</time></trkpt><trkpt lat="48.17890819270827" lon="11.564120341702449"><ele>512.0</ele><time>2026-04-18T12:29:10.017Z</time></trkpt><trkpt lat="48.178910870206025" lon="11.56400833946205"><ele>512.0</ele><time>2026-04-18T12:29:11.017Z</time></trkpt><trkpt lat="48.1789152010043" lon="11.563827072638514"><ele>512.0</ele><time>2026-04-18T12:29:12.016Z</time></trkpt><trkpt lat="48.178920916763666" lon="11.563587733468594"><ele>512.0</ele><time>2026-04-18T12:29:13.017Z</time></trkpt><trkpt lat="48.17892601268887" lon="11.563374063018383"><ele>512.0</ele><time>2026-04-18T12:29:14.017Z</time></trkpt><trkpt lat="48.17889314534037" lon="11.564178462477605"><ele>512.0</ele><time>2026-04-18T12:29:29.015Z</time></trkpt><trkpt lat="48.17888728610313" lon="11.56398904969742"><ele>512.0</ele><time>2026-04-18T12:36:20.001Z</time></trkpt><trkpt lat="48.17888461539266" lon="11.564245572521616"><ele>512.0</ele><time>2026-04-18T12:39:43Z</time></trkpt><trkpt lat="48.17899407232885" lon="11.564318989494694"><ele>512.0</ele><time>2026-04-18T12:54:53Z</time></trkpt><trkpt lat="48.179048264857485" lon="11.564260593522013"><ele>511.8</ele><time>2026-04-18T12:56:33.999Z</time></trkpt><trkpt lat="48.179089026857795" lon="11.564182679134573"><ele>511.6</ele><time>2026-04-18T12:56:36.999Z</time></trkpt><trkpt lat="48.17920285876718" lon="11.564070780497667"><ele>511.40000000000003</ele><time>2026-04-18T12:56:46.999Z</time></trkpt><trkpt lat="48.17927530031751" lon="11.564048650054422"><ele>511.20000000000005</ele><time>2026-04-18T12:56:47.999Z</time></trkpt><trkpt lat="48.1793666105583" lon="11.564011547330422"><ele>511.0</ele><time>2026-04-18T12:56:48.999Z</time></trkpt><trkpt lat="48.179449439233984" lon="11.563971036027962"><ele>511.0</ele><time>2026-04-18T12:56:49.999Z</time></trkpt><trkpt lat="48.17952271515636" lon="11.563939865908972"><ele>511.0</ele><time>2026-04-18T12:56:50.999Z</time></trkpt><trkpt lat="48.17959175225496" lon="11.563910563101906"><ele>511.0</ele><time>2026-04-18T12:56:51.999Z</time></trkpt><trkpt lat="48.179671207850376" lon="11.563879018827334"><ele>511.0</ele><time>2026-04-18T12:56:53Z</time></trkpt><trkpt lat="48.17974789303978" lon="11.563839283898327"><ele>511.0</ele><time>2026-04-18T12:56:54Z</time></trkpt><trkpt lat="48.17981626754688" lon="11.563811083122028"><ele>511.0</ele><time>2026-04-18T12:56:55Z</time></trkpt><trkpt lat="48.17987876310779" lon="11.563786866292112"><ele>511.0</ele><time>2026-04-18T12:56:56Z</time></trkpt><trkpt lat="48.179956628738665" lon="11.563749401898379"><ele>511.20000000000005</ele><time>2026-04-18T12:56:57Z</time></trkpt><trkpt lat="48.180044110519255" lon="11.563710047133933"><ele>511.40000000000003</ele><time>2026-04-18T12:56:58Z</time></trkpt><trkpt lat="48.18013189158636" lon="11.563675587555112"><ele>511.6</ele><time>2026-04-18T12:56:59Z</time></trkpt><trkpt lat="48.180213508800115" lon="11.563638148323193"><ele>511.8</ele><time>2026-04-18T12:57:00Z</time></trkpt><trkpt lat="48.18030634787072" lon="11.563603723443961"><ele>512.0</ele><time>2026-04-18T12:57:01Z</time></trkpt><trkpt lat="48.180404701376624" lon="11.56356637295482"><ele>512.2</ele><time>2026-04-18T12:57:02Z</time></trkpt><trkpt lat="48.180514033664835" lon="11.563526953681002"><ele>512.4000000000001</ele><time>2026-04-18T12:57:03Z</time></trkpt><trkpt lat="48.180618129045705" lon="11.563485230911523"><ele>512.5999999999999</ele><time>2026-04-18T12:57:04Z</time></trkpt><trkpt lat="48.18072068465652" lon="11.563440212415061"><ele>512.8</ele><time>2026-04-18T12:57:05Z</time></trkpt><trkpt lat="48.18081951227573" lon="11.563398625078971"><ele>513.0</ele><time>2026-04-18T12:57:06Z</time></trkpt><trkpt lat="48.1809204980407" lon="11.5633679638033"><ele>513.0</ele><time>2026-04-18T12:57:07Z</time></trkpt><trkpt lat="48.18102473051412" lon="11.563333048067884"><ele>513.0</ele><time>2026-04-18T12:57:08Z</time></trkpt><trkpt lat="48.18112587969263" lon="11.563296062106676"><ele>513.0</ele><time>2026-04-18T12:57:09Z</time></trkpt><trkpt lat="48.181234095118675" lon="11.563269075394736"><ele>513.0</ele><time>2026-04-18T12:57:10Z</time></trkpt><trkpt lat="48.18134768938302" lon="11.563247277540663"><ele>513.0</ele><time>2026-04-18T12:57:11Z</time></trkpt><trkpt lat="48.18146597465754" lon="11.563231368969753"><ele>512.75</ele><time>2026-04-18T12:57:12Z</time></trkpt><trkpt lat="48.181592307926756" lon="11.563227992392317"><ele>512.5</ele><time>2026-04-18T12:57:13Z</time></trkpt><trkpt lat="48.18172081218161" lon="11.56323762840918"><ele>512.25</ele><time>2026-04-18T12:57:14Z</time></trkpt><trkpt lat="48.18184711486399" lon="11.56323691168141"><ele>512.0</ele><time>2026-04-18T12:57:15Z</time></trkpt><trkpt lat="48.18196288542454" lon="11.563229293906453"><ele>512.0</ele><time>2026-04-18T12:57:16Z</time></trkpt><trkpt lat="48.18207199291836" lon="11.563223623578406"><ele>512.0</ele><time>2026-04-18T12:57:17Z</time></trkpt><trkpt lat="48.182179295070036" lon="11.56322393911495"><ele>512.0</ele><time>2026-04-18T12:57:18Z</time></trkpt><trkpt lat="48.18228710883348" lon="11.563223708103882"><ele>512.0</ele><time>2026-04-18T12:57:19Z</time></trkpt><trkpt lat="48.18239078540287" lon="11.563222461074345"><ele>512.0</ele><time>2026-04-18T12:57:20Z</time></trkpt><trkpt lat="48.18249348795285" lon="11.563218932381417"><ele>512.0</ele><time>2026-04-18T12:57:21Z</time></trkpt><trkpt lat="48.182595769484834" lon="11.56321230573003"><ele>512.0</ele><time>2026-04-18T12:57:22Z</time></trkpt><trkpt lat="48.18270209909547" lon="11.563200385049935"><ele>512.0</ele><time>2026-04-18T12:57:23Z</time></trkpt><trkpt lat="48.18282018653587" lon="11.563182407664804"><ele>512.0</ele><time>2026-04-18T12:57:24Z</time></trkpt><trkpt lat="48.18293184596406" lon="11.563164885602045"><ele>512.0</ele><time>2026-04-18T12:57:25Z</time></trkpt><trkpt lat="48.18303359094107" lon="11.563145619015458"><ele>512.0</ele><time>2026-04-18T12:57:26Z</time></trkpt><trkpt lat="48.18313144416014" lon="11.563126030374823"><ele>512.0</ele><time>2026-04-18T12:57:27Z</time></trkpt><trkpt lat="48.18323150742551" lon="11.563103455578306"><ele>512.0</ele><time>2026-04-18T12:57:28Z</time></trkpt><trkpt lat="48.18333403124914" lon="11.5630793204428"><ele>512.0</ele><time>2026-04-18T12:57:29Z</time></trkpt><trkpt lat="48.183437678694474" lon="11.563051732279517"><ele>512.0</ele><time>2026-04-18T12:57:30Z</time></trkpt><trkpt lat="48.18354940157554" lon="11.563024839974974"><ele>511.6</ele><time>2026-04-18T12:57:30.999Z</time></trkpt><trkpt lat="48.183661954708136" lon="11.562993738044232"><ele>511.20000000000005</ele><time>2026-04-18T12:57:31.999Z</time></trkpt><trkpt lat="48.183774159780306" lon="11.562958554116022"><ele>510.8</ele><time>2026-04-18T12:57:32.999Z</time></trkpt><trkpt lat="48.18387138394466" lon="11.562923416528722"><ele>510.4</ele><time>2026-04-18T12:57:33.999Z</time></trkpt><trkpt lat="48.18394869312432" lon="11.562898906246213"><ele>510.0</ele><time>2026-04-18T12:57:34.999Z</time></trkpt><trkpt lat="48.18402518300215" lon="11.562880390416808"><ele>510.0</ele><time>2026-04-18T12:57:35.999Z</time></trkpt><trkpt lat="48.18409024624564" lon="11.562864028479407"><ele>510.0</ele><time>2026-04-18T12:57:36.999Z</time></trkpt><trkpt lat="48.184176892489326" lon="11.562836493318798"><ele>510.0</ele><time>2026-04-18T12:57:38.999Z</time></trkpt><trkpt lat="48.1842618915812" lon="11.56281210928722"><ele>510.0</ele><time>2026-04-18T12:57:41.999Z</time></trkpt><trkpt lat="48.1843493102341" lon="11.562787161268792"><ele>510.0</ele><time>2026-04-18T12:57:54.999Z</time></trkpt><trkpt lat="48.18444062998533" lon="11.562766837210871"><ele>510.0</ele><time>2026-04-18T12:57:56.999Z</time></trkpt><trkpt lat="48.184507760111146" lon="11.562738282003293"><ele>510.0</ele><time>2026-04-18T12:57:57.999Z</time></trkpt><trkpt lat="48.184591367353676" lon="11.562739689896699"><ele>510.0</ele><time>2026-04-18T12:57:58.999Z</time></trkpt><trkpt lat="48.18465742682654" lon="11.562734700380416"><ele>510.0</ele><time>2026-04-18T12:57:59.999Z</time></trkpt><trkpt lat="48.18473848389613" lon="11.562722620940738"><ele>510.0</ele><time>2026-04-18T12:58:01.999Z</time></trkpt><trkpt lat="48.18481685298015" lon="11.562705469600006"><ele>510.0</ele><time>2026-04-18T12:58:04.999Z</time></trkpt><trkpt lat="48.18491810094582" lon="11.562665796462397"><ele>510.0</ele><time>2026-04-18T12:58:15.999Z</time></trkpt><trkpt lat="48.184984408621666" lon="11.562642785034866"><ele>510.2</ele><time>2026-04-18T12:58:16.999Z</time></trkpt><trkpt lat="48.18506979709655" lon="11.562627645005554"><ele>510.4</ele><time>2026-04-18T12:58:17.999Z</time></trkpt><trkpt lat="48.185173171449726" lon="11.562625411149044"><ele>510.6</ele><time>2026-04-18T12:58:18.999Z</time></trkpt><trkpt lat="48.18527089358487" lon="11.562613705334895"><ele>510.8</ele><time>2026-04-18T12:58:19.999Z</time></trkpt><trkpt lat="48.18535744019596" lon="11.562599640687555"><ele>511.0</ele><time>2026-04-18T12:58:20.999Z</time></trkpt><trkpt lat="48.18543791724057" lon="11.562584925150672"><ele>511.00000000000006</ele><time>2026-04-18T12:58:21.999Z</time></trkpt><trkpt lat="48.18552316783338" lon="11.562567109399032"><ele>511.0</ele><time>2026-04-18T12:58:22.999Z</time></trkpt><trkpt lat="48.18560980161681" lon="11.562553851980178"><ele>511.0</ele><time>2026-04-18T12:58:23.999Z</time></trkpt><trkpt lat="48.1857055503969" lon="11.562547758802252"><ele>511.0</ele><time>2026-04-18T12:58:24.999Z</time></trkpt><trkpt lat="48.18579365548737" lon="11.562536184844319"><ele>511.00000000000006</ele><time>2026-04-18T12:58:25.999Z</time></trkpt><trkpt lat="48.18586835094385" lon="11.562522455010809"><ele>511.0</ele><time>2026-04-18T12:58:26.999Z</time></trkpt><trkpt lat="48.18598390924983" lon="11.56250538337002"><ele>510.83333333333337</ele><time>2026-04-18T12:58:28.999Z</time></trkpt><trkpt lat="48.18609612449311" lon="11.562496070308551"><ele>510.6666666666667</ele><time>2026-04-18T12:58:30.999Z</time></trkpt><trkpt lat="48.18616001927526" lon="11.562475882867634"><ele>510.5</ele><time>2026-04-18T12:58:31.999Z</time></trkpt><trkpt lat="48.186229483228075" lon="11.562463267228463"><ele>510.33333333333337</ele><time>2026-04-18T12:58:32.999Z</time></trkpt><trkpt lat="48.186304691470944" lon="11.562456935431614"><ele>510.1666666666667</ele><time>2026-04-18T12:58:33.999Z</time></trkpt><trkpt lat="48.18637204361031" lon="11.562448766948068"><ele>510.0</ele><time>2026-04-18T12:58:34.999Z</time></trkpt><trkpt lat="48.18647235868016" lon="11.562431711854364"><ele>509.8</ele><time>2026-04-18T12:58:36.999Z</time></trkpt><trkpt lat="48.18655076289792" lon="11.56241423281586"><ele>509.6</ele><time>2026-04-18T12:58:38.999Z</time></trkpt><trkpt lat="48.18663281481492" lon="11.562404209743"><ele>509.4</ele><time>2026-04-18T12:58:49.999Z</time></trkpt><trkpt lat="48.186725056184066" lon="11.562404678696685"><ele>509.2</ele><time>2026-04-18T12:58:51.999Z</time></trkpt><trkpt lat="48.18679372310775" lon="11.562398071659619"><ele>509.0</ele><time>2026-04-18T12:58:53.999Z</time></trkpt><trkpt lat="48.18682058332037" lon="11.562639800012846"><ele>509.0</ele><time>2026-04-18T12:58:54.999Z</time></trkpt><trkpt lat="48.18682281262213" lon="11.56276175141684"><ele>509.0</ele><time>2026-04-18T12:58:55.999Z</time></trkpt><trkpt lat="48.186833778365425" lon="11.562891563849135"><ele>509.0</ele><time>2026-04-18T12:58:56.999Z</time></trkpt><trkpt lat="48.186848439963605" lon="11.563015142156155"><ele>509.0</ele><time>2026-04-18T12:58:57.999Z</time></trkpt><trkpt lat="48.18686271746345" lon="11.56314703936692"><ele>509.0</ele><time>2026-04-18T12:58:58.999Z</time></trkpt><trkpt lat="48.18688001651245" lon="11.563318151573768"><ele>509.2</ele><time>2026-04-18T12:58:59.999Z</time></trkpt><trkpt lat="48.18689696903072" lon="11.563488174383432"><ele>509.4</ele><time>2026-04-18T12:59:00.999Z</time></trkpt><trkpt lat="48.186911365421984" lon="11.563632741583652"><ele>509.6</ele><time>2026-04-18T12:59:01.999Z</time></trkpt><trkpt lat="48.18692302073658" lon="11.563772995240392"><ele>509.8</ele><time>2026-04-18T12:59:02.999Z</time></trkpt><trkpt lat="48.1869356476763" lon="11.563903148102932"><ele>510.0</ele><time>2026-04-18T12:59:03.999Z</time></trkpt><trkpt lat="48.18694457142142" lon="11.564029022333289"><ele>509.5</ele><time>2026-04-18T12:59:04.999Z</time></trkpt><trkpt lat="48.18695491391036" lon="11.564147836224311"><ele>509.0</ele><time>2026-04-18T12:59:05.999Z</time></trkpt><trkpt lat="48.186966730261005" lon="11.56426537178532"><ele>508.5</ele><time>2026-04-18T12:59:06.998Z</time></trkpt><trkpt lat="48.1869738956022" lon="11.564381169861491"><ele>508.0</ele><time>2026-04-18T12:59:07.998Z</time></trkpt><trkpt lat="48.18698139541774" lon="11.564495329390837"><ele>507.5</ele><time>2026-04-18T12:59:08.998Z</time></trkpt><trkpt lat="48.18699080887629" lon="11.564607060575204"><ele>507.0</ele><time>2026-04-18T12:59:09.998Z</time></trkpt><trkpt lat="48.187003651362474" lon="11.564717497742235"><ele>506.8</ele><time>2026-04-18T12:59:10.998Z</time></trkpt><trkpt lat="48.18701526461108" lon="11.564828946647488"><ele>506.6</ele><time>2026-04-18T12:59:11.998Z</time></trkpt><trkpt lat="48.187023835573335" lon="11.564927668582515"><ele>506.40000000000003</ele><time>2026-04-18T12:59:12.998Z</time></trkpt><trkpt lat="48.187039710593275" lon="11.565081600996855"><ele>506.20000000000005</ele><time>2026-04-18T12:59:14.998Z</time></trkpt><trkpt lat="48.187054850909085" lon="11.565216876224632"><ele>506.0</ele><time>2026-04-18T12:59:16.998Z</time></trkpt><trkpt lat="48.187071582846244" lon="11.565392292795586"><ele>505.99999999999994</ele><time>2026-04-18T12:59:18.998Z</time></trkpt><trkpt lat="48.1870897687316" lon="11.565571284594302"><ele>506.0</ele><time>2026-04-18T12:59:20.998Z</time></trkpt><trkpt lat="48.187096977176154" lon="11.565668647462486"><ele>506.0</ele><time>2026-04-18T12:59:21.998Z</time></trkpt><trkpt lat="48.18710747978917" lon="11.565771340918884"><ele>506.0</ele><time>2026-04-18T12:59:22.998Z</time></trkpt><trkpt lat="48.18711830403232" lon="11.565877045689732"><ele>505.99999999999994</ele><time>2026-04-18T12:59:23.998Z</time></trkpt><trkpt lat="48.18712850077246" lon="11.565988521612043"><ele>506.0</ele><time>2026-04-18T12:59:24.998Z</time></trkpt><trkpt lat="48.18713765003321" lon="11.56609550253389"><ele>506.8</ele><time>2026-04-18T12:59:25.998Z</time></trkpt><trkpt lat="48.18714794009686" lon="11.56621698585389"><ele>507.6</ele><time>2026-04-18T12:59:26.998Z</time></trkpt><trkpt lat="48.18716012840858" lon="11.566366611986785"><ele>508.4</ele><time>2026-04-18T12:59:27.998Z</time></trkpt><trkpt lat="48.18717576410547" lon="11.5665430711254"><ele>509.2</ele><time>2026-04-18T12:59:28.998Z</time></trkpt><trkpt lat="48.18718934593962" lon="11.566704997559844"><ele>510.0</ele><time>2026-04-18T12:59:29.998Z</time></trkpt><trkpt lat="48.1872014655217" lon="11.566860339305546"><ele>510.0</ele><time>2026-04-18T12:59:30.998Z</time></trkpt><trkpt lat="48.18721544502243" lon="11.567017543132513"><ele>510.0</ele><time>2026-04-18T12:59:31.998Z</time></trkpt><trkpt lat="48.1872301528657" lon="11.567186113318247"><ele>510.0</ele><time>2026-04-18T12:59:32.998Z</time></trkpt><trkpt lat="48.187243283646325" lon="11.567371275023152"><ele>510.0</ele><time>2026-04-18T12:59:33.998Z</time></trkpt><trkpt lat="48.18725771289571" lon="11.567549710843545"><ele>510.0</ele><time>2026-04-18T12:59:34.998Z</time></trkpt><trkpt lat="48.18727173340165" lon="11.567731117943769"><ele>510.0</ele><time>2026-04-18T12:59:35.998Z</time></trkpt><trkpt lat="48.18728278408577" lon="11.567910743456446"><ele>510.0</ele><time>2026-04-18T12:59:36.998Z</time></trkpt><trkpt lat="48.18729291254062" lon="11.568085810115996"><ele>510.0</ele><time>2026-04-18T12:59:37.998Z</time></trkpt><trkpt lat="48.18730039043284" lon="11.568254563883352"><ele>509.8</ele><time>2026-04-18T12:59:38.998Z</time></trkpt><trkpt lat="48.1873069395999" lon="11.568418629530312"><ele>509.6</ele><time>2026-04-18T12:59:39.998Z</time></trkpt><trkpt lat="48.18731499388273" lon="11.568580620138498"><ele>509.4</ele><time>2026-04-18T12:59:40.998Z</time></trkpt><trkpt lat="48.1873210560482" lon="11.568740102403725"><ele>509.2</ele><time>2026-04-18T12:59:41.998Z</time></trkpt><trkpt lat="48.18732869363747" lon="11.56889813359169"><ele>509.0</ele><time>2026-04-18T12:59:42.998Z</time></trkpt><trkpt lat="48.187337821978126" lon="11.569056714922862"><ele>508.25</ele><time>2026-04-18T12:59:43.998Z</time></trkpt><trkpt lat="48.187345418971375" lon="11.56922242765945"><ele>507.5</ele><time>2026-04-18T12:59:44.998Z</time></trkpt><trkpt lat="48.18735136353921" lon="11.56939113375553"><ele>506.75</ele><time>2026-04-18T12:59:45.998Z</time></trkpt><trkpt lat="48.187359069813276" lon="11.56956326303239"><ele>506.0</ele><time>2026-04-18T12:59:46.998Z</time></trkpt><trkpt lat="48.187368008518284" lon="11.569736179900836"><ele>505.8</ele><time>2026-04-18T12:59:47.998Z</time></trkpt><trkpt lat="48.18737453838474" lon="11.569910816014167"><ele>505.6</ele><time>2026-04-18T12:59:48.998Z</time></trkpt><trkpt lat="48.187378556784104" lon="11.570082848061295"><ele>505.4</ele><time>2026-04-18T12:59:49.998Z</time></trkpt><trkpt lat="48.18738306241212" lon="11.570247574129986"><ele>505.2</ele><time>2026-04-18T12:59:50.998Z</time></trkpt><trkpt lat="48.18738848965881" lon="11.57040452614151"><ele>505.0</ele><time>2026-04-18T12:59:51.998Z</time></trkpt><trkpt lat="48.18739158625573" lon="11.570548294854088"><ele>505.00000000000006</ele><time>2026-04-18T12:59:52.998Z</time></trkpt><trkpt lat="48.18739357815592" lon="11.570679426345212"><ele>505.0</ele><time>2026-04-18T12:59:53.998Z</time></trkpt><trkpt lat="48.18739712664559" lon="11.570799940503555"><ele>505.0</ele><time>2026-04-18T12:59:54.998Z</time></trkpt><trkpt lat="48.187407605085795" lon="11.570915873740722"><ele>505.0</ele><time>2026-04-18T12:59:55.998Z</time></trkpt><trkpt lat="48.1874204024542" lon="11.571031477892454"><ele>505.00000000000006</ele><time>2026-04-18T12:59:56.998Z</time></trkpt><trkpt lat="48.18742755643456" lon="11.571144268019586"><ele>505.0</ele><time>2026-04-18T12:59:57.998Z</time></trkpt><trkpt lat="48.18743248350153" lon="11.571251949678295"><ele>504.8</ele><time>2026-04-18T12:59:58.998Z</time></trkpt><trkpt lat="48.18743387424228" lon="11.571355387571698"><ele>504.6</ele><time>2026-04-18T12:59:59.998Z</time></trkpt><trkpt lat="48.187434253219564" lon="11.571455758061184"><ele>504.4</ele><time>2026-04-18T13:00:00.998Z</time></trkpt><trkpt lat="48.187438956628704" lon="11.571603900379856"><ele>504.2</ele><time>2026-04-18T13:00:02.998Z</time></trkpt><trkpt lat="48.187443942557785" lon="11.571724526475833"><ele>504.0</ele><time>2026-04-18T13:00:04.998Z</time></trkpt><trkpt lat="48.18745741082905" lon="11.572074531564235"><ele>504.0</ele><time>2026-04-18T13:00:26.998Z</time></trkpt><trkpt lat="48.18746046105196" lon="11.572209241151551"><ele>504.0</ele><time>2026-04-18T13:00:27.998Z</time></trkpt><trkpt lat="48.18746302827222" lon="11.5723340825908"><ele>504.0</ele><time>2026-04-18T13:00:28.998Z</time></trkpt><trkpt lat="48.18746694715072" lon="11.572458418812438"><ele>504.0</ele><time>2026-04-18T13:00:29.998Z</time></trkpt><trkpt lat="48.18747365064447" lon="11.572600888219684"><ele>504.0</ele><time>2026-04-18T13:00:30.998Z</time></trkpt><trkpt lat="48.18748272204233" lon="11.572769826029788"><ele>504.0</ele><time>2026-04-18T13:00:31.998Z</time></trkpt><trkpt lat="48.187491957456196" lon="11.57293774307827"><ele>504.0</ele><time>2026-04-18T13:00:32.998Z</time></trkpt><trkpt lat="48.18749896551214" lon="11.57311055376191"><ele>504.0</ele><time>2026-04-18T13:00:33.998Z</time></trkpt><trkpt lat="48.18750444352944" lon="11.573283915836095"><ele>504.0</ele><time>2026-04-18T13:00:34.998Z</time></trkpt><trkpt lat="48.1875090310934" lon="11.57346272543509"><ele>504.0</ele><time>2026-04-18T13:00:35.998Z</time></trkpt><trkpt lat="48.187515016905955" lon="11.57364949106297"><ele>504.0</ele><time>2026-04-18T13:00:36.998Z</time></trkpt><trkpt lat="48.187520948403865" lon="11.573845426805738"><ele>504.0</ele><time>2026-04-18T13:00:37.998Z</time></trkpt><trkpt lat="48.18752594709805" lon="11.574046587001284"><ele>504.0</ele><time>2026-04-18T13:00:38.998Z</time></trkpt><trkpt lat="48.18752545683398" lon="11.574219870952104"><ele>504.4</ele><time>2026-04-18T13:00:39.998Z</time></trkpt><trkpt lat="48.18753179558563" lon="11.574385221631161"><ele>504.79999999999995</ele><time>2026-04-18T13:00:40.998Z</time></trkpt><trkpt lat="48.18753810449901" lon="11.574534351067374"><ele>505.20000000000005</ele><time>2026-04-18T13:00:41.998Z</time></trkpt><trkpt lat="48.1875427025639" lon="11.57467596163645"><ele>505.6</ele><time>2026-04-18T13:00:42.998Z</time></trkpt><trkpt lat="48.18754350124525" lon="11.574813824947437"><ele>506.0</ele><time>2026-04-18T13:00:43.998Z</time></trkpt><trkpt lat="48.18754747359212" lon="11.574949150510614"><ele>505.99999999999994</ele><time>2026-04-18T13:00:44.998Z</time></trkpt><trkpt lat="48.187550322895554" lon="11.575079612781687"><ele>506.0</ele><time>2026-04-18T13:00:45.998Z</time></trkpt><trkpt lat="48.18755392215734" lon="11.575201125915665"><ele>506.0</ele><time>2026-04-18T13:00:46.998Z</time></trkpt><trkpt lat="48.18755764929839" lon="11.575312923120212"><ele>506.0</ele><time>2026-04-18T13:00:47.998Z</time></trkpt><trkpt lat="48.1875615888801" lon="11.575415502244766"><ele>505.99999999999994</ele><time>2026-04-18T13:00:48.998Z</time></trkpt><trkpt lat="48.18756657052066" lon="11.575582860182585"><ele>506.0</ele><time>2026-04-18T13:00:50.997Z</time></trkpt><trkpt lat="48.18756768670113" lon="11.575691900245682"><ele>506.0</ele><time>2026-04-18T13:00:52.997Z</time></trkpt><trkpt lat="48.18757097889597" lon="11.575823905784834"><ele>506.0</ele><time>2026-04-18T13:01:15.998Z</time></trkpt><trkpt lat="48.18757673159567" lon="11.57599084331914"><ele>506.0</ele><time>2026-04-18T13:01:17.998Z</time></trkpt><trkpt lat="48.18758117484337" lon="11.576121152692007"><ele>506.0</ele><time>2026-04-18T13:01:18.998Z</time></trkpt><trkpt lat="48.18758748009374" lon="11.576246466501056"><ele>506.0</ele><time>2026-04-18T13:01:19.998Z</time></trkpt><trkpt lat="48.187593703867265" lon="11.576369326694302"><ele>506.0</ele><time>2026-04-18T13:01:20.998Z</time></trkpt><trkpt lat="48.187601978532" lon="11.57650748486673"><ele>506.0</ele><time>2026-04-18T13:01:21.998Z</time></trkpt><trkpt lat="48.18760895688055" lon="11.576672674447373"><ele>506.0</ele><time>2026-04-18T13:01:22.998Z</time></trkpt><trkpt lat="48.18761446514962" lon="11.576830163953975"><ele>506.0</ele><time>2026-04-18T13:01:23.998Z</time></trkpt><trkpt lat="48.18761861542171" lon="11.577006830764207"><ele>506.0</ele><time>2026-04-18T13:01:24.998Z</time></trkpt><trkpt lat="48.187624054326726" lon="11.577185850313974"><ele>506.0</ele><time>2026-04-18T13:01:25.998Z</time></trkpt><trkpt lat="48.187627552567804" lon="11.57735517096794"><ele>506.0</ele><time>2026-04-18T13:01:26.998Z</time></trkpt><trkpt lat="48.18763134719436" lon="11.577531639027795"><ele>506.0</ele><time>2026-04-18T13:01:27.998Z</time></trkpt><trkpt lat="48.18763743095692" lon="11.577710954706845"><ele>506.0</ele><time>2026-04-18T13:01:28.998Z</time></trkpt><trkpt lat="48.18764446781379" lon="11.57788487555727"><ele>506.0</ele><time>2026-04-18T13:01:29.998Z</time></trkpt><trkpt lat="48.18765049789106" lon="11.578054960150912"><ele>506.0</ele><time>2026-04-18T13:01:30.998Z</time></trkpt><trkpt lat="48.1876567865036" lon="11.578228848101269"><ele>506.0</ele><time>2026-04-18T13:01:31.998Z</time></trkpt><trkpt lat="48.18766334289338" lon="11.578401584132576"><ele>506.0</ele><time>2026-04-18T13:01:32.998Z</time></trkpt><trkpt lat="48.18766904945614" lon="11.57858443951272"><ele>506.25</ele><time>2026-04-18T13:01:33.998Z</time></trkpt><trkpt lat="48.18767433803289" lon="11.578776242175783"><ele>506.5</ele><time>2026-04-18T13:01:34.998Z</time></trkpt><trkpt lat="48.18767939413726" lon="11.578967017203556"><ele>506.75</ele><time>2026-04-18T13:01:35.998Z</time></trkpt><trkpt lat="48.18768660247141" lon="11.579159247188324"><ele>507.0</ele><time>2026-04-18T13:01:36.998Z</time></trkpt><trkpt lat="48.18769528169628" lon="11.579350144522031"><ele>506.25</ele><time>2026-04-18T13:01:37.998Z</time></trkpt><trkpt lat="48.18770041824143" lon="11.579545446855013"><ele>505.5</ele><time>2026-04-18T13:01:38.998Z</time></trkpt><trkpt lat="48.18770469492501" lon="11.579740461253275"><ele>504.75</ele><time>2026-04-18T13:01:39.998Z</time></trkpt><trkpt lat="48.18770946544822" lon="11.579928592850502"><ele>504.0</ele><time>2026-04-18T13:01:40.998Z</time></trkpt><trkpt lat="48.187715215373814" lon="11.58010748912948"><ele>504.0</ele><time>2026-04-18T13:01:41.998Z</time></trkpt><trkpt lat="48.18771977169841" lon="11.580283315572707"><ele>504.0</ele><time>2026-04-18T13:01:42.998Z</time></trkpt><trkpt lat="48.1877251273747" lon="11.580460129170914"><ele>504.0</ele><time>2026-04-18T13:01:43.998Z</time></trkpt><trkpt lat="48.187732229522034" lon="11.580639395368816"><ele>504.0</ele><time>2026-04-18T13:01:44.998Z</time></trkpt><trkpt lat="48.187735999367945" lon="11.580821136505596"><ele>504.25</ele><time>2026-04-18T13:01:45.998Z</time></trkpt><trkpt lat="48.18774083471626" lon="11.581005336708655"><ele>504.5</ele><time>2026-04-18T13:01:46.998Z</time></trkpt><trkpt lat="48.18774612983973" lon="11.581191591389187"><ele>504.75</ele><time>2026-04-18T13:01:47.998Z</time></trkpt><trkpt lat="48.18775483361816" lon="11.581382052903178"><ele>505.0</ele><time>2026-04-18T13:01:48.998Z</time></trkpt><trkpt lat="48.18776115475818" lon="11.581576167037543"><ele>505.5</ele><time>2026-04-18T13:01:49.998Z</time></trkpt><trkpt lat="48.18776139181605" lon="11.581778222209035"><ele>506.0</ele><time>2026-04-18T13:01:50.998Z</time></trkpt><trkpt lat="48.18777269406985" lon="11.581992337853663"><ele>506.5</ele><time>2026-04-18T13:01:51.998Z</time></trkpt><trkpt lat="48.18779347959739" lon="11.582212088319928"><ele>507.0</ele><time>2026-04-18T13:01:52.998Z</time></trkpt><trkpt lat="48.187803623120416" lon="11.582433435697194"><ele>507.0</ele><time>2026-04-18T13:01:53.998Z</time></trkpt><trkpt lat="48.18778461241238" lon="11.582650170341958"><ele>507.0</ele><time>2026-04-18T13:01:54.998Z</time></trkpt><trkpt lat="48.1878185466233" lon="11.582854391753775"><ele>507.0</ele><time>2026-04-18T13:01:55.998Z</time></trkpt><trkpt lat="48.187823735569005" lon="11.583039942912649"><ele>507.0</ele><time>2026-04-18T13:01:56.998Z</time></trkpt><trkpt lat="48.18783076359118" lon="11.583219789359505"><ele>506.75</ele><time>2026-04-18T13:01:57.998Z</time></trkpt><trkpt lat="48.187839530907354" lon="11.583404851037987"><ele>506.5</ele><time>2026-04-18T13:01:58.998Z</time></trkpt><trkpt lat="48.18784545427729" lon="11.58360097796957"><ele>506.25</ele><time>2026-04-18T13:01:59.998Z</time></trkpt><trkpt lat="48.18785047179" lon="11.583810326634962"><ele>506.0</ele><time>2026-04-18T13:02:00.998Z</time></trkpt><trkpt lat="48.18785763854827" lon="11.584025121025533"><ele>506.0</ele><time>2026-04-18T13:02:01.998Z</time></trkpt><trkpt lat="48.187864384635596" lon="11.5842299399943"><ele>506.0</ele><time>2026-04-18T13:02:02.998Z</time></trkpt><trkpt lat="48.18787008974128" lon="11.58442557215932"><ele>506.0</ele><time>2026-04-18T13:02:03.998Z</time></trkpt><trkpt lat="48.18787533457464" lon="11.584625258681282"><ele>506.0</ele><time>2026-04-18T13:02:04.998Z</time></trkpt><trkpt lat="48.187881935294904" lon="11.58483195174635"><ele>506.5</ele><time>2026-04-18T13:02:05.998Z</time></trkpt><trkpt lat="48.18788933279184" lon="11.585047790569952"><ele>507.0</ele><time>2026-04-18T13:02:06.998Z</time></trkpt><trkpt lat="48.18789419729681" lon="11.585273022968098"><ele>507.5</ele><time>2026-04-18T13:02:07.998Z</time></trkpt><trkpt lat="48.187898109730675" lon="11.585496719633177"><ele>508.0</ele><time>2026-04-18T13:02:08.998Z</time></trkpt><trkpt lat="48.18790272757154" lon="11.585717262178356"><ele>508.0</ele><time>2026-04-18T13:02:09.998Z</time></trkpt><trkpt lat="48.18790904430219" lon="11.585919753380567"><ele>508.0</ele><time>2026-04-18T13:02:10.998Z</time></trkpt><trkpt lat="48.187908802015784" lon="11.586111189589959"><ele>508.0</ele><time>2026-04-18T13:02:11.998Z</time></trkpt><trkpt lat="48.18790395561606" lon="11.586297115952753"><ele>508.0</ele><time>2026-04-18T13:02:12.998Z</time></trkpt><trkpt lat="48.187898025367645" lon="11.5864797134861"><ele>508.0</ele><time>2026-04-18T13:02:13.998Z</time></trkpt><trkpt lat="48.18789261142015" lon="11.586660657919934"><ele>508.0</ele><time>2026-04-18T13:02:14.998Z</time></trkpt><trkpt lat="48.18789630249677" lon="11.586840499435255"><ele>508.0</ele><time>2026-04-18T13:02:15.998Z</time></trkpt><trkpt lat="48.18789980301373" lon="11.587028429823507"><ele>508.0</ele><time>2026-04-18T13:02:16.998Z</time></trkpt><trkpt lat="48.18789696633573" lon="11.587219662518423"><ele>508.0</ele><time>2026-04-18T13:02:17.998Z</time></trkpt><trkpt lat="48.18788969600633" lon="11.587417590419008"><ele>508.0</ele><time>2026-04-18T13:02:18.998Z</time></trkpt><trkpt lat="48.18788780588893" lon="11.58761059878231"><ele>508.0</ele><time>2026-04-18T13:02:19.998Z</time></trkpt><trkpt lat="48.187888455947814" lon="11.587799380466349"><ele>508.0</ele><time>2026-04-18T13:02:20.998Z</time></trkpt><trkpt lat="48.18788801408852" lon="11.587989441871809"><ele>507.25</ele><time>2026-04-18T13:02:21.998Z</time></trkpt><trkpt lat="48.18788765404772" lon="11.588178080621244"><ele>506.5</ele><time>2026-04-18T13:02:22.998Z</time></trkpt><trkpt lat="48.18788879254301" lon="11.588366511490785"><ele>505.75</ele><time>2026-04-18T13:02:23.998Z</time></trkpt><trkpt lat="48.18788944889439" lon="11.588559386025189"><ele>505.0</ele><time>2026-04-18T13:02:24.998Z</time></trkpt><trkpt lat="48.18789080031293" lon="11.588754017393839"><ele>505.0</ele><time>2026-04-18T13:02:25.998Z</time></trkpt><trkpt lat="48.1878902144696" lon="11.588953368675822"><ele>505.0</ele><time>2026-04-18T13:02:26.998Z</time></trkpt><trkpt lat="48.18789075557657" lon="11.58915393336063"><ele>505.0</ele><time>2026-04-18T13:02:27.998Z</time></trkpt><trkpt lat="48.18789059354444" lon="11.589352544148758"><ele>505.0</ele><time>2026-04-18T13:02:28.998Z</time></trkpt><trkpt lat="48.18789227687801" lon="11.589543853628616"><ele>505.5</ele><time>2026-04-18T13:02:29.998Z</time></trkpt><trkpt lat="48.18789287825575" lon="11.589730706423033"><ele>506.0</ele><time>2026-04-18T13:02:30.998Z</time></trkpt><trkpt lat="48.18789391354933" lon="11.589915537187148"><ele>506.5</ele><time>2026-04-18T13:02:31.998Z</time></trkpt><trkpt lat="48.187894952350035" lon="11.590095089157025"><ele>507.0</ele><time>2026-04-18T13:02:32.998Z</time></trkpt><trkpt lat="48.1878922738054" lon="11.590271777256639"><ele>506.25</ele><time>2026-04-18T13:02:33.998Z</time></trkpt><trkpt lat="48.18789158010142" lon="11.590448512368186"><ele>505.5</ele><time>2026-04-18T13:02:34.998Z</time></trkpt><trkpt lat="48.18788870648983" lon="11.590627919383254"><ele>504.75</ele><time>2026-04-18T13:02:35.998Z</time></trkpt><trkpt lat="48.187888291617895" lon="11.590807818994595"><ele>504.0</ele><time>2026-04-18T13:02:36.998Z</time></trkpt><trkpt lat="48.18788932896203" lon="11.59098994981143"><ele>503.75</ele><time>2026-04-18T13:02:37.998Z</time></trkpt><trkpt lat="48.18789077948737" lon="11.591176409915583"><ele>503.5</ele><time>2026-04-18T13:02:38.998Z</time></trkpt><trkpt lat="48.18790021702264" lon="11.591371073526211"><ele>503.25</ele><time>2026-04-18T13:02:39.998Z</time></trkpt><trkpt lat="48.18790835708078" lon="11.591570860948742"><ele>503.0</ele><time>2026-04-18T13:02:40.998Z</time></trkpt><trkpt lat="48.18790774970953" lon="11.591782337428791"><ele>503.0</ele><time>2026-04-18T13:02:41.998Z</time></trkpt><trkpt lat="48.18790235173705" lon="11.592002484126024"><ele>503.0</ele><time>2026-04-18T13:02:42.998Z</time></trkpt><trkpt lat="48.187897639142214" lon="11.592222730176493"><ele>503.0</ele><time>2026-04-18T13:02:43.998Z</time></trkpt><trkpt lat="48.18789035823498" lon="11.592440696376629"><ele>503.0</ele><time>2026-04-18T13:02:44.998Z</time></trkpt><trkpt lat="48.18788104388316" lon="11.592655871527443"><ele>503.25</ele><time>2026-04-18T13:02:45.998Z</time></trkpt><trkpt lat="48.18786925436789" lon="11.592866453319134"><ele>503.5</ele><time>2026-04-18T13:02:46.998Z</time></trkpt><trkpt lat="48.18785450120785" lon="11.593076144367114"><ele>503.75</ele><time>2026-04-18T13:02:47.998Z</time></trkpt><trkpt lat="48.187835798035046" lon="11.593283311565934"><ele>504.0</ele><time>2026-04-18T13:02:48.998Z</time></trkpt><trkpt lat="48.187816834594294" lon="11.593488419557406"><ele>503.5</ele><time>2026-04-18T13:02:49.998Z</time></trkpt><trkpt lat="48.187794836957494" lon="11.593692612102286"><ele>503.0</ele><time>2026-04-18T13:02:50.998Z</time></trkpt><trkpt lat="48.187763467624" lon="11.593892433619708"><ele>502.5</ele><time>2026-04-18T13:02:51.998Z</time></trkpt><trkpt lat="48.18773415140463" lon="11.594094843294865"><ele>502.0</ele><time>2026-04-18T13:02:52.998Z</time></trkpt><trkpt lat="48.18771016933328" lon="11.594300893179412"><ele>502.0</ele><time>2026-04-18T13:02:53.998Z</time></trkpt><trkpt lat="48.18768899566238" lon="11.59449818938065"><ele>502.0</ele><time>2026-04-18T13:02:54.998Z</time></trkpt><trkpt lat="48.18767353657759" lon="11.59467837861593"><ele>502.0</ele><time>2026-04-18T13:02:55.998Z</time></trkpt><trkpt lat="48.18765271391387" lon="11.59484715705195"><ele>502.0</ele><time>2026-04-18T13:02:56.997Z</time></trkpt><trkpt lat="48.18763451363468" lon="11.595006644299863"><ele>502.0</ele><time>2026-04-18T13:02:57.997Z</time></trkpt><trkpt lat="48.18761908336019" lon="11.59516757954741"><ele>502.00000000000006</ele><time>2026-04-18T13:02:58.997Z</time></trkpt><trkpt lat="48.18760254006398" lon="11.595331613887243"><ele>502.00000000000006</ele><time>2026-04-18T13:02:59.997Z</time></trkpt><trkpt lat="48.18758475957111" lon="11.59550070785819"><ele>502.0</ele><time>2026-04-18T13:03:00.997Z</time></trkpt><trkpt lat="48.187566728628696" lon="11.595670903895027"><ele>502.0</ele><time>2026-04-18T13:03:01.997Z</time></trkpt><trkpt lat="48.18755091613022" lon="11.595831495786115"><ele>502.00000000000006</ele><time>2026-04-18T13:03:02.997Z</time></trkpt><trkpt lat="48.18753673149548" lon="11.595983377667133"><ele>502.0</ele><time>2026-04-18T13:03:03.997Z</time></trkpt><trkpt lat="48.187522939372265" lon="11.596126022377275"><ele>502.0</ele><time>2026-04-18T13:03:04.997Z</time></trkpt><trkpt lat="48.187507094442445" lon="11.596254658177612"><ele>502.0</ele><time>2026-04-18T13:03:05.997Z</time></trkpt><trkpt lat="48.18749403648079" lon="11.596364370518634"><ele>502.00000000000006</ele><time>2026-04-18T13:03:06.997Z</time></trkpt><trkpt lat="48.18748214911508" lon="11.59647612433996"><ele>502.0</ele><time>2026-04-18T13:03:08.997Z</time></trkpt><trkpt lat="48.18748476240722" lon="11.59659043442024"><ele>501.83333333333337</ele><time>2026-04-18T13:03:33.998Z</time></trkpt><trkpt lat="48.18749686644777" lon="11.596791778148761"><ele>501.6666666666667</ele><time>2026-04-18T13:03:35.998Z</time></trkpt><trkpt lat="48.18746837136052" lon="11.596900513361716"><ele>501.5</ele><time>2026-04-18T13:03:36.998Z</time></trkpt><trkpt lat="48.18747256484748" lon="11.597011433157068"><ele>501.33333333333337</ele><time>2026-04-18T13:03:37.998Z</time></trkpt><trkpt lat="48.18745668425362" lon="11.597122555028546"><ele>501.1666666666667</ele><time>2026-04-18T13:03:38.998Z</time></trkpt><trkpt lat="48.18744387637426" lon="11.597240592218606"><ele>501.0</ele><time>2026-04-18T13:03:39.998Z</time></trkpt><trkpt lat="48.18743417413131" lon="11.59735683205589"><ele>501.0</ele><time>2026-04-18T13:03:40.998Z</time></trkpt><trkpt lat="48.18740698673508" lon="11.597461366741975"><ele>501.0</ele><time>2026-04-18T13:03:41.998Z</time></trkpt><trkpt lat="48.187396346330935" lon="11.597558778344249"><ele>501.0</ele><time>2026-04-18T13:03:42.998Z</time></trkpt><trkpt lat="48.18737720843014" lon="11.597733983487965"><ele>501.0</ele><time>2026-04-18T13:03:44.998Z</time></trkpt><trkpt lat="48.187357582690495" lon="11.59791365488172"><ele>501.0</ele><time>2026-04-18T13:03:46.998Z</time></trkpt><trkpt lat="48.18733821841377" lon="11.598091820919393"><ele>501.6</ele><time>2026-04-18T13:03:48.999Z</time></trkpt><trkpt lat="48.18732807048845" lon="11.59818553626788"><ele>502.20000000000005</ele><time>2026-04-18T13:03:49.999Z</time></trkpt><trkpt lat="48.18730792809561" lon="11.598371549727757"><ele>502.79999999999995</ele><time>2026-04-18T13:03:51.999Z</time></trkpt><trkpt lat="48.18729187331741" lon="11.59851981438497"><ele>503.4</ele><time>2026-04-18T13:03:53.999Z</time></trkpt><trkpt lat="48.18727919411421" lon="11.5986369059341"><ele>504.0</ele><time>2026-04-18T13:03:56.999Z</time></trkpt><trkpt lat="48.187273240813816" lon="11.598796616881563"><ele>504.1666666666667</ele><time>2026-04-18T13:04:15.999Z</time></trkpt><trkpt lat="48.18725989775692" lon="11.59890716984248"><ele>504.33333333333337</ele><time>2026-04-18T13:04:16.999Z</time></trkpt><trkpt lat="48.18724719165245" lon="11.599032213772112"><ele>504.5</ele><time>2026-04-18T13:04:17.999Z</time></trkpt><trkpt lat="48.187232619412846" lon="11.599156868368016"><ele>504.6666666666667</ele><time>2026-04-18T13:04:18.999Z</time></trkpt><trkpt lat="48.18721539305783" lon="11.599290906423546"><ele>504.83333333333337</ele><time>2026-04-18T13:04:19.999Z</time></trkpt><trkpt lat="48.18719556471649" lon="11.599436036822569"><ele>505.0</ele><time>2026-04-18T13:04:20.999Z</time></trkpt><trkpt lat="48.18717369263808" lon="11.599583594609374"><ele>505.0</ele><time>2026-04-18T13:04:21.999Z</time></trkpt><trkpt lat="48.187155934113115" lon="11.59972941645356"><ele>505.0</ele><time>2026-04-18T13:04:22.999Z</time></trkpt><trkpt lat="48.187145142607505" lon="11.59986712802578"><ele>505.0</ele><time>2026-04-18T13:04:23.999Z</time></trkpt><trkpt lat="48.187129362344905" lon="11.600000166028027"><ele>505.0</ele><time>2026-04-18T13:04:24.999Z</time></trkpt><trkpt lat="48.18710919678296" lon="11.600120415190908"><ele>505.0</ele><time>2026-04-18T13:04:25.999Z</time></trkpt><trkpt lat="48.187078715351646" lon="11.600241563251826"><ele>504.8</ele><time>2026-04-18T13:04:26.999Z</time></trkpt><trkpt lat="48.1870560262544" lon="11.600366278944493"><ele>504.6</ele><time>2026-04-18T13:04:27.999Z</time></trkpt><trkpt lat="48.18704276255695" lon="11.600508229401068"><ele>504.4</ele><time>2026-04-18T13:04:28.999Z</time></trkpt><trkpt lat="48.18703065793525" lon="11.60064879549757"><ele>504.2</ele><time>2026-04-18T13:04:29.999Z</time></trkpt><trkpt lat="48.18702343753613" lon="11.600797565301155"><ele>504.0</ele><time>2026-04-18T13:04:30.999Z</time></trkpt><trkpt lat="48.18700869657951" lon="11.600947835596621"><ele>504.0</ele><time>2026-04-18T13:04:31.999Z</time></trkpt><trkpt lat="48.1869888342794" lon="11.601105286302946"><ele>504.0</ele><time>2026-04-18T13:04:32.999Z</time></trkpt><trkpt lat="48.18697010449058" lon="11.601270561307176"><ele>504.0</ele><time>2026-04-18T13:04:33.999Z</time></trkpt><trkpt lat="48.18695058523724" lon="11.601428840796189"><ele>504.0</ele><time>2026-04-18T13:04:34.999Z</time></trkpt><trkpt lat="48.18693324984932" lon="11.601587107797924"><ele>504.0</ele><time>2026-04-18T13:04:35.999Z</time></trkpt><trkpt lat="48.18691546538306" lon="11.601749663640543"><ele>504.0</ele><time>2026-04-18T13:04:36.999Z</time></trkpt><trkpt lat="48.18689454895919" lon="11.60191642024216"><ele>504.0</ele><time>2026-04-18T13:04:37.999Z</time></trkpt><trkpt lat="48.1868738638814" lon="11.602114789239144"><ele>504.0</ele><time>2026-04-18T13:04:38.999Z</time></trkpt><trkpt lat="48.18685267533278" lon="11.602311304106317"><ele>504.0</ele><time>2026-04-18T13:04:39.999Z</time></trkpt><trkpt lat="48.186833599685485" lon="11.602495611742334"><ele>504.0</ele><time>2026-04-18T13:04:40.999Z</time></trkpt><trkpt lat="48.186814720409764" lon="11.60267626617989"><ele>504.0</ele><time>2026-04-18T13:04:41.999Z</time></trkpt><trkpt lat="48.18679554439601" lon="11.602869481301667"><ele>504.0</ele><time>2026-04-18T13:04:42.999Z</time></trkpt><trkpt lat="48.18677421020374" lon="11.603073884044113"><ele>504.0</ele><time>2026-04-18T13:04:43.999Z</time></trkpt><trkpt lat="48.186752649405946" lon="11.603285109830653"><ele>503.5</ele><time>2026-04-18T13:04:44.999Z</time></trkpt><trkpt lat="48.18673192520238" lon="11.603486167927606"><ele>503.0</ele><time>2026-04-18T13:04:45.999Z</time></trkpt><trkpt lat="48.18670920563242" lon="11.603671610489544"><ele>502.5</ele><time>2026-04-18T13:04:46.999Z</time></trkpt><trkpt lat="48.18668879341133" lon="11.603850900888093"><ele>502.0</ele><time>2026-04-18T13:04:47.999Z</time></trkpt><trkpt lat="48.18667007750753" lon="11.604027312026346"><ele>502.0</ele><time>2026-04-18T13:04:48.999Z</time></trkpt><trkpt lat="48.18664818351408" lon="11.604206388449668"><ele>502.00000000000006</ele><time>2026-04-18T13:04:49.999Z</time></trkpt><trkpt lat="48.18662762292266" lon="11.604387076448042"><ele>502.00000000000006</ele><time>2026-04-18T13:04:50.999Z</time></trkpt><trkpt lat="48.186615785438" lon="11.60453528536421"><ele>502.0</ele><time>2026-04-18T13:04:51.999Z</time></trkpt><trkpt lat="48.186603058023806" lon="11.604658965369175"><ele>502.0</ele><time>2026-04-18T13:04:52.999Z</time></trkpt><trkpt lat="48.186588372107266" lon="11.604771242123784"><ele>502.00000000000006</ele><time>2026-04-18T13:04:53.999Z</time></trkpt><trkpt lat="48.18657318901707" lon="11.604883828852286"><ele>502.0</ele><time>2026-04-18T13:04:54.999Z</time></trkpt><trkpt lat="48.186561085185225" lon="11.604992425541818"><ele>502.0</ele><time>2026-04-18T13:04:55.999Z</time></trkpt><trkpt lat="48.18654657982004" lon="11.605154362772465"><ele>502.0</ele><time>2026-04-18T13:04:57.999Z</time></trkpt><trkpt lat="48.1865328292845" lon="11.60525827426904"><ele>502.00000000000006</ele><time>2026-04-18T13:04:59.999Z</time></trkpt><trkpt lat="48.186514386396595" lon="11.605413462064213"><ele>502.0</ele><time>2026-04-18T13:05:01.999Z</time></trkpt><trkpt lat="48.18648972973561" lon="11.605609307026114"><ele>502.00000000000006</ele><time>2026-04-18T13:05:03.998Z</time></trkpt><trkpt lat="48.18647493790294" lon="11.605719709853599"><ele>502.0</ele><time>2026-04-18T13:05:04.998Z</time></trkpt><trkpt lat="48.186458508284524" lon="11.605832077346943"><ele>502.0</ele><time>2026-04-18T13:05:05.998Z</time></trkpt><trkpt lat="48.18644002750014" lon="11.605958860168961"><ele>502.0</ele><time>2026-04-18T13:05:06.998Z</time></trkpt><trkpt lat="48.18642037316925" lon="11.606098834798797"><ele>502.00000000000006</ele><time>2026-04-18T13:05:07.998Z</time></trkpt><trkpt lat="48.186402511993805" lon="11.60624950422596"><ele>502.0</ele><time>2026-04-18T13:05:08.998Z</time></trkpt><trkpt lat="48.18638651053169" lon="11.606395757346334"><ele>502.20000000000005</ele><time>2026-04-18T13:05:09.998Z</time></trkpt><trkpt lat="48.18636972228828" lon="11.606546920066764"><ele>502.40000000000003</ele><time>2026-04-18T13:05:10.998Z</time></trkpt><trkpt lat="48.186351664505075" lon="11.606700330245912"><ele>502.59999999999997</ele><time>2026-04-18T13:05:11.998Z</time></trkpt><trkpt lat="48.1863374457872" lon="11.60685831276014"><ele>502.79999999999995</ele><time>2026-04-18T13:05:12.998Z</time></trkpt><trkpt lat="48.18631906175208" lon="11.607019508531282"><ele>503.0</ele><time>2026-04-18T13:05:13.998Z</time></trkpt><trkpt lat="48.186299679196594" lon="11.607186976463565"><ele>502.75</ele><time>2026-04-18T13:05:14.998Z</time></trkpt><trkpt lat="48.18627998290432" lon="11.607365619082382"><ele>502.5</ele><time>2026-04-18T13:05:15.998Z</time></trkpt><trkpt lat="48.186260318116354" lon="11.60754831417983"><ele>502.25</ele><time>2026-04-18T13:05:16.998Z</time></trkpt><trkpt lat="48.18623682395865" lon="11.607739047622937"><ele>502.0</ele><time>2026-04-18T13:05:17.998Z</time></trkpt><trkpt lat="48.186217792561706" lon="11.60792567302503"><ele>502.0</ele><time>2026-04-18T13:05:18.998Z</time></trkpt><trkpt lat="48.18619813294822" lon="11.608109284005076"><ele>502.0</ele><time>2026-04-18T13:05:19.999Z</time></trkpt><trkpt lat="48.18617797151781" lon="11.608288182072085"><ele>502.0</ele><time>2026-04-18T13:05:20.999Z</time></trkpt><trkpt lat="48.18615588541365" lon="11.608466101508606"><ele>502.0</ele><time>2026-04-18T13:05:21.999Z</time></trkpt><trkpt lat="48.186135922374035" lon="11.608642263212468"><ele>502.0</ele><time>2026-04-18T13:05:22.999Z</time></trkpt><trkpt lat="48.186118332706734" lon="11.608815155519165"><ele>502.00000000000006</ele><time>2026-04-18T13:05:23.999Z</time></trkpt><trkpt lat="48.18610044500773" lon="11.608974767533"><ele>502.00000000000006</ele><time>2026-04-18T13:05:24.999Z</time></trkpt><trkpt lat="48.186079900831295" lon="11.609116784903199"><ele>502.0</ele><time>2026-04-18T13:05:25.999Z</time></trkpt><trkpt lat="48.186060551254464" lon="11.60924612193904"><ele>502.0</ele><time>2026-04-18T13:05:26.999Z</time></trkpt><trkpt lat="48.18604118051659" lon="11.609366692834486"><ele>502.00000000000006</ele><time>2026-04-18T13:05:27.999Z</time></trkpt><trkpt lat="48.18602476814466" lon="11.609485264452303"><ele>502.0</ele><time>2026-04-18T13:05:28.999Z</time></trkpt><trkpt lat="48.186012089808635" lon="11.60959887045237"><ele>502.0</ele><time>2026-04-18T13:05:29.999Z</time></trkpt><trkpt lat="48.186000116355494" lon="11.609705871475231"><ele>502.0</ele><time>2026-04-18T13:05:30.999Z</time></trkpt><trkpt lat="48.18599072496339" lon="11.609801546939224"><ele>502.00000000000006</ele><time>2026-04-18T13:05:31.999Z</time></trkpt><trkpt lat="48.185974997434734" lon="11.609960936063096"><ele>502.0</ele><time>2026-04-18T13:05:33.999Z</time></trkpt><trkpt lat="48.185958997981615" lon="11.610110863289012"><ele>502.0</ele><time>2026-04-18T13:05:35.999Z</time></trkpt><trkpt lat="48.18594133286126" lon="11.610274754952616"><ele>502.00000000000006</ele><time>2026-04-18T13:05:37.999Z</time></trkpt><trkpt lat="48.18592655320584" lon="11.610411489483914"><ele>502.00000000000006</ele><time>2026-04-18T13:05:38.999Z</time></trkpt><trkpt lat="48.185915089794754" lon="11.610536619532944"><ele>502.0</ele><time>2026-04-18T13:05:39.999Z</time></trkpt><trkpt lat="48.18590569824843" lon="11.610662910086331"><ele>502.0</ele><time>2026-04-18T13:05:40.999Z</time></trkpt><trkpt lat="48.18589668132824" lon="11.61079888340037"><ele>502.0</ele><time>2026-04-18T13:05:41.999Z</time></trkpt><trkpt lat="48.185887654719565" lon="11.610951197634593"><ele>502.00000000000006</ele><time>2026-04-18T13:05:42.999Z</time></trkpt><trkpt lat="48.18587623831417" lon="11.611113660079289"><ele>502.00000000000006</ele><time>2026-04-18T13:05:43.999Z</time></trkpt><trkpt lat="48.18586656199921" lon="11.61126969366512"><ele>502.0</ele><time>2026-04-18T13:05:44.999Z</time></trkpt><trkpt lat="48.18585651392097" lon="11.611420657864315"><ele>502.0</ele><time>2026-04-18T13:05:45.999Z</time></trkpt><trkpt lat="48.18584427789082" lon="11.611565212966015"><ele>501.8</ele><time>2026-04-18T13:05:46.999Z</time></trkpt><trkpt lat="48.185832540931614" lon="11.611697227419485"><ele>501.6</ele><time>2026-04-18T13:05:47.999Z</time></trkpt><trkpt lat="48.18582252020483" lon="11.611800141593356"><ele>501.40000000000003</ele><time>2026-04-18T13:05:48.999Z</time></trkpt><trkpt lat="48.185811352339535" lon="11.611899148387856"><ele>501.20000000000005</ele><time>2026-04-18T13:05:49.999Z</time></trkpt><trkpt lat="48.18579459042723" lon="11.612079655369492"><ele>501.0</ele><time>2026-04-18T13:05:51.999Z</time></trkpt><trkpt lat="48.18578245624539" lon="11.612255380036318"><ele>500.8333333333333</ele><time>2026-04-18T13:05:53.999Z</time></trkpt><trkpt lat="48.18576030870092" lon="11.612452731240479"><ele>500.66666666666663</ele><time>2026-04-18T13:05:55.999Z</time></trkpt><trkpt lat="48.18574802111178" lon="11.612572779917988"><ele>500.5</ele><time>2026-04-18T13:05:56.999Z</time></trkpt><trkpt lat="48.18573880617879" lon="11.612679371051275"><ele>500.3333333333333</ele><time>2026-04-18T13:05:57.999Z</time></trkpt><trkpt lat="48.18573067649673" lon="11.612783264940562"><ele>500.16666666666663</ele><time>2026-04-18T13:05:58.999Z</time></trkpt><trkpt lat="48.18572245538234" lon="11.612887255256059"><ele>500.0</ele><time>2026-04-18T13:05:59.999Z</time></trkpt><trkpt lat="48.185712812693744" lon="11.612992566216096"><ele>499.99999999999994</ele><time>2026-04-18T13:06:00.999Z</time></trkpt><trkpt lat="48.18570049104501" lon="11.613106973887819"><ele>500.0</ele><time>2026-04-18T13:06:01.999Z</time></trkpt><trkpt lat="48.18568697813384" lon="11.613222486536444"><ele>500.0</ele><time>2026-04-18T13:06:02.999Z</time></trkpt><trkpt lat="48.185675397424816" lon="11.613333775761484"><ele>500.0</ele><time>2026-04-18T13:06:03.999Z</time></trkpt><trkpt lat="48.18566580074112" lon="11.613443930689451"><ele>499.99999999999994</ele><time>2026-04-18T13:06:04.999Z</time></trkpt><trkpt lat="48.18565659322974" lon="11.613554503536154"><ele>500.0</ele><time>2026-04-18T13:06:05.999Z</time></trkpt><trkpt lat="48.18564692811828" lon="11.613662772334967"><ele>500.0</ele><time>2026-04-18T13:06:06.999Z</time></trkpt><trkpt lat="48.185637923966155" lon="11.613769054516693"><ele>500.0</ele><time>2026-04-18T13:06:07.999Z</time></trkpt><trkpt lat="48.18563532412697" lon="11.613873724726554"><ele>500.0</ele><time>2026-04-18T13:06:08.999Z</time></trkpt><trkpt lat="48.185633390817074" lon="11.613976699462867"><ele>500.0</ele><time>2026-04-18T13:06:09.999Z</time></trkpt><trkpt lat="48.18563228067113" lon="11.614080635344894"><ele>500.0</ele><time>2026-04-18T13:06:10.999Z</time></trkpt><trkpt lat="48.185630834990725" lon="11.614186547096649"><ele>500.0</ele><time>2026-04-18T13:06:11.999Z</time></trkpt><trkpt lat="48.18563236289233" lon="11.614297079812046"><ele>500.0</ele><time>2026-04-18T13:06:12.999Z</time></trkpt><trkpt lat="48.18564236592474" lon="11.614402496131738"><ele>499.66666666666663</ele><time>2026-04-18T13:06:13.999Z</time></trkpt><trkpt lat="48.18565416611225" lon="11.614507062524106"><ele>499.3333333333333</ele><time>2026-04-18T13:06:14.999Z</time></trkpt><trkpt lat="48.18566999995305" lon="11.614617438936202"><ele>499.0</ele><time>2026-04-18T13:06:15.999Z</time></trkpt><trkpt lat="48.18569294024598" lon="11.614727281309767"><ele>498.66666666666663</ele><time>2026-04-18T13:06:16.999Z</time></trkpt><trkpt lat="48.1857182305511" lon="11.614837637451338"><ele>498.3333333333333</ele><time>2026-04-18T13:06:17.999Z</time></trkpt><trkpt lat="48.1857463627911" lon="11.614946071915579"><ele>498.0</ele><time>2026-04-18T13:06:18.999Z</time></trkpt><trkpt lat="48.18577589249604" lon="11.615049162620894"><ele>498.0</ele><time>2026-04-18T13:06:19.999Z</time></trkpt><trkpt lat="48.185808516251576" lon="11.615155852459262"><ele>497.99999999999994</ele><time>2026-04-18T13:06:20.999Z</time></trkpt><trkpt lat="48.185848653599" lon="11.615273440676594"><ele>497.99999999999994</ele><time>2026-04-18T13:06:21.999Z</time></trkpt><trkpt lat="48.18589341305563" lon="11.615399239892499"><ele>498.0</ele><time>2026-04-18T13:06:22.999Z</time></trkpt><trkpt lat="48.185939280541845" lon="11.61552579232714"><ele>498.0</ele><time>2026-04-18T13:06:23.999Z</time></trkpt><trkpt lat="48.18598656140308" lon="11.615645875965786"><ele>498.0</ele><time>2026-04-18T13:06:25Z</time></trkpt><trkpt lat="48.18603441502788" lon="11.615763651758536"><ele>498.0</ele><time>2026-04-18T13:06:26Z</time></trkpt><trkpt lat="48.186081290417825" lon="11.615874565139714"><ele>498.0</ele><time>2026-04-18T13:06:27Z</time></trkpt><trkpt lat="48.186126838695415" lon="11.61598376509359"><ele>498.0</ele><time>2026-04-18T13:06:28Z</time></trkpt><trkpt lat="48.18617175041225" lon="11.61609631593755"><ele>498.0</ele><time>2026-04-18T13:06:29Z</time></trkpt><trkpt lat="48.18621563628804" lon="11.616208447887587"><ele>498.0</ele><time>2026-04-18T13:06:30Z</time></trkpt><trkpt lat="48.186260423136154" lon="11.616325376038008"><ele>498.0</ele><time>2026-04-18T13:06:31Z</time></trkpt><trkpt lat="48.18631106018761" lon="11.61645262111869"><ele>497.99999999999994</ele><time>2026-04-18T13:06:32Z</time></trkpt><trkpt lat="48.18635810515407" lon="11.61657572718471"><ele>497.99999999999994</ele><time>2026-04-18T13:06:33Z</time></trkpt><trkpt lat="48.18640350263489" lon="11.61669642908652"><ele>498.0</ele><time>2026-04-18T13:06:34Z</time></trkpt><trkpt lat="48.18644760056022" lon="11.6168138472435"><ele>498.0</ele><time>2026-04-18T13:06:35Z</time></trkpt><trkpt lat="48.18648592084069" lon="11.616934786816415"><ele>498.4</ele><time>2026-04-18T13:06:36Z</time></trkpt><trkpt lat="48.186523100479604" lon="11.617057210659485"><ele>498.79999999999995</ele><time>2026-04-18T13:06:37Z</time></trkpt><trkpt lat="48.18655935833067" lon="11.617185213984326"><ele>499.2</ele><time>2026-04-18T13:06:38Z</time></trkpt><trkpt lat="48.18659023027375" lon="11.617320014657325"><ele>499.6</ele><time>2026-04-18T13:06:39Z</time></trkpt><trkpt lat="48.186617461902244" lon="11.617454213704432"><ele>500.0</ele><time>2026-04-18T13:06:40Z</time></trkpt><trkpt lat="48.18663946363833" lon="11.617585491291893"><ele>500.0</ele><time>2026-04-18T13:06:41Z</time></trkpt><trkpt lat="48.186658381271" lon="11.6177175620826"><ele>500.0</ele><time>2026-04-18T13:06:42Z</time></trkpt><trkpt lat="48.18667324617462" lon="11.61785316402541"><ele>500.0</ele><time>2026-04-18T13:06:43Z</time></trkpt><trkpt lat="48.186685246254264" lon="11.61798995484169"><ele>500.0</ele><time>2026-04-18T13:06:44Z</time></trkpt><trkpt lat="48.18669148416105" lon="11.618125801311658"><ele>500.0</ele><time>2026-04-18T13:06:45Z</time></trkpt><trkpt lat="48.18669499430426" lon="11.618260662882554"><ele>500.4</ele><time>2026-04-18T13:06:46Z</time></trkpt><trkpt lat="48.18669512194418" lon="11.618394049524591"><ele>500.8</ele><time>2026-04-18T13:06:47Z</time></trkpt><trkpt lat="48.18669272481097" lon="11.618530468405046"><ele>501.20000000000005</ele><time>2026-04-18T13:06:48Z</time></trkpt><trkpt lat="48.186685078780364" lon="11.618668663548087"><ele>501.6</ele><time>2026-04-18T13:06:49Z</time></trkpt><trkpt lat="48.18667587169535" lon="11.618806789128051"><ele>502.0</ele><time>2026-04-18T13:06:50Z</time></trkpt><trkpt lat="48.186664962832054" lon="11.618944508292339"><ele>502.20000000000005</ele><time>2026-04-18T13:06:51Z</time></trkpt><trkpt lat="48.186653965502" lon="11.619082011612017"><ele>502.40000000000003</ele><time>2026-04-18T13:06:52Z</time></trkpt><trkpt lat="48.18664215843026" lon="11.619217585762502"><ele>502.59999999999997</ele><time>2026-04-18T13:06:53Z</time></trkpt><trkpt lat="48.18662844045989" lon="11.619352585452988"><ele>502.79999999999995</ele><time>2026-04-18T13:06:54Z</time></trkpt><trkpt lat="48.186612355156356" lon="11.619488072464126"><ele>503.0</ele><time>2026-04-18T13:06:55Z</time></trkpt><trkpt lat="48.18659960176572" lon="11.61962135343087"><ele>503.2</ele><time>2026-04-18T13:06:56Z</time></trkpt><trkpt lat="48.18658287280485" lon="11.619753551528866"><ele>503.4</ele><time>2026-04-18T13:06:57Z</time></trkpt><trkpt lat="48.18656198818257" lon="11.619886509781077"><ele>503.59999999999997</ele><time>2026-04-18T13:06:58Z</time></trkpt><trkpt lat="48.186539333230165" lon="11.620019780535786"><ele>503.79999999999995</ele><time>2026-04-18T13:06:59Z</time></trkpt><trkpt lat="48.18651481838135" lon="11.620154018844701"><ele>504.0</ele><time>2026-04-18T13:07:00Z</time></trkpt><trkpt lat="48.18648730975885" lon="11.620289478670394"><ele>503.0</ele><time>2026-04-18T13:07:01Z</time></trkpt><trkpt lat="48.18645986172726" lon="11.620423948561116"><ele>502.0</ele><time>2026-04-18T13:07:02Z</time></trkpt><trkpt lat="48.18643141957493" lon="11.620553973055825"><ele>501.0</ele><time>2026-04-18T13:07:03Z</time></trkpt><trkpt lat="48.18640165719877" lon="11.620681371863888"><ele>500.0</ele><time>2026-04-18T13:07:04Z</time></trkpt><trkpt lat="48.18637115394252" lon="11.620807218060294"><ele>499.0</ele><time>2026-04-18T13:07:05Z</time></trkpt><trkpt lat="48.18633879514275" lon="11.620932229602069"><ele>499.0</ele><time>2026-04-18T13:07:06Z</time></trkpt><trkpt lat="48.1863025821044" lon="11.621057488667985"><ele>499.0</ele><time>2026-04-18T13:07:07Z</time></trkpt><trkpt lat="48.18626554592292" lon="11.621184243345153"><ele>499.0</ele><time>2026-04-18T13:07:08Z</time></trkpt><trkpt lat="48.18622752248717" lon="11.621310500056152"><ele>499.0</ele><time>2026-04-18T13:07:08.999Z</time></trkpt><trkpt lat="48.18618969784864" lon="11.62143425991657"><ele>499.0</ele><time>2026-04-18T13:07:09.999Z</time></trkpt><trkpt lat="48.18615194921664" lon="11.621554117649827"><ele>499.2</ele><time>2026-04-18T13:07:10.999Z</time></trkpt><trkpt lat="48.18611083034419" lon="11.621670302041219"><ele>499.4</ele><time>2026-04-18T13:07:11.999Z</time></trkpt><trkpt lat="48.18606679564525" lon="11.621786656963074"><ele>499.6</ele><time>2026-04-18T13:07:12.999Z</time></trkpt><trkpt lat="48.18602230461728" lon="11.62190727802692"><ele>499.8</ele><time>2026-04-18T13:07:13.999Z</time></trkpt><trkpt lat="48.18597402240168" lon="11.622028394470389"><ele>500.0</ele><time>2026-04-18T13:07:14.999Z</time></trkpt><trkpt lat="48.18592650014898" lon="11.622150626522764"><ele>500.16666666666663</ele><time>2026-04-18T13:07:15.999Z</time></trkpt><trkpt lat="48.18587805996218" lon="11.622268735899771"><ele>500.3333333333333</ele><time>2026-04-18T13:07:16.999Z</time></trkpt><trkpt lat="48.18583149766256" lon="11.62238318857165"><ele>500.5</ele><time>2026-04-18T13:07:17.999Z</time></trkpt><trkpt lat="48.185785481890264" lon="11.622495193434155"><ele>500.66666666666663</ele><time>2026-04-18T13:07:18.999Z</time></trkpt><trkpt lat="48.18573875051645" lon="11.622606207695616"><ele>500.8333333333333</ele><time>2026-04-18T13:07:19.999Z</time></trkpt><trkpt lat="48.18569207711546" lon="11.622717558918753"><ele>501.0</ele><time>2026-04-18T13:07:20.999Z</time></trkpt><trkpt lat="48.185643962043535" lon="11.622828615077644"><ele>501.4</ele><time>2026-04-18T13:07:21.999Z</time></trkpt><trkpt lat="48.185594083206354" lon="11.62294518146935"><ele>501.8</ele><time>2026-04-18T13:07:22.999Z</time></trkpt><trkpt lat="48.185543813916176" lon="11.62306512774622"><ele>502.19999999999993</ele><time>2026-04-18T13:07:23.999Z</time></trkpt><trkpt lat="48.18549251713901" lon="11.623182735344038"><ele>502.59999999999997</ele><time>2026-04-18T13:07:24.999Z</time></trkpt><trkpt lat="48.18544223613035" lon="11.623298163474702"><ele>503.0</ele><time>2026-04-18T13:07:25.999Z</time></trkpt><trkpt lat="48.185393691819776" lon="11.623412139236331"><ele>503.0</ele><time>2026-04-18T13:07:26.999Z</time></trkpt><trkpt lat="48.18534746867165" lon="11.623527262428922"><ele>502.99999999999994</ele><time>2026-04-18T13:07:27.999Z</time></trkpt><trkpt lat="48.18529763722724" lon="11.6236426831116"><ele>502.99999999999994</ele><time>2026-04-18T13:07:28.999Z</time></trkpt><trkpt lat="48.18524900112933" lon="11.623766682977209"><ele>503.0</ele><time>2026-04-18T13:07:29.999Z</time></trkpt><trkpt lat="48.18519659549482" lon="11.623885646277284"><ele>503.0</ele><time>2026-04-18T13:07:30.999Z</time></trkpt><trkpt lat="48.18514462678517" lon="11.624004548223413"><ele>502.99999999999994</ele><time>2026-04-18T13:07:32Z</time></trkpt><trkpt lat="48.18509713933617" lon="11.624118178963322"><ele>503.0</ele><time>2026-04-18T13:07:33Z</time></trkpt><trkpt lat="48.18505065457891" lon="11.62422769641287"><ele>503.0</ele><time>2026-04-18T13:07:34Z</time></trkpt><trkpt lat="48.185005696508114" lon="11.62433444951538"><ele>503.0</ele><time>2026-04-18T13:07:35Z</time></trkpt><trkpt lat="48.1849613650847" lon="11.6244402505457"><ele>502.99999999999994</ele><time>2026-04-18T13:07:36Z</time></trkpt><trkpt lat="48.18491416759378" lon="11.624550324457678"><ele>503.0</ele><time>2026-04-18T13:07:37Z</time></trkpt><trkpt lat="48.18486640117457" lon="11.624669243413107"><ele>503.0</ele><time>2026-04-18T13:07:38Z</time></trkpt><trkpt lat="48.1848170907449" lon="11.624787071352102"><ele>502.99999999999994</ele><time>2026-04-18T13:07:39Z</time></trkpt><trkpt lat="48.184769490090424" lon="11.624902824290762"><ele>502.99999999999994</ele><time>2026-04-18T13:07:40Z</time></trkpt><trkpt lat="48.1847222593251" lon="11.62501858540361"><ele>503.0</ele><time>2026-04-18T13:07:41Z</time></trkpt><trkpt lat="48.18467701450222" lon="11.62513623370095"><ele>503.0</ele><time>2026-04-18T13:07:42Z</time></trkpt><trkpt lat="48.18462889881728" lon="11.625251951634054"><ele>502.79999999999995</ele><time>2026-04-18T13:07:43Z</time></trkpt><trkpt lat="48.18458002245035" lon="11.625367942202564"><ele>502.59999999999997</ele><time>2026-04-18T13:07:44Z</time></trkpt><trkpt lat="48.18453187984308" lon="11.62548245770943"><ele>502.40000000000003</ele><time>2026-04-18T13:07:45Z</time></trkpt><trkpt lat="48.18446954552309" lon="11.625582198034033"><ele>502.20000000000005</ele><time>2026-04-18T13:07:46Z</time></trkpt><trkpt lat="48.18442026272873" lon="11.625693477276624"><ele>502.0</ele><time>2026-04-18T13:07:47Z</time></trkpt><trkpt lat="48.18437092063775" lon="11.625804890417644"><ele>502.00000000000006</ele><time>2026-04-18T13:07:48Z</time></trkpt><trkpt lat="48.18432160778693" lon="11.625916237521782"><ele>502.0</ele><time>2026-04-18T13:07:49Z</time></trkpt><trkpt lat="48.18427199933223" lon="11.626028252106401"><ele>502.0</ele><time>2026-04-18T13:07:50Z</time></trkpt><trkpt lat="48.184222886139715" lon="11.626141251180304"><ele>502.0</ele><time>2026-04-18T13:07:51Z</time></trkpt><trkpt lat="48.184174426421954" lon="11.626255250208702"><ele>502.00000000000006</ele><time>2026-04-18T13:07:52Z</time></trkpt><trkpt lat="48.184127259521816" lon="11.626369859214007"><ele>502.0</ele><time>2026-04-18T13:07:53Z</time></trkpt><trkpt lat="48.18408174254559" lon="11.626490073231231"><ele>501.6</ele><time>2026-04-18T13:07:54Z</time></trkpt><trkpt lat="48.184049725902476" lon="11.626620469517915"><ele>501.20000000000005</ele><time>2026-04-18T13:07:55Z</time></trkpt><trkpt lat="48.1840001143565" lon="11.626736307443563"><ele>500.8</ele><time>2026-04-18T13:07:56Z</time></trkpt><trkpt lat="48.18395095020163" lon="11.626849112946706"><ele>500.4</ele><time>2026-04-18T13:07:57Z</time></trkpt><trkpt lat="48.183902699142934" lon="11.62696262169699"><ele>500.0</ele><time>2026-04-18T13:07:58Z</time></trkpt><trkpt lat="48.183854276551195" lon="11.627075075409978"><ele>499.8333333333333</ele><time>2026-04-18T13:07:59Z</time></trkpt><trkpt lat="48.18380711716599" lon="11.62718733876226"><ele>499.66666666666663</ele><time>2026-04-18T13:08:00Z</time></trkpt><trkpt lat="48.18376036730177" lon="11.62729790369746"><ele>499.5</ele><time>2026-04-18T13:08:01Z</time></trkpt><trkpt lat="48.18369924346138" lon="11.627395168795394"><ele>499.33333333333337</ele><time>2026-04-18T13:08:02Z</time></trkpt><trkpt lat="48.183650916044726" lon="11.627507283333594"><ele>499.1666666666667</ele><time>2026-04-18T13:08:03Z</time></trkpt><trkpt lat="48.18360268989282" lon="11.627619163103924"><ele>499.0</ele><time>2026-04-18T13:08:04Z</time></trkpt><trkpt lat="48.18355524814474" lon="11.627729222881067"><ele>498.4</ele><time>2026-04-18T13:08:05Z</time></trkpt><trkpt lat="48.18350651398089" lon="11.627842281008796"><ele>497.79999999999995</ele><time>2026-04-18T13:08:06Z</time></trkpt><trkpt lat="48.18345708256269" lon="11.627957194372033"><ele>497.20000000000005</ele><time>2026-04-18T13:08:07Z</time></trkpt><trkpt lat="48.18340717510035" lon="11.628073286442007"><ele>496.6</ele><time>2026-04-18T13:08:08Z</time></trkpt><trkpt lat="48.18335721999625" lon="11.628189489054412"><ele>496.0</ele><time>2026-04-18T13:08:09Z</time></trkpt><trkpt lat="48.183306692428204" lon="11.62830702348673"><ele>496.0</ele><time>2026-04-18T13:08:10Z</time></trkpt><trkpt lat="48.18325629035712" lon="11.628424100715407"><ele>496.0</ele><time>2026-04-18T13:08:11Z</time></trkpt><trkpt lat="48.18320571555665" lon="11.628540954143906"><ele>496.0</ele><time>2026-04-18T13:08:12Z</time></trkpt><trkpt lat="48.1831552489266" lon="11.628657159539614"><ele>496.0</ele><time>2026-04-18T13:08:13Z</time></trkpt><trkpt lat="48.183105909327104" lon="11.628770770307103"><ele>496.0</ele><time>2026-04-18T13:08:14Z</time></trkpt><trkpt lat="48.18305707515097" lon="11.628883216691179"><ele>497.0</ele><time>2026-04-18T13:08:15Z</time></trkpt><trkpt lat="48.18300881457936" lon="11.62899434203198"><ele>498.0</ele><time>2026-04-18T13:08:16Z</time></trkpt><trkpt lat="48.182960049413765" lon="11.629108423341899"><ele>499.0</ele><time>2026-04-18T13:08:17Z</time></trkpt><trkpt lat="48.1829112731498" lon="11.6292236766199"><ele>500.0</ele><time>2026-04-18T13:08:18Z</time></trkpt><trkpt lat="48.18286320869143" lon="11.62933724793489"><ele>501.0</ele><time>2026-04-18T13:08:19Z</time></trkpt><trkpt lat="48.18281344151139" lon="11.629454605085867"><ele>502.0</ele><time>2026-04-18T13:08:20Z</time></trkpt><trkpt lat="48.182764530919606" lon="11.629569715267458"><ele>503.0</ele><time>2026-04-18T13:08:21Z</time></trkpt><trkpt lat="48.18271585214078" lon="11.629684232346573"><ele>504.0</ele><time>2026-04-18T13:08:22Z</time></trkpt><trkpt lat="48.18266751444316" lon="11.629796864557992"><ele>505.0</ele><time>2026-04-18T13:08:23Z</time></trkpt><trkpt lat="48.18261950685696" lon="11.629911619407455"><ele>506.0</ele><time>2026-04-18T13:08:24Z</time></trkpt><trkpt lat="48.18257122315149" lon="11.630024425379327"><ele>506.0</ele><time>2026-04-18T13:08:25Z</time></trkpt><trkpt lat="48.18252125340703" lon="11.630139894115063"><ele>506.0</ele><time>2026-04-18T13:08:26Z</time></trkpt><trkpt lat="48.18247091459776" lon="11.630257186067015"><ele>506.0</ele><time>2026-04-18T13:08:27Z</time></trkpt><trkpt lat="48.182420234797526" lon="11.630375685276457"><ele>506.0</ele><time>2026-04-18T13:08:28Z</time></trkpt><trkpt lat="48.18236978202584" lon="11.630493967090123"><ele>506.0</ele><time>2026-04-18T13:08:29Z</time></trkpt><trkpt lat="48.182319307570445" lon="11.630611980103778"><ele>507.6</ele><time>2026-04-18T13:08:30Z</time></trkpt><trkpt lat="48.18228282427136" lon="11.630740739550594"><ele>509.20000000000005</ele><time>2026-04-18T13:08:31Z</time></trkpt><trkpt lat="48.182230277456725" lon="11.6308561115523"><ele>510.79999999999995</ele><time>2026-04-18T13:08:32Z</time></trkpt><trkpt lat="48.18217904359888" lon="11.630971803944295"><ele>512.4</ele><time>2026-04-18T13:08:33Z</time></trkpt><trkpt lat="48.18212790836805" lon="11.631088040094136"><ele>514.0</ele><time>2026-04-18T13:08:34Z</time></trkpt><trkpt lat="48.182077668233205" lon="11.631204669336293"><ele>514.6</ele><time>2026-04-18T13:08:35Z</time></trkpt><trkpt lat="48.182027125259395" lon="11.63132195672682"><ele>515.2</ele><time>2026-04-18T13:08:36Z</time></trkpt><trkpt lat="48.18197704306422" lon="11.631438329727507"><ele>515.8000000000001</ele><time>2026-04-18T13:08:37Z</time></trkpt><trkpt lat="48.18192669801403" lon="11.631556214197069"><ele>516.4</ele><time>2026-04-18T13:08:38Z</time></trkpt><trkpt lat="48.18187344791578" lon="11.631680011294295"><ele>517.0</ele><time>2026-04-18T13:08:39Z</time></trkpt><trkpt lat="48.181814650958984" lon="11.63181699902749"><ele>517.0</ele><time>2026-04-18T13:08:40Z</time></trkpt><trkpt lat="48.18174461344842" lon="11.631972740973817"><ele>517.0</ele><time>2026-04-18T13:08:41Z</time></trkpt><trkpt lat="48.18166544105574" lon="11.632146971979015"><ele>517.0</ele><time>2026-04-18T13:08:42Z</time></trkpt><trkpt lat="48.181585849580415" lon="11.632332920180886"><ele>517.0</ele><time>2026-04-18T13:08:43Z</time></trkpt><trkpt lat="48.18150314450241" lon="11.632516410780248"><ele>516.75</ele><time>2026-04-18T13:08:44Z</time></trkpt><trkpt lat="48.18141620335284" lon="11.632689978857051"><ele>516.5</ele><time>2026-04-18T13:08:45Z</time></trkpt><trkpt lat="48.18133335894258" lon="11.632862540631834"><ele>516.25</ele><time>2026-04-18T13:08:46Z</time></trkpt><trkpt lat="48.18125017587385" lon="11.633027887224097"><ele>516.0</ele><time>2026-04-18T13:08:47Z</time></trkpt><trkpt lat="48.18116801657176" lon="11.633190705469785"><ele>514.5</ele><time>2026-04-18T13:08:48Z</time></trkpt><trkpt lat="48.18108530582153" lon="11.633349560471935"><ele>513.0</ele><time>2026-04-18T13:08:49Z</time></trkpt><trkpt lat="48.18100353957626" lon="11.633510742303981"><ele>511.5</ele><time>2026-04-18T13:08:50Z</time></trkpt><trkpt lat="48.18091736750254" lon="11.633669427714779"><ele>510.0</ele><time>2026-04-18T13:08:51Z</time></trkpt><trkpt lat="48.18082978970733" lon="11.63382849150115"><ele>510.25</ele><time>2026-04-18T13:08:52Z</time></trkpt><trkpt lat="48.18074084177899" lon="11.633986766863766"><ele>510.5</ele><time>2026-04-18T13:08:53Z</time></trkpt><trkpt lat="48.180649680572024" lon="11.634147580479933"><ele>510.75</ele><time>2026-04-18T13:08:54Z</time></trkpt><trkpt lat="48.180555122488464" lon="11.634307784915801"><ele>511.0</ele><time>2026-04-18T13:08:55Z</time></trkpt><trkpt lat="48.18045810984161" lon="11.634468974594734"><ele>510.75</ele><time>2026-04-18T13:08:56.001Z</time></trkpt><trkpt lat="48.18035898249544" lon="11.634629436010831"><ele>510.5</ele><time>2026-04-18T13:08:57.001Z</time></trkpt><trkpt lat="48.18025790147925" lon="11.634789603982956"><ele>510.25</ele><time>2026-04-18T13:08:58.001Z</time></trkpt><trkpt lat="48.18015266568042" lon="11.63494731826159"><ele>510.0</ele><time>2026-04-18T13:08:59.001Z</time></trkpt><trkpt lat="48.18004638422018" lon="11.63510358788389"><ele>510.0</ele><time>2026-04-18T13:09:00.001Z</time></trkpt><trkpt lat="48.17994192635207" lon="11.635255386383829"><ele>510.0</ele><time>2026-04-18T13:09:01.001Z</time></trkpt><trkpt lat="48.1798374771841" lon="11.635403744678772"><ele>510.0</ele><time>2026-04-18T13:09:02.001Z</time></trkpt><trkpt lat="48.17973339925418" lon="11.635545951192778"><ele>510.0</ele><time>2026-04-18T13:09:03.001Z</time></trkpt><trkpt lat="48.17962990509581" lon="11.635684631762567"><ele>510.0</ele><time>2026-04-18T13:09:04.001Z</time></trkpt><trkpt lat="48.179528567311316" lon="11.635818883218633"><ele>510.0</ele><time>2026-04-18T13:09:05.001Z</time></trkpt><trkpt lat="48.179426253066865" lon="11.63595139770576"><ele>510.0</ele><time>2026-04-18T13:09:06.001Z</time></trkpt><trkpt lat="48.17931994543929" lon="11.63608287471336"><ele>510.0</ele><time>2026-04-18T13:09:07.001Z</time></trkpt><trkpt lat="48.17920820877074" lon="11.636213726366925"><ele>510.25</ele><time>2026-04-18T13:09:08.001Z</time></trkpt><trkpt lat="48.17909576391" lon="11.636341067574369"><ele>510.5</ele><time>2026-04-18T13:09:09.001Z</time></trkpt><trkpt lat="48.17898347295337" lon="11.636468631476458"><ele>510.75</ele><time>2026-04-18T13:09:10.001Z</time></trkpt><trkpt lat="48.178868892957325" lon="11.636594195943886"><ele>511.0</ele><time>2026-04-18T13:09:11.001Z</time></trkpt><trkpt lat="48.1787521886214" lon="11.636718522525953"><ele>511.0</ele><time>2026-04-18T13:09:12.001Z</time></trkpt><trkpt lat="48.17863420975568" lon="11.636840953223102"><ele>511.0</ele><time>2026-04-18T13:09:13.001Z</time></trkpt><trkpt lat="48.178512942500795" lon="11.636958045746875"><ele>511.0</ele><time>2026-04-18T13:09:14.001Z</time></trkpt><trkpt lat="48.17838826870134" lon="11.637067351373974"><ele>511.0</ele><time>2026-04-18T13:09:15Z</time></trkpt><trkpt lat="48.17826016460971" lon="11.637172370590735"><ele>511.25</ele><time>2026-04-18T13:09:16Z</time></trkpt><trkpt lat="48.17812905273217" lon="11.637271104189939"><ele>511.5</ele><time>2026-04-18T13:09:17Z</time></trkpt><trkpt lat="48.17799566681828" lon="11.637362711386945"><ele>511.75</ele><time>2026-04-18T13:09:18Z</time></trkpt><trkpt lat="48.177859854031475" lon="11.637447611362257"><ele>512.0</ele><time>2026-04-18T13:09:19Z</time></trkpt><trkpt lat="48.17772160665873" lon="11.637520585624976"><ele>512.0</ele><time>2026-04-18T13:09:20Z</time></trkpt><trkpt lat="48.17757865818979" lon="11.637576088708082"><ele>512.0</ele><time>2026-04-18T13:09:21Z</time></trkpt><trkpt lat="48.177432353948696" lon="11.63759863437725"><ele>512.0</ele><time>2026-04-18T13:09:22Z</time></trkpt><trkpt lat="48.177288027004764" lon="11.637626782590855"><ele>512.0</ele><time>2026-04-18T13:09:23Z</time></trkpt><trkpt lat="48.17714614514439" lon="11.63765404242402"><ele>511.5</ele><time>2026-04-18T13:09:24Z</time></trkpt><trkpt lat="48.17700668611491" lon="11.637669110763206"><ele>511.0</ele><time>2026-04-18T13:09:25Z</time></trkpt><trkpt lat="48.17687021495871" lon="11.637672804493478"><ele>510.5</ele><time>2026-04-18T13:09:26Z</time></trkpt><trkpt lat="48.17673378377609" lon="11.637663483625566"><ele>510.0</ele><time>2026-04-18T13:09:27Z</time></trkpt><trkpt lat="48.17659643367981" lon="11.637638149292236"><ele>509.75</ele><time>2026-04-18T13:09:28Z</time></trkpt><trkpt lat="48.176456504400015" lon="11.637600766400352"><ele>509.5</ele><time>2026-04-18T13:09:29Z</time></trkpt><trkpt lat="48.17632144354584" lon="11.637555394389963"><ele>509.25</ele><time>2026-04-18T13:09:30Z</time></trkpt><trkpt lat="48.17619637044286" lon="11.637504542883596"><ele>509.0</ele><time>2026-04-18T13:09:31Z</time></trkpt><trkpt lat="48.17608492716249" lon="11.637447033676379"><ele>509.0</ele><time>2026-04-18T13:09:32Z</time></trkpt><trkpt lat="48.17598377598127" lon="11.637387181346917"><ele>509.0</ele><time>2026-04-18T13:09:33Z</time></trkpt><trkpt lat="48.17588879497271" lon="11.637326885531783"><ele>509.0</ele><time>2026-04-18T13:09:34Z</time></trkpt><trkpt lat="48.17579459510731" lon="11.63726352370472"><ele>509.0</ele><time>2026-04-18T13:09:35Z</time></trkpt><trkpt lat="48.17570717260377" lon="11.63719827100975"><ele>509.0</ele><time>2026-04-18T13:09:36Z</time></trkpt><trkpt lat="48.17561913937652" lon="11.637158142427493"><ele>509.3333333333333</ele><time>2026-04-18T13:09:37Z</time></trkpt><trkpt lat="48.17554072080613" lon="11.637094035854275"><ele>509.66666666666663</ele><time>2026-04-18T13:09:38Z</time></trkpt><trkpt lat="48.175470769655114" lon="11.637027964862607"><ele>510.0</ele><time>2026-04-18T13:09:39Z</time></trkpt><trkpt lat="48.17544219398692" lon="11.636882159102782"><ele>510.33333333333337</ele><time>2026-04-18T13:09:40Z</time></trkpt><trkpt lat="48.17540160740539" lon="11.636766212380206"><ele>510.6666666666667</ele><time>2026-04-18T13:09:41Z</time></trkpt><trkpt lat="48.17538874340883" lon="11.636635028441773"><ele>511.0</ele><time>2026-04-18T13:09:42Z</time></trkpt><trkpt lat="48.175450240880664" lon="11.63638655647765"><ele>511.0</ele><time>2026-04-18T13:09:44Z</time></trkpt><trkpt lat="48.175494614591464" lon="11.636276549993344"><ele>511.0</ele><time>2026-04-18T13:09:45Z</time></trkpt><trkpt lat="48.17558810972185" lon="11.636213805453782"><ele>511.0</ele><time>2026-04-18T13:09:46Z</time></trkpt><trkpt lat="48.17567117336954" lon="11.636154910672987"><ele>511.0</ele><time>2026-04-18T13:09:47Z</time></trkpt><trkpt lat="48.175760872568105" lon="11.636120762686662"><ele>511.0</ele><time>2026-04-18T13:09:48Z</time></trkpt><trkpt lat="48.17585362830957" lon="11.636118694615663"><ele>510.6</ele><time>2026-04-18T13:09:49Z</time></trkpt><trkpt lat="48.175944286424205" lon="11.636145959439482"><ele>510.20000000000005</ele><time>2026-04-18T13:09:50Z</time></trkpt><trkpt lat="48.17603076344936" lon="11.63620388719753"><ele>509.79999999999995</ele><time>2026-04-18T13:09:51Z</time></trkpt><trkpt lat="48.176107228466265" lon="11.63628451886216"><ele>509.4</ele><time>2026-04-18T13:09:52Z</time></trkpt><trkpt lat="48.17617104601536" lon="11.6363870466478"><ele>509.0</ele><time>2026-04-18T13:09:53.001Z</time></trkpt><trkpt lat="48.17621862204424" lon="11.636503354012254"><ele>508.99999999999994</ele><time>2026-04-18T13:09:54.001Z</time></trkpt><trkpt lat="48.176249339490326" lon="11.636629573540555"><ele>509.0</ele><time>2026-04-18T13:09:55.001Z</time></trkpt><trkpt lat="48.17626719435568" lon="11.636757662803"><ele>509.0</ele><time>2026-04-18T13:09:56.001Z</time></trkpt><trkpt lat="48.17627644402328" lon="11.636886391920207"><ele>509.0</ele><time>2026-04-18T13:09:57.001Z</time></trkpt><trkpt lat="48.176281877570176" lon="11.637016004019848"><ele>508.99999999999994</ele><time>2026-04-18T13:09:58.001Z</time></trkpt><trkpt lat="48.176276505835865" lon="11.637144072982169"><ele>509.0</ele><time>2026-04-18T13:09:59.001Z</time></trkpt><trkpt lat="48.17626865358492" lon="11.637272834247572"><ele>509.0</ele><time>2026-04-18T13:10:00.001Z</time></trkpt><trkpt lat="48.176257950709406" lon="11.637402863332559"><ele>509.0</ele><time>2026-04-18T13:10:01.001Z</time></trkpt><trkpt lat="48.17624867190133" lon="11.637538601073542"><ele>509.0</ele><time>2026-04-18T13:10:02.001Z</time></trkpt><trkpt lat="48.176220791825386" lon="11.637674816358194"><ele>509.0</ele><time>2026-04-18T13:10:03.001Z</time></trkpt><trkpt lat="48.17620805874938" lon="11.63782090048762"><ele>509.0</ele><time>2026-04-18T13:10:04.001Z</time></trkpt><trkpt lat="48.17621133987707" lon="11.637956574412595"><ele>509.2</ele><time>2026-04-18T13:10:05.001Z</time></trkpt><trkpt lat="48.176198721785006" lon="11.638085283422411"><ele>509.4</ele><time>2026-04-18T13:10:06.001Z</time></trkpt><trkpt lat="48.17618551813769" lon="11.638221609566893"><ele>509.6</ele><time>2026-04-18T13:10:07.001Z</time></trkpt><trkpt lat="48.176175629919406" lon="11.638356075825795"><ele>509.8</ele><time>2026-04-18T13:10:08.001Z</time></trkpt><trkpt lat="48.17616550586815" lon="11.638491007697546"><ele>510.0</ele><time>2026-04-18T13:10:09.001Z</time></trkpt><trkpt lat="48.17615705657073" lon="11.638627900180458"><ele>510.4</ele><time>2026-04-18T13:10:10.001Z</time></trkpt><trkpt lat="48.176150828472785" lon="11.63876743845231"><ele>510.8</ele><time>2026-04-18T13:10:11.001Z</time></trkpt><trkpt lat="48.17614105365489" lon="11.638908900761928"><ele>511.20000000000005</ele><time>2026-04-18T13:10:12.001Z</time></trkpt><trkpt lat="48.176139893591" lon="11.63905281833423"><ele>511.6</ele><time>2026-04-18T13:10:13.001Z</time></trkpt><trkpt lat="48.176137460008796" lon="11.639195095462874"><ele>512.0</ele><time>2026-04-18T13:10:14.001Z</time></trkpt><trkpt lat="48.17613642264758" lon="11.639338931243996"><ele>512.0</ele><time>2026-04-18T13:10:15.001Z</time></trkpt><trkpt lat="48.176135246062174" lon="11.63948297314669"><ele>512.0</ele><time>2026-04-18T13:10:16.001Z</time></trkpt><trkpt lat="48.17614182995985" lon="11.639627032354854"><ele>512.0</ele><time>2026-04-18T13:10:17.001Z</time></trkpt><trkpt lat="48.17614992510519" lon="11.63976960551504"><ele>512.0</ele><time>2026-04-18T13:10:18.001Z</time></trkpt><trkpt lat="48.17616064838449" lon="11.639911771286602"><ele>512.0</ele><time>2026-04-18T13:10:19.001Z</time></trkpt><trkpt lat="48.176171855281744" lon="11.640057622664731"><ele>512.0</ele><time>2026-04-18T13:10:20.001Z</time></trkpt><trkpt lat="48.1761871139755" lon="11.640212881682013"><ele>512.0</ele><time>2026-04-18T13:10:21.001Z</time></trkpt><trkpt lat="48.17620614664507" lon="11.640381487199864"><ele>512.0</ele><time>2026-04-18T13:10:22.001Z</time></trkpt><trkpt lat="48.17622577812418" lon="11.64056990703958"><ele>512.0</ele><time>2026-04-18T13:10:23.001Z</time></trkpt><trkpt lat="48.176253228307786" lon="11.640776133255972"><ele>512.6666666666666</ele><time>2026-04-18T13:10:24.001Z</time></trkpt><trkpt lat="48.17628614106461" lon="11.641001012741818"><ele>513.3333333333334</ele><time>2026-04-18T13:10:25.001Z</time></trkpt><trkpt lat="48.17632524376236" lon="11.641240101034267"><ele>514.0</ele><time>2026-04-18T13:10:26.001Z</time></trkpt><trkpt lat="48.17636792226041" lon="11.641485847760837"><ele>514.0</ele><time>2026-04-18T13:10:27.001Z</time></trkpt><trkpt lat="48.17641533987433" lon="11.641744503700595"><ele>514.0</ele><time>2026-04-18T13:10:28.001Z</time></trkpt><trkpt lat="48.176462485780505" lon="11.641998595775815"><ele>514.0</ele><time>2026-04-18T13:10:29.001Z</time></trkpt><trkpt lat="48.17650833885253" lon="11.642251832575013"><ele>514.0</ele><time>2026-04-18T13:10:30.001Z</time></trkpt><trkpt lat="48.17655208682221" lon="11.642499492042136"><ele>514.0</ele><time>2026-04-18T13:10:31.001Z</time></trkpt><trkpt lat="48.176597128444655" lon="11.642743200460517"><ele>514.0</ele><time>2026-04-18T13:10:32.001Z</time></trkpt><trkpt lat="48.17664251728775" lon="11.642983534355556"><ele>514.0</ele><time>2026-04-18T13:10:33.001Z</time></trkpt><trkpt lat="48.17668654040092" lon="11.6432244580359"><ele>514.0</ele><time>2026-04-18T13:10:34.001Z</time></trkpt><trkpt lat="48.176730890812976" lon="11.643464261776687"><ele>514.0</ele><time>2026-04-18T13:10:35.001Z</time></trkpt><trkpt lat="48.176774900237916" lon="11.643699163460369"><ele>514.6666666666667</ele><time>2026-04-18T13:10:36.001Z</time></trkpt><trkpt lat="48.17681864665463" lon="11.643934014478099"><ele>515.3333333333334</ele><time>2026-04-18T13:10:37.001Z</time></trkpt><trkpt lat="48.17686303940385" lon="11.644168411411194"><ele>516.0</ele><time>2026-04-18T13:10:38.001Z</time></trkpt><trkpt lat="48.17690671528449" lon="11.644406587818596"><ele>516.3333333333334</ele><time>2026-04-18T13:10:39.001Z</time></trkpt><trkpt lat="48.17695094679096" lon="11.644648561569552"><ele>516.6666666666667</ele><time>2026-04-18T13:10:40.001Z</time></trkpt><trkpt lat="48.176996226658886" lon="11.644897554277604"><ele>517.0</ele><time>2026-04-18T13:10:41.001Z</time></trkpt><trkpt lat="48.17704285780283" lon="11.645149424616356"><ele>516.3333333333334</ele><time>2026-04-18T13:10:42.001Z</time></trkpt><trkpt lat="48.17708862661514" lon="11.645402764313152"><ele>515.6666666666666</ele><time>2026-04-18T13:10:43.001Z</time></trkpt><trkpt lat="48.17713463872297" lon="11.645660242047391"><ele>515.0</ele><time>2026-04-18T13:10:44.001Z</time></trkpt><trkpt lat="48.17717998817141" lon="11.645912028428594"><ele>514.3333333333333</ele><time>2026-04-18T13:10:45.001Z</time></trkpt><trkpt lat="48.1772264512576" lon="11.646164537280132"><ele>513.6666666666666</ele><time>2026-04-18T13:10:46.001Z</time></trkpt><trkpt lat="48.17727253981844" lon="11.646413962783477"><ele>513.0</ele><time>2026-04-18T13:10:47.001Z</time></trkpt><trkpt lat="48.17731688270193" lon="11.6466589059114"><ele>512.6666666666666</ele><time>2026-04-18T13:10:48.001Z</time></trkpt><trkpt lat="48.17736098151475" lon="11.646904176505933"><ele>512.3333333333333</ele><time>2026-04-18T13:10:49.001Z</time></trkpt><trkpt lat="48.177404813686955" lon="11.64714815708798"><ele>512.0</ele><time>2026-04-18T13:10:50.001Z</time></trkpt><trkpt lat="48.177448876241556" lon="11.647393117640824"><ele>512.0</ele><time>2026-04-18T13:10:51.001Z</time></trkpt><trkpt lat="48.1774957219414" lon="11.647635420771444"><ele>512.0</ele><time>2026-04-18T13:10:52.001Z</time></trkpt><trkpt lat="48.17754298115124" lon="11.647874865356277"><ele>512.0</ele><time>2026-04-18T13:10:53.001Z</time></trkpt><trkpt lat="48.177587839056486" lon="11.648115754613448"><ele>512.0</ele><time>2026-04-18T13:10:54.001Z</time></trkpt><trkpt lat="48.17763234500352" lon="11.64835878527126"><ele>512.0</ele><time>2026-04-18T13:10:55.001Z</time></trkpt><trkpt lat="48.17767854890926" lon="11.648601061016675"><ele>512.0</ele><time>2026-04-18T13:10:56.001Z</time></trkpt><trkpt lat="48.1777260705037" lon="11.648846111177434"><ele>512.0</ele><time>2026-04-18T13:10:57.001Z</time></trkpt><trkpt lat="48.17777253289654" lon="11.649095158898977"><ele>512.0</ele><time>2026-04-18T13:10:58.001Z</time></trkpt><trkpt lat="48.17781747680506" lon="11.649338292509567"><ele>512.0</ele><time>2026-04-18T13:10:59.001Z</time></trkpt><trkpt lat="48.17786237612459" lon="11.64958296425509"><ele>512.0</ele><time>2026-04-18T13:11:00.001Z</time></trkpt><trkpt lat="48.1779060405418" lon="11.649826169090886"><ele>512.0</ele><time>2026-04-18T13:11:01.001Z</time></trkpt><trkpt lat="48.177951087731365" lon="11.65007203518243"><ele>512.0</ele><time>2026-04-18T13:11:02.001Z</time></trkpt><trkpt lat="48.17799846500931" lon="11.650316558904619"><ele>511.66666666666663</ele><time>2026-04-18T13:11:03.001Z</time></trkpt><trkpt lat="48.17804560257329" lon="11.65056188095892"><ele>511.33333333333337</ele><time>2026-04-18T13:11:04.001Z</time></trkpt><trkpt lat="48.178094508456525" lon="11.650808749027314"><ele>511.0</ele><time>2026-04-18T13:11:05.001Z</time></trkpt><trkpt lat="48.178146765760644" lon="11.6510516994779"><ele>510.33333333333337</ele><time>2026-04-18T13:11:06.001Z</time></trkpt><trkpt lat="48.17820247706357" lon="11.651294642246864"><ele>509.66666666666663</ele><time>2026-04-18T13:11:07.001Z</time></trkpt><trkpt lat="48.178261578389446" lon="11.65153392686771"><ele>509.0</ele><time>2026-04-18T13:11:08.001Z</time></trkpt><trkpt lat="48.17832560191807" lon="11.651769561146118"><ele>508.3333333333333</ele><time>2026-04-18T13:11:09.001Z</time></trkpt><trkpt lat="48.1783918848372" lon="11.652000813992952"><ele>507.66666666666663</ele><time>2026-04-18T13:11:10.001Z</time></trkpt><trkpt lat="48.17846479331834" lon="11.652227076128147"><ele>507.0</ele><time>2026-04-18T13:11:11.001Z</time></trkpt><trkpt lat="48.17854280506812" lon="11.652448015505028"><ele>507.0</ele><time>2026-04-18T13:11:12.001Z</time></trkpt><trkpt lat="48.17862417656169" lon="11.652665321640827"><ele>507.0</ele><time>2026-04-18T13:11:13.001Z</time></trkpt><trkpt lat="48.17870873393172" lon="11.652880840999103"><ele>507.0</ele><time>2026-04-18T13:11:14.001Z</time></trkpt><trkpt lat="48.17879894993882" lon="11.653092031736541"><ele>506.0</ele><time>2026-04-18T13:11:15.001Z</time></trkpt><trkpt lat="48.1788917307644" lon="11.653301484783421"><ele>505.0</ele><time>2026-04-18T13:11:16.001Z</time></trkpt><trkpt lat="48.178990005885694" lon="11.653503269037069"><ele>504.0</ele><time>2026-04-18T13:11:17.001Z</time></trkpt><trkpt lat="48.17909390765067" lon="11.653701224508122"><ele>504.0</ele><time>2026-04-18T13:11:18.001Z</time></trkpt><trkpt lat="48.17920116425161" lon="11.653897336851468"><ele>504.0</ele><time>2026-04-18T13:11:19.001Z</time></trkpt><trkpt lat="48.1793077320872" lon="11.654077912747915"><ele>504.0</ele><time>2026-04-18T13:11:20.001Z</time></trkpt><trkpt lat="48.179403447186566" lon="11.654230782267664"><ele>504.0</ele><time>2026-04-18T13:11:21.001Z</time></trkpt><trkpt lat="48.179489941471225" lon="11.654367700865851"><ele>504.0</ele><time>2026-04-18T13:11:22.001Z</time></trkpt><trkpt lat="48.17956773904925" lon="11.654489104933647"><ele>504.0</ele><time>2026-04-18T13:11:23.001Z</time></trkpt><trkpt lat="48.17964148155055" lon="11.654602576969852"><ele>504.0</ele><time>2026-04-18T13:11:24.001Z</time></trkpt><trkpt lat="48.17971207506102" lon="11.65470507954728"><ele>504.0</ele><time>2026-04-18T13:11:25.001Z</time></trkpt><trkpt lat="48.17978167224711" lon="11.654798764738041"><ele>504.0</ele><time>2026-04-18T13:11:26.001Z</time></trkpt><trkpt lat="48.179846123296784" lon="11.65488179114337"><ele>504.0</ele><time>2026-04-18T13:11:27.001Z</time></trkpt><trkpt lat="48.17990480024223" lon="11.654956879615588"><ele>504.0</ele><time>2026-04-18T13:11:28.001Z</time></trkpt><trkpt lat="48.17995801102508" lon="11.655025977851516"><ele>504.0</ele><time>2026-04-18T13:11:29.001Z</time></trkpt><trkpt lat="48.180006317686235" lon="11.65508703779922"><ele>504.0</ele><time>2026-04-18T13:11:30.001Z</time></trkpt><trkpt lat="48.18009303038458" lon="11.655202888016898"><ele>504.0</ele><time>2026-04-18T13:11:32.001Z</time></trkpt><trkpt lat="48.18017369440859" lon="11.655348120840538"><ele>504.3333333333333</ele><time>2026-04-18T13:11:34.001Z</time></trkpt><trkpt lat="48.18018931992533" lon="11.65545026408907"><ele>504.66666666666663</ele><time>2026-04-18T13:11:35.001Z</time></trkpt><trkpt lat="48.18018797442269" lon="11.65555696011629"><ele>505.0</ele><time>2026-04-18T13:11:36.001Z</time></trkpt><trkpt lat="48.180188232164056" lon="11.655664626288413"><ele>505.3333333333333</ele><time>2026-04-18T13:11:37.001Z</time></trkpt><trkpt lat="48.18022980104695" lon="11.655751750741684"><ele>505.66666666666663</ele><time>2026-04-18T13:11:38.001Z</time></trkpt><trkpt lat="48.180309274769975" lon="11.655876386394686"><ele>506.0</ele><time>2026-04-18T13:11:40.001Z</time></trkpt><trkpt lat="48.18041211711735" lon="11.655927244471991"><ele>506.0</ele><time>2026-04-18T13:11:42.001Z</time></trkpt><trkpt lat="48.18053358968808" lon="11.655888433670691"><ele>506.0</ele><time>2026-04-18T13:11:44.001Z</time></trkpt><trkpt lat="48.18058947360047" lon="11.655827266733187"><ele>506.0</ele><time>2026-04-18T13:11:45.001Z</time></trkpt><trkpt lat="48.1806553474793" lon="11.655645051074938"><ele>506.0</ele><time>2026-04-18T13:11:47.001Z</time></trkpt><trkpt lat="48.180645224849265" lon="11.655539209090458"><ele>506.0</ele><time>2026-04-18T13:11:48.001Z</time></trkpt><trkpt lat="48.18061806754684" lon="11.655442304166947"><ele>506.0</ele><time>2026-04-18T13:11:49.001Z</time></trkpt><trkpt lat="48.18057488007994" lon="11.655360025377998"><ele>506.0</ele><time>2026-04-18T13:11:50.001Z</time></trkpt><trkpt lat="48.18044817994949" lon="11.655277223214553"><ele>506.0</ele><time>2026-04-18T13:11:52.001Z</time></trkpt><trkpt lat="48.1803272770873" lon="11.655311346063563"><ele>506.0</ele><time>2026-04-18T13:11:54.001Z</time></trkpt><trkpt lat="48.180239813085834" lon="11.655442963780434"><ele>506.00000000000006</ele><time>2026-04-18T13:11:56.001Z</time></trkpt><trkpt lat="48.180221316018425" lon="11.655537436687853"><ele>506.0</ele><time>2026-04-18T13:11:57.001Z</time></trkpt><trkpt lat="48.180221399226276" lon="11.655639763059215"><ele>506.00000000000006</ele><time>2026-04-18T13:11:58.001Z</time></trkpt><trkpt lat="48.18024195255836" lon="11.65573793983783"><ele>506.00000000000006</ele><time>2026-04-18T13:11:59.001Z</time></trkpt><trkpt lat="48.18028083324767" lon="11.65582308430371"><ele>506.0</ele><time>2026-04-18T13:12:00.001Z</time></trkpt><trkpt lat="48.18033847693147" lon="11.655881403063955"><ele>506.00000000000006</ele><time>2026-04-18T13:12:01.001Z</time></trkpt><trkpt lat="48.18040454609522" lon="11.655906112179405"><ele>506.00000000000006</ele><time>2026-04-18T13:12:02.001Z</time></trkpt><trkpt lat="48.18046890803549" lon="11.655899283587747"><ele>506.0</ele><time>2026-04-18T13:12:03.001Z</time></trkpt><trkpt lat="48.18056848056728" lon="11.655848278920807"><ele>506.0</ele><time>2026-04-18T13:12:05.001Z</time></trkpt><trkpt lat="48.180655717195165" lon="11.655799171532195"><ele>506.0</ele><time>2026-04-18T13:12:07.001Z</time></trkpt><trkpt lat="48.18064316812288" lon="11.655598756539897"><ele>506.0</ele><time>2026-04-18T13:12:08.001Z</time></trkpt><trkpt lat="48.180629749497335" lon="11.655500106685171"><ele>506.0</ele><time>2026-04-18T13:12:09.001Z</time></trkpt><trkpt lat="48.180594653216254" lon="11.655410862233621"><ele>505.99999999999994</ele><time>2026-04-18T13:12:10.001Z</time></trkpt><trkpt lat="48.180564442622355" lon="11.655323674192715"><ele>506.0</ele><time>2026-04-18T13:12:11.001Z</time></trkpt><trkpt lat="48.18047864913112" lon="11.655301467541351"><ele>506.0</ele><time>2026-04-18T13:12:12.001Z</time></trkpt><trkpt lat="48.18041540672167" lon="11.655293743928993"><ele>506.0</ele><time>2026-04-18T13:12:13.001Z</time></trkpt><trkpt lat="48.18029847773631" lon="11.655279038778072"><ele>505.99999999999994</ele><time>2026-04-18T13:12:15.001Z</time></trkpt><trkpt lat="48.18019539196459" lon="11.655204258586881"><ele>506.0</ele><time>2026-04-18T13:12:17.001Z</time></trkpt><trkpt lat="48.18013835999745" lon="11.655114480602505"><ele>505.5</ele><time>2026-04-18T13:12:18.001Z</time></trkpt><trkpt lat="48.180060684423516" lon="11.655051703030843"><ele>505.0</ele><time>2026-04-18T13:12:19.001Z</time></trkpt><trkpt lat="48.17998540507913" lon="11.654961427228324"><ele>504.5</ele><time>2026-04-18T13:12:21.001Z</time></trkpt><trkpt lat="48.180032704525196" lon="11.654752077760833"><ele>504.0</ele><time>2026-04-18T13:12:25.001Z</time></trkpt><trkpt lat="48.180136174402996" lon="11.654844518722047"><ele>504.0</ele><time>2026-04-18T13:12:27.001Z</time></trkpt><trkpt lat="48.180240616967424" lon="11.654866010291666"><ele>504.0</ele><time>2026-04-18T13:12:29.001Z</time></trkpt><trkpt lat="48.18030964778125" lon="11.655002222524534"><ele>504.0</ele><time>2026-04-18T13:12:30.001Z</time></trkpt><trkpt lat="48.18040938383613" lon="11.65497581151621"><ele>504.0</ele><time>2026-04-18T13:12:32.001Z</time></trkpt><trkpt lat="48.180475328941306" lon="11.654953780351178"><ele>504.0</ele><time>2026-04-18T13:12:34.001Z</time></trkpt><trkpt lat="48.180534669585704" lon="11.654892125932127"><ele>504.0</ele><time>2026-04-18T13:14:17Z</time></trkpt><trkpt lat="48.18046785745829" lon="11.65489172921623"><ele>504.0</ele><time>2026-04-18T13:14:29Z</time></trkpt><trkpt lat="48.18036735841636" lon="11.65491365385401"><ele>504.0</ele><time>2026-04-18T13:15:36.001Z</time></trkpt><trkpt lat="48.180416489600404" lon="11.654851330965103"><ele>504.0</ele><time>2026-04-18T13:15:41.001Z</time></trkpt><trkpt lat="48.18038717751745" lon="11.65473368521137"><ele>504.0</ele><time>2026-04-18T13:15:46.001Z</time></trkpt><trkpt lat="48.180400680221624" lon="11.654613401409511"><ele>504.0</ele><time>2026-04-18T13:15:50.001Z</time></trkpt><trkpt lat="48.18042620640687" lon="11.65451227068047"><ele>504.0</ele><time>2026-04-18T13:15:56Z</time></trkpt><trkpt lat="48.18029226568921" lon="11.654524057409477"><ele>504.0</ele><time>2026-04-18T13:16:39.001Z</time></trkpt><trkpt lat="48.18028958150674" lon="11.65465042339409"><ele>504.0</ele><time>2026-04-18T13:16:41.001Z</time></trkpt><trkpt lat="48.18036209856408" lon="11.654720476296818"><ele>504.0</ele><time>2026-04-18T13:16:43.001Z</time></trkpt><trkpt lat="48.18040326148928" lon="11.654817348804551"><ele>504.0</ele><time>2026-04-18T13:16:49.001Z</time></trkpt><trkpt lat="48.1804230078754" lon="11.654956986840391"><ele>504.0</ele><time>2026-04-18T13:16:50.001Z</time></trkpt><trkpt lat="48.18044663183651" lon="11.655108228907842"><ele>504.0</ele><time>2026-04-18T13:16:52.001Z</time></trkpt><trkpt lat="48.1804237962315" lon="11.655010473849428"><ele>504.0</ele><time>2026-04-18T13:16:55.001Z</time></trkpt><trkpt lat="48.180403611123054" lon="11.654894691829481"><ele>504.0</ele><time>2026-04-18T13:17:05.001Z</time></trkpt><trkpt lat="48.18036085581487" lon="11.654649249701526"><ele>504.0</ele><time>2026-04-18T13:17:25.001Z</time></trkpt><trkpt lat="48.1804207531384" lon="11.654540250152076"><ele>504.0</ele><time>2026-04-18T13:17:31.001Z</time></trkpt><trkpt lat="48.1804587286067" lon="11.654452973999806"><ele>504.0</ele><time>2026-04-18T13:17:36.001Z</time></trkpt><trkpt lat="48.1803310631491" lon="11.654481883307064"><ele>504.0</ele><time>2026-04-18T13:17:49.001Z</time></trkpt><trkpt lat="48.18036473602042" lon="11.654626241226445"><ele>504.0</ele><time>2026-04-18T13:17:53.001Z</time></trkpt><trkpt lat="48.18038029919363" lon="11.65471871276092"><ele>504.0</ele><time>2026-04-18T13:17:54.001Z</time></trkpt><trkpt lat="48.18044446027856" lon="11.654805469703804"><ele>504.0</ele><time>2026-04-18T13:18:00.001Z</time></trkpt><trkpt lat="48.18046194439249" lon="11.654925634423146"><ele>504.0</ele><time>2026-04-18T13:18:13.001Z</time></trkpt><trkpt lat="48.18060534480424" lon="11.65491800932861"><ele>504.0</ele><time>2026-04-18T13:19:33.001Z</time></trkpt><trkpt lat="48.18066216640328" lon="11.654847987094515"><ele>504.0</ele><time>2026-04-18T13:19:35.001Z</time></trkpt><trkpt lat="48.18074577869049" lon="11.65476021006967"><ele>504.0</ele><time>2026-04-18T13:19:37.001Z</time></trkpt><trkpt lat="48.18075735336278" lon="11.65466203856065"><ele>504.0</ele><time>2026-04-18T13:19:40.001Z</time></trkpt><trkpt lat="48.18083351246368" lon="11.654698907127829"><ele>504.0</ele><time>2026-04-18T13:19:43.001Z</time></trkpt><trkpt lat="48.18076941334485" lon="11.654883622640297"><ele>504.0</ele><time>2026-04-18T13:19:56.001Z</time></trkpt><trkpt lat="48.18072337185467" lon="11.654957548888945"><ele>504.0</ele><time>2026-04-18T13:19:57.001Z</time></trkpt><trkpt lat="48.18068289221197" lon="11.655035585083548"><ele>504.0</ele><time>2026-04-18T13:19:58.001Z</time></trkpt><trkpt lat="48.1806399177466" lon="11.655118403865997"><ele>504.0</ele><time>2026-04-18T13:19:59.001Z</time></trkpt><trkpt lat="48.180591610326964" lon="11.655187546782718"><ele>504.0</ele><time>2026-04-18T13:20:00.001Z</time></trkpt><trkpt lat="48.18048347872924" lon="11.655236778188433"><ele>504.0</ele><time>2026-04-18T13:20:02.001Z</time></trkpt><trkpt lat="48.18040933788379" lon="11.65526653094562"><ele>504.0</ele><time>2026-04-18T13:20:03.001Z</time></trkpt><trkpt lat="48.18033154489948" lon="11.655287414186514"><ele>504.0</ele><time>2026-04-18T13:20:04.001Z</time></trkpt><trkpt lat="48.18026420493339" lon="11.65533365432193"><ele>504.0</ele><time>2026-04-18T13:20:05.001Z</time></trkpt><trkpt lat="48.18020381666171" lon="11.655472139369119"><ele>504.4</ele><time>2026-04-18T13:20:07.001Z</time></trkpt><trkpt lat="48.18019841535743" lon="11.655624309671694"><ele>504.79999999999995</ele><time>2026-04-18T13:20:09.001Z</time></trkpt><trkpt lat="48.18025088683083" lon="11.65579605174096"><ele>505.20000000000005</ele><time>2026-04-18T13:20:11.001Z</time></trkpt><trkpt lat="48.18030890892055" lon="11.65588574126622"><ele>505.6</ele><time>2026-04-18T13:20:12.001Z</time></trkpt><trkpt lat="48.180390702798256" lon="11.655940111307354"><ele>506.0</ele><time>2026-04-18T13:20:13.001Z</time></trkpt><trkpt lat="48.180477278503" lon="11.655954615547694"><ele>506.0</ele><time>2026-04-18T13:20:14.001Z</time></trkpt><trkpt lat="48.18055133146591" lon="11.655939868670043"><ele>506.0</ele><time>2026-04-18T13:20:15.001Z</time></trkpt><trkpt lat="48.18060236997871" lon="11.655855780608253"><ele>506.0</ele><time>2026-04-18T13:20:16.001Z</time></trkpt><trkpt lat="48.18068904590501" lon="11.655933856115626"><ele>506.0</ele><time>2026-04-18T13:20:17.001Z</time></trkpt><trkpt lat="48.1807586173419" lon="11.65600917491609"><ele>506.0</ele><time>2026-04-18T13:20:18.001Z</time></trkpt><trkpt lat="48.18084451956208" lon="11.656121566282073"><ele>505.0</ele><time>2026-04-18T13:20:19.001Z</time></trkpt><trkpt lat="48.180956882319336" lon="11.656261200557333"><ele>504.0</ele><time>2026-04-18T13:20:20.001Z</time></trkpt><trkpt lat="48.181091590786394" lon="11.656416265377727"><ele>503.0</ele><time>2026-04-18T13:20:21.001Z</time></trkpt><trkpt lat="48.18123176366944" lon="11.65657602837149"><ele>503.0</ele><time>2026-04-18T13:20:22.001Z</time></trkpt><trkpt lat="48.18136524888091" lon="11.656749168514326"><ele>503.0</ele><time>2026-04-18T13:20:23.001Z</time></trkpt><trkpt lat="48.18147941584059" lon="11.656917881191221"><ele>503.0</ele><time>2026-04-18T13:20:24.001Z</time></trkpt><trkpt lat="48.1815819867196" lon="11.657076051248167"><ele>503.66666666666663</ele><time>2026-04-18T13:20:25.001Z</time></trkpt><trkpt lat="48.181684686008474" lon="11.657237643877624"><ele>504.33333333333337</ele><time>2026-04-18T13:20:26.001Z</time></trkpt><trkpt lat="48.181795626455994" lon="11.657427247702566"><ele>505.0</ele><time>2026-04-18T13:20:27.001Z</time></trkpt><trkpt lat="48.18191528098038" lon="11.657650289196912"><ele>504.6666666666667</ele><time>2026-04-18T13:20:28.001Z</time></trkpt><trkpt lat="48.18203073906159" lon="11.657884289044665"><ele>504.33333333333337</ele><time>2026-04-18T13:20:29.001Z</time></trkpt><trkpt lat="48.18213339882092" lon="11.658104384060954"><ele>504.0</ele><time>2026-04-18T13:20:30.001Z</time></trkpt><trkpt lat="48.18223276370129" lon="11.658317269754082"><ele>504.0</ele><time>2026-04-18T13:20:31.001Z</time></trkpt><trkpt lat="48.18232226935953" lon="11.65853595122416"><ele>504.0</ele><time>2026-04-18T13:20:32.001Z</time></trkpt><trkpt lat="48.18240563196877" lon="11.658769414995934"><ele>504.0</ele><time>2026-04-18T13:20:33.001Z</time></trkpt><trkpt lat="48.182488424836784" lon="11.659012758252024"><ele>504.0</ele><time>2026-04-18T13:20:34.001Z</time></trkpt><trkpt lat="48.182568366840194" lon="11.65926180302851"><ele>504.0</ele><time>2026-04-18T13:20:35.001Z</time></trkpt><trkpt lat="48.18264874400885" lon="11.65952226563349"><ele>504.0</ele><time>2026-04-18T13:20:36.001Z</time></trkpt><trkpt lat="48.18272399283302" lon="11.659790154013198"><ele>503.33333333333337</ele><time>2026-04-18T13:20:37.001Z</time></trkpt><trkpt lat="48.182784620638834" lon="11.66006611509249"><ele>502.6666666666667</ele><time>2026-04-18T13:20:38.001Z</time></trkpt><trkpt lat="48.18284308669053" lon="11.660344832444343"><ele>502.0</ele><time>2026-04-18T13:20:39.001Z</time></trkpt><trkpt lat="48.18289845525187" lon="11.660629141789698"><ele>502.0</ele><time>2026-04-18T13:20:40.001Z</time></trkpt><trkpt lat="48.18294426178531" lon="11.660923498264454"><ele>502.0</ele><time>2026-04-18T13:20:41.001Z</time></trkpt><trkpt lat="48.182981586509186" lon="11.661224756521332"><ele>502.0</ele><time>2026-04-18T13:20:42.001Z</time></trkpt><trkpt lat="48.18301298382558" lon="11.661539156697183"><ele>502.6666666666667</ele><time>2026-04-18T13:20:43.001Z</time></trkpt><trkpt lat="48.18303307761019" lon="11.661846140407135"><ele>503.33333333333337</ele><time>2026-04-18T13:20:44.001Z</time></trkpt><trkpt lat="48.18304897937475" lon="11.66215162253803"><ele>504.0</ele><time>2026-04-18T13:20:45.001Z</time></trkpt><trkpt lat="48.183060446116265" lon="11.662457141223115"><ele>504.0</ele><time>2026-04-18T13:20:46.001Z</time></trkpt><trkpt lat="48.183059388556686" lon="11.662765284727223"><ele>504.0</ele><time>2026-04-18T13:20:47.001Z</time></trkpt><trkpt lat="48.18305330296061" lon="11.663066653708864"><ele>504.0</ele><time>2026-04-18T13:20:48.001Z</time></trkpt><trkpt lat="48.183042525969114" lon="11.663345581235475"><ele>504.0</ele><time>2026-04-18T13:20:49.001Z</time></trkpt><trkpt lat="48.18302967751925" lon="11.663604041154297"><ele>504.0</ele><time>2026-04-18T13:20:50.001Z</time></trkpt><trkpt lat="48.183013221585185" lon="11.663842584809831"><ele>504.0</ele><time>2026-04-18T13:20:51.001Z</time></trkpt><trkpt lat="48.18299395954583" lon="11.66406984248028"><ele>504.0</ele><time>2026-04-18T13:20:52.001Z</time></trkpt><trkpt lat="48.1829727929474" lon="11.66429771113553"><ele>504.0</ele><time>2026-04-18T13:20:53.001Z</time></trkpt><trkpt lat="48.18295280613546" lon="11.664529598578342"><ele>504.0</ele><time>2026-04-18T13:20:54.001Z</time></trkpt><trkpt lat="48.182930327708036" lon="11.66478112934599"><ele>504.33333333333337</ele><time>2026-04-18T13:20:55.001Z</time></trkpt><trkpt lat="48.182906220596045" lon="11.665034761275477"><ele>504.6666666666667</ele><time>2026-04-18T13:20:56.001Z</time></trkpt><trkpt lat="48.182884854150494" lon="11.66528076626324"><ele>505.0</ele><time>2026-04-18T13:20:57.001Z</time></trkpt><trkpt lat="48.18286549734759" lon="11.665508052569233"><ele>505.0</ele><time>2026-04-18T13:20:58.001Z</time></trkpt><trkpt lat="48.18284606576612" lon="11.665730965318984"><ele>505.0</ele><time>2026-04-18T13:20:59.001Z</time></trkpt><trkpt lat="48.18282568654402" lon="11.66594716580349"><ele>505.0</ele><time>2026-04-18T13:21:00.001Z</time></trkpt><trkpt lat="48.18280432873583" lon="11.666161843315141"><ele>505.0</ele><time>2026-04-18T13:21:01.001Z</time></trkpt><trkpt lat="48.182783781006776" lon="11.66637594620987"><ele>505.0</ele><time>2026-04-18T13:21:02.001Z</time></trkpt><trkpt lat="48.1827587649734" lon="11.666593168128223"><ele>505.0</ele><time>2026-04-18T13:21:03.001Z</time></trkpt><trkpt lat="48.182741880596566" lon="11.66680768670238"><ele>505.0</ele><time>2026-04-18T13:21:04.001Z</time></trkpt><trkpt lat="48.182728606543634" lon="11.667025956544602"><ele>505.0</ele><time>2026-04-18T13:21:05.001Z</time></trkpt><trkpt lat="48.182706363077074" lon="11.667245854516095"><ele>505.0</ele><time>2026-04-18T13:21:06.001Z</time></trkpt><trkpt lat="48.18268214969114" lon="11.667469776247259"><ele>505.0</ele><time>2026-04-18T13:21:07.001Z</time></trkpt><trkpt lat="48.182662428571575" lon="11.66769274985554"><ele>505.0</ele><time>2026-04-18T13:21:08.001Z</time></trkpt><trkpt lat="48.182643509853634" lon="11.667914449099849"><ele>504.75</ele><time>2026-04-18T13:21:09.001Z</time></trkpt><trkpt lat="48.1826277760633" lon="11.66812069422358"><ele>504.5</ele><time>2026-04-18T13:21:10.001Z</time></trkpt><trkpt lat="48.182612071776596" lon="11.668318426952123"><ele>504.25</ele><time>2026-04-18T13:21:11.001Z</time></trkpt><trkpt lat="48.182600524805466" lon="11.66850347443519"><ele>504.0</ele><time>2026-04-18T13:21:12.001Z</time></trkpt><trkpt lat="48.1825846858076" lon="11.668686910321819"><ele>504.0</ele><time>2026-04-18T13:21:13.001Z</time></trkpt><trkpt lat="48.182564992263146" lon="11.668857031283435"><ele>504.0</ele><time>2026-04-18T13:21:14.001Z</time></trkpt><trkpt lat="48.18254467163433" lon="11.669049433387123"><ele>504.0</ele><time>2026-04-18T13:21:15.001Z</time></trkpt><trkpt lat="48.18252281473978" lon="11.669270263519646"><ele>504.0</ele><time>2026-04-18T13:21:16.001Z</time></trkpt><trkpt lat="48.182497444315345" lon="11.669511695825342"><ele>504.0</ele><time>2026-04-18T13:21:17.001Z</time></trkpt><trkpt lat="48.18247533284901" lon="11.669747655477142"><ele>504.0</ele><time>2026-04-18T13:21:18.001Z</time></trkpt><trkpt lat="48.1824506633378" lon="11.669984657122995"><ele>504.0</ele><time>2026-04-18T13:21:19.001Z</time></trkpt><trkpt lat="48.18243160949566" lon="11.670209294343866"><ele>503.75</ele><time>2026-04-18T13:21:20.001Z</time></trkpt><trkpt lat="48.182410469333256" lon="11.670420750832873"><ele>503.5</ele><time>2026-04-18T13:21:21.001Z</time></trkpt><trkpt lat="48.18239232902022" lon="11.670628780782383"><ele>503.25</ele><time>2026-04-18T13:21:22.001Z</time></trkpt><trkpt lat="48.18237168806028" lon="11.670828536941102"><ele>503.0</ele><time>2026-04-18T13:21:23.001Z</time></trkpt><trkpt lat="48.182355879137326" lon="11.671024617350136"><ele>503.0</ele><time>2026-04-18T13:21:24.001Z</time></trkpt><trkpt lat="48.182337122247546" lon="11.671231939849624"><ele>503.0</ele><time>2026-04-18T13:21:25.001Z</time></trkpt><trkpt lat="48.182316594258445" lon="11.67145077775958"><ele>503.0</ele><time>2026-04-18T13:21:26.001Z</time></trkpt><trkpt lat="48.18229978391296" lon="11.671662541958215"><ele>503.0</ele><time>2026-04-18T13:21:27.001Z</time></trkpt><trkpt lat="48.18228378393284" lon="11.671866082580674"><ele>503.0</ele><time>2026-04-18T13:21:28.001Z</time></trkpt><trkpt lat="48.182265442161246" lon="11.672068322366075"><ele>503.0</ele><time>2026-04-18T13:21:29.001Z</time></trkpt><trkpt lat="48.182245890027325" lon="11.672272143027518"><ele>503.0</ele><time>2026-04-18T13:21:30.001Z</time></trkpt><trkpt lat="48.18222876885626" lon="11.672483852795663"><ele>503.0</ele><time>2026-04-18T13:21:31.001Z</time></trkpt><trkpt lat="48.18221547851904" lon="11.672700470116695"><ele>503.0</ele><time>2026-04-18T13:21:32.001Z</time></trkpt><trkpt lat="48.18219697800099" lon="11.672914480559148"><ele>503.0</ele><time>2026-04-18T13:21:33.001Z</time></trkpt><trkpt lat="48.18218016082688" lon="11.67311868186886"><ele>503.0</ele><time>2026-04-18T13:21:34.001Z</time></trkpt><trkpt lat="48.182163534641866" lon="11.673314871522143"><ele>503.0</ele><time>2026-04-18T13:21:35.001Z</time></trkpt><trkpt lat="48.18214659635722" lon="11.673523786849884"><ele>503.0</ele><time>2026-04-18T13:21:36.001Z</time></trkpt><trkpt lat="48.1821272055524" lon="11.673743702447673"><ele>503.0</ele><time>2026-04-18T13:21:37.001Z</time></trkpt><trkpt lat="48.18210686931718" lon="11.673971305559997"><ele>503.0</ele><time>2026-04-18T13:21:38.001Z</time></trkpt><trkpt lat="48.1820866431835" lon="11.674198066120612"><ele>503.0</ele><time>2026-04-18T13:21:39.001Z</time></trkpt><trkpt lat="48.18206752396299" lon="11.674427667254275"><ele>503.0</ele><time>2026-04-18T13:21:40.001Z</time></trkpt><trkpt lat="48.18205006628784" lon="11.67466782983544"><ele>503.0</ele><time>2026-04-18T13:21:41.001Z</time></trkpt><trkpt lat="48.182028488670866" lon="11.674917245961444"><ele>503.0</ele><time>2026-04-18T13:21:42.001Z</time></trkpt><trkpt lat="48.18200418389863" lon="11.675171756093471"><ele>503.0</ele><time>2026-04-18T13:21:43.001Z</time></trkpt><trkpt lat="48.1819785940976" lon="11.675433242409005"><ele>503.0</ele><time>2026-04-18T13:21:44.001Z</time></trkpt><trkpt lat="48.18195836301278" lon="11.675704928078126"><ele>503.0</ele><time>2026-04-18T13:21:45.001Z</time></trkpt><trkpt lat="48.181936180773555" lon="11.675973471560024"><ele>503.0</ele><time>2026-04-18T13:21:46.001Z</time></trkpt><trkpt lat="48.18191369376911" lon="11.676237949669126"><ele>503.0</ele><time>2026-04-18T13:21:47.001Z</time></trkpt><trkpt lat="48.181889785417596" lon="11.676496179931242"><ele>503.3333333333333</ele><time>2026-04-18T13:21:48.001Z</time></trkpt><trkpt lat="48.18186670516487" lon="11.676755568691526"><ele>503.66666666666663</ele><time>2026-04-18T13:21:49.001Z</time></trkpt><trkpt lat="48.1818441140588" lon="11.677015611067835"><ele>504.0</ele><time>2026-04-18T13:21:50Z</time></trkpt><trkpt lat="48.181820522423365" lon="11.677273027061506"><ele>504.33333333333337</ele><time>2026-04-18T13:21:51Z</time></trkpt><trkpt lat="48.18179698824045" lon="11.677528287832068"><ele>504.6666666666667</ele><time>2026-04-18T13:21:52Z</time></trkpt><trkpt lat="48.1817764863519" lon="11.67778218764318"><ele>505.0</ele><time>2026-04-18T13:21:53Z</time></trkpt><trkpt lat="48.181753960633564" lon="11.67804306567853"><ele>504.33333333333337</ele><time>2026-04-18T13:21:54Z</time></trkpt><trkpt lat="48.18172872238138" lon="11.67830828039853"><ele>503.66666666666663</ele><time>2026-04-18T13:21:55Z</time></trkpt><trkpt lat="48.18170424918038" lon="11.678568550804194"><ele>503.0</ele><time>2026-04-18T13:21:56Z</time></trkpt><trkpt lat="48.18168169358124" lon="11.678827751285446"><ele>503.0</ele><time>2026-04-18T13:21:57Z</time></trkpt><trkpt lat="48.181658335335186" lon="11.679092396603608"><ele>503.0</ele><time>2026-04-18T13:21:58Z</time></trkpt><trkpt lat="48.18163670328462" lon="11.679378238648386"><ele>503.0</ele><time>2026-04-18T13:21:59Z</time></trkpt><trkpt lat="48.18161400800079" lon="11.679685858006772"><ele>503.0</ele><time>2026-04-18T13:22:00Z</time></trkpt><trkpt lat="48.18159243563402" lon="11.679990166599792"><ele>503.0</ele><time>2026-04-18T13:22:01Z</time></trkpt><trkpt lat="48.1815677869553" lon="11.680287871286525"><ele>503.0</ele><time>2026-04-18T13:22:02Z</time></trkpt><trkpt lat="48.18154887952626" lon="11.68058965343811"><ele>503.0</ele><time>2026-04-18T13:22:03Z</time></trkpt><trkpt lat="48.18153465739587" lon="11.68090082415825"><ele>503.0</ele><time>2026-04-18T13:22:04Z</time></trkpt><trkpt lat="48.18152455398778" lon="11.681218038302426"><ele>503.0</ele><time>2026-04-18T13:22:05Z</time></trkpt><trkpt lat="48.181519527371734" lon="11.681537687480537"><ele>503.0</ele><time>2026-04-18T13:22:06Z</time></trkpt><trkpt lat="48.181525282020075" lon="11.681866973796444"><ele>503.0</ele><time>2026-04-18T13:22:07Z</time></trkpt><trkpt lat="48.18152953421675" lon="11.682204530849463"><ele>503.0</ele><time>2026-04-18T13:22:08Z</time></trkpt><trkpt lat="48.18154295432914" lon="11.682543818382689"><ele>502.5</ele><time>2026-04-18T13:22:09Z</time></trkpt><trkpt lat="48.18156386754525" lon="11.682886317017523"><ele>502.0</ele><time>2026-04-18T13:22:10Z</time></trkpt><trkpt lat="48.18159462608531" lon="11.68322616374576"><ele>502.0</ele><time>2026-04-18T13:22:11Z</time></trkpt><trkpt lat="48.18162914790343" lon="11.683552702726766"><ele>502.0</ele><time>2026-04-18T13:22:12Z</time></trkpt><trkpt lat="48.18167409917632" lon="11.68385877004208"><ele>502.0</ele><time>2026-04-18T13:22:13Z</time></trkpt><trkpt lat="48.18171770267435" lon="11.684127363919227"><ele>502.0</ele><time>2026-04-18T13:22:14Z</time></trkpt><trkpt lat="48.18176629952016" lon="11.684377206285259"><ele>502.0</ele><time>2026-04-18T13:22:15Z</time></trkpt><trkpt lat="48.18182064252301" lon="11.684627323849902"><ele>502.0</ele><time>2026-04-18T13:22:16Z</time></trkpt><trkpt lat="48.18187634487022" lon="11.684865323649124"><ele>502.33333333333337</ele><time>2026-04-18T13:22:17Z</time></trkpt><trkpt lat="48.18193745040927" lon="11.685095732299473"><ele>502.66666666666663</ele><time>2026-04-18T13:22:18Z</time></trkpt><trkpt lat="48.18200633898322" lon="11.685335438092158"><ele>503.0</ele><time>2026-04-18T13:22:19Z</time></trkpt><trkpt lat="48.18208385157924" lon="11.68558276600278"><ele>503.0</ele><time>2026-04-18T13:22:20Z</time></trkpt><trkpt lat="48.18216578189176" lon="11.68582304331116"><ele>503.0</ele><time>2026-04-18T13:22:21Z</time></trkpt><trkpt lat="48.18224520345512" lon="11.68604754173297"><ele>503.0</ele><time>2026-04-18T13:22:22Z</time></trkpt><trkpt lat="48.182325921948085" lon="11.686252869811382"><ele>503.0</ele><time>2026-04-18T13:22:23Z</time></trkpt><trkpt lat="48.182405746788795" lon="11.686449378102145"><ele>503.0</ele><time>2026-04-18T13:22:24Z</time></trkpt><trkpt lat="48.18249328732507" lon="11.686632862411397"><ele>503.0</ele><time>2026-04-18T13:22:25Z</time></trkpt><trkpt lat="48.182578494958" lon="11.68680604140304"><ele>503.0</ele><time>2026-04-18T13:22:26Z</time></trkpt><trkpt lat="48.18266362151366" lon="11.686971289870522"><ele>503.0</ele><time>2026-04-18T13:22:27Z</time></trkpt><trkpt lat="48.182749735078346" lon="11.687131845935117"><ele>503.0</ele><time>2026-04-18T13:22:28Z</time></trkpt><trkpt lat="48.18283981450728" lon="11.687294052152788"><ele>503.0</ele><time>2026-04-18T13:22:29Z</time></trkpt><trkpt lat="48.182935438816024" lon="11.687467068038679"><ele>503.0</ele><time>2026-04-18T13:22:30Z</time></trkpt><trkpt lat="48.18303963696482" lon="11.687642816467482"><ele>503.0</ele><time>2026-04-18T13:22:31Z</time></trkpt><trkpt lat="48.18314667869014" lon="11.687809413541911"><ele>503.0</ele><time>2026-04-18T13:22:32Z</time></trkpt><trkpt lat="48.183259335141905" lon="11.687975237141258"><ele>503.0</ele><time>2026-04-18T13:22:33Z</time></trkpt><trkpt lat="48.183372324428866" lon="11.688137023725304"><ele>503.3333333333333</ele><time>2026-04-18T13:22:34Z</time></trkpt><trkpt lat="48.183489742702584" lon="11.688288974769886"><ele>503.66666666666663</ele><time>2026-04-18T13:22:35Z</time></trkpt><trkpt lat="48.18361509587227" lon="11.688429779319112"><ele>504.0</ele><time>2026-04-18T13:22:36Z</time></trkpt><trkpt lat="48.18373529887014" lon="11.68855947318604"><ele>503.75</ele><time>2026-04-18T13:22:37Z</time></trkpt><trkpt lat="48.1838548847773" lon="11.68868651395397"><ele>503.5</ele><time>2026-04-18T13:22:38Z</time></trkpt><trkpt lat="48.183971265887855" lon="11.688807271921359"><ele>503.25</ele><time>2026-04-18T13:22:39Z</time></trkpt><trkpt lat="48.18409115140418" lon="11.688926793668633"><ele>503.0</ele><time>2026-04-18T13:22:40Z</time></trkpt><trkpt lat="48.184222460925945" lon="11.689048269582019"><ele>503.0</ele><time>2026-04-18T13:22:41Z</time></trkpt><trkpt lat="48.184367490358454" lon="11.689174247297737"><ele>503.0</ele><time>2026-04-18T13:22:42Z</time></trkpt><trkpt lat="48.184527689471714" lon="11.689302753848075"><ele>503.0</ele><time>2026-04-18T13:22:43Z</time></trkpt><trkpt lat="48.18469704071433" lon="11.689430536405537"><ele>503.0</ele><time>2026-04-18T13:22:44Z</time></trkpt><trkpt lat="48.18486277745634" lon="11.689557958099298"><ele>503.0</ele><time>2026-04-18T13:22:45Z</time></trkpt><trkpt lat="48.18502956650036" lon="11.68967839875442"><ele>503.0</ele><time>2026-04-18T13:22:46Z</time></trkpt><trkpt lat="48.185195620090774" lon="11.689791475573685"><ele>503.0</ele><time>2026-04-18T13:22:47Z</time></trkpt><trkpt lat="48.185363134291585" lon="11.689900478240036"><ele>503.0</ele><time>2026-04-18T13:22:48Z</time></trkpt><trkpt lat="48.18553387424253" lon="11.69000351030486"><ele>503.0</ele><time>2026-04-18T13:22:49Z</time></trkpt><trkpt lat="48.18570978737102" lon="11.690109151054413"><ele>502.3333333333333</ele><time>2026-04-18T13:22:50Z</time></trkpt><trkpt lat="48.185885409881486" lon="11.690210428910271"><ele>501.66666666666663</ele><time>2026-04-18T13:22:51Z</time></trkpt><trkpt lat="48.18606422453411" lon="11.690313059959466"><ele>501.0</ele><time>2026-04-18T13:22:52Z</time></trkpt><trkpt lat="48.18624328357581" lon="11.690412093148057"><ele>501.0</ele><time>2026-04-18T13:22:53Z</time></trkpt><trkpt lat="48.1864189555727" lon="11.69050872481107"><ele>501.0</ele><time>2026-04-18T13:22:54Z</time></trkpt><trkpt lat="48.186594514092896" lon="11.690599894623267"><ele>501.0</ele><time>2026-04-18T13:22:55Z</time></trkpt><trkpt lat="48.18676724763973" lon="11.690691269828475"><ele>501.0</ele><time>2026-04-18T13:22:56Z</time></trkpt><trkpt lat="48.186938483912854" lon="11.690781800660798"><ele>501.0</ele><time>2026-04-18T13:22:57Z</time></trkpt><trkpt lat="48.18711660280992" lon="11.690877580827921"><ele>501.0</ele><time>2026-04-18T13:22:58Z</time></trkpt><trkpt lat="48.1872950380479" lon="11.690972787074898"><ele>501.0</ele><time>2026-04-18T13:22:59Z</time></trkpt><trkpt lat="48.18747130751966" lon="11.691064083293247"><ele>501.0</ele><time>2026-04-18T13:23:00Z</time></trkpt><trkpt lat="48.187641970417864" lon="11.691154089893299"><ele>501.0</ele><time>2026-04-18T13:23:01Z</time></trkpt><trkpt lat="48.187814949477904" lon="11.691244811149573"><ele>501.0</ele><time>2026-04-18T13:23:02Z</time></trkpt><trkpt lat="48.18798704252991" lon="11.69133646891355"><ele>501.0</ele><time>2026-04-18T13:23:03Z</time></trkpt><trkpt lat="48.18817070778673" lon="11.691430416742664"><ele>501.0</ele><time>2026-04-18T13:23:04Z</time></trkpt><trkpt lat="48.188348631531426" lon="11.691521400350227"><ele>501.0</ele><time>2026-04-18T13:23:05Z</time></trkpt><trkpt lat="48.188516360597674" lon="11.691607086738006"><ele>501.0</ele><time>2026-04-18T13:23:06Z</time></trkpt><trkpt lat="48.18868997595322" lon="11.691701986972912"><ele>501.0</ele><time>2026-04-18T13:23:07Z</time></trkpt><trkpt lat="48.18885243927144" lon="11.691784126417595"><ele>500.66666666666663</ele><time>2026-04-18T13:23:08Z</time></trkpt><trkpt lat="48.18902086455171" lon="11.69187248263566"><ele>500.3333333333333</ele><time>2026-04-18T13:23:09Z</time></trkpt><trkpt lat="48.189188994961185" lon="11.691961668141001"><ele>500.0</ele><time>2026-04-18T13:23:10Z</time></trkpt><trkpt lat="48.189359633536995" lon="11.6920519474155"><ele>500.0</ele><time>2026-04-18T13:23:11Z</time></trkpt><trkpt lat="48.189531581041265" lon="11.692141077920125"><ele>500.0</ele><time>2026-04-18T13:23:12Z</time></trkpt><trkpt lat="48.189703269553455" lon="11.692227679086564"><ele>500.0</ele><time>2026-04-18T13:23:13Z</time></trkpt><trkpt lat="48.1898764885494" lon="11.692319608156069"><ele>500.0</ele><time>2026-04-18T13:23:14Z</time></trkpt><trkpt lat="48.19004577202715" lon="11.692409259849653"><ele>500.0</ele><time>2026-04-18T13:23:15Z</time></trkpt><trkpt lat="48.190215449895874" lon="11.692500194097924"><ele>500.0</ele><time>2026-04-18T13:23:16Z</time></trkpt><trkpt lat="48.190389186803124" lon="11.692590623159287"><ele>500.0</ele><time>2026-04-18T13:23:17Z</time></trkpt><trkpt lat="48.19056877486039" lon="11.692684304962983"><ele>500.0</ele><time>2026-04-18T13:23:18Z</time></trkpt><trkpt lat="48.190748385191256" lon="11.692779710206729"><ele>500.0</ele><time>2026-04-18T13:23:19Z</time></trkpt><trkpt lat="48.19092535541663" lon="11.692872371434303"><ele>499.66666666666663</ele><time>2026-04-18T13:23:20Z</time></trkpt><trkpt lat="48.19109894985478" lon="11.692963909230482"><ele>499.33333333333337</ele><time>2026-04-18T13:23:21Z</time></trkpt><trkpt lat="48.19127360564531" lon="11.69305465490168"><ele>499.0</ele><time>2026-04-18T13:23:22Z</time></trkpt><trkpt lat="48.19144653916134" lon="11.69314424685119"><ele>499.6666666666667</ele><time>2026-04-18T13:23:23Z</time></trkpt><trkpt lat="48.19162232440051" lon="11.693235709026329"><ele>500.33333333333337</ele><time>2026-04-18T13:23:24Z</time></trkpt><trkpt lat="48.19180227119972" lon="11.693332065762048"><ele>501.0</ele><time>2026-04-18T13:23:25Z</time></trkpt><trkpt lat="48.19198873134322" lon="11.69342989336306"><ele>501.0</ele><time>2026-04-18T13:23:26Z</time></trkpt><trkpt lat="48.19217284595876" lon="11.693528838047285"><ele>501.0</ele><time>2026-04-18T13:23:27Z</time></trkpt><trkpt lat="48.19235059181479" lon="11.693621129246495"><ele>501.0</ele><time>2026-04-18T13:23:28Z</time></trkpt><trkpt lat="48.19252006289856" lon="11.693709881838478"><ele>501.0</ele><time>2026-04-18T13:23:29Z</time></trkpt><trkpt lat="48.192684156556545" lon="11.693796736180708"><ele>501.0</ele><time>2026-04-18T13:23:30Z</time></trkpt><trkpt lat="48.19284511536527" lon="11.693882159772025"><ele>501.0</ele><time>2026-04-18T13:23:31Z</time></trkpt><trkpt lat="48.193005142596895" lon="11.693965937501918"><ele>501.0</ele><time>2026-04-18T13:23:32Z</time></trkpt><trkpt lat="48.19316921230997" lon="11.694054179048598"><ele>501.0</ele><time>2026-04-18T13:23:33Z</time></trkpt><trkpt lat="48.19333320629044" lon="11.694141315828125"><ele>501.0</ele><time>2026-04-18T13:23:34Z</time></trkpt><trkpt lat="48.19350540661873" lon="11.694230138875934"><ele>501.0</ele><time>2026-04-18T13:23:35Z</time></trkpt><trkpt lat="48.193680824860046" lon="11.694325861455177"><ele>501.0</ele><time>2026-04-18T13:23:36Z</time></trkpt><trkpt lat="48.19385606345688" lon="11.694426594498713"><ele>501.0</ele><time>2026-04-18T13:23:37Z</time></trkpt><trkpt lat="48.19402988166757" lon="11.694535138770982"><ele>500.0</ele><time>2026-04-18T13:23:38Z</time></trkpt><trkpt lat="48.194199617675814" lon="11.694647125868954"><ele>499.0</ele><time>2026-04-18T13:23:39Z</time></trkpt><trkpt lat="48.19436551087471" lon="11.694765380966846"><ele>498.0</ele><time>2026-04-18T13:23:40Z</time></trkpt><trkpt lat="48.1945273335213" lon="11.694892691843291"><ele>498.0</ele><time>2026-04-18T13:23:41Z</time></trkpt><trkpt lat="48.19468559145521" lon="11.69503115480414"><ele>498.0</ele><time>2026-04-18T13:23:42Z</time></trkpt><trkpt lat="48.19484291484914" lon="11.695181941311162"><ele>498.0</ele><time>2026-04-18T13:23:43Z</time></trkpt><trkpt lat="48.19499558549717" lon="11.695345874812633"><ele>498.33333333333337</ele><time>2026-04-18T13:23:44Z</time></trkpt><trkpt lat="48.19514686204029" lon="11.6955241785023"><ele>498.6666666666667</ele><time>2026-04-18T13:23:45Z</time></trkpt><trkpt lat="48.19529480443477" lon="11.695708832297637"><ele>499.0</ele><time>2026-04-18T13:23:46Z</time></trkpt><trkpt lat="48.19543916047504" lon="11.695899895343276"><ele>498.6666666666667</ele><time>2026-04-18T13:23:47Z</time></trkpt><trkpt lat="48.19557513204538" lon="11.696100302081163"><ele>498.33333333333337</ele><time>2026-04-18T13:23:48Z</time></trkpt><trkpt lat="48.19570046648532" lon="11.69630391111988"><ele>498.0</ele><time>2026-04-18T13:23:49Z</time></trkpt><trkpt lat="48.19581767116278" lon="11.696509808807777"><ele>498.0</ele><time>2026-04-18T13:23:50Z</time></trkpt><trkpt lat="48.19592568066167" lon="11.696714646691941"><ele>498.0</ele><time>2026-04-18T13:23:51Z</time></trkpt><trkpt lat="48.19602847762229" lon="11.696922727472513"><ele>498.0</ele><time>2026-04-18T13:23:52Z</time></trkpt><trkpt lat="48.19612490904095" lon="11.697138266365279"><ele>498.0</ele><time>2026-04-18T13:23:53Z</time></trkpt><trkpt lat="48.196212577617295" lon="11.697358122976034"><ele>498.0</ele><time>2026-04-18T13:23:54Z</time></trkpt><trkpt lat="48.196291658571546" lon="11.697585379093018"><ele>498.0</ele><time>2026-04-18T13:23:55Z</time></trkpt><trkpt lat="48.196357919390174" lon="11.697816500035398"><ele>498.0</ele><time>2026-04-18T13:23:56Z</time></trkpt><trkpt lat="48.19642017523223" lon="11.698051437266995"><ele>498.0</ele><time>2026-04-18T13:23:57Z</time></trkpt><trkpt lat="48.196483414925595" lon="11.69828513172136"><ele>498.0</ele><time>2026-04-18T13:23:58Z</time></trkpt><trkpt lat="48.19654511507532" lon="11.698518226814672"><ele>498.0</ele><time>2026-04-18T13:23:59Z</time></trkpt><trkpt lat="48.196601796348745" lon="11.698748551642593"><ele>498.0</ele><time>2026-04-18T13:24:00Z</time></trkpt><trkpt lat="48.196648104990096" lon="11.698957268950036"><ele>498.0</ele><time>2026-04-18T13:24:01Z</time></trkpt><trkpt lat="48.19668972613436" lon="11.699147875535568"><ele>498.0</ele><time>2026-04-18T13:24:02Z</time></trkpt><trkpt lat="48.19672982905899" lon="11.699328590776215"><ele>498.0</ele><time>2026-04-18T13:24:03Z</time></trkpt><trkpt lat="48.196769681010906" lon="11.699506063087696"><ele>498.0</ele><time>2026-04-18T13:24:04Z</time></trkpt><trkpt lat="48.196811294490864" lon="11.69968228062626"><ele>498.0</ele><time>2026-04-18T13:24:05Z</time></trkpt><trkpt lat="48.1968477754536" lon="11.699849751375217"><ele>498.0</ele><time>2026-04-18T13:24:06Z</time></trkpt><trkpt lat="48.196878273185014" lon="11.700011061104806"><ele>498.0</ele><time>2026-04-18T13:24:07Z</time></trkpt><trkpt lat="48.19690243535856" lon="11.700169681181539"><ele>498.0</ele><time>2026-04-18T13:24:08Z</time></trkpt><trkpt lat="48.19691330229657" lon="11.700348952785527"><ele>498.0</ele><time>2026-04-18T13:24:09Z</time></trkpt><trkpt lat="48.19690051569704" lon="11.70054837195948"><ele>498.0</ele><time>2026-04-18T13:24:10Z</time></trkpt><trkpt lat="48.19687936859592" lon="11.700744381652225"><ele>498.0</ele><time>2026-04-18T13:24:11Z</time></trkpt><trkpt lat="48.196862004178286" lon="11.700923982054336"><ele>498.0</ele><time>2026-04-18T13:24:12Z</time></trkpt><trkpt lat="48.196853921690796" lon="11.70109731806083"><ele>498.0</ele><time>2026-04-18T13:24:13Z</time></trkpt><trkpt lat="48.19686862845211" lon="11.701263542083142"><ele>498.0</ele><time>2026-04-18T13:24:14Z</time></trkpt><trkpt lat="48.196898232178285" lon="11.701421959909858"><ele>498.0</ele><time>2026-04-18T13:24:15Z</time></trkpt><trkpt lat="48.196942180408925" lon="11.70157400625905"><ele>498.0</ele><time>2026-04-18T13:24:16Z</time></trkpt><trkpt lat="48.19700385981314" lon="11.701716664773544"><ele>498.0</ele><time>2026-04-18T13:24:17Z</time></trkpt><trkpt lat="48.197080297367464" lon="11.701844759701894"><ele>498.0</ele><time>2026-04-18T13:24:18Z</time></trkpt><trkpt lat="48.197170511240216" lon="11.70195410833209"><ele>498.0</ele><time>2026-04-18T13:24:19Z</time></trkpt><trkpt lat="48.197277741426554" lon="11.702007338074784"><ele>497.99999999999994</ele><time>2026-04-18T13:24:20Z</time></trkpt><trkpt lat="48.197370251981994" lon="11.702084485115547"><ele>497.99999999999994</ele><time>2026-04-18T13:24:21Z</time></trkpt><trkpt lat="48.19745980942785" lon="11.702108238160886"><ele>498.0</ele><time>2026-04-18T13:24:22Z</time></trkpt><trkpt lat="48.19752433772813" lon="11.702112504746653"><ele>498.0</ele><time>2026-04-18T13:24:23Z</time></trkpt><trkpt lat="48.197618889278736" lon="11.702111341426374"><ele>498.2</ele><time>2026-04-18T13:24:25Z</time></trkpt><trkpt lat="48.19769728909111" lon="11.702126217735342"><ele>498.4</ele><time>2026-04-18T13:24:28Z</time></trkpt><trkpt lat="48.19778020006979" lon="11.702204946195938"><ele>498.59999999999997</ele><time>2026-04-18T13:24:30Z</time></trkpt><trkpt lat="48.19783219450161" lon="11.702273392611534"><ele>498.79999999999995</ele><time>2026-04-18T13:24:31Z</time></trkpt><trkpt lat="48.19782664725433" lon="11.702403796850815"><ele>499.0</ele><time>2026-04-18T13:24:32Z</time></trkpt><trkpt lat="48.19789225335002" lon="11.702570289036098"><ele>499.00000000000006</ele><time>2026-04-18T13:24:34Z</time></trkpt><trkpt lat="48.197951061274246" lon="11.702645063378089"><ele>499.0</ele><time>2026-04-18T13:24:35Z</time></trkpt><trkpt lat="48.19802072217264" lon="11.70269907634912"><ele>499.0</ele><time>2026-04-18T13:24:36Z</time></trkpt><trkpt lat="48.19810074823597" lon="11.702734846909209"><ele>499.0</ele><time>2026-04-18T13:24:37Z</time></trkpt><trkpt lat="48.19818777296119" lon="11.702746102858661"><ele>499.00000000000006</ele><time>2026-04-18T13:24:38Z</time></trkpt><trkpt lat="48.19827590016592" lon="11.702722085784224"><ele>499.0</ele><time>2026-04-18T13:24:39Z</time></trkpt><trkpt lat="48.1983566148956" lon="11.702667902642675"><ele>499.0</ele><time>2026-04-18T13:24:40Z</time></trkpt><trkpt lat="48.19842876673305" lon="11.702591097289059"><ele>499.0</ele><time>2026-04-18T13:24:41Z</time></trkpt><trkpt lat="48.198485049600585" lon="11.702484316216074"><ele>499.0</ele><time>2026-04-18T13:24:42Z</time></trkpt><trkpt lat="48.198523054573286" lon="11.702356576661694"><ele>499.0</ele><time>2026-04-18T13:24:43Z</time></trkpt><trkpt lat="48.19853822780262" lon="11.702221101088066"><ele>499.0</ele><time>2026-04-18T13:24:44Z</time></trkpt><trkpt lat="48.19853155900498" lon="11.702080934554507"><ele>499.0</ele><time>2026-04-18T13:24:45Z</time></trkpt><trkpt lat="48.19849403662043" lon="11.701946622220952"><ele>499.0</ele><time>2026-04-18T13:24:46Z</time></trkpt><trkpt lat="48.19843729635592" lon="11.701828647299687"><ele>499.0</ele><time>2026-04-18T13:24:47Z</time></trkpt><trkpt lat="48.19836326672262" lon="11.701732213192026"><ele>499.0</ele><time>2026-04-18T13:24:48Z</time></trkpt><trkpt lat="48.19827304506316" lon="11.7016721177515"><ele>499.0</ele><time>2026-04-18T13:24:49Z</time></trkpt><trkpt lat="48.19817719355574" lon="11.701648910134313"><ele>499.0</ele><time>2026-04-18T13:24:50Z</time></trkpt><trkpt lat="48.19808072874651" lon="11.701666205783663"><ele>499.0</ele><time>2026-04-18T13:24:51Z</time></trkpt><trkpt lat="48.19799109846547" lon="11.701721654359558"><ele>499.0</ele><time>2026-04-18T13:24:52Z</time></trkpt><trkpt lat="48.19792023975034" lon="11.701808302880611"><ele>499.0</ele><time>2026-04-18T13:24:53Z</time></trkpt><trkpt lat="48.19786989904456" lon="11.701911770846275"><ele>499.0</ele><time>2026-04-18T13:24:54Z</time></trkpt><trkpt lat="48.19783949762097" lon="11.702027695980675"><ele>499.00000000000006</ele><time>2026-04-18T13:24:55Z</time></trkpt><trkpt lat="48.19782204276177" lon="11.702145336510995"><ele>499.0</ele><time>2026-04-18T13:24:56Z</time></trkpt><trkpt lat="48.19782698491409" lon="11.702262518836452"><ele>499.00000000000006</ele><time>2026-04-18T13:24:57Z</time></trkpt><trkpt lat="48.19784098219064" lon="11.702362231609781"><ele>499.00000000000006</ele><time>2026-04-18T13:24:58Z</time></trkpt><trkpt lat="48.19784701201836" lon="11.70246283421982"><ele>499.0</ele><time>2026-04-18T13:24:59Z</time></trkpt><trkpt lat="48.197817472300635" lon="11.702558982025701"><ele>499.00000000000006</ele><time>2026-04-18T13:25:00Z</time></trkpt><trkpt lat="48.19776372148219" lon="11.702635903202392"><ele>499.00000000000006</ele><time>2026-04-18T13:25:01Z</time></trkpt><trkpt lat="48.19770421917936" lon="11.702728093502214"><ele>498.79999999999995</ele><time>2026-04-18T13:25:02Z</time></trkpt><trkpt lat="48.19758747435307" lon="11.70278768383682"><ele>498.59999999999997</ele><time>2026-04-18T13:25:03Z</time></trkpt><trkpt lat="48.197500194425245" lon="11.702846010374474"><ele>498.4</ele><time>2026-04-18T13:25:04Z</time></trkpt><trkpt lat="48.19740708331212" lon="11.702880894263322"><ele>498.2</ele><time>2026-04-18T13:25:05Z</time></trkpt><trkpt lat="48.19730018332598" lon="11.702903440056504"><ele>498.0</ele><time>2026-04-18T13:25:06Z</time></trkpt><trkpt lat="48.19717605315111" lon="11.702904766276319"><ele>498.0</ele><time>2026-04-18T13:25:07Z</time></trkpt><trkpt lat="48.19703179813049" lon="11.702881997558473"><ele>498.0</ele><time>2026-04-18T13:25:08Z</time></trkpt><trkpt lat="48.19688607513939" lon="11.702825585389059"><ele>498.0</ele><time>2026-04-18T13:25:09Z</time></trkpt><trkpt lat="48.196754579579924" lon="11.702742777443902"><ele>498.0</ele><time>2026-04-18T13:25:10Z</time></trkpt><trkpt lat="48.19662940362806" lon="11.702643791512118"><ele>498.0</ele><time>2026-04-18T13:25:11Z</time></trkpt><trkpt lat="48.196507214140254" lon="11.702536523808705"><ele>498.0</ele><time>2026-04-18T13:25:12Z</time></trkpt><trkpt lat="48.19637709913715" lon="11.702430384771477"><ele>498.0</ele><time>2026-04-18T13:25:13Z</time></trkpt><trkpt lat="48.196240599031164" lon="11.702333950688262"><ele>498.0</ele><time>2026-04-18T13:25:14Z</time></trkpt><trkpt lat="48.19609853349154" lon="11.702244610110712"><ele>498.33333333333337</ele><time>2026-04-18T13:25:15Z</time></trkpt><trkpt lat="48.195940983299934" lon="11.702157135716243"><ele>498.6666666666667</ele><time>2026-04-18T13:25:16Z</time></trkpt><trkpt lat="48.1957894648493" lon="11.702088690554445"><ele>499.0</ele><time>2026-04-18T13:25:17Z</time></trkpt><trkpt lat="48.195639536110725" lon="11.702031896298392"><ele>499.6666666666667</ele><time>2026-04-18T13:25:18Z</time></trkpt><trkpt lat="48.19548445354483" lon="11.701987615343342"><ele>500.33333333333337</ele><time>2026-04-18T13:25:19Z</time></trkpt><trkpt lat="48.195318488452095" lon="11.701954757166757"><ele>501.0</ele><time>2026-04-18T13:25:20Z</time></trkpt><trkpt lat="48.19515455706771" lon="11.701937753782268"><ele>501.0</ele><time>2026-04-18T13:25:21Z</time></trkpt><trkpt lat="48.19499005810725" lon="11.701930683488749"><ele>501.0</ele><time>2026-04-18T13:25:22Z</time></trkpt><trkpt lat="48.19482404107511" lon="11.701929219677696"><ele>501.0</ele><time>2026-04-18T13:25:23Z</time></trkpt><trkpt lat="48.19465673175598" lon="11.70194332678628"><ele>501.0</ele><time>2026-04-18T13:25:24Z</time></trkpt><trkpt lat="48.19448984321069" lon="11.70196662394497"><ele>501.0</ele><time>2026-04-18T13:25:25Z</time></trkpt><trkpt lat="48.19432223072677" lon="11.701992361483073"><ele>501.0</ele><time>2026-04-18T13:25:26Z</time></trkpt><trkpt lat="48.19415689943084" lon="11.702021547367593"><ele>502.0</ele><time>2026-04-18T13:25:27Z</time></trkpt><trkpt lat="48.19399284390453" lon="11.70205651393022"><ele>503.0</ele><time>2026-04-18T13:25:28Z</time></trkpt><trkpt lat="48.19383078357083" lon="11.70209688242934"><ele>504.0</ele><time>2026-04-18T13:25:29Z</time></trkpt><trkpt lat="48.193659665245114" lon="11.702151476419827"><ele>504.0</ele><time>2026-04-18T13:25:30Z</time></trkpt><trkpt lat="48.193481067736975" lon="11.702215339273812"><ele>504.0</ele><time>2026-04-18T13:25:31Z</time></trkpt><trkpt lat="48.19330510287696" lon="11.702282592609086"><ele>504.0</ele><time>2026-04-18T13:25:32Z</time></trkpt><trkpt lat="48.19313437620487" lon="11.70235588132365"><ele>504.33333333333337</ele><time>2026-04-18T13:25:33Z</time></trkpt><trkpt lat="48.19296971605118" lon="11.702436644320384"><ele>504.6666666666667</ele><time>2026-04-18T13:25:34Z</time></trkpt><trkpt lat="48.19280920504004" lon="11.702519486559307"><ele>505.0</ele><time>2026-04-18T13:25:35Z</time></trkpt><trkpt lat="48.192635460783634" lon="11.702611607203995"><ele>505.0</ele><time>2026-04-18T13:25:36Z</time></trkpt><trkpt lat="48.19245928936965" lon="11.702716425169108"><ele>505.0</ele><time>2026-04-18T13:25:37Z</time></trkpt><trkpt lat="48.19229392597738" lon="11.702827654910724"><ele>505.0</ele><time>2026-04-18T13:25:38Z</time></trkpt><trkpt lat="48.19214241439319" lon="11.702937669403342"><ele>505.0</ele><time>2026-04-18T13:25:39Z</time></trkpt><trkpt lat="48.191983519931284" lon="11.70301883677797"><ele>505.0</ele><time>2026-04-18T13:25:40Z</time></trkpt><trkpt lat="48.19179368214163" lon="11.703135288244441"><ele>505.0</ele><time>2026-04-18T13:25:41Z</time></trkpt><trkpt lat="48.19162168231069" lon="11.703248481447385"><ele>505.0</ele><time>2026-04-18T13:25:42Z</time></trkpt><trkpt lat="48.19144458945253" lon="11.703365395099215"><ele>505.0</ele><time>2026-04-18T13:25:43Z</time></trkpt><trkpt lat="48.19126925988925" lon="11.70348546435578"><ele>505.0</ele><time>2026-04-18T13:25:44Z</time></trkpt><trkpt lat="48.191098357954495" lon="11.703604831520346"><ele>505.0</ele><time>2026-04-18T13:25:45Z</time></trkpt><trkpt lat="48.19093177863072" lon="11.703719745726778"><ele>505.0</ele><time>2026-04-18T13:25:46Z</time></trkpt><trkpt lat="48.19077170341934" lon="11.703836274049566"><ele>505.0</ele><time>2026-04-18T13:25:47Z</time></trkpt><trkpt lat="48.190612728781076" lon="11.703948451187912"><ele>505.33333333333337</ele><time>2026-04-18T13:25:48Z</time></trkpt><trkpt lat="48.1904570707475" lon="11.704055061906548"><ele>505.66666666666663</ele><time>2026-04-18T13:25:49Z</time></trkpt><trkpt lat="48.19030587773253" lon="11.704161179880263"><ele>506.0</ele><time>2026-04-18T13:25:50Z</time></trkpt><trkpt lat="48.19015744174318" lon="11.704267890662534"><ele>506.0</ele><time>2026-04-18T13:25:51Z</time></trkpt><trkpt lat="48.19000849786573" lon="11.704355972566281"><ele>506.0</ele><time>2026-04-18T13:25:52Z</time></trkpt><trkpt lat="48.18988145275384" lon="11.70441848458365"><ele>506.0</ele><time>2026-04-18T13:25:53Z</time></trkpt><trkpt lat="48.18977593893888" lon="11.704498741065322"><ele>506.0</ele><time>2026-04-18T13:25:54Z</time></trkpt><trkpt lat="48.18966292087168" lon="11.704595033061398"><ele>505.75</ele><time>2026-04-18T13:25:55Z</time></trkpt><trkpt lat="48.18955315647692" lon="11.704695596713684"><ele>505.5</ele><time>2026-04-18T13:25:56Z</time></trkpt><trkpt lat="48.189447720747246" lon="11.70480083632922"><ele>505.25</ele><time>2026-04-18T13:25:57Z</time></trkpt><trkpt lat="48.189337376589954" lon="11.704914110811321"><ele>505.0</ele><time>2026-04-18T13:25:58Z</time></trkpt><trkpt lat="48.18922744233324" lon="11.705023496579166"><ele>505.0</ele><time>2026-04-18T13:25:59Z</time></trkpt><trkpt lat="48.18913217495936" lon="11.705135371415384"><ele>505.0</ele><time>2026-04-18T13:26:00Z</time></trkpt><trkpt lat="48.1890465076469" lon="11.705245426735775"><ele>505.0</ele><time>2026-04-18T13:26:01Z</time></trkpt><trkpt lat="48.18897185655187" lon="11.705326841926944"><ele>505.0</ele><time>2026-04-18T13:26:02Z</time></trkpt><trkpt lat="48.188891467763725" lon="11.705405099386365"><ele>505.0</ele><time>2026-04-18T13:26:03Z</time></trkpt><trkpt lat="48.1888020673992" lon="11.705472614006851"><ele>505.0</ele><time>2026-04-18T13:26:04Z</time></trkpt><trkpt lat="48.18869812472115" lon="11.705519362899972"><ele>505.0</ele><time>2026-04-18T13:26:05Z</time></trkpt><trkpt lat="48.18859030076514" lon="11.705558856301893"><ele>505.0</ele><time>2026-04-18T13:26:06Z</time></trkpt><trkpt lat="48.18848676784073" lon="11.705593823558221"><ele>505.0</ele><time>2026-04-18T13:26:07Z</time></trkpt><trkpt lat="48.18838257616285" lon="11.705625933174579"><ele>505.0</ele><time>2026-04-18T13:26:08Z</time></trkpt><trkpt lat="48.18828073831401" lon="11.705683355015026"><ele>505.0</ele><time>2026-04-18T13:26:09Z</time></trkpt><trkpt lat="48.18817952773759" lon="11.705790463443979"><ele>505.0</ele><time>2026-04-18T13:26:10Z</time></trkpt><trkpt lat="48.188088899914675" lon="11.705927961047866"><ele>505.0</ele><time>2026-04-18T13:26:11Z</time></trkpt><trkpt lat="48.188016730364076" lon="11.706075930006776"><ele>505.0</ele><time>2026-04-18T13:26:12Z</time></trkpt><trkpt lat="48.187967230585876" lon="11.706219950408837"><ele>504.6666666666667</ele><time>2026-04-18T13:26:13Z</time></trkpt><trkpt lat="48.18794207557197" lon="11.706352777917155"><ele>504.33333333333337</ele><time>2026-04-18T13:26:14Z</time></trkpt><trkpt lat="48.18793428796018" lon="11.706472858727325"><ele>504.0</ele><time>2026-04-18T13:26:15Z</time></trkpt><trkpt lat="48.187937370796384" lon="11.706592963706399"><ele>503.66666666666663</ele><time>2026-04-18T13:26:16Z</time></trkpt><trkpt lat="48.18793953629862" lon="11.706695927491824"><ele>503.3333333333333</ele><time>2026-04-18T13:26:17Z</time></trkpt><trkpt lat="48.18793991673802" lon="11.706858787152466"><ele>503.0</ele><time>2026-04-18T13:26:19Z</time></trkpt><trkpt lat="48.18792996098484" lon="11.707014062423344"><ele>502.79999999999995</ele><time>2026-04-18T13:26:21Z</time></trkpt><trkpt lat="48.18789003380213" lon="11.707095125922516"><ele>502.59999999999997</ele><time>2026-04-18T13:26:22Z</time></trkpt><trkpt lat="48.1878200701663" lon="11.707145155716843"><ele>502.40000000000003</ele><time>2026-04-18T13:26:23Z</time></trkpt><trkpt lat="48.18773497475546" lon="11.707160918684034"><ele>502.20000000000005</ele><time>2026-04-18T13:26:24Z</time></trkpt><trkpt lat="48.18762220569277" lon="11.707158251847671"><ele>502.0</ele><time>2026-04-18T13:26:25Z</time></trkpt><trkpt lat="48.18748733690692" lon="11.707130218410578"><ele>502.0</ele><time>2026-04-18T13:26:26Z</time></trkpt><trkpt lat="48.187366380826724" lon="11.707081261850213"><ele>502.0</ele><time>2026-04-18T13:26:27Z</time></trkpt><trkpt lat="48.18724721192582" lon="11.70701409828722"><ele>502.0</ele><time>2026-04-18T13:26:28Z</time></trkpt><trkpt lat="48.18710483958217" lon="11.70695240338547"><ele>502.0</ele><time>2026-04-18T13:26:29Z</time></trkpt><trkpt lat="48.18696144878962" lon="11.706923936764682"><ele>502.5</ele><time>2026-04-18T13:26:30Z</time></trkpt><trkpt lat="48.186831933756054" lon="11.706914677166603"><ele>503.0</ele><time>2026-04-18T13:26:31Z</time></trkpt><trkpt lat="48.1866947657257" lon="11.706917171833549"><ele>503.5</ele><time>2026-04-18T13:26:32Z</time></trkpt><trkpt lat="48.18652920986993" lon="11.706942624804121"><ele>504.0</ele><time>2026-04-18T13:26:33Z</time></trkpt><trkpt lat="48.18637344601654" lon="11.706988217746964"><ele>504.5</ele><time>2026-04-18T13:26:34Z</time></trkpt><trkpt lat="48.1862323245315" lon="11.707050695122442"><ele>505.0</ele><time>2026-04-18T13:26:35Z</time></trkpt><trkpt lat="48.18609620595548" lon="11.70713387487579"><ele>505.5</ele><time>2026-04-18T13:26:36Z</time></trkpt><trkpt lat="48.18595703338261" lon="11.707236876462618"><ele>506.0</ele><time>2026-04-18T13:26:37Z</time></trkpt><trkpt lat="48.18580391400857" lon="11.707347392360088"><ele>505.66666666666663</ele><time>2026-04-18T13:26:38Z</time></trkpt><trkpt lat="48.18564397334863" lon="11.70745558895843"><ele>505.33333333333337</ele><time>2026-04-18T13:26:39Z</time></trkpt><trkpt lat="48.18549175949392" lon="11.707560246933914"><ele>505.0</ele><time>2026-04-18T13:26:40Z</time></trkpt><trkpt lat="48.185344726088786" lon="11.707661852292123"><ele>504.33333333333337</ele><time>2026-04-18T13:26:41Z</time></trkpt><trkpt lat="48.185201294344395" lon="11.707760466861274"><ele>503.66666666666663</ele><time>2026-04-18T13:26:42Z</time></trkpt><trkpt lat="48.18505810643006" lon="11.707861323774804"><ele>503.0</ele><time>2026-04-18T13:26:43Z</time></trkpt><trkpt lat="48.18490605926298" lon="11.707960687881654"><ele>503.3333333333333</ele><time>2026-04-18T13:26:44Z</time></trkpt><trkpt lat="48.18474295897478" lon="11.708067475396795"><ele>503.66666666666663</ele><time>2026-04-18T13:26:45Z</time></trkpt><trkpt lat="48.18457978632876" lon="11.708171609062727"><ele>504.0</ele><time>2026-04-18T13:26:46Z</time></trkpt><trkpt lat="48.184423656252115" lon="11.708264412478162"><ele>504.0</ele><time>2026-04-18T13:26:47Z</time></trkpt><trkpt lat="48.18427310887091" lon="11.70834662046141"><ele>504.0</ele><time>2026-04-18T13:26:48Z</time></trkpt><trkpt lat="48.184126720625734" lon="11.70842124115836"><ele>504.0</ele><time>2026-04-18T13:26:49Z</time></trkpt><trkpt lat="48.18397574041869" lon="11.708489996513789"><ele>504.0</ele><time>2026-04-18T13:26:50Z</time></trkpt><trkpt lat="48.1838171513442" lon="11.708557557150401"><ele>504.0</ele><time>2026-04-18T13:26:51Z</time></trkpt><trkpt lat="48.183652521686426" lon="11.70863094249728"><ele>504.0</ele><time>2026-04-18T13:26:52Z</time></trkpt><trkpt lat="48.183488236836986" lon="11.708702229723277"><ele>504.0</ele><time>2026-04-18T13:26:53Z</time></trkpt><trkpt lat="48.183329709735695" lon="11.708772314181868"><ele>504.0</ele><time>2026-04-18T13:26:54Z</time></trkpt><trkpt lat="48.18317406972579" lon="11.708840485440748"><ele>504.0</ele><time>2026-04-18T13:26:55Z</time></trkpt><trkpt lat="48.18300761276364" lon="11.708908697875092"><ele>504.0</ele><time>2026-04-18T13:26:56Z</time></trkpt><trkpt lat="48.18285090679177" lon="11.708972188104969"><ele>504.0</ele><time>2026-04-18T13:26:57Z</time></trkpt><trkpt lat="48.18269519534713" lon="11.709032710333654"><ele>504.0</ele><time>2026-04-18T13:26:58Z</time></trkpt><trkpt lat="48.18254250304359" lon="11.709098715592749"><ele>504.0</ele><time>2026-04-18T13:26:59Z</time></trkpt><trkpt lat="48.182400972702816" lon="11.709165732757445"><ele>504.0</ele><time>2026-04-18T13:27:00Z</time></trkpt><trkpt lat="48.18226971998799" lon="11.709228013191032"><ele>504.0</ele><time>2026-04-18T13:27:01Z</time></trkpt><trkpt lat="48.1821393960539" lon="11.709287696593407"><ele>504.0</ele><time>2026-04-18T13:27:02Z</time></trkpt><trkpt lat="48.18201334401692" lon="11.709347326679577"><ele>504.0</ele><time>2026-04-18T13:27:02.999Z</time></trkpt><trkpt lat="48.18189985519074" lon="11.709400079495552"><ele>504.0</ele><time>2026-04-18T13:27:03.999Z</time></trkpt><trkpt lat="48.18179992257726" lon="11.709446832939493"><ele>504.0</ele><time>2026-04-18T13:27:04.999Z</time></trkpt><trkpt lat="48.181711966732536" lon="11.709487722945953"><ele>504.0</ele><time>2026-04-18T13:27:05.999Z</time></trkpt><trkpt lat="48.18163854487768" lon="11.709518847417062"><ele>504.0</ele><time>2026-04-18T13:27:06.999Z</time></trkpt><trkpt lat="48.18157142450062" lon="11.709553482698853"><ele>504.0</ele><time>2026-04-18T13:27:08Z</time></trkpt><trkpt lat="48.18147099496528" lon="11.709605581549846"><ele>504.0</ele><time>2026-04-18T13:27:10Z</time></trkpt><trkpt lat="48.18139274710501" lon="11.709643991885672"><ele>504.0</ele><time>2026-04-18T13:27:12Z</time></trkpt><trkpt lat="48.181298550893814" lon="11.709601641156993"><ele>504.0</ele><time>2026-04-18T13:27:14Z</time></trkpt><trkpt lat="48.18119167189306" lon="11.709566483854074"><ele>504.0</ele><time>2026-04-18T13:27:16Z</time></trkpt><trkpt lat="48.18112659616331" lon="11.709677505914739"><ele>504.0</ele><time>2026-04-18T13:27:18Z</time></trkpt><trkpt lat="48.181031507046875" lon="11.709805424023717"><ele>504.0</ele><time>2026-04-18T13:27:20Z</time></trkpt><trkpt lat="48.18094439075109" lon="11.709864201623468"><ele>504.0</ele><time>2026-04-18T13:27:21Z</time></trkpt><trkpt lat="48.180850392898954" lon="11.70992110614846"><ele>504.0</ele><time>2026-04-18T13:27:22Z</time></trkpt><trkpt lat="48.18076302879617" lon="11.709973794934687"><ele>504.0</ele><time>2026-04-18T13:27:23Z</time></trkpt><trkpt lat="48.180664629632865" lon="11.71003448466702"><ele>504.5</ele><time>2026-04-18T13:27:24Z</time></trkpt><trkpt lat="48.18054051076973" lon="11.710115398157214"><ele>505.0</ele><time>2026-04-18T13:27:25Z</time></trkpt><trkpt lat="48.18043584979409" lon="11.710172409102592"><ele>505.5</ele><time>2026-04-18T13:27:26Z</time></trkpt><trkpt lat="48.180336839485086" lon="11.71022587109922"><ele>506.0</ele><time>2026-04-18T13:27:27Z</time></trkpt><trkpt lat="48.180238209893396" lon="11.710276732669769"><ele>506.0</ele><time>2026-04-18T13:27:28Z</time></trkpt><trkpt lat="48.18012956959195" lon="11.710331992393705"><ele>506.0</ele><time>2026-04-18T13:27:29Z</time></trkpt><trkpt lat="48.180018575597146" lon="11.71039188838449"><ele>506.0</ele><time>2026-04-18T13:27:30Z</time></trkpt><trkpt lat="48.179914711051374" lon="11.710453284905071"><ele>506.0</ele><time>2026-04-18T13:27:31Z</time></trkpt><trkpt lat="48.17980681305109" lon="11.710516667239686"><ele>506.5</ele><time>2026-04-18T13:27:32Z</time></trkpt><trkpt lat="48.179694456611756" lon="11.710580734050463"><ele>507.0</ele><time>2026-04-18T13:27:33Z</time></trkpt><trkpt lat="48.1795858014311" lon="11.710652925355397"><ele>507.5</ele><time>2026-04-18T13:27:34Z</time></trkpt><trkpt lat="48.17948486716206" lon="11.710723015300974"><ele>508.0</ele><time>2026-04-18T13:27:35Z</time></trkpt><trkpt lat="48.17938418962682" lon="11.710789712383066"><ele>508.0</ele><time>2026-04-18T13:27:36Z</time></trkpt><trkpt lat="48.17928213149488" lon="11.71085891399806"><ele>508.0</ele><time>2026-04-18T13:27:37Z</time></trkpt><trkpt lat="48.179179335226564" lon="11.710930730305702"><ele>508.0</ele><time>2026-04-18T13:27:38Z</time></trkpt><trkpt lat="48.17907666757274" lon="11.711007356286771"><ele>508.0</ele><time>2026-04-18T13:27:39Z</time></trkpt><trkpt lat="48.178965606605956" lon="11.711090296444228"><ele>507.79999999999995</ele><time>2026-04-18T13:27:40Z</time></trkpt><trkpt lat="48.1788699802089" lon="11.711162919794708"><ele>507.59999999999997</ele><time>2026-04-18T13:27:41Z</time></trkpt><trkpt lat="48.178775154692254" lon="11.711235046752824"><ele>507.40000000000003</ele><time>2026-04-18T13:27:42Z</time></trkpt><trkpt lat="48.17868019029918" lon="11.711308894487424"><ele>507.20000000000005</ele><time>2026-04-18T13:27:43Z</time></trkpt><trkpt lat="48.17858230119726" lon="11.711383097027449"><ele>507.0</ele><time>2026-04-18T13:27:44Z</time></trkpt><trkpt lat="48.178481701994414" lon="11.71146294282516"><ele>507.0</ele><time>2026-04-18T13:27:45Z</time></trkpt><trkpt lat="48.17837947922883" lon="11.711545054867445"><ele>507.0</ele><time>2026-04-18T13:27:46Z</time></trkpt><trkpt lat="48.178273720763514" lon="11.711630281079653"><ele>507.0</ele><time>2026-04-18T13:27:47Z</time></trkpt><trkpt lat="48.17817118024094" lon="11.711715003579313"><ele>507.0</ele><time>2026-04-18T13:27:48Z</time></trkpt><trkpt lat="48.17807196733262" lon="11.711799813061093"><ele>507.25</ele><time>2026-04-18T13:27:49Z</time></trkpt><trkpt lat="48.17797114228054" lon="11.7118870785782"><ele>507.5</ele><time>2026-04-18T13:27:50Z</time></trkpt><trkpt lat="48.177867827179014" lon="11.71196912113883"><ele>507.75</ele><time>2026-04-18T13:27:51Z</time></trkpt><trkpt lat="48.17776671165403" lon="11.712054326887484"><ele>508.0</ele><time>2026-04-18T13:27:52Z</time></trkpt><trkpt lat="48.177668136964314" lon="11.712143782318343"><ele>508.0</ele><time>2026-04-18T13:27:53Z</time></trkpt><trkpt lat="48.17757021002069" lon="11.712231180934776"><ele>508.0</ele><time>2026-04-18T13:27:54Z</time></trkpt><trkpt lat="48.177472147003776" lon="11.71231768600958"><ele>508.0</ele><time>2026-04-18T13:27:55Z</time></trkpt><trkpt lat="48.17737437818615" lon="11.71240398771453"><ele>508.0</ele><time>2026-04-18T13:27:56Z</time></trkpt><trkpt lat="48.177277251835626" lon="11.712489381483103"><ele>508.2</ele><time>2026-04-18T13:27:57Z</time></trkpt><trkpt lat="48.17718156817209" lon="11.712575980188792"><ele>508.4</ele><time>2026-04-18T13:27:58Z</time></trkpt><trkpt lat="48.17708624622431" lon="11.712660812981117"><ele>508.59999999999997</ele><time>2026-04-18T13:27:59Z</time></trkpt><trkpt lat="48.17698968804769" lon="11.712743728816351"><ele>508.79999999999995</ele><time>2026-04-18T13:28:00Z</time></trkpt><trkpt lat="48.17689401509097" lon="11.712831693276637"><ele>509.0</ele><time>2026-04-18T13:28:01Z</time></trkpt><trkpt lat="48.176792838638434" lon="11.71292420067286"><ele>509.2</ele><time>2026-04-18T13:28:02Z</time></trkpt><trkpt lat="48.17669613755486" lon="11.713009156924771"><ele>509.4</ele><time>2026-04-18T13:28:03Z</time></trkpt><trkpt lat="48.17660283778094" lon="11.713093246666576"><ele>509.6</ele><time>2026-04-18T13:28:04Z</time></trkpt><trkpt lat="48.17650839484849" lon="11.713176343586888"><ele>509.8</ele><time>2026-04-18T13:28:05Z</time></trkpt><trkpt lat="48.176408668324214" lon="11.71326108058273"><ele>510.0</ele><time>2026-04-18T13:28:06Z</time></trkpt><trkpt lat="48.176310055393635" lon="11.713345109203368"><ele>510.0</ele><time>2026-04-18T13:28:07Z</time></trkpt><trkpt lat="48.1762133698978" lon="11.71343285977359"><ele>510.0</ele><time>2026-04-18T13:28:07.999Z</time></trkpt><trkpt lat="48.17611451163363" lon="11.713525682019135"><ele>510.0</ele><time>2026-04-18T13:28:08.999Z</time></trkpt><trkpt lat="48.1760178136213" lon="11.713616525480015"><ele>510.0</ele><time>2026-04-18T13:28:09.999Z</time></trkpt><trkpt lat="48.17592047684924" lon="11.713710322264678"><ele>510.0</ele><time>2026-04-18T13:28:10.999Z</time></trkpt><trkpt lat="48.175824530121346" lon="11.71380139581564"><ele>510.0</ele><time>2026-04-18T13:28:11.999Z</time></trkpt><trkpt lat="48.17572723893622" lon="11.71389171142698"><ele>510.0</ele><time>2026-04-18T13:28:12.999Z</time></trkpt><trkpt lat="48.17562808872222" lon="11.713987238480046"><ele>510.0</ele><time>2026-04-18T13:28:13.999Z</time></trkpt><trkpt lat="48.17552656865711" lon="11.714073272111719"><ele>510.0</ele><time>2026-04-18T13:28:14.999Z</time></trkpt><trkpt lat="48.17542648090423" lon="11.71415452323274"><ele>510.0</ele><time>2026-04-18T13:28:15.999Z</time></trkpt><trkpt lat="48.175327328255335" lon="11.714233829368135"><ele>510.0</ele><time>2026-04-18T13:28:16.999Z</time></trkpt><trkpt lat="48.17523027231663" lon="11.7143048086127"><ele>510.0</ele><time>2026-04-18T13:28:17.999Z</time></trkpt><trkpt lat="48.17513603140844" lon="11.714377817086662"><ele>510.0</ele><time>2026-04-18T13:28:18.999Z</time></trkpt><trkpt lat="48.175039983739445" lon="11.714450795905755"><ele>510.0</ele><time>2026-04-18T13:28:19.999Z</time></trkpt><trkpt lat="48.17494176870654" lon="11.714521948442398"><ele>510.0</ele><time>2026-04-18T13:28:20.999Z</time></trkpt><trkpt lat="48.17484424697573" lon="11.71459581896343"><ele>510.0</ele><time>2026-04-18T13:28:22Z</time></trkpt><trkpt lat="48.174743585901524" lon="11.714666087238108"><ele>510.0</ele><time>2026-04-18T13:28:23Z</time></trkpt><trkpt lat="48.174639870599364" lon="11.714733203857561"><ele>510.0</ele><time>2026-04-18T13:28:24Z</time></trkpt><trkpt lat="48.17453482204163" lon="11.714799653602073"><ele>509.8</ele><time>2026-04-18T13:28:25Z</time></trkpt><trkpt lat="48.17443161899993" lon="11.714862296266098"><ele>509.6</ele><time>2026-04-18T13:28:26Z</time></trkpt><trkpt lat="48.17433130298083" lon="11.714921863077109"><ele>509.4</ele><time>2026-04-18T13:28:27Z</time></trkpt><trkpt lat="48.1742364976519" lon="11.71497756853742"><ele>509.2</ele><time>2026-04-18T13:28:28Z</time></trkpt><trkpt lat="48.174144591267506" lon="11.715017561486809"><ele>509.0</ele><time>2026-04-18T13:28:29Z</time></trkpt><trkpt lat="48.17406513352172" lon="11.715061972950112"><ele>509.16666666666663</ele><time>2026-04-18T13:28:30Z</time></trkpt><trkpt lat="48.17398779591086" lon="11.715104606171977"><ele>509.3333333333333</ele><time>2026-04-18T13:28:31Z</time></trkpt><trkpt lat="48.17391244222498" lon="11.71514385853589"><ele>509.5</ele><time>2026-04-18T13:28:32Z</time></trkpt><trkpt lat="48.17384299706105" lon="11.715185383978405"><ele>509.66666666666663</ele><time>2026-04-18T13:28:33Z</time></trkpt><trkpt lat="48.17377616653106" lon="11.715221475109098"><ele>509.8333333333333</ele><time>2026-04-18T13:28:34Z</time></trkpt><trkpt lat="48.1737167468547" lon="11.715252849132069"><ele>510.0</ele><time>2026-04-18T13:28:35Z</time></trkpt><trkpt lat="48.173622169204336" lon="11.715308972570293"><ele>510.0</ele><time>2026-04-18T13:28:37Z</time></trkpt><trkpt lat="48.173539355569204" lon="11.71534571658125"><ele>510.0</ele><time>2026-04-18T13:28:39Z</time></trkpt><trkpt lat="48.173459225180004" lon="11.715400997094896"><ele>510.0</ele><time>2026-04-18T13:28:41Z</time></trkpt><trkpt lat="48.17338760118406" lon="11.715454737432788"><ele>510.0</ele><time>2026-04-18T13:28:43Z</time></trkpt><trkpt lat="48.17332301503682" lon="11.715492715060636"><ele>510.0</ele><time>2026-04-18T13:28:45Z</time></trkpt><trkpt lat="48.1732631667139" lon="11.715527845106015"><ele>510.0</ele><time>2026-04-18T13:28:50Z</time></trkpt><trkpt lat="48.173164146099055" lon="11.715558472708596"><ele>510.4</ele><time>2026-04-18T13:28:53Z</time></trkpt><trkpt lat="48.17309527801579" lon="11.715619617118692"><ele>510.8</ele><time>2026-04-18T13:28:54Z</time></trkpt><trkpt lat="48.17299257864409" lon="11.715675641075514"><ele>511.20000000000005</ele><time>2026-04-18T13:28:55Z</time></trkpt><trkpt lat="48.17289617812912" lon="11.715729511999193"><ele>511.6</ele><time>2026-04-18T13:28:56Z</time></trkpt><trkpt lat="48.17281018305456" lon="11.715776212942236"><ele>512.0</ele><time>2026-04-18T13:28:57Z</time></trkpt><trkpt lat="48.17272026391823" lon="11.71579957482315"><ele>512.0</ele><time>2026-04-18T13:28:58Z</time></trkpt><trkpt lat="48.17263541149269" lon="11.715869828973199"><ele>512.0</ele><time>2026-04-18T13:28:59Z</time></trkpt><trkpt lat="48.17253738593222" lon="11.715922071418406"><ele>512.0</ele><time>2026-04-18T13:29:00Z</time></trkpt><trkpt lat="48.17242936154896" lon="11.715976939611037"><ele>512.0</ele><time>2026-04-18T13:29:01Z</time></trkpt><trkpt lat="48.17233194234549" lon="11.716022229991392"><ele>512.0</ele><time>2026-04-18T13:29:02Z</time></trkpt><trkpt lat="48.17224255835202" lon="11.71607001616069"><ele>512.6</ele><time>2026-04-18T13:29:03Z</time></trkpt><trkpt lat="48.17215465681803" lon="11.716112295363798"><ele>513.2</ele><time>2026-04-18T13:29:04Z</time></trkpt><trkpt lat="48.17206756705115" lon="11.716150736249082"><ele>513.8</ele><time>2026-04-18T13:29:05Z</time></trkpt><trkpt lat="48.17197823216015" lon="11.716196916861561"><ele>514.4</ele><time>2026-04-18T13:29:06Z</time></trkpt><trkpt lat="48.17188853115951" lon="11.716243532570173"><ele>515.0</ele><time>2026-04-18T13:29:07Z</time></trkpt><trkpt lat="48.1718035030407" lon="11.71628366175983"><ele>515.0</ele><time>2026-04-18T13:29:08Z</time></trkpt><trkpt lat="48.17172569915235" lon="11.716319540270874"><ele>515.0</ele><time>2026-04-18T13:29:09Z</time></trkpt><trkpt lat="48.17166418521908" lon="11.716347603336926"><ele>515.0</ele><time>2026-04-18T13:29:10Z</time></trkpt><trkpt lat="48.17156806201834" lon="11.716394110257125"><ele>515.0</ele><time>2026-04-18T13:29:12Z</time></trkpt><trkpt lat="48.17147663268018" lon="11.71643962750101"><ele>515.0</ele><time>2026-04-18T13:29:14Z</time></trkpt><trkpt lat="48.171376227901625" lon="11.716484737257693"><ele>515.0</ele><time>2026-04-18T13:29:16Z</time></trkpt><trkpt lat="48.17125810278818" lon="11.716544407514473"><ele>515.0</ele><time>2026-04-18T13:29:18Z</time></trkpt><trkpt lat="48.171176168579976" lon="11.71658385020367"><ele>515.0</ele><time>2026-04-18T13:29:19Z</time></trkpt><trkpt lat="48.17108324529794" lon="11.716638205706419"><ele>515.0</ele><time>2026-04-18T13:29:20Z</time></trkpt><trkpt lat="48.17098687895841" lon="11.71670027736139"><ele>515.0</ele><time>2026-04-18T13:29:21Z</time></trkpt><trkpt lat="48.170891474173345" lon="11.716758918302018"><ele>515.0</ele><time>2026-04-18T13:29:22Z</time></trkpt><trkpt lat="48.17079798689887" lon="11.716820011651429"><ele>515.0</ele><time>2026-04-18T13:29:23Z</time></trkpt><trkpt lat="48.17070549898121" lon="11.716879811480267"><ele>515.0</ele><time>2026-04-18T13:29:24Z</time></trkpt><trkpt lat="48.170613673172724" lon="11.716944301055198"><ele>515.0</ele><time>2026-04-18T13:29:25Z</time></trkpt><trkpt lat="48.170520212174345" lon="11.7170105025551"><ele>515.0</ele><time>2026-04-18T13:29:26Z</time></trkpt><trkpt lat="48.17042180756672" lon="11.717078525596426"><ele>515.0</ele><time>2026-04-18T13:29:27Z</time></trkpt><trkpt lat="48.170319393054825" lon="11.717139316660225"><ele>515.0</ele><time>2026-04-18T13:29:28Z</time></trkpt><trkpt lat="48.170217169568204" lon="11.717206334456057"><ele>515.0</ele><time>2026-04-18T13:29:29Z</time></trkpt><trkpt lat="48.17011430393931" lon="11.717280370748755"><ele>515.0</ele><time>2026-04-18T13:29:30Z</time></trkpt><trkpt lat="48.17000933025531" lon="11.717352533593983"><ele>515.0</ele><time>2026-04-18T13:29:31Z</time></trkpt><trkpt lat="48.16990360011627" lon="11.71742410453051"><ele>515.25</ele><time>2026-04-18T13:29:32Z</time></trkpt><trkpt lat="48.169792637853725" lon="11.717492502361488"><ele>515.5</ele><time>2026-04-18T13:29:33Z</time></trkpt><trkpt lat="48.16968520785208" lon="11.717558403464395"><ele>515.75</ele><time>2026-04-18T13:29:34Z</time></trkpt><trkpt lat="48.16958307257167" lon="11.717619146031023"><ele>516.0</ele><time>2026-04-18T13:29:35Z</time></trkpt><trkpt lat="48.169483830200996" lon="11.717678190016938"><ele>515.75</ele><time>2026-04-18T13:29:36Z</time></trkpt><trkpt lat="48.1693871399057" lon="11.71773859544479"><ele>515.5</ele><time>2026-04-18T13:29:37Z</time></trkpt><trkpt lat="48.16927994535341" lon="11.71777676985192"><ele>515.25</ele><time>2026-04-18T13:29:38Z</time></trkpt><trkpt lat="48.16917175885239" lon="11.717860412930792"><ele>515.0</ele><time>2026-04-18T13:29:39Z</time></trkpt><trkpt lat="48.16905363959406" lon="11.717920326668672"><ele>515.0</ele><time>2026-04-18T13:29:40Z</time></trkpt><trkpt lat="48.168935664696875" lon="11.717964025835926"><ele>515.0</ele><time>2026-04-18T13:29:41Z</time></trkpt><trkpt lat="48.168816366592736" lon="11.71798525372377"><ele>515.0</ele><time>2026-04-18T13:29:42Z</time></trkpt><trkpt lat="48.16869799991909" lon="11.717979292433325"><ele>515.0</ele><time>2026-04-18T13:29:43Z</time></trkpt><trkpt lat="48.16858435299346" lon="11.717954206170374"><ele>515.0</ele><time>2026-04-18T13:29:44Z</time></trkpt><trkpt lat="48.168477006014264" lon="11.717931735239883"><ele>515.0</ele><time>2026-04-18T13:29:45Z</time></trkpt><trkpt lat="48.168367566308895" lon="11.717909986851414"><ele>515.0</ele><time>2026-04-18T13:29:46Z</time></trkpt><trkpt lat="48.16825481653115" lon="11.717886245727172"><ele>515.0</ele><time>2026-04-18T13:29:47Z</time></trkpt><trkpt lat="48.168143121987384" lon="11.717854778121984"><ele>515.0</ele><time>2026-04-18T13:29:48Z</time></trkpt><trkpt lat="48.16803113383434" lon="11.717822988662867"><ele>514.75</ele><time>2026-04-18T13:29:49Z</time></trkpt><trkpt lat="48.16791762746146" lon="11.71782806436736"><ele>514.5</ele><time>2026-04-18T13:29:50Z</time></trkpt><trkpt lat="48.167803425603836" lon="11.717869751994371"><ele>514.25</ele><time>2026-04-18T13:29:51Z</time></trkpt><trkpt lat="48.167693995537675" lon="11.717932778790088"><ele>514.0</ele><time>2026-04-18T13:29:52Z</time></trkpt><trkpt lat="48.167590153629554" lon="11.71801343991735"><ele>514.0</ele><time>2026-04-18T13:29:53Z</time></trkpt><trkpt lat="48.16749137596911" lon="11.718093655097658"><ele>514.0</ele><time>2026-04-18T13:29:54Z</time></trkpt><trkpt lat="48.16739365460452" lon="11.718166515288303"><ele>514.0</ele><time>2026-04-18T13:29:55Z</time></trkpt><trkpt lat="48.1672991865117" lon="11.718242880446386"><ele>514.0</ele><time>2026-04-18T13:29:56Z</time></trkpt><trkpt lat="48.167204204491696" lon="11.718310214002083"><ele>514.0</ele><time>2026-04-18T13:29:57Z</time></trkpt><trkpt lat="48.16710434379617" lon="11.718361832784922"><ele>514.0</ele><time>2026-04-18T13:29:58Z</time></trkpt><trkpt lat="48.167011228700176" lon="11.71843395715827"><ele>514.0</ele><time>2026-04-18T13:29:59Z</time></trkpt><trkpt lat="48.16692430323721" lon="11.718534906498448"><ele>514.0</ele><time>2026-04-18T13:30:00Z</time></trkpt><trkpt lat="48.16682836354618" lon="11.718613204625465"><ele>514.0</ele><time>2026-04-18T13:30:01Z</time></trkpt><trkpt lat="48.16672801544833" lon="11.718686265380406"><ele>514.0</ele><time>2026-04-18T13:30:02Z</time></trkpt><trkpt lat="48.166624357056456" lon="11.718751384798177"><ele>513.5</ele><time>2026-04-18T13:30:03Z</time></trkpt><trkpt lat="48.16652045379439" lon="11.71882324389512"><ele>513.0</ele><time>2026-04-18T13:30:04Z</time></trkpt><trkpt lat="48.16641679493393" lon="11.71890062544576"><ele>512.5</ele><time>2026-04-18T13:30:05Z</time></trkpt><trkpt lat="48.16631209961584" lon="11.718976704696848"><ele>512.0</ele><time>2026-04-18T13:30:06Z</time></trkpt><trkpt lat="48.16620811152776" lon="11.71905363387132"><ele>512.0</ele><time>2026-04-18T13:30:07Z</time></trkpt><trkpt lat="48.16610489091121" lon="11.719127776759796"><ele>512.0</ele><time>2026-04-18T13:30:08Z</time></trkpt><trkpt lat="48.16600318865006" lon="11.719201762107305"><ele>512.0</ele><time>2026-04-18T13:30:09Z</time></trkpt><trkpt lat="48.16590199633661" lon="11.719276515924397"><ele>512.0</ele><time>2026-04-18T13:30:10Z</time></trkpt><trkpt lat="48.165799409938" lon="11.719351101984957"><ele>512.0</ele><time>2026-04-18T13:30:11Z</time></trkpt><trkpt lat="48.16569736560596" lon="11.719426139565632"><ele>512.0</ele><time>2026-04-18T13:30:12Z</time></trkpt><trkpt lat="48.165597266463976" lon="11.71949920594333"><ele>512.0</ele><time>2026-04-18T13:30:13Z</time></trkpt><trkpt lat="48.16550960895394" lon="11.71956586161306"><ele>512.0</ele><time>2026-04-18T13:30:14Z</time></trkpt><trkpt lat="48.16543113302264" lon="11.719625261773698"><ele>512.0</ele><time>2026-04-18T13:30:15Z</time></trkpt><trkpt lat="48.1653656138467" lon="11.719672980321018"><ele>512.1666666666666</ele><time>2026-04-18T13:30:16Z</time></trkpt><trkpt lat="48.16525953142442" lon="11.719746184332385"><ele>512.3333333333333</ele><time>2026-04-18T13:30:18Z</time></trkpt><trkpt lat="48.16515448024825" lon="11.719804502328588"><ele>512.5</ele><time>2026-04-18T13:30:20Z</time></trkpt><trkpt lat="48.165091603384674" lon="11.71977732702736"><ele>512.6666666666666</ele><time>2026-04-18T13:30:21Z</time></trkpt><trkpt lat="48.165023897678715" lon="11.719742759108772"><ele>512.8333333333334</ele><time>2026-04-18T13:30:22Z</time></trkpt><trkpt lat="48.16495555563454" lon="11.719773175206413"><ele>513.0</ele><time>2026-04-18T13:30:23Z</time></trkpt><trkpt lat="48.16490037749978" lon="11.71984116190424"><ele>513.1666666666666</ele><time>2026-04-18T13:30:24Z</time></trkpt><trkpt lat="48.16485750904769" lon="11.719933375517895"><ele>513.3333333333334</ele><time>2026-04-18T13:30:25Z</time></trkpt><trkpt lat="48.164806285439084" lon="11.720025460303816"><ele>513.5</ele><time>2026-04-18T13:30:26Z</time></trkpt><trkpt lat="48.164740946781116" lon="11.720104786005265"><ele>513.6666666666667</ele><time>2026-04-18T13:30:27Z</time></trkpt><trkpt lat="48.16465425698054" lon="11.720140430537416"><ele>513.8333333333334</ele><time>2026-04-18T13:30:28Z</time></trkpt><trkpt lat="48.16456669415527" lon="11.720187054957668"><ele>514.0</ele><time>2026-04-18T13:30:29Z</time></trkpt><trkpt lat="48.16446049428947" lon="11.72024379085437"><ele>514.3333333333334</ele><time>2026-04-18T13:30:30Z</time></trkpt><trkpt lat="48.16431693005613" lon="11.720322680680738"><ele>514.6666666666666</ele><time>2026-04-18T13:30:31Z</time></trkpt><trkpt lat="48.164151756795626" lon="11.720405811651208"><ele>515.0</ele><time>2026-04-18T13:30:32Z</time></trkpt><trkpt lat="48.164004750546646" lon="11.720475409107506"><ele>515.25</ele><time>2026-04-18T13:30:33Z</time></trkpt><trkpt lat="48.163864359216575" lon="11.720541200159293"><ele>515.5</ele><time>2026-04-18T13:30:34Z</time></trkpt><trkpt lat="48.16372527099611" lon="11.720602706165572"><ele>515.75</ele><time>2026-04-18T13:30:35Z</time></trkpt><trkpt lat="48.16358260530302" lon="11.720658270663648"><ele>516.0</ele><time>2026-04-18T13:30:36Z</time></trkpt><trkpt lat="48.163433819638875" lon="11.720712830560553"><ele>516.0</ele><time>2026-04-18T13:30:37Z</time></trkpt><trkpt lat="48.16327335675156" lon="11.72077168950893"><ele>516.0</ele><time>2026-04-18T13:30:38Z</time></trkpt><trkpt lat="48.16311411788676" lon="11.720825580221165"><ele>516.0</ele><time>2026-04-18T13:30:39Z</time></trkpt><trkpt lat="48.16295813914761" lon="11.720873894591728"><ele>516.0</ele><time>2026-04-18T13:30:40Z</time></trkpt><trkpt lat="48.16280100646926" lon="11.720924338768894"><ele>516.0</ele><time>2026-04-18T13:30:41Z</time></trkpt><trkpt lat="48.16264079959607" lon="11.72097194574399"><ele>516.0</ele><time>2026-04-18T13:30:42Z</time></trkpt><trkpt lat="48.162475545836124" lon="11.721003838158115"><ele>515.6666666666666</ele><time>2026-04-18T13:30:43Z</time></trkpt><trkpt lat="48.16230407346853" lon="11.721031047701773"><ele>515.3333333333333</ele><time>2026-04-18T13:30:44Z</time></trkpt><trkpt lat="48.16212721308125" lon="11.721053794280008"><ele>515.0</ele><time>2026-04-18T13:30:45Z</time></trkpt><trkpt lat="48.161988304047995" lon="11.721154226870276"><ele>515.6666666666666</ele><time>2026-04-18T13:30:46Z</time></trkpt><trkpt lat="48.16181749886986" lon="11.72119795228608"><ele>516.3333333333334</ele><time>2026-04-18T13:30:47Z</time></trkpt><trkpt lat="48.1616488587514" lon="11.721239033449324"><ele>517.0</ele><time>2026-04-18T13:30:48Z</time></trkpt><trkpt lat="48.16148551965032" lon="11.721281717482366"><ele>517.0</ele><time>2026-04-18T13:30:49Z</time></trkpt><trkpt lat="48.161326914880135" lon="11.721324026530706"><ele>517.0</ele><time>2026-04-18T13:30:50Z</time></trkpt><trkpt lat="48.16116645438223" lon="11.721367443866916"><ele>517.0</ele><time>2026-04-18T13:30:51Z</time></trkpt><trkpt lat="48.16100530770445" lon="11.72140273857506"><ele>517.0</ele><time>2026-04-18T13:30:52Z</time></trkpt><trkpt lat="48.160844674461245" lon="11.72144280826129"><ele>517.0</ele><time>2026-04-18T13:30:53Z</time></trkpt><trkpt lat="48.16068500266998" lon="11.721482331894126"><ele>517.0</ele><time>2026-04-18T13:30:54Z</time></trkpt><trkpt lat="48.16052331898259" lon="11.721530174968475"><ele>517.0</ele><time>2026-04-18T13:30:55Z</time></trkpt><trkpt lat="48.16036239455517" lon="11.721575561028962"><ele>517.0</ele><time>2026-04-18T13:30:56Z</time></trkpt><trkpt lat="48.16020340232181" lon="11.721638479713397"><ele>517.0</ele><time>2026-04-18T13:30:57Z</time></trkpt><trkpt lat="48.160043778272964" lon="11.721697758483636"><ele>517.0</ele><time>2026-04-18T13:30:58Z</time></trkpt><trkpt lat="48.15988227019809" lon="11.72176475191215"><ele>517.0</ele><time>2026-04-18T13:30:59Z</time></trkpt><trkpt lat="48.159719337061695" lon="11.721835393731864"><ele>517.0</ele><time>2026-04-18T13:31:00Z</time></trkpt><trkpt lat="48.15955230649839" lon="11.721912474384142"><ele>517.3333333333334</ele><time>2026-04-18T13:31:01Z</time></trkpt><trkpt lat="48.159381118797945" lon="11.721992914858943"><ele>517.6666666666666</ele><time>2026-04-18T13:31:02Z</time></trkpt><trkpt lat="48.159226331579056" lon="11.722079215349854"><ele>518.0</ele><time>2026-04-18T13:31:03Z</time></trkpt><trkpt lat="48.159077652605475" lon="11.722150758473283"><ele>518.0</ele><time>2026-04-18T13:31:04Z</time></trkpt><trkpt lat="48.15893142733024" lon="11.72222242681344"><ele>518.0</ele><time>2026-04-18T13:31:05Z</time></trkpt><trkpt lat="48.15878896860955" lon="11.722294724835963"><ele>518.0</ele><time>2026-04-18T13:31:06Z</time></trkpt><trkpt lat="48.15863735955184" lon="11.72237917813377"><ele>518.0</ele><time>2026-04-18T13:31:07Z</time></trkpt><trkpt lat="48.15847890772284" lon="11.722462190917176"><ele>518.0</ele><time>2026-04-18T13:31:08Z</time></trkpt><trkpt lat="48.15831622857059" lon="11.72256667560095"><ele>518.0</ele><time>2026-04-18T13:31:09Z</time></trkpt><trkpt lat="48.1581585774156" lon="11.722648885569495"><ele>518.3333333333333</ele><time>2026-04-18T13:31:10Z</time></trkpt><trkpt lat="48.15800546271462" lon="11.722732908258717"><ele>518.6666666666666</ele><time>2026-04-18T13:31:11Z</time></trkpt><trkpt lat="48.15785610454887" lon="11.722816864942196"><ele>519.0</ele><time>2026-04-18T13:31:12Z</time></trkpt><trkpt lat="48.15770739343694" lon="11.722900248243485"><ele>519.0</ele><time>2026-04-18T13:31:13Z</time></trkpt><trkpt lat="48.1575479909825" lon="11.722980103469574"><ele>519.0</ele><time>2026-04-18T13:31:14Z</time></trkpt><trkpt lat="48.15738087103181" lon="11.723074796142395"><ele>519.0</ele><time>2026-04-18T13:31:15Z</time></trkpt><trkpt lat="48.15722367348003" lon="11.723167705856874"><ele>519.0</ele><time>2026-04-18T13:31:16Z</time></trkpt><trkpt lat="48.157064243478466" lon="11.723256273620224"><ele>519.0</ele><time>2026-04-18T13:31:17Z</time></trkpt><trkpt lat="48.15690906052488" lon="11.723344725780928"><ele>519.0</ele><time>2026-04-18T13:31:18Z</time></trkpt><trkpt lat="48.15675519191058" lon="11.723430791973069"><ele>519.0</ele><time>2026-04-18T13:31:19Z</time></trkpt><trkpt lat="48.156604439581784" lon="11.723512860192718"><ele>519.0</ele><time>2026-04-18T13:31:20Z</time></trkpt><trkpt lat="48.15645275919603" lon="11.723599530655362"><ele>519.0</ele><time>2026-04-18T13:31:21Z</time></trkpt><trkpt lat="48.156303337565845" lon="11.7236861798793"><ele>519.0</ele><time>2026-04-18T13:31:22Z</time></trkpt><trkpt lat="48.15615379399174" lon="11.723771600844211"><ele>519.0</ele><time>2026-04-18T13:31:23Z</time></trkpt><trkpt lat="48.15600196864023" lon="11.723857747204494"><ele>519.0</ele><time>2026-04-18T13:31:24Z</time></trkpt><trkpt lat="48.15585257149319" lon="11.723941337131437"><ele>519.0</ele><time>2026-04-18T13:31:25Z</time></trkpt><trkpt lat="48.15571543760568" lon="11.72402026834398"><ele>519.0</ele><time>2026-04-18T13:31:26Z</time></trkpt><trkpt lat="48.1555838090895" lon="11.724094223033987"><ele>519.0</ele><time>2026-04-18T13:31:27Z</time></trkpt><trkpt lat="48.155458511626506" lon="11.724163147415373"><ele>519.0</ele><time>2026-04-18T13:31:28Z</time></trkpt><trkpt lat="48.15534146659872" lon="11.724229403437244"><ele>519.0</ele><time>2026-04-18T13:31:29Z</time></trkpt><trkpt lat="48.155233821830684" lon="11.724286067700675"><ele>519.0</ele><time>2026-04-18T13:31:30Z</time></trkpt><trkpt lat="48.15513292300295" lon="11.724341547671841"><ele>519.0</ele><time>2026-04-18T13:31:31Z</time></trkpt><trkpt lat="48.15503576236325" lon="11.724394299087113"><ele>519.0</ele><time>2026-04-18T13:31:32Z</time></trkpt><trkpt lat="48.154946598420885" lon="11.7244434742323"><ele>519.0</ele><time>2026-04-18T13:31:33Z</time></trkpt><trkpt lat="48.15485925352173" lon="11.724494431685086"><ele>519.2</ele><time>2026-04-18T13:31:34Z</time></trkpt><trkpt lat="48.15476594625423" lon="11.724542041608581"><ele>519.4</ele><time>2026-04-18T13:31:35Z</time></trkpt><trkpt lat="48.154669519626324" lon="11.724594978293275"><ele>519.6</ele><time>2026-04-18T13:31:36Z</time></trkpt><trkpt lat="48.15457056062564" lon="11.724651352473193"><ele>519.8</ele><time>2026-04-18T13:31:37Z</time></trkpt><trkpt lat="48.154478296065825" lon="11.724701585575728"><ele>520.0</ele><time>2026-04-18T13:31:38Z</time></trkpt><trkpt lat="48.154397031610706" lon="11.724742315009973"><ele>520.0</ele><time>2026-04-18T13:31:39Z</time></trkpt><trkpt lat="48.154322767039126" lon="11.724781163938042"><ele>520.0</ele><time>2026-04-18T13:31:40Z</time></trkpt><trkpt lat="48.154255755256976" lon="11.724815913645578"><ele>520.0</ele><time>2026-04-18T13:31:41Z</time></trkpt><trkpt lat="48.15414227288651" lon="11.724875449460562"><ele>520.0</ele><time>2026-04-18T13:31:43Z</time></trkpt><trkpt lat="48.15402116186648" lon="11.724893487343595"><ele>520.0</ele><time>2026-04-18T13:31:45Z</time></trkpt><trkpt lat="48.15390155945355" lon="11.72482062225793"><ele>519.8571428571429</ele><time>2026-04-18T13:31:47Z</time></trkpt><trkpt lat="48.15383321307405" lon="11.724831421863074"><ele>519.7142857142858</ele><time>2026-04-18T13:31:48Z</time></trkpt><trkpt lat="48.15378050694321" lon="11.724904229099055"><ele>519.5714285714286</ele><time>2026-04-18T13:31:49Z</time></trkpt><trkpt lat="48.15374555167778" lon="11.72499891292713"><ele>519.4285714285714</ele><time>2026-04-18T13:31:50Z</time></trkpt><trkpt lat="48.15371459066929" lon="11.725086803969381"><ele>519.2857142857142</ele><time>2026-04-18T13:31:51Z</time></trkpt><trkpt lat="48.15365852448566" lon="11.725144405311703"><ele>519.1428571428571</ele><time>2026-04-18T13:31:52Z</time></trkpt><trkpt lat="48.153581688575166" lon="11.725186009830091"><ele>519.0</ele><time>2026-04-18T13:31:53Z</time></trkpt><trkpt lat="48.15348264709688" lon="11.725250283301117"><ele>519.75</ele><time>2026-04-18T13:31:54Z</time></trkpt><trkpt lat="48.153364869279514" lon="11.725319623391165"><ele>520.5</ele><time>2026-04-18T13:31:55Z</time></trkpt><trkpt lat="48.15324473954184" lon="11.725383410514302"><ele>521.25</ele><time>2026-04-18T13:31:56Z</time></trkpt><trkpt lat="48.15313122335447" lon="11.725449281338577"><ele>522.0</ele><time>2026-04-18T13:31:57Z</time></trkpt><trkpt lat="48.15302006970011" lon="11.72551098764109"><ele>522.0</ele><time>2026-04-18T13:31:58Z</time></trkpt><trkpt lat="48.15291122707819" lon="11.72557099926274"><ele>522.0</ele><time>2026-04-18T13:31:59Z</time></trkpt><trkpt lat="48.152801386264514" lon="11.725634107724758"><ele>522.0</ele><time>2026-04-18T13:32:00Z</time></trkpt><trkpt lat="48.15268955367307" lon="11.725698120703253"><ele>522.0</ele><time>2026-04-18T13:32:01Z</time></trkpt><trkpt lat="48.1525777641674" lon="11.725761734516638"><ele>522.0</ele><time>2026-04-18T13:32:02Z</time></trkpt><trkpt lat="48.152471440694114" lon="11.725823593511654"><ele>522.0</ele><time>2026-04-18T13:32:03Z</time></trkpt><trkpt lat="48.152367773206656" lon="11.725884323245149"><ele>522.0</ele><time>2026-04-18T13:32:04Z</time></trkpt><trkpt lat="48.15226574843743" lon="11.72594324638999"><ele>522.0</ele><time>2026-04-18T13:32:05Z</time></trkpt><trkpt lat="48.15215714817479" lon="11.726006460935695"><ele>522.25</ele><time>2026-04-18T13:32:06Z</time></trkpt><trkpt lat="48.15203731993565" lon="11.726079612529233"><ele>522.5</ele><time>2026-04-18T13:32:07Z</time></trkpt><trkpt lat="48.15192401480182" lon="11.726151277303398"><ele>522.75</ele><time>2026-04-18T13:32:08Z</time></trkpt><trkpt lat="48.15181778423486" lon="11.726213007334202"><ele>523.0</ele><time>2026-04-18T13:32:09Z</time></trkpt><trkpt lat="48.151713106593974" lon="11.726273943994936"><ele>523.0</ele><time>2026-04-18T13:32:10Z</time></trkpt><trkpt lat="48.15161033987569" lon="11.726338588680239"><ele>523.0</ele><time>2026-04-18T13:32:11Z</time></trkpt><trkpt lat="48.151505488535356" lon="11.726402488100067"><ele>523.0</ele><time>2026-04-18T13:32:12Z</time></trkpt><trkpt lat="48.15140121442599" lon="11.726471591817697"><ele>523.0</ele><time>2026-04-18T13:32:13Z</time></trkpt><trkpt lat="48.15129948145155" lon="11.726548013649808"><ele>523.25</ele><time>2026-04-18T13:32:14Z</time></trkpt><trkpt lat="48.15119697075563" lon="11.7266356947957"><ele>523.5</ele><time>2026-04-18T13:32:15Z</time></trkpt><trkpt lat="48.15109204884243" lon="11.72671280542521"><ele>523.75</ele><time>2026-04-18T13:32:16Z</time></trkpt><trkpt lat="48.150983165288324" lon="11.726788148573544"><ele>524.0</ele><time>2026-04-18T13:32:17Z</time></trkpt><trkpt lat="48.15087646084185" lon="11.72686016069174"><ele>524.0</ele><time>2026-04-18T13:32:18Z</time></trkpt><trkpt lat="48.15077144527009" lon="11.726928250869607"><ele>524.0</ele><time>2026-04-18T13:32:19Z</time></trkpt><trkpt lat="48.15067083432538" lon="11.726982435358028"><ele>524.0</ele><time>2026-04-18T13:32:20Z</time></trkpt><trkpt lat="48.1505715568706" lon="11.72705493812841"><ele>524.0</ele><time>2026-04-18T13:32:21Z</time></trkpt><trkpt lat="48.150466363024236" lon="11.727108227653373"><ele>524.0</ele><time>2026-04-18T13:32:22Z</time></trkpt><trkpt lat="48.15036603799257" lon="11.727200581217557"><ele>524.0</ele><time>2026-04-18T13:32:23Z</time></trkpt><trkpt lat="48.15025176808909" lon="11.727269686030093"><ele>524.0</ele><time>2026-04-18T13:32:24Z</time></trkpt><trkpt lat="48.150144001968236" lon="11.727350523389529"><ele>524.0</ele><time>2026-04-18T13:32:25Z</time></trkpt><trkpt lat="48.15003418277608" lon="11.72742061496946"><ele>524.0</ele><time>2026-04-18T13:32:26Z</time></trkpt><trkpt lat="48.14992512613563" lon="11.72748972538162"><ele>524.0</ele><time>2026-04-18T13:32:27Z</time></trkpt><trkpt lat="48.149818315676534" lon="11.727564493006449"><ele>524.0</ele><time>2026-04-18T13:32:28Z</time></trkpt><trkpt lat="48.14970918991499" lon="11.727640899941722"><ele>524.0</ele><time>2026-04-18T13:32:29Z</time></trkpt><trkpt lat="48.14960217625568" lon="11.727716311278549"><ele>524.0</ele><time>2026-04-18T13:32:30Z</time></trkpt><trkpt lat="48.149498441740384" lon="11.727788277657808"><ele>524.0</ele><time>2026-04-18T13:32:31Z</time></trkpt><trkpt lat="48.149397997835095" lon="11.727857259920603"><ele>524.0</ele><time>2026-04-18T13:32:32Z</time></trkpt><trkpt lat="48.14930251429519" lon="11.727923665438647"><ele>524.0</ele><time>2026-04-18T13:32:33Z</time></trkpt><trkpt lat="48.14920765507348" lon="11.727983768700934"><ele>524.0</ele><time>2026-04-18T13:32:34Z</time></trkpt><trkpt lat="48.149112844908004" lon="11.728049498254348"><ele>524.0</ele><time>2026-04-18T13:32:35Z</time></trkpt><trkpt lat="48.14901074774259" lon="11.728122017599919"><ele>523.6</ele><time>2026-04-18T13:32:36Z</time></trkpt><trkpt lat="48.14889806265318" lon="11.728195181955344"><ele>523.2</ele><time>2026-04-18T13:32:37Z</time></trkpt><trkpt lat="48.14878634509006" lon="11.7282793220838"><ele>522.8000000000001</ele><time>2026-04-18T13:32:38Z</time></trkpt><trkpt lat="48.148687980484254" lon="11.72834475132639"><ele>522.4</ele><time>2026-04-18T13:32:39Z</time></trkpt><trkpt lat="48.1486265103063" lon="11.728385118697451"><ele>522.0</ele><time>2026-04-18T13:32:40Z</time></trkpt><trkpt lat="48.14856337612997" lon="11.728434816904796"><ele>522.0</ele><time>2026-04-18T13:32:42Z</time></trkpt><trkpt lat="48.148492013723065" lon="11.728468163811975"><ele>522.0</ele><time>2026-04-18T13:32:48Z</time></trkpt><trkpt lat="48.14843337713179" lon="11.728515333845392"><ele>522.0</ele><time>2026-04-18T13:32:55Z</time></trkpt><trkpt lat="48.148329002998764" lon="11.728597536549604"><ele>522.0</ele><time>2026-04-18T13:33:07Z</time></trkpt><trkpt lat="48.14824742914502" lon="11.728658691378644"><ele>522.0</ele><time>2026-04-18T13:33:08Z</time></trkpt><trkpt lat="48.14816055507579" lon="11.728691924833083"><ele>522.0</ele><time>2026-04-18T13:33:09Z</time></trkpt><trkpt lat="48.1480942172663" lon="11.728757768133098"><ele>522.3333333333334</ele><time>2026-04-18T13:33:10Z</time></trkpt><trkpt lat="48.14801136982928" lon="11.728814739945161"><ele>522.6666666666666</ele><time>2026-04-18T13:33:11Z</time></trkpt><trkpt lat="48.14793452744417" lon="11.728870183969876"><ele>523.0</ele><time>2026-04-18T13:33:12Z</time></trkpt><trkpt lat="48.14787101578865" lon="11.728916298735964"><ele>523.3333333333333</ele><time>2026-04-18T13:33:13Z</time></trkpt><trkpt lat="48.147811435151915" lon="11.728961440240035"><ele>523.6666666666666</ele><time>2026-04-18T13:33:14Z</time></trkpt><trkpt lat="48.14775041034711" lon="11.72900960548197"><ele>524.0</ele><time>2026-04-18T13:33:15Z</time></trkpt><trkpt lat="48.14767650466936" lon="11.729037224290645"><ele>524.0</ele><time>2026-04-18T13:33:16Z</time></trkpt><trkpt lat="48.147605076000545" lon="11.729093348199342"><ele>524.0</ele><time>2026-04-18T13:33:17Z</time></trkpt><trkpt lat="48.1475330083678" lon="11.729155618474575"><ele>524.0</ele><time>2026-04-18T13:33:18Z</time></trkpt><trkpt lat="48.14747119787988" lon="11.729233526972482"><ele>524.0</ele><time>2026-04-18T13:33:19Z</time></trkpt><trkpt lat="48.147411147976804" lon="11.729279726709535"><ele>524.0</ele><time>2026-04-18T13:33:20Z</time></trkpt><trkpt lat="48.14734663969899" lon="11.729321527570132"><ele>524.0</ele><time>2026-04-18T13:33:22Z</time></trkpt><trkpt lat="48.147280538463896" lon="11.7293734044392"><ele>524.8</ele><time>2026-04-18T13:33:25Z</time></trkpt><trkpt lat="48.147180339759146" lon="11.72944607259328"><ele>525.5999999999999</ele><time>2026-04-18T13:33:41Z</time></trkpt><trkpt lat="48.1470992966878" lon="11.729492231065034"><ele>526.4</ele><time>2026-04-18T13:33:42Z</time></trkpt><trkpt lat="48.14700319261224" lon="11.729556058232031"><ele>527.1999999999999</ele><time>2026-04-18T13:33:43Z</time></trkpt><trkpt lat="48.146928233997194" lon="11.729621197252051"><ele>528.0</ele><time>2026-04-18T13:33:44Z</time></trkpt><trkpt lat="48.146849122916834" lon="11.729655009911813"><ele>528.0</ele><time>2026-04-18T13:33:45Z</time></trkpt><trkpt lat="48.14676557002209" lon="11.72971514024322"><ele>528.0</ele><time>2026-04-18T13:33:46Z</time></trkpt><trkpt lat="48.146668840170214" lon="11.729783658048186"><ele>528.0</ele><time>2026-04-18T13:33:47Z</time></trkpt><trkpt lat="48.14656574985468" lon="11.729854180327001"><ele>528.0</ele><time>2026-04-18T13:33:48Z</time></trkpt><trkpt lat="48.146467994333904" lon="11.729917337512035"><ele>528.0</ele><time>2026-04-18T13:33:49Z</time></trkpt><trkpt lat="48.14637055760856" lon="11.729972379520163"><ele>527.6</ele><time>2026-04-18T13:33:50Z</time></trkpt><trkpt lat="48.14627205818156" lon="11.73002557942306"><ele>527.1999999999999</ele><time>2026-04-18T13:33:51Z</time></trkpt><trkpt lat="48.14617263295702" lon="11.730082223441006"><ele>526.8</ele><time>2026-04-18T13:33:52Z</time></trkpt><trkpt lat="48.14607062892597" lon="11.73014299113287"><ele>526.4</ele><time>2026-04-18T13:33:53Z</time></trkpt><trkpt lat="48.14597281990852" lon="11.730221081428484"><ele>526.0</ele><time>2026-04-18T13:33:54Z</time></trkpt><trkpt lat="48.14586479341005" lon="11.730283288716011"><ele>525.75</ele><time>2026-04-18T13:33:55Z</time></trkpt><trkpt lat="48.145760565770054" lon="11.730354240941862"><ele>525.5</ele><time>2026-04-18T13:33:56Z</time></trkpt><trkpt lat="48.1456511236509" lon="11.730424982499704"><ele>525.25</ele><time>2026-04-18T13:33:57Z</time></trkpt><trkpt lat="48.145551258608606" lon="11.73050741143418"><ele>525.0</ele><time>2026-04-18T13:33:58Z</time></trkpt><trkpt lat="48.14545625415533" lon="11.73059214692399"><ele>525.4</ele><time>2026-04-18T13:33:59Z</time></trkpt><trkpt lat="48.14536484745559" lon="11.730681557617908"><ele>525.8</ele><time>2026-04-18T13:34:00Z</time></trkpt><trkpt lat="48.14527876963947" lon="11.730773455037303"><ele>526.2</ele><time>2026-04-18T13:34:01Z</time></trkpt><trkpt lat="48.14519354175819" lon="11.730862215485837"><ele>526.6</ele><time>2026-04-18T13:34:02Z</time></trkpt><trkpt lat="48.14511093321056" lon="11.730948882731216"><ele>527.0</ele><time>2026-04-18T13:34:03Z</time></trkpt><trkpt lat="48.14503344178007" lon="11.73103886531737"><ele>527.0</ele><time>2026-04-18T13:34:04Z</time></trkpt><trkpt lat="48.14495086922024" lon="11.731135452953627"><ele>527.0</ele><time>2026-04-18T13:34:05Z</time></trkpt><trkpt lat="48.14486710118669" lon="11.731261366896112"><ele>527.0</ele><time>2026-04-18T13:34:06Z</time></trkpt><trkpt lat="48.14477591383229" lon="11.731378624440612"><ele>527.0</ele><time>2026-04-18T13:34:07Z</time></trkpt><trkpt lat="48.14469409383194" lon="11.731499443236794"><ele>526.75</ele><time>2026-04-18T13:34:08Z</time></trkpt><trkpt lat="48.14461255416615" lon="11.731619848099562"><ele>526.5</ele><time>2026-04-18T13:34:09Z</time></trkpt><trkpt lat="48.14453215782997" lon="11.731738744888567"><ele>526.25</ele><time>2026-04-18T13:34:10Z</time></trkpt><trkpt lat="48.144452894417824" lon="11.731857274650483"><ele>526.0</ele><time>2026-04-18T13:34:11Z</time></trkpt><trkpt lat="48.1443736458467" lon="11.731975782240404"><ele>526.0</ele><time>2026-04-18T13:34:12Z</time></trkpt><trkpt lat="48.14429496287838" lon="11.732093444008452"><ele>526.0</ele><time>2026-04-18T13:34:13.001Z</time></trkpt><trkpt lat="48.14422780911882" lon="11.732228309142783"><ele>526.0</ele><time>2026-04-18T13:34:14.001Z</time></trkpt><trkpt lat="48.144148313021134" lon="11.732346213227867"><ele>526.0</ele><time>2026-04-18T13:34:15.001Z</time></trkpt><trkpt lat="48.14406740230559" lon="11.73246577525332"><ele>526.0</ele><time>2026-04-18T13:34:16.001Z</time></trkpt><trkpt lat="48.143986193214424" lon="11.732586579791246"><ele>525.75</ele><time>2026-04-18T13:34:17.001Z</time></trkpt><trkpt lat="48.143903424100834" lon="11.73270552482995"><ele>525.5</ele><time>2026-04-18T13:34:18.001Z</time></trkpt><trkpt lat="48.143821874656524" lon="11.732822878370477"><ele>525.25</ele><time>2026-04-18T13:34:19.001Z</time></trkpt><trkpt lat="48.14372768663753" lon="11.732917026935931"><ele>525.0</ele><time>2026-04-18T13:34:20.001Z</time></trkpt><trkpt lat="48.14365155657498" lon="11.73304236046932"><ele>524.75</ele><time>2026-04-18T13:34:21.001Z</time></trkpt><trkpt lat="48.143562993580716" lon="11.733147785177005"><ele>524.5</ele><time>2026-04-18T13:34:22.001Z</time></trkpt><trkpt lat="48.14347489435446" lon="11.733255157053456"><ele>524.25</ele><time>2026-04-18T13:34:23.001Z</time></trkpt><trkpt lat="48.14339143883653" lon="11.733373174342052"><ele>524.0</ele><time>2026-04-18T13:34:24.001Z</time></trkpt><trkpt lat="48.14330291555788" lon="11.733483255205977"><ele>524.5</ele><time>2026-04-18T13:34:25.001Z</time></trkpt><trkpt lat="48.14321585357627" lon="11.733598356277001"><ele>525.0</ele><time>2026-04-18T13:34:26Z</time></trkpt><trkpt lat="48.143128883381834" lon="11.733710069973318"><ele>525.5</ele><time>2026-04-18T13:34:27Z</time></trkpt><trkpt lat="48.143042501468656" lon="11.733817273424613"><ele>526.0</ele><time>2026-04-18T13:34:28Z</time></trkpt><trkpt lat="48.14296869989547" lon="11.733938769764222"><ele>526.0</ele><time>2026-04-18T13:34:29Z</time></trkpt><trkpt lat="48.142874905789554" lon="11.734017612567637"><ele>526.0</ele><time>2026-04-18T13:34:30Z</time></trkpt><trkpt lat="48.14280145902848" lon="11.734133140215288"><ele>526.0</ele><time>2026-04-18T13:34:31Z</time></trkpt><trkpt lat="48.14271365556535" lon="11.734225528630068"><ele>526.0</ele><time>2026-04-18T13:34:32Z</time></trkpt><trkpt lat="48.142619408919906" lon="11.734318926648903"><ele>526.0</ele><time>2026-04-18T13:34:33Z</time></trkpt><trkpt lat="48.14252122503312" lon="11.734415123360453"><ele>526.0</ele><time>2026-04-18T13:34:34Z</time></trkpt><trkpt lat="48.14242325130639" lon="11.734509978433783"><ele>526.0</ele><time>2026-04-18T13:34:35Z</time></trkpt><trkpt lat="48.142327476179766" lon="11.734600960674648"><ele>526.0</ele><time>2026-04-18T13:34:36Z</time></trkpt><trkpt lat="48.1422334145082" lon="11.734691709288597"><ele>526.0</ele><time>2026-04-18T13:34:37Z</time></trkpt><trkpt lat="48.14213902290698" lon="11.734780743972115"><ele>526.2</ele><time>2026-04-18T13:34:38Z</time></trkpt><trkpt lat="48.14204409883961" lon="11.734864818264123"><ele>526.4000000000001</ele><time>2026-04-18T13:34:39Z</time></trkpt><trkpt lat="48.14194953122347" lon="11.734948922705584"><ele>526.6</ele><time>2026-04-18T13:34:40Z</time></trkpt><trkpt lat="48.14185292472585" lon="11.735026687450901"><ele>526.8000000000001</ele><time>2026-04-18T13:34:41Z</time></trkpt><trkpt lat="48.14175400571063" lon="11.73510124919022"><ele>527.0</ele><time>2026-04-18T13:34:42Z</time></trkpt><trkpt lat="48.14165371793644" lon="11.735177890139031"><ele>527.0</ele><time>2026-04-18T13:34:43Z</time></trkpt><trkpt lat="48.14155215047211" lon="11.735254392194008"><ele>527.0</ele><time>2026-04-18T13:34:44Z</time></trkpt><trkpt lat="48.141446500338226" lon="11.735330991475312"><ele>527.0</ele><time>2026-04-18T13:34:45Z</time></trkpt><trkpt lat="48.14133210010088" lon="11.735402731197896"><ele>527.0</ele><time>2026-04-18T13:34:46Z</time></trkpt><trkpt lat="48.14120656437594" lon="11.735472478025978"><ele>526.75</ele><time>2026-04-18T13:34:47Z</time></trkpt><trkpt lat="48.14107322667344" lon="11.73554682778066"><ele>526.5</ele><time>2026-04-18T13:34:48Z</time></trkpt><trkpt lat="48.1409380036687" lon="11.735617636860672"><ele>526.25</ele><time>2026-04-18T13:34:49Z</time></trkpt><trkpt lat="48.14080370646083" lon="11.73568694193246"><ele>526.0</ele><time>2026-04-18T13:34:50Z</time></trkpt><trkpt lat="48.14066531208431" lon="11.735751644303555"><ele>526.0</ele><time>2026-04-18T13:34:51Z</time></trkpt><trkpt lat="48.14052047275253" lon="11.735792496579668"><ele>526.0</ele><time>2026-04-18T13:34:52Z</time></trkpt><trkpt lat="48.14037531828796" lon="11.735843265414623"><ele>526.0</ele><time>2026-04-18T13:34:53Z</time></trkpt><trkpt lat="48.14023128458554" lon="11.735914083905568"><ele>526.0</ele><time>2026-04-18T13:34:54Z</time></trkpt><trkpt lat="48.140081162906" lon="11.735963353465129"><ele>526.0</ele><time>2026-04-18T13:34:55Z</time></trkpt><trkpt lat="48.13993513711521" lon="11.735996256696657"><ele>526.0</ele><time>2026-04-18T13:34:56Z</time></trkpt><trkpt lat="48.13979339148304" lon="11.736026646304545"><ele>526.0</ele><time>2026-04-18T13:34:57Z</time></trkpt><trkpt lat="48.13965511656458" lon="11.736049094274822"><ele>526.0</ele><time>2026-04-18T13:34:58Z</time></trkpt><trkpt lat="48.139519513128405" lon="11.736066776086908"><ele>526.0</ele><time>2026-04-18T13:34:59Z</time></trkpt><trkpt lat="48.139394405950846" lon="11.73608205018407"><ele>526.0</ele><time>2026-04-18T13:35:00Z</time></trkpt><trkpt lat="48.13927932697965" lon="11.736095486904262"><ele>526.0</ele><time>2026-04-18T13:35:01Z</time></trkpt><trkpt lat="48.13918211347631" lon="11.736104456243563"><ele>526.0</ele><time>2026-04-18T13:35:02Z</time></trkpt><trkpt lat="48.13910758489881" lon="11.736104820478088"><ele>526.0</ele><time>2026-04-18T13:35:03Z</time></trkpt><trkpt lat="48.1390435499424" lon="11.736102712272539"><ele>526.1666666666667</ele><time>2026-04-18T13:35:04Z</time></trkpt><trkpt lat="48.13893758048245" lon="11.736099503922873"><ele>526.3333333333334</ele><time>2026-04-18T13:35:06Z</time></trkpt><trkpt lat="48.13884356222075" lon="11.736001800136409"><ele>526.5</ele><time>2026-04-18T13:35:08Z</time></trkpt><trkpt lat="48.138799481664755" lon="11.735923242707793"><ele>526.6666666666666</ele><time>2026-04-18T13:35:09Z</time></trkpt><trkpt lat="48.13873179064639" lon="11.735908318081837"><ele>526.8333333333333</ele><time>2026-04-18T13:35:10Z</time></trkpt><trkpt lat="48.138663898237475" lon="11.73595274341553"><ele>527.0</ele><time>2026-04-18T13:35:11Z</time></trkpt><trkpt lat="48.13860390781151" lon="11.736023835322943"><ele>527.0</ele><time>2026-04-18T13:35:12Z</time></trkpt><trkpt lat="48.138532440545966" lon="11.736082081955466"><ele>527.0</ele><time>2026-04-18T13:35:13Z</time></trkpt><trkpt lat="48.138440573530225" lon="11.73608809809281"><ele>527.0</ele><time>2026-04-18T13:35:14Z</time></trkpt><trkpt lat="48.138330772781664" lon="11.736097534378661"><ele>527.0</ele><time>2026-04-18T13:35:15Z</time></trkpt><trkpt lat="48.13819534904602" lon="11.736111320376576"><ele>527.0</ele><time>2026-04-18T13:35:16Z</time></trkpt><trkpt lat="48.13804647000112" lon="11.736108322637785"><ele>527.0</ele><time>2026-04-18T13:35:17Z</time></trkpt><trkpt lat="48.137908060102625" lon="11.736100969469444"><ele>527.0</ele><time>2026-04-18T13:35:18Z</time></trkpt><trkpt lat="48.137773006046956" lon="11.736098353856873"><ele>527.0</ele><time>2026-04-18T13:35:19Z</time></trkpt><trkpt lat="48.137627415285024" lon="11.736092093416197"><ele>527.0</ele><time>2026-04-18T13:35:20Z</time></trkpt><trkpt lat="48.137469918429225" lon="11.736084503788124"><ele>528.0</ele><time>2026-04-18T13:35:21Z</time></trkpt><trkpt lat="48.13729884808188" lon="11.736079840674305"><ele>529.0</ele><time>2026-04-18T13:35:22Z</time></trkpt><trkpt lat="48.137130574559386" lon="11.736077012336983"><ele>530.0</ele><time>2026-04-18T13:35:23Z</time></trkpt><trkpt lat="48.13697126079129" lon="11.736071455091869"><ele>530.0</ele><time>2026-04-18T13:35:24Z</time></trkpt><trkpt lat="48.13680490966785" lon="11.736065940957273"><ele>530.0</ele><time>2026-04-18T13:35:25Z</time></trkpt><trkpt lat="48.136633983520845" lon="11.736064665157846"><ele>530.0</ele><time>2026-04-18T13:35:26Z</time></trkpt><trkpt lat="48.1364645165608" lon="11.736065123830475"><ele>530.3333333333333</ele><time>2026-04-18T13:35:27Z</time></trkpt><trkpt lat="48.13629477932973" lon="11.736067381588935"><ele>530.6666666666666</ele><time>2026-04-18T13:35:28Z</time></trkpt><trkpt lat="48.1361220039311" lon="11.736073628858414"><ele>531.0</ele><time>2026-04-18T13:35:29Z</time></trkpt><trkpt lat="48.13594836939093" lon="11.736083921915066"><ele>531.0</ele><time>2026-04-18T13:35:30Z</time></trkpt><trkpt lat="48.13577408911856" lon="11.736105351774833"><ele>531.0</ele><time>2026-04-18T13:35:31Z</time></trkpt><trkpt lat="48.135591937504884" lon="11.736142589853094"><ele>531.0</ele><time>2026-04-18T13:35:32Z</time></trkpt><trkpt lat="48.13541542210293" lon="11.736178848815173"><ele>531.3333333333334</ele><time>2026-04-18T13:35:33Z</time></trkpt><trkpt lat="48.13524661680461" lon="11.736214887503573"><ele>531.6666666666667</ele><time>2026-04-18T13:35:34Z</time></trkpt><trkpt lat="48.13508480369425" lon="11.736256764117492"><ele>532.0</ele><time>2026-04-18T13:35:35Z</time></trkpt><trkpt lat="48.134929799617304" lon="11.73630253750969"><ele>531.3333333333334</ele><time>2026-04-18T13:35:36Z</time></trkpt><trkpt lat="48.13477679209001" lon="11.736355269360889"><ele>530.6666666666666</ele><time>2026-04-18T13:35:37Z</time></trkpt><trkpt lat="48.13460538308308" lon="11.736407489376067"><ele>530.0</ele><time>2026-04-18T13:35:38Z</time></trkpt><trkpt lat="48.134421177968015" lon="11.736462037128735"><ele>530.0</ele><time>2026-04-18T13:35:39Z</time></trkpt><trkpt lat="48.134236166406296" lon="11.736533818134276"><ele>530.0</ele><time>2026-04-18T13:35:40Z</time></trkpt><trkpt lat="48.13409495950008" lon="11.736672101837273"><ele>530.0</ele><time>2026-04-18T13:35:41Z</time></trkpt><trkpt lat="48.13395248266379" lon="11.736753113870062"><ele>530.0</ele><time>2026-04-18T13:35:42Z</time></trkpt><trkpt lat="48.1338289234265" lon="11.736831168664331"><ele>530.0</ele><time>2026-04-18T13:35:43Z</time></trkpt><trkpt lat="48.133720502515374" lon="11.736902657698968"><ele>530.0</ele><time>2026-04-18T13:35:44Z</time></trkpt><trkpt lat="48.13361751467808" lon="11.736971197011641"><ele>530.0</ele><time>2026-04-18T13:35:45Z</time></trkpt><trkpt lat="48.13351965546303" lon="11.737033870844348"><ele>530.0</ele><time>2026-04-18T13:35:46Z</time></trkpt><trkpt lat="48.13342993277832" lon="11.737095593190169"><ele>530.0</ele><time>2026-04-18T13:35:47Z</time></trkpt><trkpt lat="48.13334286875495" lon="11.737156930013613"><ele>530.0</ele><time>2026-04-18T13:35:48Z</time></trkpt><trkpt lat="48.133254914431625" lon="11.737217861044092"><ele>530.0</ele><time>2026-04-18T13:35:49Z</time></trkpt><trkpt lat="48.13316586555424" lon="11.737283276441827"><ele>530.0</ele><time>2026-04-18T13:35:50Z</time></trkpt><trkpt lat="48.13306930754334" lon="11.737361829495896"><ele>530.5</ele><time>2026-04-18T13:35:51Z</time></trkpt><trkpt lat="48.13296098735381" lon="11.737448087706627"><ele>531.0</ele><time>2026-04-18T13:35:52.001Z</time></trkpt><trkpt lat="48.13284998732494" lon="11.737530702947616"><ele>531.5</ele><time>2026-04-18T13:35:53.001Z</time></trkpt><trkpt lat="48.132744548761515" lon="11.737611551311288"><ele>532.0</ele><time>2026-04-18T13:35:54.001Z</time></trkpt><trkpt lat="48.13264396198746" lon="11.737693175538219"><ele>532.0</ele><time>2026-04-18T13:35:55.001Z</time></trkpt><trkpt lat="48.132542199427625" lon="11.737771013210175"><ele>532.0</ele><time>2026-04-18T13:35:56.001Z</time></trkpt><trkpt lat="48.132445431221974" lon="11.737857695020246"><ele>532.0</ele><time>2026-04-18T13:35:57.001Z</time></trkpt><trkpt lat="48.13235649934328" lon="11.737935000735632"><ele>532.0</ele><time>2026-04-18T13:35:58.001Z</time></trkpt><trkpt lat="48.13227451633018" lon="11.73800042387065"><ele>532.0</ele><time>2026-04-18T13:35:59.001Z</time></trkpt><trkpt lat="48.13220049407802" lon="11.738061398638413"><ele>532.0</ele><time>2026-04-18T13:36:00.001Z</time></trkpt><trkpt lat="48.132133927864764" lon="11.738116988961513"><ele>532.0</ele><time>2026-04-18T13:36:01.001Z</time></trkpt><trkpt lat="48.13207178667001" lon="11.73816822433816"><ele>532.0</ele><time>2026-04-18T13:36:02.001Z</time></trkpt><trkpt lat="48.13201085244879" lon="11.73821964667665"><ele>532.0</ele><time>2026-04-18T13:36:03.001Z</time></trkpt><trkpt lat="48.13190911915829" lon="11.738304870858554"><ele>532.0</ele><time>2026-04-18T13:36:05.001Z</time></trkpt><trkpt lat="48.13182172729471" lon="11.738369424262771"><ele>532.0</ele><time>2026-04-18T13:36:07.001Z</time></trkpt><trkpt lat="48.131737933279275" lon="11.738426958495495"><ele>532.0</ele><time>2026-04-18T13:36:09.001Z</time></trkpt><trkpt lat="48.13167845565463" lon="11.738469095960047"><ele>532.0</ele><time>2026-04-18T13:36:10.001Z</time></trkpt><trkpt lat="48.13160734810734" lon="11.738524295854955"><ele>532.0</ele><time>2026-04-18T13:36:11.001Z</time></trkpt><trkpt lat="48.131517177291606" lon="11.738586774219051"><ele>532.0</ele><time>2026-04-18T13:36:12.001Z</time></trkpt><trkpt lat="48.13141862657674" lon="11.738647693995745"><ele>532.0</ele><time>2026-04-18T13:36:13.001Z</time></trkpt><trkpt lat="48.131325439589915" lon="11.738709492927457"><ele>532.4</ele><time>2026-04-18T13:36:14.001Z</time></trkpt><trkpt lat="48.13122847729451" lon="11.738767430132874"><ele>532.8000000000001</ele><time>2026-04-18T13:36:15.001Z</time></trkpt><trkpt lat="48.13112941275291" lon="11.738833238120675"><ele>533.2</ele><time>2026-04-18T13:36:16.001Z</time></trkpt><trkpt lat="48.13103191366164" lon="11.738910980923839"><ele>533.6</ele><time>2026-04-18T13:36:17.001Z</time></trkpt><trkpt lat="48.13092387613535" lon="11.738986356137023"><ele>534.0</ele><time>2026-04-18T13:36:18.001Z</time></trkpt><trkpt lat="48.130814587621124" lon="11.739071802321583"><ele>534.0</ele><time>2026-04-18T13:36:19.001Z</time></trkpt><trkpt lat="48.130709186181925" lon="11.739133248492061"><ele>534.0</ele><time>2026-04-18T13:36:20.001Z</time></trkpt><trkpt lat="48.130603137990086" lon="11.739187790542013"><ele>534.0</ele><time>2026-04-18T13:36:21.001Z</time></trkpt><trkpt lat="48.13050287783496" lon="11.739243018089395"><ele>534.0</ele><time>2026-04-18T13:36:22.001Z</time></trkpt><trkpt lat="48.130408027318545" lon="11.73929960379648"><ele>534.0</ele><time>2026-04-18T13:36:23.001Z</time></trkpt><trkpt lat="48.13031301322884" lon="11.739354732042507"><ele>534.0</ele><time>2026-04-18T13:36:24.001Z</time></trkpt><trkpt lat="48.130215068371236" lon="11.739411586242761"><ele>534.0</ele><time>2026-04-18T13:36:25.001Z</time></trkpt><trkpt lat="48.13011192669379" lon="11.73946855440765"><ele>534.0</ele><time>2026-04-18T13:36:26.001Z</time></trkpt><trkpt lat="48.130000093349324" lon="11.739532049161843"><ele>534.0</ele><time>2026-04-18T13:36:27.001Z</time></trkpt><trkpt lat="48.12988425391185" lon="11.739595828389902"><ele>533.75</ele><time>2026-04-18T13:36:28.001Z</time></trkpt><trkpt lat="48.129769797169985" lon="11.739660798816953"><ele>533.5</ele><time>2026-04-18T13:36:29.001Z</time></trkpt><trkpt lat="48.12965687067983" lon="11.73972337716216"><ele>533.25</ele><time>2026-04-18T13:36:30.001Z</time></trkpt><trkpt lat="48.12954811176579" lon="11.739780881892385"><ele>533.0</ele><time>2026-04-18T13:36:31.001Z</time></trkpt><trkpt lat="48.129442661973776" lon="11.739841074296187"><ele>533.0</ele><time>2026-04-18T13:36:32Z</time></trkpt><trkpt lat="48.12933688448521" lon="11.73990066411327"><ele>533.0</ele><time>2026-04-18T13:36:33Z</time></trkpt><trkpt lat="48.12922740958138" lon="11.73993201811688"><ele>533.0</ele><time>2026-04-18T13:36:34Z</time></trkpt><trkpt lat="48.12912995445735" lon="11.740007392382047"><ele>533.0</ele><time>2026-04-18T13:36:35Z</time></trkpt><trkpt lat="48.129026759104846" lon="11.740060313435622"><ele>533.0</ele><time>2026-04-18T13:36:36Z</time></trkpt><trkpt lat="48.12892485929613" lon="11.740116060157789"><ele>533.1999999999999</ele><time>2026-04-18T13:36:37Z</time></trkpt><trkpt lat="48.128820579687215" lon="11.740170179022433"><ele>533.4</ele><time>2026-04-18T13:36:38Z</time></trkpt><trkpt lat="48.12871737259954" lon="11.740228402129837"><ele>533.5999999999999</ele><time>2026-04-18T13:36:39Z</time></trkpt><trkpt lat="48.12861390936627" lon="11.740282108504822"><ele>533.8</ele><time>2026-04-18T13:36:40Z</time></trkpt><trkpt lat="48.12850709445183" lon="11.740336437434225"><ele>534.0</ele><time>2026-04-18T13:36:41Z</time></trkpt><trkpt lat="48.12839954692755" lon="11.740381379686008"><ele>534.0</ele><time>2026-04-18T13:36:42Z</time></trkpt><trkpt lat="48.128292563129776" lon="11.740431044795962"><ele>534.0</ele><time>2026-04-18T13:36:43Z</time></trkpt><trkpt lat="48.12818539110363" lon="11.740493367277596"><ele>534.0</ele><time>2026-04-18T13:36:44Z</time></trkpt><trkpt lat="48.12808211872673" lon="11.740571214332299"><ele>534.0</ele><time>2026-04-18T13:36:45Z</time></trkpt><trkpt lat="48.12798587376457" lon="11.740658114243983"><ele>534.0</ele><time>2026-04-18T13:36:46Z</time></trkpt><trkpt lat="48.12789198883997" lon="11.740754951195479"><ele>534.0</ele><time>2026-04-18T13:36:47Z</time></trkpt><trkpt lat="48.127796127578506" lon="11.740840142168945"><ele>534.0</ele><time>2026-04-18T13:36:48Z</time></trkpt><trkpt lat="48.127697211480786" lon="11.740917067759277"><ele>534.0</ele><time>2026-04-18T13:36:49Z</time></trkpt><trkpt lat="48.12759545058619" lon="11.74098274379936"><ele>534.0</ele><time>2026-04-18T13:36:50Z</time></trkpt><trkpt lat="48.1274912005824" lon="11.741032110926078"><ele>534.0</ele><time>2026-04-18T13:36:51Z</time></trkpt><trkpt lat="48.127385503666595" lon="11.741073449571124"><ele>534.0</ele><time>2026-04-18T13:36:52Z</time></trkpt><trkpt lat="48.12727780277471" lon="11.74109739179327"><ele>534.0</ele><time>2026-04-18T13:36:53Z</time></trkpt><trkpt lat="48.127169130936664" lon="11.741115930576202"><ele>534.0</ele><time>2026-04-18T13:36:54Z</time></trkpt><trkpt lat="48.12706039045244" lon="11.741126025335186"><ele>534.0</ele><time>2026-04-18T13:36:55Z</time></trkpt><trkpt lat="48.12695022494098" lon="11.741139105209683"><ele>534.0</ele><time>2026-04-18T13:36:56Z</time></trkpt><trkpt lat="48.12683982088953" lon="11.741154494165224"><ele>534.0</ele><time>2026-04-18T13:36:57Z</time></trkpt><trkpt lat="48.126729825143194" lon="11.741161646201162"><ele>534.0</ele><time>2026-04-18T13:36:58Z</time></trkpt><trkpt lat="48.12661888430206" lon="11.741176381705513"><ele>534.0</ele><time>2026-04-18T13:36:59Z</time></trkpt><trkpt lat="48.12651401842986" lon="11.741182748847912"><ele>534.0</ele><time>2026-04-18T13:37:00Z</time></trkpt><trkpt lat="48.12641178553573" lon="11.741193547387795"><ele>533.8</ele><time>2026-04-18T13:37:01Z</time></trkpt><trkpt lat="48.126308569247385" lon="11.741197858920387"><ele>533.5999999999999</ele><time>2026-04-18T13:37:02Z</time></trkpt><trkpt lat="48.12620122669806" lon="11.741201570413757"><ele>533.4</ele><time>2026-04-18T13:37:03Z</time></trkpt><trkpt lat="48.12608522075584" lon="11.74120680256621"><ele>533.1999999999999</ele><time>2026-04-18T13:37:04Z</time></trkpt><trkpt lat="48.12596590279383" lon="11.741225214041444"><ele>533.0</ele><time>2026-04-18T13:37:05Z</time></trkpt><trkpt lat="48.125845491583156" lon="11.741233930668429"><ele>533.25</ele><time>2026-04-18T13:37:06Z</time></trkpt><trkpt lat="48.12572275268583" lon="11.74125457417996"><ele>533.5</ele><time>2026-04-18T13:37:07Z</time></trkpt><trkpt lat="48.12560462851238" lon="11.741264344926812"><ele>533.75</ele><time>2026-04-18T13:37:08Z</time></trkpt><trkpt lat="48.12550026871183" lon="11.741279370271025"><ele>534.0</ele><time>2026-04-18T13:37:09Z</time></trkpt><trkpt lat="48.12539576906646" lon="11.74129152942499"><ele>534.0</ele><time>2026-04-18T13:37:10Z</time></trkpt><trkpt lat="48.12528567742083" lon="11.741311934479885"><ele>534.0</ele><time>2026-04-18T13:37:11Z</time></trkpt><trkpt lat="48.1251682466398" lon="11.741335443917272"><ele>534.0</ele><time>2026-04-18T13:37:12Z</time></trkpt><trkpt lat="48.125045280770394" lon="11.741355722580565"><ele>534.0</ele><time>2026-04-18T13:37:13Z</time></trkpt><trkpt lat="48.1249221967871" lon="11.741370614810522"><ele>534.25</ele><time>2026-04-18T13:37:14Z</time></trkpt><trkpt lat="48.124794172660266" lon="11.7413899275194"><ele>534.5</ele><time>2026-04-18T13:37:15Z</time></trkpt><trkpt lat="48.12464973956252" lon="11.741406482588383"><ele>534.75</ele><time>2026-04-18T13:37:16Z</time></trkpt><trkpt lat="48.12448478771742" lon="11.74143114875884"><ele>535.0</ele><time>2026-04-18T13:37:17Z</time></trkpt><trkpt lat="48.12432684822786" lon="11.741460447494456"><ele>535.0</ele><time>2026-04-18T13:37:18Z</time></trkpt><trkpt lat="48.12418066630565" lon="11.741495031959678"><ele>535.0</ele><time>2026-04-18T13:37:19Z</time></trkpt><trkpt lat="48.124030189759765" lon="11.741524294757786"><ele>535.0</ele><time>2026-04-18T13:37:20Z</time></trkpt><trkpt lat="48.12387709668948" lon="11.74155736658184"><ele>534.6666666666667</ele><time>2026-04-18T13:37:21Z</time></trkpt><trkpt lat="48.1237178512126" lon="11.741596405405916"><ele>534.3333333333334</ele><time>2026-04-18T13:37:22Z</time></trkpt><trkpt lat="48.12355684261061" lon="11.741644439449372"><ele>534.0</ele><time>2026-04-18T13:37:23Z</time></trkpt><trkpt lat="48.12339213904005" lon="11.741696502181412"><ele>534.3333333333334</ele><time>2026-04-18T13:37:24Z</time></trkpt><trkpt lat="48.12322847613058" lon="11.741754678692624"><ele>534.6666666666667</ele><time>2026-04-18T13:37:25Z</time></trkpt><trkpt lat="48.12306413933293" lon="11.74181060943847"><ele>535.0</ele><time>2026-04-18T13:37:26Z</time></trkpt><trkpt lat="48.122895618810546" lon="11.741869669469807"><ele>535.3333333333334</ele><time>2026-04-18T13:37:27Z</time></trkpt><trkpt lat="48.12273093634618" lon="11.74193177656628"><ele>535.6666666666666</ele><time>2026-04-18T13:37:28Z</time></trkpt><trkpt lat="48.122568687089256" lon="11.741993778680495"><ele>536.0</ele><time>2026-04-18T13:37:29Z</time></trkpt><trkpt lat="48.12240763746641" lon="11.74205571071885"><ele>535.3333333333333</ele><time>2026-04-18T13:37:30Z</time></trkpt><trkpt lat="48.12225320927663" lon="11.742118137808994"><ele>534.6666666666666</ele><time>2026-04-18T13:37:31Z</time></trkpt><trkpt lat="48.12209864119175" lon="11.742177016683051"><ele>534.0</ele><time>2026-04-18T13:37:32Z</time></trkpt><trkpt lat="48.121950014187284" lon="11.742234457034096"><ele>534.0</ele><time>2026-04-18T13:37:33.001Z</time></trkpt><trkpt lat="48.12180484277396" lon="11.742289640626941"><ele>534.0</ele><time>2026-04-18T13:37:34.001Z</time></trkpt><trkpt lat="48.12166235035563" lon="11.742344715034179"><ele>534.0</ele><time>2026-04-18T13:37:35.001Z</time></trkpt><trkpt lat="48.12153025541444" lon="11.742391815132299"><ele>534.0</ele><time>2026-04-18T13:37:36.001Z</time></trkpt><trkpt lat="48.121401770107774" lon="11.742435544194349"><ele>534.2</ele><time>2026-04-18T13:37:37.001Z</time></trkpt><trkpt lat="48.12128116564861" lon="11.74247634128619"><ele>534.4</ele><time>2026-04-18T13:37:38.001Z</time></trkpt><trkpt lat="48.121169307993135" lon="11.742510524845864"><ele>534.6</ele><time>2026-04-18T13:37:39.001Z</time></trkpt><trkpt lat="48.12106714639084" lon="11.742539809558272"><ele>534.8</ele><time>2026-04-18T13:37:40.001Z</time></trkpt><trkpt lat="48.12097097744435" lon="11.74256617551361"><ele>535.0</ele><time>2026-04-18T13:37:41.001Z</time></trkpt><trkpt lat="48.1208739958026" lon="11.742590746328196"><ele>535.0</ele><time>2026-04-18T13:37:42.001Z</time></trkpt><trkpt lat="48.120779657921815" lon="11.742615427321157"><ele>535.0</ele><time>2026-04-18T13:37:43.001Z</time></trkpt><trkpt lat="48.12068385539364" lon="11.742635399053665"><ele>535.0</ele><time>2026-04-18T13:37:44.001Z</time></trkpt><trkpt lat="48.12058552917176" lon="11.742653425007433"><ele>535.0</ele><time>2026-04-18T13:37:45.001Z</time></trkpt><trkpt lat="48.120484911484844" lon="11.742675658633008"><ele>535.0</ele><time>2026-04-18T13:37:46.001Z</time></trkpt><trkpt lat="48.120381130064565" lon="11.74269520397316"><ele>535.8</ele><time>2026-04-18T13:37:47.001Z</time></trkpt><trkpt lat="48.120273150518585" lon="11.742720397560628"><ele>536.6</ele><time>2026-04-18T13:37:48.001Z</time></trkpt><trkpt lat="48.12016030933398" lon="11.742738354194632"><ele>537.4</ele><time>2026-04-18T13:37:49.001Z</time></trkpt><trkpt lat="48.12005171711872" lon="11.742769038568545"><ele>538.2</ele><time>2026-04-18T13:37:50.001Z</time></trkpt><trkpt lat="48.11993940546077" lon="11.742782103187439"><ele>539.0</ele><time>2026-04-18T13:37:51.001Z</time></trkpt><trkpt lat="48.11982948714436" lon="11.742803583452426"><ele>539.0</ele><time>2026-04-18T13:37:52.001Z</time></trkpt><trkpt lat="48.1197193924921" lon="11.742817459528444"><ele>539.0</ele><time>2026-04-18T13:37:53.001Z</time></trkpt><trkpt lat="48.11961418929237" lon="11.742833392458397"><ele>539.0</ele><time>2026-04-18T13:37:54.001Z</time></trkpt><trkpt lat="48.119504689698566" lon="11.74284455561389"><ele>539.0</ele><time>2026-04-18T13:37:55.001Z</time></trkpt><trkpt lat="48.11940151773335" lon="11.742871074513008"><ele>539.0</ele><time>2026-04-18T13:37:56.001Z</time></trkpt><trkpt lat="48.11929885463904" lon="11.742897187025424"><ele>539.0</ele><time>2026-04-18T13:37:57.001Z</time></trkpt><trkpt lat="48.119196537627374" lon="11.742912082484512"><ele>539.0</ele><time>2026-04-18T13:37:58.001Z</time></trkpt><trkpt lat="48.11909415694543" lon="11.742926146043706"><ele>539.0</ele><time>2026-04-18T13:37:59.001Z</time></trkpt><trkpt lat="48.1189932290722" lon="11.742939374887385"><ele>539.0</ele><time>2026-04-18T13:38:00.001Z</time></trkpt><trkpt lat="48.11889144619605" lon="11.742944815461327"><ele>539.0</ele><time>2026-04-18T13:38:01.001Z</time></trkpt><trkpt lat="48.11878827970257" lon="11.742948531687444"><ele>539.25</ele><time>2026-04-18T13:38:02.001Z</time></trkpt><trkpt lat="48.11867697955612" lon="11.74295444025447"><ele>539.5</ele><time>2026-04-18T13:38:03.001Z</time></trkpt><trkpt lat="48.1185615195436" lon="11.7429552022269"><ele>539.75</ele><time>2026-04-18T13:38:04.001Z</time></trkpt><trkpt lat="48.11844562926158" lon="11.742954855531574"><ele>540.0</ele><time>2026-04-18T13:38:05.001Z</time></trkpt><trkpt lat="48.11833138321264" lon="11.742956441955899"><ele>540.4</ele><time>2026-04-18T13:38:06.001Z</time></trkpt><trkpt lat="48.118218096774726" lon="11.742956160058771"><ele>540.8</ele><time>2026-04-18T13:38:07.001Z</time></trkpt><trkpt lat="48.11810741076417" lon="11.742951723165257"><ele>541.2</ele><time>2026-04-18T13:38:08.001Z</time></trkpt><trkpt lat="48.1179974439578" lon="11.742945342488321"><ele>541.6</ele><time>2026-04-18T13:38:09.001Z</time></trkpt><trkpt lat="48.11789358868707" lon="11.742941530866725"><ele>542.0</ele><time>2026-04-18T13:38:10.001Z</time></trkpt><trkpt lat="48.11779426823765" lon="11.74293981096373"><ele>542.0</ele><time>2026-04-18T13:38:11.001Z</time></trkpt><trkpt lat="48.11769586055871" lon="11.742936650563854"><ele>542.0</ele><time>2026-04-18T13:38:12.001Z</time></trkpt><trkpt lat="48.11760044974623" lon="11.742933735930597"><ele>542.0</ele><time>2026-04-18T13:38:13.001Z</time></trkpt><trkpt lat="48.11751443826112" lon="11.74292995383788"><ele>542.0</ele><time>2026-04-18T13:38:14.001Z</time></trkpt><trkpt lat="48.117433472427315" lon="11.742925801569232"><ele>542.0</ele><time>2026-04-18T13:38:15.001Z</time></trkpt><trkpt lat="48.117358281103876" lon="11.742922919859655"><ele>542.0</ele><time>2026-04-18T13:38:16.001Z</time></trkpt><trkpt lat="48.117288220712695" lon="11.742923809667634"><ele>541.8333333333333</ele><time>2026-04-18T13:38:17.001Z</time></trkpt><trkpt lat="48.11722358263345" lon="11.742926374656905"><ele>541.6666666666666</ele><time>2026-04-18T13:38:18.001Z</time></trkpt><trkpt lat="48.11711363378558" lon="11.742923115903677"><ele>541.5</ele><time>2026-04-18T13:38:20.001Z</time></trkpt><trkpt lat="48.11703453752425" lon="11.742924030618848"><ele>541.3333333333334</ele><time>2026-04-18T13:38:22.001Z</time></trkpt><trkpt lat="48.11697085557857" lon="11.742936725457973"><ele>541.1666666666667</ele><time>2026-04-18T13:38:24.001Z</time></trkpt><trkpt lat="48.11689732032538" lon="11.74294880243536"><ele>541.0</ele><time>2026-04-18T13:38:27.001Z</time></trkpt><trkpt lat="48.11681784024531" lon="11.742964676686144"><ele>541.0</ele><time>2026-04-18T13:38:43Z</time></trkpt><trkpt lat="48.1166811339388" lon="11.743013949072521"><ele>541.0</ele><time>2026-04-18T13:38:45Z</time></trkpt><trkpt lat="48.11658636453436" lon="11.7430531098726"><ele>541.0</ele><time>2026-04-18T13:38:46Z</time></trkpt><trkpt lat="48.116495558774105" lon="11.74310115844775"><ele>541.0</ele><time>2026-04-18T13:38:47Z</time></trkpt><trkpt lat="48.11640056389843" lon="11.743151859519298"><ele>541.0</ele><time>2026-04-18T13:38:48Z</time></trkpt><trkpt lat="48.116294812267874" lon="11.743211025703324"><ele>541.0</ele><time>2026-04-18T13:38:49Z</time></trkpt><trkpt lat="48.116189350164724" lon="11.743270527369821"><ele>541.0</ele><time>2026-04-18T13:38:50Z</time></trkpt><trkpt lat="48.11608678313068" lon="11.743331155446336"><ele>541.0</ele><time>2026-04-18T13:38:51Z</time></trkpt><trkpt lat="48.11598601332172" lon="11.743389865757244"><ele>541.0</ele><time>2026-04-18T13:38:52Z</time></trkpt><trkpt lat="48.1158831800061" lon="11.74344735230111"><ele>541.0</ele><time>2026-04-18T13:38:53Z</time></trkpt><trkpt lat="48.11577751177348" lon="11.74350850992556"><ele>541.0</ele><time>2026-04-18T13:38:54Z</time></trkpt><trkpt lat="48.1156658252369" lon="11.743547590866571"><ele>541.0</ele><time>2026-04-18T13:38:55Z</time></trkpt><trkpt lat="48.11555995984913" lon="11.743607417689681"><ele>541.0</ele><time>2026-04-18T13:38:56Z</time></trkpt><trkpt lat="48.11545553628877" lon="11.743666104544053"><ele>541.0</ele><time>2026-04-18T13:38:57Z</time></trkpt><trkpt lat="48.1153518817592" lon="11.743723719482032"><ele>541.0</ele><time>2026-04-18T13:38:58Z</time></trkpt><trkpt lat="48.11524859511973" lon="11.743780177633274"><ele>541.0</ele><time>2026-04-18T13:38:59Z</time></trkpt><trkpt lat="48.115147275942086" lon="11.74383431159243"><ele>541.0</ele><time>2026-04-18T13:39:00Z</time></trkpt><trkpt lat="48.11505015007084" lon="11.743904107233343"><ele>541.0</ele><time>2026-04-18T13:39:01Z</time></trkpt><trkpt lat="48.11495104397025" lon="11.743952089453781"><ele>541.0</ele><time>2026-04-18T13:39:02Z</time></trkpt><trkpt lat="48.11484685018549" lon="11.743991176448638"><ele>541.0</ele><time>2026-04-18T13:39:03Z</time></trkpt><trkpt lat="48.114741587139754" lon="11.744028465112955"><ele>541.0</ele><time>2026-04-18T13:39:04.001Z</time></trkpt><trkpt lat="48.1146342063599" lon="11.74406383979058"><ele>541.0</ele><time>2026-04-18T13:39:05.001Z</time></trkpt><trkpt lat="48.11452242115856" lon="11.744092722968142"><ele>541.0</ele><time>2026-04-18T13:39:06.001Z</time></trkpt><trkpt lat="48.11440930302955" lon="11.744116399212155"><ele>541.0</ele><time>2026-04-18T13:39:07.001Z</time></trkpt><trkpt lat="48.11429625127253" lon="11.744132966533124"><ele>541.0</ele><time>2026-04-18T13:39:08.001Z</time></trkpt><trkpt lat="48.11417774836641" lon="11.744142124916474"><ele>541.0</ele><time>2026-04-18T13:39:09.001Z</time></trkpt><trkpt lat="48.11406087532492" lon="11.744146358346235"><ele>541.0</ele><time>2026-04-18T13:39:10.001Z</time></trkpt><trkpt lat="48.1139449577022" lon="11.744140243823255"><ele>541.0</ele><time>2026-04-18T13:39:11.001Z</time></trkpt><trkpt lat="48.113828572683296" lon="11.744128329762713"><ele>540.5</ele><time>2026-04-18T13:39:12.001Z</time></trkpt><trkpt lat="48.11371303150636" lon="11.744116434596501"><ele>540.0</ele><time>2026-04-18T13:39:13.001Z</time></trkpt><trkpt lat="48.11359854463753" lon="11.74410051155361"><ele>539.5</ele><time>2026-04-18T13:39:14.001Z</time></trkpt><trkpt lat="48.11348462937001" lon="11.744083337151423"><ele>539.0</ele><time>2026-04-18T13:39:15.001Z</time></trkpt><trkpt lat="48.11336926524493" lon="11.744059468896484"><ele>539.0</ele><time>2026-04-18T13:39:16.001Z</time></trkpt><trkpt lat="48.113254071819895" lon="11.744020418841414"><ele>539.0</ele><time>2026-04-18T13:39:17.001Z</time></trkpt><trkpt lat="48.113140616146055" lon="11.743994918963756"><ele>539.0</ele><time>2026-04-18T13:39:18.001Z</time></trkpt><trkpt lat="48.1130271895134" lon="11.7439647533809"><ele>539.0</ele><time>2026-04-18T13:39:19.001Z</time></trkpt><trkpt lat="48.11291572220661" lon="11.743931086025945"><ele>539.8</ele><time>2026-04-18T13:39:20.001Z</time></trkpt><trkpt lat="48.112805229395825" lon="11.743891089579026"><ele>540.5999999999999</ele><time>2026-04-18T13:39:21.001Z</time></trkpt><trkpt lat="48.11269686190615" lon="11.743845525546098"><ele>541.4</ele><time>2026-04-18T13:39:22.001Z</time></trkpt><trkpt lat="48.11259011874905" lon="11.74379053697581"><ele>542.1999999999999</ele><time>2026-04-18T13:39:23.001Z</time></trkpt><trkpt lat="48.11249002577032" lon="11.74372714170908"><ele>543.0</ele><time>2026-04-18T13:39:24.001Z</time></trkpt><trkpt lat="48.1123991941207" lon="11.743662291645567"><ele>543.1666666666666</ele><time>2026-04-18T13:39:25.001Z</time></trkpt><trkpt lat="48.11231698129361" lon="11.743607153610805"><ele>543.3333333333334</ele><time>2026-04-18T13:39:26.001Z</time></trkpt><trkpt lat="48.11224428131576" lon="11.743550579752307"><ele>543.5</ele><time>2026-04-18T13:39:27.001Z</time></trkpt><trkpt lat="48.112176351950545" lon="11.743492923556156"><ele>543.6666666666667</ele><time>2026-04-18T13:39:28.001Z</time></trkpt><trkpt lat="48.11211177028881" lon="11.743437088853128"><ele>543.8333333333334</ele><time>2026-04-18T13:39:29.001Z</time></trkpt><trkpt lat="48.11205392177969" lon="11.743385367050392"><ele>544.0</ele><time>2026-04-18T13:39:30.001Z</time></trkpt><trkpt lat="48.11199888583879" lon="11.743335200289096"><ele>543.6666666666667</ele><time>2026-04-18T13:39:31.001Z</time></trkpt><trkpt lat="48.11191473588221" lon="11.743252182743076"><ele>543.3333333333334</ele><time>2026-04-18T13:39:33.001Z</time></trkpt><trkpt lat="48.11185633477294" lon="11.743184152749718"><ele>543.0</ele><time>2026-04-18T13:39:35.001Z</time></trkpt><trkpt lat="48.111791053423715" lon="11.743104344099233"><ele>542.6666666666666</ele><time>2026-04-18T13:39:37.001Z</time></trkpt><trkpt lat="48.111737977451746" lon="11.743036091652387"><ele>542.3333333333333</ele><time>2026-04-18T13:39:38.001Z</time></trkpt><trkpt lat="48.11167105798131" lon="11.742950309291336"><ele>542.0</ele><time>2026-04-18T13:39:39.001Z</time></trkpt><trkpt lat="48.11160193507048" lon="11.742860648374453"><ele>541.8000000000001</ele><time>2026-04-18T13:39:40.001Z</time></trkpt><trkpt lat="48.11152755650473" lon="11.742764259429714"><ele>541.6</ele><time>2026-04-18T13:39:41.001Z</time></trkpt><trkpt lat="48.11144946752591" lon="11.742658667733842"><ele>541.4000000000001</ele><time>2026-04-18T13:39:42.001Z</time></trkpt><trkpt lat="48.11137106274877" lon="11.742552496800476"><ele>541.2</ele><time>2026-04-18T13:39:43.001Z</time></trkpt><trkpt lat="48.111291854118896" lon="11.742444289165231"><ele>541.0</ele><time>2026-04-18T13:39:44.001Z</time></trkpt><trkpt lat="48.11121144989" lon="11.742334896116509"><ele>540.8</ele><time>2026-04-18T13:39:45.001Z</time></trkpt><trkpt lat="48.11113368508352" lon="11.742224521318754"><ele>540.6</ele><time>2026-04-18T13:39:46.001Z</time></trkpt><trkpt lat="48.11105842288049" lon="11.74210668644948"><ele>540.4</ele><time>2026-04-18T13:39:47.001Z</time></trkpt><trkpt lat="48.110983392608624" lon="11.741990248923086"><ele>540.2</ele><time>2026-04-18T13:39:48.001Z</time></trkpt><trkpt lat="48.11090842788628" lon="11.741873788450523"><ele>540.0</ele><time>2026-04-18T13:39:49.001Z</time></trkpt><trkpt lat="48.11083416143885" lon="11.741755015453288"><ele>540.0</ele><time>2026-04-18T13:39:50.001Z</time></trkpt><trkpt lat="48.11075736148113" lon="11.74163376611891"><ele>540.0</ele><time>2026-04-18T13:39:51.001Z</time></trkpt><trkpt lat="48.11067923867573" lon="11.741513039209568"><ele>540.0</ele><time>2026-04-18T13:39:52.001Z</time></trkpt><trkpt lat="48.110602198594975" lon="11.74138899904618"><ele>540.0</ele><time>2026-04-18T13:39:53.001Z</time></trkpt><trkpt lat="48.11052365073393" lon="11.741263151936742"><ele>540.75</ele><time>2026-04-18T13:39:54.001Z</time></trkpt><trkpt lat="48.11044290020939" lon="11.741134999632251"><ele>541.5</ele><time>2026-04-18T13:39:55.001Z</time></trkpt><trkpt lat="48.110361136682485" lon="11.741009699069886"><ele>542.25</ele><time>2026-04-18T13:39:56.001Z</time></trkpt><trkpt lat="48.11027940054853" lon="11.740885150985509"><ele>543.0</ele><time>2026-04-18T13:39:57.001Z</time></trkpt><trkpt lat="48.11019690994484" lon="11.740760111211282"><ele>543.0</ele><time>2026-04-18T13:39:58.001Z</time></trkpt><trkpt lat="48.11011402554978" lon="11.740636924517016"><ele>543.0</ele><time>2026-04-18T13:39:59.001Z</time></trkpt><trkpt lat="48.110029733159934" lon="11.740517188998844"><ele>543.0</ele><time>2026-04-18T13:40:00.001Z</time></trkpt><trkpt lat="48.10994770335218" lon="11.74039868080358"><ele>543.0</ele><time>2026-04-18T13:40:01.001Z</time></trkpt><trkpt lat="48.10986650661231" lon="11.740278667393076"><ele>542.75</ele><time>2026-04-18T13:40:02.001Z</time></trkpt><trkpt lat="48.10978430865707" lon="11.740158435868812"><ele>542.5</ele><time>2026-04-18T13:40:03.001Z</time></trkpt><trkpt lat="48.10970309015119" lon="11.740040984354602"><ele>542.25</ele><time>2026-04-18T13:40:04.001Z</time></trkpt><trkpt lat="48.1096208468152" lon="11.739925303737447"><ele>542.0</ele><time>2026-04-18T13:40:05.001Z</time></trkpt><trkpt lat="48.10953874895568" lon="11.739813979849007"><ele>542.0</ele><time>2026-04-18T13:40:06.001Z</time></trkpt><trkpt lat="48.109458878197195" lon="11.739705602839013"><ele>542.0</ele><time>2026-04-18T13:40:07.001Z</time></trkpt><trkpt lat="48.10937597177661" lon="11.739600431791452"><ele>542.0</ele><time>2026-04-18T13:40:08.001Z</time></trkpt><trkpt lat="48.109291772512634" lon="11.739502326427266"><ele>542.0</ele><time>2026-04-18T13:40:09.001Z</time></trkpt><trkpt lat="48.109209876135914" lon="11.739396683453077"><ele>542.0</ele><time>2026-04-18T13:40:10.001Z</time></trkpt><trkpt lat="48.10913189338041" lon="11.739285236813645"><ele>542.25</ele><time>2026-04-18T13:40:11.001Z</time></trkpt><trkpt lat="48.10903537760323" lon="11.73918863896069"><ele>542.5</ele><time>2026-04-18T13:40:12.001Z</time></trkpt><trkpt lat="48.10894489102677" lon="11.739081300823178"><ele>542.75</ele><time>2026-04-18T13:40:13.001Z</time></trkpt><trkpt lat="48.10885058836279" lon="11.73897699011676"><ele>543.0</ele><time>2026-04-18T13:40:14.001Z</time></trkpt><trkpt lat="48.108759363215626" lon="11.738868529605627"><ele>543.0</ele><time>2026-04-18T13:40:15.001Z</time></trkpt><trkpt lat="48.108670521102376" lon="11.738760605817594"><ele>543.0</ele><time>2026-04-18T13:40:16.001Z</time></trkpt><trkpt lat="48.10858277041785" lon="11.738651711807764"><ele>543.0</ele><time>2026-04-18T13:40:17.001Z</time></trkpt><trkpt lat="48.108493366361266" lon="11.738541602519051"><ele>543.0</ele><time>2026-04-18T13:40:18.001Z</time></trkpt><trkpt lat="48.108401551746034" lon="11.73843887157489"><ele>542.75</ele><time>2026-04-18T13:40:19.001Z</time></trkpt><trkpt lat="48.10830794775756" lon="11.738340462567628"><ele>542.5</ele><time>2026-04-18T13:40:20.001Z</time></trkpt><trkpt lat="48.10821478613698" lon="11.738241205810303"><ele>542.25</ele><time>2026-04-18T13:40:21.001Z</time></trkpt><trkpt lat="48.108121830112154" lon="11.738141534244782"><ele>542.0</ele><time>2026-04-18T13:40:22.001Z</time></trkpt><trkpt lat="48.10803313067928" lon="11.738045880566128"><ele>542.0</ele><time>2026-04-18T13:40:23.001Z</time></trkpt><trkpt lat="48.10794563867354" lon="11.737956605509344"><ele>542.0</ele><time>2026-04-18T13:40:24.001Z</time></trkpt><trkpt lat="48.10786293418446" lon="11.737865954733884"><ele>542.0</ele><time>2026-04-18T13:40:25.001Z</time></trkpt><trkpt lat="48.107778318099804" lon="11.737780800531283"><ele>542.0</ele><time>2026-04-18T13:40:26.001Z</time></trkpt><trkpt lat="48.10769441216135" lon="11.737692141401787"><ele>542.0</ele><time>2026-04-18T13:40:27.001Z</time></trkpt><trkpt lat="48.10760866500893" lon="11.737604571612927"><ele>542.2</ele><time>2026-04-18T13:40:28.001Z</time></trkpt><trkpt lat="48.1075233275259" lon="11.737514583317791"><ele>542.4000000000001</ele><time>2026-04-18T13:40:29.001Z</time></trkpt><trkpt lat="48.10743909338103" lon="11.737429547735443"><ele>542.5999999999999</ele><time>2026-04-18T13:40:30.001Z</time></trkpt><trkpt lat="48.10735518806132" lon="11.737349757215258"><ele>542.8</ele><time>2026-04-18T13:40:31.001Z</time></trkpt><trkpt lat="48.10727176524696" lon="11.737280453952275"><ele>543.0</ele><time>2026-04-18T13:40:32.001Z</time></trkpt><trkpt lat="48.10719069606105" lon="11.737214674552517"><ele>543.0</ele><time>2026-04-18T13:40:33.001Z</time></trkpt><trkpt lat="48.10711522815597" lon="11.737154012824261"><ele>543.0</ele><time>2026-04-18T13:40:34.001Z</time></trkpt><trkpt lat="48.10704358934453" lon="11.73709506172129"><ele>543.0</ele><time>2026-04-18T13:40:35.001Z</time></trkpt><trkpt lat="48.10697329779737" lon="11.737044775729961"><ele>543.0</ele><time>2026-04-18T13:40:36.001Z</time></trkpt><trkpt lat="48.106908196523214" lon="11.736999442887813"><ele>543.0</ele><time>2026-04-18T13:40:37.001Z</time></trkpt><trkpt lat="48.1068506576286" lon="11.73695790980139"><ele>543.0</ele><time>2026-04-18T13:40:38.001Z</time></trkpt><trkpt lat="48.1067458460843" lon="11.73688012609135"><ele>542.8333333333334</ele><time>2026-04-18T13:40:40.001Z</time></trkpt><trkpt lat="48.106652935504684" lon="11.736809389916624"><ele>542.6666666666666</ele><time>2026-04-18T13:40:42.001Z</time></trkpt><trkpt lat="48.10657375580121" lon="11.736741609696507"><ele>542.5</ele><time>2026-04-18T13:40:44.001Z</time></trkpt><trkpt lat="48.106503051145864" lon="11.73668642990202"><ele>542.3333333333333</ele><time>2026-04-18T13:40:46.001Z</time></trkpt><trkpt lat="48.10644265798877" lon="11.736638885411523"><ele>542.1666666666666</ele><time>2026-04-18T13:40:48.001Z</time></trkpt><trkpt lat="48.106377718888126" lon="11.736587701782666"><ele>542.0</ele><time>2026-04-18T13:40:51.001Z</time></trkpt><trkpt lat="48.10630231249653" lon="11.736518349443406"><ele>542.6</ele><time>2026-04-18T13:41:31Z</time></trkpt><trkpt lat="48.10619271647581" lon="11.736425487496733"><ele>543.2</ele><time>2026-04-18T13:41:33Z</time></trkpt><trkpt lat="48.1060825784439" lon="11.736345249560319"><ele>543.8</ele><time>2026-04-18T13:41:35Z</time></trkpt><trkpt lat="48.10600570285016" lon="11.736287160009015"><ele>544.4</ele><time>2026-04-18T13:41:36Z</time></trkpt><trkpt lat="48.10592657822585" lon="11.736233221334977"><ele>545.0</ele><time>2026-04-18T13:41:37Z</time></trkpt><trkpt lat="48.10584366278023" lon="11.736185786111871"><ele>545.0</ele><time>2026-04-18T13:41:38Z</time></trkpt><trkpt lat="48.10575404763444" lon="11.736134921344316"><ele>545.0</ele><time>2026-04-18T13:41:39Z</time></trkpt><trkpt lat="48.10564509211464" lon="11.736062497083173"><ele>545.0</ele><time>2026-04-18T13:41:40Z</time></trkpt><trkpt lat="48.10554755189684" lon="11.735996994996539"><ele>545.0</ele><time>2026-04-18T13:41:41Z</time></trkpt><trkpt lat="48.105458821526454" lon="11.735931261408938"><ele>545.0</ele><time>2026-04-18T13:41:42Z</time></trkpt><trkpt lat="48.105367042636246" lon="11.735863514635504"><ele>545.2</ele><time>2026-04-18T13:41:43Z</time></trkpt><trkpt lat="48.10527279942447" lon="11.735794162650585"><ele>545.4</ele><time>2026-04-18T13:41:44Z</time></trkpt><trkpt lat="48.10517299259747" lon="11.735727644172675"><ele>545.6</ele><time>2026-04-18T13:41:45Z</time></trkpt><trkpt lat="48.105070138461464" lon="11.735652373218102"><ele>545.8</ele><time>2026-04-18T13:41:46Z</time></trkpt><trkpt lat="48.10498038166378" lon="11.73556463309349"><ele>546.0</ele><time>2026-04-18T13:41:47Z</time></trkpt><trkpt lat="48.10489976185724" lon="11.735468333533998"><ele>546.0</ele><time>2026-04-18T13:41:48Z</time></trkpt><trkpt lat="48.104825220101986" lon="11.735366228289237"><ele>546.0</ele><time>2026-04-18T13:41:49Z</time></trkpt><trkpt lat="48.10475291220678" lon="11.735247296498818"><ele>546.0</ele><time>2026-04-18T13:41:50Z</time></trkpt><trkpt lat="48.1046738280508" lon="11.735110015241291"><ele>546.0</ele><time>2026-04-18T13:41:51Z</time></trkpt><trkpt lat="48.10460041009101" lon="11.734978456405369"><ele>546.0</ele><time>2026-04-18T13:41:52Z</time></trkpt><trkpt lat="48.10453443138364" lon="11.734848042713333"><ele>545.8</ele><time>2026-04-18T13:41:53Z</time></trkpt><trkpt lat="48.10446998599391" lon="11.734723005125952"><ele>545.6</ele><time>2026-04-18T13:41:54Z</time></trkpt><trkpt lat="48.10440658863062" lon="11.7346003178708"><ele>545.4</ele><time>2026-04-18T13:41:55Z</time></trkpt><trkpt lat="48.10432862729929" lon="11.734466484767996"><ele>545.2</ele><time>2026-04-18T13:41:56Z</time></trkpt><trkpt lat="48.104248048874645" lon="11.734332425453415"><ele>545.0</ele><time>2026-04-18T13:41:57Z</time></trkpt><trkpt lat="48.10417070198289" lon="11.734206935480206"><ele>545.0</ele><time>2026-04-18T13:41:58Z</time></trkpt><trkpt lat="48.10408981697792" lon="11.734094233664573"><ele>545.0</ele><time>2026-04-18T13:41:59Z</time></trkpt><trkpt lat="48.10400846653835" lon="11.733982261019062"><ele>545.0</ele><time>2026-04-18T13:42:00Z</time></trkpt><trkpt lat="48.10392283580858" lon="11.733878154049311"><ele>545.0</ele><time>2026-04-18T13:42:01Z</time></trkpt><trkpt lat="48.103830799347016" lon="11.733772436337812"><ele>545.0</ele><time>2026-04-18T13:42:02Z</time></trkpt><trkpt lat="48.10373369565617" lon="11.733663172335135"><ele>545.0</ele><time>2026-04-18T13:42:03Z</time></trkpt><trkpt lat="48.10363640620158" lon="11.73356428573991"><ele>545.0</ele><time>2026-04-18T13:42:04Z</time></trkpt><trkpt lat="48.10353725595802" lon="11.733476619587822"><ele>545.0</ele><time>2026-04-18T13:42:05Z</time></trkpt><trkpt lat="48.103437819693625" lon="11.733395622020025"><ele>545.0</ele><time>2026-04-18T13:42:06Z</time></trkpt><trkpt lat="48.10334034210311" lon="11.733316626169966"><ele>545.25</ele><time>2026-04-18T13:42:07Z</time></trkpt><trkpt lat="48.10323922566148" lon="11.73323879446666"><ele>545.5</ele><time>2026-04-18T13:42:08Z</time></trkpt><trkpt lat="48.10313686945168" lon="11.733155648791351"><ele>545.75</ele><time>2026-04-18T13:42:09Z</time></trkpt><trkpt lat="48.103031285907115" lon="11.733073160614698"><ele>546.0</ele><time>2026-04-18T13:42:10Z</time></trkpt><trkpt lat="48.10292877181166" lon="11.732988196096871"><ele>546.0</ele><time>2026-04-18T13:42:11Z</time></trkpt><trkpt lat="48.10283424442221" lon="11.732917491417785"><ele>546.0</ele><time>2026-04-18T13:42:12Z</time></trkpt><trkpt lat="48.10273615907103" lon="11.732838982684857"><ele>546.0</ele><time>2026-04-18T13:42:13Z</time></trkpt><trkpt lat="48.10263978100578" lon="11.732766475578519"><ele>546.0</ele><time>2026-04-18T13:42:14Z</time></trkpt><trkpt lat="48.10254200324177" lon="11.732692170098911"><ele>546.0</ele><time>2026-04-18T13:42:15Z</time></trkpt><trkpt lat="48.102446739480044" lon="11.732613441447443"><ele>545.75</ele><time>2026-04-18T13:42:16Z</time></trkpt><trkpt lat="48.102346327345565" lon="11.732537864778067"><ele>545.5</ele><time>2026-04-18T13:42:17Z</time></trkpt><trkpt lat="48.10224372315468" lon="11.732462024210264"><ele>545.25</ele><time>2026-04-18T13:42:18Z</time></trkpt><trkpt lat="48.10214257352469" lon="11.732368658612351"><ele>545.0</ele><time>2026-04-18T13:42:19Z</time></trkpt><trkpt lat="48.10203980402746" lon="11.732268789145976"><ele>545.0</ele><time>2026-04-18T13:42:20Z</time></trkpt><trkpt lat="48.10194227964773" lon="11.732157373612042"><ele>545.0</ele><time>2026-04-18T13:42:21Z</time></trkpt><trkpt lat="48.10184945632662" lon="11.732048205594987"><ele>545.0</ele><time>2026-04-18T13:42:22Z</time></trkpt><trkpt lat="48.10176027778797" lon="11.7319435489008"><ele>545.0</ele><time>2026-04-18T13:42:23Z</time></trkpt><trkpt lat="48.10167115963001" lon="11.73185075090944"><ele>545.0</ele><time>2026-04-18T13:42:24Z</time></trkpt><trkpt lat="48.101578236784604" lon="11.73175337346427"><ele>545.0</ele><time>2026-04-18T13:42:25Z</time></trkpt><trkpt lat="48.10147656174949" lon="11.731667814965594"><ele>545.0</ele><time>2026-04-18T13:42:26Z</time></trkpt><trkpt lat="48.10136895752982" lon="11.731580787129834"><ele>545.0</ele><time>2026-04-18T13:42:27Z</time></trkpt><trkpt lat="48.10126054831905" lon="11.731508697548641"><ele>545.0</ele><time>2026-04-18T13:42:28Z</time></trkpt><trkpt lat="48.10115200096951" lon="11.73144546707903"><ele>545.0</ele><time>2026-04-18T13:42:29Z</time></trkpt><trkpt lat="48.101044345959" lon="11.731386782827565"><ele>545.0</ele><time>2026-04-18T13:42:30Z</time></trkpt><trkpt lat="48.10093736634779" lon="11.731324417993424"><ele>545.0</ele><time>2026-04-18T13:42:31Z</time></trkpt><trkpt lat="48.10083014375083" lon="11.731264056676041"><ele>545.5</ele><time>2026-04-18T13:42:32Z</time></trkpt><trkpt lat="48.10071727317783" lon="11.731208979444043"><ele>546.0</ele><time>2026-04-18T13:42:33Z</time></trkpt><trkpt lat="48.10060023959429" lon="11.731162271593421"><ele>546.5</ele><time>2026-04-18T13:42:34Z</time></trkpt><trkpt lat="48.10048285634763" lon="11.73111490040301"><ele>547.0</ele><time>2026-04-18T13:42:35Z</time></trkpt><trkpt lat="48.10035645505267" lon="11.731064087310862"><ele>547.0</ele><time>2026-04-18T13:42:36Z</time></trkpt><trkpt lat="48.100213593893606" lon="11.731010646030946"><ele>547.0</ele><time>2026-04-18T13:42:37Z</time></trkpt><trkpt lat="48.10006705370237" lon="11.73095549078623"><ele>547.0</ele><time>2026-04-18T13:42:38Z</time></trkpt><trkpt lat="48.09991475920176" lon="11.730901423802798"><ele>547.0</ele><time>2026-04-18T13:42:39Z</time></trkpt><trkpt lat="48.09975435346014" lon="11.730839609408354"><ele>547.0</ele><time>2026-04-18T13:42:40Z</time></trkpt><trkpt lat="48.099592294729455" lon="11.730777003101142"><ele>547.0</ele><time>2026-04-18T13:42:41Z</time></trkpt><trkpt lat="48.09942745855807" lon="11.730714964542125"><ele>547.0</ele><time>2026-04-18T13:42:42Z</time></trkpt><trkpt lat="48.099274041881415" lon="11.730655924008623"><ele>547.0</ele><time>2026-04-18T13:42:43Z</time></trkpt><trkpt lat="48.099130712952764" lon="11.730598148625107"><ele>547.0</ele><time>2026-04-18T13:42:44Z</time></trkpt><trkpt lat="48.0989803805995" lon="11.730541518229812"><ele>546.3333333333334</ele><time>2026-04-18T13:42:45Z</time></trkpt><trkpt lat="48.098815140748805" lon="11.730480375372585"><ele>545.6666666666666</ele><time>2026-04-18T13:42:46Z</time></trkpt><trkpt lat="48.098642375727984" lon="11.730416138247271"><ele>545.0</ele><time>2026-04-18T13:42:47Z</time></trkpt><trkpt lat="48.09847836562278" lon="11.730353570936714"><ele>545.0</ele><time>2026-04-18T13:42:48Z</time></trkpt><trkpt lat="48.09832332493759" lon="11.730290903133099"><ele>545.0</ele><time>2026-04-18T13:42:49Z</time></trkpt><trkpt lat="48.09817517347815" lon="11.730225748741827"><ele>545.0</ele><time>2026-04-18T13:42:50Z</time></trkpt><trkpt lat="48.098023265617684" lon="11.730167167453795"><ele>545.3333333333333</ele><time>2026-04-18T13:42:51Z</time></trkpt><trkpt lat="48.09786947141168" lon="11.730082700561429"><ele>545.6666666666666</ele><time>2026-04-18T13:42:52Z</time></trkpt><trkpt lat="48.097713964924864" lon="11.730003147331233"><ele>546.0</ele><time>2026-04-18T13:42:53Z</time></trkpt><trkpt lat="48.09755601410132" lon="11.729920713920611"><ele>545.6666666666666</ele><time>2026-04-18T13:42:54Z</time></trkpt><trkpt lat="48.097399437319915" lon="11.729834718087204"><ele>545.3333333333333</ele><time>2026-04-18T13:42:55Z</time></trkpt><trkpt lat="48.097244434229445" lon="11.729753850383034"><ele>545.0</ele><time>2026-04-18T13:42:56Z</time></trkpt><trkpt lat="48.09709116911836" lon="11.729675894307622"><ele>545.0</ele><time>2026-04-18T13:42:57Z</time></trkpt><trkpt lat="48.096941221867894" lon="11.729594684301626"><ele>545.0</ele><time>2026-04-18T13:42:58Z</time></trkpt><trkpt lat="48.09679825570508" lon="11.729512873992665"><ele>545.0</ele><time>2026-04-18T13:42:59Z</time></trkpt><trkpt lat="48.09665595872974" lon="11.72943004851804"><ele>546.0</ele><time>2026-04-18T13:43:00Z</time></trkpt><trkpt lat="48.096512842174825" lon="11.729340930730993"><ele>547.0</ele><time>2026-04-18T13:43:01Z</time></trkpt><trkpt lat="48.09636888750377" lon="11.729252150673942"><ele>548.0</ele><time>2026-04-18T13:43:02Z</time></trkpt><trkpt lat="48.096222888734225" lon="11.729168103235052"><ele>548.0</ele><time>2026-04-18T13:43:03Z</time></trkpt><trkpt lat="48.096076204126966" lon="11.72907609407367"><ele>548.0</ele><time>2026-04-18T13:43:04Z</time></trkpt><trkpt lat="48.09592383628182" lon="11.728967913727782"><ele>548.0</ele><time>2026-04-18T13:43:05Z</time></trkpt><trkpt lat="48.09576717012225" lon="11.728837750891397"><ele>547.6666666666666</ele><time>2026-04-18T13:43:06Z</time></trkpt><trkpt lat="48.09560225594411" lon="11.72866780798778"><ele>547.3333333333334</ele><time>2026-04-18T13:43:07Z</time></trkpt><trkpt lat="48.095463824759214" lon="11.728510443553528"><ele>547.0</ele><time>2026-04-18T13:43:08Z</time></trkpt><trkpt lat="48.095335470499776" lon="11.72836379638723"><ele>547.0</ele><time>2026-04-18T13:43:09Z</time></trkpt><trkpt lat="48.095219115156176" lon="11.728206275429924"><ele>547.0</ele><time>2026-04-18T13:43:10Z</time></trkpt><trkpt lat="48.09510907770015" lon="11.728043272127607"><ele>547.0</ele><time>2026-04-18T13:43:11Z</time></trkpt><trkpt lat="48.095006842422265" lon="11.727872260566883"><ele>547.3333333333334</ele><time>2026-04-18T13:43:12Z</time></trkpt><trkpt lat="48.09490820986855" lon="11.727695139040685"><ele>547.6666666666666</ele><time>2026-04-18T13:43:13Z</time></trkpt><trkpt lat="48.094813613194304" lon="11.727502558772198"><ele>548.0</ele><time>2026-04-18T13:43:14Z</time></trkpt><trkpt lat="48.094724964555326" lon="11.727301113449093"><ele>548.0</ele><time>2026-04-18T13:43:15Z</time></trkpt><trkpt lat="48.09463953706399" lon="11.7270922073727"><ele>548.0</ele><time>2026-04-18T13:43:16Z</time></trkpt><trkpt lat="48.09455932564071" lon="11.726884094569089"><ele>548.0</ele><time>2026-04-18T13:43:17Z</time></trkpt><trkpt lat="48.094476772477215" lon="11.726690452992765"><ele>548.0</ele><time>2026-04-18T13:43:18Z</time></trkpt><trkpt lat="48.09439482186755" lon="11.726501138224409"><ele>548.0</ele><time>2026-04-18T13:43:19Z</time></trkpt><trkpt lat="48.0943097449386" lon="11.726303847431364"><ele>548.0</ele><time>2026-04-18T13:43:20Z</time></trkpt><trkpt lat="48.094204487283925" lon="11.72608203435086"><ele>547.6666666666666</ele><time>2026-04-18T13:43:21Z</time></trkpt><trkpt lat="48.09408362242845" lon="11.725834758197026"><ele>547.3333333333334</ele><time>2026-04-18T13:43:22Z</time></trkpt><trkpt lat="48.09395988941067" lon="11.72560441457908"><ele>547.0</ele><time>2026-04-18T13:43:23Z</time></trkpt><trkpt lat="48.09384519702506" lon="11.725400267519364"><ele>547.6666666666667</ele><time>2026-04-18T13:43:24Z</time></trkpt><trkpt lat="48.09372990418157" lon="11.725210071547611"><ele>548.3333333333334</ele><time>2026-04-18T13:43:25Z</time></trkpt><trkpt lat="48.09361708733825" lon="11.725027992421897"><ele>549.0</ele><time>2026-04-18T13:43:26Z</time></trkpt><trkpt lat="48.09350180664385" lon="11.72484968590163"><ele>549.0</ele><time>2026-04-18T13:43:27Z</time></trkpt><trkpt lat="48.09337817653651" lon="11.72466648781951"><ele>549.0</ele><time>2026-04-18T13:43:28Z</time></trkpt><trkpt lat="48.093231527616915" lon="11.724463001406127"><ele>549.0</ele><time>2026-04-18T13:43:29Z</time></trkpt><trkpt lat="48.09307848172265" lon="11.724257902728509"><ele>550.0</ele><time>2026-04-18T13:43:30Z</time></trkpt><trkpt lat="48.09293232148017" lon="11.724071709200182"><ele>551.0</ele><time>2026-04-18T13:43:31Z</time></trkpt><trkpt lat="48.09278618012098" lon="11.723897885692981"><ele>552.0</ele><time>2026-04-18T13:43:32Z</time></trkpt><trkpt lat="48.09263922269232" lon="11.723725390026908"><ele>552.0</ele><time>2026-04-18T13:43:33Z</time></trkpt><trkpt lat="48.09248488582104" lon="11.723556230135467"><ele>552.0</ele><time>2026-04-18T13:43:34Z</time></trkpt><trkpt lat="48.09231901559797" lon="11.723387954100172"><ele>552.0</ele><time>2026-04-18T13:43:35Z</time></trkpt><trkpt lat="48.09214649361257" lon="11.723211775277512"><ele>551.3333333333334</ele><time>2026-04-18T13:43:36Z</time></trkpt><trkpt lat="48.091969966578276" lon="11.723040933908365"><ele>550.6666666666667</ele><time>2026-04-18T13:43:37Z</time></trkpt><trkpt lat="48.09179026193303" lon="11.722883296551645"><ele>550.0</ele><time>2026-04-18T13:43:38Z</time></trkpt><trkpt lat="48.09160952784546" lon="11.722732104754499"><ele>549.6666666666667</ele><time>2026-04-18T13:43:39Z</time></trkpt><trkpt lat="48.09142785476149" lon="11.72258839288234"><ele>549.3333333333334</ele><time>2026-04-18T13:43:40Z</time></trkpt><trkpt lat="48.091243694031235" lon="11.722453689239403"><ele>549.0</ele><time>2026-04-18T13:43:41Z</time></trkpt><trkpt lat="48.091047522065416" lon="11.722324140170056"><ele>552.0</ele><time>2026-04-18T13:43:42Z</time></trkpt><trkpt lat="48.090622566897665" lon="11.722069280508316"><ele>552.0</ele><time>2026-04-18T13:43:44Z</time></trkpt><trkpt lat="48.09042236342378" lon="11.721957171689295"><ele>552.0</ele><time>2026-04-18T13:43:45Z</time></trkpt><trkpt lat="48.09021563469017" lon="11.721845638825668"><ele>552.0</ele><time>2026-04-18T13:43:46Z</time></trkpt><trkpt lat="48.09000331770117" lon="11.721732012352806"><ele>553.5</ele><time>2026-04-18T13:43:47Z</time></trkpt><trkpt lat="48.08978720224574" lon="11.721621079797615"><ele>555.0</ele><time>2026-04-18T13:43:48Z</time></trkpt><trkpt lat="48.08957115258872" lon="11.721506645425208"><ele>555.0</ele><time>2026-04-18T13:43:49Z</time></trkpt><trkpt lat="48.0893573241529" lon="11.721396889722518"><ele>555.0</ele><time>2026-04-18T13:43:50Z</time></trkpt><trkpt lat="48.089144431327654" lon="11.721286567081401"><ele>554.3333333333334</ele><time>2026-04-18T13:43:51Z</time></trkpt><trkpt lat="48.0889342300909" lon="11.721176342941424"><ele>553.6666666666667</ele><time>2026-04-18T13:43:52Z</time></trkpt><trkpt lat="48.08872381942446" lon="11.721067780075003"><ele>553.0</ele><time>2026-04-18T13:43:53Z</time></trkpt><trkpt lat="48.08851214220521" lon="11.72096000069781"><ele>553.0</ele><time>2026-04-18T13:43:54Z</time></trkpt><trkpt lat="48.08830193838102" lon="11.720847222108931"><ele>553.0</ele><time>2026-04-18T13:43:55Z</time></trkpt><trkpt lat="48.088091515702494" lon="11.720731710903072"><ele>553.0</ele><time>2026-04-18T13:43:56Z</time></trkpt><trkpt lat="48.087881808340875" lon="11.720622258996155"><ele>552.3333333333334</ele><time>2026-04-18T13:43:57Z</time></trkpt><trkpt lat="48.08767155544647" lon="11.720514516419856"><ele>551.6666666666666</ele><time>2026-04-18T13:43:58Z</time></trkpt><trkpt lat="48.08746097497014" lon="11.720405109476918"><ele>551.0</ele><time>2026-04-18T13:43:59Z</time></trkpt><trkpt lat="48.087252564752426" lon="11.720293231717234"><ele>551.3333333333333</ele><time>2026-04-18T13:44:00Z</time></trkpt><trkpt lat="48.08705046867014" lon="11.72018229521696"><ele>551.6666666666666</ele><time>2026-04-18T13:44:01Z</time></trkpt><trkpt lat="48.08685620884086" lon="11.720079086479734"><ele>552.0</ele><time>2026-04-18T13:44:02Z</time></trkpt><trkpt lat="48.086667787761755" lon="11.719980186484262"><ele>551.0</ele><time>2026-04-18T13:44:03Z</time></trkpt><trkpt lat="48.08648518826773" lon="11.719885592460958"><ele>550.0</ele><time>2026-04-18T13:44:04Z</time></trkpt><trkpt lat="48.08631160923114" lon="11.719804221435862"><ele>549.0</ele><time>2026-04-18T13:44:05Z</time></trkpt><trkpt lat="48.08616024066946" lon="11.719698342026756"><ele>549.0</ele><time>2026-04-18T13:44:06Z</time></trkpt><trkpt lat="48.08601011686749" lon="11.719614962502693"><ele>549.0</ele><time>2026-04-18T13:44:07Z</time></trkpt><trkpt lat="48.0858284045275" lon="11.719515121749284"><ele>549.0</ele><time>2026-04-18T13:44:08Z</time></trkpt><trkpt lat="48.085680116043854" lon="11.719432552605614"><ele>549.0</ele><time>2026-04-18T13:44:09Z</time></trkpt><trkpt lat="48.08553814119524" lon="11.719348163726256"><ele>549.0</ele><time>2026-04-18T13:44:10Z</time></trkpt><trkpt lat="48.085394390708416" lon="11.71926924620964"><ele>549.0</ele><time>2026-04-18T13:44:11Z</time></trkpt><trkpt lat="48.085246413102574" lon="11.719187044919085"><ele>549.0</ele><time>2026-04-18T13:44:12Z</time></trkpt><trkpt lat="48.08510185021358" lon="11.719101055357102"><ele>549.0</ele><time>2026-04-18T13:44:13Z</time></trkpt><trkpt lat="48.08496047808792" lon="11.719020037677542"><ele>549.0</ele><time>2026-04-18T13:44:14Z</time></trkpt><trkpt lat="48.0848381366731" lon="11.718949684343492"><ele>549.0</ele><time>2026-04-18T13:44:15Z</time></trkpt><trkpt lat="48.0847228217213" lon="11.718892887210426"><ele>549.4</ele><time>2026-04-18T13:44:16Z</time></trkpt><trkpt lat="48.08461714670551" lon="11.718826207342227"><ele>549.8</ele><time>2026-04-18T13:44:17Z</time></trkpt><trkpt lat="48.08451925921041" lon="11.718771129938906"><ele>550.2</ele><time>2026-04-18T13:44:18Z</time></trkpt><trkpt lat="48.08443080218218" lon="11.718719937390249"><ele>550.6</ele><time>2026-04-18T13:44:19Z</time></trkpt><trkpt lat="48.08435570237344" lon="11.718681052137802"><ele>551.0</ele><time>2026-04-18T13:44:20Z</time></trkpt><trkpt lat="48.08429070340263" lon="11.7186423847075"><ele>551.0</ele><time>2026-04-18T13:44:21Z</time></trkpt><trkpt lat="48.0841900325945" lon="11.718575436646486"><ele>551.0</ele><time>2026-04-18T13:44:23Z</time></trkpt><trkpt lat="48.08411434717142" lon="11.718491687895579"><ele>551.0</ele><time>2026-04-18T13:44:25Z</time></trkpt><trkpt lat="48.084057572696615" lon="11.7184436820593"><ele>551.0</ele><time>2026-04-18T13:44:28Z</time></trkpt><trkpt lat="48.0839997370964" lon="11.718393373494674"><ele>551.0</ele><time>2026-04-18T13:44:34Z</time></trkpt><trkpt lat="48.08393586227798" lon="11.718314620126232"><ele>551.0</ele><time>2026-04-18T13:44:41Z</time></trkpt><trkpt lat="48.0839077351477" lon="11.718223525443141"><ele>550.9999999999999</ele><time>2026-04-18T13:44:42Z</time></trkpt><trkpt lat="48.0838848917002" lon="11.71812840897096"><ele>551.0</ele><time>2026-04-18T13:44:43Z</time></trkpt><trkpt lat="48.08384617558289" lon="11.718035870609093"><ele>551.0</ele><time>2026-04-18T13:44:44Z</time></trkpt><trkpt lat="48.08378394973126" lon="11.71798639523595"><ele>551.0</ele><time>2026-04-18T13:44:45Z</time></trkpt><trkpt lat="48.08370858046968" lon="11.717964672801111"><ele>551.0</ele><time>2026-04-18T13:44:46Z</time></trkpt><trkpt lat="48.083633505114435" lon="11.717975053264878"><ele>550.9999999999999</ele><time>2026-04-18T13:44:47Z</time></trkpt><trkpt lat="48.08356521091924" lon="11.71801046460912"><ele>551.0</ele><time>2026-04-18T13:44:48Z</time></trkpt><trkpt lat="48.083499200981045" lon="11.718046151205824"><ele>551.0</ele><time>2026-04-18T13:44:49Z</time></trkpt><trkpt lat="48.083429590980906" lon="11.718063917441343"><ele>551.0</ele><time>2026-04-18T13:44:50Z</time></trkpt><trkpt lat="48.083352006013875" lon="11.718054481051839"><ele>551.0</ele><time>2026-04-18T13:44:51Z</time></trkpt><trkpt lat="48.083255870157814" lon="11.71802882829447"><ele>551.0</ele><time>2026-04-18T13:44:52Z</time></trkpt><trkpt lat="48.083129671111024" lon="11.71797311074623"><ele>551.0</ele><time>2026-04-18T13:44:53Z</time></trkpt><trkpt lat="48.082994273562825" lon="11.717893271358248"><ele>551.0</ele><time>2026-04-18T13:44:54Z</time></trkpt><trkpt lat="48.08287317253132" lon="11.717817098135987"><ele>551.0</ele><time>2026-04-18T13:44:55Z</time></trkpt><trkpt lat="48.08275712103181" lon="11.717744376662676"><ele>551.0</ele><time>2026-04-18T13:44:56Z</time></trkpt><trkpt lat="48.08263801878105" lon="11.717678409883877"><ele>551.0</ele><time>2026-04-18T13:44:57Z</time></trkpt><trkpt lat="48.082516892426206" lon="11.717613619429612"><ele>551.0</ele><time>2026-04-18T13:44:58Z</time></trkpt><trkpt lat="48.08239704598386" lon="11.71754281952192"><ele>551.0</ele><time>2026-04-18T13:44:59Z</time></trkpt><trkpt lat="48.082291246778546" lon="11.717487528157568"><ele>551.0</ele><time>2026-04-18T13:45:00Z</time></trkpt><trkpt lat="48.082196225613544" lon="11.717433005007706"><ele>551.0</ele><time>2026-04-18T13:45:01Z</time></trkpt><trkpt lat="48.082112129425425" lon="11.717395863493056"><ele>551.0</ele><time>2026-04-18T13:45:02Z</time></trkpt><trkpt lat="48.08203489446875" lon="11.717356919783535"><ele>551.0</ele><time>2026-04-18T13:45:03Z</time></trkpt><trkpt lat="48.08196053203909" lon="11.717321727310281"><ele>551.0</ele><time>2026-04-18T13:45:04Z</time></trkpt><trkpt lat="48.08188099557592" lon="11.717270686178297"><ele>551.0</ele><time>2026-04-18T13:45:05Z</time></trkpt><trkpt lat="48.08179312114321" lon="11.717235543939621"><ele>551.0</ele><time>2026-04-18T13:45:06Z</time></trkpt><trkpt lat="48.08169346323181" lon="11.717188518950982"><ele>551.0</ele><time>2026-04-18T13:45:07Z</time></trkpt><trkpt lat="48.0815910448627" lon="11.717147443115133"><ele>551.5</ele><time>2026-04-18T13:45:08Z</time></trkpt><trkpt lat="48.08148429612403" lon="11.717104010252799"><ele>552.0</ele><time>2026-04-18T13:45:08.999Z</time></trkpt><trkpt lat="48.081374327054995" lon="11.717058723539498"><ele>552.5</ele><time>2026-04-18T13:45:09.999Z</time></trkpt><trkpt lat="48.08126427275462" lon="11.717013835309139"><ele>553.0</ele><time>2026-04-18T13:45:10.999Z</time></trkpt><trkpt lat="48.08115212163932" lon="11.716970749936104"><ele>553.0</ele><time>2026-04-18T13:45:11.999Z</time></trkpt><trkpt lat="48.08103872983885" lon="11.716921786177664"><ele>553.0</ele><time>2026-04-18T13:45:12.999Z</time></trkpt><trkpt lat="48.08091942772102" lon="11.71688887335214"><ele>553.0</ele><time>2026-04-18T13:45:13.999Z</time></trkpt><trkpt lat="48.080803605880526" lon="11.716844266493862"><ele>553.0</ele><time>2026-04-18T13:45:14.999Z</time></trkpt><trkpt lat="48.080689470711036" lon="11.716807732799714"><ele>553.0</ele><time>2026-04-18T13:45:15.999Z</time></trkpt><trkpt lat="48.0805816915879" lon="11.716769556302154"><ele>553.0</ele><time>2026-04-18T13:45:16.999Z</time></trkpt><trkpt lat="48.08047852977479" lon="11.716733160192408"><ele>553.0</ele><time>2026-04-18T13:45:17.999Z</time></trkpt><trkpt lat="48.080376085678836" lon="11.71669416735074"><ele>553.0</ele><time>2026-04-18T13:45:18.999Z</time></trkpt><trkpt lat="48.08026931403636" lon="11.716655717794877"><ele>553.0</ele><time>2026-04-18T13:45:19.999Z</time></trkpt><trkpt lat="48.08014747145872" lon="11.71661108970974"><ele>553.0</ele><time>2026-04-18T13:45:20.999Z</time></trkpt><trkpt lat="48.08002629445144" lon="11.716563749788724"><ele>553.0</ele><time>2026-04-18T13:45:21.999Z</time></trkpt><trkpt lat="48.07990696318747" lon="11.716540597172816"><ele>553.0</ele><time>2026-04-18T13:45:22.999Z</time></trkpt><trkpt lat="48.07978836774787" lon="11.716522480401153"><ele>553.0</ele><time>2026-04-18T13:45:23.999Z</time></trkpt><trkpt lat="48.07966985550891" lon="11.716481168107956"><ele>553.25</ele><time>2026-04-18T13:45:24.999Z</time></trkpt><trkpt lat="48.07955366937012" lon="11.716437327920309"><ele>553.5</ele><time>2026-04-18T13:45:25.999Z</time></trkpt><trkpt lat="48.079436503844484" lon="11.716395103505333"><ele>553.75</ele><time>2026-04-18T13:45:26.999Z</time></trkpt><trkpt lat="48.07932052950006" lon="11.716352648172577"><ele>554.0</ele><time>2026-04-18T13:45:27.999Z</time></trkpt><trkpt lat="48.07920357459502" lon="11.716311704567362"><ele>554.0</ele><time>2026-04-18T13:45:28.999Z</time></trkpt><trkpt lat="48.07908660985867" lon="11.716261502419373"><ele>554.0</ele><time>2026-04-18T13:45:29.999Z</time></trkpt><trkpt lat="48.078976602670565" lon="11.71620953407568"><ele>554.0</ele><time>2026-04-18T13:45:31Z</time></trkpt><trkpt lat="48.07887926378805" lon="11.716161337996331"><ele>554.0</ele><time>2026-04-18T13:45:32Z</time></trkpt><trkpt lat="48.078790510217296" lon="11.716112672819259"><ele>554.0</ele><time>2026-04-18T13:45:33Z</time></trkpt><trkpt lat="48.07870279031549" lon="11.716062419151081"><ele>554.0</ele><time>2026-04-18T13:45:34Z</time></trkpt><trkpt lat="48.07860831977637" lon="11.716006542886145"><ele>554.0</ele><time>2026-04-18T13:45:35Z</time></trkpt><trkpt lat="48.07850688902482" lon="11.715938677815798"><ele>554.0</ele><time>2026-04-18T13:45:36Z</time></trkpt><trkpt lat="48.078405540574224" lon="11.715869877406352"><ele>554.0</ele><time>2026-04-18T13:45:37Z</time></trkpt><trkpt lat="48.07831263805085" lon="11.715804910267833"><ele>554.0</ele><time>2026-04-18T13:45:38Z</time></trkpt><trkpt lat="48.07822980596011" lon="11.715740171690163"><ele>554.1666666666666</ele><time>2026-04-18T13:45:39Z</time></trkpt><trkpt lat="48.078149948387775" lon="11.715673706938453"><ele>554.3333333333333</ele><time>2026-04-18T13:45:40Z</time></trkpt><trkpt lat="48.07806901110451" lon="11.715609073966158"><ele>554.5</ele><time>2026-04-18T13:45:41Z</time></trkpt><trkpt lat="48.07799482171641" lon="11.715558520963603"><ele>554.6666666666666</ele><time>2026-04-18T13:45:42Z</time></trkpt><trkpt lat="48.077925849945885" lon="11.71551891169429"><ele>554.8333333333334</ele><time>2026-04-18T13:45:43Z</time></trkpt><trkpt lat="48.07786223773482" lon="11.715496066719467"><ele>555.0</ele><time>2026-04-18T13:45:44Z</time></trkpt><trkpt lat="48.07775986922618" lon="11.715459998103094"><ele>555.0</ele><time>2026-04-18T13:45:46Z</time></trkpt><trkpt lat="48.07768756945203" lon="11.715443113241342"><ele>555.0</ele><time>2026-04-18T13:45:48Z</time></trkpt><trkpt lat="48.07759684094097" lon="11.715420984126826"><ele>555.0</ele><time>2026-04-18T13:45:51Z</time></trkpt><trkpt lat="48.077508765818756" lon="11.715395212195029"><ele>555.0</ele><time>2026-04-18T13:45:53Z</time></trkpt><trkpt lat="48.07741771778931" lon="11.715383052867814"><ele>555.0</ele><time>2026-04-18T13:45:55Z</time></trkpt><trkpt lat="48.07731012244596" lon="11.715371944945934"><ele>555.1428571428572</ele><time>2026-04-18T13:45:57Z</time></trkpt><trkpt lat="48.07724729777033" lon="11.715359159624212"><ele>555.2857142857143</ele><time>2026-04-18T13:45:58Z</time></trkpt><trkpt lat="48.0771778325449" lon="11.715345050153791"><ele>555.4285714285714</ele><time>2026-04-18T13:45:59Z</time></trkpt><trkpt lat="48.07709989514147" lon="11.715336694129052"><ele>555.5714285714287</ele><time>2026-04-18T13:46:00Z</time></trkpt><trkpt lat="48.07701960749933" lon="11.71532984877544"><ele>555.7142857142858</ele><time>2026-04-18T13:46:01Z</time></trkpt><trkpt lat="48.07694535473416" lon="11.715331435224234"><ele>555.8571428571429</ele><time>2026-04-18T13:46:02Z</time></trkpt><trkpt lat="48.07687674543961" lon="11.715339611913308"><ele>556.0</ele><time>2026-04-18T13:46:03Z</time></trkpt><trkpt lat="48.07676259088784" lon="11.715378004623942"><ele>556.0</ele><time>2026-04-18T13:46:05Z</time></trkpt><trkpt lat="48.076655066572826" lon="11.715412760015868"><ele>556.0</ele><time>2026-04-18T13:46:07Z</time></trkpt><trkpt lat="48.076549436885486" lon="11.715442591488024"><ele>556.0</ele><time>2026-04-18T13:46:09Z</time></trkpt><trkpt lat="48.076447626257455" lon="11.715484267602536"><ele>556.0</ele><time>2026-04-18T13:46:11Z</time></trkpt><trkpt lat="48.07635145033362" lon="11.715510702202153"><ele>556.0</ele><time>2026-04-18T13:46:13Z</time></trkpt><trkpt lat="48.07625282224351" lon="11.715541453880707"><ele>556.0</ele><time>2026-04-18T13:46:15Z</time></trkpt><trkpt lat="48.07614941052494" lon="11.715596971770946"><ele>556.0</ele><time>2026-04-18T13:46:17Z</time></trkpt><trkpt lat="48.07604173057969" lon="11.715618095076767"><ele>556.0</ele><time>2026-04-18T13:46:19Z</time></trkpt><trkpt lat="48.07592709033388" lon="11.715652498966987"><ele>556.0</ele><time>2026-04-18T13:46:21Z</time></trkpt><trkpt lat="48.075863401292516" lon="11.715665086009487"><ele>556.0</ele><time>2026-04-18T13:46:22Z</time></trkpt><trkpt lat="48.07579810288711" lon="11.71567924203733"><ele>555.8</ele><time>2026-04-18T13:46:23Z</time></trkpt><trkpt lat="48.075736070974926" lon="11.715695517108351"><ele>555.6</ele><time>2026-04-18T13:46:24Z</time></trkpt><trkpt lat="48.075622655470326" lon="11.715723336907075"><ele>555.4</ele><time>2026-04-18T13:46:26Z</time></trkpt><trkpt lat="48.07551665384498" lon="11.71573996216805"><ele>555.2</ele><time>2026-04-18T13:46:28Z</time></trkpt><trkpt lat="48.07540228464276" lon="11.715716025732636"><ele>555.0</ele><time>2026-04-18T13:46:30Z</time></trkpt><trkpt lat="48.075343332458175" lon="11.715678107199377"><ele>555.0</ele><time>2026-04-18T13:46:31Z</time></trkpt><trkpt lat="48.07529076972792" lon="11.715622987513841"><ele>555.0</ele><time>2026-04-18T13:46:32Z</time></trkpt><trkpt lat="48.075243451597096" lon="11.715540934636348"><ele>555.0</ele><time>2026-04-18T13:46:33Z</time></trkpt><trkpt lat="48.07519618185226" lon="11.715455085970747"><ele>555.0</ele><time>2026-04-18T13:46:34Z</time></trkpt><trkpt lat="48.07514317639939" lon="11.715354430326895"><ele>555.0</ele><time>2026-04-18T13:46:35Z</time></trkpt><trkpt lat="48.07508998535825" lon="11.715260891156166"><ele>555.0</ele><time>2026-04-18T13:46:36Z</time></trkpt><trkpt lat="48.07503692538139" lon="11.715164541690154"><ele>555.4</ele><time>2026-04-18T13:46:37Z</time></trkpt><trkpt lat="48.074975600166056" lon="11.715052317084362"><ele>555.8</ele><time>2026-04-18T13:46:38Z</time></trkpt><trkpt lat="48.074924492902866" lon="11.714956040114197"><ele>556.2</ele><time>2026-04-18T13:46:39Z</time></trkpt><trkpt lat="48.07486834537289" lon="11.714861811078775"><ele>556.6</ele><time>2026-04-18T13:46:40Z</time></trkpt><trkpt lat="48.07479893700981" lon="11.714754791767803"><ele>557.0</ele><time>2026-04-18T13:46:41Z</time></trkpt><trkpt lat="48.07471687741651" lon="11.714641008231338"><ele>557.0</ele><time>2026-04-18T13:46:42Z</time></trkpt><trkpt lat="48.07464852216782" lon="11.714550455252606"><ele>557.0</ele><time>2026-04-18T13:46:43Z</time></trkpt><trkpt lat="48.07458790287054" lon="11.714470722889681"><ele>557.0</ele><time>2026-04-18T13:46:44Z</time></trkpt><trkpt lat="48.074494359051606" lon="11.714359869257445"><ele>557.0</ele><time>2026-04-18T13:46:46Z</time></trkpt><trkpt lat="48.074388428022765" lon="11.714269240767917"><ele>557.0</ele><time>2026-04-18T13:46:48Z</time></trkpt><trkpt lat="48.07428908319337" lon="11.714178749246717"><ele>556.8333333333333</ele><time>2026-04-18T13:46:50Z</time></trkpt><trkpt lat="48.074207209539324" lon="11.714082311939585"><ele>556.6666666666666</ele><time>2026-04-18T13:46:52Z</time></trkpt><trkpt lat="48.07414833155628" lon="11.714011294245697"><ele>556.5</ele><time>2026-04-18T13:46:54Z</time></trkpt><trkpt lat="48.07409679704113" lon="11.713935277235745"><ele>556.3333333333334</ele><time>2026-04-18T13:46:56Z</time></trkpt><trkpt lat="48.074082015603345" lon="11.7137556533459"><ele>556.1666666666667</ele><time>2026-04-18T13:46:58Z</time></trkpt><trkpt lat="48.07404339410597" lon="11.713680263816956"><ele>556.0</ele><time>2026-04-18T13:46:59Z</time></trkpt><trkpt lat="48.07398701811612" lon="11.713637363023748"><ele>556.0</ele><time>2026-04-18T13:47:00Z</time></trkpt><trkpt lat="48.07387314563215" lon="11.713649836530509"><ele>556.0</ele><time>2026-04-18T13:47:02Z</time></trkpt><trkpt lat="48.073769695003584" lon="11.713724109957829"><ele>556.0</ele><time>2026-04-18T13:47:04Z</time></trkpt><trkpt lat="48.07369773018721" lon="11.713730910625427"><ele>556.0</ele><time>2026-04-18T13:47:05Z</time></trkpt><trkpt lat="48.073605660390044" lon="11.713728373539407"><ele>556.0</ele><time>2026-04-18T13:47:06Z</time></trkpt><trkpt lat="48.073513903424185" lon="11.713713007292657"><ele>556.0</ele><time>2026-04-18T13:47:07Z</time></trkpt><trkpt lat="48.073430311170284" lon="11.713696319573533"><ele>556.0</ele><time>2026-04-18T13:47:08Z</time></trkpt><trkpt lat="48.07335272332997" lon="11.713682703887516"><ele>556.0</ele><time>2026-04-18T13:47:09Z</time></trkpt><trkpt lat="48.07328205753931" lon="11.713668413957903"><ele>556.0</ele><time>2026-04-18T13:47:10Z</time></trkpt><trkpt lat="48.07321131974809" lon="11.713651372440308"><ele>556.0</ele><time>2026-04-18T13:47:11Z</time></trkpt><trkpt lat="48.07313118241077" lon="11.713634228802853"><ele>556.0</ele><time>2026-04-18T13:47:12Z</time></trkpt><trkpt lat="48.073040424085" lon="11.713613508501009"><ele>556.0</ele><time>2026-04-18T13:47:13Z</time></trkpt><trkpt lat="48.07294264896868" lon="11.713593267284715"><ele>556.0</ele><time>2026-04-18T13:47:14Z</time></trkpt><trkpt lat="48.072838016853915" lon="11.713569649923436"><ele>556.0</ele><time>2026-04-18T13:47:15Z</time></trkpt><trkpt lat="48.072731995673635" lon="11.713546432703632"><ele>556.0</ele><time>2026-04-18T13:47:16Z</time></trkpt><trkpt lat="48.07262787378795" lon="11.71352158829427"><ele>556.0</ele><time>2026-04-18T13:47:17Z</time></trkpt><trkpt lat="48.07252290500434" lon="11.713495687832983"><ele>555.8</ele><time>2026-04-18T13:47:18Z</time></trkpt><trkpt lat="48.07241818342124" lon="11.713472810830682"><ele>555.6</ele><time>2026-04-18T13:47:19Z</time></trkpt><trkpt lat="48.0723127309106" lon="11.713450366956058"><ele>555.4</ele><time>2026-04-18T13:47:20Z</time></trkpt><trkpt lat="48.07220789542278" lon="11.713428034059154"><ele>555.2</ele><time>2026-04-18T13:47:21Z</time></trkpt><trkpt lat="48.072101635363715" lon="11.71340518814478"><ele>555.0</ele><time>2026-04-18T13:47:22Z</time></trkpt><trkpt lat="48.071995401161175" lon="11.713379683226234"><ele>555.0</ele><time>2026-04-18T13:47:23Z</time></trkpt><trkpt lat="48.07188887188331" lon="11.7133565273937"><ele>555.0</ele><time>2026-04-18T13:47:24Z</time></trkpt><trkpt lat="48.071781318746595" lon="11.713335850350123"><ele>555.0</ele><time>2026-04-18T13:47:25Z</time></trkpt><trkpt lat="48.07166821989671" lon="11.713312024687504"><ele>555.0</ele><time>2026-04-18T13:47:26Z</time></trkpt><trkpt lat="48.0715452827955" lon="11.713283419779126"><ele>555.0</ele><time>2026-04-18T13:47:27Z</time></trkpt><trkpt lat="48.07142675443293" lon="11.713257786502515"><ele>555.0</ele><time>2026-04-18T13:47:28Z</time></trkpt><trkpt lat="48.07131053978954" lon="11.713234546425173"><ele>555.0</ele><time>2026-04-18T13:47:29Z</time></trkpt><trkpt lat="48.0711943943289" lon="11.71321342245787"><ele>555.0</ele><time>2026-04-18T13:47:30Z</time></trkpt><trkpt lat="48.07107354721161" lon="11.71318686746041"><ele>555.0</ele><time>2026-04-18T13:47:31Z</time></trkpt><trkpt lat="48.07094929479144" lon="11.713157603094388"><ele>555.0</ele><time>2026-04-18T13:47:32Z</time></trkpt><trkpt lat="48.0708217330771" lon="11.713133570513273"><ele>555.0</ele><time>2026-04-18T13:47:33Z</time></trkpt><trkpt lat="48.07069398985987" lon="11.71310954212368"><ele>555.0</ele><time>2026-04-18T13:47:34Z</time></trkpt><trkpt lat="48.07056181924173" lon="11.71308123394711"><ele>555.0</ele><time>2026-04-18T13:47:35Z</time></trkpt><trkpt lat="48.07042278026502" lon="11.71304989168805"><ele>555.0</ele><time>2026-04-18T13:47:36Z</time></trkpt><trkpt lat="48.070278393488955" lon="11.713018310198533"><ele>555.0</ele><time>2026-04-18T13:47:37Z</time></trkpt><trkpt lat="48.07012945206192" lon="11.712987817439746"><ele>555.0</ele><time>2026-04-18T13:47:38Z</time></trkpt><trkpt lat="48.06997699188497" lon="11.712957934521667"><ele>555.6666666666666</ele><time>2026-04-18T13:47:39Z</time></trkpt><trkpt lat="48.06982562065864" lon="11.712924701616155"><ele>556.3333333333333</ele><time>2026-04-18T13:47:40Z</time></trkpt><trkpt lat="48.06967478571966" lon="11.712890714779668"><ele>557.0</ele><time>2026-04-18T13:47:41Z</time></trkpt><trkpt lat="48.06952337480299" lon="11.7128551077753"><ele>557.0</ele><time>2026-04-18T13:47:42Z</time></trkpt><trkpt lat="48.06937321574131" lon="11.712816225724001"><ele>557.0</ele><time>2026-04-18T13:47:43Z</time></trkpt><trkpt lat="48.069222561779895" lon="11.712779314436153"><ele>557.0</ele><time>2026-04-18T13:47:44Z</time></trkpt><trkpt lat="48.06906844898706" lon="11.712738275731551"><ele>557.0</ele><time>2026-04-18T13:47:45Z</time></trkpt><trkpt lat="48.068910786591914" lon="11.712695369499787"><ele>557.0</ele><time>2026-04-18T13:47:46Z</time></trkpt><trkpt lat="48.06874853499583" lon="11.7126446770901"><ele>557.0</ele><time>2026-04-18T13:47:47Z</time></trkpt><trkpt lat="48.06858351281529" lon="11.712590975415118"><ele>557.0</ele><time>2026-04-18T13:47:48Z</time></trkpt><trkpt lat="48.06841675033878" lon="11.712536215073587"><ele>557.0</ele><time>2026-04-18T13:47:49Z</time></trkpt><trkpt lat="48.06824961858418" lon="11.712479152490392"><ele>557.0</ele><time>2026-04-18T13:47:50Z</time></trkpt><trkpt lat="48.06808482988395" lon="11.712425235404314"><ele>557.6666666666666</ele><time>2026-04-18T13:47:51Z</time></trkpt><trkpt lat="48.06792189050477" lon="11.712372542175713"><ele>558.3333333333334</ele><time>2026-04-18T13:47:52Z</time></trkpt><trkpt lat="48.06776122375731" lon="11.712319134596584"><ele>559.0</ele><time>2026-04-18T13:47:53Z</time></trkpt><trkpt lat="48.067602385343484" lon="11.712265505379227"><ele>559.0</ele><time>2026-04-18T13:47:54Z</time></trkpt><trkpt lat="48.06744694951412" lon="11.712214235869613"><ele>559.0</ele><time>2026-04-18T13:47:55Z</time></trkpt><trkpt lat="48.067287339868145" lon="11.712165529248923"><ele>559.0</ele><time>2026-04-18T13:47:56Z</time></trkpt><trkpt lat="48.06712523511065" lon="11.712128449286524"><ele>559.0</ele><time>2026-04-18T13:47:57Z</time></trkpt><trkpt lat="48.0669594349605" lon="11.712035259533556"><ele>559.0</ele><time>2026-04-18T13:47:58Z</time></trkpt><trkpt lat="48.06679917169891" lon="11.711974845769586"><ele>559.0</ele><time>2026-04-18T13:47:59Z</time></trkpt><trkpt lat="48.06663614528894" lon="11.711905674447365"><ele>560.0</ele><time>2026-04-18T13:48:00Z</time></trkpt><trkpt lat="48.0664769241096" lon="11.711843629577363"><ele>561.0</ele><time>2026-04-18T13:48:01Z</time></trkpt><trkpt lat="48.06631414164622" lon="11.711781710318778"><ele>562.0</ele><time>2026-04-18T13:48:02Z</time></trkpt><trkpt lat="48.066154574968664" lon="11.711714993123692"><ele>562.0</ele><time>2026-04-18T13:48:03Z</time></trkpt><trkpt lat="48.065995012457364" lon="11.711652931679895"><ele>562.0</ele><time>2026-04-18T13:48:04Z</time></trkpt><trkpt lat="48.06583577827713" lon="11.711598777195091"><ele>562.0</ele><time>2026-04-18T13:48:05Z</time></trkpt><trkpt lat="48.06567441356823" lon="11.711536704946296"><ele>562.3333333333334</ele><time>2026-04-18T13:48:06Z</time></trkpt><trkpt lat="48.065519526516724" lon="11.711472614804302"><ele>562.6666666666666</ele><time>2026-04-18T13:48:07Z</time></trkpt><trkpt lat="48.065365427591765" lon="11.711408485741375"><ele>563.0</ele><time>2026-04-18T13:48:08Z</time></trkpt><trkpt lat="48.065211247939565" lon="11.711338552395757"><ele>563.0</ele><time>2026-04-18T13:48:09Z</time></trkpt><trkpt lat="48.06505149183705" lon="11.711262131145475"><ele>563.0</ele><time>2026-04-18T13:48:10Z</time></trkpt><trkpt lat="48.06488973085367" lon="11.711182470879262"><ele>563.0</ele><time>2026-04-18T13:48:11Z</time></trkpt><trkpt lat="48.06472945280476" lon="11.711101242515653"><ele>563.6666666666666</ele><time>2026-04-18T13:48:12Z</time></trkpt><trkpt lat="48.064574051540085" lon="11.71101575150365"><ele>564.3333333333334</ele><time>2026-04-18T13:48:13Z</time></trkpt><trkpt lat="48.06442634436263" lon="11.710933441151447"><ele>565.0</ele><time>2026-04-18T13:48:14Z</time></trkpt><trkpt lat="48.064278341971736" lon="11.71086049781319"><ele>565.0</ele><time>2026-04-18T13:48:15Z</time></trkpt><trkpt lat="48.064140739825866" lon="11.710779624910195"><ele>565.0</ele><time>2026-04-18T13:48:16Z</time></trkpt><trkpt lat="48.06400195775821" lon="11.710698571769838"><ele>565.0</ele><time>2026-04-18T13:48:17Z</time></trkpt><trkpt lat="48.0638594245135" lon="11.710620034088699"><ele>565.0</ele><time>2026-04-18T13:48:18Z</time></trkpt><trkpt lat="48.063716386420886" lon="11.710534428831986"><ele>564.3333333333334</ele><time>2026-04-18T13:48:19Z</time></trkpt><trkpt lat="48.06356990913499" lon="11.710444305372473"><ele>563.6666666666666</ele><time>2026-04-18T13:48:20Z</time></trkpt><trkpt lat="48.063409120918976" lon="11.71035179103622"><ele>563.0</ele><time>2026-04-18T13:48:21Z</time></trkpt><trkpt lat="48.063254416774036" lon="11.710263535786385"><ele>563.3333333333333</ele><time>2026-04-18T13:48:22Z</time></trkpt><trkpt lat="48.06309518899006" lon="11.710168427242666"><ele>563.6666666666666</ele><time>2026-04-18T13:48:23Z</time></trkpt><trkpt lat="48.0629401674365" lon="11.710045958790918"><ele>564.0</ele><time>2026-04-18T13:48:24Z</time></trkpt><trkpt lat="48.06277800447343" lon="11.70994014603318"><ele>564.0</ele><time>2026-04-18T13:48:25Z</time></trkpt><trkpt lat="48.0626128106057" lon="11.70983146438868"><ele>564.0</ele><time>2026-04-18T13:48:26Z</time></trkpt><trkpt lat="48.06245689737076" lon="11.709751176179099"><ele>564.0</ele><time>2026-04-18T13:48:27Z</time></trkpt><trkpt lat="48.06230333961997" lon="11.709641691509997"><ele>566.0</ele><time>2026-04-18T13:48:28Z</time></trkpt><trkpt lat="48.06214886218263" lon="11.70953886817753"><ele>568.0</ele><time>2026-04-18T13:48:29Z</time></trkpt><trkpt lat="48.0620010697038" lon="11.709428319095542"><ele>570.0</ele><time>2026-04-18T13:48:30Z</time></trkpt><trkpt lat="48.06185131947295" lon="11.709318261863812"><ele>570.0</ele><time>2026-04-18T13:48:31Z</time></trkpt><trkpt lat="48.06169842663335" lon="11.70921153985893"><ele>570.0</ele><time>2026-04-18T13:48:32Z</time></trkpt><trkpt lat="48.06155178941035" lon="11.709074977980814"><ele>570.0</ele><time>2026-04-18T13:48:33Z</time></trkpt><trkpt lat="48.061404423627266" lon="11.708965828151346"><ele>569.0</ele><time>2026-04-18T13:48:34Z</time></trkpt><trkpt lat="48.061261574462684" lon="11.708860053508479"><ele>568.0</ele><time>2026-04-18T13:48:35Z</time></trkpt><trkpt lat="48.06111553947809" lon="11.708775607690141"><ele>567.0</ele><time>2026-04-18T13:48:36Z</time></trkpt><trkpt lat="48.06097309898561" lon="11.708668600366915"><ele>567.0</ele><time>2026-04-18T13:48:37Z</time></trkpt><trkpt lat="48.06083344268747" lon="11.708565268594706"><ele>567.0</ele><time>2026-04-18T13:48:38.001Z</time></trkpt><trkpt lat="48.06069206710004" lon="11.708453278358675"><ele>567.0</ele><time>2026-04-18T13:48:39.001Z</time></trkpt><trkpt lat="48.06054810299322" lon="11.708342909154622"><ele>565.6666666666666</ele><time>2026-04-18T13:48:40.001Z</time></trkpt><trkpt lat="48.06040188424031" lon="11.708226001341652"><ele>564.3333333333333</ele><time>2026-04-18T13:48:41.001Z</time></trkpt><trkpt lat="48.060254233695346" lon="11.70810159735469"><ele>563.0</ele><time>2026-04-18T13:48:42.001Z</time></trkpt><trkpt lat="48.060103594334265" lon="11.707979956191313"><ele>563.0</ele><time>2026-04-18T13:48:43.001Z</time></trkpt><trkpt lat="48.05995286269423" lon="11.707864761112655"><ele>563.0</ele><time>2026-04-18T13:48:44.001Z</time></trkpt><trkpt lat="48.059801993638544" lon="11.707747612940695"><ele>563.0</ele><time>2026-04-18T13:48:45.001Z</time></trkpt><trkpt lat="48.059651072799" lon="11.707629725821405"><ele>562.3333333333333</ele><time>2026-04-18T13:48:46.001Z</time></trkpt><trkpt lat="48.059500417060896" lon="11.707512233264355"><ele>561.6666666666666</ele><time>2026-04-18T13:48:47.001Z</time></trkpt><trkpt lat="48.059350586475176" lon="11.707398987919152"><ele>561.0</ele><time>2026-04-18T13:48:48.001Z</time></trkpt><trkpt lat="48.059202046300456" lon="11.707286178547577"><ele>562.0</ele><time>2026-04-18T13:48:49.001Z</time></trkpt><trkpt lat="48.059055647007376" lon="11.707177634101583"><ele>563.0</ele><time>2026-04-18T13:48:50.001Z</time></trkpt><trkpt lat="48.05890717182591" lon="11.707068431944212"><ele>564.0</ele><time>2026-04-18T13:48:51.001Z</time></trkpt><trkpt lat="48.05875618322483" lon="11.706963539888305"><ele>563.6666666666666</ele><time>2026-04-18T13:48:52.001Z</time></trkpt><trkpt lat="48.058604061391826" lon="11.706858881442061"><ele>563.3333333333333</ele><time>2026-04-18T13:48:53.001Z</time></trkpt><trkpt lat="48.05844999986665" lon="11.706757231454354"><ele>563.0</ele><time>2026-04-18T13:48:54.001Z</time></trkpt><trkpt lat="48.05829594787453" lon="11.70665268215371"><ele>563.3333333333333</ele><time>2026-04-18T13:48:55.001Z</time></trkpt><trkpt lat="48.05814147680415" lon="11.70657120278362"><ele>563.6666666666666</ele><time>2026-04-18T13:48:56.001Z</time></trkpt><trkpt lat="48.057983092373895" lon="11.706476354186899"><ele>564.0</ele><time>2026-04-18T13:48:57.001Z</time></trkpt><trkpt lat="48.05782577783013" lon="11.706386017112731"><ele>564.0</ele><time>2026-04-18T13:48:58.001Z</time></trkpt><trkpt lat="48.05766925164686" lon="11.706304600793862"><ele>564.0</ele><time>2026-04-18T13:48:59.001Z</time></trkpt><trkpt lat="48.05750803285346" lon="11.706230140157519"><ele>564.0</ele><time>2026-04-18T13:49:00.001Z</time></trkpt><trkpt lat="48.057347529016624" lon="11.706161793773878"><ele>564.0</ele><time>2026-04-18T13:49:01.001Z</time></trkpt><trkpt lat="48.05718660983429" lon="11.706095399255318"><ele>564.0</ele><time>2026-04-18T13:49:02.001Z</time></trkpt><trkpt lat="48.05702460770302" lon="11.706025928671947"><ele>564.0</ele><time>2026-04-18T13:49:03.001Z</time></trkpt><trkpt lat="48.056857461997325" lon="11.7059644649305"><ele>564.0</ele><time>2026-04-18T13:49:04.001Z</time></trkpt><trkpt lat="48.056684001290854" lon="11.705906255936943"><ele>564.0</ele><time>2026-04-18T13:49:05.001Z</time></trkpt><trkpt lat="48.05650519276114" lon="11.705846215978395"><ele>564.0</ele><time>2026-04-18T13:49:06.001Z</time></trkpt><trkpt lat="48.05632359833128" lon="11.70579049411885"><ele>564.0</ele><time>2026-04-18T13:49:07.001Z</time></trkpt><trkpt lat="48.05613419119416" lon="11.705745184401907"><ele>564.0</ele><time>2026-04-18T13:49:08Z</time></trkpt><trkpt lat="48.05594076571756" lon="11.70570385702236"><ele>564.0</ele><time>2026-04-18T13:49:09Z</time></trkpt><trkpt lat="48.05574538479661" lon="11.705668540303286"><ele>564.6666666666666</ele><time>2026-04-18T13:49:10Z</time></trkpt><trkpt lat="48.05554516703269" lon="11.7056426496518"><ele>565.3333333333333</ele><time>2026-04-18T13:49:11Z</time></trkpt><trkpt lat="48.055343494965925" lon="11.705621671288402"><ele>566.0</ele><time>2026-04-18T13:49:12Z</time></trkpt><trkpt lat="48.05514151260586" lon="11.705592154437596"><ele>565.3333333333333</ele><time>2026-04-18T13:49:13Z</time></trkpt><trkpt lat="48.05494550608668" lon="11.70556052210097"><ele>564.6666666666666</ele><time>2026-04-18T13:49:14Z</time></trkpt><trkpt lat="48.05475224922019" lon="11.705527302408921"><ele>564.0</ele><time>2026-04-18T13:49:15Z</time></trkpt><trkpt lat="48.054563739445435" lon="11.705489740063703"><ele>564.0</ele><time>2026-04-18T13:49:16Z</time></trkpt><trkpt lat="48.05437816207443" lon="11.705449861238154"><ele>564.0</ele><time>2026-04-18T13:49:17Z</time></trkpt><trkpt lat="48.05419958322013" lon="11.705407179622071"><ele>564.0</ele><time>2026-04-18T13:49:18Z</time></trkpt><trkpt lat="48.05402555158172" lon="11.705361438557428"><ele>564.0</ele><time>2026-04-18T13:49:19Z</time></trkpt><trkpt lat="48.053855369797894" lon="11.705310087744092"><ele>564.0</ele><time>2026-04-18T13:49:20Z</time></trkpt><trkpt lat="48.05369241008156" lon="11.705256850549041"><ele>564.0</ele><time>2026-04-18T13:49:21Z</time></trkpt><trkpt lat="48.053533365866635" lon="11.705203494656908"><ele>564.25</ele><time>2026-04-18T13:49:22Z</time></trkpt><trkpt lat="48.0533818049985" lon="11.705145378514436"><ele>564.5</ele><time>2026-04-18T13:49:23Z</time></trkpt><trkpt lat="48.05324092615658" lon="11.705088321563512"><ele>564.75</ele><time>2026-04-18T13:49:24Z</time></trkpt><trkpt lat="48.05311154812685" lon="11.705032699620348"><ele>565.0</ele><time>2026-04-18T13:49:25Z</time></trkpt><trkpt lat="48.05299028282854" lon="11.704973512560883"><ele>565.4</ele><time>2026-04-18T13:49:26Z</time></trkpt><trkpt lat="48.0528778831019" lon="11.704915877770038"><ele>565.8</ele><time>2026-04-18T13:49:27Z</time></trkpt><trkpt lat="48.052784545225194" lon="11.704868909687855"><ele>566.2</ele><time>2026-04-18T13:49:28Z</time></trkpt><trkpt lat="48.05270344062728" lon="11.704831900581489"><ele>566.6</ele><time>2026-04-18T13:49:29Z</time></trkpt><trkpt lat="48.052631961560856" lon="11.704801063703735"><ele>567.0</ele><time>2026-04-18T13:49:30Z</time></trkpt><trkpt lat="48.05256148311482" lon="11.7047653343224"><ele>567.0</ele><time>2026-04-18T13:49:31Z</time></trkpt><trkpt lat="48.05248882866432" lon="11.70472727018305"><ele>567.0</ele><time>2026-04-18T13:49:32Z</time></trkpt><trkpt lat="48.0524106388948" lon="11.70469602266249"><ele>567.0</ele><time>2026-04-18T13:49:33Z</time></trkpt><trkpt lat="48.05230938727623" lon="11.704665451306925"><ele>567.0</ele><time>2026-04-18T13:49:34Z</time></trkpt><trkpt lat="48.05222835878427" lon="11.7046415797115"><ele>567.0</ele><time>2026-04-18T13:49:35Z</time></trkpt><trkpt lat="48.052157768067225" lon="11.704623806791744"><ele>567.0</ele><time>2026-04-18T13:49:36Z</time></trkpt><trkpt lat="48.052095036264284" lon="11.704604453374548"><ele>567.6</ele><time>2026-04-18T13:49:37Z</time></trkpt><trkpt lat="48.05197865447405" lon="11.704584212946132"><ele>568.2</ele><time>2026-04-18T13:49:39Z</time></trkpt><trkpt lat="48.05187416298032" lon="11.704565599600125"><ele>568.8</ele><time>2026-04-18T13:49:41Z</time></trkpt><trkpt lat="48.05179349038737" lon="11.704522409589229"><ele>569.4</ele><time>2026-04-18T13:49:43Z</time></trkpt><trkpt lat="48.05173500075517" lon="11.704424450542488"><ele>570.0</ele><time>2026-04-18T13:49:45Z</time></trkpt><trkpt lat="48.051658550983426" lon="11.704434694957461"><ele>569.4</ele><time>2026-04-18T13:49:47Z</time></trkpt><trkpt lat="48.051577423311656" lon="11.704494757943083"><ele>568.8</ele><time>2026-04-18T13:49:49Z</time></trkpt><trkpt lat="48.05144190025028" lon="11.704535978612983"><ele>568.2</ele><time>2026-04-18T13:49:51Z</time></trkpt><trkpt lat="48.05135880833747" lon="11.704541175334048"><ele>567.6</ele><time>2026-04-18T13:49:52Z</time></trkpt><trkpt lat="48.051275878393426" lon="11.704550643227645"><ele>567.0</ele><time>2026-04-18T13:49:53Z</time></trkpt><trkpt lat="48.05119686633" lon="11.704553456137184"><ele>567.0</ele><time>2026-04-18T13:49:54Z</time></trkpt><trkpt lat="48.05112109904118" lon="11.704562909334937"><ele>567.0</ele><time>2026-04-18T13:49:55Z</time></trkpt><trkpt lat="48.05104659482831" lon="11.70457240753576"><ele>567.0</ele><time>2026-04-18T13:49:56Z</time></trkpt><trkpt lat="48.050974372077405" lon="11.70458238663432"><ele>567.0</ele><time>2026-04-18T13:49:57Z</time></trkpt><trkpt lat="48.05090111781029" lon="11.704607547616016"><ele>567.0</ele><time>2026-04-18T13:49:58Z</time></trkpt><trkpt lat="48.05081248330782" lon="11.704637583474282"><ele>567.0</ele><time>2026-04-18T13:49:59Z</time></trkpt><trkpt lat="48.050707640073625" lon="11.704676626813628"><ele>567.0</ele><time>2026-04-18T13:50:00Z</time></trkpt><trkpt lat="48.05061419846185" lon="11.704718523588893"><ele>567.0</ele><time>2026-04-18T13:50:01Z</time></trkpt><trkpt lat="48.05052345639189" lon="11.70476303892344"><ele>567.0</ele><time>2026-04-18T13:50:02Z</time></trkpt><trkpt lat="48.050436433986036" lon="11.704813351780828"><ele>567.0</ele><time>2026-04-18T13:50:03Z</time></trkpt><trkpt lat="48.05034991997131" lon="11.704863016648458"><ele>567.0</ele><time>2026-04-18T13:50:04Z</time></trkpt><trkpt lat="48.0502600408496" lon="11.704918782023684"><ele>567.0</ele><time>2026-04-18T13:50:05Z</time></trkpt><trkpt lat="48.050170602010034" lon="11.704985290065956"><ele>567.0</ele><time>2026-04-18T13:50:06Z</time></trkpt><trkpt lat="48.050079723440646" lon="11.705055860826358"><ele>567.0</ele><time>2026-04-18T13:50:07Z</time></trkpt><trkpt lat="48.04998753013749" lon="11.705141528427662"><ele>567.0</ele><time>2026-04-18T13:50:08Z</time></trkpt><trkpt lat="48.049891017546706" lon="11.705211242001965"><ele>567.0</ele><time>2026-04-18T13:50:09Z</time></trkpt><trkpt lat="48.04979856622663" lon="11.705297511950594"><ele>567.0</ele><time>2026-04-18T13:50:10Z</time></trkpt><trkpt lat="48.04971356604804" lon="11.705363871516077"><ele>567.0</ele><time>2026-04-18T13:50:11.001Z</time></trkpt><trkpt lat="48.049636438432614" lon="11.705422294374536"><ele>567.0</ele><time>2026-04-18T13:50:12.001Z</time></trkpt><trkpt lat="48.049561422915744" lon="11.705479051245973"><ele>567.0</ele><time>2026-04-18T13:50:13.001Z</time></trkpt><trkpt lat="48.04948592887597" lon="11.705530481688735"><ele>567.0</ele><time>2026-04-18T13:50:14.001Z</time></trkpt><trkpt lat="48.04940737879314" lon="11.705580796695743"><ele>567.0</ele><time>2026-04-18T13:50:15.001Z</time></trkpt><trkpt lat="48.049329668831255" lon="11.705622926367116"><ele>567.0</ele><time>2026-04-18T13:50:16.001Z</time></trkpt><trkpt lat="48.04924839942397" lon="11.705659669984374"><ele>567.0</ele><time>2026-04-18T13:50:17.001Z</time></trkpt><trkpt lat="48.04916540672641" lon="11.705685463373163"><ele>567.0</ele><time>2026-04-18T13:50:18.001Z</time></trkpt><trkpt lat="48.049073958834406" lon="11.705692914014755"><ele>567.0</ele><time>2026-04-18T13:50:19.001Z</time></trkpt><trkpt lat="48.0489829858141" lon="11.705692685481429"><ele>567.0</ele><time>2026-04-18T13:50:20.001Z</time></trkpt><trkpt lat="48.04888487549823" lon="11.705676201743348"><ele>567.0</ele><time>2026-04-18T13:50:21.001Z</time></trkpt><trkpt lat="48.0487947437922" lon="11.705633196305621"><ele>567.0</ele><time>2026-04-18T13:50:22.001Z</time></trkpt><trkpt lat="48.04871171823428" lon="11.705577682009407"><ele>567.0</ele><time>2026-04-18T13:50:23.001Z</time></trkpt><trkpt lat="48.04863778432519" lon="11.705510251024329"><ele>567.0</ele><time>2026-04-18T13:50:24.001Z</time></trkpt><trkpt lat="48.04857283262084" lon="11.705428181379189"><ele>567.0</ele><time>2026-04-18T13:50:25.001Z</time></trkpt><trkpt lat="48.04851744259565" lon="11.705337885067767"><ele>567.0</ele><time>2026-04-18T13:50:26.001Z</time></trkpt><trkpt lat="48.04846771033275" lon="11.705242442034361"><ele>567.3333333333334</ele><time>2026-04-18T13:50:27.001Z</time></trkpt><trkpt lat="48.0484271679929" lon="11.70514007168745"><ele>567.6666666666666</ele><time>2026-04-18T13:50:28.001Z</time></trkpt><trkpt lat="48.048389930543074" lon="11.70503013254554"><ele>568.0</ele><time>2026-04-18T13:50:29.001Z</time></trkpt><trkpt lat="48.04836787869423" lon="11.704913710995362"><ele>568.3333333333333</ele><time>2026-04-18T13:50:30.001Z</time></trkpt><trkpt lat="48.048352332815206" lon="11.704802071362273"><ele>568.6666666666666</ele><time>2026-04-18T13:50:31.001Z</time></trkpt><trkpt lat="48.04834861648092" lon="11.70467146367342"><ele>569.0</ele><time>2026-04-18T13:50:32.001Z</time></trkpt><trkpt lat="48.04833848591199" lon="11.704549143533534"><ele>569.0</ele><time>2026-04-18T13:50:33.001Z</time></trkpt><trkpt lat="48.04832615924993" lon="11.704430023285294"><ele>569.0</ele><time>2026-04-18T13:50:34.001Z</time></trkpt><trkpt lat="48.04831570650408" lon="11.7043093443782"><ele>569.0</ele><time>2026-04-18T13:50:35.001Z</time></trkpt><trkpt lat="48.04830526576232" lon="11.704189580946"><ele>569.0</ele><time>2026-04-18T13:50:36.001Z</time></trkpt><trkpt lat="48.04829826398443" lon="11.704069149032952"><ele>569.0</ele><time>2026-04-18T13:50:37.001Z</time></trkpt><trkpt lat="48.04828619664709" lon="11.7039502959174"><ele>569.0</ele><time>2026-04-18T13:50:38.001Z</time></trkpt><trkpt lat="48.04826982132287" lon="11.703831651271162"><ele>569.1666666666666</ele><time>2026-04-18T13:50:39.001Z</time></trkpt><trkpt lat="48.04825323112948" lon="11.703714554449896"><ele>569.3333333333333</ele><time>2026-04-18T13:50:40.001Z</time></trkpt><trkpt lat="48.04823727687847" lon="11.703596251363214"><ele>569.5</ele><time>2026-04-18T13:50:41.001Z</time></trkpt><trkpt lat="48.048222616904255" lon="11.70347878209847"><ele>569.6666666666666</ele><time>2026-04-18T13:50:42.001Z</time></trkpt><trkpt lat="48.04820776079525" lon="11.703374013964556"><ele>569.8333333333334</ele><time>2026-04-18T13:50:43.001Z</time></trkpt><trkpt lat="48.04818766503122" lon="11.703210991326163"><ele>570.0</ele><time>2026-04-18T13:50:45.001Z</time></trkpt><trkpt lat="48.04817106313682" lon="11.703059943324094"><ele>570.2</ele><time>2026-04-18T13:50:47.001Z</time></trkpt><trkpt lat="48.048159050270954" lon="11.702908337451678"><ele>570.4</ele><time>2026-04-18T13:50:49.001Z</time></trkpt><trkpt lat="48.04815174223002" lon="11.702742514089964"><ele>570.6</ele><time>2026-04-18T13:50:51.001Z</time></trkpt><trkpt lat="48.04815853085048" lon="11.70259233243643"><ele>570.8</ele><time>2026-04-18T13:50:53.001Z</time></trkpt><trkpt lat="48.04817458464019" lon="11.70245863409323"><ele>571.0</ele><time>2026-04-18T13:50:55.001Z</time></trkpt><trkpt lat="48.048156060381814" lon="11.70231317862071"><ele>571.0</ele><time>2026-04-18T13:50:57.001Z</time></trkpt><trkpt lat="48.04815750039994" lon="11.702179160402064"><ele>571.0</ele><time>2026-04-18T13:50:59.001Z</time></trkpt><trkpt lat="48.048154999132166" lon="11.702066126307221"><ele>571.0</ele><time>2026-04-18T13:51:01.001Z</time></trkpt><trkpt lat="48.04797852028111" lon="11.702116429896053"><ele>571.0</ele><time>2026-04-18T13:51:03.001Z</time></trkpt><trkpt lat="48.047908004022254" lon="11.702156964166823"><ele>571.0</ele><time>2026-04-18T13:51:04.001Z</time></trkpt><trkpt lat="48.04783033317952" lon="11.702197262084301"><ele>571.0</ele><time>2026-04-18T13:51:05.001Z</time></trkpt><trkpt lat="48.04775107872462" lon="11.702227556664903"><ele>571.0</ele><time>2026-04-18T13:51:06.001Z</time></trkpt><trkpt lat="48.04767712749181" lon="11.702241667207693"><ele>571.0</ele><time>2026-04-18T13:51:07.001Z</time></trkpt><trkpt lat="48.04761267969002" lon="11.702254640133084"><ele>571.0</ele><time>2026-04-18T13:51:08.001Z</time></trkpt><trkpt lat="48.047492983210695" lon="11.702286769735489"><ele>571.0</ele><time>2026-04-18T13:51:10.001Z</time></trkpt><trkpt lat="48.047428956366275" lon="11.702296949882303"><ele>571.0</ele><time>2026-04-18T13:51:11.001Z</time></trkpt><trkpt lat="48.047305272387504" lon="11.702328105346222"><ele>570.8333333333334</ele><time>2026-04-18T13:51:13.001Z</time></trkpt><trkpt lat="48.0472390933275" lon="11.702346994538587"><ele>570.6666666666667</ele><time>2026-04-18T13:51:14.001Z</time></trkpt><trkpt lat="48.0471647757643" lon="11.702363219554412"><ele>570.5</ele><time>2026-04-18T13:51:15.001Z</time></trkpt><trkpt lat="48.04709123241303" lon="11.702378387192148"><ele>570.3333333333334</ele><time>2026-04-18T13:51:16.001Z</time></trkpt><trkpt lat="48.047017399884425" lon="11.702396991439164"><ele>570.1666666666666</ele><time>2026-04-18T13:51:17.001Z</time></trkpt><trkpt lat="48.04695018991784" lon="11.702420157343079"><ele>570.0</ele><time>2026-04-18T13:51:18.001Z</time></trkpt><trkpt lat="48.046827614575896" lon="11.702449094307507"><ele>570.0</ele><time>2026-04-18T13:51:20.001Z</time></trkpt><trkpt lat="48.04676405922157" lon="11.702466210593066"><ele>570.0</ele><time>2026-04-18T13:51:21.001Z</time></trkpt><trkpt lat="48.046700329259984" lon="11.702480547509332"><ele>570.0</ele><time>2026-04-18T13:51:22.001Z</time></trkpt><trkpt lat="48.0466371005973" lon="11.702497277915825"><ele>570.0</ele><time>2026-04-18T13:51:23Z</time></trkpt><trkpt lat="48.04657365904762" lon="11.702512093206014"><ele>570.0</ele><time>2026-04-18T13:51:24Z</time></trkpt><trkpt lat="48.04651050625374" lon="11.702521403142713"><ele>570.0</ele><time>2026-04-18T13:51:25Z</time></trkpt><trkpt lat="48.04638411890854" lon="11.702544205337325"><ele>570.0</ele><time>2026-04-18T13:51:27Z</time></trkpt><trkpt lat="48.04631969488944" lon="11.702542615602146"><ele>570.0</ele><time>2026-04-18T13:51:28Z</time></trkpt><trkpt lat="48.04625390562196" lon="11.702544912807973"><ele>570.0</ele><time>2026-04-18T13:51:29Z</time></trkpt><trkpt lat="48.04618887440542" lon="11.702563771359587"><ele>570.0</ele><time>2026-04-18T13:51:30Z</time></trkpt><trkpt lat="48.04612452171345" lon="11.702590744983144"><ele>570.0</ele><time>2026-04-18T13:51:31Z</time></trkpt><trkpt lat="48.04606636754702" lon="11.702645569216703"><ele>570.0</ele><time>2026-04-18T13:51:32Z</time></trkpt><trkpt lat="48.04602570729452" lon="11.70271870593124"><ele>570.0</ele><time>2026-04-18T13:51:33Z</time></trkpt><trkpt lat="48.04598526538755" lon="11.70280869563959"><ele>570.0</ele><time>2026-04-18T13:51:34Z</time></trkpt><trkpt lat="48.0459454530139" lon="11.702892323307095"><ele>570.0</ele><time>2026-04-18T13:51:35Z</time></trkpt><trkpt lat="48.04590134400362" lon="11.702969442940498"><ele>570.0</ele><time>2026-04-18T13:51:36Z</time></trkpt><trkpt lat="48.04585081106924" lon="11.70303734158695"><ele>570.0</ele><time>2026-04-18T13:51:37Z</time></trkpt><trkpt lat="48.04579954640298" lon="11.703106878635532"><ele>570.0</ele><time>2026-04-18T13:51:38Z</time></trkpt><trkpt lat="48.04574967573898" lon="11.703177342043228"><ele>570.0</ele><time>2026-04-18T13:51:39Z</time></trkpt><trkpt lat="48.04570293480944" lon="11.703249368991745"><ele>570.0</ele><time>2026-04-18T13:51:40Z</time></trkpt><trkpt lat="48.04565308108714" lon="11.703315583916341"><ele>570.0</ele><time>2026-04-18T13:51:41Z</time></trkpt><trkpt lat="48.0456010829495" lon="11.703382751821925"><ele>570.2</ele><time>2026-04-18T13:51:42Z</time></trkpt><trkpt lat="48.045543348325765" lon="11.70346034167769"><ele>570.4</ele><time>2026-04-18T13:51:43Z</time></trkpt><trkpt lat="48.04547618006115" lon="11.703552217655252"><ele>570.6</ele><time>2026-04-18T13:51:44Z</time></trkpt><trkpt lat="48.04540421563862" lon="11.703653660201665"><ele>570.8</ele><time>2026-04-18T13:51:45Z</time></trkpt><trkpt lat="48.045322755266774" lon="11.7037645957637"><ele>571.0</ele><time>2026-04-18T13:51:46.001Z</time></trkpt><trkpt lat="48.04523291024599" lon="11.703889316969272"><ele>571.0</ele><time>2026-04-18T13:51:47.001Z</time></trkpt><trkpt lat="48.045140531796285" lon="11.704017966415508"><ele>571.0</ele><time>2026-04-18T13:51:48.001Z</time></trkpt><trkpt lat="48.045047446024945" lon="11.70414495044589"><ele>571.0</ele><time>2026-04-18T13:51:49.001Z</time></trkpt><trkpt lat="48.044961097567366" lon="11.704263958888722"><ele>571.0</ele><time>2026-04-18T13:51:50.001Z</time></trkpt><trkpt lat="48.04487533252222" lon="11.704378015734198"><ele>571.0</ele><time>2026-04-18T13:51:51.001Z</time></trkpt><trkpt lat="48.04478764834573" lon="11.704485495043292"><ele>571.0</ele><time>2026-04-18T13:51:52.001Z</time></trkpt><trkpt lat="48.04469792443799" lon="11.70458754516041"><ele>571.0</ele><time>2026-04-18T13:51:53.001Z</time></trkpt><trkpt lat="48.04461075081189" lon="11.704696829810162"><ele>571.0</ele><time>2026-04-18T13:51:54.001Z</time></trkpt><trkpt lat="48.04451698415026" lon="11.704812379124862"><ele>571.0</ele><time>2026-04-18T13:51:55.001Z</time></trkpt><trkpt lat="48.04441896528653" lon="11.704928317652994"><ele>571.0</ele><time>2026-04-18T13:51:56.001Z</time></trkpt><trkpt lat="48.044320457731395" lon="11.705043661116763"><ele>571.0</ele><time>2026-04-18T13:51:57.001Z</time></trkpt><trkpt lat="48.04422062642203" lon="11.705159689569367"><ele>571.0</ele><time>2026-04-18T13:51:58.001Z</time></trkpt><trkpt lat="48.04412189609306" lon="11.70527100954464"><ele>570.5</ele><time>2026-04-18T13:51:59.001Z</time></trkpt><trkpt lat="48.04402644050955" lon="11.705382993799187"><ele>570.0</ele><time>2026-04-18T13:52:00.001Z</time></trkpt><trkpt lat="48.0439329350989" lon="11.705493927011025"><ele>569.5</ele><time>2026-04-18T13:52:01.001Z</time></trkpt><trkpt lat="48.04383738458392" lon="11.705607274718524"><ele>569.0</ele><time>2026-04-18T13:52:02.001Z</time></trkpt><trkpt lat="48.043726047781774" lon="11.70573190375143"><ele>569.0</ele><time>2026-04-18T13:52:03.001Z</time></trkpt><trkpt lat="48.04360681247938" lon="11.705870446814453"><ele>569.0</ele><time>2026-04-18T13:52:04.001Z</time></trkpt><trkpt lat="48.0434771448719" lon="11.706025932754965"><ele>569.0</ele><time>2026-04-18T13:52:05.001Z</time></trkpt><trkpt lat="48.04333900244322" lon="11.706190457895035"><ele>569.6666666666666</ele><time>2026-04-18T13:52:06.001Z</time></trkpt><trkpt lat="48.043198205166696" lon="11.706360562609747"><ele>570.3333333333334</ele><time>2026-04-18T13:52:07.001Z</time></trkpt><trkpt lat="48.04306358764022" lon="11.706524274400056"><ele>571.0</ele><time>2026-04-18T13:52:08.001Z</time></trkpt><trkpt lat="48.04293012413509" lon="11.706686444181912"><ele>571.0</ele><time>2026-04-18T13:52:09.001Z</time></trkpt><trkpt lat="48.04279933919419" lon="11.706849541267099"><ele>571.0</ele><time>2026-04-18T13:52:10.001Z</time></trkpt><trkpt lat="48.042663583961655" lon="11.707026269983757"><ele>571.0</ele><time>2026-04-18T13:52:11.001Z</time></trkpt><trkpt lat="48.042517622061546" lon="11.70721942162148"><ele>571.0</ele><time>2026-04-18T13:52:12.001Z</time></trkpt><trkpt lat="48.04236344260618" lon="11.707428101170624"><ele>571.0</ele><time>2026-04-18T13:52:13.001Z</time></trkpt><trkpt lat="48.04221156322428" lon="11.70764598091533"><ele>571.0</ele><time>2026-04-18T13:52:14.001Z</time></trkpt><trkpt lat="48.04206161772047" lon="11.707865604394845"><ele>570.6666666666667</ele><time>2026-04-18T13:52:15.001Z</time></trkpt><trkpt lat="48.04191113548331" lon="11.708084779186159"><ele>570.3333333333334</ele><time>2026-04-18T13:52:16.001Z</time></trkpt><trkpt lat="48.04176602977151" lon="11.708303254907234"><ele>570.0</ele><time>2026-04-18T13:52:17.001Z</time></trkpt><trkpt lat="48.041626535558684" lon="11.708520233608558"><ele>570.6666666666666</ele><time>2026-04-18T13:52:18.001Z</time></trkpt><trkpt lat="48.04148434784053" lon="11.708743030229723"><ele>571.3333333333333</ele><time>2026-04-18T13:52:19.001Z</time></trkpt><trkpt lat="48.04133868596394" lon="11.708975077918423"><ele>572.0</ele><time>2026-04-18T13:52:20.001Z</time></trkpt><trkpt lat="48.04118905586789" lon="11.709221445030558"><ele>572.3333333333333</ele><time>2026-04-18T13:52:21.001Z</time></trkpt><trkpt lat="48.0410480988851" lon="11.709457244339095"><ele>572.6666666666666</ele><time>2026-04-18T13:52:22.001Z</time></trkpt><trkpt lat="48.04091416282979" lon="11.709677123633488"><ele>573.0</ele><time>2026-04-18T13:52:23.001Z</time></trkpt><trkpt lat="48.040795387016836" lon="11.709876884224265"><ele>573.0</ele><time>2026-04-18T13:52:24.001Z</time></trkpt><trkpt lat="48.04068791539284" lon="11.710064460127462"><ele>573.0</ele><time>2026-04-18T13:52:25.001Z</time></trkpt><trkpt lat="48.04058192693868" lon="11.710241153263416"><ele>573.0</ele><time>2026-04-18T13:52:26.001Z</time></trkpt><trkpt lat="48.04048081478688" lon="11.710413664681363"><ele>572.6666666666666</ele><time>2026-04-18T13:52:27.001Z</time></trkpt><trkpt lat="48.04038176675395" lon="11.710585685309258"><ele>572.3333333333333</ele><time>2026-04-18T13:52:28.001Z</time></trkpt><trkpt lat="48.04028078287934" lon="11.710757930967397"><ele>572.0</ele><time>2026-04-18T13:52:29.001Z</time></trkpt><trkpt lat="48.04016763801043" lon="11.71093576490155"><ele>572.0</ele><time>2026-04-18T13:52:30.001Z</time></trkpt><trkpt lat="48.04004586782888" lon="11.71110581867576"><ele>572.0</ele><time>2026-04-18T13:52:31.001Z</time></trkpt><trkpt lat="48.039916063627494" lon="11.711265822830974"><ele>572.0</ele><time>2026-04-18T13:52:32.001Z</time></trkpt><trkpt lat="48.03978360180182" lon="11.71141701870615"><ele>572.3333333333333</ele><time>2026-04-18T13:52:33.001Z</time></trkpt><trkpt lat="48.03965131205745" lon="11.711564075968406"><ele>572.6666666666666</ele><time>2026-04-18T13:52:34.001Z</time></trkpt><trkpt lat="48.039519123131235" lon="11.7116991689356"><ele>573.0</ele><time>2026-04-18T13:52:35.001Z</time></trkpt><trkpt lat="48.0393842841091" lon="11.711823082891142"><ele>573.0</ele><time>2026-04-18T13:52:36.001Z</time></trkpt><trkpt lat="48.03924905060354" lon="11.71194056670278"><ele>573.0</ele><time>2026-04-18T13:52:37.001Z</time></trkpt><trkpt lat="48.039111914043474" lon="11.71205203313257"><ele>573.0</ele><time>2026-04-18T13:52:38.001Z</time></trkpt><trkpt lat="48.038979712693084" lon="11.712151983082562"><ele>573.0</ele><time>2026-04-18T13:52:39.001Z</time></trkpt><trkpt lat="48.038852893017754" lon="11.712241857247658"><ele>573.0</ele><time>2026-04-18T13:52:40.001Z</time></trkpt><trkpt lat="48.0387276929171" lon="11.712325490293658"><ele>573.0</ele><time>2026-04-18T13:52:41.001Z</time></trkpt><trkpt lat="48.03859947878728" lon="11.712403984746931"><ele>573.0</ele><time>2026-04-18T13:52:42.001Z</time></trkpt><trkpt lat="48.03846780632376" lon="11.712481224282586"><ele>573.0</ele><time>2026-04-18T13:52:43.001Z</time></trkpt><trkpt lat="48.03833444065392" lon="11.712558307085493"><ele>573.0</ele><time>2026-04-18T13:52:44.001Z</time></trkpt><trkpt lat="48.03820287578862" lon="11.712626273756229"><ele>573.0</ele><time>2026-04-18T13:52:45.001Z</time></trkpt><trkpt lat="48.038071939297055" lon="11.71269164756441"><ele>573.0</ele><time>2026-04-18T13:52:46.001Z</time></trkpt><trkpt lat="48.037942304775" lon="11.712748944327673"><ele>574.0</ele><time>2026-04-18T13:52:47.001Z</time></trkpt><trkpt lat="48.037814960167246" lon="11.712806461677866"><ele>575.0</ele><time>2026-04-18T13:52:48.001Z</time></trkpt><trkpt lat="48.037691006488906" lon="11.712871166848755"><ele>576.0</ele><time>2026-04-18T13:52:49.001Z</time></trkpt><trkpt lat="48.0375742481194" lon="11.712953888702387"><ele>577.0</ele><time>2026-04-18T13:52:50.001Z</time></trkpt><trkpt lat="48.03745962243638" lon="11.713041913657856"><ele>577.25</ele><time>2026-04-18T13:52:51.001Z</time></trkpt><trkpt lat="48.037344639875194" lon="11.713141376551341"><ele>577.5</ele><time>2026-04-18T13:52:52.001Z</time></trkpt><trkpt lat="48.03723352608435" lon="11.71324042413628"><ele>577.75</ele><time>2026-04-18T13:52:53.001Z</time></trkpt><trkpt lat="48.03713004536936" lon="11.713334113576977"><ele>578.0</ele><time>2026-04-18T13:52:54.001Z</time></trkpt><trkpt lat="48.03703625984172" lon="11.713414934999587"><ele>578.0</ele><time>2026-04-18T13:52:55.001Z</time></trkpt><trkpt lat="48.03695537470077" lon="11.713484656321372"><ele>578.0</ele><time>2026-04-18T13:52:56.001Z</time></trkpt><trkpt lat="48.03688668951381" lon="11.71354398381356"><ele>578.0</ele><time>2026-04-18T13:52:57.001Z</time></trkpt><trkpt lat="48.03682739620875" lon="11.713601536154513"><ele>578.0</ele><time>2026-04-18T13:52:58.001Z</time></trkpt><trkpt lat="48.03673211269896" lon="11.713676991224487"><ele>578.0</ele><time>2026-04-18T13:53:00.001Z</time></trkpt><trkpt lat="48.03662240523084" lon="11.713669749398122"><ele>578.6666666666666</ele><time>2026-04-18T13:53:02.001Z</time></trkpt><trkpt lat="48.036555683345924" lon="11.713661313565044"><ele>579.3333333333333</ele><time>2026-04-18T13:53:03.001Z</time></trkpt><trkpt lat="48.036487254173615" lon="11.713617908260106"><ele>580.0</ele><time>2026-04-18T13:53:04.001Z</time></trkpt><trkpt lat="48.036420361892255" lon="11.713532286028668"><ele>580.6666666666666</ele><time>2026-04-18T13:53:05.001Z</time></trkpt><trkpt lat="48.036337758496934" lon="11.713462671841395"><ele>581.3333333333334</ele><time>2026-04-18T13:53:06.001Z</time></trkpt><trkpt lat="48.03627324289144" lon="11.713322871034638"><ele>582.0</ele><time>2026-04-18T13:53:07.001Z</time></trkpt><trkpt lat="48.03619538901581" lon="11.7131929729869"><ele>582.0</ele><time>2026-04-18T13:53:08.001Z</time></trkpt><trkpt lat="48.0361113717653" lon="11.713058949168442"><ele>582.0</ele><time>2026-04-18T13:53:09.001Z</time></trkpt><trkpt lat="48.036023352802786" lon="11.712922539415395"><ele>582.0</ele><time>2026-04-18T13:53:10.001Z</time></trkpt><trkpt lat="48.035934270554115" lon="11.712788286414883"><ele>582.0</ele><time>2026-04-18T13:53:11.001Z</time></trkpt><trkpt lat="48.03584827038346" lon="11.71265655610163"><ele>582.0</ele><time>2026-04-18T13:53:12.001Z</time></trkpt><trkpt lat="48.035769322655774" lon="11.712519215490094"><ele>582.0</ele><time>2026-04-18T13:53:13.001Z</time></trkpt><trkpt lat="48.035685547374285" lon="11.712392560696225"><ele>582.0</ele><time>2026-04-18T13:53:14.001Z</time></trkpt><trkpt lat="48.035609069577845" lon="11.712284243434611"><ele>582.0</ele><time>2026-04-18T13:53:15.001Z</time></trkpt><trkpt lat="48.03556247552154" lon="11.71220759161916"><ele>582.0</ele><time>2026-04-18T13:53:16.001Z</time></trkpt><trkpt lat="48.03550952352849" lon="11.712125923239968"><ele>582.0</ele><time>2026-04-18T13:53:17.001Z</time></trkpt><trkpt lat="48.03545661464373" lon="11.712042594682751"><ele>582.0</ele><time>2026-04-18T13:53:18.001Z</time></trkpt><trkpt lat="48.03540953821373" lon="11.711969967588178"><ele>582.0</ele><time>2026-04-18T13:53:19.001Z</time></trkpt><trkpt lat="48.03531945849163" lon="11.711830283457775"><ele>582.0</ele><time>2026-04-18T13:53:21Z</time></trkpt><trkpt lat="48.03526982219907" lon="11.711758182891138"><ele>582.0</ele><time>2026-04-18T13:53:22Z</time></trkpt><trkpt lat="48.035233812407654" lon="11.711663904005013"><ele>582.0</ele><time>2026-04-18T13:53:23Z</time></trkpt><trkpt lat="48.03518560614763" lon="11.711578248990909"><ele>582.2857142857142</ele><time>2026-04-18T13:53:24Z</time></trkpt><trkpt lat="48.035139229961324" lon="11.711493968454946"><ele>582.5714285714286</ele><time>2026-04-18T13:53:25Z</time></trkpt><trkpt lat="48.03509418287352" lon="11.711411975564719"><ele>582.8571428571429</ele><time>2026-04-18T13:53:26Z</time></trkpt><trkpt lat="48.03504795820836" lon="11.711332624534156"><ele>583.1428571428571</ele><time>2026-04-18T13:53:27Z</time></trkpt><trkpt lat="48.03500042994263" lon="11.711250732767578"><ele>583.4285714285714</ele><time>2026-04-18T13:53:28Z</time></trkpt><trkpt lat="48.03495315881474" lon="11.711167633346198"><ele>583.7142857142857</ele><time>2026-04-18T13:53:29Z</time></trkpt><trkpt lat="48.03490028919032" lon="11.71108199227448"><ele>584.0</ele><time>2026-04-18T13:53:30Z</time></trkpt><trkpt lat="48.034838755648245" lon="11.710996673778835"><ele>584.0</ele><time>2026-04-18T13:53:31Z</time></trkpt><trkpt lat="48.03477876495595" lon="11.710898941675676"><ele>584.0</ele><time>2026-04-18T13:53:32Z</time></trkpt><trkpt lat="48.03469895143858" lon="11.710764459232818"><ele>584.0</ele><time>2026-04-18T13:53:33Z</time></trkpt><trkpt lat="48.0346276822867" lon="11.71064365972225"><ele>584.0</ele><time>2026-04-18T13:53:34Z</time></trkpt><trkpt lat="48.03456218043669" lon="11.710533325282253"><ele>584.0</ele><time>2026-04-18T13:53:35Z</time></trkpt><trkpt lat="48.034502014221545" lon="11.710423955734791"><ele>584.0</ele><time>2026-04-18T13:53:36Z</time></trkpt><trkpt lat="48.034435431011765" lon="11.710311863760083"><ele>584.0</ele><time>2026-04-18T13:53:37Z</time></trkpt><trkpt lat="48.034363319285745" lon="11.710184407596339"><ele>584.0</ele><time>2026-04-18T13:53:38Z</time></trkpt><trkpt lat="48.03428829236471" lon="11.710047692220169"><ele>584.0</ele><time>2026-04-18T13:53:39Z</time></trkpt><trkpt lat="48.034214633168695" lon="11.709915204498497"><ele>584.0</ele><time>2026-04-18T13:53:40Z</time></trkpt><trkpt lat="48.03414217605338" lon="11.709789822496049"><ele>584.0</ele><time>2026-04-18T13:53:41Z</time></trkpt><trkpt lat="48.034071509848694" lon="11.709664569873237"><ele>584.0</ele><time>2026-04-18T13:53:42Z</time></trkpt><trkpt lat="48.03400026204865" lon="11.709543354282667"><ele>584.0</ele><time>2026-04-18T13:53:43Z</time></trkpt><trkpt lat="48.03393253475136" lon="11.70942412381894"><ele>584.0</ele><time>2026-04-18T13:53:44Z</time></trkpt><trkpt lat="48.033869554931954" lon="11.709313553370869"><ele>584.0</ele><time>2026-04-18T13:53:45Z</time></trkpt><trkpt lat="48.033808883570586" lon="11.709209050463706"><ele>583.3333333333333</ele><time>2026-04-18T13:53:46Z</time></trkpt><trkpt lat="48.03375721799013" lon="11.709104794284343"><ele>582.6666666666666</ele><time>2026-04-18T13:53:47Z</time></trkpt><trkpt lat="48.03370194742281" lon="11.709013136729645"><ele>582.0</ele><time>2026-04-18T13:53:48Z</time></trkpt><trkpt lat="48.03364363780369" lon="11.708920425253565"><ele>581.3333333333334</ele><time>2026-04-18T13:53:49Z</time></trkpt><trkpt lat="48.033582895946324" lon="11.708824576093212"><ele>580.6666666666667</ele><time>2026-04-18T13:53:50Z</time></trkpt><trkpt lat="48.03351868848831" lon="11.708724327103369"><ele>580.0</ele><time>2026-04-18T13:53:51Z</time></trkpt><trkpt lat="48.03345278557722" lon="11.70862283759795"><ele>579.6</ele><time>2026-04-18T13:53:52Z</time></trkpt><trkpt lat="48.03338477598562" lon="11.70851810381711"><ele>579.2</ele><time>2026-04-18T13:53:53Z</time></trkpt><trkpt lat="48.03331636244602" lon="11.708412747991437"><ele>578.8</ele><time>2026-04-18T13:53:54Z</time></trkpt><trkpt lat="48.0332447092207" lon="11.70830287083194"><ele>578.4</ele><time>2026-04-18T13:53:55Z</time></trkpt><trkpt lat="48.03317602897821" lon="11.708198196563178"><ele>578.0</ele><time>2026-04-18T13:53:56Z</time></trkpt><trkpt lat="48.03311618360026" lon="11.708106987398992"><ele>577.8333333333333</ele><time>2026-04-18T13:53:57Z</time></trkpt><trkpt lat="48.033060094959474" lon="11.708021503665538"><ele>577.6666666666666</ele><time>2026-04-18T13:53:58Z</time></trkpt><trkpt lat="48.033004463203845" lon="11.707936716414288"><ele>577.5</ele><time>2026-04-18T13:53:59Z</time></trkpt><trkpt lat="48.03294826511903" lon="11.707851067520092"><ele>577.3333333333334</ele><time>2026-04-18T13:54:00Z</time></trkpt><trkpt lat="48.03288969153134" lon="11.707761796690264"><ele>577.1666666666667</ele><time>2026-04-18T13:54:01Z</time></trkpt><trkpt lat="48.032829597593405" lon="11.70767020863176"><ele>577.0</ele><time>2026-04-18T13:54:02Z</time></trkpt><trkpt lat="48.03277267594188" lon="11.70758345525722"><ele>577.0</ele><time>2026-04-18T13:54:03Z</time></trkpt><trkpt lat="48.03271986891851" lon="11.707502973136348"><ele>577.0</ele><time>2026-04-18T13:54:04Z</time></trkpt><trkpt lat="48.032666378330575" lon="11.70742088030068"><ele>577.0</ele><time>2026-04-18T13:54:05Z</time></trkpt><trkpt lat="48.03261055407057" lon="11.70733512577092"><ele>577.0</ele><time>2026-04-18T13:54:06Z</time></trkpt><trkpt lat="48.032548007583976" lon="11.707239045255703"><ele>577.0</ele><time>2026-04-18T13:54:07Z</time></trkpt><trkpt lat="48.0324832496235" lon="11.707139532506151"><ele>577.0</ele><time>2026-04-18T13:54:08Z</time></trkpt><trkpt lat="48.032416410221025" lon="11.707033857014725"><ele>577.2</ele><time>2026-04-18T13:54:09Z</time></trkpt><trkpt lat="48.032350958472946" lon="11.706930375174032"><ele>577.4000000000001</ele><time>2026-04-18T13:54:10Z</time></trkpt><trkpt lat="48.032278819131996" lon="11.706836313057678"><ele>577.5999999999999</ele><time>2026-04-18T13:54:11.001Z</time></trkpt><trkpt lat="48.032214110521984" lon="11.706734589294532"><ele>577.8</ele><time>2026-04-18T13:54:12.001Z</time></trkpt><trkpt lat="48.03215360883263" lon="11.706644559161438"><ele>578.0</ele><time>2026-04-18T13:54:13.001Z</time></trkpt><trkpt lat="48.03211075743699" lon="11.706538554653806"><ele>577.8</ele><time>2026-04-18T13:54:14.001Z</time></trkpt><trkpt lat="48.032056726144596" lon="11.706450132878219"><ele>577.5999999999999</ele><time>2026-04-18T13:54:15.001Z</time></trkpt><trkpt lat="48.031986641346656" lon="11.706371081490298"><ele>577.4000000000001</ele><time>2026-04-18T13:54:16.001Z</time></trkpt><trkpt lat="48.0319237123712" lon="11.70625839104727"><ele>577.2</ele><time>2026-04-18T13:54:17.001Z</time></trkpt><trkpt lat="48.031844413024565" lon="11.706130040813356"><ele>577.0</ele><time>2026-04-18T13:54:18.001Z</time></trkpt><trkpt lat="48.03175467238097" lon="11.70598197769662"><ele>577.0</ele><time>2026-04-18T13:54:19.001Z</time></trkpt><trkpt lat="48.03166046283759" lon="11.705819961186965"><ele>577.0</ele><time>2026-04-18T13:54:20.001Z</time></trkpt><trkpt lat="48.03157018993335" lon="11.705668138213909"><ele>577.0</ele><time>2026-04-18T13:54:21.001Z</time></trkpt><trkpt lat="48.03148226516427" lon="11.705520336761841"><ele>577.0</ele><time>2026-04-18T13:54:22.001Z</time></trkpt><trkpt lat="48.03139352093752" lon="11.705371474039936"><ele>578.25</ele><time>2026-04-18T13:54:23.001Z</time></trkpt><trkpt lat="48.03129746329571" lon="11.705207617386248"><ele>579.5</ele><time>2026-04-18T13:54:24.001Z</time></trkpt><trkpt lat="48.031194537434025" lon="11.705043727874454"><ele>580.75</ele><time>2026-04-18T13:54:25.001Z</time></trkpt><trkpt lat="48.0310987448878" lon="11.704885942554196"><ele>582.0</ele><time>2026-04-18T13:54:26.001Z</time></trkpt><trkpt lat="48.03100217666824" lon="11.70471950638405"><ele>582.0</ele><time>2026-04-18T13:54:27.001Z</time></trkpt><trkpt lat="48.03089874427645" lon="11.704548625982504"><ele>582.0</ele><time>2026-04-18T13:54:28.001Z</time></trkpt><trkpt lat="48.030784317571076" lon="11.704359405162602"><ele>582.0</ele><time>2026-04-18T13:54:29.001Z</time></trkpt><trkpt lat="48.030650203715695" lon="11.704132151080634"><ele>584.5</ele><time>2026-04-18T13:54:30.001Z</time></trkpt><trkpt lat="48.030496340162564" lon="11.70387391493265"><ele>587.0</ele><time>2026-04-18T13:54:31.001Z</time></trkpt><trkpt lat="48.030340150511385" lon="11.703616307649451"><ele>587.3333333333333</ele><time>2026-04-18T13:54:32.001Z</time></trkpt><trkpt lat="48.030189093739516" lon="11.703371685176672"><ele>587.6666666666666</ele><time>2026-04-18T13:54:33.001Z</time></trkpt><trkpt lat="48.030068417761235" lon="11.703199642581811"><ele>588.0</ele><time>2026-04-18T13:54:34.001Z</time></trkpt><trkpt lat="48.02995258241867" lon="11.702977423216108"><ele>588.0</ele><time>2026-04-18T13:54:35.001Z</time></trkpt><trkpt lat="48.029826620948796" lon="11.702777448183067"><ele>588.0</ele><time>2026-04-18T13:54:36.001Z</time></trkpt><trkpt lat="48.02969832931893" lon="11.702573773870588"><ele>588.0</ele><time>2026-04-18T13:54:37.001Z</time></trkpt><trkpt lat="48.02957025284053" lon="11.702370441157642"><ele>588.0</ele><time>2026-04-18T13:54:38.001Z</time></trkpt><trkpt lat="48.02942658751972" lon="11.702172566869002"><ele>588.0</ele><time>2026-04-18T13:54:39.001Z</time></trkpt><trkpt lat="48.029286963563926" lon="11.701948657924973"><ele>588.0</ele><time>2026-04-18T13:54:40.001Z</time></trkpt><trkpt lat="48.029135425089684" lon="11.70170719975158"><ele>588.0</ele><time>2026-04-18T13:54:41.001Z</time></trkpt><trkpt lat="48.028970776960314" lon="11.701448391256344"><ele>588.0</ele><time>2026-04-18T13:54:42.001Z</time></trkpt><trkpt lat="48.02882225820868" lon="11.701176321436819"><ele>589.0</ele><time>2026-04-18T13:54:43.001Z</time></trkpt><trkpt lat="48.02866362714581" lon="11.700926387161369"><ele>590.0</ele><time>2026-04-18T13:54:44.001Z</time></trkpt><trkpt lat="48.02850822861852" lon="11.700681545853293"><ele>590.0</ele><time>2026-04-18T13:54:45.001Z</time></trkpt><trkpt lat="48.02835548380404" lon="11.700476293415335"><ele>590.0</ele><time>2026-04-18T13:54:46.001Z</time></trkpt><trkpt lat="48.028233260023164" lon="11.700248116552832"><ele>590.0</ele><time>2026-04-18T13:54:47.001Z</time></trkpt><trkpt lat="48.02810128188359" lon="11.70003912887348"><ele>588.3333333333333</ele><time>2026-04-18T13:54:48.001Z</time></trkpt><trkpt lat="48.02796688675598" lon="11.699827984915327"><ele>586.6666666666666</ele><time>2026-04-18T13:54:49.001Z</time></trkpt><trkpt lat="48.027820078283824" lon="11.699630058965633"><ele>585.0</ele><time>2026-04-18T13:54:50.001Z</time></trkpt><trkpt lat="48.02770346822319" lon="11.69940798848897"><ele>585.0</ele><time>2026-04-18T13:54:51.001Z</time></trkpt><trkpt lat="48.027583256087794" lon="11.699218294301833"><ele>585.0</ele><time>2026-04-18T13:54:52.001Z</time></trkpt><trkpt lat="48.02747586324107" lon="11.699051615210063"><ele>585.0</ele><time>2026-04-18T13:54:53.001Z</time></trkpt><trkpt lat="48.027362943245315" lon="11.698909816163349"><ele>584.25</ele><time>2026-04-18T13:54:54.001Z</time></trkpt><trkpt lat="48.02726531549735" lon="11.698747646032345"><ele>583.5</ele><time>2026-04-18T13:54:55.001Z</time></trkpt><trkpt lat="48.027166396770795" lon="11.698586284297395"><ele>582.75</ele><time>2026-04-18T13:54:56.001Z</time></trkpt><trkpt lat="48.02706709424885" lon="11.698431113455783"><ele>582.0</ele><time>2026-04-18T13:54:57.001Z</time></trkpt><trkpt lat="48.0269702491193" lon="11.698274303825631"><ele>582.0</ele><time>2026-04-18T13:54:58.001Z</time></trkpt><trkpt lat="48.026879716448995" lon="11.69813418681079"><ele>582.0</ele><time>2026-04-18T13:54:59.001Z</time></trkpt><trkpt lat="48.026802938103664" lon="11.698016972226062"><ele>582.0</ele><time>2026-04-18T13:55:00.001Z</time></trkpt><trkpt lat="48.02673454134346" lon="11.697911195184208"><ele>582.0</ele><time>2026-04-18T13:55:01.001Z</time></trkpt><trkpt lat="48.02667693288506" lon="11.697820334914882"><ele>582.0</ele><time>2026-04-18T13:55:02.001Z</time></trkpt><trkpt lat="48.026627603484414" lon="11.697735925061417"><ele>582.0</ele><time>2026-04-18T13:55:03.001Z</time></trkpt><trkpt lat="48.02658570166835" lon="11.697661348173135"><ele>582.0</ele><time>2026-04-18T13:55:04.001Z</time></trkpt><trkpt lat="48.02653700938952" lon="11.697533975409725"><ele>582.0</ele><time>2026-04-18T13:55:06.001Z</time></trkpt><trkpt lat="48.02651647762523" lon="11.697413535682513"><ele>582.0</ele><time>2026-04-18T13:55:08.001Z</time></trkpt><trkpt lat="48.026598982478575" lon="11.697186426543084"><ele>582.0</ele><time>2026-04-18T13:55:11.001Z</time></trkpt><trkpt lat="48.02667129764344" lon="11.697079537613552"><ele>582.0</ele><time>2026-04-18T13:55:12.001Z</time></trkpt><trkpt lat="48.026765847320874" lon="11.696967065999141"><ele>582.0</ele><time>2026-04-18T13:55:13Z</time></trkpt><trkpt lat="48.026851675882426" lon="11.696859934265037"><ele>582.0</ele><time>2026-04-18T13:55:14Z</time></trkpt><trkpt lat="48.02693656101033" lon="11.696745339658664"><ele>582.0</ele><time>2026-04-18T13:55:15Z</time></trkpt><trkpt lat="48.027021170510125" lon="11.696629230366218"><ele>582.8000000000001</ele><time>2026-04-18T13:55:16Z</time></trkpt><trkpt lat="48.02710776186789" lon="11.696512884276876"><ele>583.6</ele><time>2026-04-18T13:55:17Z</time></trkpt><trkpt lat="48.02719354312787" lon="11.696399374540151"><ele>584.4000000000001</ele><time>2026-04-18T13:55:18Z</time></trkpt><trkpt lat="48.02727221512819" lon="11.696282568162134"><ele>585.2</ele><time>2026-04-18T13:55:19Z</time></trkpt><trkpt lat="48.02731933691864" lon="11.696158355196502"><ele>586.0</ele><time>2026-04-18T13:55:20Z</time></trkpt><trkpt lat="48.02733803712292" lon="11.696043977819558"><ele>587.1666666666667</ele><time>2026-04-18T13:55:21Z</time></trkpt><trkpt lat="48.02734481941698" lon="11.695942345876489"><ele>588.3333333333334</ele><time>2026-04-18T13:55:22Z</time></trkpt><trkpt lat="48.02734816748765" lon="11.695792110271793"><ele>589.5</ele><time>2026-04-18T13:55:24Z</time></trkpt><trkpt lat="48.02734516891359" lon="11.695690199052788"><ele>590.6666666666666</ele><time>2026-04-18T13:55:25.999Z</time></trkpt><trkpt lat="48.027296191177946" lon="11.69557225703564"><ele>591.8333333333333</ele><time>2026-04-18T13:56:32Z</time></trkpt><trkpt lat="48.0271974934525" lon="11.69557936767136"><ele>593.0</ele><time>2026-04-18T13:56:34Z</time></trkpt><trkpt lat="48.02713089861957" lon="11.69562907986336"><ele>593.0</ele><time>2026-04-18T13:56:35Z</time></trkpt><trkpt lat="48.02704551139262" lon="11.69567687154556"><ele>593.0</ele><time>2026-04-18T13:56:36Z</time></trkpt><trkpt lat="48.02694660987259" lon="11.695714523104291"><ele>593.0</ele><time>2026-04-18T13:56:37Z</time></trkpt><trkpt lat="48.02685802154529" lon="11.695750006619326"><ele>593.0</ele><time>2026-04-18T13:56:38Z</time></trkpt><trkpt lat="48.026771716227024" lon="11.695783648971508"><ele>593.0</ele><time>2026-04-18T13:56:39Z</time></trkpt><trkpt lat="48.02667796122524" lon="11.695818259254619"><ele>591.75</ele><time>2026-04-18T13:56:40Z</time></trkpt><trkpt lat="48.02657047005971" lon="11.695852947905848"><ele>590.5</ele><time>2026-04-18T13:56:41Z</time></trkpt><trkpt lat="48.02645519368786" lon="11.695880027716482"><ele>589.25</ele><time>2026-04-18T13:56:42Z</time></trkpt><trkpt lat="48.02634365068822" lon="11.695900633562315"><ele>588.0</ele><time>2026-04-18T13:56:43Z</time></trkpt><trkpt lat="48.02622569328784" lon="11.69591967596123"><ele>588.0</ele><time>2026-04-18T13:56:44Z</time></trkpt><trkpt lat="48.026095138678265" lon="11.695935300519036"><ele>588.0</ele><time>2026-04-18T13:56:45Z</time></trkpt><trkpt lat="48.025958286382824" lon="11.695945246628014"><ele>588.0</ele><time>2026-04-18T13:56:46Z</time></trkpt><trkpt lat="48.02582430352586" lon="11.695948780083915"><ele>588.0</ele><time>2026-04-18T13:56:47Z</time></trkpt><trkpt lat="48.02569110498921" lon="11.695948817541739"><ele>587.0</ele><time>2026-04-18T13:56:48Z</time></trkpt><trkpt lat="48.02555632087652" lon="11.695945644499483"><ele>586.0</ele><time>2026-04-18T13:56:49Z</time></trkpt><trkpt lat="48.02542010677233" lon="11.695934213422095"><ele>585.0</ele><time>2026-04-18T13:56:50Z</time></trkpt><trkpt lat="48.02528078135392" lon="11.695910408466164"><ele>584.0</ele><time>2026-04-18T13:56:51Z</time></trkpt><trkpt lat="48.02512797840049" lon="11.695873712023909"><ele>584.6666666666666</ele><time>2026-04-18T13:56:52Z</time></trkpt><trkpt lat="48.02496670363637" lon="11.695832714130185"><ele>585.3333333333334</ele><time>2026-04-18T13:56:53Z</time></trkpt><trkpt lat="48.02478078271767" lon="11.695791528735535"><ele>586.0</ele><time>2026-04-18T13:56:54Z</time></trkpt><trkpt lat="48.024597666276" lon="11.695703448537708"><ele>586.0</ele><time>2026-04-18T13:56:55Z</time></trkpt><trkpt lat="48.02442063884415" lon="11.69565519631029"><ele>586.0</ele><time>2026-04-18T13:56:56Z</time></trkpt><trkpt lat="48.02424599523942" lon="11.69559174992714"><ele>586.0</ele><time>2026-04-18T13:56:57Z</time></trkpt><trkpt lat="48.024072049152096" lon="11.695503562103271"><ele>584.6666666666667</ele><time>2026-04-18T13:56:58Z</time></trkpt><trkpt lat="48.02389407269753" lon="11.695434021895249"><ele>583.3333333333334</ele><time>2026-04-18T13:56:59Z</time></trkpt><trkpt lat="48.02369539631379" lon="11.695371560309495"><ele>582.0</ele><time>2026-04-18T13:57:00Z</time></trkpt><trkpt lat="48.02350308381536" lon="11.695289577899"><ele>582.3333333333334</ele><time>2026-04-18T13:57:01Z</time></trkpt><trkpt lat="48.023309939173316" lon="11.695214266416821"><ele>582.6666666666667</ele><time>2026-04-18T13:57:02Z</time></trkpt><trkpt lat="48.02311003932731" lon="11.695133688026885"><ele>583.0</ele><time>2026-04-18T13:57:03Z</time></trkpt><trkpt lat="48.02292359398818" lon="11.695057272421428"><ele>583.0</ele><time>2026-04-18T13:57:04Z</time></trkpt><trkpt lat="48.022738671644085" lon="11.694987716074683"><ele>583.0</ele><time>2026-04-18T13:57:05Z</time></trkpt><trkpt lat="48.02255286509672" lon="11.694920479532179"><ele>583.0</ele><time>2026-04-18T13:57:06Z</time></trkpt><trkpt lat="48.02236332927054" lon="11.694841105964684"><ele>583.0</ele><time>2026-04-18T13:57:07Z</time></trkpt><trkpt lat="48.0221657599872" lon="11.69477330007296"><ele>583.0</ele><time>2026-04-18T13:57:08Z</time></trkpt><trkpt lat="48.02196412175993" lon="11.694701298253637"><ele>583.0</ele><time>2026-04-18T13:57:09Z</time></trkpt><trkpt lat="48.02175645405642" lon="11.69463583855324"><ele>583.3333333333334</ele><time>2026-04-18T13:57:10Z</time></trkpt><trkpt lat="48.021551286563906" lon="11.694572360212264"><ele>583.6666666666666</ele><time>2026-04-18T13:57:11Z</time></trkpt><trkpt lat="48.02134733162642" lon="11.694525791880553"><ele>584.0</ele><time>2026-04-18T13:57:12Z</time></trkpt><trkpt lat="48.02113962285398" lon="11.694500114137751"><ele>584.0</ele><time>2026-04-18T13:57:13Z</time></trkpt><trkpt lat="48.02093315886541" lon="11.694491341345556"><ele>584.0</ele><time>2026-04-18T13:57:14Z</time></trkpt><trkpt lat="48.020728074448066" lon="11.694496421924207"><ele>584.0</ele><time>2026-04-18T13:57:15Z</time></trkpt><trkpt lat="48.02052796719471" lon="11.694511426738902"><ele>586.6666666666666</ele><time>2026-04-18T13:57:16Z</time></trkpt><trkpt lat="48.020332392030944" lon="11.694536107428014"><ele>589.3333333333334</ele><time>2026-04-18T13:57:17Z</time></trkpt><trkpt lat="48.02013467707227" lon="11.694578426490887"><ele>592.0</ele><time>2026-04-18T13:57:18Z</time></trkpt><trkpt lat="48.01994695395866" lon="11.694635167995068"><ele>592.0</ele><time>2026-04-18T13:57:19Z</time></trkpt><trkpt lat="48.0197596118617" lon="11.694698689486568"><ele>592.0</ele><time>2026-04-18T13:57:20Z</time></trkpt><trkpt lat="48.01957773137634" lon="11.694770477444997"><ele>592.0</ele><time>2026-04-18T13:57:21Z</time></trkpt><trkpt lat="48.019399789952224" lon="11.694877880982903"><ele>592.0</ele><time>2026-04-18T13:57:22Z</time></trkpt><trkpt lat="48.01922455452582" lon="11.69497515964333"><ele>592.0</ele><time>2026-04-18T13:57:23Z</time></trkpt><trkpt lat="48.01904925958015" lon="11.695079443793954"><ele>592.0</ele><time>2026-04-18T13:57:24Z</time></trkpt><trkpt lat="48.01887774596635" lon="11.695192648211794"><ele>593.6666666666667</ele><time>2026-04-18T13:57:25Z</time></trkpt><trkpt lat="48.01870519077184" lon="11.695303203687319"><ele>595.3333333333334</ele><time>2026-04-18T13:57:26Z</time></trkpt><trkpt lat="48.01853046050872" lon="11.695403693031812"><ele>597.0</ele><time>2026-04-18T13:57:27Z</time></trkpt><trkpt lat="48.018360728381644" lon="11.695503196155792"><ele>594.6666666666666</ele><time>2026-04-18T13:57:28Z</time></trkpt><trkpt lat="48.01819268953057" lon="11.69560481544668"><ele>592.3333333333333</ele><time>2026-04-18T13:57:29Z</time></trkpt><trkpt lat="48.018020535467365" lon="11.695707992748751"><ele>590.0</ele><time>2026-04-18T13:57:30Z</time></trkpt><trkpt lat="48.017838318429234" lon="11.69581375813906"><ele>590.0</ele><time>2026-04-18T13:57:31Z</time></trkpt><trkpt lat="48.01764347024323" lon="11.695927809596343"><ele>590.0</ele><time>2026-04-18T13:57:32Z</time></trkpt><trkpt lat="48.017441145072155" lon="11.6960519117039"><ele>590.0</ele><time>2026-04-18T13:57:33Z</time></trkpt><trkpt lat="48.01723211799907" lon="11.69617814608747"><ele>589.3333333333333</ele><time>2026-04-18T13:57:34Z</time></trkpt><trkpt lat="48.01702280411246" lon="11.696302796613184"><ele>588.6666666666666</ele><time>2026-04-18T13:57:35Z</time></trkpt><trkpt lat="48.016815373814374" lon="11.6964254715576"><ele>588.0</ele><time>2026-04-18T13:57:36Z</time></trkpt><trkpt lat="48.01660803815379" lon="11.69654700379821"><ele>588.0</ele><time>2026-04-18T13:57:37Z</time></trkpt><trkpt lat="48.016398241080665" lon="11.69667202947165"><ele>588.0</ele><time>2026-04-18T13:57:38Z</time></trkpt><trkpt lat="48.01618317224503" lon="11.696800688310383"><ele>587.0</ele><time>2026-04-18T13:57:39Z</time></trkpt><trkpt lat="48.015969087100444" lon="11.69692676066105"><ele>586.0</ele><time>2026-04-18T13:57:40Z</time></trkpt><trkpt lat="48.015761285536634" lon="11.697049092695195"><ele>585.6666666666667</ele><time>2026-04-18T13:57:41Z</time></trkpt><trkpt lat="48.0155581416773" lon="11.697168627166407"><ele>585.3333333333334</ele><time>2026-04-18T13:57:42Z</time></trkpt><trkpt lat="48.01535710077541" lon="11.697291253859254"><ele>585.0</ele><time>2026-04-18T13:57:43Z</time></trkpt><trkpt lat="48.01515158150916" lon="11.69741643851391"><ele>585.0</ele><time>2026-04-18T13:57:44Z</time></trkpt><trkpt lat="48.014944221462066" lon="11.697534475981877"><ele>585.0</ele><time>2026-04-18T13:57:45Z</time></trkpt><trkpt lat="48.01474056378876" lon="11.697660952160502"><ele>585.0</ele><time>2026-04-18T13:57:46Z</time></trkpt><trkpt lat="48.01454605354383" lon="11.697770752876156"><ele>585.0</ele><time>2026-04-18T13:57:47Z</time></trkpt><trkpt lat="48.01436749268096" lon="11.697880865487006"><ele>585.0</ele><time>2026-04-18T13:57:48Z</time></trkpt><trkpt lat="48.01419483086969" lon="11.697988364871895"><ele>585.0</ele><time>2026-04-18T13:57:49Z</time></trkpt><trkpt lat="48.01402529379116" lon="11.698104239219232"><ele>585.6666666666666</ele><time>2026-04-18T13:57:50Z</time></trkpt><trkpt lat="48.01385715291804" lon="11.698227850546527"><ele>586.3333333333333</ele><time>2026-04-18T13:57:51Z</time></trkpt><trkpt lat="48.01369197683443" lon="11.698365374636285"><ele>587.0</ele><time>2026-04-18T13:57:52Z</time></trkpt><trkpt lat="48.01353305029944" lon="11.698510040100269"><ele>587.0</ele><time>2026-04-18T13:57:53Z</time></trkpt><trkpt lat="48.01337974565684" lon="11.698662168151674"><ele>587.0</ele><time>2026-04-18T13:57:54Z</time></trkpt><trkpt lat="48.013231929072575" lon="11.69882269043556"><ele>587.0</ele><time>2026-04-18T13:57:55Z</time></trkpt><trkpt lat="48.01309120927991" lon="11.698985706156165"><ele>587.0</ele><time>2026-04-18T13:57:56Z</time></trkpt><trkpt lat="48.0129588392997" lon="11.699148160953051"><ele>587.0</ele><time>2026-04-18T13:57:57Z</time></trkpt><trkpt lat="48.01282966254439" lon="11.699314671593331"><ele>587.0</ele><time>2026-04-18T13:57:58Z</time></trkpt><trkpt lat="48.01270502840403" lon="11.699481613553344"><ele>587.0</ele><time>2026-04-18T13:57:59Z</time></trkpt><trkpt lat="48.01259408285958" lon="11.699657932472467"><ele>587.0</ele><time>2026-04-18T13:58:00Z</time></trkpt><trkpt lat="48.01248953453124" lon="11.69984256301605"><ele>587.0</ele><time>2026-04-18T13:58:01Z</time></trkpt><trkpt lat="48.01239303464651" lon="11.700034607519521"><ele>587.3333333333333</ele><time>2026-04-18T13:58:02Z</time></trkpt><trkpt lat="48.012294118715204" lon="11.700233016992588"><ele>587.6666666666666</ele><time>2026-04-18T13:58:03Z</time></trkpt><trkpt lat="48.01219897748821" lon="11.700434978972195"><ele>588.0</ele><time>2026-04-18T13:58:04Z</time></trkpt><trkpt lat="48.01211135300149" lon="11.700647129038488"><ele>588.0</ele><time>2026-04-18T13:58:05Z</time></trkpt><trkpt lat="48.01201371635461" lon="11.700836051667016"><ele>588.0</ele><time>2026-04-18T13:58:06Z</time></trkpt><trkpt lat="48.01192152259764" lon="11.701030704132872"><ele>588.0</ele><time>2026-04-18T13:58:07Z</time></trkpt><trkpt lat="48.01188364060676" lon="11.701285114589385"><ele>588.3333333333334</ele><time>2026-04-18T13:58:08Z</time></trkpt><trkpt lat="48.011817651913006" lon="11.701512434375745"><ele>588.6666666666667</ele><time>2026-04-18T13:58:09Z</time></trkpt><trkpt lat="48.01175719980025" lon="11.701741106825839"><ele>589.0</ele><time>2026-04-18T13:58:10Z</time></trkpt><trkpt lat="48.01169845529071" lon="11.70196662954421"><ele>591.0</ele><time>2026-04-18T13:58:11Z</time></trkpt><trkpt lat="48.0116408892343" lon="11.702195782665383"><ele>593.0</ele><time>2026-04-18T13:58:12Z</time></trkpt><trkpt lat="48.01158667355437" lon="11.702435239282927"><ele>595.0</ele><time>2026-04-18T13:58:13Z</time></trkpt><trkpt lat="48.01153514141541" lon="11.702692411780202"><ele>596.0</ele><time>2026-04-18T13:58:14Z</time></trkpt><trkpt lat="48.01147764068812" lon="11.702971638532697"><ele>597.0</ele><time>2026-04-18T13:58:15Z</time></trkpt><trkpt lat="48.011421127723246" lon="11.703260587091041"><ele>598.0</ele><time>2026-04-18T13:58:16Z</time></trkpt><trkpt lat="48.011360546044706" lon="11.703542610007219"><ele>598.6666666666667</ele><time>2026-04-18T13:58:17Z</time></trkpt><trkpt lat="48.011294468616335" lon="11.70381437400771"><ele>599.3333333333334</ele><time>2026-04-18T13:58:18Z</time></trkpt><trkpt lat="48.011227311788524" lon="11.704083499274478"><ele>600.0</ele><time>2026-04-18T13:58:19Z</time></trkpt><trkpt lat="48.01116019817078" lon="11.704344616146544"><ele>599.0</ele><time>2026-04-18T13:58:20Z</time></trkpt><trkpt lat="48.011086144682814" lon="11.70460712576433"><ele>598.0</ele><time>2026-04-18T13:58:21Z</time></trkpt><trkpt lat="48.0110068935585" lon="11.704874429894799"><ele>597.0</ele><time>2026-04-18T13:58:22Z</time></trkpt><trkpt lat="48.01091886272955" lon="11.705143852780614"><ele>596.3333333333334</ele><time>2026-04-18T13:58:23Z</time></trkpt><trkpt lat="48.010825999806144" lon="11.70540364488201"><ele>595.6666666666667</ele><time>2026-04-18T13:58:24Z</time></trkpt><trkpt lat="48.01072959410376" lon="11.705649272816222"><ele>595.0</ele><time>2026-04-18T13:58:25Z</time></trkpt><trkpt lat="48.01062998523597" lon="11.705887414844584"><ele>599.6666666666667</ele><time>2026-04-18T13:58:26Z</time></trkpt><trkpt lat="48.01052714706745" lon="11.706120130909753"><ele>604.3333333333334</ele><time>2026-04-18T13:58:27Z</time></trkpt><trkpt lat="48.010422628917915" lon="11.706349944547489"><ele>609.0</ele><time>2026-04-18T13:58:28Z</time></trkpt><trkpt lat="48.010315757573196" lon="11.706579809716013"><ele>609.0</ele><time>2026-04-18T13:58:29Z</time></trkpt><trkpt lat="48.010208311456665" lon="11.706814798578346"><ele>609.0</ele><time>2026-04-18T13:58:30Z</time></trkpt><trkpt lat="48.01010182446303" lon="11.707055402736657"><ele>609.0</ele><time>2026-04-18T13:58:31Z</time></trkpt><trkpt lat="48.010006481729" lon="11.707278743400662"><ele>610.3333333333334</ele><time>2026-04-18T13:58:32Z</time></trkpt><trkpt lat="48.00991461802717" lon="11.707502237045988"><ele>611.6666666666667</ele><time>2026-04-18T13:58:33Z</time></trkpt><trkpt lat="48.00982899951742" lon="11.707707842752022"><ele>613.0</ele><time>2026-04-18T13:58:34Z</time></trkpt><trkpt lat="48.00975142039394" lon="11.70790412122842"><ele>613.0</ele><time>2026-04-18T13:58:35Z</time></trkpt><trkpt lat="48.009679390366166" lon="11.708091161802342"><ele>613.0</ele><time>2026-04-18T13:58:36Z</time></trkpt><trkpt lat="48.00961434782803" lon="11.70827803429336"><ele>613.0</ele><time>2026-04-18T13:58:37Z</time></trkpt><trkpt lat="48.00955544361247" lon="11.7084581375988"><ele>613.0</ele><time>2026-04-18T13:58:38Z</time></trkpt><trkpt lat="48.00949779154497" lon="11.708631662721691"><ele>611.25</ele><time>2026-04-18T13:58:39Z</time></trkpt><trkpt lat="48.0094337569311" lon="11.7087928022256"><ele>609.5</ele><time>2026-04-18T13:58:40Z</time></trkpt><trkpt lat="48.009372880821346" lon="11.708951942810433"><ele>607.75</ele><time>2026-04-18T13:58:41Z</time></trkpt><trkpt lat="48.009324496147734" lon="11.709124421721569"><ele>606.0</ele><time>2026-04-18T13:58:42Z</time></trkpt><trkpt lat="48.009291108021664" lon="11.709282531374043"><ele>605.2</ele><time>2026-04-18T13:58:43Z</time></trkpt><trkpt lat="48.0092594617037" lon="11.70944868178434"><ele>604.4000000000001</ele><time>2026-04-18T13:58:44Z</time></trkpt><trkpt lat="48.00922931812663" lon="11.709610082621172"><ele>603.6</ele><time>2026-04-18T13:58:45Z</time></trkpt><trkpt lat="48.00920088644223" lon="11.709759934998866"><ele>602.8000000000001</ele><time>2026-04-18T13:58:46Z</time></trkpt><trkpt lat="48.00917401843874" lon="11.70990217997421"><ele>602.0</ele><time>2026-04-18T13:58:47Z</time></trkpt><trkpt lat="48.0091537046276" lon="11.710005213693716"><ele>602.0</ele><time>2026-04-18T13:58:48Z</time></trkpt><trkpt lat="48.00911839097254" lon="11.710108249003106"><ele>602.0</ele><time>2026-04-18T13:58:49Z</time></trkpt><trkpt lat="48.00906094223495" lon="11.710175084389276"><ele>602.0</ele><time>2026-04-18T13:58:50Z</time></trkpt><trkpt lat="48.00899233110602" lon="11.71020051201925"><ele>602.0</ele><time>2026-04-18T13:58:51Z</time></trkpt><trkpt lat="48.00891875133643" lon="11.710184464864405"><ele>602.0</ele><time>2026-04-18T13:58:52Z</time></trkpt><trkpt lat="48.00883950449888" lon="11.710138079466553"><ele>602.0</ele><time>2026-04-18T13:58:53Z</time></trkpt><trkpt lat="48.0087538091735" lon="11.710079178701532"><ele>602.0</ele><time>2026-04-18T13:58:54Z</time></trkpt><trkpt lat="48.00866415102095" lon="11.710003307466495"><ele>602.0</ele><time>2026-04-18T13:58:55Z</time></trkpt><trkpt lat="48.00856564867917" lon="11.709918838771598"><ele>602.0</ele><time>2026-04-18T13:58:56Z</time></trkpt><trkpt lat="48.00845977401353" lon="11.70983694531749"><ele>602.0</ele><time>2026-04-18T13:58:57Z</time></trkpt><trkpt lat="48.008353055886474" lon="11.709760472885362"><ele>603.0</ele><time>2026-04-18T13:58:58Z</time></trkpt><trkpt lat="48.00825170667212" lon="11.70969493862669"><ele>604.0</ele><time>2026-04-18T13:58:59Z</time></trkpt><trkpt lat="48.008162356920366" lon="11.709633051720818"><ele>605.0</ele><time>2026-04-18T13:59:00Z</time></trkpt><trkpt lat="48.00808874522397" lon="11.709585213625797"><ele>606.0</ele><time>2026-04-18T13:59:01Z</time></trkpt><trkpt lat="48.00801632850723" lon="11.709552665470015"><ele>607.0</ele><time>2026-04-18T13:59:02Z</time></trkpt><trkpt lat="48.00794485387372" lon="11.709516599382942"><ele>608.0</ele><time>2026-04-18T13:59:03Z</time></trkpt><trkpt lat="48.00786899819421" lon="11.709472460909131"><ele>608.0</ele><time>2026-04-18T13:59:04Z</time></trkpt><trkpt lat="48.00779032535883" lon="11.709428204104494"><ele>608.0</ele><time>2026-04-18T13:59:05Z</time></trkpt><trkpt lat="48.007704557139284" lon="11.709388127018288"><ele>608.0</ele><time>2026-04-18T13:59:06Z</time></trkpt><trkpt lat="48.007614514572076" lon="11.70934329809436"><ele>608.0</ele><time>2026-04-18T13:59:07Z</time></trkpt><trkpt lat="48.007523682100505" lon="11.709294565765132"><ele>608.0</ele><time>2026-04-18T13:59:08Z</time></trkpt><trkpt lat="48.00743381626141" lon="11.709242807947525"><ele>606.4</ele><time>2026-04-18T13:59:09Z</time></trkpt><trkpt lat="48.00734483927199" lon="11.709193788304633"><ele>604.8</ele><time>2026-04-18T13:59:10Z</time></trkpt><trkpt lat="48.007247080329996" lon="11.709147181427541"><ele>603.2</ele><time>2026-04-18T13:59:11Z</time></trkpt><trkpt lat="48.00713783525173" lon="11.709092904613117"><ele>601.6</ele><time>2026-04-18T13:59:12Z</time></trkpt><trkpt lat="48.007015702562235" lon="11.709041613451438"><ele>600.0</ele><time>2026-04-18T13:59:13Z</time></trkpt><trkpt lat="48.00688139391553" lon="11.708980050878825"><ele>600.0</ele><time>2026-04-18T13:59:14Z</time></trkpt><trkpt lat="48.0067425464092" lon="11.708897004531005"><ele>600.0</ele><time>2026-04-18T13:59:15Z</time></trkpt><trkpt lat="48.00660162582447" lon="11.708792652401115"><ele>600.0</ele><time>2026-04-18T13:59:16Z</time></trkpt><trkpt lat="48.00646073366288" lon="11.708686816712165"><ele>598.5</ele><time>2026-04-18T13:59:17Z</time></trkpt><trkpt lat="48.00632615255844" lon="11.708579689055396"><ele>597.0</ele><time>2026-04-18T13:59:18Z</time></trkpt><trkpt lat="48.00619574233172" lon="11.708481980272385"><ele>595.5</ele><time>2026-04-18T13:59:19Z</time></trkpt><trkpt lat="48.006074287934815" lon="11.708382204869707"><ele>594.0</ele><time>2026-04-18T13:59:20Z</time></trkpt><trkpt lat="48.00595875179384" lon="11.708278258812573"><ele>594.0</ele><time>2026-04-18T13:59:21Z</time></trkpt><trkpt lat="48.00585037645155" lon="11.708183302363054"><ele>594.0</ele><time>2026-04-18T13:59:22Z</time></trkpt><trkpt lat="48.00573627008381" lon="11.708090277794206"><ele>594.0</ele><time>2026-04-18T13:59:23Z</time></trkpt><trkpt lat="48.005619419828385" lon="11.707985960755673"><ele>594.0</ele><time>2026-04-18T13:59:24Z</time></trkpt><trkpt lat="48.00549968115156" lon="11.7078901068221"><ele>594.25</ele><time>2026-04-18T13:59:25Z</time></trkpt><trkpt lat="48.00537825569225" lon="11.70780862497417"><ele>594.5</ele><time>2026-04-18T13:59:26Z</time></trkpt><trkpt lat="48.005256896807" lon="11.707723561955806"><ele>594.75</ele><time>2026-04-18T13:59:27Z</time></trkpt><trkpt lat="48.00513273874857" lon="11.707656572275164"><ele>595.0</ele><time>2026-04-18T13:59:28Z</time></trkpt><trkpt lat="48.005004074947664" lon="11.707591043530458"><ele>596.3333333333334</ele><time>2026-04-18T13:59:29Z</time></trkpt><trkpt lat="48.00486072725948" lon="11.707524533972437"><ele>597.6666666666666</ele><time>2026-04-18T13:59:30Z</time></trkpt><trkpt lat="48.00470295546797" lon="11.707463401087795"><ele>599.0</ele><time>2026-04-18T13:59:31Z</time></trkpt><trkpt lat="48.00453691040414" lon="11.707400329980395"><ele>599.0</ele><time>2026-04-18T13:59:32Z</time></trkpt><trkpt lat="48.00437370458128" lon="11.70733740766185"><ele>599.0</ele><time>2026-04-18T13:59:33Z</time></trkpt><trkpt lat="48.004219852574224" lon="11.70727646487264"><ele>599.0</ele><time>2026-04-18T13:59:34Z</time></trkpt><trkpt lat="48.00406903528959" lon="11.707210274352464"><ele>601.3333333333333</ele><time>2026-04-18T13:59:35Z</time></trkpt><trkpt lat="48.00391289663946" lon="11.707155652828277"><ele>603.6666666666666</ele><time>2026-04-18T13:59:36Z</time></trkpt><trkpt lat="48.00374378308223" lon="11.707091788900602"><ele>606.0</ele><time>2026-04-18T13:59:37Z</time></trkpt><trkpt lat="48.00358010181661" lon="11.707002344629677"><ele>606.0</ele><time>2026-04-18T13:59:38Z</time></trkpt><trkpt lat="48.00342026980765" lon="11.706938634391513"><ele>606.0</ele><time>2026-04-18T13:59:39Z</time></trkpt><trkpt lat="48.003259376594734" lon="11.706875191690381"><ele>606.0</ele><time>2026-04-18T13:59:40Z</time></trkpt><trkpt lat="48.00309769490947" lon="11.706812653795664"><ele>603.3333333333334</ele><time>2026-04-18T13:59:41Z</time></trkpt><trkpt lat="48.002930894799135" lon="11.706750557842447"><ele>600.6666666666667</ele><time>2026-04-18T13:59:42Z</time></trkpt><trkpt lat="48.00274628962729" lon="11.706715444088166"><ele>598.0</ele><time>2026-04-18T13:59:43Z</time></trkpt><trkpt lat="48.002565619083875" lon="11.706663701782887"><ele>597.3333333333334</ele><time>2026-04-18T13:59:44Z</time></trkpt><trkpt lat="48.002393788801776" lon="11.70663928658381"><ele>596.6666666666666</ele><time>2026-04-18T13:59:45Z</time></trkpt><trkpt lat="48.002225185167205" lon="11.706633809266714"><ele>596.0</ele><time>2026-04-18T13:59:46Z</time></trkpt><trkpt lat="48.002048510617534" lon="11.706638275918824"><ele>596.0</ele><time>2026-04-18T13:59:47Z</time></trkpt><trkpt lat="48.001861739364465" lon="11.706657571830668"><ele>596.0</ele><time>2026-04-18T13:59:48Z</time></trkpt><trkpt lat="48.00166764460202" lon="11.706685017678222"><ele>596.0</ele><time>2026-04-18T13:59:49Z</time></trkpt><trkpt lat="48.00147448827693" lon="11.706714896878008"><ele>598.3333333333333</ele><time>2026-04-18T13:59:50Z</time></trkpt><trkpt lat="48.001284273905185" lon="11.706743670360174"><ele>600.6666666666666</ele><time>2026-04-18T13:59:51Z</time></trkpt><trkpt lat="48.00108868761089" lon="11.706778190527414"><ele>603.0</ele><time>2026-04-18T13:59:52Z</time></trkpt><trkpt lat="48.00088681178822" lon="11.706810829130706"><ele>603.6666666666666</ele><time>2026-04-18T13:59:53Z</time></trkpt><trkpt lat="48.000682844283304" lon="11.706842304164134"><ele>604.3333333333333</ele><time>2026-04-18T13:59:54Z</time></trkpt><trkpt lat="48.000476424044734" lon="11.706876837594706"><ele>605.0</ele><time>2026-04-18T13:59:55Z</time></trkpt><trkpt lat="48.000267012000165" lon="11.706924777380124"><ele>607.0</ele><time>2026-04-18T13:59:56Z</time></trkpt><trkpt lat="48.00004207135931" lon="11.706963366716028"><ele>609.0</ele><time>2026-04-18T13:59:57Z</time></trkpt><trkpt lat="47.9998279808883" lon="11.70699253247128"><ele>611.0</ele><time>2026-04-18T13:59:58Z</time></trkpt><trkpt lat="47.999624169210215" lon="11.707024745676994"><ele>611.0</ele><time>2026-04-18T13:59:59Z</time></trkpt><trkpt lat="47.999423471116174" lon="11.70705841779641"><ele>611.0</ele><time>2026-04-18T14:00:00Z</time></trkpt><trkpt lat="47.999213484072705" lon="11.707097397287523"><ele>611.0</ele><time>2026-04-18T14:00:01Z</time></trkpt><trkpt lat="47.99898915287996" lon="11.707144693374206"><ele>610.0</ele><time>2026-04-18T14:00:02Z</time></trkpt><trkpt lat="47.99875555729578" lon="11.707230874220926"><ele>609.0</ele><time>2026-04-18T14:00:03Z</time></trkpt><trkpt lat="47.998533270298665" lon="11.70734301003882"><ele>609.3333333333334</ele><time>2026-04-18T14:00:04Z</time></trkpt><trkpt lat="47.998328661972124" lon="11.707455212786153"><ele>609.6666666666667</ele><time>2026-04-18T14:00:05Z</time></trkpt><trkpt lat="47.998136900339176" lon="11.707563089694005"><ele>610.0</ele><time>2026-04-18T14:00:06Z</time></trkpt><trkpt lat="47.99793979059928" lon="11.707678406663732"><ele>610.3333333333334</ele><time>2026-04-18T14:00:07Z</time></trkpt><trkpt lat="47.99773314183712" lon="11.707798054859046"><ele>610.6666666666666</ele><time>2026-04-18T14:00:08Z</time></trkpt><trkpt lat="47.997529192710815" lon="11.707910390184066"><ele>611.0</ele><time>2026-04-18T14:00:09Z</time></trkpt><trkpt lat="47.99733469225676" lon="11.70802004427998"><ele>611.0</ele><time>2026-04-18T14:00:10Z</time></trkpt><trkpt lat="47.99713331390604" lon="11.70813324566663"><ele>611.0</ele><time>2026-04-18T14:00:11Z</time></trkpt><trkpt lat="47.99692503635505" lon="11.708254051353403"><ele>611.0</ele><time>2026-04-18T14:00:12Z</time></trkpt><trkpt lat="47.99671106922024" lon="11.708378774760362"><ele>611.0</ele><time>2026-04-18T14:00:13Z</time></trkpt><trkpt lat="47.99649774160189" lon="11.70850487867237"><ele>611.0</ele><time>2026-04-18T14:00:14Z</time></trkpt><trkpt lat="47.9962767179063" lon="11.708604676905901"><ele>611.0</ele><time>2026-04-18T14:00:15Z</time></trkpt><trkpt lat="47.996068854394466" lon="11.708746909895929"><ele>611.0</ele><time>2026-04-18T14:00:16Z</time></trkpt><trkpt lat="47.99585715514252" lon="11.708862893634244"><ele>609.6666666666666</ele><time>2026-04-18T14:00:17Z</time></trkpt><trkpt lat="47.99565261743723" lon="11.708992878824017"><ele>608.3333333333334</ele><time>2026-04-18T14:00:18Z</time></trkpt><trkpt lat="47.99546542444064" lon="11.709150183683555"><ele>607.0</ele><time>2026-04-18T14:00:19Z</time></trkpt><trkpt lat="47.995295521480024" lon="11.709330188969892"><ele>607.3333333333334</ele><time>2026-04-18T14:00:20Z</time></trkpt><trkpt lat="47.99514128328761" lon="11.709521422612985"><ele>607.6666666666666</ele><time>2026-04-18T14:00:21Z</time></trkpt><trkpt lat="47.99499838850904" lon="11.709712669442034"><ele>608.0</ele><time>2026-04-18T14:00:22Z</time></trkpt><trkpt lat="47.99486412125093" lon="11.709894108171135"><ele>608.0</ele><time>2026-04-18T14:00:23Z</time></trkpt><trkpt lat="47.994733878916044" lon="11.710065517009122"><ele>608.0</ele><time>2026-04-18T14:00:24Z</time></trkpt><trkpt lat="47.99459745466299" lon="11.710217295650368"><ele>608.0</ele><time>2026-04-18T14:00:25Z</time></trkpt><trkpt lat="47.99448014244207" lon="11.710373774897567"><ele>607.0</ele><time>2026-04-18T14:00:26Z</time></trkpt><trkpt lat="47.994383197836136" lon="11.71053196431005"><ele>606.0</ele><time>2026-04-18T14:00:27Z</time></trkpt><trkpt lat="47.99428679019021" lon="11.710655783843908"><ele>605.0</ele><time>2026-04-18T14:00:28Z</time></trkpt><trkpt lat="47.99419569506979" lon="11.710776446823969"><ele>604.0</ele><time>2026-04-18T14:00:29Z</time></trkpt><trkpt lat="47.99410259028918" lon="11.7109010810838"><ele>603.25</ele><time>2026-04-18T14:00:30Z</time></trkpt><trkpt lat="47.99400225888263" lon="11.711034041451795"><ele>602.5</ele><time>2026-04-18T14:00:31Z</time></trkpt><trkpt lat="47.99389657715421" lon="11.711172165236583"><ele>601.75</ele><time>2026-04-18T14:00:32Z</time></trkpt><trkpt lat="47.99378347912819" lon="11.71130872494223"><ele>601.0</ele><time>2026-04-18T14:00:33Z</time></trkpt><trkpt lat="47.99365473573423" lon="11.711420848529157"><ele>600.25</ele><time>2026-04-18T14:00:34Z</time></trkpt><trkpt lat="47.99352257976733" lon="11.711508194427632"><ele>599.5</ele><time>2026-04-18T14:00:35Z</time></trkpt><trkpt lat="47.993386301986966" lon="11.711570176468454"><ele>598.75</ele><time>2026-04-18T14:00:36Z</time></trkpt><trkpt lat="47.99325002681955" lon="11.711620321956953"><ele>598.0</ele><time>2026-04-18T14:00:37Z</time></trkpt><trkpt lat="47.99311778155883" lon="11.711673660032272"><ele>598.0</ele><time>2026-04-18T14:00:38Z</time></trkpt><trkpt lat="47.99297916488912" lon="11.71173628160148"><ele>598.0</ele><time>2026-04-18T14:00:39Z</time></trkpt><trkpt lat="47.99283238999801" lon="11.71179878135302"><ele>598.0</ele><time>2026-04-18T14:00:40Z</time></trkpt><trkpt lat="47.99268800393852" lon="11.711857166715967"><ele>598.0</ele><time>2026-04-18T14:00:41Z</time></trkpt><trkpt lat="47.99254397894583" lon="11.711918864067174"><ele>598.3333333333334</ele><time>2026-04-18T14:00:42Z</time></trkpt><trkpt lat="47.99239902531331" lon="11.711983887150135"><ele>598.6666666666666</ele><time>2026-04-18T14:00:43Z</time></trkpt><trkpt lat="47.99224297342484" lon="11.712054197981535"><ele>599.0</ele><time>2026-04-18T14:00:44Z</time></trkpt><trkpt lat="47.99206025226107" lon="11.71213401529256"><ele>599.0</ele><time>2026-04-18T14:00:45Z</time></trkpt><trkpt lat="47.99185556059722" lon="11.712223728024801"><ele>599.0</ele><time>2026-04-18T14:00:46Z</time></trkpt><trkpt lat="47.991669632963266" lon="11.712306472360776"><ele>599.0</ele><time>2026-04-18T14:00:47Z</time></trkpt><trkpt lat="47.99149721654684" lon="11.712384722828787"><ele>599.0</ele><time>2026-04-18T14:00:48Z</time></trkpt><trkpt lat="47.99132631967643" lon="11.712461258441579"><ele>599.0</ele><time>2026-04-18T14:00:49Z</time></trkpt><trkpt lat="47.99115285086987" lon="11.712541078123378"><ele>599.0</ele><time>2026-04-18T14:00:50Z</time></trkpt><trkpt lat="47.990974429288116" lon="11.712619212687706"><ele>599.6666666666666</ele><time>2026-04-18T14:00:51Z</time></trkpt><trkpt lat="47.99079589538186" lon="11.712695209205926"><ele>600.3333333333334</ele><time>2026-04-18T14:00:52Z</time></trkpt><trkpt lat="47.990625329865445" lon="11.712769202399622"><ele>601.0</ele><time>2026-04-18T14:00:53Z</time></trkpt><trkpt lat="47.99045988597881" lon="11.712838867166846"><ele>601.0</ele><time>2026-04-18T14:00:54Z</time></trkpt><trkpt lat="47.99029973363243" lon="11.712902370849195"><ele>601.0</ele><time>2026-04-18T14:00:55Z</time></trkpt><trkpt lat="47.9901423294805" lon="11.712963713657455"><ele>601.0</ele><time>2026-04-18T14:00:56Z</time></trkpt><trkpt lat="47.98998525230045" lon="11.713017973029165"><ele>601.25</ele><time>2026-04-18T14:00:57Z</time></trkpt><trkpt lat="47.989829573641046" lon="11.713058157228621"><ele>601.5</ele><time>2026-04-18T14:00:58Z</time></trkpt><trkpt lat="47.98968292684139" lon="11.713087589512869"><ele>601.75</ele><time>2026-04-18T14:00:59Z</time></trkpt><trkpt lat="47.98954484747886" lon="11.713106335745387"><ele>602.0</ele><time>2026-04-18T14:01:00Z</time></trkpt><trkpt lat="47.989408515481166" lon="11.71321318994674"><ele>602.0</ele><time>2026-04-18T14:01:01Z</time></trkpt><trkpt lat="47.98929427537163" lon="11.713251022887363"><ele>602.0</ele><time>2026-04-18T14:01:02Z</time></trkpt><trkpt lat="47.98919267292549" lon="11.713280219776445"><ele>602.0</ele><time>2026-04-18T14:01:03Z</time></trkpt><trkpt lat="47.98909429379547" lon="11.713317942953893"><ele>602.0</ele><time>2026-04-18T14:01:04Z</time></trkpt><trkpt lat="47.98899603638967" lon="11.713347691186433"><ele>602.0</ele><time>2026-04-18T14:01:05Z</time></trkpt><trkpt lat="47.98890015968865" lon="11.713382650957934"><ele>602.0</ele><time>2026-04-18T14:01:06Z</time></trkpt><trkpt lat="47.98880105986417" lon="11.713416867363009"><ele>602.0</ele><time>2026-04-18T14:01:07Z</time></trkpt><trkpt lat="47.988686899505616" lon="11.713461207670166"><ele>602.0</ele><time>2026-04-18T14:01:08Z</time></trkpt><trkpt lat="47.98856112801152" lon="11.713528180327138"><ele>602.0</ele><time>2026-04-18T14:01:09Z</time></trkpt><trkpt lat="47.98844537983084" lon="11.713599431635332"><ele>602.2</ele><time>2026-04-18T14:01:10Z</time></trkpt><trkpt lat="47.98833670707998" lon="11.713658190067866"><ele>602.4000000000001</ele><time>2026-04-18T14:01:11Z</time></trkpt><trkpt lat="47.988236347191595" lon="11.713718664481018"><ele>602.5999999999999</ele><time>2026-04-18T14:01:12Z</time></trkpt><trkpt lat="47.98814040648923" lon="11.713771547071508"><ele>602.8</ele><time>2026-04-18T14:01:13Z</time></trkpt><trkpt lat="47.988044484926604" lon="11.713827866949108"><ele>603.0</ele><time>2026-04-18T14:01:14Z</time></trkpt><trkpt lat="47.987943610687644" lon="11.71388624728439"><ele>603.0</ele><time>2026-04-18T14:01:15Z</time></trkpt><trkpt lat="47.98784054763926" lon="11.713946961066616"><ele>603.0</ele><time>2026-04-18T14:01:16Z</time></trkpt><trkpt lat="47.987734775403915" lon="11.714014187563322"><ele>603.0</ele><time>2026-04-18T14:01:17Z</time></trkpt><trkpt lat="47.987625229808415" lon="11.714073510966026"><ele>603.0</ele><time>2026-04-18T14:01:18Z</time></trkpt><trkpt lat="47.98752313127886" lon="11.714137093858165"><ele>603.1666666666666</ele><time>2026-04-18T14:01:19Z</time></trkpt><trkpt lat="47.987424205623476" lon="11.714199533705772"><ele>603.3333333333334</ele><time>2026-04-18T14:01:20Z</time></trkpt><trkpt lat="47.987328077694826" lon="11.714252722354477"><ele>603.5</ele><time>2026-04-18T14:01:21Z</time></trkpt><trkpt lat="47.98724711312835" lon="11.7142992431899"><ele>603.6666666666667</ele><time>2026-04-18T14:01:22Z</time></trkpt><trkpt lat="47.98717229501459" lon="11.714334440171053"><ele>603.8333333333334</ele><time>2026-04-18T14:01:23Z</time></trkpt><trkpt lat="47.98710525436877" lon="11.714352091802757"><ele>604.0</ele><time>2026-04-18T14:01:24Z</time></trkpt><trkpt lat="47.987032908557005" lon="11.714380453114096"><ele>604.0</ele><time>2026-04-18T14:01:25Z</time></trkpt><trkpt lat="47.98695778079835" lon="11.714412115293419"><ele>604.0</ele><time>2026-04-18T14:01:26Z</time></trkpt><trkpt lat="47.98687779726636" lon="11.71444113366103"><ele>604.0</ele><time>2026-04-18T14:01:27Z</time></trkpt><trkpt lat="47.98679226783067" lon="11.714472234846564"><ele>604.0</ele><time>2026-04-18T14:01:28Z</time></trkpt><trkpt lat="47.98670234821113" lon="11.71450956348993"><ele>604.0</ele><time>2026-04-18T14:01:29Z</time></trkpt><trkpt lat="47.98660468607141" lon="11.71455757570672"><ele>604.0</ele><time>2026-04-18T14:01:30Z</time></trkpt><trkpt lat="47.986501561595034" lon="11.714619637848488"><ele>604.4</ele><time>2026-04-18T14:01:31Z</time></trkpt><trkpt lat="47.98640009822827" lon="11.714686675794043"><ele>604.8</ele><time>2026-04-18T14:01:32Z</time></trkpt><trkpt lat="47.986295691772796" lon="11.714746052801994"><ele>605.2</ele><time>2026-04-18T14:01:33Z</time></trkpt><trkpt lat="47.98619991174501" lon="11.714817291776727"><ele>605.6</ele><time>2026-04-18T14:01:34Z</time></trkpt><trkpt lat="47.98610838420638" lon="11.714888709734524"><ele>606.0</ele><time>2026-04-18T14:01:35Z</time></trkpt><trkpt lat="47.986017025412984" lon="11.714951437559588"><ele>606.0</ele><time>2026-04-18T14:01:36Z</time></trkpt><trkpt lat="47.985930126948716" lon="11.715010422964237"><ele>606.0</ele><time>2026-04-18T14:01:37Z</time></trkpt><trkpt lat="47.98583970758198" lon="11.715058816615226"><ele>606.0</ele><time>2026-04-18T14:01:38Z</time></trkpt><trkpt lat="47.98574185602419" lon="11.71507520668859"><ele>606.0</ele><time>2026-04-18T14:01:39Z</time></trkpt><trkpt lat="47.98564365851815" lon="11.715090672612659"><ele>606.0</ele><time>2026-04-18T14:01:40Z</time></trkpt><trkpt lat="47.98554741936934" lon="11.715121913130371"><ele>606.4</ele><time>2026-04-18T14:01:41Z</time></trkpt><trkpt lat="47.98544845680887" lon="11.71515414699706"><ele>606.8</ele><time>2026-04-18T14:01:42Z</time></trkpt><trkpt lat="47.98534890240806" lon="11.71518769731193"><ele>607.1999999999999</ele><time>2026-04-18T14:01:43Z</time></trkpt><trkpt lat="47.985244190060826" lon="11.715219073956964"><ele>607.6</ele><time>2026-04-18T14:01:44.001Z</time></trkpt><trkpt lat="47.98514186408752" lon="11.715252573762728"><ele>608.0</ele><time>2026-04-18T14:01:45.001Z</time></trkpt><trkpt lat="47.985042735814396" lon="11.715309285389917"><ele>607.8</ele><time>2026-04-18T14:01:46.001Z</time></trkpt><trkpt lat="47.98494555405941" lon="11.715376093365771"><ele>607.5999999999999</ele><time>2026-04-18T14:01:47.001Z</time></trkpt><trkpt lat="47.984856689202935" lon="11.71545334562451"><ele>607.4000000000001</ele><time>2026-04-18T14:01:48.001Z</time></trkpt><trkpt lat="47.984775410877134" lon="11.715525345037356"><ele>607.2</ele><time>2026-04-18T14:01:49.001Z</time></trkpt><trkpt lat="47.98469912171761" lon="11.71562080183077"><ele>607.0</ele><time>2026-04-18T14:01:50.001Z</time></trkpt><trkpt lat="47.984625690589326" lon="11.715711974220731"><ele>607.0</ele><time>2026-04-18T14:01:51.001Z</time></trkpt><trkpt lat="47.98455479506716" lon="11.715776177636922"><ele>607.0</ele><time>2026-04-18T14:01:52.001Z</time></trkpt><trkpt lat="47.98449517385293" lon="11.715823225290501"><ele>607.0</ele><time>2026-04-18T14:01:53.001Z</time></trkpt><trkpt lat="47.98441031614825" lon="11.715871669813822"><ele>607.0</ele><time>2026-04-18T14:01:55.001Z</time></trkpt><trkpt lat="47.98434400181597" lon="11.7159160711673"><ele>607.0</ele><time>2026-04-18T14:01:57.001Z</time></trkpt><trkpt lat="47.98426718096572" lon="11.715962765734734"><ele>607.0</ele><time>2026-04-18T14:02:00.001Z</time></trkpt><trkpt lat="47.984167852618675" lon="11.71599569850114"><ele>607.0</ele><time>2026-04-18T14:02:06.001Z</time></trkpt><trkpt lat="47.9841016766292" lon="11.716040730519815"><ele>607.0</ele><time>2026-04-18T14:02:07.001Z</time></trkpt><trkpt lat="47.98403397181162" lon="11.716085247948428"><ele>607.0</ele><time>2026-04-18T14:02:08.001Z</time></trkpt><trkpt lat="47.98395876783959" lon="11.716132946099787"><ele>607.0</ele><time>2026-04-18T14:02:09.001Z</time></trkpt><trkpt lat="47.98387091134377" lon="11.71618283651498"><ele>607.0</ele><time>2026-04-18T14:02:10.001Z</time></trkpt><trkpt lat="47.98377926185157" lon="11.716232192170356"><ele>607.0</ele><time>2026-04-18T14:02:11.001Z</time></trkpt><trkpt lat="47.98369056698097" lon="11.716275751526908"><ele>607.0</ele><time>2026-04-18T14:02:12.001Z</time></trkpt><trkpt lat="47.983609709636745" lon="11.71631135803638"><ele>607.0</ele><time>2026-04-18T14:02:13.001Z</time></trkpt><trkpt lat="47.983521190967856" lon="11.716351060943424"><ele>607.0</ele><time>2026-04-18T14:02:14.001Z</time></trkpt><trkpt lat="47.983406864774295" lon="11.716403158663786"><ele>607.0</ele><time>2026-04-18T14:02:15.001Z</time></trkpt><trkpt lat="47.98324559172608" lon="11.716454344996961"><ele>607.0</ele><time>2026-04-18T14:02:16.001Z</time></trkpt><trkpt lat="47.98310498488691" lon="11.716488660238355"><ele>607.0</ele><time>2026-04-18T14:02:17.001Z</time></trkpt><trkpt lat="47.98298570594998" lon="11.716514583401008"><ele>607.0</ele><time>2026-04-18T14:02:18.001Z</time></trkpt><trkpt lat="47.982885008798576" lon="11.716538944807263"><ele>607.0</ele><time>2026-04-18T14:02:19.001Z</time></trkpt><trkpt lat="47.98280595421514" lon="11.716556519751776"><ele>607.0</ele><time>2026-04-18T14:02:20.001Z</time></trkpt><trkpt lat="47.98269182724601" lon="11.716581878932931"><ele>607.0</ele><time>2026-04-18T14:02:22.001Z</time></trkpt><trkpt lat="47.98262504094753" lon="11.716601302190687"><ele>607.0</ele><time>2026-04-18T14:02:23.001Z</time></trkpt><trkpt lat="47.9825415623706" lon="11.716602637895749"><ele>607.0</ele><time>2026-04-18T14:02:24.001Z</time></trkpt><trkpt lat="47.98245093212453" lon="11.716622141165182"><ele>607.0</ele><time>2026-04-18T14:02:25.001Z</time></trkpt><trkpt lat="47.98234642807759" lon="11.716644629879868"><ele>607.0</ele><time>2026-04-18T14:02:26.001Z</time></trkpt><trkpt lat="47.98223941518568" lon="11.71666543934929"><ele>607.2</ele><time>2026-04-18T14:02:27.001Z</time></trkpt><trkpt lat="47.98213386381208" lon="11.716686113195909"><ele>607.4000000000001</ele><time>2026-04-18T14:02:28.001Z</time></trkpt><trkpt lat="47.982028687591686" lon="11.716719236239918"><ele>607.5999999999999</ele><time>2026-04-18T14:02:29.001Z</time></trkpt><trkpt lat="47.98192138697899" lon="11.716735558290154"><ele>607.8</ele><time>2026-04-18T14:02:30.001Z</time></trkpt><trkpt lat="47.9818126855947" lon="11.716762277078955"><ele>608.0</ele><time>2026-04-18T14:02:31.001Z</time></trkpt><trkpt lat="47.981702034187514" lon="11.716786603198345"><ele>608.0</ele><time>2026-04-18T14:02:32.001Z</time></trkpt><trkpt lat="47.98158677042073" lon="11.716810534872712"><ele>608.0</ele><time>2026-04-18T14:02:33.001Z</time></trkpt><trkpt lat="47.981468744104724" lon="11.716843068124977"><ele>608.0</ele><time>2026-04-18T14:02:34.001Z</time></trkpt><trkpt lat="47.98135869433089" lon="11.71688888130304"><ele>608.0</ele><time>2026-04-18T14:02:35.001Z</time></trkpt><trkpt lat="47.98125842230392" lon="11.716941750006775"><ele>607.75</ele><time>2026-04-18T14:02:36.001Z</time></trkpt><trkpt lat="47.98116467361118" lon="11.716995664443726"><ele>607.5</ele><time>2026-04-18T14:02:37.001Z</time></trkpt><trkpt lat="47.98106718850899" lon="11.717066647471697"><ele>607.25</ele><time>2026-04-18T14:02:38.001Z</time></trkpt><trkpt lat="47.98096048501987" lon="11.71714690333413"><ele>607.0</ele><time>2026-04-18T14:02:39.001Z</time></trkpt><trkpt lat="47.98084910187467" lon="11.71724164847309"><ele>607.75</ele><time>2026-04-18T14:02:40.001Z</time></trkpt><trkpt lat="47.98074303641678" lon="11.717335661987919"><ele>608.5</ele><time>2026-04-18T14:02:41.001Z</time></trkpt><trkpt lat="47.98063571749031" lon="11.717434621513258"><ele>609.25</ele><time>2026-04-18T14:02:42.001Z</time></trkpt><trkpt lat="47.980530364626276" lon="11.717526875176507"><ele>610.0</ele><time>2026-04-18T14:02:43.001Z</time></trkpt><trkpt lat="47.980422266513465" lon="11.717616191090345"><ele>610.0</ele><time>2026-04-18T14:02:44.001Z</time></trkpt><trkpt lat="47.980312892267214" lon="11.717714698212799"><ele>610.0</ele><time>2026-04-18T14:02:45.001Z</time></trkpt><trkpt lat="47.98020691561159" lon="11.717809313960416"><ele>610.0</ele><time>2026-04-18T14:02:46.001Z</time></trkpt><trkpt lat="47.98010107996409" lon="11.717898351357936"><ele>610.0</ele><time>2026-04-18T14:02:47.001Z</time></trkpt><trkpt lat="47.97999394928297" lon="11.717994239525282"><ele>611.3333333333334</ele><time>2026-04-18T14:02:48.001Z</time></trkpt><trkpt lat="47.979882917197735" lon="11.71809834476418"><ele>612.6666666666666</ele><time>2026-04-18T14:02:49.001Z</time></trkpt><trkpt lat="47.97974666578188" lon="11.718200118215883"><ele>614.0</ele><time>2026-04-18T14:02:50.001Z</time></trkpt><trkpt lat="47.97960268304718" lon="11.718348285980898"><ele>614.0</ele><time>2026-04-18T14:02:51.001Z</time></trkpt><trkpt lat="47.97942774737356" lon="11.718475997274611"><ele>614.0</ele><time>2026-04-18T14:02:52.001Z</time></trkpt><trkpt lat="47.979282067765226" lon="11.71861556100839"><ele>614.0</ele><time>2026-04-18T14:02:53.001Z</time></trkpt><trkpt lat="47.97915150072328" lon="11.718756300614274"><ele>614.3333333333333</ele><time>2026-04-18T14:02:54.001Z</time></trkpt><trkpt lat="47.97902186911352" lon="11.71888545047232"><ele>614.6666666666666</ele><time>2026-04-18T14:02:55.001Z</time></trkpt><trkpt lat="47.97888906508319" lon="11.719018544779377"><ele>615.0</ele><time>2026-04-18T14:02:56.001Z</time></trkpt><trkpt lat="47.97875013923017" lon="11.719175908159801"><ele>615.0</ele><time>2026-04-18T14:02:57.001Z</time></trkpt><trkpt lat="47.97860945511423" lon="11.719330285196017"><ele>615.0</ele><time>2026-04-18T14:02:58.001Z</time></trkpt><trkpt lat="47.97847044890297" lon="11.719483957778907"><ele>615.0</ele><time>2026-04-18T14:02:59.001Z</time></trkpt><trkpt lat="47.978340447888755" lon="11.719635223694976"><ele>617.6666666666666</ele><time>2026-04-18T14:03:00.001Z</time></trkpt><trkpt lat="47.97821027667683" lon="11.719779249875183"><ele>620.3333333333333</ele><time>2026-04-18T14:03:01.001Z</time></trkpt><trkpt lat="47.978082784857754" lon="11.719921829956544"><ele>623.0</ele><time>2026-04-18T14:03:02.001Z</time></trkpt><trkpt lat="47.97795444385382" lon="11.720068811309348"><ele>623.0</ele><time>2026-04-18T14:03:03.001Z</time></trkpt><trkpt lat="47.97781651491187" lon="11.720229127046574"><ele>623.0</ele><time>2026-04-18T14:03:04.001Z</time></trkpt><trkpt lat="47.97767361295207" lon="11.72038721048913"><ele>623.0</ele><time>2026-04-18T14:03:05.001Z</time></trkpt><trkpt lat="47.97754001291384" lon="11.720538282961291"><ele>622.6666666666666</ele><time>2026-04-18T14:03:06.001Z</time></trkpt><trkpt lat="47.97741833450069" lon="11.72068112607043"><ele>622.3333333333334</ele><time>2026-04-18T14:03:07.001Z</time></trkpt><trkpt lat="47.97729710827799" lon="11.720817292025055"><ele>622.0</ele><time>2026-04-18T14:03:08.001Z</time></trkpt><trkpt lat="47.977172204965846" lon="11.720961330079152"><ele>620.6666666666667</ele><time>2026-04-18T14:03:09.001Z</time></trkpt><trkpt lat="47.977043106735394" lon="11.721109322006898"><ele>619.3333333333334</ele><time>2026-04-18T14:03:10.001Z</time></trkpt><trkpt lat="47.976913659056066" lon="11.721261120424892"><ele>618.0</ele><time>2026-04-18T14:03:11.001Z</time></trkpt><trkpt lat="47.9767849509938" lon="11.72141442689495"><ele>619.0</ele><time>2026-04-18T14:03:12.001Z</time></trkpt><trkpt lat="47.97665351291471" lon="11.721563113728351"><ele>620.0</ele><time>2026-04-18T14:03:13.001Z</time></trkpt><trkpt lat="47.97652569898078" lon="11.721702549357119"><ele>621.0</ele><time>2026-04-18T14:03:14.001Z</time></trkpt><trkpt lat="47.97640512582529" lon="11.721836547293993"><ele>620.3333333333334</ele><time>2026-04-18T14:03:15.001Z</time></trkpt><trkpt lat="47.9762845244593" lon="11.721969435783603"><ele>619.6666666666667</ele><time>2026-04-18T14:03:16.001Z</time></trkpt><trkpt lat="47.9761652203478" lon="11.722108318886711"><ele>619.0</ele><time>2026-04-18T14:03:17.001Z</time></trkpt><trkpt lat="47.97603414623719" lon="11.722234889563195"><ele>619.0</ele><time>2026-04-18T14:03:18.001Z</time></trkpt><trkpt lat="47.97590935337045" lon="11.722382373687092"><ele>619.0</ele><time>2026-04-18T14:03:19.001Z</time></trkpt><trkpt lat="47.97578339597673" lon="11.722525109490563"><ele>619.0</ele><time>2026-04-18T14:03:20.001Z</time></trkpt><trkpt lat="47.97565752399853" lon="11.722679637779917"><ele>620.0</ele><time>2026-04-18T14:03:21.001Z</time></trkpt><trkpt lat="47.97552057049283" lon="11.722824984929746"><ele>621.0</ele><time>2026-04-18T14:03:22.001Z</time></trkpt><trkpt lat="47.97538910920714" lon="11.722962664285518"><ele>622.0</ele><time>2026-04-18T14:03:23.001Z</time></trkpt><trkpt lat="47.97526940263644" lon="11.723102047822149"><ele>622.0</ele><time>2026-04-18T14:03:24.001Z</time></trkpt><trkpt lat="47.97515117915628" lon="11.723236512702226"><ele>622.0</ele><time>2026-04-18T14:03:25.001Z</time></trkpt><trkpt lat="47.97503152788394" lon="11.72336796708454"><ele>622.0</ele><time>2026-04-18T14:03:26.001Z</time></trkpt><trkpt lat="47.97491146392893" lon="11.723502518051648"><ele>622.0</ele><time>2026-04-18T14:03:27.001Z</time></trkpt><trkpt lat="47.97478502885855" lon="11.723645714403355"><ele>622.3333333333334</ele><time>2026-04-18T14:03:28.001Z</time></trkpt><trkpt lat="47.974652811489385" lon="11.723784363009525"><ele>622.6666666666666</ele><time>2026-04-18T14:03:29.001Z</time></trkpt><trkpt lat="47.97452376272777" lon="11.723927609291515"><ele>623.0</ele><time>2026-04-18T14:03:30.001Z</time></trkpt><trkpt lat="47.97439959478571" lon="11.72406633310633"><ele>623.0</ele><time>2026-04-18T14:03:31.001Z</time></trkpt><trkpt lat="47.97427496640588" lon="11.724206201047638"><ele>623.0</ele><time>2026-04-18T14:03:32.001Z</time></trkpt><trkpt lat="47.974152539552406" lon="11.724344875495772"><ele>623.0</ele><time>2026-04-18T14:03:33.001Z</time></trkpt><trkpt lat="47.97402910224095" lon="11.724486908386694"><ele>621.3333333333333</ele><time>2026-04-18T14:03:34.001Z</time></trkpt><trkpt lat="47.97390211662995" lon="11.724634301450612"><ele>619.6666666666666</ele><time>2026-04-18T14:03:35.001Z</time></trkpt><trkpt lat="47.973773780186995" lon="11.724779821435867"><ele>618.0</ele><time>2026-04-18T14:03:36.001Z</time></trkpt><trkpt lat="47.97364202705296" lon="11.724921283966966"><ele>618.0</ele><time>2026-04-18T14:03:37.001Z</time></trkpt><trkpt lat="47.97351091138656" lon="11.725067880898001"><ele>618.0</ele><time>2026-04-18T14:03:38.001Z</time></trkpt><trkpt lat="47.97338076476286" lon="11.725216963057683"><ele>618.0</ele><time>2026-04-18T14:03:39.001Z</time></trkpt><trkpt lat="47.97325185825352" lon="11.725367462792946"><ele>617.3333333333334</ele><time>2026-04-18T14:03:40.001Z</time></trkpt><trkpt lat="47.97312704966051" lon="11.725505290545755"><ele>616.6666666666667</ele><time>2026-04-18T14:03:41.001Z</time></trkpt><trkpt lat="47.97299954124074" lon="11.725644451749176"><ele>616.0</ele><time>2026-04-18T14:03:42.001Z</time></trkpt><trkpt lat="47.9728718781808" lon="11.725778881252852"><ele>616.0</ele><time>2026-04-18T14:03:43.001Z</time></trkpt><trkpt lat="47.972745213524306" lon="11.725921343925412"><ele>616.0</ele><time>2026-04-18T14:03:44.001Z</time></trkpt><trkpt lat="47.97262051431583" lon="11.7260690953303"><ele>616.0</ele><time>2026-04-18T14:03:45.001Z</time></trkpt><trkpt lat="47.97249285906369" lon="11.72622001945397"><ele>615.6666666666667</ele><time>2026-04-18T14:03:46.001Z</time></trkpt><trkpt lat="47.972366347152" lon="11.726363882510487"><ele>615.3333333333334</ele><time>2026-04-18T14:03:47.001Z</time></trkpt><trkpt lat="47.97223805274972" lon="11.72650598960728"><ele>615.0</ele><time>2026-04-18T14:03:48.001Z</time></trkpt><trkpt lat="47.97211543679201" lon="11.726643734428768"><ele>615.0</ele><time>2026-04-18T14:03:49.001Z</time></trkpt><trkpt lat="47.97198174283427" lon="11.72676715296565"><ele>615.0</ele><time>2026-04-18T14:03:50.001Z</time></trkpt><trkpt lat="47.97185944440181" lon="11.726901640101573"><ele>615.0</ele><time>2026-04-18T14:03:51.001Z</time></trkpt><trkpt lat="47.97173965863316" lon="11.727059413933741"><ele>614.6666666666666</ele><time>2026-04-18T14:03:52.001Z</time></trkpt><trkpt lat="47.97160933111603" lon="11.727200658799337"><ele>614.3333333333333</ele><time>2026-04-18T14:03:53.001Z</time></trkpt><trkpt lat="47.971476446454155" lon="11.72734666483072"><ele>614.0</ele><time>2026-04-18T14:03:54.001Z</time></trkpt><trkpt lat="47.971344199567305" lon="11.727495548619407"><ele>614.0</ele><time>2026-04-18T14:03:55.001Z</time></trkpt><trkpt lat="47.97121012001878" lon="11.727649993418387"><ele>614.0</ele><time>2026-04-18T14:03:56.001Z</time></trkpt><trkpt lat="47.9710779603333" lon="11.727801703024761"><ele>614.0</ele><time>2026-04-18T14:03:57.001Z</time></trkpt><trkpt lat="47.97094570272582" lon="11.727954455763584"><ele>614.6666666666666</ele><time>2026-04-18T14:03:58.001Z</time></trkpt><trkpt lat="47.97080551554448" lon="11.728083294086584"><ele>615.3333333333334</ele><time>2026-04-18T14:03:59.001Z</time></trkpt><trkpt lat="47.970678409665524" lon="11.72822473336024"><ele>616.0</ele><time>2026-04-18T14:04:00.001Z</time></trkpt><trkpt lat="47.9705541455884" lon="11.728363223374398"><ele>616.0</ele><time>2026-04-18T14:04:01.001Z</time></trkpt><trkpt lat="47.97043005493781" lon="11.728503891534324"><ele>616.0</ele><time>2026-04-18T14:04:02.001Z</time></trkpt><trkpt lat="47.97030859463104" lon="11.728641577715408"><ele>616.0</ele><time>2026-04-18T14:04:03.001Z</time></trkpt><trkpt lat="47.97019402448254" lon="11.728799504975079"><ele>616.3333333333334</ele><time>2026-04-18T14:04:04.001Z</time></trkpt><trkpt lat="47.97006729133861" lon="11.728937542866207"><ele>616.6666666666666</ele><time>2026-04-18T14:04:05.001Z</time></trkpt><trkpt lat="47.96993800429778" lon="11.729076111999168"><ele>617.0</ele><time>2026-04-18T14:04:06.001Z</time></trkpt><trkpt lat="47.96981350077903" lon="11.729218543673449"><ele>617.0</ele><time>2026-04-18T14:04:07.001Z</time></trkpt><trkpt lat="47.96968729264451" lon="11.729359589035727"><ele>617.0</ele><time>2026-04-18T14:04:08.001Z</time></trkpt><trkpt lat="47.969559496485985" lon="11.729505890826811"><ele>617.0</ele><time>2026-04-18T14:04:09.001Z</time></trkpt><trkpt lat="47.969434911231936" lon="11.72964393089757"><ele>617.0</ele><time>2026-04-18T14:04:10.001Z</time></trkpt><trkpt lat="47.96931124051719" lon="11.729777413660154"><ele>617.0</ele><time>2026-04-18T14:04:11.001Z</time></trkpt><trkpt lat="47.96918691658405" lon="11.729917545251606"><ele>617.0</ele><time>2026-04-18T14:04:12.001Z</time></trkpt><trkpt lat="47.96906148094269" lon="11.730054085137189"><ele>616.3333333333333</ele><time>2026-04-18T14:04:13.001Z</time></trkpt><trkpt lat="47.96893253843247" lon="11.730197433690345"><ele>615.6666666666666</ele><time>2026-04-18T14:04:14.001Z</time></trkpt><trkpt lat="47.96880316484747" lon="11.730340909969227"><ele>615.0</ele><time>2026-04-18T14:04:15.001Z</time></trkpt><trkpt lat="47.96866904375384" lon="11.730487843034837"><ele>614.3333333333334</ele><time>2026-04-18T14:04:16.001Z</time></trkpt><trkpt lat="47.96854047567615" lon="11.73063164852336"><ele>613.6666666666667</ele><time>2026-04-18T14:04:17.001Z</time></trkpt><trkpt lat="47.96841568803572" lon="11.730772660598538"><ele>613.0</ele><time>2026-04-18T14:04:18.001Z</time></trkpt><trkpt lat="47.96829414880114" lon="11.730909569728379"><ele>614.0</ele><time>2026-04-18T14:04:19.001Z</time></trkpt><trkpt lat="47.96817601013944" lon="11.731045277839016"><ele>615.0</ele><time>2026-04-18T14:04:20.001Z</time></trkpt><trkpt lat="47.968059221654585" lon="11.731181620751817"><ele>616.0</ele><time>2026-04-18T14:04:21.001Z</time></trkpt><trkpt lat="47.96794071257132" lon="11.731318178820116"><ele>617.0</ele><time>2026-04-18T14:04:22.001Z</time></trkpt><trkpt lat="47.9678128948552" lon="11.731465241450515"><ele>618.3333333333333</ele><time>2026-04-18T14:04:23.001Z</time></trkpt><trkpt lat="47.96768325843135" lon="11.731608709070244"><ele>619.6666666666666</ele><time>2026-04-18T14:04:24.001Z</time></trkpt><trkpt lat="47.96755394388876" lon="11.731753264461524"><ele>621.0</ele><time>2026-04-18T14:04:25.001Z</time></trkpt><trkpt lat="47.96742267345838" lon="11.731896706402631"><ele>623.0</ele><time>2026-04-18T14:04:26.001Z</time></trkpt><trkpt lat="47.96729376916259" lon="11.732042265883196"><ele>625.0</ele><time>2026-04-18T14:04:27.001Z</time></trkpt><trkpt lat="47.96715179657267" lon="11.732171836461788"><ele>627.0</ele><time>2026-04-18T14:04:28.001Z</time></trkpt><trkpt lat="47.967023527726575" lon="11.732314815077"><ele>627.0</ele><time>2026-04-18T14:04:29.001Z</time></trkpt><trkpt lat="47.966895262674804" lon="11.732457789626196"><ele>627.0</ele><time>2026-04-18T14:04:30.001Z</time></trkpt><trkpt lat="47.9667679450096" lon="11.732599708255536"><ele>627.0</ele><time>2026-04-18T14:04:31.001Z</time></trkpt><trkpt lat="47.96664277784497" lon="11.732739737237374"><ele>627.6666666666666</ele><time>2026-04-18T14:04:32.001Z</time></trkpt><trkpt lat="47.96652661588396" lon="11.73289882368589"><ele>628.3333333333333</ele><time>2026-04-18T14:04:33.001Z</time></trkpt><trkpt lat="47.96638811253014" lon="11.733024980700224"><ele>629.0</ele><time>2026-04-18T14:04:34.001Z</time></trkpt><trkpt lat="47.966271943698345" lon="11.733185779716669"><ele>629.0</ele><time>2026-04-18T14:04:35.001Z</time></trkpt><trkpt lat="47.96613479549558" lon="11.733308714099099"><ele>629.0</ele><time>2026-04-18T14:04:36.001Z</time></trkpt><trkpt lat="47.966006030395945" lon="11.73345325593284"><ele>629.0</ele><time>2026-04-18T14:04:37.001Z</time></trkpt><trkpt lat="47.96587995400435" lon="11.733595069910335"><ele>628.0</ele><time>2026-04-18T14:04:38.001Z</time></trkpt><trkpt lat="47.96575480713713" lon="11.733735838891851"><ele>627.0</ele><time>2026-04-18T14:04:39.001Z</time></trkpt><trkpt lat="47.965630291990784" lon="11.733875897012393"><ele>626.0</ele><time>2026-04-18T14:04:40.001Z</time></trkpt><trkpt lat="47.96550386166597" lon="11.734018109537523"><ele>626.0</ele><time>2026-04-18T14:04:41.001Z</time></trkpt><trkpt lat="47.96537700821653" lon="11.734160797749068"><ele>626.0</ele><time>2026-04-18T14:04:42.001Z</time></trkpt><trkpt lat="47.965250392222515" lon="11.734303036886645"><ele>626.0</ele><time>2026-04-18T14:04:43.001Z</time></trkpt><trkpt lat="47.96512231144872" lon="11.734446859304704"><ele>626.0</ele><time>2026-04-18T14:04:44.001Z</time></trkpt><trkpt lat="47.964993652818855" lon="11.734591330540333"><ele>626.0</ele><time>2026-04-18T14:04:45.001Z</time></trkpt><trkpt lat="47.9648661712402" lon="11.734734480164917"><ele>626.0</ele><time>2026-04-18T14:04:46.001Z</time></trkpt><trkpt lat="47.964748223079695" lon="11.734897577558714"><ele>626.0</ele><time>2026-04-18T14:04:47.001Z</time></trkpt><trkpt lat="47.96462319264383" lon="11.735039310061657"><ele>626.0</ele><time>2026-04-18T14:04:48.001Z</time></trkpt><trkpt lat="47.96448688152944" lon="11.735159505212124"><ele>626.0</ele><time>2026-04-18T14:04:49.001Z</time></trkpt><trkpt lat="47.96436595072623" lon="11.735298295670257"><ele>627.0</ele><time>2026-04-18T14:04:50.001Z</time></trkpt><trkpt lat="47.96424060705255" lon="11.735439087230347"><ele>628.0</ele><time>2026-04-18T14:04:51.001Z</time></trkpt><trkpt lat="47.96412864663789" lon="11.735595509375495"><ele>629.0</ele><time>2026-04-18T14:04:52.001Z</time></trkpt><trkpt lat="47.96400168003958" lon="11.735733025523201"><ele>629.3333333333333</ele><time>2026-04-18T14:04:53.001Z</time></trkpt><trkpt lat="47.96386350665103" lon="11.735862686313311"><ele>629.6666666666666</ele><time>2026-04-18T14:04:54.001Z</time></trkpt><trkpt lat="47.96373450786304" lon="11.736007608428169"><ele>630.0</ele><time>2026-04-18T14:04:55.001Z</time></trkpt><trkpt lat="47.96360811062951" lon="11.736149607976698"><ele>629.0</ele><time>2026-04-18T14:04:56.001Z</time></trkpt><trkpt lat="47.96348161718156" lon="11.736291715544352"><ele>628.0</ele><time>2026-04-18T14:04:57.001Z</time></trkpt><trkpt lat="47.96336432345451" lon="11.736454462977289"><ele>627.0</ele><time>2026-04-18T14:04:58.001Z</time></trkpt><trkpt lat="47.963225610914726" lon="11.7365793227491"><ele>627.0</ele><time>2026-04-18T14:04:59.001Z</time></trkpt><trkpt lat="47.96309605994213" lon="11.736724865276807"><ele>627.0</ele><time>2026-04-18T14:05:00.001Z</time></trkpt><trkpt lat="47.96297546352713" lon="11.736891031466989"><ele>627.0</ele><time>2026-04-18T14:05:01.001Z</time></trkpt><trkpt lat="47.9628450737563" lon="11.737034311825425"><ele>627.6666666666666</ele><time>2026-04-18T14:05:02.001Z</time></trkpt><trkpt lat="47.962720454686675" lon="11.73717449525123"><ele>628.3333333333333</ele><time>2026-04-18T14:05:03.001Z</time></trkpt><trkpt lat="47.96260005948667" lon="11.737308183711992"><ele>629.0</ele><time>2026-04-18T14:05:04.001Z</time></trkpt><trkpt lat="47.96247717155579" lon="11.737444308103864"><ele>629.0</ele><time>2026-04-18T14:05:05.001Z</time></trkpt><trkpt lat="47.96235241145397" lon="11.737583329439266"><ele>629.0</ele><time>2026-04-18T14:05:06.001Z</time></trkpt><trkpt lat="47.96222289660085" lon="11.737729187640374"><ele>629.0</ele><time>2026-04-18T14:05:07.001Z</time></trkpt><trkpt lat="47.96209176920828" lon="11.737875043652235"><ele>626.0</ele><time>2026-04-18T14:05:08.001Z</time></trkpt><trkpt lat="47.961960050879505" lon="11.738022207961432"><ele>623.0</ele><time>2026-04-18T14:05:09.001Z</time></trkpt><trkpt lat="47.96182945143758" lon="11.738166968675413"><ele>620.0</ele><time>2026-04-18T14:05:10.001Z</time></trkpt><trkpt lat="47.96169917086351" lon="11.738311250794279"><ele>620.3333333333333</ele><time>2026-04-18T14:05:11.001Z</time></trkpt><trkpt lat="47.961567695343" lon="11.738450618502213"><ele>620.6666666666666</ele><time>2026-04-18T14:05:12.001Z</time></trkpt><trkpt lat="47.96144087261381" lon="11.738595150739922"><ele>621.0</ele><time>2026-04-18T14:05:13.001Z</time></trkpt><trkpt lat="47.96131222496784" lon="11.738741604368075"><ele>621.0</ele><time>2026-04-18T14:05:14.001Z</time></trkpt><trkpt lat="47.96118086978788" lon="11.73886320943885"><ele>621.0</ele><time>2026-04-18T14:05:15.001Z</time></trkpt><trkpt lat="47.961055297197376" lon="11.739004530772947"><ele>621.0</ele><time>2026-04-18T14:05:16.001Z</time></trkpt><trkpt lat="47.96093946309984" lon="11.73916447035521"><ele>622.6666666666666</ele><time>2026-04-18T14:05:17.001Z</time></trkpt><trkpt lat="47.960818509389135" lon="11.73929531442594"><ele>624.3333333333333</ele><time>2026-04-18T14:05:18.001Z</time></trkpt><trkpt lat="47.96069529589809" lon="11.739431937959022"><ele>626.0</ele><time>2026-04-18T14:05:19.001Z</time></trkpt><trkpt lat="47.96056931661875" lon="11.739574545254309"><ele>626.0</ele><time>2026-04-18T14:05:20.001Z</time></trkpt><trkpt lat="47.96045470938503" lon="11.739702474265563"><ele>626.0</ele><time>2026-04-18T14:05:21.001Z</time></trkpt><trkpt lat="47.96033338506115" lon="11.739838518485426"><ele>626.0</ele><time>2026-04-18T14:05:22.001Z</time></trkpt><trkpt lat="47.96021543981655" lon="11.739980410901852"><ele>626.0</ele><time>2026-04-18T14:05:23.001Z</time></trkpt><trkpt lat="47.96008835731064" lon="11.740124333066072"><ele>629.6666666666666</ele><time>2026-04-18T14:05:24.001Z</time></trkpt><trkpt lat="47.95996318826666" lon="11.740255056871451"><ele>633.3333333333334</ele><time>2026-04-18T14:05:25.001Z</time></trkpt><trkpt lat="47.959837559967774" lon="11.740387615186627"><ele>637.0</ele><time>2026-04-18T14:05:26.001Z</time></trkpt><trkpt lat="47.959718218869" lon="11.740523790224177"><ele>637.0</ele><time>2026-04-18T14:05:27.001Z</time></trkpt><trkpt lat="47.95958951021839" lon="11.740684531039165"><ele>637.0</ele><time>2026-04-18T14:05:28.001Z</time></trkpt><trkpt lat="47.959440887705725" lon="11.740822510401344"><ele>637.0</ele><time>2026-04-18T14:05:29.001Z</time></trkpt><trkpt lat="47.95931814774006" lon="11.740983586844097"><ele>636.3333333333334</ele><time>2026-04-18T14:05:30.001Z</time></trkpt><trkpt lat="47.95918616659613" lon="11.741122154199449"><ele>635.6666666666666</ele><time>2026-04-18T14:05:31.001Z</time></trkpt><trkpt lat="47.95905887460068" lon="11.741272962730767"><ele>635.0</ele><time>2026-04-18T14:05:32.001Z</time></trkpt><trkpt lat="47.9589283298678" lon="11.741418839204915"><ele>635.0</ele><time>2026-04-18T14:05:33.001Z</time></trkpt><trkpt lat="47.95879811843519" lon="11.741564437822504"><ele>635.0</ele><time>2026-04-18T14:05:34.001Z</time></trkpt><trkpt lat="47.95866571997907" lon="11.741703707031347"><ele>635.0</ele><time>2026-04-18T14:05:35.001Z</time></trkpt><trkpt lat="47.958534939084984" lon="11.741849309360656"><ele>636.0</ele><time>2026-04-18T14:05:36.001Z</time></trkpt><trkpt lat="47.95841050524867" lon="11.741985105182033"><ele>637.0</ele><time>2026-04-18T14:05:37.001Z</time></trkpt><trkpt lat="47.9582828215939" lon="11.7421274372433"><ele>638.0</ele><time>2026-04-18T14:05:38.001Z</time></trkpt><trkpt lat="47.958157548073" lon="11.742273877621585"><ele>637.25</ele><time>2026-04-18T14:05:39.001Z</time></trkpt><trkpt lat="47.95803632117041" lon="11.742411308954395"><ele>636.5</ele><time>2026-04-18T14:05:40.001Z</time></trkpt><trkpt lat="47.95791826380973" lon="11.742543504287626"><ele>635.75</ele><time>2026-04-18T14:05:41.001Z</time></trkpt><trkpt lat="47.957804655180766" lon="11.742670564355924"><ele>635.0</ele><time>2026-04-18T14:05:42.001Z</time></trkpt><trkpt lat="47.9576826057772" lon="11.742803268407357"><ele>635.0</ele><time>2026-04-18T14:05:43.001Z</time></trkpt><trkpt lat="47.957547207061786" lon="11.74295463027784"><ele>635.0</ele><time>2026-04-18T14:05:44.001Z</time></trkpt><trkpt lat="47.95742549769599" lon="11.743095395610148"><ele>635.0</ele><time>2026-04-18T14:05:45.001Z</time></trkpt><trkpt lat="47.95729372555279" lon="11.743236613334043"><ele>635.3333333333333</ele><time>2026-04-18T14:05:46.001Z</time></trkpt><trkpt lat="47.95716816523371" lon="11.743379983265047"><ele>635.6666666666666</ele><time>2026-04-18T14:05:47.001Z</time></trkpt><trkpt lat="47.957040230417974" lon="11.743524373459032"><ele>636.0</ele><time>2026-04-18T14:05:48.001Z</time></trkpt><trkpt lat="47.95691737489854" lon="11.743669294987331"><ele>636.0</ele><time>2026-04-18T14:05:49.001Z</time></trkpt><trkpt lat="47.95679101181621" lon="11.743814733534949"><ele>636.0</ele><time>2026-04-18T14:05:50.001Z</time></trkpt><trkpt lat="47.9566613009554" lon="11.743947425309495"><ele>636.0</ele><time>2026-04-18T14:05:51.001Z</time></trkpt><trkpt lat="47.95653062449749" lon="11.744089072308832"><ele>635.6666666666666</ele><time>2026-04-18T14:05:52.001Z</time></trkpt><trkpt lat="47.95640479154817" lon="11.74424528017259"><ele>635.3333333333333</ele><time>2026-04-18T14:05:53.001Z</time></trkpt><trkpt lat="47.9562818146247" lon="11.744379226351228"><ele>635.0</ele><time>2026-04-18T14:05:54.001Z</time></trkpt><trkpt lat="47.956154431413076" lon="11.74452148739171"><ele>635.0</ele><time>2026-04-18T14:05:55.001Z</time></trkpt><trkpt lat="47.95602507939124" lon="11.744664776182473"><ele>635.0</ele><time>2026-04-18T14:05:56.001Z</time></trkpt><trkpt lat="47.95590126707143" lon="11.744809737740153"><ele>635.0</ele><time>2026-04-18T14:05:57.001Z</time></trkpt><trkpt lat="47.95577438527022" lon="11.744951277011165"><ele>634.0</ele><time>2026-04-18T14:05:58.001Z</time></trkpt><trkpt lat="47.95564632586078" lon="11.745104042889905"><ele>633.0</ele><time>2026-04-18T14:05:59.001Z</time></trkpt><trkpt lat="47.95550728856434" lon="11.745229700504147"><ele>632.0</ele><time>2026-04-18T14:06:00.001Z</time></trkpt><trkpt lat="47.955377730765036" lon="11.745374219569802"><ele>632.0</ele><time>2026-04-18T14:06:01.001Z</time></trkpt><trkpt lat="47.955250280938465" lon="11.745516387150296"><ele>632.0</ele><time>2026-04-18T14:06:02.001Z</time></trkpt><trkpt lat="47.95512624111213" lon="11.745654750939218"><ele>632.0</ele><time>2026-04-18T14:06:03.001Z</time></trkpt><trkpt lat="47.95500159727935" lon="11.745793788594808"><ele>632.3333333333333</ele><time>2026-04-18T14:06:04.001Z</time></trkpt><trkpt lat="47.95488471328998" lon="11.745941033236132"><ele>632.6666666666666</ele><time>2026-04-18T14:06:05.001Z</time></trkpt><trkpt lat="47.9547653845387" lon="11.746074664114273"><ele>633.0</ele><time>2026-04-18T14:06:06.001Z</time></trkpt><trkpt lat="47.95463779711831" lon="11.746220637081645"><ele>633.0</ele><time>2026-04-18T14:06:07.001Z</time></trkpt><trkpt lat="47.954506792621125" lon="11.746368939442627"><ele>633.0</ele><time>2026-04-18T14:06:08.001Z</time></trkpt><trkpt lat="47.954373416971926" lon="11.746518998373428"><ele>633.0</ele><time>2026-04-18T14:06:09.001Z</time></trkpt><trkpt lat="47.95424412869367" lon="11.746660428868442"><ele>631.0</ele><time>2026-04-18T14:06:10.001Z</time></trkpt><trkpt lat="47.95411967137131" lon="11.746798609992455"><ele>629.0</ele><time>2026-04-18T14:06:11.001Z</time></trkpt><trkpt lat="47.953993437252414" lon="11.7469352591939"><ele>627.0</ele><time>2026-04-18T14:06:12.001Z</time></trkpt><trkpt lat="47.95386617222217" lon="11.747070769020896"><ele>625.6666666666666</ele><time>2026-04-18T14:06:13.001Z</time></trkpt><trkpt lat="47.95374034982181" lon="11.747209442356903"><ele>624.3333333333333</ele><time>2026-04-18T14:06:14.001Z</time></trkpt><trkpt lat="47.95361419754863" lon="11.747351764283081"><ele>623.0</ele><time>2026-04-18T14:06:15.001Z</time></trkpt><trkpt lat="47.953485066599015" lon="11.747495407313094"><ele>624.6666666666666</ele><time>2026-04-18T14:06:16.001Z</time></trkpt><trkpt lat="47.953357823989556" lon="11.747642106634302"><ele>626.3333333333334</ele><time>2026-04-18T14:06:17.001Z</time></trkpt><trkpt lat="47.95322739142832" lon="11.747787103324951"><ele>628.0</ele><time>2026-04-18T14:06:18.001Z</time></trkpt><trkpt lat="47.95309332200903" lon="11.747927729104264"><ele>629.6666666666667</ele><time>2026-04-18T14:06:19.001Z</time></trkpt><trkpt lat="47.95295810112662" lon="11.748069725050152"><ele>631.3333333333334</ele><time>2026-04-18T14:06:20.001Z</time></trkpt><trkpt lat="47.95282702568197" lon="11.748210334761886"><ele>633.0</ele><time>2026-04-18T14:06:21.001Z</time></trkpt><trkpt lat="47.95269405157541" lon="11.748351051223452"><ele>633.0</ele><time>2026-04-18T14:06:22.001Z</time></trkpt><trkpt lat="47.952561505659446" lon="11.748489242450294"><ele>633.0</ele><time>2026-04-18T14:06:23.001Z</time></trkpt><trkpt lat="47.95242774426471" lon="11.748619093692058"><ele>633.0</ele><time>2026-04-18T14:06:24.001Z</time></trkpt><trkpt lat="47.95229208041969" lon="11.74874912519921"><ele>631.6666666666666</ele><time>2026-04-18T14:06:25.001Z</time></trkpt><trkpt lat="47.952154611538035" lon="11.748870200626689"><ele>630.3333333333333</ele><time>2026-04-18T14:06:26.001Z</time></trkpt><trkpt lat="47.952013393585545" lon="11.748983796075334"><ele>629.0</ele><time>2026-04-18T14:06:27.001Z</time></trkpt><trkpt lat="47.95186756199465" lon="11.749091389582471"><ele>629.0</ele><time>2026-04-18T14:06:28.001Z</time></trkpt><trkpt lat="47.95171245112164" lon="11.749194829960631"><ele>629.0</ele><time>2026-04-18T14:06:29.001Z</time></trkpt><trkpt lat="47.951556118449446" lon="11.749295640053761"><ele>629.0</ele><time>2026-04-18T14:06:30.001Z</time></trkpt><trkpt lat="47.95139903300173" lon="11.749387853978533"><ele>628.0</ele><time>2026-04-18T14:06:31.001Z</time></trkpt><trkpt lat="47.95124120115071" lon="11.749470864902726"><ele>627.0</ele><time>2026-04-18T14:06:32.001Z</time></trkpt><trkpt lat="47.951083865373285" lon="11.749554140058395"><ele>626.0</ele><time>2026-04-18T14:06:33.001Z</time></trkpt><trkpt lat="47.95092797918179" lon="11.749634796565685"><ele>626.6666666666666</ele><time>2026-04-18T14:06:34.001Z</time></trkpt><trkpt lat="47.95076945951044" lon="11.749711555059497"><ele>627.3333333333334</ele><time>2026-04-18T14:06:35.001Z</time></trkpt><trkpt lat="47.950609806016686" lon="11.749790434356708"><ele>628.0</ele><time>2026-04-18T14:06:36.001Z</time></trkpt><trkpt lat="47.950451895670895" lon="11.749871929667924"><ele>628.0</ele><time>2026-04-18T14:06:37.001Z</time></trkpt><trkpt lat="47.95029644436884" lon="11.749956637238027"><ele>628.0</ele><time>2026-04-18T14:06:38.001Z</time></trkpt><trkpt lat="47.95014179298318" lon="11.750039304455113"><ele>628.0</ele><time>2026-04-18T14:06:39.001Z</time></trkpt><trkpt lat="47.94998372450032" lon="11.750119577509047"><ele>628.0</ele><time>2026-04-18T14:06:40.001Z</time></trkpt><trkpt lat="47.94982531264004" lon="11.750201331022119"><ele>628.0</ele><time>2026-04-18T14:06:41.001Z</time></trkpt><trkpt lat="47.94966709551322" lon="11.750284600869945"><ele>628.0</ele><time>2026-04-18T14:06:42.001Z</time></trkpt><trkpt lat="47.94952079344719" lon="11.750361711007878"><ele>628.0</ele><time>2026-04-18T14:06:43.001Z</time></trkpt><trkpt lat="47.949381491556736" lon="11.750434377025172"><ele>628.0</ele><time>2026-04-18T14:06:44.001Z</time></trkpt><trkpt lat="47.94925071197715" lon="11.750503443106231"><ele>628.0</ele><time>2026-04-18T14:06:45.001Z</time></trkpt><trkpt lat="47.949127822950096" lon="11.7505682264937"><ele>628.0</ele><time>2026-04-18T14:06:46.001Z</time></trkpt><trkpt lat="47.94901032015842" lon="11.750629974473652"><ele>627.25</ele><time>2026-04-18T14:06:47.001Z</time></trkpt><trkpt lat="47.94889398866245" lon="11.750687795331942"><ele>626.5</ele><time>2026-04-18T14:06:48.001Z</time></trkpt><trkpt lat="47.9487671893026" lon="11.75075270655642"><ele>625.75</ele><time>2026-04-18T14:06:49.001Z</time></trkpt><trkpt lat="47.94862455927572" lon="11.750829161891883"><ele>625.0</ele><time>2026-04-18T14:06:50.001Z</time></trkpt><trkpt lat="47.9484726039157" lon="11.75091302514442"><ele>625.3333333333334</ele><time>2026-04-18T14:06:51.001Z</time></trkpt><trkpt lat="47.94830424996515" lon="11.751001781572077"><ele>625.6666666666666</ele><time>2026-04-18T14:06:52.001Z</time></trkpt><trkpt lat="47.948120348150276" lon="11.751090897610483"><ele>626.0</ele><time>2026-04-18T14:06:53.001Z</time></trkpt><trkpt lat="47.947927931695936" lon="11.75119273112707"><ele>628.0</ele><time>2026-04-18T14:06:54.001Z</time></trkpt><trkpt lat="47.947742201853636" lon="11.7512905839267"><ele>630.0</ele><time>2026-04-18T14:06:55.001Z</time></trkpt><trkpt lat="47.94756067127475" lon="11.751382885349537"><ele>632.0</ele><time>2026-04-18T14:06:56.001Z</time></trkpt><trkpt lat="47.94738551119941" lon="11.751473299644474"><ele>632.0</ele><time>2026-04-18T14:06:57.001Z</time></trkpt><trkpt lat="47.9472135665302" lon="11.75155821390005"><ele>632.0</ele><time>2026-04-18T14:06:58.001Z</time></trkpt><trkpt lat="47.94704600674072" lon="11.75163837711337"><ele>632.0</ele><time>2026-04-18T14:06:59.001Z</time></trkpt><trkpt lat="47.94687741287345" lon="11.751724103124513"><ele>631.3333333333333</ele><time>2026-04-18T14:07:00.001Z</time></trkpt><trkpt lat="47.94670915348945" lon="11.751810830860487"><ele>630.6666666666666</ele><time>2026-04-18T14:07:01.001Z</time></trkpt><trkpt lat="47.94654214712931" lon="11.75189802213954"><ele>630.0</ele><time>2026-04-18T14:07:02.001Z</time></trkpt><trkpt lat="47.946378721617535" lon="11.75198240131453"><ele>630.0</ele><time>2026-04-18T14:07:03.001Z</time></trkpt><trkpt lat="47.94621756182801" lon="11.752064181175832"><ele>630.0</ele><time>2026-04-18T14:07:04.001Z</time></trkpt><trkpt lat="47.946058481633806" lon="11.752147604434544"><ele>630.0</ele><time>2026-04-18T14:07:05.001Z</time></trkpt><trkpt lat="47.94590396221827" lon="11.752228584614437"><ele>629.3333333333334</ele><time>2026-04-18T14:07:06.001Z</time></trkpt><trkpt lat="47.945748127540384" lon="11.75230800666298"><ele>628.6666666666667</ele><time>2026-04-18T14:07:07.001Z</time></trkpt><trkpt lat="47.945590835882726" lon="11.752390792270429"><ele>628.0</ele><time>2026-04-18T14:07:08.001Z</time></trkpt><trkpt lat="47.945429126943225" lon="11.752476039526687"><ele>628.0</ele><time>2026-04-18T14:07:09.001Z</time></trkpt><trkpt lat="47.94527194589033" lon="11.752557683075183"><ele>628.0</ele><time>2026-04-18T14:07:10.001Z</time></trkpt><trkpt lat="47.945113999501956" lon="11.752637820152529"><ele>628.0</ele><time>2026-04-18T14:07:11.001Z</time></trkpt><trkpt lat="47.94495657377559" lon="11.752717136249213"><ele>631.0</ele><time>2026-04-18T14:07:12.001Z</time></trkpt><trkpt lat="47.94479970834403" lon="11.752798551499616"><ele>634.0</ele><time>2026-04-18T14:07:13.001Z</time></trkpt><trkpt lat="47.94464400512246" lon="11.752880527069248"><ele>637.0</ele><time>2026-04-18T14:07:14.001Z</time></trkpt><trkpt lat="47.94448866011811" lon="11.752959426808825"><ele>637.0</ele><time>2026-04-18T14:07:15.001Z</time></trkpt><trkpt lat="47.94433380255768" lon="11.753040002794325"><ele>637.0</ele><time>2026-04-18T14:07:16.001Z</time></trkpt><trkpt lat="47.944179648060285" lon="11.753126110743423"><ele>637.0</ele><time>2026-04-18T14:07:17.001Z</time></trkpt><trkpt lat="47.944023760874494" lon="11.753204363105583"><ele>635.0</ele><time>2026-04-18T14:07:18.001Z</time></trkpt><trkpt lat="47.943870749716254" lon="11.753283612268852"><ele>633.0</ele><time>2026-04-18T14:07:19.001Z</time></trkpt><trkpt lat="47.94372008698083" lon="11.753360951506929"><ele>631.0</ele><time>2026-04-18T14:07:20.001Z</time></trkpt><trkpt lat="47.94356681939424" lon="11.753439173225521"><ele>631.0</ele><time>2026-04-18T14:07:21.001Z</time></trkpt><trkpt lat="47.94341169780107" lon="11.753522775023498"><ele>631.0</ele><time>2026-04-18T14:07:22.001Z</time></trkpt><trkpt lat="47.9432547336368" lon="11.753610249199106"><ele>631.0</ele><time>2026-04-18T14:07:23.001Z</time></trkpt><trkpt lat="47.94309708530365" lon="11.753692871623468"><ele>632.3333333333334</ele><time>2026-04-18T14:07:24.001Z</time></trkpt><trkpt lat="47.94293951220018" lon="11.753773678895978"><ele>633.6666666666666</ele><time>2026-04-18T14:07:25.001Z</time></trkpt><trkpt lat="47.94278181432621" lon="11.753853190971954"><ele>635.0</ele><time>2026-04-18T14:07:26.001Z</time></trkpt><trkpt lat="47.942624848814454" lon="11.75393277174245"><ele>633.3333333333333</ele><time>2026-04-18T14:07:27.001Z</time></trkpt><trkpt lat="47.942469215624236" lon="11.754010294133417"><ele>631.6666666666666</ele><time>2026-04-18T14:07:28.001Z</time></trkpt><trkpt lat="47.94231291743421" lon="11.754091252348788"><ele>630.0</ele><time>2026-04-18T14:07:29.001Z</time></trkpt><trkpt lat="47.94215754087379" lon="11.75417316369585"><ele>630.0</ele><time>2026-04-18T14:07:30.001Z</time></trkpt><trkpt lat="47.942003165766636" lon="11.754256839182316"><ele>630.0</ele><time>2026-04-18T14:07:31.001Z</time></trkpt><trkpt lat="47.941848462266734" lon="11.754337710765325"><ele>630.0</ele><time>2026-04-18T14:07:32.001Z</time></trkpt><trkpt lat="47.94169309107745" lon="11.754418037115101"><ele>630.0</ele><time>2026-04-18T14:07:33.001Z</time></trkpt><trkpt lat="47.941537506009176" lon="11.754500051288117"><ele>630.0</ele><time>2026-04-18T14:07:34.001Z</time></trkpt><trkpt lat="47.941381875771874" lon="11.754580025622914"><ele>630.0</ele><time>2026-04-18T14:07:35.001Z</time></trkpt><trkpt lat="47.9412255229763" lon="11.754659360544514"><ele>630.0</ele><time>2026-04-18T14:07:36.001Z</time></trkpt><trkpt lat="47.94106774009164" lon="11.754738190355566"><ele>630.0</ele><time>2026-04-18T14:07:37.001Z</time></trkpt><trkpt lat="47.94091083305682" lon="11.754821969652422"><ele>630.0</ele><time>2026-04-18T14:07:38.001Z</time></trkpt><trkpt lat="47.94075626076251" lon="11.754904403570839"><ele>630.0</ele><time>2026-04-18T14:07:39.001Z</time></trkpt><trkpt lat="47.94060175230092" lon="11.754985320598973"><ele>630.0</ele><time>2026-04-18T14:07:40.001Z</time></trkpt><trkpt lat="47.94044572568922" lon="11.755063470706778"><ele>630.0</ele><time>2026-04-18T14:07:41.001Z</time></trkpt><trkpt lat="47.940290013530486" lon="11.755142282216664"><ele>629.6666666666666</ele><time>2026-04-18T14:07:42.001Z</time></trkpt><trkpt lat="47.940133251638905" lon="11.755222249284884"><ele>629.3333333333333</ele><time>2026-04-18T14:07:43.001Z</time></trkpt><trkpt lat="47.93997710228377" lon="11.755303502914177"><ele>629.0</ele><time>2026-04-18T14:07:44.001Z</time></trkpt><trkpt lat="47.93982134479792" lon="11.755384351312497"><ele>630.0</ele><time>2026-04-18T14:07:45.001Z</time></trkpt><trkpt lat="47.93966467573053" lon="11.755463003143808"><ele>631.0</ele><time>2026-04-18T14:07:46.001Z</time></trkpt><trkpt lat="47.93950829809561" lon="11.75554080587141"><ele>632.0</ele><time>2026-04-18T14:07:47.001Z</time></trkpt><trkpt lat="47.93935223137184" lon="11.755622288518984"><ele>632.6666666666666</ele><time>2026-04-18T14:07:48.001Z</time></trkpt><trkpt lat="47.93919651404631" lon="11.755705149546495"><ele>633.3333333333334</ele><time>2026-04-18T14:07:49.001Z</time></trkpt><trkpt lat="47.93904045215584" lon="11.75578249322919"><ele>634.0</ele><time>2026-04-18T14:07:50.001Z</time></trkpt><trkpt lat="47.93888318544572" lon="11.755863125657537"><ele>634.0</ele><time>2026-04-18T14:07:51.001Z</time></trkpt><trkpt lat="47.93872774203972" lon="11.755943411874338"><ele>634.0</ele><time>2026-04-18T14:07:52.001Z</time></trkpt><trkpt lat="47.93857096810059" lon="11.756023352977401"><ele>634.0</ele><time>2026-04-18T14:07:53.001Z</time></trkpt><trkpt lat="47.93841530277541" lon="11.756105919587835"><ele>634.0</ele><time>2026-04-18T14:07:54.001Z</time></trkpt><trkpt lat="47.93826076041244" lon="11.75618683223156"><ele>634.0</ele><time>2026-04-18T14:07:55.001Z</time></trkpt><trkpt lat="47.938105091167" lon="11.756265111489455"><ele>634.0</ele><time>2026-04-18T14:07:56.001Z</time></trkpt><trkpt lat="47.93794933506445" lon="11.756347543843706"><ele>634.0</ele><time>2026-04-18T14:07:57.001Z</time></trkpt><trkpt lat="47.937793115323814" lon="11.756429665382614"><ele>634.0</ele><time>2026-04-18T14:07:58.001Z</time></trkpt><trkpt lat="47.93763620885162" lon="11.756509394400782"><ele>634.0</ele><time>2026-04-18T14:07:59.001Z</time></trkpt><trkpt lat="47.937479813192006" lon="11.756588374863025"><ele>632.6666666666667</ele><time>2026-04-18T14:08:00.001Z</time></trkpt><trkpt lat="47.937323372202464" lon="11.756665030040566"><ele>631.3333333333334</ele><time>2026-04-18T14:08:01.001Z</time></trkpt><trkpt lat="47.93716711323357" lon="11.756739399305578"><ele>630.0</ele><time>2026-04-18T14:08:02.001Z</time></trkpt><trkpt lat="47.93700858208609" lon="11.756810004693381"><ele>630.0</ele><time>2026-04-18T14:08:03.001Z</time></trkpt><trkpt lat="47.93685042783983" lon="11.756881059423023"><ele>630.0</ele><time>2026-04-18T14:08:04.001Z</time></trkpt><trkpt lat="47.93669089680132" lon="11.75694986572619"><ele>630.0</ele><time>2026-04-18T14:08:05.001Z</time></trkpt><trkpt lat="47.936530697556464" lon="11.75701336337088"><ele>630.0</ele><time>2026-04-18T14:08:06.001Z</time></trkpt><trkpt lat="47.936370124706" lon="11.75707206374868"><ele>630.0</ele><time>2026-04-18T14:08:07.001Z</time></trkpt><trkpt lat="47.93620843898055" lon="11.757127013908557"><ele>630.0</ele><time>2026-04-18T14:08:08.001Z</time></trkpt><trkpt lat="47.93604739855915" lon="11.757178891958718"><ele>631.0</ele><time>2026-04-18T14:08:09.001Z</time></trkpt><trkpt lat="47.93588478433775" lon="11.757227316697852"><ele>632.0</ele><time>2026-04-18T14:08:10.001Z</time></trkpt><trkpt lat="47.93572284934016" lon="11.757271577463325"><ele>633.0</ele><time>2026-04-18T14:08:11.001Z</time></trkpt><trkpt lat="47.93555838839933" lon="11.757307954436554"><ele>633.0</ele><time>2026-04-18T14:08:12.001Z</time></trkpt><trkpt lat="47.9353945151484" lon="11.757343114621548"><ele>633.0</ele><time>2026-04-18T14:08:13.001Z</time></trkpt><trkpt lat="47.93523182198391" lon="11.757375362770093"><ele>633.0</ele><time>2026-04-18T14:08:14.001Z</time></trkpt><trkpt lat="47.935068698393266" lon="11.757398932799576"><ele>634.3333333333334</ele><time>2026-04-18T14:08:15.001Z</time></trkpt><trkpt lat="47.934902621941625" lon="11.75741728976361"><ele>635.6666666666667</ele><time>2026-04-18T14:08:16.001Z</time></trkpt><trkpt lat="47.934736763614175" lon="11.757438128274043"><ele>637.0</ele><time>2026-04-18T14:08:17.001Z</time></trkpt><trkpt lat="47.93456520277702" lon="11.757454167940528"><ele>637.0</ele><time>2026-04-18T14:08:18.001Z</time></trkpt><trkpt lat="47.934398967666546" lon="11.75746954258603"><ele>637.0</ele><time>2026-04-18T14:08:19.001Z</time></trkpt><trkpt lat="47.9342353170785" lon="11.75748192283866"><ele>637.0</ele><time>2026-04-18T14:08:20.001Z</time></trkpt><trkpt lat="47.93405670048883" lon="11.75748604286606"><ele>637.3333333333334</ele><time>2026-04-18T14:08:21.001Z</time></trkpt><trkpt lat="47.93387079894829" lon="11.757498524117484"><ele>637.6666666666666</ele><time>2026-04-18T14:08:22.001Z</time></trkpt><trkpt lat="47.933687899581805" lon="11.757496178170848"><ele>638.0</ele><time>2026-04-18T14:08:23.001Z</time></trkpt><trkpt lat="47.933520022897234" lon="11.757475658609595"><ele>638.0</ele><time>2026-04-18T14:08:24.001Z</time></trkpt><trkpt lat="47.9333548575679" lon="11.757456514478534"><ele>638.0</ele><time>2026-04-18T14:08:25.001Z</time></trkpt><trkpt lat="47.93318321328505" lon="11.757441251102978"><ele>638.0</ele><time>2026-04-18T14:08:26.001Z</time></trkpt><trkpt lat="47.93301835220764" lon="11.757421922433661"><ele>638.0</ele><time>2026-04-18T14:08:27.001Z</time></trkpt><trkpt lat="47.93285360999802" lon="11.75739958979498"><ele>638.0</ele><time>2026-04-18T14:08:28.001Z</time></trkpt><trkpt lat="47.93268751899459" lon="11.75737851603181"><ele>638.0</ele><time>2026-04-18T14:08:29.001Z</time></trkpt><trkpt lat="47.93251890476327" lon="11.757358869328499"><ele>637.6666666666666</ele><time>2026-04-18T14:08:30.001Z</time></trkpt><trkpt lat="47.932343479079776" lon="11.75733908069417"><ele>637.3333333333334</ele><time>2026-04-18T14:08:31.001Z</time></trkpt><trkpt lat="47.93217615794551" lon="11.757319734575978"><ele>637.0</ele><time>2026-04-18T14:08:32.001Z</time></trkpt><trkpt lat="47.93201206666505" lon="11.757297840228855"><ele>637.0</ele><time>2026-04-18T14:08:33.001Z</time></trkpt><trkpt lat="47.9318506840464" lon="11.757275488297008"><ele>637.0</ele><time>2026-04-18T14:08:34.001Z</time></trkpt><trkpt lat="47.931687692569824" lon="11.757254498327713"><ele>637.0</ele><time>2026-04-18T14:08:35.001Z</time></trkpt><trkpt lat="47.9315212797169" lon="11.757234327506783"><ele>637.0</ele><time>2026-04-18T14:08:36.001Z</time></trkpt><trkpt lat="47.93135647013688" lon="11.75721513377173"><ele>637.0</ele><time>2026-04-18T14:08:37.001Z</time></trkpt><trkpt lat="47.931190940368026" lon="11.75719627507994"><ele>637.0</ele><time>2026-04-18T14:08:38.001Z</time></trkpt><trkpt lat="47.93102381529796" lon="11.75717661622982"><ele>638.6666666666667</ele><time>2026-04-18T14:08:39.001Z</time></trkpt><trkpt lat="47.93085643150869" lon="11.757154660677235"><ele>640.3333333333334</ele><time>2026-04-18T14:08:40.001Z</time></trkpt><trkpt lat="47.93069352203099" lon="11.757131661484204"><ele>642.0</ele><time>2026-04-18T14:08:41.001Z</time></trkpt><trkpt lat="47.93052928661965" lon="11.757113204166"><ele>642.0</ele><time>2026-04-18T14:08:42.001Z</time></trkpt><trkpt lat="47.93036542851771" lon="11.757094199884692"><ele>642.0</ele><time>2026-04-18T14:08:43.001Z</time></trkpt><trkpt lat="47.93020151529242" lon="11.757076390308217"><ele>642.0</ele><time>2026-04-18T14:08:44.001Z</time></trkpt><trkpt lat="47.93003696563864" lon="11.757058310597465"><ele>642.6666666666666</ele><time>2026-04-18T14:08:45.001Z</time></trkpt><trkpt lat="47.92987257900572" lon="11.757037242360486"><ele>643.3333333333333</ele><time>2026-04-18T14:08:46.001Z</time></trkpt><trkpt lat="47.92970853181415" lon="11.756993328121505"><ele>644.0</ele><time>2026-04-18T14:08:47.001Z</time></trkpt><trkpt lat="47.929544346219316" lon="11.75697313383232"><ele>644.0</ele><time>2026-04-18T14:08:48.001Z</time></trkpt><trkpt lat="47.9293797147588" lon="11.756952884776954"><ele>644.0</ele><time>2026-04-18T14:08:49.001Z</time></trkpt><trkpt lat="47.929215193693494" lon="11.756932649245492"><ele>644.0</ele><time>2026-04-18T14:08:50.001Z</time></trkpt><trkpt lat="47.92905111774003" lon="11.756912185343145"><ele>644.0</ele><time>2026-04-18T14:08:51.001Z</time></trkpt><trkpt lat="47.928885929020936" lon="11.756890903080757"><ele>644.0</ele><time>2026-04-18T14:08:52.001Z</time></trkpt><trkpt lat="47.92872319184173" lon="11.756869936679914"><ele>644.0</ele><time>2026-04-18T14:08:53.001Z</time></trkpt><trkpt lat="47.928558251030005" lon="11.75684868868816"><ele>642.0</ele><time>2026-04-18T14:08:54.001Z</time></trkpt><trkpt lat="47.92839485947092" lon="11.756845067649513"><ele>640.0</ele><time>2026-04-18T14:08:55.001Z</time></trkpt><trkpt lat="47.92822755689902" lon="11.756832612394579"><ele>638.0</ele><time>2026-04-18T14:08:56.001Z</time></trkpt><trkpt lat="47.928062222312946" lon="11.75681320745631"><ele>638.0</ele><time>2026-04-18T14:08:57.001Z</time></trkpt><trkpt lat="47.92789791893407" lon="11.75679425330427"><ele>638.0</ele><time>2026-04-18T14:08:58.001Z</time></trkpt><trkpt lat="47.92773351175986" lon="11.756774915497564"><ele>638.0</ele><time>2026-04-18T14:08:59.001Z</time></trkpt><trkpt lat="47.927569039563345" lon="11.756752264715445"><ele>637.3333333333333</ele><time>2026-04-18T14:09:00.001Z</time></trkpt><trkpt lat="47.92740378741936" lon="11.756731481386558"><ele>636.6666666666666</ele><time>2026-04-18T14:09:01.001Z</time></trkpt><trkpt lat="47.92723807171482" lon="11.756711815086645"><ele>636.0</ele><time>2026-04-18T14:09:02.001Z</time></trkpt><trkpt lat="47.92707320099384" lon="11.756692707230378"><ele>636.0</ele><time>2026-04-18T14:09:03.001Z</time></trkpt><trkpt lat="47.92691044907913" lon="11.756648204795567"><ele>636.0</ele><time>2026-04-18T14:09:04.001Z</time></trkpt><trkpt lat="47.92674527763855" lon="11.756627741420589"><ele>636.0</ele><time>2026-04-18T14:09:05.001Z</time></trkpt><trkpt lat="47.92658058911467" lon="11.756607564189808"><ele>636.6666666666666</ele><time>2026-04-18T14:09:06.001Z</time></trkpt><trkpt lat="47.92641523614125" lon="11.75658730558585"><ele>637.3333333333333</ele><time>2026-04-18T14:09:07.001Z</time></trkpt><trkpt lat="47.92625058668485" lon="11.756567133125113"><ele>638.0</ele><time>2026-04-18T14:09:08.001Z</time></trkpt><trkpt lat="47.926084335905436" lon="11.756570855662032"><ele>638.0</ele><time>2026-04-18T14:09:09.001Z</time></trkpt><trkpt lat="47.92592087916941" lon="11.75652673817531"><ele>638.0</ele><time>2026-04-18T14:09:10.001Z</time></trkpt><trkpt lat="47.92575152721533" lon="11.756505989588378"><ele>638.0</ele><time>2026-04-18T14:09:11.001Z</time></trkpt><trkpt lat="47.92558401886917" lon="11.756485466841735"><ele>640.0</ele><time>2026-04-18T14:09:12.001Z</time></trkpt><trkpt lat="47.925416733083125" lon="11.756464971420643"><ele>642.0</ele><time>2026-04-18T14:09:13.001Z</time></trkpt><trkpt lat="47.925250283555506" lon="11.756444578440934"><ele>644.0</ele><time>2026-04-18T14:09:14.001Z</time></trkpt><trkpt lat="47.925082916647824" lon="11.756424073086983"><ele>644.0</ele><time>2026-04-18T14:09:15.001Z</time></trkpt><trkpt lat="47.92491788266086" lon="11.75640334542556"><ele>644.0</ele><time>2026-04-18T14:09:16.001Z</time></trkpt><trkpt lat="47.92475462621865" lon="11.756382824614153"><ele>644.0</ele><time>2026-04-18T14:09:17.001Z</time></trkpt><trkpt lat="47.92459317244046" lon="11.756362530363576"><ele>644.0</ele><time>2026-04-18T14:09:18.001Z</time></trkpt><trkpt lat="47.92443084542313" lon="11.756342126360572"><ele>644.0</ele><time>2026-04-18T14:09:19.001Z</time></trkpt><trkpt lat="47.92426343279815" lon="11.756321100603142"><ele>644.0</ele><time>2026-04-18T14:09:20.001Z</time></trkpt><trkpt lat="47.92408871323022" lon="11.7562992606505"><ele>643.0</ele><time>2026-04-18T14:09:21.001Z</time></trkpt><trkpt lat="47.92391794266474" lon="11.756278038474276"><ele>642.0</ele><time>2026-04-18T14:09:22.001Z</time></trkpt><trkpt lat="47.9237501210937" lon="11.756257201927026"><ele>641.0</ele><time>2026-04-18T14:09:23.001Z</time></trkpt><trkpt lat="47.92358475944412" lon="11.756236324080094"><ele>641.0</ele><time>2026-04-18T14:09:24.001Z</time></trkpt><trkpt lat="47.923420435804935" lon="11.756214836217199"><ele>641.0</ele><time>2026-04-18T14:09:25.001Z</time></trkpt><trkpt lat="47.92326508902875" lon="11.756194522216846"><ele>641.0</ele><time>2026-04-18T14:09:26.001Z</time></trkpt><trkpt lat="47.92311402206902" lon="11.7561750307252"><ele>640.0</ele><time>2026-04-18T14:09:27.001Z</time></trkpt><trkpt lat="47.922960869238956" lon="11.756155418940407"><ele>639.0</ele><time>2026-04-18T14:09:28.001Z</time></trkpt><trkpt lat="47.92280477986455" lon="11.756135431190376"><ele>638.0</ele><time>2026-04-18T14:09:29.001Z</time></trkpt><trkpt lat="47.92264580177696" lon="11.756115371827239"><ele>638.75</ele><time>2026-04-18T14:09:30.001Z</time></trkpt><trkpt lat="47.922494074473356" lon="11.756097044369929"><ele>639.5</ele><time>2026-04-18T14:09:31.001Z</time></trkpt><trkpt lat="47.922351921508266" lon="11.756079873413903"><ele>640.25</ele><time>2026-04-18T14:09:32.001Z</time></trkpt><trkpt lat="47.92222439523365" lon="11.756064469246873"><ele>641.0</ele><time>2026-04-18T14:09:33.001Z</time></trkpt><trkpt lat="47.92211007797949" lon="11.756051169072961"><ele>641.0</ele><time>2026-04-18T14:09:34.001Z</time></trkpt><trkpt lat="47.922011571586765" lon="11.756040828303982"><ele>641.0</ele><time>2026-04-18T14:09:35.001Z</time></trkpt><trkpt lat="47.92191231204513" lon="11.756029044700137"><ele>641.0</ele><time>2026-04-18T14:09:36.001Z</time></trkpt><trkpt lat="47.921795928135694" lon="11.75601546905732"><ele>641.0</ele><time>2026-04-18T14:09:37.001Z</time></trkpt><trkpt lat="47.92167376978525" lon="11.756001744153883"><ele>641.0</ele><time>2026-04-18T14:09:38.001Z</time></trkpt><trkpt lat="47.92155400755031" lon="11.755985707056276"><ele>640.4</ele><time>2026-04-18T14:09:39.001Z</time></trkpt><trkpt lat="47.92143622990527" lon="11.755969465227134"><ele>639.8</ele><time>2026-04-18T14:09:40.001Z</time></trkpt><trkpt lat="47.92132531413484" lon="11.755955564850021"><ele>639.1999999999999</ele><time>2026-04-18T14:09:41.001Z</time></trkpt><trkpt lat="47.921224289004435" lon="11.755944566042345"><ele>638.5999999999999</ele><time>2026-04-18T14:09:42.001Z</time></trkpt><trkpt lat="47.92113383723448" lon="11.755934718363813"><ele>638.0</ele><time>2026-04-18T14:09:43.001Z</time></trkpt><trkpt lat="47.92105619598255" lon="11.755926265414484"><ele>638.0</ele><time>2026-04-18T14:09:44.001Z</time></trkpt><trkpt lat="47.920988327730015" lon="11.755940630837205"><ele>638.0</ele><time>2026-04-18T14:09:45.001Z</time></trkpt><trkpt lat="47.92087759682127" lon="11.755922995508366"><ele>638.0</ele><time>2026-04-18T14:09:47.001Z</time></trkpt><trkpt lat="47.920787932894534" lon="11.755887469135565"><ele>638.0</ele><time>2026-04-18T14:09:49Z</time></trkpt><trkpt lat="47.92071916421858" lon="11.755883690838255"><ele>638.0</ele><time>2026-04-18T14:09:51Z</time></trkpt><trkpt lat="47.92063800109226" lon="11.755801116525504"><ele>638.0</ele><time>2026-04-18T14:10:00Z</time></trkpt><trkpt lat="47.920570763230316" lon="11.755638869967553"><ele>638.0</ele><time>2026-04-18T14:10:02Z</time></trkpt><trkpt lat="47.92052186240616" lon="11.755526001498245"><ele>638.0</ele><time>2026-04-18T14:10:03Z</time></trkpt><trkpt lat="47.920457512223656" lon="11.755381158366102"><ele>638.0</ele><time>2026-04-18T14:10:04Z</time></trkpt><trkpt lat="47.92038841470846" lon="11.75523353254292"><ele>638.0</ele><time>2026-04-18T14:10:05Z</time></trkpt><trkpt lat="47.92031551254478" lon="11.755072654121985"><ele>638.0</ele><time>2026-04-18T14:10:06Z</time></trkpt><trkpt lat="47.92023661138818" lon="11.75489140406411"><ele>638.0</ele><time>2026-04-18T14:10:07Z</time></trkpt><trkpt lat="47.92016252038624" lon="11.754721494333657"><ele>638.0</ele><time>2026-04-18T14:10:08Z</time></trkpt><trkpt lat="47.9200872443395" lon="11.75455481856747"><ele>638.0</ele><time>2026-04-18T14:10:09Z</time></trkpt><trkpt lat="47.92001404073229" lon="11.754351856916227"><ele>638.0</ele><time>2026-04-18T14:10:10Z</time></trkpt><trkpt lat="47.919923571788054" lon="11.754146508999838"><ele>638.0</ele><time>2026-04-18T14:10:11Z</time></trkpt><trkpt lat="47.91983331658028" lon="11.753985688940668"><ele>638.0</ele><time>2026-04-18T14:10:12Z</time></trkpt><trkpt lat="47.91976317642572" lon="11.753825684888655"><ele>638.0</ele><time>2026-04-18T14:10:13Z</time></trkpt><trkpt lat="47.91969799381258" lon="11.753664873253795"><ele>637.75</ele><time>2026-04-18T14:10:14Z</time></trkpt><trkpt lat="47.91962440763423" lon="11.753503710644845"><ele>637.5</ele><time>2026-04-18T14:10:15Z</time></trkpt><trkpt lat="47.91955011759031" lon="11.753332072611103"><ele>637.25</ele><time>2026-04-18T14:10:16Z</time></trkpt><trkpt lat="47.91947689788775" lon="11.753164417874993"><ele>637.0</ele><time>2026-04-18T14:10:17Z</time></trkpt><trkpt lat="47.919401173188525" lon="11.752995761504673"><ele>637.0</ele><time>2026-04-18T14:10:18Z</time></trkpt><trkpt lat="47.91932641211401" lon="11.752824982862"><ele>637.0</ele><time>2026-04-18T14:10:19Z</time></trkpt><trkpt lat="47.919244158315486" lon="11.752643261410926"><ele>637.0</ele><time>2026-04-18T14:10:20Z</time></trkpt><trkpt lat="47.91915660784358" lon="11.752450449508546"><ele>637.0</ele><time>2026-04-18T14:10:21Z</time></trkpt><trkpt lat="47.91906280485359" lon="11.752249056898355"><ele>637.3333333333334</ele><time>2026-04-18T14:10:22Z</time></trkpt><trkpt lat="47.91898089911361" lon="11.752022752896476"><ele>637.6666666666666</ele><time>2026-04-18T14:10:23Z</time></trkpt><trkpt lat="47.91888175531634" lon="11.751800817024332"><ele>638.0</ele><time>2026-04-18T14:10:24Z</time></trkpt><trkpt lat="47.91877959915911" lon="11.751571798562843"><ele>638.3333333333333</ele><time>2026-04-18T14:10:25Z</time></trkpt><trkpt lat="47.91867582422552" lon="11.751337610650465"><ele>638.6666666666666</ele><time>2026-04-18T14:10:26Z</time></trkpt><trkpt lat="47.91857336281847" lon="11.751106386889026"><ele>639.0</ele><time>2026-04-18T14:10:27Z</time></trkpt><trkpt lat="47.918475139462544" lon="11.750884727283433"><ele>640.6666666666666</ele><time>2026-04-18T14:10:28Z</time></trkpt><trkpt lat="47.91838139254618" lon="11.750673169518569"><ele>642.3333333333333</ele><time>2026-04-18T14:10:29Z</time></trkpt><trkpt lat="47.91827971146467" lon="11.75048336696754"><ele>644.0</ele><time>2026-04-18T14:10:30Z</time></trkpt><trkpt lat="47.91820370623885" lon="11.75031126854165"><ele>644.25</ele><time>2026-04-18T14:10:31Z</time></trkpt><trkpt lat="47.91813501278418" lon="11.750159153285946"><ele>644.5</ele><time>2026-04-18T14:10:32Z</time></trkpt><trkpt lat="47.918063821748234" lon="11.750001410680202"><ele>644.75</ele><time>2026-04-18T14:10:33Z</time></trkpt><trkpt lat="47.91799103178575" lon="11.749839851397601"><ele>645.0</ele><time>2026-04-18T14:10:34Z</time></trkpt><trkpt lat="47.917931449842015" lon="11.74966240629637"><ele>645.0</ele><time>2026-04-18T14:10:35Z</time></trkpt><trkpt lat="47.917858722614795" lon="11.749499051772892"><ele>645.0</ele><time>2026-04-18T14:10:36Z</time></trkpt><trkpt lat="47.91777292857966" lon="11.74935087813919"><ele>645.0</ele><time>2026-04-18T14:10:37Z</time></trkpt><trkpt lat="47.91771488793034" lon="11.74917598101332"><ele>645.0</ele><time>2026-04-18T14:10:38Z</time></trkpt><trkpt lat="47.917643763087895" lon="11.749016225680645"><ele>645.0</ele><time>2026-04-18T14:10:39Z</time></trkpt><trkpt lat="47.91757360092373" lon="11.748858632698305"><ele>645.0</ele><time>2026-04-18T14:10:40Z</time></trkpt><trkpt lat="47.91750192933952" lon="11.74869764934299"><ele>645.0</ele><time>2026-04-18T14:10:41Z</time></trkpt><trkpt lat="47.91742579049554" lon="11.748526631935114"><ele>645.0</ele><time>2026-04-18T14:10:42Z</time></trkpt><trkpt lat="47.91733154183083" lon="11.748358321784144"><ele>645.0</ele><time>2026-04-18T14:10:43Z</time></trkpt><trkpt lat="47.91726354536102" lon="11.748162209010248"><ele>645.0</ele><time>2026-04-18T14:10:44Z</time></trkpt><trkpt lat="47.917185036909075" lon="11.747985869099688"><ele>645.0</ele><time>2026-04-18T14:10:45Z</time></trkpt><trkpt lat="47.91710527458448" lon="11.747802878752255"><ele>645.0</ele><time>2026-04-18T14:10:46Z</time></trkpt><trkpt lat="47.91702215375017" lon="11.747612970421846"><ele>646.3333333333334</ele><time>2026-04-18T14:10:47Z</time></trkpt><trkpt lat="47.91693622119216" lon="11.747422160045613"><ele>647.6666666666667</ele><time>2026-04-18T14:10:48Z</time></trkpt><trkpt lat="47.916835497764175" lon="11.747235254207888"><ele>649.0</ele><time>2026-04-18T14:10:49Z</time></trkpt><trkpt lat="47.9167384206933" lon="11.747020744023512"><ele>648.6666666666667</ele><time>2026-04-18T14:10:50Z</time></trkpt><trkpt lat="47.91662942164579" lon="11.746785515695963"><ele>648.3333333333334</ele><time>2026-04-18T14:10:51Z</time></trkpt><trkpt lat="47.91654354098339" lon="11.746550997316788"><ele>648.0</ele><time>2026-04-18T14:10:52Z</time></trkpt><trkpt lat="47.916450282146606" lon="11.74634419354407"><ele>648.0</ele><time>2026-04-18T14:10:53Z</time></trkpt><trkpt lat="47.91634109898029" lon="11.746146346021119"><ele>648.0</ele><time>2026-04-18T14:10:54Z</time></trkpt><trkpt lat="47.916257676541434" lon="11.74591770857139"><ele>648.0</ele><time>2026-04-18T14:10:55Z</time></trkpt><trkpt lat="47.91615669214334" lon="11.74569447636166"><ele>648.0</ele><time>2026-04-18T14:10:56Z</time></trkpt><trkpt lat="47.916048898824535" lon="11.745456432756974"><ele>648.0</ele><time>2026-04-18T14:10:57Z</time></trkpt><trkpt lat="47.91594763021172" lon="11.745232797996632"><ele>648.0</ele><time>2026-04-18T14:10:58Z</time></trkpt><trkpt lat="47.91583189066136" lon="11.745020367372975"><ele>648.0</ele><time>2026-04-18T14:10:59Z</time></trkpt><trkpt lat="47.915729781699305" lon="11.7447901505172"><ele>648.0</ele><time>2026-04-18T14:11:00Z</time></trkpt><trkpt lat="47.91562827690227" lon="11.744554018815805"><ele>648.0</ele><time>2026-04-18T14:11:01Z</time></trkpt><trkpt lat="47.91551737672231" lon="11.744316137355218"><ele>648.3333333333334</ele><time>2026-04-18T14:11:02Z</time></trkpt><trkpt lat="47.915422008384034" lon="11.744067277115764"><ele>648.6666666666667</ele><time>2026-04-18T14:11:03Z</time></trkpt><trkpt lat="47.915320385775814" lon="11.743841162414158"><ele>649.0</ele><time>2026-04-18T14:11:04Z</time></trkpt><trkpt lat="47.91521612549828" lon="11.743609178864313"><ele>650.0</ele><time>2026-04-18T14:11:05Z</time></trkpt><trkpt lat="47.91510203036375" lon="11.743355312436035"><ele>651.0</ele><time>2026-04-18T14:11:06Z</time></trkpt><trkpt lat="47.91498334210072" lon="11.743092779827055"><ele>652.0</ele><time>2026-04-18T14:11:07Z</time></trkpt><trkpt lat="47.914867526799576" lon="11.742836716314576"><ele>650.3333333333334</ele><time>2026-04-18T14:11:08Z</time></trkpt><trkpt lat="47.914756434021626" lon="11.742591094437019"><ele>648.6666666666666</ele><time>2026-04-18T14:11:09Z</time></trkpt><trkpt lat="47.914645200399725" lon="11.742345161342463"><ele>647.0</ele><time>2026-04-18T14:11:10Z</time></trkpt><trkpt lat="47.91453013938695" lon="11.742090073329411"><ele>646.3333333333333</ele><time>2026-04-18T14:11:11Z</time></trkpt><trkpt lat="47.914412714347684" lon="11.741829275916151"><ele>645.6666666666666</ele><time>2026-04-18T14:11:12Z</time></trkpt><trkpt lat="47.914277059547274" lon="11.741572267573115"><ele>645.0</ele><time>2026-04-18T14:11:13Z</time></trkpt><trkpt lat="47.914167810350165" lon="11.741286793962102"><ele>646.3333333333334</ele><time>2026-04-18T14:11:14Z</time></trkpt><trkpt lat="47.914049692397356" lon="11.74102057781256"><ele>647.6666666666667</ele><time>2026-04-18T14:11:15Z</time></trkpt><trkpt lat="47.913932067611036" lon="11.740756635335437"><ele>649.0</ele><time>2026-04-18T14:11:16Z</time></trkpt><trkpt lat="47.91380992498902" lon="11.740483580988698"><ele>649.5</ele><time>2026-04-18T14:11:17Z</time></trkpt><trkpt lat="47.91368509935288" lon="11.7402045288302"><ele>650.0</ele><time>2026-04-18T14:11:18Z</time></trkpt><trkpt lat="47.91355964002261" lon="11.739924059948184"><ele>650.0</ele><time>2026-04-18T14:11:19Z</time></trkpt><trkpt lat="47.9134228760382" lon="11.739660306202232"><ele>650.0</ele><time>2026-04-18T14:11:20Z</time></trkpt><trkpt lat="47.91330157478916" lon="11.739379254210426"><ele>650.0</ele><time>2026-04-18T14:11:21Z</time></trkpt><trkpt lat="47.91317866567321" lon="11.739102223996435"><ele>650.0</ele><time>2026-04-18T14:11:22Z</time></trkpt><trkpt lat="47.91305611330971" lon="11.738825077037312"><ele>650.0</ele><time>2026-04-18T14:11:23Z</time></trkpt><trkpt lat="47.91293667106105" lon="11.738562899320891"><ele>650.0</ele><time>2026-04-18T14:11:24Z</time></trkpt><trkpt lat="47.9128293462886" lon="11.73831370782741"><ele>650.0</ele><time>2026-04-18T14:11:25Z</time></trkpt><trkpt lat="47.91272863879868" lon="11.738090174620158"><ele>650.0</ele><time>2026-04-18T14:11:26Z</time></trkpt><trkpt lat="47.912629537118555" lon="11.737873517838723"><ele>650.0</ele><time>2026-04-18T14:11:27Z</time></trkpt><trkpt lat="47.912530739601394" lon="11.737663453824817"><ele>648.3333333333333</ele><time>2026-04-18T14:11:28Z</time></trkpt><trkpt lat="47.91243372150929" lon="11.737450821229125"><ele>646.6666666666666</ele><time>2026-04-18T14:11:29Z</time></trkpt><trkpt lat="47.912338822657475" lon="11.737229883546165"><ele>645.0</ele><time>2026-04-18T14:11:30Z</time></trkpt><trkpt lat="47.91224199945374" lon="11.73699819655284"><ele>646.0</ele><time>2026-04-18T14:11:31Z</time></trkpt><trkpt lat="47.91214582951495" lon="11.736757146444392"><ele>647.0</ele><time>2026-04-18T14:11:32Z</time></trkpt><trkpt lat="47.912061117064276" lon="11.736512072078353"><ele>648.0</ele><time>2026-04-18T14:11:33Z</time></trkpt><trkpt lat="47.91198838353279" lon="11.736265717971207"><ele>647.6666666666666</ele><time>2026-04-18T14:11:34Z</time></trkpt><trkpt lat="47.91192458207022" lon="11.736024868510606"><ele>647.3333333333333</ele><time>2026-04-18T14:11:35Z</time></trkpt><trkpt lat="47.91186538053648" lon="11.735786167610167"><ele>647.0</ele><time>2026-04-18T14:11:36Z</time></trkpt><trkpt lat="47.911808263136066" lon="11.735550766678237"><ele>647.0</ele><time>2026-04-18T14:11:37Z</time></trkpt><trkpt lat="47.911748165701376" lon="11.735316222616444"><ele>647.0</ele><time>2026-04-18T14:11:38Z</time></trkpt><trkpt lat="47.91168495846392" lon="11.735074188368525"><ele>647.0</ele><time>2026-04-18T14:11:39Z</time></trkpt><trkpt lat="47.91161683242249" lon="11.734833548478734"><ele>645.6666666666666</ele><time>2026-04-18T14:11:40Z</time></trkpt><trkpt lat="47.91154844899932" lon="11.734611165662226"><ele>644.3333333333334</ele><time>2026-04-18T14:11:41Z</time></trkpt><trkpt lat="47.91147554209763" lon="11.734398347206318"><ele>643.0</ele><time>2026-04-18T14:11:42Z</time></trkpt><trkpt lat="47.91139653386645" lon="11.734196121995353"><ele>643.0</ele><time>2026-04-18T14:11:43Z</time></trkpt><trkpt lat="47.91130823640803" lon="11.734000030199036"><ele>643.0</ele><time>2026-04-18T14:11:44Z</time></trkpt><trkpt lat="47.91119587471916" lon="11.73381353501799"><ele>643.0</ele><time>2026-04-18T14:11:45Z</time></trkpt><trkpt lat="47.91108234427197" lon="11.733601822648916"><ele>643.0</ele><time>2026-04-18T14:11:46Z</time></trkpt><trkpt lat="47.91096368852724" lon="11.733396230814717"><ele>643.0</ele><time>2026-04-18T14:11:47Z</time></trkpt><trkpt lat="47.91084804868406" lon="11.733207129572257"><ele>643.0</ele><time>2026-04-18T14:11:48Z</time></trkpt><trkpt lat="47.910638432287826" lon="11.733161826241977"><ele>641.6666666666667</ele><time>2026-04-18T14:11:49Z</time></trkpt><trkpt lat="47.91048533299637" lon="11.733026940604079"><ele>640.3333333333334</ele><time>2026-04-18T14:11:50Z</time></trkpt><trkpt lat="47.91033951414232" lon="11.732896565668879"><ele>639.0</ele><time>2026-04-18T14:11:51Z</time></trkpt><trkpt lat="47.91020736207918" lon="11.73278554660274"><ele>639.0</ele><time>2026-04-18T14:11:52Z</time></trkpt><trkpt lat="47.91007813497444" lon="11.732691104247294"><ele>639.0</ele><time>2026-04-18T14:11:53Z</time></trkpt><trkpt lat="47.90994488799474" lon="11.732598803238956"><ele>639.0</ele><time>2026-04-18T14:11:54Z</time></trkpt><trkpt lat="47.909804674249585" lon="11.73250325959825"><ele>639.0</ele><time>2026-04-18T14:11:55Z</time></trkpt><trkpt lat="47.909662309624544" lon="11.732411780463622"><ele>640.3333333333334</ele><time>2026-04-18T14:11:56Z</time></trkpt><trkpt lat="47.909517403565204" lon="11.732326461349585"><ele>641.6666666666667</ele><time>2026-04-18T14:11:57Z</time></trkpt><trkpt lat="47.909370938807434" lon="11.732246393795101"><ele>643.0</ele><time>2026-04-18T14:11:58Z</time></trkpt><trkpt lat="47.90921731221884" lon="11.732172392986584"><ele>644.0</ele><time>2026-04-18T14:11:59Z</time></trkpt><trkpt lat="47.90905607875835" lon="11.732102088738053"><ele>645.0</ele><time>2026-04-18T14:12:00Z</time></trkpt><trkpt lat="47.908895362517235" lon="11.732031282921215"><ele>646.0</ele><time>2026-04-18T14:12:01Z</time></trkpt><trkpt lat="47.908741642029774" lon="11.731961950684338"><ele>646.0</ele><time>2026-04-18T14:12:02Z</time></trkpt><trkpt lat="47.90859149881476" lon="11.731894734772146"><ele>646.0</ele><time>2026-04-18T14:12:03Z</time></trkpt><trkpt lat="47.908442282614985" lon="11.73182919677679"><ele>646.0</ele><time>2026-04-18T14:12:04Z</time></trkpt><trkpt lat="47.908289556933845" lon="11.73175911252692"><ele>647.3333333333334</ele><time>2026-04-18T14:12:05Z</time></trkpt><trkpt lat="47.90814099122186" lon="11.731687331115834"><ele>648.6666666666666</ele><time>2026-04-18T14:12:06Z</time></trkpt><trkpt lat="47.90799874558964" lon="11.731622088962798"><ele>650.0</ele><time>2026-04-18T14:12:07Z</time></trkpt><trkpt lat="47.90784747992954" lon="11.731557662624482"><ele>650.0</ele><time>2026-04-18T14:12:08Z</time></trkpt><trkpt lat="47.90769722938409" lon="11.731492520476037"><ele>650.0</ele><time>2026-04-18T14:12:09Z</time></trkpt><trkpt lat="47.907554078936066" lon="11.731415622233733"><ele>650.0</ele><time>2026-04-18T14:12:10Z</time></trkpt><trkpt lat="47.90741133435359" lon="11.731354875067604"><ele>651.0</ele><time>2026-04-18T14:12:11Z</time></trkpt><trkpt lat="47.90725914928713" lon="11.731335844987962"><ele>652.0</ele><time>2026-04-18T14:12:12Z</time></trkpt><trkpt lat="47.90709807950171" lon="11.731352448871098"><ele>653.0</ele><time>2026-04-18T14:12:13Z</time></trkpt><trkpt lat="47.90693435885152" lon="11.731391504807265"><ele>653.0</ele><time>2026-04-18T14:12:14Z</time></trkpt><trkpt lat="47.90678989059357" lon="11.731423547581086"><ele>653.0</ele><time>2026-04-18T14:12:15Z</time></trkpt><trkpt lat="47.90665088714513" lon="11.731450369237647"><ele>653.0</ele><time>2026-04-18T14:12:16Z</time></trkpt><trkpt lat="47.90650674629474" lon="11.73148793063054"><ele>653.0</ele><time>2026-04-18T14:12:17Z</time></trkpt><trkpt lat="47.90635145750701" lon="11.731527599732882"><ele>653.3333333333333</ele><time>2026-04-18T14:12:18Z</time></trkpt><trkpt lat="47.90619683069492" lon="11.731558933098716"><ele>653.6666666666666</ele><time>2026-04-18T14:12:19Z</time></trkpt><trkpt lat="47.90604741074716" lon="11.731588784942211"><ele>654.0</ele><time>2026-04-18T14:12:20Z</time></trkpt><trkpt lat="47.905898923068555" lon="11.731621025995855"><ele>654.25</ele><time>2026-04-18T14:12:21Z</time></trkpt><trkpt lat="47.90575044739192" lon="11.731651431196038"><ele>654.5</ele><time>2026-04-18T14:12:22Z</time></trkpt><trkpt lat="47.905604987041094" lon="11.731682573436334"><ele>654.75</ele><time>2026-04-18T14:12:23Z</time></trkpt><trkpt lat="47.905470488606184" lon="11.731715351879705"><ele>655.0</ele><time>2026-04-18T14:12:24Z</time></trkpt><trkpt lat="47.90535091099139" lon="11.731751090919756"><ele>655.0</ele><time>2026-04-18T14:12:25Z</time></trkpt><trkpt lat="47.90523617185884" lon="11.731788511644611"><ele>655.0</ele><time>2026-04-18T14:12:26Z</time></trkpt><trkpt lat="47.90512440290936" lon="11.731831565049255"><ele>655.0</ele><time>2026-04-18T14:12:27Z</time></trkpt><trkpt lat="47.90501462464784" lon="11.731882200102243"><ele>655.0</ele><time>2026-04-18T14:12:28Z</time></trkpt><trkpt lat="47.90490720446423" lon="11.73194056074057"><ele>654.75</ele><time>2026-04-18T14:12:29Z</time></trkpt><trkpt lat="47.90480035308048" lon="11.732003621894712"><ele>654.5</ele><time>2026-04-18T14:12:30Z</time></trkpt><trkpt lat="47.90469684908752" lon="11.732076070051585"><ele>654.25</ele><time>2026-04-18T14:12:31Z</time></trkpt><trkpt lat="47.9045989571471" lon="11.732154407266808"><ele>654.0</ele><time>2026-04-18T14:12:32Z</time></trkpt><trkpt lat="47.904503076230874" lon="11.732235378399796"><ele>654.0</ele><time>2026-04-18T14:12:33Z</time></trkpt><trkpt lat="47.90440953618475" lon="11.732320704598983"><ele>654.0</ele><time>2026-04-18T14:12:34Z</time></trkpt><trkpt lat="47.904315873984835" lon="11.732407382600798"><ele>654.0</ele><time>2026-04-18T14:12:35Z</time></trkpt><trkpt lat="47.90422127633546" lon="11.732492833296426"><ele>654.0</ele><time>2026-04-18T14:12:36Z</time></trkpt><trkpt lat="47.90412594088778" lon="11.732577352544013"><ele>654.0</ele><time>2026-04-18T14:12:37Z</time></trkpt><trkpt lat="47.904028576462395" lon="11.732657583394325"><ele>653.8000000000001</ele><time>2026-04-18T14:12:38Z</time></trkpt><trkpt lat="47.90392924772547" lon="11.732736851256554"><ele>653.6</ele><time>2026-04-18T14:12:39Z</time></trkpt><trkpt lat="47.90382944587413" lon="11.732804203270817"><ele>653.4</ele><time>2026-04-18T14:12:40Z</time></trkpt><trkpt lat="47.90373837673873" lon="11.732853462312491"><ele>653.2</ele><time>2026-04-18T14:12:41Z</time></trkpt><trkpt lat="47.903661420151906" lon="11.732884104830676"><ele>653.0</ele><time>2026-04-18T14:12:42Z</time></trkpt><trkpt lat="47.90359831236163" lon="11.732902407050071"><ele>653.0</ele><time>2026-04-18T14:12:43Z</time></trkpt><trkpt lat="47.90350722938611" lon="11.73290993940256"><ele>653.0</ele><time>2026-04-18T14:12:45Z</time></trkpt><trkpt lat="47.90342860917847" lon="11.732886792340427"><ele>653.0</ele><time>2026-04-18T14:12:48Z</time></trkpt><trkpt lat="47.90337212327714" lon="11.733049209990837"><ele>653.0</ele><time>2026-04-18T14:12:51Z</time></trkpt><trkpt lat="47.90341348244328" lon="11.733127003305317"><ele>653.0</ele><time>2026-04-18T14:12:52Z</time></trkpt><trkpt lat="47.903461418993416" lon="11.733209033935207"><ele>653.0</ele><time>2026-04-18T14:12:53Z</time></trkpt><trkpt lat="47.903505310365496" lon="11.733309511291733"><ele>653.0</ele><time>2026-04-18T14:12:54Z</time></trkpt><trkpt lat="47.903543924435134" lon="11.733395953705418"><ele>653.0</ele><time>2026-04-18T14:12:55Z</time></trkpt><trkpt lat="47.903599922908604" lon="11.733522998779195"><ele>653.0</ele><time>2026-04-18T14:12:57Z</time></trkpt><trkpt lat="47.90364537991432" lon="11.733613933951993"><ele>653.0</ele><time>2026-04-18T14:12:58Z</time></trkpt><trkpt lat="47.903704037660454" lon="11.733724073236669"><ele>653.0</ele><time>2026-04-18T14:12:59Z</time></trkpt><trkpt lat="47.90376970500456" lon="11.733848201396047"><ele>653.0</ele><time>2026-04-18T14:13:00Z</time></trkpt><trkpt lat="47.90382141313877" lon="11.733943430818481"><ele>653.1666666666666</ele><time>2026-04-18T14:13:01Z</time></trkpt><trkpt lat="47.90386515086966" lon="11.734023573330463"><ele>653.3333333333333</ele><time>2026-04-18T14:13:02Z</time></trkpt><trkpt lat="47.90393004180858" lon="11.734148423272876"><ele>653.5</ele><time>2026-04-18T14:13:04Z</time></trkpt><trkpt lat="47.90397783004476" lon="11.73424211822197"><ele>653.6666666666666</ele><time>2026-04-18T14:13:07Z</time></trkpt><trkpt lat="47.903951163134195" lon="11.734125915287214"><ele>653.8333333333334</ele><time>2026-04-18T14:13:13Z</time></trkpt><trkpt lat="47.90389278731739" lon="11.734029302144592"><ele>654.0</ele><time>2026-04-18T14:13:15Z</time></trkpt><trkpt lat="47.90384569370286" lon="11.733948502278558"><ele>654.0</ele><time>2026-04-18T14:13:16Z</time></trkpt><trkpt lat="47.903788721418664" lon="11.7338508684494"><ele>654.0</ele><time>2026-04-18T14:13:17Z</time></trkpt><trkpt lat="47.903743995275654" lon="11.733772299441116"><ele>654.0</ele><time>2026-04-18T14:13:18Z</time></trkpt><trkpt lat="47.90368431495086" lon="11.733655524239015"><ele>654.0</ele><time>2026-04-18T14:13:20Z</time></trkpt><trkpt lat="47.90362049220294" lon="11.733532506997648"><ele>654.0</ele><time>2026-04-18T14:13:22Z</time></trkpt><trkpt lat="47.90357692232026" lon="11.733460162909807"><ele>654.0</ele><time>2026-04-18T14:13:23Z</time></trkpt><trkpt lat="47.90353271874295" lon="11.733377154321326"><ele>653.8000000000001</ele><time>2026-04-18T14:13:24Z</time></trkpt><trkpt lat="47.903483057154986" lon="11.733250075049954"><ele>653.6</ele><time>2026-04-18T14:13:26Z</time></trkpt><trkpt lat="47.90342958325587" lon="11.733139559077276"><ele>653.4</ele><time>2026-04-18T14:13:28Z</time></trkpt><trkpt lat="47.90338532346335" lon="11.733023444716453"><ele>653.2</ele><time>2026-04-18T14:13:30Z</time></trkpt><trkpt lat="47.90334873699523" lon="11.732874775705955"><ele>653.0</ele><time>2026-04-18T14:13:34Z</time></trkpt><trkpt lat="47.90327957598243" lon="11.732760717272111"><ele>653.6666666666666</ele><time>2026-04-18T14:13:36Z</time></trkpt><trkpt lat="47.90320490300668" lon="11.732716762500456"><ele>654.3333333333333</ele><time>2026-04-18T14:13:38Z</time></trkpt><trkpt lat="47.90309596194679" lon="11.73278934064493"><ele>655.0</ele><time>2026-04-18T14:13:40Z</time></trkpt><trkpt lat="47.90304116276507" lon="11.732844866456169"><ele>655.6666666666666</ele><time>2026-04-18T14:13:41Z</time></trkpt><trkpt lat="47.90298718036073" lon="11.7329063310085"><ele>656.3333333333334</ele><time>2026-04-18T14:13:42Z</time></trkpt><trkpt lat="47.9028901354559" lon="11.733000413856452"><ele>657.0</ele><time>2026-04-18T14:13:44Z</time></trkpt><trkpt lat="47.902798040474" lon="11.73307165149889"><ele>657.0</ele><time>2026-04-18T14:13:46Z</time></trkpt><trkpt lat="47.90270304140596" lon="11.733169358006103"><ele>657.0</ele><time>2026-04-18T14:13:48Z</time></trkpt><trkpt lat="47.90261760453174" lon="11.733239304147899"><ele>657.0</ele><time>2026-04-18T14:13:50Z</time></trkpt><trkpt lat="47.902539811296215" lon="11.733317450589263"><ele>657.0</ele><time>2026-04-18T14:13:52Z</time></trkpt><trkpt lat="47.90245229491633" lon="11.73340417371292"><ele>657.0</ele><time>2026-04-18T14:13:54Z</time></trkpt><trkpt lat="47.90236064151929" lon="11.733503308408268"><ele>656.0</ele><time>2026-04-18T14:13:56Z</time></trkpt><trkpt lat="47.90226914432053" lon="11.733586100801626"><ele>655.0</ele><time>2026-04-18T14:13:58Z</time></trkpt><trkpt lat="47.90217527544968" lon="11.733712934189555"><ele>654.0</ele><time>2026-04-18T14:14:00Z</time></trkpt><trkpt lat="47.902118122034246" lon="11.733767907837622"><ele>653.0</ele><time>2026-04-18T14:14:01Z</time></trkpt><trkpt lat="47.90206400303045" lon="11.733826373725636"><ele>652.0</ele><time>2026-04-18T14:14:02Z</time></trkpt><trkpt lat="47.90196744038331" lon="11.733886004374844"><ele>652.0</ele><time>2026-04-18T14:14:04Z</time></trkpt><trkpt lat="47.90188134315185" lon="11.733956139762096"><ele>652.0</ele><time>2026-04-18T14:14:06Z</time></trkpt><trkpt lat="47.90177316065233" lon="11.73402593671201"><ele>652.0</ele><time>2026-04-18T14:14:08Z</time></trkpt><trkpt lat="47.90171095948936" lon="11.734064386435099"><ele>652.0</ele><time>2026-04-18T14:14:09Z</time></trkpt><trkpt lat="47.90161351108649" lon="11.734127880410806"><ele>652.0</ele><time>2026-04-18T14:14:11Z</time></trkpt><trkpt lat="47.901525482738855" lon="11.734199892476758"><ele>651.4000000000001</ele><time>2026-04-18T14:14:13Z</time></trkpt><trkpt lat="47.901453691923585" lon="11.734263979638888"><ele>650.8000000000001</ele><time>2026-04-18T14:14:15Z</time></trkpt><trkpt lat="47.901367674592876" lon="11.734353184310654"><ele>650.2</ele><time>2026-04-18T14:14:17Z</time></trkpt><trkpt lat="47.90128895141483" lon="11.73444399572875"><ele>649.6</ele><time>2026-04-18T14:14:19Z</time></trkpt><trkpt lat="47.90125899000753" lon="11.734596258747233"><ele>649.0</ele><time>2026-04-18T14:14:21Z</time></trkpt><trkpt lat="47.90130099130593" lon="11.734756590535056"><ele>649.0</ele><time>2026-04-18T14:14:23Z</time></trkpt><trkpt lat="47.90133827038978" lon="11.734837161273651"><ele>649.0</ele><time>2026-04-18T14:14:24Z</time></trkpt><trkpt lat="47.90138364250123" lon="11.734921989118444"><ele>649.0</ele><time>2026-04-18T14:14:25Z</time></trkpt><trkpt lat="47.901432700687344" lon="11.735012491786675"><ele>649.0</ele><time>2026-04-18T14:14:26Z</time></trkpt><trkpt lat="47.90149225661498" lon="11.735113485335006"><ele>649.0</ele><time>2026-04-18T14:14:27Z</time></trkpt><trkpt lat="47.90156371761324" lon="11.735237307187148"><ele>649.0</ele><time>2026-04-18T14:14:28Z</time></trkpt><trkpt lat="47.90163923636086" lon="11.735359626162877"><ele>648.25</ele><time>2026-04-18T14:14:29Z</time></trkpt><trkpt lat="47.901715030264555" lon="11.735489789935931"><ele>647.5</ele><time>2026-04-18T14:14:30Z</time></trkpt><trkpt lat="47.90180601181517" lon="11.735640362118648"><ele>646.75</ele><time>2026-04-18T14:14:31Z</time></trkpt><trkpt lat="47.90191363254662" lon="11.735799206479006"><ele>646.0</ele><time>2026-04-18T14:14:32Z</time></trkpt><trkpt lat="47.90198926691644" lon="11.735944640495418"><ele>648.0</ele><time>2026-04-18T14:14:33Z</time></trkpt><trkpt lat="47.902071233002424" lon="11.736055132612334"><ele>650.0</ele><time>2026-04-18T14:14:34Z</time></trkpt><trkpt lat="47.902148477568375" lon="11.736175667213969"><ele>652.0</ele><time>2026-04-18T14:14:35Z</time></trkpt><trkpt lat="47.902234961854795" lon="11.736311459369027"><ele>654.0</ele><time>2026-04-18T14:14:36Z</time></trkpt><trkpt lat="47.90231582834197" lon="11.736437940155088"><ele>654.0</ele><time>2026-04-18T14:14:37Z</time></trkpt><trkpt lat="47.90239485437456" lon="11.736553701983057"><ele>654.0</ele><time>2026-04-18T14:14:38Z</time></trkpt><trkpt lat="47.90248454138593" lon="11.73665854867068"><ele>654.0</ele><time>2026-04-18T14:14:39Z</time></trkpt><trkpt lat="47.90257332609468" lon="11.736781146554721"><ele>654.0</ele><time>2026-04-18T14:14:40Z</time></trkpt><trkpt lat="47.90265898234869" lon="11.736893413834041"><ele>653.0</ele><time>2026-04-18T14:14:41Z</time></trkpt><trkpt lat="47.902745022056735" lon="11.737006955359437"><ele>652.0</ele><time>2026-04-18T14:14:42Z</time></trkpt><trkpt lat="47.902829315924606" lon="11.737132382931627"><ele>651.0</ele><time>2026-04-18T14:14:43Z</time></trkpt><trkpt lat="47.90293741707709" lon="11.73724838309046"><ele>650.0</ele><time>2026-04-18T14:14:44Z</time></trkpt><trkpt lat="47.90302605396919" lon="11.737350777443954"><ele>650.0</ele><time>2026-04-18T14:14:45Z</time></trkpt><trkpt lat="47.90311666880954" lon="11.737456485950045"><ele>650.0</ele><time>2026-04-18T14:14:46Z</time></trkpt><trkpt lat="47.90320132028748" lon="11.737558845675894"><ele>650.0</ele><time>2026-04-18T14:14:47Z</time></trkpt><trkpt lat="47.9033079633107" lon="11.737702145940942"><ele>650.0</ele><time>2026-04-18T14:14:48Z</time></trkpt><trkpt lat="47.90341414373727" lon="11.737838370835767"><ele>649.5</ele><time>2026-04-18T14:14:49Z</time></trkpt><trkpt lat="47.90351224926163" lon="11.737965375010653"><ele>649.0</ele><time>2026-04-18T14:14:50Z</time></trkpt><trkpt lat="47.90360503127172" lon="11.738084955708308"><ele>648.5</ele><time>2026-04-18T14:14:51Z</time></trkpt><trkpt lat="47.90370378830927" lon="11.73821141587351"><ele>648.0</ele><time>2026-04-18T14:14:52Z</time></trkpt><trkpt lat="47.9038163553344" lon="11.738349878196013"><ele>648.0</ele><time>2026-04-18T14:14:53Z</time></trkpt><trkpt lat="47.90392288291941" lon="11.738488648402626"><ele>648.0</ele><time>2026-04-18T14:14:54Z</time></trkpt><trkpt lat="47.904031114822125" lon="11.738632978718206"><ele>648.0</ele><time>2026-04-18T14:14:55Z</time></trkpt><trkpt lat="47.90413049312142" lon="11.738766345441997"><ele>648.0</ele><time>2026-04-18T14:14:56Z</time></trkpt><trkpt lat="47.904227982326944" lon="11.738898334254575"><ele>647.75</ele><time>2026-04-18T14:14:57Z</time></trkpt><trkpt lat="47.904328900573795" lon="11.739042009288905"><ele>647.5</ele><time>2026-04-18T14:14:58Z</time></trkpt><trkpt lat="47.90443720492332" lon="11.739185918937899"><ele>647.25</ele><time>2026-04-18T14:14:59Z</time></trkpt><trkpt lat="47.90453995388646" lon="11.739314218645044"><ele>647.0</ele><time>2026-04-18T14:15:00Z</time></trkpt><trkpt lat="47.90464398181547" lon="11.739440698158939"><ele>647.0</ele><time>2026-04-18T14:15:01Z</time></trkpt><trkpt lat="47.90474836401457" lon="11.739566372111337"><ele>647.0</ele><time>2026-04-18T14:15:02Z</time></trkpt><trkpt lat="47.904853327106544" lon="11.739691676618474"><ele>647.0</ele><time>2026-04-18T14:15:03Z</time></trkpt><trkpt lat="47.90495921541167" lon="11.739817951379539"><ele>647.0</ele><time>2026-04-18T14:15:04Z</time></trkpt><trkpt lat="47.9050677659186" lon="11.739944687450851"><ele>647.5</ele><time>2026-04-18T14:15:05Z</time></trkpt><trkpt lat="47.90517628231484" lon="11.740073664080812"><ele>648.0</ele><time>2026-04-18T14:15:06Z</time></trkpt><trkpt lat="47.90528129734463" lon="11.740197206039303"><ele>648.5</ele><time>2026-04-18T14:15:07Z</time></trkpt><trkpt lat="47.905389921134514" lon="11.740318216491307"><ele>649.0</ele><time>2026-04-18T14:15:08Z</time></trkpt><trkpt lat="47.90550522801809" lon="11.740442862016005"><ele>649.0</ele><time>2026-04-18T14:15:09Z</time></trkpt><trkpt lat="47.90561692163711" lon="11.740571866778794"><ele>649.0</ele><time>2026-04-18T14:15:10Z</time></trkpt><trkpt lat="47.90572486552601" lon="11.740697310134"><ele>649.0</ele><time>2026-04-18T14:15:11Z</time></trkpt><trkpt lat="47.90582925319084" lon="11.740822758163349"><ele>649.0</ele><time>2026-04-18T14:15:12Z</time></trkpt><trkpt lat="47.90593294809155" lon="11.74094388326763"><ele>647.75</ele><time>2026-04-18T14:15:13Z</time></trkpt><trkpt lat="47.90603901827963" lon="11.741077372889"><ele>646.5</ele><time>2026-04-18T14:15:14Z</time></trkpt><trkpt lat="47.90614353239205" lon="11.741207678199665"><ele>645.25</ele><time>2026-04-18T14:15:15Z</time></trkpt><trkpt lat="47.90624624099159" lon="11.741339660079074"><ele>644.0</ele><time>2026-04-18T14:15:16Z</time></trkpt><trkpt lat="47.90634482132713" lon="11.741478555209167"><ele>644.0</ele><time>2026-04-18T14:15:17Z</time></trkpt><trkpt lat="47.90642745127786" lon="11.741639477701954"><ele>644.0</ele><time>2026-04-18T14:15:18Z</time></trkpt><trkpt lat="47.90650011526098" lon="11.741805586866354"><ele>644.0</ele><time>2026-04-18T14:15:19Z</time></trkpt><trkpt lat="47.90657610307516" lon="11.741965732434014"><ele>644.0</ele><time>2026-04-18T14:15:20Z</time></trkpt><trkpt lat="47.90664821411982" lon="11.742122152931643"><ele>644.0</ele><time>2026-04-18T14:15:21Z</time></trkpt><trkpt lat="47.90671589770089" lon="11.742271368717292"><ele>644.0</ele><time>2026-04-18T14:15:22Z</time></trkpt><trkpt lat="47.906781976899566" lon="11.742421532596163"><ele>644.0</ele><time>2026-04-18T14:15:23Z</time></trkpt><trkpt lat="47.90684003688478" lon="11.742578593583932"><ele>644.0</ele><time>2026-04-18T14:15:24Z</time></trkpt><trkpt lat="47.90687999884992" lon="11.742751028387762"><ele>645.5</ele><time>2026-04-18T14:15:25Z</time></trkpt><trkpt lat="47.906913631271344" lon="11.742937971714097"><ele>647.0</ele><time>2026-04-18T14:15:26Z</time></trkpt><trkpt lat="47.90694981111864" lon="11.74310310979882"><ele>648.5</ele><time>2026-04-18T14:15:27Z</time></trkpt><trkpt lat="47.90696924573926" lon="11.74325141015564"><ele>650.0</ele><time>2026-04-18T14:15:28Z</time></trkpt><trkpt lat="47.9069582777451" lon="11.74340692619122"><ele>650.5</ele><time>2026-04-18T14:15:29Z</time></trkpt><trkpt lat="47.90692557787918" lon="11.743577702377145"><ele>651.0</ele><time>2026-04-18T14:15:30Z</time></trkpt><trkpt lat="47.90687358334258" lon="11.743745391373329"><ele>651.5</ele><time>2026-04-18T14:15:31Z</time></trkpt><trkpt lat="47.906821542185085" lon="11.743907617234782"><ele>652.0</ele><time>2026-04-18T14:15:32Z</time></trkpt><trkpt lat="47.906817025838556" lon="11.744092548872956"><ele>652.0</ele><time>2026-04-18T14:15:33Z</time></trkpt><trkpt lat="47.90681114544121" lon="11.74429332582212"><ele>652.0</ele><time>2026-04-18T14:15:34Z</time></trkpt><trkpt lat="47.90681260997952" lon="11.74451611896355"><ele>652.0</ele><time>2026-04-18T14:15:35Z</time></trkpt><trkpt lat="47.90679734024678" lon="11.744737692975999"><ele>652.0</ele><time>2026-04-18T14:15:36Z</time></trkpt><trkpt lat="47.90680118129776" lon="11.744946544815614"><ele>652.6666666666667</ele><time>2026-04-18T14:15:37Z</time></trkpt><trkpt lat="47.90679866681619" lon="11.745176864200953"><ele>653.3333333333334</ele><time>2026-04-18T14:15:38Z</time></trkpt><trkpt lat="47.90679961407372" lon="11.745402865214517"><ele>654.0</ele><time>2026-04-18T14:15:39Z</time></trkpt><trkpt lat="47.90679119118717" lon="11.745654164809988"><ele>654.75</ele><time>2026-04-18T14:15:40Z</time></trkpt><trkpt lat="47.906784196046544" lon="11.74588245866793"><ele>655.5</ele><time>2026-04-18T14:15:41Z</time></trkpt><trkpt lat="47.90678098839252" lon="11.746097447207928"><ele>656.25</ele><time>2026-04-18T14:15:42Z</time></trkpt><trkpt lat="47.90678021350936" lon="11.746314350152327"><ele>657.0</ele><time>2026-04-18T14:15:43Z</time></trkpt><trkpt lat="47.906786920697" lon="11.746543031538105"><ele>658.6666666666666</ele><time>2026-04-18T14:15:44Z</time></trkpt><trkpt lat="47.90680395120437" lon="11.74678087092467"><ele>660.3333333333333</ele><time>2026-04-18T14:15:45Z</time></trkpt><trkpt lat="47.906823830192806" lon="11.747001441145214"><ele>662.0</ele><time>2026-04-18T14:15:46Z</time></trkpt><trkpt lat="47.90684465828138" lon="11.747224667049124"><ele>662.3333333333333</ele><time>2026-04-18T14:15:46.999Z</time></trkpt><trkpt lat="47.90686272242009" lon="11.747453937136852"><ele>662.6666666666666</ele><time>2026-04-18T14:15:47.999Z</time></trkpt><trkpt lat="47.90686691385475" lon="11.747687446911343"><ele>663.0</ele><time>2026-04-18T14:15:48.999Z</time></trkpt><trkpt lat="47.906867680449686" lon="11.747920898046624"><ele>661.0</ele><time>2026-04-18T14:15:49.999Z</time></trkpt><trkpt lat="47.906866890705835" lon="11.748141155143697"><ele>659.0</ele><time>2026-04-18T14:15:50.999Z</time></trkpt><trkpt lat="47.90686440988162" lon="11.748353324709171"><ele>657.0</ele><time>2026-04-18T14:15:51.999Z</time></trkpt><trkpt lat="47.90686922254196" lon="11.748566762278315"><ele>655.0</ele><time>2026-04-18T14:15:52.999Z</time></trkpt><trkpt lat="47.90687680387753" lon="11.7487694521406"><ele>653.25</ele><time>2026-04-18T14:15:53.999Z</time></trkpt><trkpt lat="47.90687907614774" lon="11.748969291329232"><ele>651.5</ele><time>2026-04-18T14:15:54.999Z</time></trkpt><trkpt lat="47.90688916799367" lon="11.749151311890454"><ele>649.75</ele><time>2026-04-18T14:15:55.999Z</time></trkpt><trkpt lat="47.90690321878374" lon="11.749343529675537"><ele>648.0</ele><time>2026-04-18T14:15:56.999Z</time></trkpt><trkpt lat="47.906916151357706" lon="11.749543151528394"><ele>648.0</ele><time>2026-04-18T14:15:57.999Z</time></trkpt><trkpt lat="47.906915344438445" lon="11.749750093908482"><ele>648.0</ele><time>2026-04-18T14:15:58.999Z</time></trkpt><trkpt lat="47.906908635944845" lon="11.74996211808611"><ele>648.0</ele><time>2026-04-18T14:15:59.999Z</time></trkpt><trkpt lat="47.9068973056235" lon="11.750177683903829"><ele>648.0</ele><time>2026-04-18T14:16:00.999Z</time></trkpt><trkpt lat="47.906880742117934" lon="11.750382443803174"><ele>648.25</ele><time>2026-04-18T14:16:01.999Z</time></trkpt><trkpt lat="47.90685809237197" lon="11.750581192244756"><ele>648.5</ele><time>2026-04-18T14:16:02.999Z</time></trkpt><trkpt lat="47.906808728665396" lon="11.750777904452695"><ele>648.75</ele><time>2026-04-18T14:16:03.999Z</time></trkpt><trkpt lat="47.90676158458498" lon="11.750967147045277"><ele>649.0</ele><time>2026-04-18T14:16:04.999Z</time></trkpt><trkpt lat="47.90671299425305" lon="11.751180531247456"><ele>649.0</ele><time>2026-04-18T14:16:05.999Z</time></trkpt><trkpt lat="47.90664320901734" lon="11.751378281226955"><ele>649.0</ele><time>2026-04-18T14:16:06.999Z</time></trkpt><trkpt lat="47.90658712372743" lon="11.751579839602684"><ele>649.0</ele><time>2026-04-18T14:16:07.999Z</time></trkpt><trkpt lat="47.90651873265431" lon="11.751783076417839"><ele>649.0</ele><time>2026-04-18T14:16:08.999Z</time></trkpt><trkpt lat="47.906467317857356" lon="11.752028810303047"><ele>647.6666666666667</ele><time>2026-04-18T14:16:09.999Z</time></trkpt><trkpt lat="47.906421712156515" lon="11.752279221186676"><ele>646.3333333333334</ele><time>2026-04-18T14:16:10.999Z</time></trkpt><trkpt lat="47.90638919778217" lon="11.752522733384"><ele>645.0</ele><time>2026-04-18T14:16:11.999Z</time></trkpt><trkpt lat="47.90637603036965" lon="11.752755713720774"><ele>644.6666666666666</ele><time>2026-04-18T14:16:12.999Z</time></trkpt><trkpt lat="47.906367776759524" lon="11.75299063897601"><ele>644.3333333333333</ele><time>2026-04-18T14:16:13.999Z</time></trkpt><trkpt lat="47.90637764453283" lon="11.753223104267494"><ele>644.0</ele><time>2026-04-18T14:16:14.999Z</time></trkpt><trkpt lat="47.90640437299374" lon="11.753451478362198"><ele>643.6666666666666</ele><time>2026-04-18T14:16:15.999Z</time></trkpt><trkpt lat="47.90641632085455" lon="11.753683933348603"><ele>643.3333333333334</ele><time>2026-04-18T14:16:16.999Z</time></trkpt><trkpt lat="47.9064365745651" lon="11.753919130138634"><ele>643.0</ele><time>2026-04-18T14:16:17.999Z</time></trkpt><trkpt lat="47.90645248628798" lon="11.75414430495002"><ele>643.6666666666667</ele><time>2026-04-18T14:16:18.999Z</time></trkpt><trkpt lat="47.90644177943924" lon="11.754373793500006"><ele>644.3333333333334</ele><time>2026-04-18T14:16:19.999Z</time></trkpt><trkpt lat="47.90642875402376" lon="11.754593977574109"><ele>645.0</ele><time>2026-04-18T14:16:20.999Z</time></trkpt><trkpt lat="47.90640467791185" lon="11.75481827108953"><ele>645.0</ele><time>2026-04-18T14:16:21.999Z</time></trkpt><trkpt lat="47.906377680657435" lon="11.755044149989867"><ele>645.0</ele><time>2026-04-18T14:16:22.999Z</time></trkpt><trkpt lat="47.90635783227163" lon="11.75525800772496"><ele>645.0</ele><time>2026-04-18T14:16:23.999Z</time></trkpt><trkpt lat="47.906338929232525" lon="11.755482081503283"><ele>644.6666666666666</ele><time>2026-04-18T14:16:24.999Z</time></trkpt><trkpt lat="47.906315639665145" lon="11.755714916682619"><ele>644.3333333333333</ele><time>2026-04-18T14:16:25.999Z</time></trkpt><trkpt lat="47.90629782960188" lon="11.755940907436642"><ele>644.0</ele><time>2026-04-18T14:16:26.999Z</time></trkpt><trkpt lat="47.90628893415326" lon="11.75616191711791"><ele>644.0</ele><time>2026-04-18T14:16:27.999Z</time></trkpt><trkpt lat="47.90630646503247" lon="11.756380368517833"><ele>644.0</ele><time>2026-04-18T14:16:28.999Z</time></trkpt><trkpt lat="47.906346239050386" lon="11.75658945675472"><ele>644.0</ele><time>2026-04-18T14:16:29.999Z</time></trkpt><trkpt lat="47.906385687136726" lon="11.756802504764469"><ele>644.0</ele><time>2026-04-18T14:16:30.999Z</time></trkpt><trkpt lat="47.9064218165957" lon="11.757019829930082"><ele>644.0</ele><time>2026-04-18T14:16:31.999Z</time></trkpt><trkpt lat="47.9064574428619" lon="11.75722595477709"><ele>644.0</ele><time>2026-04-18T14:16:32.999Z</time></trkpt><trkpt lat="47.906499270257136" lon="11.757421950531022"><ele>644.0</ele><time>2026-04-18T14:16:33.999Z</time></trkpt><trkpt lat="47.90656196434736" lon="11.757625431064316"><ele>644.0</ele><time>2026-04-18T14:16:34.999Z</time></trkpt><trkpt lat="47.90662503361851" lon="11.757836500857257"><ele>644.0</ele><time>2026-04-18T14:16:35.999Z</time></trkpt><trkpt lat="47.90667621260436" lon="11.758040100102258"><ele>644.0</ele><time>2026-04-18T14:16:36.999Z</time></trkpt><trkpt lat="47.90672058547132" lon="11.75823545730713"><ele>644.0</ele><time>2026-04-18T14:16:37.999Z</time></trkpt><trkpt lat="47.90676296933309" lon="11.758434028978627"><ele>644.0</ele><time>2026-04-18T14:16:38.999Z</time></trkpt><trkpt lat="47.90680679715533" lon="11.758661478732147"><ele>644.0</ele><time>2026-04-18T14:16:39.999Z</time></trkpt><trkpt lat="47.90685326519872" lon="11.75890089542343"><ele>644.0</ele><time>2026-04-18T14:16:40.999Z</time></trkpt><trkpt lat="47.906906081161644" lon="11.75917479067005"><ele>644.0</ele><time>2026-04-18T14:16:41.999Z</time></trkpt><trkpt lat="47.906961070822284" lon="11.759464263754332"><ele>644.0</ele><time>2026-04-18T14:16:42.999Z</time></trkpt><trkpt lat="47.90701415237086" lon="11.759721196928878"><ele>644.0</ele><time>2026-04-18T14:16:44Z</time></trkpt><trkpt lat="47.907059942355026" lon="11.759956775015382"><ele>644.0</ele><time>2026-04-18T14:16:45Z</time></trkpt><trkpt lat="47.907101911226945" lon="11.760179360203047"><ele>644.3333333333333</ele><time>2026-04-18T14:16:46Z</time></trkpt><trkpt lat="47.90714446282715" lon="11.76040419416188"><ele>644.6666666666666</ele><time>2026-04-18T14:16:47Z</time></trkpt><trkpt lat="47.9071912314992" lon="11.760642876767632"><ele>645.0</ele><time>2026-04-18T14:16:48Z</time></trkpt><trkpt lat="47.90723552561668" lon="11.76087641774326"><ele>645.0</ele><time>2026-04-18T14:16:49Z</time></trkpt><trkpt lat="47.907274788854515" lon="11.761113455034282"><ele>645.0</ele><time>2026-04-18T14:16:50Z</time></trkpt><trkpt lat="47.90731463384357" lon="11.761349807175066"><ele>645.0</ele><time>2026-04-18T14:16:51Z</time></trkpt><trkpt lat="47.90735134571554" lon="11.7615875369"><ele>645.0</ele><time>2026-04-18T14:16:52Z</time></trkpt><trkpt lat="47.907388750915366" lon="11.761821076083221"><ele>645.0</ele><time>2026-04-18T14:16:53Z</time></trkpt><trkpt lat="47.90742745984459" lon="11.7620424604509"><ele>645.0</ele><time>2026-04-18T14:16:54Z</time></trkpt><trkpt lat="47.90746302869063" lon="11.76226486049284"><ele>644.6666666666666</ele><time>2026-04-18T14:16:55Z</time></trkpt><trkpt lat="47.9074955615719" lon="11.762489513380174"><ele>644.3333333333333</ele><time>2026-04-18T14:16:56Z</time></trkpt><trkpt lat="47.9075177133791" lon="11.762726427305742"><ele>644.0</ele><time>2026-04-18T14:16:57Z</time></trkpt><trkpt lat="47.907531132178114" lon="11.762968011969466"><ele>644.0</ele><time>2026-04-18T14:16:58Z</time></trkpt><trkpt lat="47.90755082502653" lon="11.7631991889732"><ele>644.0</ele><time>2026-04-18T14:16:59Z</time></trkpt><trkpt lat="47.90755637464258" lon="11.763467859859812"><ele>644.0</ele><time>2026-04-18T14:17:00Z</time></trkpt><trkpt lat="47.90758139303418" lon="11.76372442839949"><ele>643.25</ele><time>2026-04-18T14:17:01Z</time></trkpt><trkpt lat="47.90761937318338" lon="11.763946588575372"><ele>642.5</ele><time>2026-04-18T14:17:02Z</time></trkpt><trkpt lat="47.90763848409128" lon="11.764157101654058"><ele>641.75</ele><time>2026-04-18T14:17:03Z</time></trkpt><trkpt lat="47.90765693060823" lon="11.764368138560878"><ele>641.0</ele><time>2026-04-18T14:17:04Z</time></trkpt><trkpt lat="47.90767350833891" lon="11.764575157239634"><ele>641.0</ele><time>2026-04-18T14:17:05Z</time></trkpt><trkpt lat="47.907689548800114" lon="11.76478038373588"><ele>641.0</ele><time>2026-04-18T14:17:06Z</time></trkpt><trkpt lat="47.90770526990452" lon="11.764975273243556"><ele>641.0</ele><time>2026-04-18T14:17:07Z</time></trkpt><trkpt lat="47.907720429306174" lon="11.765151446470957"><ele>641.0</ele><time>2026-04-18T14:17:08Z</time></trkpt><trkpt lat="47.90773468453578" lon="11.765313998416833"><ele>641.0</ele><time>2026-04-18T14:17:09Z</time></trkpt><trkpt lat="47.907748653483075" lon="11.765475047350726"><ele>641.0</ele><time>2026-04-18T14:17:10Z</time></trkpt><trkpt lat="47.90776674520416" lon="11.765634197338779"><ele>641.0</ele><time>2026-04-18T14:17:11Z</time></trkpt><trkpt lat="47.90777991057321" lon="11.76578096854228"><ele>641.0</ele><time>2026-04-18T14:17:12Z</time></trkpt><trkpt lat="47.90778822153691" lon="11.765902242055823"><ele>641.0</ele><time>2026-04-18T14:17:13Z</time></trkpt><trkpt lat="47.907796462311666" lon="11.765999627449345"><ele>641.0</ele><time>2026-04-18T14:17:14Z</time></trkpt><trkpt lat="47.90781260897084" lon="11.76617006140357"><ele>641.0</ele><time>2026-04-18T14:17:16Z</time></trkpt><trkpt lat="47.90782405575013" lon="11.766286965624243"><ele>641.0</ele><time>2026-04-18T14:17:18Z</time></trkpt><trkpt lat="47.90772500922655" lon="11.766459908487708"><ele>641.0</ele><time>2026-04-18T14:17:27Z</time></trkpt><trkpt lat="47.90764304371338" lon="11.766497726960402"><ele>641.0</ele><time>2026-04-18T14:17:28Z</time></trkpt><trkpt lat="47.90755231403703" lon="11.766531476908018"><ele>641.0</ele><time>2026-04-18T14:17:29Z</time></trkpt><trkpt lat="47.90745292806043" lon="11.76657449335155"><ele>641.0</ele><time>2026-04-18T14:17:30Z</time></trkpt><trkpt lat="47.90735390019029" lon="11.766620253999008"><ele>641.0</ele><time>2026-04-18T14:17:31Z</time></trkpt><trkpt lat="47.9072532133595" lon="11.766652609392873"><ele>641.0</ele><time>2026-04-18T14:17:32Z</time></trkpt><trkpt lat="47.907150147217166" lon="11.766673485928916"><ele>641.0</ele><time>2026-04-18T14:17:33Z</time></trkpt><trkpt lat="47.9070466859085" lon="11.76669045960293"><ele>641.0</ele><time>2026-04-18T14:17:34Z</time></trkpt><trkpt lat="47.90694244604375" lon="11.766697762339668"><ele>641.0</ele><time>2026-04-18T14:17:35Z</time></trkpt><trkpt lat="47.906835560811544" lon="11.766702643256668"><ele>641.0</ele><time>2026-04-18T14:17:36Z</time></trkpt><trkpt lat="47.90672467740561" lon="11.766719575017511"><ele>641.0</ele><time>2026-04-18T14:17:37Z</time></trkpt><trkpt lat="47.906594782407105" lon="11.766744263877962"><ele>641.0</ele><time>2026-04-18T14:17:38Z</time></trkpt><trkpt lat="47.906445340342714" lon="11.766767710974474"><ele>641.0</ele><time>2026-04-18T14:17:39Z</time></trkpt><trkpt lat="47.90630473227028" lon="11.766785873624261"><ele>641.0</ele><time>2026-04-18T14:17:40Z</time></trkpt><trkpt lat="47.90617806686456" lon="11.766792324440079"><ele>641.0</ele><time>2026-04-18T14:17:41Z</time></trkpt><trkpt lat="47.9060496164428" lon="11.766802166700257"><ele>641.0</ele><time>2026-04-18T14:17:42Z</time></trkpt><trkpt lat="47.90592080312147" lon="11.766817009942612"><ele>641.0</ele><time>2026-04-18T14:17:43Z</time></trkpt><trkpt lat="47.90577969877381" lon="11.766831927836717"><ele>641.0</ele><time>2026-04-18T14:17:44Z</time></trkpt><trkpt lat="47.905624256125584" lon="11.766845725975797"><ele>641.0</ele><time>2026-04-18T14:17:45Z</time></trkpt><trkpt lat="47.90545045263974" lon="11.766883861797966"><ele>640.6666666666666</ele><time>2026-04-18T14:17:46Z</time></trkpt><trkpt lat="47.9052766852332" lon="11.766921877673305"><ele>640.3333333333334</ele><time>2026-04-18T14:17:47Z</time></trkpt><trkpt lat="47.90510464227114" lon="11.766949704788804"><ele>640.0</ele><time>2026-04-18T14:17:48Z</time></trkpt><trkpt lat="47.904932680964926" lon="11.766976615685113"><ele>640.6666666666667</ele><time>2026-04-18T14:17:49Z</time></trkpt><trkpt lat="47.904757602047205" lon="11.767002080748298"><ele>641.3333333333334</ele><time>2026-04-18T14:17:50Z</time></trkpt><trkpt lat="47.90457973303175" lon="11.767023797569452"><ele>642.0</ele><time>2026-04-18T14:17:51Z</time></trkpt><trkpt lat="47.904406467445" lon="11.76704531147968"><ele>642.3333333333334</ele><time>2026-04-18T14:17:52Z</time></trkpt><trkpt lat="47.90423995114146" lon="11.767062930116452"><ele>642.6666666666667</ele><time>2026-04-18T14:17:53Z</time></trkpt><trkpt lat="47.904078043881476" lon="11.76707726082398"><ele>643.0</ele><time>2026-04-18T14:17:54Z</time></trkpt><trkpt lat="47.90392003713609" lon="11.76708939880137"><ele>643.0</ele><time>2026-04-18T14:17:55Z</time></trkpt><trkpt lat="47.90375986985031" lon="11.767090937994134"><ele>643.0</ele><time>2026-04-18T14:17:56Z</time></trkpt><trkpt lat="47.90358863568904" lon="11.76709911915971"><ele>643.0</ele><time>2026-04-18T14:17:57Z</time></trkpt><trkpt lat="47.90339512956731" lon="11.767115633350684"><ele>643.3333333333334</ele><time>2026-04-18T14:17:58Z</time></trkpt><trkpt lat="47.903187615288886" lon="11.76712656949973"><ele>643.6666666666666</ele><time>2026-04-18T14:17:59Z</time></trkpt><trkpt lat="47.9029788649802" lon="11.767136694616608"><ele>644.0</ele><time>2026-04-18T14:18:00Z</time></trkpt><trkpt lat="47.90278331317954" lon="11.767144757110634"><ele>644.0</ele><time>2026-04-18T14:18:01Z</time></trkpt><trkpt lat="47.9025975098013" lon="11.76715281640332"><ele>644.0</ele><time>2026-04-18T14:18:02Z</time></trkpt><trkpt lat="47.90241836341128" lon="11.76716420682315"><ele>644.0</ele><time>2026-04-18T14:18:03Z</time></trkpt><trkpt lat="47.90223526526527" lon="11.76717319500982"><ele>645.3333333333333</ele><time>2026-04-18T14:18:04Z</time></trkpt><trkpt lat="47.902043289988285" lon="11.767182140523866"><ele>646.6666666666666</ele><time>2026-04-18T14:18:04.999Z</time></trkpt><trkpt lat="47.90185219424721" lon="11.767190658497368"><ele>648.0</ele><time>2026-04-18T14:18:05.999Z</time></trkpt><trkpt lat="47.90166750280556" lon="11.767194839693781"><ele>648.0</ele><time>2026-04-18T14:18:06.999Z</time></trkpt><trkpt lat="47.90149023084489" lon="11.767198406171273"><ele>648.0</ele><time>2026-04-18T14:18:07.999Z</time></trkpt><trkpt lat="47.901315374279434" lon="11.767201405271845"><ele>648.0</ele><time>2026-04-18T14:18:08.999Z</time></trkpt><trkpt lat="47.90113243693154" lon="11.7672033335011"><ele>648.0</ele><time>2026-04-18T14:18:09.999Z</time></trkpt><trkpt lat="47.900938772192326" lon="11.767207868361462"><ele>648.0</ele><time>2026-04-18T14:18:10.999Z</time></trkpt><trkpt lat="47.900755235332376" lon="11.767215093234256"><ele>648.0</ele><time>2026-04-18T14:18:11.999Z</time></trkpt><trkpt lat="47.90057608997123" lon="11.767220253461545"><ele>648.6666666666666</ele><time>2026-04-18T14:18:12.999Z</time></trkpt><trkpt lat="47.90039336474666" lon="11.767216005313754"><ele>649.3333333333333</ele><time>2026-04-18T14:18:13.999Z</time></trkpt><trkpt lat="47.90020457133716" lon="11.767207317281024"><ele>650.0</ele><time>2026-04-18T14:18:14.999Z</time></trkpt><trkpt lat="47.900019067375474" lon="11.76719564552386"><ele>651.0</ele><time>2026-04-18T14:18:15.999Z</time></trkpt><trkpt lat="47.89983832503593" lon="11.767181730368995"><ele>652.0</ele><time>2026-04-18T14:18:16.999Z</time></trkpt><trkpt lat="47.89966107263537" lon="11.767168752432461"><ele>653.0</ele><time>2026-04-18T14:18:17.999Z</time></trkpt><trkpt lat="47.89947035054967" lon="11.767153632350476"><ele>653.0</ele><time>2026-04-18T14:18:18.999Z</time></trkpt><trkpt lat="47.899291394032936" lon="11.767141712962378"><ele>653.0</ele><time>2026-04-18T14:18:19.999Z</time></trkpt><trkpt lat="47.89910213176599" lon="11.767128804134765"><ele>653.0</ele><time>2026-04-18T14:18:20.999Z</time></trkpt><trkpt lat="47.89891372107363" lon="11.767115454368724"><ele>652.3333333333333</ele><time>2026-04-18T14:18:21.999Z</time></trkpt><trkpt lat="47.89873919150793" lon="11.767101425025542"><ele>651.6666666666666</ele><time>2026-04-18T14:18:22.999Z</time></trkpt><trkpt lat="47.898570061693725" lon="11.767086148587621"><ele>651.0</ele><time>2026-04-18T14:18:23.999Z</time></trkpt><trkpt lat="47.898396095349" lon="11.767075982523014"><ele>650.6666666666666</ele><time>2026-04-18T14:18:24.999Z</time></trkpt><trkpt lat="47.89821058858969" lon="11.767063211280032"><ele>650.3333333333333</ele><time>2026-04-18T14:18:25.999Z</time></trkpt><trkpt lat="47.89800824076324" lon="11.767048309354172"><ele>650.0</ele><time>2026-04-18T14:18:26.999Z</time></trkpt><trkpt lat="47.897820469104275" lon="11.76703947316547"><ele>650.0</ele><time>2026-04-18T14:18:27.999Z</time></trkpt><trkpt lat="47.89764550518935" lon="11.767029773920308"><ele>650.0</ele><time>2026-04-18T14:18:28.999Z</time></trkpt><trkpt lat="47.89747394460103" lon="11.767019547878695"><ele>650.0</ele><time>2026-04-18T14:18:29.999Z</time></trkpt><trkpt lat="47.89730299015269" lon="11.76701005238914"><ele>650.0</ele><time>2026-04-18T14:18:31Z</time></trkpt><trkpt lat="47.897130816770705" lon="11.766998035041283"><ele>650.0</ele><time>2026-04-18T14:18:32Z</time></trkpt><trkpt lat="47.89696061482155" lon="11.766974356130445"><ele>650.0</ele><time>2026-04-18T14:18:33Z</time></trkpt><trkpt lat="47.89678879790342" lon="11.76694750614271"><ele>650.3333333333333</ele><time>2026-04-18T14:18:34Z</time></trkpt><trkpt lat="47.896608424593026" lon="11.766926099275901"><ele>650.6666666666666</ele><time>2026-04-18T14:18:35Z</time></trkpt><trkpt lat="47.89641291060662" lon="11.76689696776644"><ele>651.0</ele><time>2026-04-18T14:18:36Z</time></trkpt><trkpt lat="47.89619643799559" lon="11.766856520991453"><ele>651.5</ele><time>2026-04-18T14:18:37Z</time></trkpt><trkpt lat="47.895966613356514" lon="11.766821366928129"><ele>652.0</ele><time>2026-04-18T14:18:38Z</time></trkpt><trkpt lat="47.89573314067869" lon="11.766802858676172"><ele>652.0</ele><time>2026-04-18T14:18:39Z</time></trkpt><trkpt lat="47.89551587272309" lon="11.766795794092465"><ele>652.0</ele><time>2026-04-18T14:18:40Z</time></trkpt><trkpt lat="47.89531479643209" lon="11.766795906716515"><ele>652.0</ele><time>2026-04-18T14:18:41Z</time></trkpt><trkpt lat="47.89512687787436" lon="11.766794646436923"><ele>652.0</ele><time>2026-04-18T14:18:42Z</time></trkpt><trkpt lat="47.89494424298717" lon="11.766764945996188"><ele>652.0</ele><time>2026-04-18T14:18:43Z</time></trkpt><trkpt lat="47.894756799681296" lon="11.766762952335501"><ele>652.0</ele><time>2026-04-18T14:18:44Z</time></trkpt><trkpt lat="47.89455908085289" lon="11.76679519419257"><ele>652.0</ele><time>2026-04-18T14:18:45Z</time></trkpt><trkpt lat="47.894359878791406" lon="11.766810015177125"><ele>652.0</ele><time>2026-04-18T14:18:46Z</time></trkpt><trkpt lat="47.89417032151964" lon="11.766801152066861"><ele>652.0</ele><time>2026-04-18T14:18:47Z</time></trkpt><trkpt lat="47.89398528641385" lon="11.766814833620845"><ele>652.0</ele><time>2026-04-18T14:18:48Z</time></trkpt><trkpt lat="47.89379554978552" lon="11.766828862804335"><ele>652.0</ele><time>2026-04-18T14:18:49Z</time></trkpt><trkpt lat="47.893588813507684" lon="11.766845270754581"><ele>652.0</ele><time>2026-04-18T14:18:50Z</time></trkpt><trkpt lat="47.89338941651447" lon="11.766883812522984"><ele>652.0</ele><time>2026-04-18T14:18:51Z</time></trkpt><trkpt lat="47.893193967196176" lon="11.766895963469985"><ele>652.0</ele><time>2026-04-18T14:18:52Z</time></trkpt><trkpt lat="47.893002951335795" lon="11.766911012873297"><ele>652.0</ele><time>2026-04-18T14:18:53Z</time></trkpt><trkpt lat="47.89281618914274" lon="11.76692837514699"><ele>652.0</ele><time>2026-04-18T14:18:54Z</time></trkpt><trkpt lat="47.89263298539809" lon="11.766936667405304"><ele>652.0</ele><time>2026-04-18T14:18:55Z</time></trkpt><trkpt lat="47.89245162838539" lon="11.766956356814111"><ele>652.0</ele><time>2026-04-18T14:18:56Z</time></trkpt><trkpt lat="47.89226099868156" lon="11.767029050401227"><ele>652.3333333333334</ele><time>2026-04-18T14:18:57Z</time></trkpt><trkpt lat="47.89206201659882" lon="11.767112994845027"><ele>652.6666666666666</ele><time>2026-04-18T14:18:58Z</time></trkpt><trkpt lat="47.891890239542874" lon="11.767204681401124"><ele>653.0</ele><time>2026-04-18T14:18:59Z</time></trkpt><trkpt lat="47.89175323445371" lon="11.767285157882736"><ele>653.0</ele><time>2026-04-18T14:19:00Z</time></trkpt><trkpt lat="47.89163335676563" lon="11.767358446791455"><ele>653.0</ele><time>2026-04-18T14:19:01Z</time></trkpt><trkpt lat="47.891517652738514" lon="11.767429184131204"><ele>653.0</ele><time>2026-04-18T14:19:02Z</time></trkpt><trkpt lat="47.89141722018185" lon="11.767492319043633"><ele>653.0</ele><time>2026-04-18T14:19:03Z</time></trkpt><trkpt lat="47.89133010776202" lon="11.76757481496922"><ele>653.0</ele><time>2026-04-18T14:19:04Z</time></trkpt><trkpt lat="47.891237383811784" lon="11.767632945677663"><ele>653.0</ele><time>2026-04-18T14:19:05Z</time></trkpt><trkpt lat="47.89114597427274" lon="11.76769721020923"><ele>653.0</ele><time>2026-04-18T14:19:06Z</time></trkpt><trkpt lat="47.891052364195886" lon="11.767768602709479"><ele>653.0</ele><time>2026-04-18T14:19:07Z</time></trkpt><trkpt lat="47.89094397678518" lon="11.767850952669745"><ele>653.0</ele><time>2026-04-18T14:19:08Z</time></trkpt><trkpt lat="47.8908289132604" lon="11.767934340378885"><ele>653.2</ele><time>2026-04-18T14:19:09Z</time></trkpt><trkpt lat="47.89072494264221" lon="11.768002871458979"><ele>653.4</ele><time>2026-04-18T14:19:10Z</time></trkpt><trkpt lat="47.890626529831835" lon="11.768062619112428"><ele>653.6</ele><time>2026-04-18T14:19:11Z</time></trkpt><trkpt lat="47.89052997359791" lon="11.768121813927742"><ele>653.8000000000001</ele><time>2026-04-18T14:19:12Z</time></trkpt><trkpt lat="47.89043539404845" lon="11.768178668499937"><ele>654.0</ele><time>2026-04-18T14:19:13Z</time></trkpt><trkpt lat="47.8903388522002" lon="11.768232191943431"><ele>654.0</ele><time>2026-04-18T14:19:14Z</time></trkpt><trkpt lat="47.890245270187215" lon="11.768284701719807"><ele>654.0</ele><time>2026-04-18T14:19:15Z</time></trkpt><trkpt lat="47.89015360661893" lon="11.768335664475847"><ele>654.0</ele><time>2026-04-18T14:19:16Z</time></trkpt><trkpt lat="47.89006972557408" lon="11.7684182857817"><ele>654.0</ele><time>2026-04-18T14:19:17Z</time></trkpt><trkpt lat="47.88999136553138" lon="11.768524187853776"><ele>654.0</ele><time>2026-04-18T14:19:18Z</time></trkpt><trkpt lat="47.88991915411824" lon="11.768631316116295"><ele>654.0</ele><time>2026-04-18T14:19:19Z</time></trkpt><trkpt lat="47.889853965380496" lon="11.768727919229677"><ele>654.0</ele><time>2026-04-18T14:19:20Z</time></trkpt><trkpt lat="47.889794065040256" lon="11.768815800457553"><ele>654.0</ele><time>2026-04-18T14:19:21Z</time></trkpt><trkpt lat="47.88974246504521" lon="11.768901361750144"><ele>654.0</ele><time>2026-04-18T14:19:22Z</time></trkpt><trkpt lat="47.88969482738527" lon="11.768977205217892"><ele>654.0</ele><time>2026-04-18T14:19:23Z</time></trkpt><trkpt lat="47.889644874676954" lon="11.769050688336257"><ele>654.0</ele><time>2026-04-18T14:19:24Z</time></trkpt><trkpt lat="47.88958431175205" lon="11.76910138363705"><ele>654.0</ele><time>2026-04-18T14:19:25Z</time></trkpt><trkpt lat="47.889514020667825" lon="11.769096992541417"><ele>654.0</ele><time>2026-04-18T14:19:26Z</time></trkpt><trkpt lat="47.889449431079896" lon="11.769042059112014"><ele>654.0</ele><time>2026-04-18T14:19:27Z</time></trkpt><trkpt lat="47.88938832195909" lon="11.768936452302158"><ele>654.0</ele><time>2026-04-18T14:19:28Z</time></trkpt><trkpt lat="47.88931505200659" lon="11.768797491797217"><ele>654.0</ele><time>2026-04-18T14:19:29Z</time></trkpt><trkpt lat="47.88924159904552" lon="11.768683001229437"><ele>654.0</ele><time>2026-04-18T14:19:30Z</time></trkpt><trkpt lat="47.889183271497934" lon="11.768586294696586"><ele>654.0</ele><time>2026-04-18T14:19:31Z</time></trkpt><trkpt lat="47.88911943560583" lon="11.768501136816925"><ele>654.0</ele><time>2026-04-18T14:19:32Z</time></trkpt><trkpt lat="47.88905088932185" lon="11.768430333441893"><ele>654.0</ele><time>2026-04-18T14:19:33Z</time></trkpt><trkpt lat="47.88898313618086" lon="11.768370882199132"><ele>654.0</ele><time>2026-04-18T14:19:34Z</time></trkpt><trkpt lat="47.8889039787723" lon="11.768352470810111"><ele>654.0</ele><time>2026-04-18T14:19:35Z</time></trkpt><trkpt lat="47.88881527163012" lon="11.768382212418325"><ele>654.0</ele><time>2026-04-18T14:19:36Z</time></trkpt><trkpt lat="47.88873100768893" lon="11.768426814249873"><ele>654.0</ele><time>2026-04-18T14:19:37Z</time></trkpt><trkpt lat="47.888648683697504" lon="11.768474753566904"><ele>654.0</ele><time>2026-04-18T14:19:38Z</time></trkpt><trkpt lat="47.88857680572834" lon="11.76851602479724"><ele>654.0</ele><time>2026-04-18T14:19:39Z</time></trkpt><trkpt lat="47.888503183454766" lon="11.768551251825137"><ele>654.0</ele><time>2026-04-18T14:19:40Z</time></trkpt><trkpt lat="47.888428912732685" lon="11.768592492226784"><ele>654.0</ele><time>2026-04-18T14:19:41Z</time></trkpt><trkpt lat="47.88834997453531" lon="11.76865472405481"><ele>654.6</ele><time>2026-04-18T14:19:42Z</time></trkpt><trkpt lat="47.888281372185695" lon="11.768752992695893"><ele>655.2</ele><time>2026-04-18T14:19:43Z</time></trkpt><trkpt lat="47.88823495203472" lon="11.768877151717437"><ele>655.8000000000001</ele><time>2026-04-18T14:19:44Z</time></trkpt><trkpt lat="47.88820611654909" lon="11.769013785239059"><ele>656.4000000000001</ele><time>2026-04-18T14:19:45Z</time></trkpt><trkpt lat="47.88818756214059" lon="11.769166377128427"><ele>657.0</ele><time>2026-04-18T14:19:46Z</time></trkpt><trkpt lat="47.888176734624366" lon="11.769329993373033"><ele>656.0</ele><time>2026-04-18T14:19:47Z</time></trkpt><trkpt lat="47.88816041098948" lon="11.76950768097651"><ele>655.0</ele><time>2026-04-18T14:19:48Z</time></trkpt><trkpt lat="47.888127188378064" lon="11.76971412945501"><ele>654.0</ele><time>2026-04-18T14:19:49Z</time></trkpt><trkpt lat="47.888071725125315" lon="11.76993729979318"><ele>653.0</ele><time>2026-04-18T14:19:50Z</time></trkpt><trkpt lat="47.88800208211356" lon="11.770152337547447"><ele>652.3333333333333</ele><time>2026-04-18T14:19:51Z</time></trkpt><trkpt lat="47.88792061915202" lon="11.770362916387374"><ele>651.6666666666666</ele><time>2026-04-18T14:19:52Z</time></trkpt><trkpt lat="47.887839387537724" lon="11.77054828516079"><ele>651.0</ele><time>2026-04-18T14:19:53Z</time></trkpt><trkpt lat="47.8877539521722" lon="11.770729142087763"><ele>651.0</ele><time>2026-04-18T14:19:54Z</time></trkpt><trkpt lat="47.88766027329334" lon="11.770914138048338"><ele>651.0</ele><time>2026-04-18T14:19:55Z</time></trkpt><trkpt lat="47.887552008315" lon="11.771117107064821"><ele>651.0</ele><time>2026-04-18T14:19:56Z</time></trkpt><trkpt lat="47.88743564258291" lon="11.771321152920683"><ele>651.0</ele><time>2026-04-18T14:19:57Z</time></trkpt><trkpt lat="47.887328126825736" lon="11.771509826459432"><ele>651.0</ele><time>2026-04-18T14:19:58Z</time></trkpt><trkpt lat="47.88722398752275" lon="11.771694957681571"><ele>651.0</ele><time>2026-04-18T14:19:59Z</time></trkpt><trkpt lat="47.88701926232204" lon="11.7720636968003"><ele>651.0</ele><time>2026-04-18T14:20:01Z</time></trkpt><trkpt lat="47.8869168032398" lon="11.772248389155346"><ele>651.0</ele><time>2026-04-18T14:20:02Z</time></trkpt><trkpt lat="47.88681411157919" lon="11.772438255729835"><ele>651.0</ele><time>2026-04-18T14:20:03Z</time></trkpt><trkpt lat="47.88670827905649" lon="11.772624548841245"><ele>651.3333333333334</ele><time>2026-04-18T14:20:04Z</time></trkpt><trkpt lat="47.88659750595876" lon="11.772802673334834"><ele>651.6666666666667</ele><time>2026-04-18T14:20:05Z</time></trkpt><trkpt lat="47.8864741813275" lon="11.772949031596468"><ele>652.0</ele><time>2026-04-18T14:20:06Z</time></trkpt><trkpt lat="47.88636462379429" lon="11.77311539414824"><ele>652.0</ele><time>2026-04-18T14:20:07Z</time></trkpt><trkpt lat="47.88625032205941" lon="11.7732659206409"><ele>652.0</ele><time>2026-04-18T14:20:08Z</time></trkpt><trkpt lat="47.886136787862334" lon="11.773412962270328"><ele>652.0</ele><time>2026-04-18T14:20:09Z</time></trkpt><trkpt lat="47.88602246411576" lon="11.773560418797558"><ele>652.3333333333334</ele><time>2026-04-18T14:20:10Z</time></trkpt><trkpt lat="47.885904923718535" lon="11.773712250899914"><ele>652.6666666666666</ele><time>2026-04-18T14:20:11Z</time></trkpt><trkpt lat="47.885784643895654" lon="11.773871360928924"><ele>653.0</ele><time>2026-04-18T14:20:12Z</time></trkpt><trkpt lat="47.88565313847011" lon="11.774046365010726"><ele>653.0</ele><time>2026-04-18T14:20:13Z</time></trkpt><trkpt lat="47.885531198912666" lon="11.774203197098021"><ele>653.0</ele><time>2026-04-18T14:20:14Z</time></trkpt><trkpt lat="47.88542205261554" lon="11.774350456572792"><ele>653.0</ele><time>2026-04-18T14:20:15Z</time></trkpt><trkpt lat="47.88531557153684" lon="11.774493529875796"><ele>653.0</ele><time>2026-04-18T14:20:16Z</time></trkpt><trkpt lat="47.88521125573769" lon="11.77463203295576"><ele>653.0</ele><time>2026-04-18T14:20:17Z</time></trkpt><trkpt lat="47.885103576082244" lon="11.774770981281108"><ele>653.0</ele><time>2026-04-18T14:20:18Z</time></trkpt><trkpt lat="47.88499553229171" lon="11.774910487439552"><ele>653.0</ele><time>2026-04-18T14:20:19Z</time></trkpt><trkpt lat="47.884886158628085" lon="11.775052765240117"><ele>653.3333333333333</ele><time>2026-04-18T14:20:20Z</time></trkpt><trkpt lat="47.88477834250622" lon="11.775197744261693"><ele>653.6666666666666</ele><time>2026-04-18T14:20:21Z</time></trkpt><trkpt lat="47.88466649267559" lon="11.775348512671906"><ele>654.0</ele><time>2026-04-18T14:20:22Z</time></trkpt><trkpt lat="47.884551035759245" lon="11.775502372712683"><ele>654.0</ele><time>2026-04-18T14:20:23Z</time></trkpt><trkpt lat="47.884432568648" lon="11.77565709240904"><ele>654.0</ele><time>2026-04-18T14:20:24Z</time></trkpt><trkpt lat="47.88430844980284" lon="11.775813052134604"><ele>654.0</ele><time>2026-04-18T14:20:25Z</time></trkpt><trkpt lat="47.88417748027409" lon="11.775962992914879"><ele>654.0</ele><time>2026-04-18T14:20:26Z</time></trkpt><trkpt lat="47.88403941358192" lon="11.77610251312311"><ele>654.0</ele><time>2026-04-18T14:20:27Z</time></trkpt><trkpt lat="47.883896719576754" lon="11.776234799427117"><ele>654.0</ele><time>2026-04-18T14:20:28Z</time></trkpt><trkpt lat="47.88375142530076" lon="11.776362838526195"><ele>654.0</ele><time>2026-04-18T14:20:29Z</time></trkpt><trkpt lat="47.88360534414884" lon="11.776489403509606"><ele>654.0</ele><time>2026-04-18T14:20:30Z</time></trkpt><trkpt lat="47.88346381185436" lon="11.776613002279847"><ele>654.0</ele><time>2026-04-18T14:20:31Z</time></trkpt><trkpt lat="47.88332540335712" lon="11.77673520704446"><ele>654.3333333333334</ele><time>2026-04-18T14:20:32Z</time></trkpt><trkpt lat="47.88318695048027" lon="11.77685120452259"><ele>654.6666666666667</ele><time>2026-04-18T14:20:33Z</time></trkpt><trkpt lat="47.883048687079466" lon="11.776961926833593"><ele>655.0</ele><time>2026-04-18T14:20:34Z</time></trkpt><trkpt lat="47.88291185072477" lon="11.777071874284758"><ele>655.0</ele><time>2026-04-18T14:20:35Z</time></trkpt><trkpt lat="47.882777681102105" lon="11.7771825796842"><ele>655.0</ele><time>2026-04-18T14:20:36Z</time></trkpt><trkpt lat="47.88263936015296" lon="11.777293092978686"><ele>655.0</ele><time>2026-04-18T14:20:37Z</time></trkpt><trkpt lat="47.88249938839465" lon="11.777404694786107"><ele>655.0</ele><time>2026-04-18T14:20:38Z</time></trkpt><trkpt lat="47.88235869666819" lon="11.77751662330799"><ele>655.0</ele><time>2026-04-18T14:20:39Z</time></trkpt><trkpt lat="47.882216316381886" lon="11.777636771649203"><ele>655.0</ele><time>2026-04-18T14:20:40Z</time></trkpt><trkpt lat="47.88206835750965" lon="11.777765389528993"><ele>655.0</ele><time>2026-04-18T14:20:41Z</time></trkpt><trkpt lat="47.8819190128266" lon="11.77789898319156"><ele>655.0</ele><time>2026-04-18T14:20:42Z</time></trkpt><trkpt lat="47.88176840960154" lon="11.778033446374758"><ele>655.0</ele><time>2026-04-18T14:20:43Z</time></trkpt><trkpt lat="47.88162690089516" lon="11.778162828595628"><ele>655.0</ele><time>2026-04-18T14:20:44Z</time></trkpt><trkpt lat="47.881490926322854" lon="11.778284005575243"><ele>655.0</ele><time>2026-04-18T14:20:45Z</time></trkpt><trkpt lat="47.88135965599757" lon="11.778411843550536"><ele>655.0</ele><time>2026-04-18T14:20:46Z</time></trkpt><trkpt lat="47.881229513769036" lon="11.778538456587373"><ele>654.6666666666667</ele><time>2026-04-18T14:20:47Z</time></trkpt><trkpt lat="47.88109949932796" lon="11.778661304191962"><ele>654.3333333333334</ele><time>2026-04-18T14:20:48Z</time></trkpt><trkpt lat="47.8809682897892" lon="11.778781924911662"><ele>654.0</ele><time>2026-04-18T14:20:49Z</time></trkpt><trkpt lat="47.88082786821449" lon="11.77890426693129"><ele>654.0</ele><time>2026-04-18T14:20:50Z</time></trkpt><trkpt lat="47.88068076514089" lon="11.779028537811579"><ele>654.0</ele><time>2026-04-18T14:20:51Z</time></trkpt><trkpt lat="47.88052515086174" lon="11.779137788266898"><ele>654.0</ele><time>2026-04-18T14:20:52Z</time></trkpt><trkpt lat="47.88036871836181" lon="11.77923734936522"><ele>654.0</ele><time>2026-04-18T14:20:53Z</time></trkpt><trkpt lat="47.88020585685018" lon="11.779340600618022"><ele>654.0</ele><time>2026-04-18T14:20:54Z</time></trkpt><trkpt lat="47.880050726363464" lon="11.779441206489789"><ele>654.0</ele><time>2026-04-18T14:20:55Z</time></trkpt><trkpt lat="47.87990302515424" lon="11.779547184530081"><ele>654.3333333333334</ele><time>2026-04-18T14:20:56Z</time></trkpt><trkpt lat="47.87976195238091" lon="11.77965270494646"><ele>654.6666666666667</ele><time>2026-04-18T14:20:57Z</time></trkpt><trkpt lat="47.87962146608013" lon="11.77975805153355"><ele>655.0</ele><time>2026-04-18T14:20:58Z</time></trkpt><trkpt lat="47.87948548191405" lon="11.779867613445077"><ele>655.0</ele><time>2026-04-18T14:20:59Z</time></trkpt><trkpt lat="47.87935429278976" lon="11.779978051429019"><ele>655.0</ele><time>2026-04-18T14:21:00Z</time></trkpt><trkpt lat="47.87922152218989" lon="11.780086240570247"><ele>655.0</ele><time>2026-04-18T14:21:01Z</time></trkpt><trkpt lat="47.879083242205006" lon="11.780193694741374"><ele>656.0</ele><time>2026-04-18T14:21:02Z</time></trkpt><trkpt lat="47.87894487525406" lon="11.780303286762784"><ele>657.0</ele><time>2026-04-18T14:21:03Z</time></trkpt><trkpt lat="47.878807081327054" lon="11.780416468898004"><ele>658.0</ele><time>2026-04-18T14:21:04Z</time></trkpt><trkpt lat="47.878667689359204" lon="11.78054242170436"><ele>658.0</ele><time>2026-04-18T14:21:05Z</time></trkpt><trkpt lat="47.87853340274542" lon="11.780687139348341"><ele>658.0</ele><time>2026-04-18T14:21:06Z</time></trkpt><trkpt lat="47.878406685941926" lon="11.78084382872405"><ele>658.0</ele><time>2026-04-18T14:21:07Z</time></trkpt><trkpt lat="47.878286906589196" lon="11.780998254177502"><ele>655.6666666666667</ele><time>2026-04-18T14:21:08Z</time></trkpt><trkpt lat="47.87816912592187" lon="11.781147024538576"><ele>653.3333333333334</ele><time>2026-04-18T14:21:09Z</time></trkpt><trkpt lat="47.87804704512506" lon="11.781293308319198"><ele>651.0</ele><time>2026-04-18T14:21:10Z</time></trkpt><trkpt lat="47.877911301217516" lon="11.781423883184152"><ele>651.0</ele><time>2026-04-18T14:21:11Z</time></trkpt><trkpt lat="47.877770986412926" lon="11.781553011949287"><ele>651.0</ele><time>2026-04-18T14:21:12Z</time></trkpt><trkpt lat="47.877629165762926" lon="11.781679817704559"><ele>651.0</ele><time>2026-04-18T14:21:13Z</time></trkpt><trkpt lat="47.87749154748408" lon="11.781798889652311"><ele>650.6666666666666</ele><time>2026-04-18T14:21:14Z</time></trkpt><trkpt lat="47.87735916893955" lon="11.781915603214454"><ele>650.3333333333333</ele><time>2026-04-18T14:21:15Z</time></trkpt><trkpt lat="47.87722808517318" lon="11.782029485234593"><ele>650.0</ele><time>2026-04-18T14:21:16Z</time></trkpt><trkpt lat="47.87709168201213" lon="11.782138787749338"><ele>650.0</ele><time>2026-04-18T14:21:17Z</time></trkpt><trkpt lat="47.87694748048682" lon="11.782248362068048"><ele>650.0</ele><time>2026-04-18T14:21:18Z</time></trkpt><trkpt lat="47.87679947297291" lon="11.782357904330036"><ele>650.0</ele><time>2026-04-18T14:21:19Z</time></trkpt><trkpt lat="47.87664826285591" lon="11.782471586920101"><ele>652.3333333333333</ele><time>2026-04-18T14:21:20Z</time></trkpt><trkpt lat="47.87649864248032" lon="11.782588424470593"><ele>654.6666666666666</ele><time>2026-04-18T14:21:21Z</time></trkpt><trkpt lat="47.87635139069986" lon="11.782703462983953"><ele>657.0</ele><time>2026-04-18T14:21:22Z</time></trkpt><trkpt lat="47.87620909875901" lon="11.782823158562698"><ele>657.0</ele><time>2026-04-18T14:21:23Z</time></trkpt><trkpt lat="47.876068796846404" lon="11.782943750685368"><ele>657.0</ele><time>2026-04-18T14:21:24Z</time></trkpt><trkpt lat="47.875928114579764" lon="11.78306622020278"><ele>657.0</ele><time>2026-04-18T14:21:25Z</time></trkpt><trkpt lat="47.87578814479839" lon="11.783194399616278"><ele>657.6666666666666</ele><time>2026-04-18T14:21:26Z</time></trkpt><trkpt lat="47.875648574377536" lon="11.783319872568118"><ele>658.3333333333333</ele><time>2026-04-18T14:21:27Z</time></trkpt><trkpt lat="47.87550970021135" lon="11.783437292868562"><ele>659.0</ele><time>2026-04-18T14:21:28Z</time></trkpt><trkpt lat="47.875371785724816" lon="11.783551983741553"><ele>658.6666666666666</ele><time>2026-04-18T14:21:29Z</time></trkpt><trkpt lat="47.87523731424243" lon="11.783668359413674"><ele>658.3333333333334</ele><time>2026-04-18T14:21:30Z</time></trkpt><trkpt lat="47.87509833077697" lon="11.783765506784324"><ele>658.0</ele><time>2026-04-18T14:21:31Z</time></trkpt><trkpt lat="47.874957755268916" lon="11.783849504178386"><ele>658.0</ele><time>2026-04-18T14:21:32Z</time></trkpt><trkpt lat="47.87481715255623" lon="11.783928659476224"><ele>658.0</ele><time>2026-04-18T14:21:33Z</time></trkpt><trkpt lat="47.87467817102461" lon="11.784002821213026"><ele>658.0</ele><time>2026-04-18T14:21:34Z</time></trkpt><trkpt lat="47.87453884221417" lon="11.784077355360195"><ele>658.0</ele><time>2026-04-18T14:21:35Z</time></trkpt><trkpt lat="47.87439352295697" lon="11.784155684630285"><ele>657.6666666666667</ele><time>2026-04-18T14:21:36Z</time></trkpt><trkpt lat="47.87423488565232" lon="11.784238576123723"><ele>657.3333333333334</ele><time>2026-04-18T14:21:37Z</time></trkpt><trkpt lat="47.87409012453354" lon="11.784315218841156"><ele>657.0</ele><time>2026-04-18T14:21:38Z</time></trkpt><trkpt lat="47.873955505372145" lon="11.784388658826362"><ele>656.5</ele><time>2026-04-18T14:21:39Z</time></trkpt><trkpt lat="47.87382364107242" lon="11.784461794729694"><ele>656.0</ele><time>2026-04-18T14:21:40Z</time></trkpt><trkpt lat="47.87368770311912" lon="11.784533192591443"><ele>655.5</ele><time>2026-04-18T14:21:41Z</time></trkpt><trkpt lat="47.8735461678861" lon="11.784607994226432"><ele>655.0</ele><time>2026-04-18T14:21:42Z</time></trkpt><trkpt lat="47.87341096784081" lon="11.78468112702935"><ele>655.0</ele><time>2026-04-18T14:21:43Z</time></trkpt><trkpt lat="47.8732922667942" lon="11.784744642636397"><ele>655.0</ele><time>2026-04-18T14:21:44Z</time></trkpt><trkpt lat="47.87319075504249" lon="11.784798280074838"><ele>655.0</ele><time>2026-04-18T14:21:45Z</time></trkpt><trkpt lat="47.87310303327454" lon="11.784846604902938"><ele>655.0</ele><time>2026-04-18T14:21:46Z</time></trkpt><trkpt lat="47.87302540500339" lon="11.784889796739659"><ele>655.0</ele><time>2026-04-18T14:21:47Z</time></trkpt><trkpt lat="47.87295532263114" lon="11.784924974896665"><ele>655.0</ele><time>2026-04-18T14:21:48Z</time></trkpt><trkpt lat="47.8728458098387" lon="11.784946590101734"><ele>655.0</ele><time>2026-04-18T14:21:50Z</time></trkpt><trkpt lat="47.87274168964914" lon="11.784928984494375"><ele>655.0</ele><time>2026-04-18T14:21:52Z</time></trkpt><trkpt lat="47.872639714046414" lon="11.784952099569214"><ele>655.0</ele><time>2026-04-18T14:21:54Z</time></trkpt><trkpt lat="47.872607405523375" lon="11.78507051166847"><ele>655.0</ele><time>2026-04-18T14:21:55Z</time></trkpt><trkpt lat="47.872569739480625" lon="11.785159023976709"><ele>652.4</ele><time>2026-04-18T14:21:56Z</time></trkpt><trkpt lat="47.87251362975661" lon="11.785233389532705"><ele>649.8</ele><time>2026-04-18T14:21:57Z</time></trkpt><trkpt lat="47.87242820579743" lon="11.7853068871356"><ele>647.2</ele><time>2026-04-18T14:21:58Z</time></trkpt><trkpt lat="47.87232247458525" lon="11.785356969104887"><ele>644.6</ele><time>2026-04-18T14:21:59Z</time></trkpt><trkpt lat="47.87221945269696" lon="11.785404366352251"><ele>642.0</ele><time>2026-04-18T14:22:00Z</time></trkpt><trkpt lat="47.872116403237115" lon="11.785436680275398"><ele>642.0</ele><time>2026-04-18T14:22:01Z</time></trkpt><trkpt lat="47.872017295359065" lon="11.785459452294631"><ele>642.0</ele><time>2026-04-18T14:22:02Z</time></trkpt><trkpt lat="47.8719248692957" lon="11.785487385120408"><ele>642.0</ele><time>2026-04-18T14:22:03Z</time></trkpt><trkpt lat="47.87183636831924" lon="11.785524608525595"><ele>642.0</ele><time>2026-04-18T14:22:04Z</time></trkpt><trkpt lat="47.871752792316244" lon="11.785578640197608"><ele>642.0</ele><time>2026-04-18T14:22:05Z</time></trkpt><trkpt lat="47.87168396256184" lon="11.78562713101049"><ele>642.2</ele><time>2026-04-18T14:22:06Z</time></trkpt><trkpt lat="47.871599366556765" lon="11.785679603926459"><ele>642.4000000000001</ele><time>2026-04-18T14:22:07Z</time></trkpt><trkpt lat="47.87150365819759" lon="11.78571477390562"><ele>642.5999999999999</ele><time>2026-04-18T14:22:08Z</time></trkpt><trkpt lat="47.87139646356255" lon="11.785732935383031"><ele>642.8</ele><time>2026-04-18T14:22:09Z</time></trkpt><trkpt lat="47.871282229173765" lon="11.78573587799988"><ele>643.0</ele><time>2026-04-18T14:22:10Z</time></trkpt><trkpt lat="47.871179073326466" lon="11.785713970122506"><ele>643.0</ele><time>2026-04-18T14:22:11Z</time></trkpt><trkpt lat="47.87108290379241" lon="11.785696388298303"><ele>643.0</ele><time>2026-04-18T14:22:12Z</time></trkpt><trkpt lat="47.87098455320808" lon="11.785710896957903"><ele>643.0</ele><time>2026-04-18T14:22:13Z</time></trkpt><trkpt lat="47.87089000801818" lon="11.785741292697663"><ele>643.0</ele><time>2026-04-18T14:22:14Z</time></trkpt><trkpt lat="47.870792105110056" lon="11.785775158128295"><ele>643.0</ele><time>2026-04-18T14:22:15Z</time></trkpt><trkpt lat="47.8706888383416" lon="11.785815519224743"><ele>642.1999999999999</ele><time>2026-04-18T14:22:16Z</time></trkpt><trkpt lat="47.87058814060893" lon="11.785857935945518"><ele>641.4</ele><time>2026-04-18T14:22:17Z</time></trkpt><trkpt lat="47.87049325205139" lon="11.78589557363115"><ele>640.5999999999999</ele><time>2026-04-18T14:22:18Z</time></trkpt><trkpt lat="47.87039955656159" lon="11.785932659143013"><ele>639.8</ele><time>2026-04-18T14:22:19Z</time></trkpt><trkpt lat="47.87029923603293" lon="11.785963569367283"><ele>639.0</ele><time>2026-04-18T14:22:20Z</time></trkpt><trkpt lat="47.8701971085517" lon="11.785994885281477"><ele>635.2</ele><time>2026-04-18T14:22:21Z</time></trkpt><trkpt lat="47.870089639445055" lon="11.786015497236185"><ele>631.4</ele><time>2026-04-18T14:22:22Z</time></trkpt><trkpt lat="47.86998390639659" lon="11.786029949911011"><ele>627.6</ele><time>2026-04-18T14:22:23Z</time></trkpt><trkpt lat="47.86988200752372" lon="11.786040253396239"><ele>623.8</ele><time>2026-04-18T14:22:24Z</time></trkpt><trkpt lat="47.869781911091" lon="11.786056530144592"><ele>620.0</ele><time>2026-04-18T14:22:25Z</time></trkpt><trkpt lat="47.86968374190188" lon="11.786067703521848"><ele>620.0</ele><time>2026-04-18T14:22:26Z</time></trkpt><trkpt lat="47.86958356342719" lon="11.786067594431525"><ele>620.0</ele><time>2026-04-18T14:22:27Z</time></trkpt><trkpt lat="47.86948030531588" lon="11.786053211934039"><ele>620.0</ele><time>2026-04-18T14:22:28Z</time></trkpt><trkpt lat="47.86936268472685" lon="11.786024036175265"><ele>620.0</ele><time>2026-04-18T14:22:29Z</time></trkpt><trkpt lat="47.86923848735677" lon="11.785978849192546"><ele>623.0</ele><time>2026-04-18T14:22:30Z</time></trkpt><trkpt lat="47.869121370032175" lon="11.785933850430007"><ele>626.0</ele><time>2026-04-18T14:22:31Z</time></trkpt><trkpt lat="47.86901363437664" lon="11.78588619624111"><ele>629.0</ele><time>2026-04-18T14:22:32Z</time></trkpt><trkpt lat="47.86890405338675" lon="11.78584141083162"><ele>632.0</ele><time>2026-04-18T14:22:33Z</time></trkpt><trkpt lat="47.86878969729801" lon="11.7857979770424"><ele>632.0</ele><time>2026-04-18T14:22:34Z</time></trkpt><trkpt lat="47.868659423663466" lon="11.785778603544598"><ele>632.0</ele><time>2026-04-18T14:22:35Z</time></trkpt><trkpt lat="47.868524182551724" lon="11.785781179326396"><ele>632.0</ele><time>2026-04-18T14:22:36Z</time></trkpt><trkpt lat="47.868389727559816" lon="11.785799193472846"><ele>632.0</ele><time>2026-04-18T14:22:37Z</time></trkpt><trkpt lat="47.86826582573672" lon="11.785805696267094"><ele>629.75</ele><time>2026-04-18T14:22:38Z</time></trkpt><trkpt lat="47.868147065723804" lon="11.785811463704993"><ele>627.5</ele><time>2026-04-18T14:22:39Z</time></trkpt><trkpt lat="47.868031416540916" lon="11.785802477131712"><ele>625.25</ele><time>2026-04-18T14:22:40Z</time></trkpt><trkpt lat="47.86791751105894" lon="11.785783074534942"><ele>623.0</ele><time>2026-04-18T14:22:41Z</time></trkpt><trkpt lat="47.867803913471676" lon="11.785754451528977"><ele>623.0</ele><time>2026-04-18T14:22:42Z</time></trkpt><trkpt lat="47.8676859348593" lon="11.785725328576529"><ele>623.0</ele><time>2026-04-18T14:22:43Z</time></trkpt><trkpt lat="47.86756434264117" lon="11.785690061640151"><ele>623.0</ele><time>2026-04-18T14:22:44Z</time></trkpt><trkpt lat="47.86744773998405" lon="11.78565583645042"><ele>623.0</ele><time>2026-04-18T14:22:45Z</time></trkpt><trkpt lat="47.86733302043101" lon="11.78561537439178"><ele>621.25</ele><time>2026-04-18T14:22:46Z</time></trkpt><trkpt lat="47.86721517294421" lon="11.78558462463395"><ele>619.5</ele><time>2026-04-18T14:22:47Z</time></trkpt><trkpt lat="47.8670971642717" lon="11.785560706250434"><ele>617.75</ele><time>2026-04-18T14:22:48Z</time></trkpt><trkpt lat="47.86697980954024" lon="11.785544361359749"><ele>616.0</ele><time>2026-04-18T14:22:49Z</time></trkpt><trkpt lat="47.8668612092313" lon="11.78554433809499"><ele>615.0</ele><time>2026-04-18T14:22:50Z</time></trkpt><trkpt lat="47.86674233289418" lon="11.785561497920916"><ele>614.0</ele><time>2026-04-18T14:22:51Z</time></trkpt><trkpt lat="47.86662754611754" lon="11.785587393810461"><ele>613.0</ele><time>2026-04-18T14:22:52Z</time></trkpt><trkpt lat="47.86651594428015" lon="11.785617779361834"><ele>612.0</ele><time>2026-04-18T14:22:53Z</time></trkpt><trkpt lat="47.86640753704305" lon="11.785659528537982"><ele>612.0</ele><time>2026-04-18T14:22:54Z</time></trkpt><trkpt lat="47.866303754026546" lon="11.78570427514189"><ele>612.0</ele><time>2026-04-18T14:22:55Z</time></trkpt><trkpt lat="47.86620498373447" lon="11.785750255305109"><ele>612.0</ele><time>2026-04-18T14:22:56Z</time></trkpt><trkpt lat="47.86610636554233" lon="11.78579627257854"><ele>612.0</ele><time>2026-04-18T14:22:57Z</time></trkpt><trkpt lat="47.86600569540661" lon="11.785817451143224"><ele>612.0</ele><time>2026-04-18T14:22:58Z</time></trkpt><trkpt lat="47.86591482736017" lon="11.785888415106324"><ele>612.2</ele><time>2026-04-18T14:22:59Z</time></trkpt><trkpt lat="47.86582179213623" lon="11.785944196729911"><ele>612.4000000000001</ele><time>2026-04-18T14:23:00Z</time></trkpt><trkpt lat="47.865727979317995" lon="11.785995412835351"><ele>612.5999999999999</ele><time>2026-04-18T14:23:00.999Z</time></trkpt><trkpt lat="47.86564012092845" lon="11.786071395782283"><ele>612.8</ele><time>2026-04-18T14:23:01.999Z</time></trkpt><trkpt lat="47.865561151141236" lon="11.78617507324925"><ele>613.0</ele><time>2026-04-18T14:23:02.999Z</time></trkpt><trkpt lat="47.86547496156222" lon="11.786269944364884"><ele>613.0</ele><time>2026-04-18T14:23:03.999Z</time></trkpt><trkpt lat="47.86539082642621" lon="11.78637267526873"><ele>613.0</ele><time>2026-04-18T14:23:04.999Z</time></trkpt><trkpt lat="47.86529667997983" lon="11.78649616348956"><ele>613.0</ele><time>2026-04-18T14:23:05.998Z</time></trkpt><trkpt lat="47.865223211204764" lon="11.786620070897996"><ele>613.0</ele><time>2026-04-18T14:23:06.998Z</time></trkpt><trkpt lat="47.86515788199199" lon="11.78674002868046"><ele>613.0</ele><time>2026-04-18T14:23:07.998Z</time></trkpt><trkpt lat="47.865083575206036" lon="11.786854648084253"><ele>612.0</ele><time>2026-04-18T14:23:08.998Z</time></trkpt><trkpt lat="47.86502388240949" lon="11.786989847340863"><ele>611.0</ele><time>2026-04-18T14:23:09.998Z</time></trkpt><trkpt lat="47.8649676150963" lon="11.787126883294821"><ele>610.0</ele><time>2026-04-18T14:23:10.998Z</time></trkpt><trkpt lat="47.864911491521354" lon="11.787261886720794"><ele>609.0</ele><time>2026-04-18T14:23:11.998Z</time></trkpt><trkpt lat="47.86485533203364" lon="11.78739315218451"><ele>608.0</ele><time>2026-04-18T14:23:12.997Z</time></trkpt><trkpt lat="47.86480926356959" lon="11.787525254213785"><ele>608.0</ele><time>2026-04-18T14:23:13.997Z</time></trkpt><trkpt lat="47.86474582712874" lon="11.787639733201564"><ele>608.0</ele><time>2026-04-18T14:23:14.997Z</time></trkpt><trkpt lat="47.86467632775261" lon="11.787744412500706"><ele>608.0</ele><time>2026-04-18T14:23:15.997Z</time></trkpt><trkpt lat="47.86459475644352" lon="11.787844318465249"><ele>608.0</ele><time>2026-04-18T14:23:16.997Z</time></trkpt><trkpt lat="47.86449512223652" lon="11.787945450722319"><ele>608.0</ele><time>2026-04-18T14:23:17.997Z</time></trkpt><trkpt lat="47.86438147781295" lon="11.788010289772517"><ele>611.0</ele><time>2026-04-18T14:23:18.997Z</time></trkpt><trkpt lat="47.86427707530329" lon="11.78808479562695"><ele>614.0</ele><time>2026-04-18T14:23:19.997Z</time></trkpt><trkpt lat="47.86417990156084" lon="11.788153003115315"><ele>617.0</ele><time>2026-04-18T14:23:20.997Z</time></trkpt><trkpt lat="47.8640847842153" lon="11.78821976717452"><ele>620.0</ele><time>2026-04-18T14:23:21.997Z</time></trkpt><trkpt lat="47.86399023379889" lon="11.788288524618084"><ele>623.0</ele><time>2026-04-18T14:23:22.997Z</time></trkpt><trkpt lat="47.863894799578944" lon="11.788365869099918"><ele>623.0</ele><time>2026-04-18T14:23:23.997Z</time></trkpt><trkpt lat="47.86379926559166" lon="11.788447871392696"><ele>623.0</ele><time>2026-04-18T14:23:24.997Z</time></trkpt><trkpt lat="47.86370971922552" lon="11.78852696118716"><ele>623.0</ele><time>2026-04-18T14:23:25.996Z</time></trkpt><trkpt lat="47.86361646136969" lon="11.788601497381936"><ele>623.0</ele><time>2026-04-18T14:23:26.996Z</time></trkpt><trkpt lat="47.86352213183754" lon="11.788697675580828"><ele>623.0</ele><time>2026-04-18T14:23:27.996Z</time></trkpt><trkpt lat="47.8634165258264" lon="11.788786505389371"><ele>624.4</ele><time>2026-04-18T14:23:28.996Z</time></trkpt><trkpt lat="47.86332448727693" lon="11.788891205667902"><ele>625.8</ele><time>2026-04-18T14:23:29.996Z</time></trkpt><trkpt lat="47.86324679275383" lon="11.788999535520661"><ele>627.2</ele><time>2026-04-18T14:23:30.996Z</time></trkpt><trkpt lat="47.863168227373144" lon="11.78909481204038"><ele>628.6</ele><time>2026-04-18T14:23:31.996Z</time></trkpt><trkpt lat="47.86310578513195" lon="11.789210782156733"><ele>630.0</ele><time>2026-04-18T14:23:32.996Z</time></trkpt><trkpt lat="47.86304707070822" lon="11.789342465999749"><ele>636.25</ele><time>2026-04-18T14:23:33.996Z</time></trkpt><trkpt lat="47.86300639392805" lon="11.789498711774195"><ele>642.5</ele><time>2026-04-18T14:23:34.996Z</time></trkpt><trkpt lat="47.86295283301843" lon="11.789656811699649"><ele>648.75</ele><time>2026-04-18T14:23:35.996Z</time></trkpt><trkpt lat="47.862897182065375" lon="11.789819340037477"><ele>655.0</ele><time>2026-04-18T14:23:36.996Z</time></trkpt><trkpt lat="47.862846196707274" lon="11.78996389804638"><ele>655.0</ele><time>2026-04-18T14:23:37.996Z</time></trkpt><trkpt lat="47.8627919634193" lon="11.790108283672566"><ele>655.0</ele><time>2026-04-18T14:23:38.996Z</time></trkpt><trkpt lat="47.862732250467865" lon="11.790253310671343"><ele>655.0</ele><time>2026-04-18T14:23:39.996Z</time></trkpt><trkpt lat="47.862663434453545" lon="11.790397165351633"><ele>655.0</ele><time>2026-04-18T14:23:40.996Z</time></trkpt><trkpt lat="47.86260163181091" lon="11.790532285855063"><ele>654.8</ele><time>2026-04-18T14:23:41.996Z</time></trkpt><trkpt lat="47.86255133632385" lon="11.790662202084846"><ele>654.6</ele><time>2026-04-18T14:23:42.996Z</time></trkpt><trkpt lat="47.86250413799843" lon="11.790793530957757"><ele>654.4000000000001</ele><time>2026-04-18T14:23:43.996Z</time></trkpt><trkpt lat="47.86245779157196" lon="11.790934591777601"><ele>654.2</ele><time>2026-04-18T14:23:44.996Z</time></trkpt><trkpt lat="47.86241685575278" lon="11.791086007746523"><ele>654.0</ele><time>2026-04-18T14:23:45.996Z</time></trkpt><trkpt lat="47.86237520457631" lon="11.79124305327218"><ele>656.2</ele><time>2026-04-18T14:23:46.996Z</time></trkpt><trkpt lat="47.8623374174579" lon="11.791383265054739"><ele>658.4000000000001</ele><time>2026-04-18T14:23:47.996Z</time></trkpt><trkpt lat="47.86229853487644" lon="11.791505336086788"><ele>660.6</ele><time>2026-04-18T14:23:48.996Z</time></trkpt><trkpt lat="47.86226050858906" lon="11.791615950842187"><ele>662.8</ele><time>2026-04-18T14:23:49.996Z</time></trkpt><trkpt lat="47.86221869020486" lon="11.791739429636792"><ele>665.0</ele><time>2026-04-18T14:23:50.996Z</time></trkpt><trkpt lat="47.86217352108104" lon="11.79188331294263"><ele>666.0</ele><time>2026-04-18T14:23:51.996Z</time></trkpt><trkpt lat="47.86211797130983" lon="11.792031789900257"><ele>667.0</ele><time>2026-04-18T14:23:52.996Z</time></trkpt><trkpt lat="47.86204918753921" lon="11.792168758848957"><ele>668.0</ele><time>2026-04-18T14:23:53.996Z</time></trkpt><trkpt lat="47.86198184667429" lon="11.792278766937619"><ele>669.0</ele><time>2026-04-18T14:23:54.996Z</time></trkpt><trkpt lat="47.861916538894604" lon="11.792382491710047"><ele>670.0</ele><time>2026-04-18T14:23:55.996Z</time></trkpt><trkpt lat="47.86185675285747" lon="11.792501152484189"><ele>670.0</ele><time>2026-04-18T14:23:56.996Z</time></trkpt><trkpt lat="47.86181666925149" lon="11.792627505510062"><ele>670.0</ele><time>2026-04-18T14:23:57.996Z</time></trkpt><trkpt lat="47.861787483793904" lon="11.792778504442513"><ele>670.0</ele><time>2026-04-18T14:23:58.996Z</time></trkpt><trkpt lat="47.86176183089811" lon="11.792930027243452"><ele>670.0</ele><time>2026-04-18T14:23:59.996Z</time></trkpt><trkpt lat="47.86174711998144" lon="11.793077407268726"><ele>670.0</ele><time>2026-04-18T14:24:00.996Z</time></trkpt><trkpt lat="47.86174355731621" lon="11.7932151101127"><ele>670.0</ele><time>2026-04-18T14:24:01.996Z</time></trkpt><trkpt lat="47.86174399787806" lon="11.793329304015135"><ele>670.0</ele><time>2026-04-18T14:24:02.996Z</time></trkpt><trkpt lat="47.86174984489713" lon="11.793447540340592"><ele>670.0</ele><time>2026-04-18T14:24:03.996Z</time></trkpt><trkpt lat="47.861764493017866" lon="11.793576918948341"><ele>670.0</ele><time>2026-04-18T14:24:04.996Z</time></trkpt><trkpt lat="47.86178362195261" lon="11.793726462657064"><ele>670.0</ele><time>2026-04-18T14:24:05.996Z</time></trkpt><trkpt lat="47.86180031611164" lon="11.793878093945603"><ele>670.0</ele><time>2026-04-18T14:24:06.996Z</time></trkpt><trkpt lat="47.86181268057284" lon="11.79400160781056"><ele>669.6</ele><time>2026-04-18T14:24:07.996Z</time></trkpt><trkpt lat="47.86182307508793" lon="11.794107911268261"><ele>669.2</ele><time>2026-04-18T14:24:08.996Z</time></trkpt><trkpt lat="47.86183022639673" lon="11.79420277150318"><ele>668.8</ele><time>2026-04-18T14:24:09.996Z</time></trkpt><trkpt lat="47.86184615367424" lon="11.794343471937578"><ele>668.4</ele><time>2026-04-18T14:24:11.996Z</time></trkpt><trkpt lat="47.86198506716124" lon="11.794289023837385"><ele>668.0</ele><time>2026-04-18T14:24:14.996Z</time></trkpt><trkpt lat="47.86205636988216" lon="11.794227923519465"><ele>668.0</ele><time>2026-04-18T14:24:15.996Z</time></trkpt><trkpt lat="47.86212889452345" lon="11.794181263632726"><ele>668.0</ele><time>2026-04-18T14:24:16.996Z</time></trkpt><trkpt lat="47.86220099588265" lon="11.794134126130404"><ele>668.0</ele><time>2026-04-18T14:24:17.996Z</time></trkpt><trkpt lat="47.86229411290036" lon="11.794067405251532"><ele>668.0</ele><time>2026-04-18T14:24:18.996Z</time></trkpt><trkpt lat="47.86239075100746" lon="11.793998907716565"><ele>668.0</ele><time>2026-04-18T14:24:19.996Z</time></trkpt><trkpt lat="47.86248005668567" lon="11.793944602475761"><ele>668.0</ele><time>2026-04-18T14:24:20.996Z</time></trkpt><trkpt lat="47.86256459820621" lon="11.793887559151454"><ele>668.0</ele><time>2026-04-18T14:24:21.996Z</time></trkpt><trkpt lat="47.86265327669043" lon="11.793824517029103"><ele>668.0</ele><time>2026-04-18T14:24:22.996Z</time></trkpt><trkpt lat="47.86273958207556" lon="11.79376459280553"><ele>668.0</ele><time>2026-04-18T14:24:23.996Z</time></trkpt><trkpt lat="47.86281845006452" lon="11.793714713742403"><ele>668.0</ele><time>2026-04-18T14:24:24.996Z</time></trkpt><trkpt lat="47.862894974387196" lon="11.793661836778762"><ele>667.8333333333333</ele><time>2026-04-18T14:24:25.996Z</time></trkpt><trkpt lat="47.8629755087094" lon="11.793607180900592"><ele>667.6666666666666</ele><time>2026-04-18T14:24:26.996Z</time></trkpt><trkpt lat="47.863062428148005" lon="11.793554261690556"><ele>667.5</ele><time>2026-04-18T14:24:27.995Z</time></trkpt><trkpt lat="47.86314576622165" lon="11.793498055024925"><ele>667.3333333333334</ele><time>2026-04-18T14:24:28.995Z</time></trkpt><trkpt lat="47.86321926096325" lon="11.79344429024659"><ele>667.1666666666667</ele><time>2026-04-18T14:24:29.995Z</time></trkpt><trkpt lat="47.863286402947374" lon="11.793394945191832"><ele>667.0</ele><time>2026-04-18T14:24:30.995Z</time></trkpt><trkpt lat="47.863354283583995" lon="11.79335928838416"><ele>667.0000000000001</ele><time>2026-04-18T14:24:31.995Z</time></trkpt><trkpt lat="47.86340430571032" lon="11.79327495064574"><ele>667.0</ele><time>2026-04-18T14:24:32.995Z</time></trkpt><trkpt lat="47.86344464430383" lon="11.793185130029247"><ele>667.0</ele><time>2026-04-18T14:24:33.995Z</time></trkpt><trkpt lat="47.86347505020232" lon="11.79307201702316"><ele>667.0</ele><time>2026-04-18T14:24:34.995Z</time></trkpt><trkpt lat="47.86350378544651" lon="11.792956621595556"><ele>667.0</ele><time>2026-04-18T14:24:35.995Z</time></trkpt><trkpt lat="47.8635270860635" lon="11.792859264177089"><ele>667.0000000000001</ele><time>2026-04-18T14:24:36.995Z</time></trkpt><trkpt lat="47.86356161271635" lon="11.792778764511747"><ele>667.0</ele><time>2026-04-18T14:24:37.995Z</time></trkpt><trkpt lat="47.863610650161846" lon="11.792709855140897"><ele>666.8</ele><time>2026-04-18T14:24:38.995Z</time></trkpt><trkpt lat="47.86367620822068" lon="11.792642171376219"><ele>666.6</ele><time>2026-04-18T14:24:39.995Z</time></trkpt><trkpt lat="47.86375869786306" lon="11.792587647974559"><ele>666.4</ele><time>2026-04-18T14:24:40.995Z</time></trkpt><trkpt lat="47.8638504597435" lon="11.792534231352118"><ele>666.1999999999999</ele><time>2026-04-18T14:24:41.995Z</time></trkpt><trkpt lat="47.86394620852264" lon="11.792469264762296"><ele>666.0</ele><time>2026-04-18T14:24:42.995Z</time></trkpt><trkpt lat="47.86403734831104" lon="11.792408664176563"><ele>666.0</ele><time>2026-04-18T14:24:43.995Z</time></trkpt><trkpt lat="47.86413093088523" lon="11.792349064348295"><ele>666.0</ele><time>2026-04-18T14:24:44.995Z</time></trkpt><trkpt lat="47.86421798571924" lon="11.792289872033567"><ele>666.0</ele><time>2026-04-18T14:24:45.995Z</time></trkpt><trkpt lat="47.86430318442986" lon="11.792234074423957"><ele>666.0</ele><time>2026-04-18T14:24:46.995Z</time></trkpt><trkpt lat="47.86438933556779" lon="11.792179963635395"><ele>666.0</ele><time>2026-04-18T14:24:47.995Z</time></trkpt><trkpt lat="47.86447314127109" lon="11.792131121893968"><ele>666.1428571428572</ele><time>2026-04-18T14:24:48.995Z</time></trkpt><trkpt lat="47.864558363785115" lon="11.79207589299404"><ele>666.2857142857142</ele><time>2026-04-18T14:24:49.995Z</time></trkpt><trkpt lat="47.86463713196138" lon="11.792022025261064"><ele>666.4285714285714</ele><time>2026-04-18T14:24:50.995Z</time></trkpt><trkpt lat="47.86470083362681" lon="11.791979959791965"><ele>666.5714285714287</ele><time>2026-04-18T14:24:51.995Z</time></trkpt><trkpt lat="47.86476085748711" lon="11.791944603669153"><ele>666.7142857142858</ele><time>2026-04-18T14:24:52.996Z</time></trkpt><trkpt lat="47.86482148709792" lon="11.791907897691173"><ele>666.8571428571429</ele><time>2026-04-18T14:24:53.996Z</time></trkpt><trkpt lat="47.864881853392156" lon="11.791866162776078"><ele>667.0</ele><time>2026-04-18T14:24:54.996Z</time></trkpt><trkpt lat="47.86497401837002" lon="11.79180222207078"><ele>667.0</ele><time>2026-04-18T14:24:56.997Z</time></trkpt><trkpt lat="47.86504768785609" lon="11.791798127492704"><ele>667.0</ele><time>2026-04-18T14:24:58.997Z</time></trkpt><trkpt lat="47.86508686646202" lon="11.791946692512328"><ele>667.0</ele><time>2026-04-18T14:25:01.998Z</time></trkpt><trkpt lat="47.8650991105679" lon="11.792087728062864"><ele>667.0</ele><time>2026-04-18T14:25:03.998Z</time></trkpt><trkpt lat="47.86510693867823" lon="11.792208498371872"><ele>667.0</ele><time>2026-04-18T14:25:05.998Z</time></trkpt><trkpt lat="47.86515487446289" lon="11.792273205907325"><ele>667.0</ele><time>2026-04-18T14:25:07.998Z</time></trkpt><trkpt lat="47.865243673417034" lon="11.79225371649246"><ele>669.1666666666667</ele><time>2026-04-18T14:25:10.998Z</time></trkpt><trkpt lat="47.86534260176396" lon="11.792209747449064"><ele>671.3333333333334</ele><time>2026-04-18T14:25:12.999Z</time></trkpt><trkpt lat="47.86541588542338" lon="11.792146800991208"><ele>673.5</ele><time>2026-04-18T14:25:14.999Z</time></trkpt><trkpt lat="47.86546647076922" lon="11.792090682300177"><ele>675.6666666666666</ele><time>2026-04-18T14:25:16.999Z</time></trkpt><trkpt lat="47.86552969263926" lon="11.79209190522193"><ele>677.8333333333333</ele><time>2026-04-18T14:25:18.999Z</time></trkpt><trkpt lat="47.86555285950852" lon="11.791953210588053"><ele>680.0</ele><time>2026-04-18T15:02:21.999Z</time></trkpt><trkpt lat="47.86548909423328" lon="11.791924293980284"><ele>680.0</ele><time>2026-04-18T15:02:31.999Z</time></trkpt><trkpt lat="47.86553442591831" lon="11.791996864726284"><ele>680.0</ele><time>2026-04-18T15:08:37.999Z</time></trkpt><trkpt lat="47.86544447647483" lon="11.792037184165258"><ele>680.0</ele><time>2026-04-18T15:11:51.999Z</time></trkpt><trkpt lat="47.86537755299596" lon="11.792100066695205"><ele>680.0</ele><time>2026-04-18T15:11:53.999Z</time></trkpt><trkpt lat="47.86531108246611" lon="11.792143398126491"><ele>680.0</ele><time>2026-04-18T15:11:55.999Z</time></trkpt><trkpt lat="47.86524519869175" lon="11.792174445841892"><ele>680.0</ele><time>2026-04-18T15:11:57.999Z</time></trkpt><trkpt lat="47.86519191755816" lon="11.792243252270412"><ele>680.0</ele><time>2026-04-18T15:11:59.999Z</time></trkpt><trkpt lat="47.86513482884035" lon="11.792156348417336"><ele>680.0</ele><time>2026-04-18T15:12:01.999Z</time></trkpt><trkpt lat="47.865118953183725" lon="11.792040755046656"><ele>680.0</ele><time>2026-04-18T15:12:03.999Z</time></trkpt><trkpt lat="47.86512291479544" lon="11.791920100673812"><ele>680.0</ele><time>2026-04-18T15:12:06.999Z</time></trkpt><trkpt lat="47.86512341781255" lon="11.791799778733923"><ele>680.0</ele><time>2026-04-18T15:12:09.999Z</time></trkpt><trkpt lat="47.86507086034335" lon="11.791747470381969"><ele>680.0</ele><time>2026-04-18T15:12:11.999Z</time></trkpt><trkpt lat="47.86499444022448" lon="11.79177816465341"><ele>677.4</ele><time>2026-04-18T15:12:13.999Z</time></trkpt><trkpt lat="47.864897116584615" lon="11.79183680056038"><ele>674.8</ele><time>2026-04-18T15:12:15.999Z</time></trkpt><trkpt lat="47.86481652359742" lon="11.791885549680481"><ele>672.2</ele><time>2026-04-18T15:12:17.999Z</time></trkpt><trkpt lat="47.86470818649639" lon="11.791949550781746"><ele>669.6</ele><time>2026-04-18T15:12:19.999Z</time></trkpt><trkpt lat="47.864628039679864" lon="11.792005487180141"><ele>667.0</ele><time>2026-04-18T15:12:20.999Z</time></trkpt><trkpt lat="47.86455624790876" lon="11.792053073237092"><ele>667.0</ele><time>2026-04-18T15:12:21.999Z</time></trkpt><trkpt lat="47.864484996669844" lon="11.792091947056234"><ele>667.0</ele><time>2026-04-18T15:12:22.999Z</time></trkpt><trkpt lat="47.864413514194084" lon="11.792129286240918"><ele>667.0</ele><time>2026-04-18T15:12:23.999Z</time></trkpt><trkpt lat="47.86433902213258" lon="11.79217106873757"><ele>667.0</ele><time>2026-04-18T15:12:24.999Z</time></trkpt><trkpt lat="47.86426401122962" lon="11.792219912917544"><ele>667.0</ele><time>2026-04-18T15:12:25.999Z</time></trkpt><trkpt lat="47.86418969910619" lon="11.79226818270601"><ele>667.0</ele><time>2026-04-18T15:12:26.999Z</time></trkpt><trkpt lat="47.86410961964978" lon="11.792312035986166"><ele>666.8333333333334</ele><time>2026-04-18T15:12:27.999Z</time></trkpt><trkpt lat="47.8640298282869" lon="11.792362124487296"><ele>666.6666666666667</ele><time>2026-04-18T15:12:28.999Z</time></trkpt><trkpt lat="47.86395186651272" lon="11.792417357835221"><ele>666.5</ele><time>2026-04-18T15:12:29.999Z</time></trkpt><trkpt lat="47.86386925870715" lon="11.792475847084278"><ele>666.3333333333334</ele><time>2026-04-18T15:12:30.999Z</time></trkpt><trkpt lat="47.86379265831567" lon="11.792526846488002"><ele>666.1666666666666</ele><time>2026-04-18T15:12:31.999Z</time></trkpt><trkpt lat="47.863730497911924" lon="11.79256760179567"><ele>666.0</ele><time>2026-04-18T15:12:32.999Z</time></trkpt><trkpt lat="47.86362797600335" lon="11.792628951044865"><ele>666.1666666666666</ele><time>2026-04-18T15:12:34.999Z</time></trkpt><trkpt lat="47.86353668966628" lon="11.792725896636407"><ele>666.3333333333334</ele><time>2026-04-18T15:12:36.999Z</time></trkpt><trkpt lat="47.86351475881443" lon="11.792824796425213"><ele>666.5</ele><time>2026-04-18T15:12:37.999Z</time></trkpt><trkpt lat="47.86349383323863" lon="11.792948901383376"><ele>666.6666666666667</ele><time>2026-04-18T15:12:38.999Z</time></trkpt><trkpt lat="47.86346895631495" lon="11.793052573270817"><ele>666.8333333333334</ele><time>2026-04-18T15:12:39.999Z</time></trkpt><trkpt lat="47.86343638555309" lon="11.79313643360401"><ele>667.0</ele><time>2026-04-18T15:12:40.999Z</time></trkpt><trkpt lat="47.863399822696735" lon="11.793214064402513"><ele>667.0000000000001</ele><time>2026-04-18T15:12:41.999Z</time></trkpt><trkpt lat="47.86335124225589" lon="11.79328007142639"><ele>667.0</ele><time>2026-04-18T15:12:42.999Z</time></trkpt><trkpt lat="47.86329237273001" lon="11.79333543422366"><ele>667.0</ele><time>2026-04-18T15:12:43.999Z</time></trkpt><trkpt lat="47.863225884536696" lon="11.793384363091862"><ele>667.0</ele><time>2026-04-18T15:12:44.999Z</time></trkpt><trkpt lat="47.863165501827176" lon="11.793431563914927"><ele>667.0</ele><time>2026-04-18T15:12:45.999Z</time></trkpt><trkpt lat="47.863101177945204" lon="11.793484618083145"><ele>667.0000000000001</ele><time>2026-04-18T15:12:46.999Z</time></trkpt><trkpt lat="47.8630337602233" lon="11.793534712023751"><ele>667.0</ele><time>2026-04-18T15:12:47.999Z</time></trkpt><trkpt lat="47.862964191925585" lon="11.793585012617163"><ele>667.0</ele><time>2026-04-18T15:12:48.999Z</time></trkpt><trkpt lat="47.862885529015834" lon="11.793640227898488"><ele>667.0</ele><time>2026-04-18T15:12:49.999Z</time></trkpt><trkpt lat="47.86281244031045" lon="11.79368868049394"><ele>667.0</ele><time>2026-04-18T15:12:50.999Z</time></trkpt><trkpt lat="47.862722642352345" lon="11.793752269795254"><ele>667.0</ele><time>2026-04-18T15:12:51.999Z</time></trkpt><trkpt lat="47.862640242321554" lon="11.793798416595159"><ele>667.0</ele><time>2026-04-18T15:12:52.999Z</time></trkpt><trkpt lat="47.86257698808599" lon="11.793846636593457"><ele>667.0</ele><time>2026-04-18T15:12:53.999Z</time></trkpt><trkpt lat="47.862496071984346" lon="11.793896419331002"><ele>667.1666666666667</ele><time>2026-04-18T15:12:54.999Z</time></trkpt><trkpt lat="47.86242036222554" lon="11.793949428306767"><ele>667.3333333333334</ele><time>2026-04-18T15:12:55.999Z</time></trkpt><trkpt lat="47.86234394855996" lon="11.794009456557445"><ele>667.5</ele><time>2026-04-18T15:12:56.999Z</time></trkpt><trkpt lat="47.862264201972565" lon="11.794064662039764"><ele>667.6666666666666</ele><time>2026-04-18T15:12:57.999Z</time></trkpt><trkpt lat="47.86220449598758" lon="11.794108506855634"><ele>667.8333333333333</ele><time>2026-04-18T15:12:58.999Z</time></trkpt><trkpt lat="47.862105116127275" lon="11.79417538070771"><ele>668.0</ele><time>2026-04-18T15:13:00.999Z</time></trkpt><trkpt lat="47.86202023822296" lon="11.794221020204077"><ele>668.0</ele><time>2026-04-18T15:13:02.999Z</time></trkpt><trkpt lat="47.86194913282175" lon="11.79424406205574"><ele>668.0</ele><time>2026-04-18T15:13:05.999Z</time></trkpt><trkpt lat="47.86187147659655" lon="11.794282149335348"><ele>668.0</ele><time>2026-04-18T15:13:09.999Z</time></trkpt><trkpt lat="47.86182967026452" lon="11.794444876934174"><ele>668.0</ele><time>2026-04-18T15:13:11.999Z</time></trkpt><trkpt lat="47.86183949861043" lon="11.794580078599388"><ele>668.0</ele><time>2026-04-18T15:13:12.999Z</time></trkpt><trkpt lat="47.86185685503855" lon="11.794729619603737"><ele>667.8333333333333</ele><time>2026-04-18T15:13:13.999Z</time></trkpt><trkpt lat="47.86187529171351" lon="11.794845615142064"><ele>667.6666666666666</ele><time>2026-04-18T15:13:14.999Z</time></trkpt><trkpt lat="47.86188609877323" lon="11.794952366075647"><ele>667.5</ele><time>2026-04-18T15:13:15.999Z</time></trkpt><trkpt lat="47.861895323016064" lon="11.795058694434251"><ele>667.3333333333334</ele><time>2026-04-18T15:13:16.999Z</time></trkpt><trkpt lat="47.861904549359735" lon="11.795177017509582"><ele>667.1666666666667</ele><time>2026-04-18T15:13:17.999Z</time></trkpt><trkpt lat="47.86191883785071" lon="11.795314713301662"><ele>667.0</ele><time>2026-04-18T15:13:18.999Z</time></trkpt><trkpt lat="47.8619341183993" lon="11.795467890077472"><ele>667.3333333333334</ele><time>2026-04-18T15:13:19.999Z</time></trkpt><trkpt lat="47.861945260232496" lon="11.795609894176353"><ele>667.6666666666667</ele><time>2026-04-18T15:13:20.999Z</time></trkpt><trkpt lat="47.86195455769459" lon="11.795744478789274"><ele>668.0</ele><time>2026-04-18T15:13:21.999Z</time></trkpt><trkpt lat="47.8619646773836" lon="11.795869442475189"><ele>668.3333333333334</ele><time>2026-04-18T15:13:22.999Z</time></trkpt><trkpt lat="47.86197532154058" lon="11.795993880224527"><ele>668.6666666666666</ele><time>2026-04-18T15:13:23.999Z</time></trkpt><trkpt lat="47.86198548538674" lon="11.7961103998781"><ele>669.0</ele><time>2026-04-18T15:13:24.999Z</time></trkpt><trkpt lat="47.86199086964951" lon="11.796218238389987"><ele>669.1666666666666</ele><time>2026-04-18T15:13:25.999Z</time></trkpt><trkpt lat="47.86199615181159" lon="11.79631628713961"><ele>669.3333333333334</ele><time>2026-04-18T15:13:26.999Z</time></trkpt><trkpt lat="47.86200012547767" lon="11.796458552604305"><ele>669.5</ele><time>2026-04-18T15:13:28.999Z</time></trkpt><trkpt lat="47.86197542869426" lon="11.796621690523569"><ele>669.6666666666667</ele><time>2026-04-18T15:13:31.999Z</time></trkpt><trkpt lat="47.8619362596047" lon="11.796697332491922"><ele>669.8333333333334</ele><time>2026-04-18T15:13:32.999Z</time></trkpt><trkpt lat="47.8619071603553" lon="11.796800420061889"><ele>670.0</ele><time>2026-04-18T15:13:34.999Z</time></trkpt><trkpt lat="47.86187260322917" lon="11.796915888059182"><ele>669.9999999999999</ele><time>2026-04-18T15:13:36.999Z</time></trkpt><trkpt lat="47.86178333927618" lon="11.796956142933805"><ele>670.0</ele><time>2026-04-18T15:13:37.999Z</time></trkpt><trkpt lat="47.861724004397004" lon="11.797016064496615"><ele>670.0</ele><time>2026-04-18T15:13:38.999Z</time></trkpt><trkpt lat="47.861662778845904" lon="11.797071794301893"><ele>670.0</ele><time>2026-04-18T15:13:39.999Z</time></trkpt><trkpt lat="47.86160193607366" lon="11.79712055611453"><ele>670.0</ele><time>2026-04-18T15:13:40.999Z</time></trkpt><trkpt lat="47.86154201039834" lon="11.79716635920216"><ele>669.9999999999999</ele><time>2026-04-18T15:13:41.999Z</time></trkpt><trkpt lat="47.86147662975383" lon="11.79720926116176"><ele>670.0</ele><time>2026-04-18T15:13:42.999Z</time></trkpt><trkpt lat="47.86140255535042" lon="11.797260881332408"><ele>670.0</ele><time>2026-04-18T15:13:43.999Z</time></trkpt><trkpt lat="47.86132193903652" lon="11.797328442119385"><ele>670.0</ele><time>2026-04-18T15:13:44.999Z</time></trkpt><trkpt lat="47.86123265284703" lon="11.797402984666663"><ele>670.0</ele><time>2026-04-18T15:13:45.999Z</time></trkpt><trkpt lat="47.86113709926296" lon="11.797480507866757"><ele>670.0</ele><time>2026-04-18T15:13:46.999Z</time></trkpt><trkpt lat="47.861038510412925" lon="11.79755013454686"><ele>670.0</ele><time>2026-04-18T15:13:47.999Z</time></trkpt><trkpt lat="47.86093577754886" lon="11.797622728504418"><ele>671.2</ele><time>2026-04-18T15:13:48.999Z</time></trkpt><trkpt lat="47.86083075733931" lon="11.79768918196937"><ele>672.4</ele><time>2026-04-18T15:13:49.999Z</time></trkpt><trkpt lat="47.86072487903538" lon="11.79775477956432"><ele>673.5999999999999</ele><time>2026-04-18T15:13:50.999Z</time></trkpt><trkpt lat="47.86062195038159" lon="11.797813580509207"><ele>674.8</ele><time>2026-04-18T15:13:51.999Z</time></trkpt><trkpt lat="47.86051804290359" lon="11.797868202571692"><ele>676.0</ele><time>2026-04-18T15:13:52.999Z</time></trkpt><trkpt lat="47.860413464864955" lon="11.797927907878176"><ele>676.0</ele><time>2026-04-18T15:13:53.999Z</time></trkpt><trkpt lat="47.860307415597305" lon="11.797966855670952"><ele>676.0</ele><time>2026-04-18T15:13:54.999Z</time></trkpt><trkpt lat="47.860201310106554" lon="11.798032084762571"><ele>676.0</ele><time>2026-04-18T15:13:55.999Z</time></trkpt><trkpt lat="47.86009170901798" lon="11.798081143114333"><ele>676.0</ele><time>2026-04-18T15:13:56.999Z</time></trkpt><trkpt lat="47.8599868245555" lon="11.798132519761282"><ele>676.0</ele><time>2026-04-18T15:13:57.999Z</time></trkpt><trkpt lat="47.859880705016266" lon="11.798184313858089"><ele>676.25</ele><time>2026-04-18T15:13:58.999Z</time></trkpt><trkpt lat="47.85976650347089" lon="11.79823445378121"><ele>676.5</ele><time>2026-04-18T15:13:59.999Z</time></trkpt><trkpt lat="47.859657295377886" lon="11.798301221738813"><ele>676.75</ele><time>2026-04-18T15:14:00.999Z</time></trkpt><trkpt lat="47.859541366320244" lon="11.798360314493532"><ele>677.0</ele><time>2026-04-18T15:14:01.999Z</time></trkpt><trkpt lat="47.859432401668954" lon="11.798410027178855"><ele>677.0</ele><time>2026-04-18T15:14:02.999Z</time></trkpt><trkpt lat="47.85932466513636" lon="11.798474867445432"><ele>677.0</ele><time>2026-04-18T15:14:03.999Z</time></trkpt><trkpt lat="47.85922595757026" lon="11.798535035156723"><ele>677.0</ele><time>2026-04-18T15:14:04.999Z</time></trkpt><trkpt lat="47.85912872096742" lon="11.79859450926214"><ele>677.0</ele><time>2026-04-18T15:14:05.999Z</time></trkpt><trkpt lat="47.859039682859205" lon="11.798656010941137"><ele>677.0</ele><time>2026-04-18T15:14:06.999Z</time></trkpt><trkpt lat="47.85895543348306" lon="11.798716513071026"><ele>677.2</ele><time>2026-04-18T15:14:07.999Z</time></trkpt><trkpt lat="47.858875409939465" lon="11.798786962035814"><ele>677.4000000000001</ele><time>2026-04-18T15:14:08.999Z</time></trkpt><trkpt lat="47.858794654531486" lon="11.798873826490592"><ele>677.5999999999999</ele><time>2026-04-18T15:14:09.999Z</time></trkpt><trkpt lat="47.858716437328304" lon="11.79896565757941"><ele>677.8</ele><time>2026-04-18T15:14:10.999Z</time></trkpt><trkpt lat="47.85864725415754" lon="11.799055796862007"><ele>678.0</ele><time>2026-04-18T15:14:11.999Z</time></trkpt><trkpt lat="47.85856713830216" lon="11.799183544835453"><ele>678.0</ele><time>2026-04-18T15:14:13.999Z</time></trkpt><trkpt lat="47.85848187862142" lon="11.799332707800383"><ele>678.0</ele><time>2026-04-18T15:14:15.999Z</time></trkpt><trkpt lat="47.858391587476554" lon="11.799506877461415"><ele>678.0</ele><time>2026-04-18T15:14:17.999Z</time></trkpt><trkpt lat="47.858336604749404" lon="11.799620029818792"><ele>678.0</ele><time>2026-04-18T15:14:18.999Z</time></trkpt><trkpt lat="47.85827982535742" lon="11.799752361351057"><ele>678.2</ele><time>2026-04-18T15:14:19.999Z</time></trkpt><trkpt lat="47.85823602618343" lon="11.799855869573626"><ele>678.4</ele><time>2026-04-18T15:14:20.999Z</time></trkpt><trkpt lat="47.858184374597585" lon="11.799973835430158"><ele>678.6</ele><time>2026-04-18T15:14:21.999Z</time></trkpt><trkpt lat="47.858135332726555" lon="11.800090898731879"><ele>678.8000000000001</ele><time>2026-04-18T15:14:22.999Z</time></trkpt><trkpt lat="47.858079403788835" lon="11.80023114236782"><ele>679.0</ele><time>2026-04-18T15:14:23.999Z</time></trkpt><trkpt lat="47.85802625944239" lon="11.80037441557419"><ele>679.0</ele><time>2026-04-18T15:14:24.999Z</time></trkpt><trkpt lat="47.85797216345158" lon="11.8004874928303"><ele>679.0</ele><time>2026-04-18T15:14:25.999Z</time></trkpt><trkpt lat="47.8579156220237" lon="11.80059463140015"><ele>679.0</ele><time>2026-04-18T15:14:26.999Z</time></trkpt><trkpt lat="47.857858068695215" lon="11.80072766568053"><ele>679.0</ele><time>2026-04-18T15:14:27.999Z</time></trkpt><trkpt lat="47.8578004271322" lon="11.80086728692838"><ele>679.0</ele><time>2026-04-18T15:14:28.999Z</time></trkpt><trkpt lat="47.85774050787075" lon="11.800998463629282"><ele>678.8000000000001</ele><time>2026-04-18T15:14:29.999Z</time></trkpt><trkpt lat="47.85766820244126" lon="11.801141959733535"><ele>678.6</ele><time>2026-04-18T15:14:30.999Z</time></trkpt><trkpt lat="47.85759658579097" lon="11.80126683910854"><ele>678.4</ele><time>2026-04-18T15:14:31.999Z</time></trkpt><trkpt lat="47.857527037908966" lon="11.801378060225002"><ele>678.2</ele><time>2026-04-18T15:14:32.999Z</time></trkpt><trkpt lat="47.85745738061328" lon="11.801474217922545"><ele>678.0</ele><time>2026-04-18T15:14:33.999Z</time></trkpt><trkpt lat="47.85739451069714" lon="11.80156182768155"><ele>677.1666666666666</ele><time>2026-04-18T15:14:34.999Z</time></trkpt><trkpt lat="47.857333422275765" lon="11.801638099869159"><ele>676.3333333333334</ele><time>2026-04-18T15:14:35.999Z</time></trkpt><trkpt lat="47.85727192445617" lon="11.801708309477405"><ele>675.5</ele><time>2026-04-18T15:14:36.999Z</time></trkpt><trkpt lat="47.85721049413118" lon="11.80177813356775"><ele>674.6666666666667</ele><time>2026-04-18T15:14:37.999Z</time></trkpt><trkpt lat="47.8571440460812" lon="11.801852035876154"><ele>673.8333333333334</ele><time>2026-04-18T15:14:38.999Z</time></trkpt><trkpt lat="47.85705241100839" lon="11.801924028382762"><ele>673.0</ele><time>2026-04-18T15:14:39.999Z</time></trkpt><trkpt lat="47.85694483741708" lon="11.801979176255863"><ele>673.0</ele><time>2026-04-18T15:14:40.999Z</time></trkpt><trkpt lat="47.8568359136269" lon="11.802038367204439"><ele>673.0</ele><time>2026-04-18T15:14:41.999Z</time></trkpt><trkpt lat="47.856731691996266" lon="11.802098754178724"><ele>673.0</ele><time>2026-04-18T15:14:42.999Z</time></trkpt><trkpt lat="47.856633804668" lon="11.802162295565859"><ele>673.0</ele><time>2026-04-18T15:14:43.999Z</time></trkpt><trkpt lat="47.85653230476379" lon="11.802217443820144"><ele>673.0</ele><time>2026-04-18T15:14:44.999Z</time></trkpt><trkpt lat="47.85642745040687" lon="11.802292234559806"><ele>673.0</ele><time>2026-04-18T15:14:45.999Z</time></trkpt><trkpt lat="47.856309133766366" lon="11.802342903623002"><ele>673.0</ele><time>2026-04-18T15:14:46.999Z</time></trkpt><trkpt lat="47.85618910467021" lon="11.802384221417803"><ele>673.0</ele><time>2026-04-18T15:14:47.999Z</time></trkpt><trkpt lat="47.85607947177102" lon="11.80249278003324"><ele>673.0</ele><time>2026-04-18T15:14:48.999Z</time></trkpt><trkpt lat="47.85595301426752" lon="11.80257058526787"><ele>673.5</ele><time>2026-04-18T15:14:49.999Z</time></trkpt><trkpt lat="47.85583853984906" lon="11.802639567040805"><ele>674.0</ele><time>2026-04-18T15:14:50.999Z</time></trkpt><trkpt lat="47.8557290985138" lon="11.802705457742096"><ele>674.5</ele><time>2026-04-18T15:14:51.999Z</time></trkpt><trkpt lat="47.85561937856437" lon="11.802772512396599"><ele>675.0</ele><time>2026-04-18T15:14:52.999Z</time></trkpt><trkpt lat="47.855494973421465" lon="11.802836362309066"><ele>675.25</ele><time>2026-04-18T15:14:53.999Z</time></trkpt><trkpt lat="47.85537145174664" lon="11.802901460519326"><ele>675.5</ele><time>2026-04-18T15:14:54.999Z</time></trkpt><trkpt lat="47.8552377362919" lon="11.80297189967775"><ele>675.75</ele><time>2026-04-18T15:14:55.999Z</time></trkpt><trkpt lat="47.85510810585124" lon="11.80304691618854"><ele>676.0</ele><time>2026-04-18T15:14:56.999Z</time></trkpt><trkpt lat="47.85499307068675" lon="11.803102408782257"><ele>676.5</ele><time>2026-04-18T15:14:57.999Z</time></trkpt><trkpt lat="47.85488600649" lon="11.803166440832067"><ele>677.0</ele><time>2026-04-18T15:14:58.999Z</time></trkpt><trkpt lat="47.85477882203253" lon="11.803228275830172"><ele>677.5</ele><time>2026-04-18T15:14:59.999Z</time></trkpt><trkpt lat="47.854668563719" lon="11.803286028961395"><ele>678.0</ele><time>2026-04-18T15:15:00.999Z</time></trkpt><trkpt lat="47.854558893439886" lon="11.803341602031464"><ele>678.0</ele><time>2026-04-18T15:15:01.999Z</time></trkpt><trkpt lat="47.854449096152926" lon="11.80339974933987"><ele>678.0</ele><time>2026-04-18T15:15:02.999Z</time></trkpt><trkpt lat="47.85433391798713" lon="11.803472494392658"><ele>678.0</ele><time>2026-04-18T15:15:03.999Z</time></trkpt><trkpt lat="47.8542228127845" lon="11.803528455590016"><ele>678.0</ele><time>2026-04-18T15:15:04.999Z</time></trkpt><trkpt lat="47.8540930764644" lon="11.803605762555039"><ele>679.75</ele><time>2026-04-18T15:15:05.999Z</time></trkpt><trkpt lat="47.85396566062154" lon="11.803680639989825"><ele>681.5</ele><time>2026-04-18T15:15:06.999Z</time></trkpt><trkpt lat="47.853838076035814" lon="11.803758374543548"><ele>683.25</ele><time>2026-04-18T15:15:07.999Z</time></trkpt><trkpt lat="47.85370925548495" lon="11.803832786310618"><ele>685.0</ele><time>2026-04-18T15:15:08.999Z</time></trkpt><trkpt lat="47.853588399371226" lon="11.803900437441065"><ele>685.0</ele><time>2026-04-18T15:15:09.999Z</time></trkpt><trkpt lat="47.853469636463714" lon="11.803981779130693"><ele>685.0</ele><time>2026-04-18T15:15:10.999Z</time></trkpt><trkpt lat="47.85336214507652" lon="11.804035230880183"><ele>685.0</ele><time>2026-04-18T15:15:11.999Z</time></trkpt><trkpt lat="47.85324858736566" lon="11.80410174573081"><ele>685.0</ele><time>2026-04-18T15:15:12.999Z</time></trkpt><trkpt lat="47.85313203442176" lon="11.804168542924032"><ele>684.3333333333334</ele><time>2026-04-18T15:15:13.999Z</time></trkpt><trkpt lat="47.85301477855946" lon="11.804220370952727"><ele>683.6666666666666</ele><time>2026-04-18T15:15:14.999Z</time></trkpt><trkpt lat="47.85286762942051" lon="11.80433229431936"><ele>683.0</ele><time>2026-04-18T15:15:15.999Z</time></trkpt><trkpt lat="47.85270016223971" lon="11.804448606353377"><ele>681.3333333333333</ele><time>2026-04-18T15:15:16.999Z</time></trkpt><trkpt lat="47.852530572387124" lon="11.8045563116031"><ele>679.6666666666666</ele><time>2026-04-18T15:15:17.999Z</time></trkpt><trkpt lat="47.85239463002593" lon="11.804618063671933"><ele>678.0</ele><time>2026-04-18T15:15:18.999Z</time></trkpt><trkpt lat="47.852242024095226" lon="11.80472396047612"><ele>678.0</ele><time>2026-04-18T15:15:19.999Z</time></trkpt><trkpt lat="47.85208859263746" lon="11.804828846144789"><ele>678.0</ele><time>2026-04-18T15:15:20.999Z</time></trkpt><trkpt lat="47.85193470127458" lon="11.80492862100372"><ele>678.0</ele><time>2026-04-18T15:15:21.999Z</time></trkpt><trkpt lat="47.85177747376036" lon="11.805030943132481"><ele>677.6666666666666</ele><time>2026-04-18T15:15:22.999Z</time></trkpt><trkpt lat="47.85161239694404" lon="11.805149779394947"><ele>677.3333333333333</ele><time>2026-04-18T15:15:23.999Z</time></trkpt><trkpt lat="47.851452203040665" lon="11.805265420631665"><ele>677.0</ele><time>2026-04-18T15:15:24.999Z</time></trkpt><trkpt lat="47.85129683505336" lon="11.805397551356235"><ele>678.0</ele><time>2026-04-18T15:15:25.999Z</time></trkpt><trkpt lat="47.85113992426655" lon="11.805538152051128"><ele>679.0</ele><time>2026-04-18T15:15:26.999Z</time></trkpt><trkpt lat="47.85100696009038" lon="11.805667613516777"><ele>680.0</ele><time>2026-04-18T15:15:27.999Z</time></trkpt><trkpt lat="47.850872667973846" lon="11.805807670210031"><ele>680.3333333333333</ele><time>2026-04-18T15:15:28.999Z</time></trkpt><trkpt lat="47.85073262687054" lon="11.80594937748796"><ele>680.6666666666666</ele><time>2026-04-18T15:15:29.999Z</time></trkpt><trkpt lat="47.85059591748702" lon="11.806093367431025"><ele>681.0</ele><time>2026-04-18T15:15:30.999Z</time></trkpt><trkpt lat="47.850462133622365" lon="11.806236926118878"><ele>681.0</ele><time>2026-04-18T15:15:31.999Z</time></trkpt><trkpt lat="47.85032443118555" lon="11.80638398995974"><ele>681.0</ele><time>2026-04-18T15:15:32.999Z</time></trkpt><trkpt lat="47.85018828821777" lon="11.806537437387064"><ele>681.0</ele><time>2026-04-18T15:15:33.999Z</time></trkpt><trkpt lat="47.850057210872365" lon="11.806700181541112"><ele>682.6666666666666</ele><time>2026-04-18T15:15:34.999Z</time></trkpt><trkpt lat="47.84992995268523" lon="11.806872197884292"><ele>684.3333333333333</ele><time>2026-04-18T15:15:35.999Z</time></trkpt><trkpt lat="47.84980204999855" lon="11.807056212989698"><ele>686.0</ele><time>2026-04-18T15:15:36.999Z</time></trkpt><trkpt lat="47.84967092370983" lon="11.807247458748618"><ele>686.0</ele><time>2026-04-18T15:15:37.999Z</time></trkpt><trkpt lat="47.849532910074295" lon="11.807458404218561"><ele>686.0</ele><time>2026-04-18T15:15:38.999Z</time></trkpt><trkpt lat="47.84939963473209" lon="11.807648202424526"><ele>686.0</ele><time>2026-04-18T15:15:39.999Z</time></trkpt><trkpt lat="47.849271297987045" lon="11.807834902793251"><ele>688.0</ele><time>2026-04-18T15:15:40.999Z</time></trkpt><trkpt lat="47.84914825164321" lon="11.808017245241617"><ele>690.0</ele><time>2026-04-18T15:15:41.999Z</time></trkpt><trkpt lat="47.84902890373366" lon="11.808195736558764"><ele>692.0</ele><time>2026-04-18T15:15:42.999Z</time></trkpt><trkpt lat="47.848905203672906" lon="11.808365174023878"><ele>691.3333333333333</ele><time>2026-04-18T15:15:43.999Z</time></trkpt><trkpt lat="47.84878085909625" lon="11.808534211733381"><ele>690.6666666666666</ele><time>2026-04-18T15:15:44.999Z</time></trkpt><trkpt lat="47.848653862652164" lon="11.808714438307335"><ele>690.0</ele><time>2026-04-18T15:15:45.999Z</time></trkpt><trkpt lat="47.848518550679934" lon="11.80889372210173"><ele>691.3333333333334</ele><time>2026-04-18T15:15:46.999Z</time></trkpt><trkpt lat="47.848377713206006" lon="11.80905021993355"><ele>692.6666666666667</ele><time>2026-04-18T15:15:47.999Z</time></trkpt><trkpt lat="47.84822634749738" lon="11.809191884035258"><ele>694.0</ele><time>2026-04-18T15:15:48.999Z</time></trkpt><trkpt lat="47.848080792291434" lon="11.809288631243511"><ele>693.6666666666667</ele><time>2026-04-18T15:15:49.999Z</time></trkpt><trkpt lat="47.84793139701332" lon="11.809389815103915"><ele>693.3333333333334</ele><time>2026-04-18T15:15:50.999Z</time></trkpt><trkpt lat="47.84777538983201" lon="11.809468937570102"><ele>693.0</ele><time>2026-04-18T15:15:51.999Z</time></trkpt><trkpt lat="47.8476151154536" lon="11.809533098795711"><ele>693.0</ele><time>2026-04-18T15:15:52.999Z</time></trkpt><trkpt lat="47.84746260047318" lon="11.80957794171676"><ele>693.0</ele><time>2026-04-18T15:15:53.999Z</time></trkpt><trkpt lat="47.847302918337995" lon="11.809615297135144"><ele>693.0</ele><time>2026-04-18T15:15:54.999Z</time></trkpt><trkpt lat="47.8471600238396" lon="11.809643733637808"><ele>693.0</ele><time>2026-04-18T15:15:55.999Z</time></trkpt><trkpt lat="47.84701121030041" lon="11.809670907760301"><ele>693.0</ele><time>2026-04-18T15:15:56.999Z</time></trkpt><trkpt lat="47.846863143328825" lon="11.809697308328728"><ele>693.0</ele><time>2026-04-18T15:15:57.999Z</time></trkpt><trkpt lat="47.846724934839415" lon="11.809708412571554"><ele>693.0</ele><time>2026-04-18T15:15:58.999Z</time></trkpt><trkpt lat="47.8465858770887" lon="11.809720034809255"><ele>694.6666666666666</ele><time>2026-04-18T15:15:59.999Z</time></trkpt><trkpt lat="47.84641015464515" lon="11.809812212901912"><ele>696.3333333333333</ele><time>2026-04-18T15:16:00.999Z</time></trkpt><trkpt lat="47.84625528323006" lon="11.809882651413037"><ele>698.0</ele><time>2026-04-18T15:16:01.999Z</time></trkpt><trkpt lat="47.84610675702959" lon="11.809929763688682"><ele>700.0</ele><time>2026-04-18T15:16:02.999Z</time></trkpt><trkpt lat="47.84595053574731" lon="11.810031583161948"><ele>702.0</ele><time>2026-04-18T15:16:03.999Z</time></trkpt><trkpt lat="47.84579974751762" lon="11.810070185038752"><ele>704.0</ele><time>2026-04-18T15:16:04.999Z</time></trkpt><trkpt lat="47.845637459782274" lon="11.81019310902163"><ele>705.0</ele><time>2026-04-18T15:16:05.999Z</time></trkpt><trkpt lat="47.84548490158362" lon="11.810274684024387"><ele>706.0</ele><time>2026-04-18T15:16:06.999Z</time></trkpt><trkpt lat="47.84531793886417" lon="11.810414700159733"><ele>707.0</ele><time>2026-04-18T15:16:07.999Z</time></trkpt><trkpt lat="47.84517484076157" lon="11.810547616646168"><ele>707.0</ele><time>2026-04-18T15:16:08.999Z</time></trkpt><trkpt lat="47.84501090578086" lon="11.81071308468695"><ele>707.0</ele><time>2026-04-18T15:16:09.999Z</time></trkpt><trkpt lat="47.844854886342254" lon="11.810892985792746"><ele>707.0</ele><time>2026-04-18T15:16:10.999Z</time></trkpt><trkpt lat="47.84470319999472" lon="11.811083135751279"><ele>707.0</ele><time>2026-04-18T15:16:11.999Z</time></trkpt><trkpt lat="47.844570945438875" lon="11.811225153786383"><ele>707.0</ele><time>2026-04-18T15:16:12.999Z</time></trkpt><trkpt lat="47.84441505669596" lon="11.811422585831892"><ele>707.0</ele><time>2026-04-18T15:16:13.999Z</time></trkpt><trkpt lat="47.84427541351404" lon="11.811551604898787"><ele>702.6666666666666</ele><time>2026-04-18T15:16:14.999Z</time></trkpt><trkpt lat="47.844116481533334" lon="11.811736001705682"><ele>698.3333333333334</ele><time>2026-04-18T15:16:15.999Z</time></trkpt><trkpt lat="47.84396110209335" lon="11.811840162427488"><ele>694.0</ele><time>2026-04-18T15:16:16.999Z</time></trkpt><trkpt lat="47.843771531675266" lon="11.812010840740028"><ele>694.0</ele><time>2026-04-18T15:16:17.999Z</time></trkpt><trkpt lat="47.84359776573901" lon="11.812131537052954"><ele>694.0</ele><time>2026-04-18T15:16:18.999Z</time></trkpt><trkpt lat="47.843413506688144" lon="11.812252781514637"><ele>694.0</ele><time>2026-04-18T15:16:19.999Z</time></trkpt><trkpt lat="47.84323938371803" lon="11.812376991813922"><ele>690.3333333333334</ele><time>2026-04-18T15:16:20.999Z</time></trkpt><trkpt lat="47.84307678245209" lon="11.812514134085712"><ele>686.6666666666666</ele><time>2026-04-18T15:16:21.999Z</time></trkpt><trkpt lat="47.84291310323981" lon="11.812660281280685"><ele>683.0</ele><time>2026-04-18T15:16:22.999Z</time></trkpt><trkpt lat="47.84275409020322" lon="11.81283789941403"><ele>676.3333333333333</ele><time>2026-04-18T15:16:23.999Z</time></trkpt><trkpt lat="47.84259983760244" lon="11.813021479335028"><ele>669.6666666666666</ele><time>2026-04-18T15:16:24.999Z</time></trkpt><trkpt lat="47.84244967456114" lon="11.813202613677705"><ele>663.0</ele><time>2026-04-18T15:16:25.999Z</time></trkpt><trkpt lat="47.842317652917316" lon="11.813364016345913"><ele>667.0</ele><time>2026-04-18T15:16:26.999Z</time></trkpt><trkpt lat="47.84217868755695" lon="11.813559971049244"><ele>671.0</ele><time>2026-04-18T15:16:27.999Z</time></trkpt><trkpt lat="47.84205020555536" lon="11.813715854119803"><ele>675.0</ele><time>2026-04-18T15:16:28.999Z</time></trkpt><trkpt lat="47.841922235129196" lon="11.813920372496915"><ele>673.0</ele><time>2026-04-18T15:16:29.999Z</time></trkpt><trkpt lat="47.84179468381803" lon="11.81411231985921"><ele>671.0</ele><time>2026-04-18T15:16:30.999Z</time></trkpt><trkpt lat="47.841670326815766" lon="11.814313828454173"><ele>669.0</ele><time>2026-04-18T15:16:31.999Z</time></trkpt><trkpt lat="47.84157568925326" lon="11.814500150210849"><ele>669.0</ele><time>2026-04-18T15:16:32.999Z</time></trkpt><trkpt lat="47.84144228601232" lon="11.814713608187997"><ele>669.0</ele><time>2026-04-18T15:16:33.999Z</time></trkpt><trkpt lat="47.84131935724071" lon="11.814905069370461"><ele>669.0</ele><time>2026-04-18T15:16:34.999Z</time></trkpt><trkpt lat="47.84119978541053" lon="11.815093759793527"><ele>667.0</ele><time>2026-04-18T15:16:35.999Z</time></trkpt><trkpt lat="47.84107669278081" lon="11.815266014098102"><ele>665.0</ele><time>2026-04-18T15:16:36.999Z</time></trkpt><trkpt lat="47.840950452780255" lon="11.815431494344262"><ele>663.0</ele><time>2026-04-18T15:16:37.999Z</time></trkpt><trkpt lat="47.84081619328849" lon="11.81559080713004"><ele>663.0</ele><time>2026-04-18T15:16:38.999Z</time></trkpt><trkpt lat="47.84068207795693" lon="11.815726302307098"><ele>663.0</ele><time>2026-04-18T15:16:39.999Z</time></trkpt><trkpt lat="47.84054080887611" lon="11.815863571471782"><ele>663.0</ele><time>2026-04-18T15:16:40.999Z</time></trkpt><trkpt lat="47.84039659436125" lon="11.815992100215295"><ele>663.6666666666666</ele><time>2026-04-18T15:16:41.999Z</time></trkpt><trkpt lat="47.84025147567995" lon="11.816118607750596"><ele>664.3333333333333</ele><time>2026-04-18T15:16:42.999Z</time></trkpt><trkpt lat="47.84010293031151" lon="11.816239398370907"><ele>665.0</ele><time>2026-04-18T15:16:43.999Z</time></trkpt><trkpt lat="47.83995308804176" lon="11.816349334438845"><ele>665.0</ele><time>2026-04-18T15:16:44.999Z</time></trkpt><trkpt lat="47.839800670361264" lon="11.816455269746603"><ele>665.0</ele><time>2026-04-18T15:16:45.999Z</time></trkpt><trkpt lat="47.83965458939711" lon="11.816552062048595"><ele>665.0</ele><time>2026-04-18T15:16:46.999Z</time></trkpt><trkpt lat="47.83949418800912" lon="11.816660341984637"><ele>665.0</ele><time>2026-04-18T15:16:47.999Z</time></trkpt><trkpt lat="47.839337199930014" lon="11.816762206138222"><ele>665.0</ele><time>2026-04-18T15:16:48.999Z</time></trkpt><trkpt lat="47.83917242834039" lon="11.816867020022437"><ele>665.0</ele><time>2026-04-18T15:16:49.999Z</time></trkpt><trkpt lat="47.839005657848354" lon="11.816962087736837"><ele>665.0</ele><time>2026-04-18T15:16:50.999Z</time></trkpt><trkpt lat="47.83884978936556" lon="11.817055358227453"><ele>665.0</ele><time>2026-04-18T15:16:51.999Z</time></trkpt><trkpt lat="47.838698095947" lon="11.81717181192141"><ele>665.0</ele><time>2026-04-18T15:16:52.999Z</time></trkpt><trkpt lat="47.83858443837225" lon="11.817220849337554"><ele>664.5</ele><time>2026-04-18T15:16:53.999Z</time></trkpt><trkpt lat="47.838460764837755" lon="11.817306238143614"><ele>664.0</ele><time>2026-04-18T15:16:54.999Z</time></trkpt><trkpt lat="47.83833714625831" lon="11.817370509830523"><ele>663.5</ele><time>2026-04-18T15:16:55.999Z</time></trkpt><trkpt lat="47.838229237109275" lon="11.817437675784031"><ele>663.0</ele><time>2026-04-18T15:16:56.999Z</time></trkpt><trkpt lat="47.838114764443695" lon="11.81751203466284"><ele>663.0</ele><time>2026-04-18T15:16:57.999Z</time></trkpt><trkpt lat="47.83802015896802" lon="11.817569373492045"><ele>663.0</ele><time>2026-04-18T15:16:58.999Z</time></trkpt><trkpt lat="47.83793225894727" lon="11.817627905215984"><ele>663.0</ele><time>2026-04-18T15:16:59.999Z</time></trkpt><trkpt lat="47.83784805855465" lon="11.817689327820453"><ele>663.0</ele><time>2026-04-18T15:17:00.999Z</time></trkpt><trkpt lat="47.83775785102144" lon="11.817749962981607"><ele>663.0</ele><time>2026-04-18T15:17:01.999Z</time></trkpt><trkpt lat="47.83765981740509" lon="11.817816265458367"><ele>663.5</ele><time>2026-04-18T15:17:02.999Z</time></trkpt><trkpt lat="47.83755560547715" lon="11.817881080007275"><ele>664.0</ele><time>2026-04-18T15:17:03.999Z</time></trkpt><trkpt lat="47.83744742553142" lon="11.8179487401876"><ele>664.5</ele><time>2026-04-18T15:17:04.999Z</time></trkpt><trkpt lat="47.83734506795156" lon="11.818007941906611"><ele>665.0</ele><time>2026-04-18T15:17:05.999Z</time></trkpt><trkpt lat="47.837249445580376" lon="11.818103700891985"><ele>665.0</ele><time>2026-04-18T15:17:06.999Z</time></trkpt><trkpt lat="47.83715970913773" lon="11.81818300257091"><ele>665.0</ele><time>2026-04-18T15:17:07.999Z</time></trkpt><trkpt lat="47.83704427651693" lon="11.818239847195258"><ele>665.0</ele><time>2026-04-18T15:17:08.999Z</time></trkpt><trkpt lat="47.83694803837115" lon="11.81831602238447"><ele>665.0</ele><time>2026-04-18T15:17:09.999Z</time></trkpt><trkpt lat="47.83684919471984" lon="11.818387302111613"><ele>665.0</ele><time>2026-04-18T15:17:10.999Z</time></trkpt><trkpt lat="47.836756377622436" lon="11.818468038763243"><ele>665.2</ele><time>2026-04-18T15:17:11.999Z</time></trkpt><trkpt lat="47.83665406466526" lon="11.818541503436217"><ele>665.4</ele><time>2026-04-18T15:17:12.999Z</time></trkpt><trkpt lat="47.83655804788924" lon="11.818620563366316"><ele>665.5999999999999</ele><time>2026-04-18T15:17:13.999Z</time></trkpt><trkpt lat="47.83646459771325" lon="11.818691876596544"><ele>665.8</ele><time>2026-04-18T15:17:14.999Z</time></trkpt><trkpt lat="47.83637359012572" lon="11.818750848613824"><ele>666.0</ele><time>2026-04-18T15:17:15.999Z</time></trkpt><trkpt lat="47.83627940960966" lon="11.818810419595474"><ele>666.0</ele><time>2026-04-18T15:17:16.999Z</time></trkpt><trkpt lat="47.83619166141795" lon="11.818898890496436"><ele>666.0</ele><time>2026-04-18T15:17:17.999Z</time></trkpt><trkpt lat="47.83610990217605" lon="11.819007022358175"><ele>666.0</ele><time>2026-04-18T15:17:18.999Z</time></trkpt><trkpt lat="47.836015528205095" lon="11.819107556952273"><ele>666.0</ele><time>2026-04-18T15:17:19.999Z</time></trkpt><trkpt lat="47.83592453072323" lon="11.819191625105324"><ele>666.0</ele><time>2026-04-18T15:17:20.999Z</time></trkpt><trkpt lat="47.835837484856036" lon="11.81927299303072"><ele>666.5999999999999</ele><time>2026-04-18T15:17:21.999Z</time></trkpt><trkpt lat="47.83575255113115" lon="11.81935638019369"><ele>667.2</ele><time>2026-04-18T15:17:22.999Z</time></trkpt><trkpt lat="47.83566459503359" lon="11.8194317668378"><ele>667.8</ele><time>2026-04-18T15:17:23.999Z</time></trkpt><trkpt lat="47.8355808185507" lon="11.819509670961597"><ele>668.4000000000001</ele><time>2026-04-18T15:17:24.999Z</time></trkpt><trkpt lat="47.835488510556566" lon="11.819594966261343"><ele>669.0</ele><time>2026-04-18T15:17:25.999Z</time></trkpt><trkpt lat="47.835406043959644" lon="11.819679912739748"><ele>669.0</ele><time>2026-04-18T15:17:26.999Z</time></trkpt><trkpt lat="47.83529676405021" lon="11.819774352714814"><ele>669.0</ele><time>2026-04-18T15:17:27.999Z</time></trkpt><trkpt lat="47.835188458964495" lon="11.819858852714505"><ele>669.0</ele><time>2026-04-18T15:17:28.999Z</time></trkpt><trkpt lat="47.83508684395998" lon="11.819954915273186"><ele>669.0</ele><time>2026-04-18T15:17:29.999Z</time></trkpt><trkpt lat="47.834986353183574" lon="11.820036235984452"><ele>668.75</ele><time>2026-04-18T15:17:30.999Z</time></trkpt><trkpt lat="47.83487243257386" lon="11.820131118082783"><ele>668.5</ele><time>2026-04-18T15:17:31.999Z</time></trkpt><trkpt lat="47.8347577392528" lon="11.820228187021824"><ele>668.25</ele><time>2026-04-18T15:17:32.999Z</time></trkpt><trkpt lat="47.83464523058576" lon="11.820319536773795"><ele>668.0</ele><time>2026-04-18T15:17:33.999Z</time></trkpt><trkpt lat="47.83451831533046" lon="11.820415208908537"><ele>669.0</ele><time>2026-04-18T15:17:34.999Z</time></trkpt><trkpt lat="47.83438124535782" lon="11.820515191008957"><ele>670.0</ele><time>2026-04-18T15:17:36Z</time></trkpt><trkpt lat="47.83422786749987" lon="11.820622188719764"><ele>671.0</ele><time>2026-04-18T15:17:37Z</time></trkpt><trkpt lat="47.834063363115355" lon="11.820742627181328"><ele>671.0</ele><time>2026-04-18T15:17:38Z</time></trkpt><trkpt lat="47.83388603173621" lon="11.820853942014653"><ele>671.0</ele><time>2026-04-18T15:17:39Z</time></trkpt><trkpt lat="47.833735318675345" lon="11.820953922726257"><ele>671.0</ele><time>2026-04-18T15:17:40Z</time></trkpt><trkpt lat="47.833597553717716" lon="11.82105531120422"><ele>672.0</ele><time>2026-04-18T15:17:41Z</time></trkpt><trkpt lat="47.833448959294444" lon="11.821143482650204"><ele>673.0</ele><time>2026-04-18T15:17:42Z</time></trkpt><trkpt lat="47.83328735036459" lon="11.82123984298486"><ele>674.0</ele><time>2026-04-18T15:17:43Z</time></trkpt><trkpt lat="47.833113817804815" lon="11.821339579950143"><ele>674.0</ele><time>2026-04-18T15:17:44Z</time></trkpt><trkpt lat="47.8329335252064" lon="11.82143982201934"><ele>674.0</ele><time>2026-04-18T15:17:45Z</time></trkpt><trkpt lat="47.83275055212453" lon="11.821542125745534"><ele>674.0</ele><time>2026-04-18T15:17:46Z</time></trkpt><trkpt lat="47.83255910235075" lon="11.821628723395575"><ele>674.0</ele><time>2026-04-18T15:17:47Z</time></trkpt><trkpt lat="47.832366275842375" lon="11.821742785926109"><ele>674.0</ele><time>2026-04-18T15:17:48Z</time></trkpt><trkpt lat="47.832191304665244" lon="11.821840557926741"><ele>674.0</ele><time>2026-04-18T15:17:49Z</time></trkpt><trkpt lat="47.832000764737394" lon="11.821941713674748"><ele>674.3333333333333</ele><time>2026-04-18T15:17:50Z</time></trkpt><trkpt lat="47.83181070043116" lon="11.822043700986546"><ele>674.6666666666666</ele><time>2026-04-18T15:17:51Z</time></trkpt><trkpt lat="47.83162103350334" lon="11.82214929492323"><ele>675.0</ele><time>2026-04-18T15:17:52Z</time></trkpt><trkpt lat="47.831429709942064" lon="11.822258825768955"><ele>676.0</ele><time>2026-04-18T15:17:53Z</time></trkpt><trkpt lat="47.831237972154305" lon="11.822367893659484"><ele>677.0</ele><time>2026-04-18T15:17:54Z</time></trkpt><trkpt lat="47.83104247826549" lon="11.822482655654996"><ele>678.0</ele><time>2026-04-18T15:17:55Z</time></trkpt><trkpt lat="47.83084414803372" lon="11.822601224321366"><ele>680.3333333333334</ele><time>2026-04-18T15:17:56Z</time></trkpt><trkpt lat="47.83064067970287" lon="11.822723341996396"><ele>682.6666666666667</ele><time>2026-04-18T15:17:57Z</time></trkpt><trkpt lat="47.830440009320725" lon="11.82284581955638"><ele>685.0</ele><time>2026-04-18T15:17:58Z</time></trkpt><trkpt lat="47.830234542044046" lon="11.822988636197802"><ele>685.3333333333334</ele><time>2026-04-18T15:17:59Z</time></trkpt><trkpt lat="47.83003626082954" lon="11.823113122000212"><ele>685.6666666666666</ele><time>2026-04-18T15:18:00Z</time></trkpt><trkpt lat="47.82983222736521" lon="11.823263241257607"><ele>686.0</ele><time>2026-04-18T15:18:01Z</time></trkpt><trkpt lat="47.82963348112089" lon="11.82341744654818"><ele>688.6666666666666</ele><time>2026-04-18T15:18:02Z</time></trkpt><trkpt lat="47.829437911940865" lon="11.82359948130496"><ele>691.3333333333334</ele><time>2026-04-18T15:18:03Z</time></trkpt><trkpt lat="47.82924670792753" lon="11.823746215087723"><ele>694.0</ele><time>2026-04-18T15:18:04Z</time></trkpt><trkpt lat="47.82904701970527" lon="11.823921803975628"><ele>694.0</ele><time>2026-04-18T15:18:05Z</time></trkpt><trkpt lat="47.82883891915224" lon="11.824109318249196"><ele>694.0</ele><time>2026-04-18T15:18:06Z</time></trkpt><trkpt lat="47.82864163491858" lon="11.82429131011663"><ele>696.0</ele><time>2026-04-18T15:18:07Z</time></trkpt><trkpt lat="47.828442907139845" lon="11.824486232489717"><ele>698.0</ele><time>2026-04-18T15:18:08Z</time></trkpt><trkpt lat="47.828246925426406" lon="11.824717580032038"><ele>698.0</ele><time>2026-04-18T15:18:09Z</time></trkpt><trkpt lat="47.82805472749857" lon="11.824889382425631"><ele>698.0</ele><time>2026-04-18T15:18:10Z</time></trkpt><trkpt lat="47.827883442910945" lon="11.825084636991193"><ele>698.0</ele><time>2026-04-18T15:18:11Z</time></trkpt><trkpt lat="47.82769680101038" lon="11.825284601357717"><ele>698.5</ele><time>2026-04-18T15:18:12Z</time></trkpt><trkpt lat="47.827512680107205" lon="11.825495019228002"><ele>699.0</ele><time>2026-04-18T15:18:13Z</time></trkpt><trkpt lat="47.827333647206174" lon="11.825709324575007"><ele>699.0</ele><time>2026-04-18T15:18:14Z</time></trkpt><trkpt lat="47.82714962237281" lon="11.82594387011667"><ele>699.0</ele><time>2026-04-18T15:18:15Z</time></trkpt><trkpt lat="47.82697150108657" lon="11.826157064123949"><ele>698.5</ele><time>2026-04-18T15:18:16Z</time></trkpt><trkpt lat="47.82679607902125" lon="11.826385310746529"><ele>698.0</ele><time>2026-04-18T15:18:17Z</time></trkpt><trkpt lat="47.82662554569837" lon="11.826615206412743"><ele>698.3333333333333</ele><time>2026-04-18T15:18:18Z</time></trkpt><trkpt lat="47.82645785862128" lon="11.826842365737289"><ele>698.6666666666666</ele><time>2026-04-18T15:18:19Z</time></trkpt><trkpt lat="47.826296534795155" lon="11.827066778864195"><ele>699.0</ele><time>2026-04-18T15:18:20Z</time></trkpt><trkpt lat="47.826136408816886" lon="11.8272953349894"><ele>699.0</ele><time>2026-04-18T15:18:21Z</time></trkpt><trkpt lat="47.825973694219265" lon="11.827528656968248"><ele>699.0</ele><time>2026-04-18T15:18:22Z</time></trkpt><trkpt lat="47.82581272881766" lon="11.82776187565451"><ele>700.0</ele><time>2026-04-18T15:18:23Z</time></trkpt><trkpt lat="47.82565212521036" lon="11.827995638615857"><ele>701.0</ele><time>2026-04-18T15:18:24Z</time></trkpt><trkpt lat="47.82549198513789" lon="11.828233261639944"><ele>701.0</ele><time>2026-04-18T15:18:25Z</time></trkpt><trkpt lat="47.82533330065534" lon="11.828471912116193"><ele>701.0</ele><time>2026-04-18T15:18:26Z</time></trkpt><trkpt lat="47.82517007095967" lon="11.82871625871875"><ele>702.0</ele><time>2026-04-18T15:18:27Z</time></trkpt><trkpt lat="47.8250077876768" lon="11.828956119779942"><ele>703.0</ele><time>2026-04-18T15:18:28Z</time></trkpt><trkpt lat="47.82485089754075" lon="11.829205714435062"><ele>703.3333333333334</ele><time>2026-04-18T15:18:29Z</time></trkpt><trkpt lat="47.824721495859485" lon="11.82938503608329"><ele>703.6666666666666</ele><time>2026-04-18T15:18:30Z</time></trkpt><trkpt lat="47.824592633346676" lon="11.829544689942603"><ele>704.0</ele><time>2026-04-18T15:18:31Z</time></trkpt><trkpt lat="47.824491340512814" lon="11.829724650960374"><ele>704.0</ele><time>2026-04-18T15:18:32Z</time></trkpt><trkpt lat="47.824372866524925" lon="11.829900620523343"><ele>704.0</ele><time>2026-04-18T15:18:33Z</time></trkpt><trkpt lat="47.824246434721786" lon="11.830081960487165"><ele>704.0</ele><time>2026-04-18T15:18:34Z</time></trkpt><trkpt lat="47.82411886549213" lon="11.830278360800154"><ele>704.3333333333333</ele><time>2026-04-18T15:18:35Z</time></trkpt><trkpt lat="47.823988991391325" lon="11.830470850350364"><ele>704.6666666666666</ele><time>2026-04-18T15:18:36Z</time></trkpt><trkpt lat="47.8238674890805" lon="11.830650339241881"><ele>705.0</ele><time>2026-04-18T15:18:37Z</time></trkpt><trkpt lat="47.82374121719272" lon="11.830837701447408"><ele>705.6666666666666</ele><time>2026-04-18T15:18:38Z</time></trkpt><trkpt lat="47.82361853865623" lon="11.831018637881666"><ele>706.3333333333333</ele><time>2026-04-18T15:18:39Z</time></trkpt><trkpt lat="47.82349950657998" lon="11.831193558653352"><ele>707.0</ele><time>2026-04-18T15:18:40Z</time></trkpt><trkpt lat="47.82337938588234" lon="11.831370302705727"><ele>707.0</ele><time>2026-04-18T15:18:41Z</time></trkpt><trkpt lat="47.82325776049535" lon="11.831552083384015"><ele>707.0</ele><time>2026-04-18T15:18:42Z</time></trkpt><trkpt lat="47.82313335902117" lon="11.831745247262663"><ele>707.0</ele><time>2026-04-18T15:18:43Z</time></trkpt><trkpt lat="47.82301683355932" lon="11.831913634575507"><ele>707.0</ele><time>2026-04-18T15:18:44Z</time></trkpt><trkpt lat="47.822890476763895" lon="11.832098248746425"><ele>707.0</ele><time>2026-04-18T15:18:45Z</time></trkpt><trkpt lat="47.82275754015034" lon="11.832289010179386"><ele>707.0</ele><time>2026-04-18T15:18:46Z</time></trkpt><trkpt lat="47.822637532774884" lon="11.83243563389231"><ele>706.6666666666666</ele><time>2026-04-18T15:18:47Z</time></trkpt><trkpt lat="47.82252451536365" lon="11.832591814125907"><ele>706.3333333333334</ele><time>2026-04-18T15:18:48Z</time></trkpt><trkpt lat="47.822376208420934" lon="11.83282157570753"><ele>706.0</ele><time>2026-04-18T15:18:49Z</time></trkpt><trkpt lat="47.82225759168398" lon="11.83300549601232"><ele>707.0</ele><time>2026-04-18T15:18:50Z</time></trkpt><trkpt lat="47.822132719278486" lon="11.833192123788288"><ele>708.0</ele><time>2026-04-18T15:18:51Z</time></trkpt><trkpt lat="47.8220075537252" lon="11.8333748840903"><ele>709.0</ele><time>2026-04-18T15:18:52Z</time></trkpt><trkpt lat="47.82188331681679" lon="11.833563376754464"><ele>709.0</ele><time>2026-04-18T15:18:53Z</time></trkpt><trkpt lat="47.82176151646791" lon="11.83375623862991"><ele>709.0</ele><time>2026-04-18T15:18:54Z</time></trkpt><trkpt lat="47.82164277555243" lon="11.83393758088024"><ele>709.0</ele><time>2026-04-18T15:18:55Z</time></trkpt><trkpt lat="47.82152161830941" lon="11.83411086564553"><ele>709.0</ele><time>2026-04-18T15:18:56Z</time></trkpt><trkpt lat="47.82139646448929" lon="11.834281261517125"><ele>709.0</ele><time>2026-04-18T15:18:57Z</time></trkpt><trkpt lat="47.82127277701563" lon="11.834452415524808"><ele>709.0</ele><time>2026-04-18T15:18:58Z</time></trkpt><trkpt lat="47.8211449658821" lon="11.834623570193289"><ele>709.3333333333334</ele><time>2026-04-18T15:18:59Z</time></trkpt><trkpt lat="47.82101449272906" lon="11.834792187317115"><ele>709.6666666666666</ele><time>2026-04-18T15:19:00Z</time></trkpt><trkpt lat="47.82088385021057" lon="11.83496133557078"><ele>710.0</ele><time>2026-04-18T15:19:01Z</time></trkpt><trkpt lat="47.820758891311186" lon="11.835119142439021"><ele>710.6666666666666</ele><time>2026-04-18T15:19:02Z</time></trkpt><trkpt lat="47.8206335010721" lon="11.835271765150571"><ele>711.3333333333334</ele><time>2026-04-18T15:19:03Z</time></trkpt><trkpt lat="47.82051052969296" lon="11.835421524826469"><ele>712.0</ele><time>2026-04-18T15:19:04Z</time></trkpt><trkpt lat="47.820383949513186" lon="11.835574787998462"><ele>712.0</ele><time>2026-04-18T15:19:05Z</time></trkpt><trkpt lat="47.82025669138967" lon="11.835717904074261"><ele>712.0</ele><time>2026-04-18T15:19:06Z</time></trkpt><trkpt lat="47.820120601277964" lon="11.83586569015648"><ele>712.0</ele><time>2026-04-18T15:19:07Z</time></trkpt><trkpt lat="47.81997632144864" lon="11.83601444848482"><ele>712.6666666666667</ele><time>2026-04-18T15:19:08Z</time></trkpt><trkpt lat="47.81982975672101" lon="11.836163625167087"><ele>713.3333333333334</ele><time>2026-04-18T15:19:09Z</time></trkpt><trkpt lat="47.81967877566056" lon="11.836309552350565"><ele>714.0</ele><time>2026-04-18T15:19:10Z</time></trkpt><trkpt lat="47.8195207066892" lon="11.836451200699875"><ele>714.0</ele><time>2026-04-18T15:19:10.999Z</time></trkpt><trkpt lat="47.81935417298003" lon="11.836591953549458"><ele>714.0</ele><time>2026-04-18T15:19:11.999Z</time></trkpt><trkpt lat="47.81918386108266" lon="11.836724883488563"><ele>714.0</ele><time>2026-04-18T15:19:12.999Z</time></trkpt><trkpt lat="47.81901272659809" lon="11.83685226419803"><ele>716.0</ele><time>2026-04-18T15:19:13.999Z</time></trkpt><trkpt lat="47.818839124429026" lon="11.836961655432805"><ele>718.0</ele><time>2026-04-18T15:19:14.999Z</time></trkpt><trkpt lat="47.818679007212964" lon="11.837081742839214"><ele>720.0</ele><time>2026-04-18T15:19:15.999Z</time></trkpt><trkpt lat="47.81851417730531" lon="11.837187976594237"><ele>720.6666666666666</ele><time>2026-04-18T15:19:16.999Z</time></trkpt><trkpt lat="47.81834817377924" lon="11.837282923978039"><ele>721.3333333333333</ele><time>2026-04-18T15:19:17.999Z</time></trkpt><trkpt lat="47.81817841225056" lon="11.837374512467969"><ele>722.0</ele><time>2026-04-18T15:19:18.999Z</time></trkpt><trkpt lat="47.81800210889642" lon="11.837456522616645"><ele>722.0</ele><time>2026-04-18T15:19:19.999Z</time></trkpt><trkpt lat="47.81782365941092" lon="11.837531879349038"><ele>722.0</ele><time>2026-04-18T15:19:20.999Z</time></trkpt><trkpt lat="47.8176440810058" lon="11.837604523638037"><ele>722.0</ele><time>2026-04-18T15:19:21.999Z</time></trkpt><trkpt lat="47.81746327091255" lon="11.837672729414866"><ele>723.3333333333333</ele><time>2026-04-18T15:19:22.999Z</time></trkpt><trkpt lat="47.81728053718079" lon="11.837733873737735"><ele>724.6666666666666</ele><time>2026-04-18T15:19:24Z</time></trkpt><trkpt lat="47.81709637428301" lon="11.837786854105708"><ele>726.0</ele><time>2026-04-18T15:19:25Z</time></trkpt><trkpt lat="47.81690864295383" lon="11.837830834426928"><ele>728.0</ele><time>2026-04-18T15:19:26Z</time></trkpt><trkpt lat="47.816722135814864" lon="11.837865645815201"><ele>730.0</ele><time>2026-04-18T15:19:27Z</time></trkpt><trkpt lat="47.81653661729055" lon="11.837897562403173"><ele>732.0</ele><time>2026-04-18T15:19:28Z</time></trkpt><trkpt lat="47.81636066633074" lon="11.837921225012321"><ele>732.0</ele><time>2026-04-18T15:19:29Z</time></trkpt><trkpt lat="47.8161769897987" lon="11.837944368637983"><ele>732.0</ele><time>2026-04-18T15:19:30Z</time></trkpt><trkpt lat="47.81599758622865" lon="11.837959385383712"><ele>732.0</ele><time>2026-04-18T15:19:31Z</time></trkpt><trkpt lat="47.81581459841962" lon="11.837972761277278"><ele>731.0</ele><time>2026-04-18T15:19:32Z</time></trkpt><trkpt lat="47.81563867078686" lon="11.837991469613995"><ele>730.0</ele><time>2026-04-18T15:19:33Z</time></trkpt><trkpt lat="47.81545151564016" lon="11.837989102129008"><ele>729.0</ele><time>2026-04-18T15:19:34Z</time></trkpt><trkpt lat="47.8152666742332" lon="11.837987590253176"><ele>725.0</ele><time>2026-04-18T15:19:35Z</time></trkpt><trkpt lat="47.815069033153634" lon="11.837967251064805"><ele>721.0</ele><time>2026-04-18T15:19:36Z</time></trkpt><trkpt lat="47.81488059044522" lon="11.837958419176635"><ele>717.0</ele><time>2026-04-18T15:19:37Z</time></trkpt><trkpt lat="47.81469046740261" lon="11.837960083187633"><ele>717.0</ele><time>2026-04-18T15:19:38Z</time></trkpt><trkpt lat="47.81450001080087" lon="11.837969878937924"><ele>717.0</ele><time>2026-04-18T15:19:39Z</time></trkpt><trkpt lat="47.81431045245803" lon="11.837993549152205"><ele>717.0</ele><time>2026-04-18T15:19:40Z</time></trkpt><trkpt lat="47.81411993331287" lon="11.838026360789037"><ele>716.0</ele><time>2026-04-18T15:19:41Z</time></trkpt><trkpt lat="47.81393305713438" lon="11.838069548538613"><ele>715.0</ele><time>2026-04-18T15:19:42Z</time></trkpt><trkpt lat="47.813746090926365" lon="11.838123114307699"><ele>714.0</ele><time>2026-04-18T15:19:43Z</time></trkpt><trkpt lat="47.813565025544825" lon="11.838185097214255"><ele>712.6666666666666</ele><time>2026-04-18T15:19:44Z</time></trkpt><trkpt lat="47.81338491410475" lon="11.838245280998425"><ele>711.3333333333333</ele><time>2026-04-18T15:19:45Z</time></trkpt><trkpt lat="47.8132038976117" lon="11.838298284148228"><ele>710.0</ele><time>2026-04-18T15:19:46Z</time></trkpt><trkpt lat="47.813021842190174" lon="11.838337035317387"><ele>710.0</ele><time>2026-04-18T15:19:47Z</time></trkpt><trkpt lat="47.81282747305593" lon="11.838384706260724"><ele>710.0</ele><time>2026-04-18T15:19:48Z</time></trkpt><trkpt lat="47.812640522550375" lon="11.83841006270855"><ele>710.0</ele><time>2026-04-18T15:19:49Z</time></trkpt><trkpt lat="47.81246143187299" lon="11.838422631706928"><ele>705.6666666666666</ele><time>2026-04-18T15:19:50Z</time></trkpt><trkpt lat="47.81227000782501" lon="11.838427769384518"><ele>701.3333333333334</ele><time>2026-04-18T15:19:51Z</time></trkpt><trkpt lat="47.81207411250703" lon="11.838441555377262"><ele>697.0</ele><time>2026-04-18T15:19:52Z</time></trkpt><trkpt lat="47.811880432849414" lon="11.838451535017828"><ele>697.0</ele><time>2026-04-18T15:19:53Z</time></trkpt><trkpt lat="47.81169225784117" lon="11.838464830359044"><ele>697.0</ele><time>2026-04-18T15:19:54Z</time></trkpt><trkpt lat="47.81149879910115" lon="11.838483461948039"><ele>697.0</ele><time>2026-04-18T15:19:55Z</time></trkpt><trkpt lat="47.81131121992041" lon="11.838491734461407"><ele>695.6666666666667</ele><time>2026-04-18T15:19:56Z</time></trkpt><trkpt lat="47.811127334964375" lon="11.838491454932806"><ele>694.3333333333334</ele><time>2026-04-18T15:19:57Z</time></trkpt><trkpt lat="47.810943791493074" lon="11.838484276598628"><ele>693.0</ele><time>2026-04-18T15:19:58Z</time></trkpt><trkpt lat="47.810763926676465" lon="11.838473426739966"><ele>694.6666666666666</ele><time>2026-04-18T15:19:59Z</time></trkpt><trkpt lat="47.8105908641123" lon="11.838459190325826"><ele>696.3333333333333</ele><time>2026-04-18T15:20:00Z</time></trkpt><trkpt lat="47.81042267958622" lon="11.838445245151082"><ele>698.0</ele><time>2026-04-18T15:20:01Z</time></trkpt><trkpt lat="47.810267706856386" lon="11.838444537470972"><ele>699.6666666666666</ele><time>2026-04-18T15:20:02Z</time></trkpt><trkpt lat="47.810112178437464" lon="11.838434718144445"><ele>701.3333333333334</ele><time>2026-04-18T15:20:03Z</time></trkpt><trkpt lat="47.80995110865983" lon="11.83842262672556"><ele>703.0</ele><time>2026-04-18T15:20:04Z</time></trkpt><trkpt lat="47.809782529110485" lon="11.838402327069042"><ele>703.0</ele><time>2026-04-18T15:20:05Z</time></trkpt><trkpt lat="47.809612174355905" lon="11.838388935448792"><ele>703.0</ele><time>2026-04-18T15:20:06Z</time></trkpt><trkpt lat="47.809436408195296" lon="11.838377974959059"><ele>703.0</ele><time>2026-04-18T15:20:07Z</time></trkpt><trkpt lat="47.80925447800114" lon="11.83837041448038"><ele>705.6666666666667</ele><time>2026-04-18T15:20:08Z</time></trkpt><trkpt lat="47.809068837609026" lon="11.83835854611863"><ele>708.3333333333334</ele><time>2026-04-18T15:20:09Z</time></trkpt><trkpt lat="47.80888580998986" lon="11.838347909496356"><ele>711.0</ele><time>2026-04-18T15:20:10Z</time></trkpt><trkpt lat="47.80870851929941" lon="11.838346837284043"><ele>711.0</ele><time>2026-04-18T15:20:11Z</time></trkpt><trkpt lat="47.80852790942649" lon="11.838329661002687"><ele>711.0</ele><time>2026-04-18T15:20:12Z</time></trkpt><trkpt lat="47.8083464160553" lon="11.83831222873963"><ele>711.0</ele><time>2026-04-18T15:20:13Z</time></trkpt><trkpt lat="47.80817532248158" lon="11.838304933412054"><ele>711.0</ele><time>2026-04-18T15:20:14Z</time></trkpt><trkpt lat="47.80799573545812" lon="11.838290639140824"><ele>711.0</ele><time>2026-04-18T15:20:15Z</time></trkpt><trkpt lat="47.807816099113396" lon="11.838276921655902"><ele>711.0</ele><time>2026-04-18T15:20:16Z</time></trkpt><trkpt lat="47.80762939529026" lon="11.838265286965617"><ele>711.0</ele><time>2026-04-18T15:20:17Z</time></trkpt><trkpt lat="47.80744126854481" lon="11.838251532072611"><ele>711.0</ele><time>2026-04-18T15:20:18Z</time></trkpt><trkpt lat="47.807245148750184" lon="11.838239561951507"><ele>711.0</ele><time>2026-04-18T15:20:19Z</time></trkpt><trkpt lat="47.8070492299613" lon="11.838228125452913"><ele>711.0</ele><time>2026-04-18T15:20:20Z</time></trkpt><trkpt lat="47.80686057818715" lon="11.838219013057378"><ele>711.0</ele><time>2026-04-18T15:20:21Z</time></trkpt><trkpt lat="47.80667898897559" lon="11.838203075337178"><ele>711.0</ele><time>2026-04-18T15:20:22Z</time></trkpt><trkpt lat="47.80650166806333" lon="11.83819387743652"><ele>710.3333333333334</ele><time>2026-04-18T15:20:23Z</time></trkpt><trkpt lat="47.80632789082981" lon="11.838185005220787"><ele>709.6666666666667</ele><time>2026-04-18T15:20:24Z</time></trkpt><trkpt lat="47.80615733691787" lon="11.83817905791952"><ele>709.0</ele><time>2026-04-18T15:20:25Z</time></trkpt><trkpt lat="47.80597420496605" lon="11.838159974570926"><ele>709.0</ele><time>2026-04-18T15:20:26Z</time></trkpt><trkpt lat="47.805789477519745" lon="11.838143636228406"><ele>709.0</ele><time>2026-04-18T15:20:27Z</time></trkpt><trkpt lat="47.80559522967742" lon="11.838131234134561"><ele>709.0</ele><time>2026-04-18T15:20:28Z</time></trkpt><trkpt lat="47.8053958464466" lon="11.838120351944442"><ele>709.0</ele><time>2026-04-18T15:20:29Z</time></trkpt><trkpt lat="47.80520053103214" lon="11.838106197912632"><ele>709.0</ele><time>2026-04-18T15:20:30Z</time></trkpt><trkpt lat="47.805007171883574" lon="11.838092553779196"><ele>709.0</ele><time>2026-04-18T15:20:31Z</time></trkpt><trkpt lat="47.804813159722094" lon="11.838078215799184"><ele>708.6666666666667</ele><time>2026-04-18T15:20:32Z</time></trkpt><trkpt lat="47.80461911810071" lon="11.838063335697253"><ele>708.3333333333334</ele><time>2026-04-18T15:20:33Z</time></trkpt><trkpt lat="47.804426217301206" lon="11.838051618470105"><ele>708.0</ele><time>2026-04-18T15:20:34Z</time></trkpt><trkpt lat="47.804231255332475" lon="11.838038281177964"><ele>709.0</ele><time>2026-04-18T15:20:35Z</time></trkpt><trkpt lat="47.80403521636275" lon="11.838022438924016"><ele>710.0</ele><time>2026-04-18T15:20:36Z</time></trkpt><trkpt lat="47.803838507076804" lon="11.838008364644946"><ele>711.0</ele><time>2026-04-18T15:20:37Z</time></trkpt><trkpt lat="47.80363956967437" lon="11.83799744505077"><ele>711.0</ele><time>2026-04-18T15:20:38Z</time></trkpt><trkpt lat="47.80344030026567" lon="11.837984516900873"><ele>711.0</ele><time>2026-04-18T15:20:39Z</time></trkpt><trkpt lat="47.80324155583584" lon="11.83797085214196"><ele>711.0</ele><time>2026-04-18T15:20:40Z</time></trkpt><trkpt lat="47.803042997952026" lon="11.837957208763955"><ele>711.0</ele><time>2026-04-18T15:20:41Z</time></trkpt><trkpt lat="47.802845815514836" lon="11.837944025333433"><ele>711.0</ele><time>2026-04-18T15:20:42Z</time></trkpt><trkpt lat="47.80264976844121" lon="11.837930291190313"><ele>711.0</ele><time>2026-04-18T15:20:43Z</time></trkpt><trkpt lat="47.80245441668388" lon="11.837916681407117"><ele>711.0</ele><time>2026-04-18T15:20:44Z</time></trkpt><trkpt lat="47.80226210685584" lon="11.83790351176642"><ele>711.0</ele><time>2026-04-18T15:20:45Z</time></trkpt><trkpt lat="47.80207120433735" lon="11.83789061647109"><ele>711.0</ele><time>2026-04-18T15:20:46Z</time></trkpt><trkpt lat="47.80188403781125" lon="11.837873429019295"><ele>710.3333333333334</ele><time>2026-04-18T15:20:47Z</time></trkpt><trkpt lat="47.801695195258894" lon="11.837862569592884"><ele>709.6666666666667</ele><time>2026-04-18T15:20:48Z</time></trkpt><trkpt lat="47.80150474975989" lon="11.837849642679409"><ele>709.0</ele><time>2026-04-18T15:20:49Z</time></trkpt><trkpt lat="47.801313642927575" lon="11.83783728140888"><ele>709.0</ele><time>2026-04-18T15:20:50Z</time></trkpt><trkpt lat="47.80112307871211" lon="11.837822752805044"><ele>709.0</ele><time>2026-04-18T15:20:51Z</time></trkpt><trkpt lat="47.800930992460934" lon="11.837810356318666"><ele>709.0</ele><time>2026-04-18T15:20:52Z</time></trkpt><trkpt lat="47.80073676566492" lon="11.837798012680999"><ele>709.0</ele><time>2026-04-18T15:20:53Z</time></trkpt><trkpt lat="47.800543879275025" lon="11.83778506347451"><ele>709.0</ele><time>2026-04-18T15:20:54Z</time></trkpt><trkpt lat="47.80035394390179" lon="11.837770946207186"><ele>709.0</ele><time>2026-04-18T15:20:55Z</time></trkpt><trkpt lat="47.80016356947015" lon="11.837758241245488"><ele>709.0</ele><time>2026-04-18T15:20:56Z</time></trkpt><trkpt lat="47.79997424692096" lon="11.837744478041893"><ele>709.0</ele><time>2026-04-18T15:20:57Z</time></trkpt><trkpt lat="47.7997853902695" lon="11.837730435477294"><ele>709.0</ele><time>2026-04-18T15:20:58Z</time></trkpt><trkpt lat="47.79959805949246" lon="11.837718639541345"><ele>709.0</ele><time>2026-04-18T15:20:59Z</time></trkpt><trkpt lat="47.79940925229079" lon="11.837707094904163"><ele>709.0</ele><time>2026-04-18T15:21:00Z</time></trkpt><trkpt lat="47.79922098811276" lon="11.837704409459686"><ele>709.0</ele><time>2026-04-18T15:21:01Z</time></trkpt><trkpt lat="47.79903635963933" lon="11.837702783812382"><ele>712.0</ele><time>2026-04-18T15:21:02Z</time></trkpt><trkpt lat="47.79885509875644" lon="11.837719603701546"><ele>715.0</ele><time>2026-04-18T15:21:03Z</time></trkpt><trkpt lat="47.79867498548464" lon="11.837743834896322"><ele>718.0</ele><time>2026-04-18T15:21:04Z</time></trkpt><trkpt lat="47.79850293430004" lon="11.837773597074984"><ele>719.75</ele><time>2026-04-18T15:21:05Z</time></trkpt><trkpt lat="47.79833513365638" lon="11.837824046219612"><ele>721.5</ele><time>2026-04-18T15:21:06Z</time></trkpt><trkpt lat="47.79818864768032" lon="11.837880563525193"><ele>723.25</ele><time>2026-04-18T15:21:07Z</time></trkpt><trkpt lat="47.7980680463527" lon="11.837936624744492"><ele>725.0</ele><time>2026-04-18T15:21:08Z</time></trkpt><trkpt lat="47.797939769668076" lon="11.83799879369364"><ele>725.0</ele><time>2026-04-18T15:21:09Z</time></trkpt><trkpt lat="47.79782077722262" lon="11.83806507782713"><ele>725.0</ele><time>2026-04-18T15:21:10Z</time></trkpt><trkpt lat="47.79769488836744" lon="11.83814120683871"><ele>725.0</ele><time>2026-04-18T15:21:11Z</time></trkpt><trkpt lat="47.79756347784318" lon="11.838231384380121"><ele>725.0</ele><time>2026-04-18T15:21:12Z</time></trkpt><trkpt lat="47.79743130534028" lon="11.83833184304917"><ele>726.0</ele><time>2026-04-18T15:21:13Z</time></trkpt><trkpt lat="47.79730656452281" lon="11.838438833422472"><ele>727.0</ele><time>2026-04-18T15:21:14Z</time></trkpt><trkpt lat="47.797183550356515" lon="11.838547087083583"><ele>728.0</ele><time>2026-04-18T15:21:15Z</time></trkpt><trkpt lat="47.797063881789505" lon="11.838648228825534"><ele>729.0</ele><time>2026-04-18T15:21:16Z</time></trkpt><trkpt lat="47.79694264316549" lon="11.838755639112687"><ele>725.25</ele><time>2026-04-18T15:21:17Z</time></trkpt><trkpt lat="47.79682711621245" lon="11.838865054682827"><ele>721.5</ele><time>2026-04-18T15:21:18Z</time></trkpt><trkpt lat="47.79671272126629" lon="11.838975619507606"><ele>717.75</ele><time>2026-04-18T15:21:19Z</time></trkpt><trkpt lat="47.79660216231991" lon="11.839074803096178"><ele>714.0</ele><time>2026-04-18T15:21:20Z</time></trkpt><trkpt lat="47.796499491178714" lon="11.839164908174183"><ele>714.0</ele><time>2026-04-18T15:21:21Z</time></trkpt><trkpt lat="47.7964024629081" lon="11.83925575239736"><ele>714.0</ele><time>2026-04-18T15:21:22Z</time></trkpt><trkpt lat="47.796316725976006" lon="11.839325781580142"><ele>714.0</ele><time>2026-04-18T15:21:23Z</time></trkpt><trkpt lat="47.796228725842646" lon="11.839394109805676"><ele>714.0</ele><time>2026-04-18T15:21:24Z</time></trkpt><trkpt lat="47.7961433187726" lon="11.839461040947437"><ele>714.0</ele><time>2026-04-18T15:21:25Z</time></trkpt><trkpt lat="47.79605568531681" lon="11.839517601392826"><ele>713.6</ele><time>2026-04-18T15:21:26Z</time></trkpt><trkpt lat="47.79596269445069" lon="11.839572050248181"><ele>713.2</ele><time>2026-04-18T15:21:27Z</time></trkpt><trkpt lat="47.795860107587934" lon="11.839638284855978"><ele>712.8000000000001</ele><time>2026-04-18T15:21:28Z</time></trkpt><trkpt lat="47.79574933908528" lon="11.839699235294656"><ele>712.4000000000001</ele><time>2026-04-18T15:21:29Z</time></trkpt><trkpt lat="47.79563738286912" lon="11.839745703957938"><ele>712.0</ele><time>2026-04-18T15:21:30.001Z</time></trkpt><trkpt lat="47.79552515207967" lon="11.839785474491864"><ele>712.0</ele><time>2026-04-18T15:21:31.001Z</time></trkpt><trkpt lat="47.795417585671416" lon="11.839827208703278"><ele>712.0</ele><time>2026-04-18T15:21:32.001Z</time></trkpt><trkpt lat="47.79532662618691" lon="11.839862739472801"><ele>712.0</ele><time>2026-04-18T15:21:33.001Z</time></trkpt><trkpt lat="47.795243737185345" lon="11.839893642907931"><ele>712.0</ele><time>2026-04-18T15:21:34.001Z</time></trkpt><trkpt lat="47.79515871166387" lon="11.839925242534447"><ele>712.0</ele><time>2026-04-18T15:21:35.001Z</time></trkpt><trkpt lat="47.79505186811799" lon="11.83997052951394"><ele>711.75</ele><time>2026-04-18T15:21:36.001Z</time></trkpt><trkpt lat="47.794925669505254" lon="11.840022527317524"><ele>711.5</ele><time>2026-04-18T15:21:37.001Z</time></trkpt><trkpt lat="47.79480483512919" lon="11.840076147568796"><ele>711.25</ele><time>2026-04-18T15:21:38.001Z</time></trkpt><trkpt lat="47.794702326458804" lon="11.840125370757914"><ele>711.0</ele><time>2026-04-18T15:21:39.001Z</time></trkpt><trkpt lat="47.79460693719866" lon="11.840175665903377"><ele>711.0</ele><time>2026-04-18T15:21:40.001Z</time></trkpt><trkpt lat="47.79454369510394" lon="11.84021082088874"><ele>711.0</ele><time>2026-04-18T15:21:41.001Z</time></trkpt><trkpt lat="47.794442069803054" lon="11.840273422552597"><ele>711.0</ele><time>2026-04-18T15:21:43.001Z</time></trkpt><trkpt lat="47.7943644899667" lon="11.840322041585877"><ele>711.0</ele><time>2026-04-18T15:21:45.001Z</time></trkpt><trkpt lat="47.794278154191105" lon="11.840370213105428"><ele>711.0</ele><time>2026-04-18T15:21:47.001Z</time></trkpt><trkpt lat="47.79415504851014" lon="11.840404129368101"><ele>711.0</ele><time>2026-04-18T15:21:49.001Z</time></trkpt><trkpt lat="47.79409184319746" lon="11.840451221448925"><ele>711.0</ele><time>2026-04-18T15:21:50.001Z</time></trkpt><trkpt lat="47.79403102494646" lon="11.840484527603282"><ele>711.0</ele><time>2026-04-18T15:21:51.001Z</time></trkpt><trkpt lat="47.793967618507864" lon="11.8404937971948"><ele>711.0</ele><time>2026-04-18T15:21:52.001Z</time></trkpt><trkpt lat="47.793899049131255" lon="11.840505938646784"><ele>711.0</ele><time>2026-04-18T15:21:53.001Z</time></trkpt><trkpt lat="47.79381534098109" lon="11.840518186793206"><ele>711.0</ele><time>2026-04-18T15:21:54.001Z</time></trkpt><trkpt lat="47.79371144977339" lon="11.84051968897594"><ele>711.0</ele><time>2026-04-18T15:21:55.001Z</time></trkpt><trkpt lat="47.79357292191783" lon="11.840492476806004"><ele>711.0</ele><time>2026-04-18T15:21:56.001Z</time></trkpt><trkpt lat="47.79343940947422" lon="11.840451823584969"><ele>711.0</ele><time>2026-04-18T15:21:57.001Z</time></trkpt><trkpt lat="47.79331449811307" lon="11.840416057587719"><ele>711.0</ele><time>2026-04-18T15:21:58.001Z</time></trkpt><trkpt lat="47.79320285814758" lon="11.840378903138992"><ele>711.0</ele><time>2026-04-18T15:21:59.001Z</time></trkpt><trkpt lat="47.79309606444072" lon="11.84034791141673"><ele>711.0</ele><time>2026-04-18T15:22:00.001Z</time></trkpt><trkpt lat="47.79299048160923" lon="11.840317334265292"><ele>711.0</ele><time>2026-04-18T15:22:01.001Z</time></trkpt><trkpt lat="47.792885981225396" lon="11.840282631431476"><ele>711.0</ele><time>2026-04-18T15:22:02.001Z</time></trkpt><trkpt lat="47.792780566928364" lon="11.840247007953922"><ele>711.0</ele><time>2026-04-18T15:22:03.001Z</time></trkpt><trkpt lat="47.792657090163274" lon="11.840206034566663"><ele>711.0</ele><time>2026-04-18T15:22:04.001Z</time></trkpt><trkpt lat="47.79253726152595" lon="11.840172703553804"><ele>711.0</ele><time>2026-04-18T15:22:05.001Z</time></trkpt><trkpt lat="47.79242939347479" lon="11.840135662909036"><ele>711.0</ele><time>2026-04-18T15:22:06.001Z</time></trkpt><trkpt lat="47.79232110597448" lon="11.840096907638765"><ele>711.0</ele><time>2026-04-18T15:22:07.001Z</time></trkpt><trkpt lat="47.79221009363559" lon="11.84006405166152"><ele>711.0</ele><time>2026-04-18T15:22:08.001Z</time></trkpt><trkpt lat="47.7920968011266" lon="11.840031361242554"><ele>711.0</ele><time>2026-04-18T15:22:09.001Z</time></trkpt><trkpt lat="47.79198105733512" lon="11.839988753470843"><ele>711.0</ele><time>2026-04-18T15:22:10.001Z</time></trkpt><trkpt lat="47.79186165966539" lon="11.839946712063995"><ele>711.0</ele><time>2026-04-18T15:22:11.001Z</time></trkpt><trkpt lat="47.79174486050195" lon="11.839903291962385"><ele>711.5</ele><time>2026-04-18T15:22:12.001Z</time></trkpt><trkpt lat="47.79162927998464" lon="11.83986039524193"><ele>712.0</ele><time>2026-04-18T15:22:13.001Z</time></trkpt><trkpt lat="47.79151247134976" lon="11.83981880978157"><ele>712.5</ele><time>2026-04-18T15:22:14.001Z</time></trkpt><trkpt lat="47.79139876002237" lon="11.83977694750194"><ele>713.0</ele><time>2026-04-18T15:22:15.001Z</time></trkpt><trkpt lat="47.791288528066715" lon="11.839738949692881"><ele>713.0</ele><time>2026-04-18T15:22:16.001Z</time></trkpt><trkpt lat="47.7911801501047" lon="11.839697252322024"><ele>713.0</ele><time>2026-04-18T15:22:17.001Z</time></trkpt><trkpt lat="47.791072955331686" lon="11.839657742601897"><ele>713.0</ele><time>2026-04-18T15:22:18.001Z</time></trkpt><trkpt lat="47.79096676844" lon="11.839618222522242"><ele>713.0</ele><time>2026-04-18T15:22:19.001Z</time></trkpt><trkpt lat="47.79085976938061" lon="11.839573373132835"><ele>713.0</ele><time>2026-04-18T15:22:20.001Z</time></trkpt><trkpt lat="47.790748754705724" lon="11.839530573488677"><ele>712.75</ele><time>2026-04-18T15:22:21.001Z</time></trkpt><trkpt lat="47.790634216166836" lon="11.839490477906537"><ele>712.5</ele><time>2026-04-18T15:22:22.001Z</time></trkpt><trkpt lat="47.79051878114907" lon="11.839445090552438"><ele>712.25</ele><time>2026-04-18T15:22:23.001Z</time></trkpt><trkpt lat="47.79040110086811" lon="11.839398870438773"><ele>712.0</ele><time>2026-04-18T15:22:24Z</time></trkpt><trkpt lat="47.79028108830149" lon="11.839357457639103"><ele>712.5</ele><time>2026-04-18T15:22:25Z</time></trkpt><trkpt lat="47.790164794519036" lon="11.839311165861238"><ele>713.0</ele><time>2026-04-18T15:22:26Z</time></trkpt><trkpt lat="47.79005509711082" lon="11.83927035071956"><ele>713.5</ele><time>2026-04-18T15:22:27Z</time></trkpt><trkpt lat="47.78995074193807" lon="11.839230022442997"><ele>714.0</ele><time>2026-04-18T15:22:28Z</time></trkpt><trkpt lat="47.78984447254289" lon="11.839189297762836"><ele>714.0</ele><time>2026-04-18T15:22:29Z</time></trkpt><trkpt lat="47.789737912444394" lon="11.839148390728965"><ele>714.0</ele><time>2026-04-18T15:22:30Z</time></trkpt><trkpt lat="47.789618740613015" lon="11.839105450320242"><ele>714.0</ele><time>2026-04-18T15:22:31Z</time></trkpt><trkpt lat="47.78949972615125" lon="11.839063035408953"><ele>714.0</ele><time>2026-04-18T15:22:32Z</time></trkpt><trkpt lat="47.78938289222862" lon="11.839017018421249"><ele>714.0</ele><time>2026-04-18T15:22:33Z</time></trkpt><trkpt lat="47.789271410543456" lon="11.838974154717103"><ele>714.0</ele><time>2026-04-18T15:22:34Z</time></trkpt><trkpt lat="47.78916383853283" lon="11.838934933947925"><ele>714.0</ele><time>2026-04-18T15:22:35Z</time></trkpt><trkpt lat="47.789061251823576" lon="11.83889572863876"><ele>714.0</ele><time>2026-04-18T15:22:36Z</time></trkpt><trkpt lat="47.788961042653355" lon="11.838853395266138"><ele>714.0</ele><time>2026-04-18T15:22:37Z</time></trkpt><trkpt lat="47.78885899320022" lon="11.838813036792068"><ele>714.0</ele><time>2026-04-18T15:22:38Z</time></trkpt><trkpt lat="47.78875956747479" lon="11.838768997953025"><ele>714.0</ele><time>2026-04-18T15:22:39Z</time></trkpt><trkpt lat="47.78866712378322" lon="11.838728010810728"><ele>714.0</ele><time>2026-04-18T15:22:40Z</time></trkpt><trkpt lat="47.788580568716014" lon="11.838692064330834"><ele>714.0</ele><time>2026-04-18T15:22:41Z</time></trkpt><trkpt lat="47.788497960464106" lon="11.838662553580452"><ele>714.0</ele><time>2026-04-18T15:22:42Z</time></trkpt><trkpt lat="47.78841866442807" lon="11.838635431316819"><ele>714.0</ele><time>2026-04-18T15:22:43Z</time></trkpt><trkpt lat="47.788342251639065" lon="11.838606202821136"><ele>714.0</ele><time>2026-04-18T15:22:44Z</time></trkpt><trkpt lat="47.78826982751724" lon="11.838576085780142"><ele>714.0</ele><time>2026-04-18T15:22:45Z</time></trkpt><trkpt lat="47.788201674846896" lon="11.838548458612212"><ele>714.0</ele><time>2026-04-18T15:22:46Z</time></trkpt><trkpt lat="47.788134046899614" lon="11.838519185703772"><ele>714.0</ele><time>2026-04-18T15:22:47Z</time></trkpt><trkpt lat="47.78806363071512" lon="11.838493398116366"><ele>714.0</ele><time>2026-04-18T15:22:48Z</time></trkpt><trkpt lat="47.78798930611067" lon="11.838465035907895"><ele>714.0</ele><time>2026-04-18T15:22:49Z</time></trkpt><trkpt lat="47.78791241956947" lon="11.838432634428091"><ele>714.0</ele><time>2026-04-18T15:22:50Z</time></trkpt><trkpt lat="47.78783291418959" lon="11.838399955513825"><ele>714.0</ele><time>2026-04-18T15:22:51Z</time></trkpt><trkpt lat="47.78776048906039" lon="11.838372302723142"><ele>714.0</ele><time>2026-04-18T15:22:52Z</time></trkpt><trkpt lat="47.78769736603184" lon="11.838349491996114"><ele>714.0</ele><time>2026-04-18T15:22:53Z</time></trkpt><trkpt lat="47.787619292824424" lon="11.838329577344638"><ele>714.0</ele><time>2026-04-18T15:22:55Z</time></trkpt><trkpt lat="47.78755311232287" lon="11.838275074371232"><ele>714.0</ele><time>2026-04-18T15:22:58Z</time></trkpt><trkpt lat="47.78748888953055" lon="11.838249877146966"><ele>714.0</ele><time>2026-04-18T15:23:44.001Z</time></trkpt><trkpt lat="47.7873803564634" lon="11.83823744739436"><ele>714.2</ele><time>2026-04-18T15:23:47.001Z</time></trkpt><trkpt lat="47.78731571906254" lon="11.838189722070403"><ele>714.4000000000001</ele><time>2026-04-18T15:23:48.001Z</time></trkpt><trkpt lat="47.78723232112333" lon="11.838142688866686"><ele>714.6</ele><time>2026-04-18T15:23:49.001Z</time></trkpt><trkpt lat="47.78711285308069" lon="11.838067989720015"><ele>714.8</ele><time>2026-04-18T15:23:50.001Z</time></trkpt><trkpt lat="47.787018040596074" lon="11.837988672854882"><ele>715.0</ele><time>2026-04-18T15:23:51.001Z</time></trkpt><trkpt lat="47.786928862915204" lon="11.837911253027931"><ele>715.25</ele><time>2026-04-18T15:23:52.001Z</time></trkpt><trkpt lat="47.78683580737263" lon="11.837821333179141"><ele>715.5</ele><time>2026-04-18T15:23:53.001Z</time></trkpt><trkpt lat="47.78673119995281" lon="11.83770933036856"><ele>715.75</ele><time>2026-04-18T15:23:54.001Z</time></trkpt><trkpt lat="47.7866332869127" lon="11.837595687408706"><ele>716.0</ele><time>2026-04-18T15:23:55.001Z</time></trkpt><trkpt lat="47.786536755101956" lon="11.837484591557647"><ele>714.75</ele><time>2026-04-18T15:23:56.001Z</time></trkpt><trkpt lat="47.7864428673845" lon="11.837374594351365"><ele>713.5</ele><time>2026-04-18T15:23:57.001Z</time></trkpt><trkpt lat="47.78634919279385" lon="11.83726836982059"><ele>712.25</ele><time>2026-04-18T15:23:58.001Z</time></trkpt><trkpt lat="47.7862599871152" lon="11.837166305278261"><ele>711.0</ele><time>2026-04-18T15:23:59.001Z</time></trkpt><trkpt lat="47.78617510283291" lon="11.837071302095342"><ele>711.0</ele><time>2026-04-18T15:24:00.001Z</time></trkpt><trkpt lat="47.78608836386713" lon="11.83698723860392"><ele>711.0</ele><time>2026-04-18T15:24:01.001Z</time></trkpt><trkpt lat="47.78599906684869" lon="11.836908276656692"><ele>711.0</ele><time>2026-04-18T15:24:02.001Z</time></trkpt><trkpt lat="47.78590501056986" lon="11.836830301240528"><ele>711.0</ele><time>2026-04-18T15:24:03.001Z</time></trkpt><trkpt lat="47.7858043355674" lon="11.83676024929341"><ele>711.0</ele><time>2026-04-18T15:24:04.001Z</time></trkpt><trkpt lat="47.78570022324038" lon="11.836694060234173"><ele>711.25</ele><time>2026-04-18T15:24:05.001Z</time></trkpt><trkpt lat="47.785591281128184" lon="11.836624009239834"><ele>711.5</ele><time>2026-04-18T15:24:06.001Z</time></trkpt><trkpt lat="47.78547986533885" lon="11.836553138973162"><ele>711.75</ele><time>2026-04-18T15:24:07.001Z</time></trkpt><trkpt lat="47.785368506443234" lon="11.83648529105283"><ele>712.0</ele><time>2026-04-18T15:24:08.001Z</time></trkpt><trkpt lat="47.785260620262136" lon="11.836413446051141"><ele>712.6</ele><time>2026-04-18T15:24:09.001Z</time></trkpt><trkpt lat="47.78515894809694" lon="11.83634066583107"><ele>713.2</ele><time>2026-04-18T15:24:10.001Z</time></trkpt><trkpt lat="47.785063560356264" lon="11.836264742942715"><ele>713.8</ele><time>2026-04-18T15:24:11.001Z</time></trkpt><trkpt lat="47.78497322875355" lon="11.836187466849394"><ele>714.4</ele><time>2026-04-18T15:24:12.001Z</time></trkpt><trkpt lat="47.78488840425463" lon="11.836103136570017"><ele>715.0</ele><time>2026-04-18T15:24:13.001Z</time></trkpt><trkpt lat="47.78480329948287" lon="11.836009645652638"><ele>714.75</ele><time>2026-04-18T15:24:14.001Z</time></trkpt><trkpt lat="47.784716339157605" lon="11.835908366520782"><ele>714.5</ele><time>2026-04-18T15:24:15.001Z</time></trkpt><trkpt lat="47.784626369655584" lon="11.835801225950542"><ele>714.25</ele><time>2026-04-18T15:24:16.001Z</time></trkpt><trkpt lat="47.784532668319926" lon="11.83569672940588"><ele>714.0</ele><time>2026-04-18T15:24:17.001Z</time></trkpt><trkpt lat="47.784441212944635" lon="11.83559207656734"><ele>714.0</ele><time>2026-04-18T15:24:18.001Z</time></trkpt><trkpt lat="47.78435081809524" lon="11.835491389069876"><ele>714.0</ele><time>2026-04-18T15:24:19.001Z</time></trkpt><trkpt lat="47.784260061863634" lon="11.835393982925737"><ele>714.0</ele><time>2026-04-18T15:24:20.001Z</time></trkpt><trkpt lat="47.78417253285035" lon="11.835297910906485"><ele>714.0</ele><time>2026-04-18T15:24:21.001Z</time></trkpt><trkpt lat="47.78408495918445" lon="11.835205607460214"><ele>714.0</ele><time>2026-04-18T15:24:22.001Z</time></trkpt><trkpt lat="47.783994767790944" lon="11.835117057648256"><ele>714.2</ele><time>2026-04-18T15:24:23.001Z</time></trkpt><trkpt lat="47.78390632067592" lon="11.83503025514398"><ele>714.4000000000001</ele><time>2026-04-18T15:24:24.001Z</time></trkpt><trkpt lat="47.783812608533786" lon="11.834947391075112"><ele>714.6</ele><time>2026-04-18T15:24:25.001Z</time></trkpt><trkpt lat="47.783716957235036" lon="11.83486655795306"><ele>714.8</ele><time>2026-04-18T15:24:26Z</time></trkpt><trkpt lat="47.7836218442518" lon="11.834783610945907"><ele>715.0</ele><time>2026-04-18T15:24:27Z</time></trkpt><trkpt lat="47.78352625737736" lon="11.834699402023112"><ele>714.8</ele><time>2026-04-18T15:24:28Z</time></trkpt><trkpt lat="47.78343078842552" lon="11.834615342360413"><ele>714.6</ele><time>2026-04-18T15:24:29Z</time></trkpt><trkpt lat="47.7833342856173" lon="11.8345336553232"><ele>714.4000000000001</ele><time>2026-04-18T15:24:30Z</time></trkpt><trkpt lat="47.78324087075189" lon="11.834443971861601"><ele>714.2</ele><time>2026-04-18T15:24:31Z</time></trkpt><trkpt lat="47.783144907520814" lon="11.83436334075738"><ele>714.0</ele><time>2026-04-18T15:24:32Z</time></trkpt><trkpt lat="47.78305180916304" lon="11.834272517171597"><ele>714.0</ele><time>2026-04-18T15:24:33Z</time></trkpt><trkpt lat="47.782959930755226" lon="11.834182328748659"><ele>714.0</ele><time>2026-04-18T15:24:34Z</time></trkpt><trkpt lat="47.78286572133202" lon="11.834084751995858"><ele>714.0</ele><time>2026-04-18T15:24:35Z</time></trkpt><trkpt lat="47.782770005822975" lon="11.833981322403366"><ele>714.0</ele><time>2026-04-18T15:24:36Z</time></trkpt><trkpt lat="47.78267534904156" lon="11.833870351520899"><ele>714.4000000000001</ele><time>2026-04-18T15:24:37Z</time></trkpt><trkpt lat="47.78258600325616" lon="11.833758275977184"><ele>714.8</ele><time>2026-04-18T15:24:38Z</time></trkpt><trkpt lat="47.78250490278182" lon="11.833651455029678"><ele>715.2</ele><time>2026-04-18T15:24:39Z</time></trkpt><trkpt lat="47.78242681217139" lon="11.833544516203588"><ele>715.5999999999999</ele><time>2026-04-18T15:24:40Z</time></trkpt><trkpt lat="47.78235251661978" lon="11.833433250746392"><ele>716.0</ele><time>2026-04-18T15:24:41Z</time></trkpt><trkpt lat="47.78228008959728" lon="11.83331580842821"><ele>714.75</ele><time>2026-04-18T15:24:42Z</time></trkpt><trkpt lat="47.78220485227878" lon="11.833197225166016"><ele>713.5</ele><time>2026-04-18T15:24:43Z</time></trkpt><trkpt lat="47.782124685656164" lon="11.833075182917998"><ele>712.25</ele><time>2026-04-18T15:24:44Z</time></trkpt><trkpt lat="47.78204418860186" lon="11.832941761842687"><ele>711.0</ele><time>2026-04-18T15:24:45Z</time></trkpt><trkpt lat="47.78196250959602" lon="11.832802869526251"><ele>711.0</ele><time>2026-04-18T15:24:46Z</time></trkpt><trkpt lat="47.781880099542526" lon="11.832665305952698"><ele>711.0</ele><time>2026-04-18T15:24:47Z</time></trkpt><trkpt lat="47.78179700718155" lon="11.832528301517575"><ele>711.0</ele><time>2026-04-18T15:24:48Z</time></trkpt><trkpt lat="47.781710465251216" lon="11.832392069109186"><ele>711.0</ele><time>2026-04-18T15:24:49Z</time></trkpt><trkpt lat="47.7816232105028" lon="11.832255893804748"><ele>712.25</ele><time>2026-04-18T15:24:50Z</time></trkpt><trkpt lat="47.78153342341199" lon="11.832120097321308"><ele>713.5</ele><time>2026-04-18T15:24:51Z</time></trkpt><trkpt lat="47.78144491868664" lon="11.831977906473394"><ele>714.75</ele><time>2026-04-18T15:24:52Z</time></trkpt><trkpt lat="47.7813535906935" lon="11.831837833851392"><ele>716.0</ele><time>2026-04-18T15:24:53Z</time></trkpt><trkpt lat="47.78126099838529" lon="11.831695218150045"><ele>716.0</ele><time>2026-04-18T15:24:54Z</time></trkpt><trkpt lat="47.78116540270032" lon="11.831554576171802"><ele>716.0</ele><time>2026-04-18T15:24:55Z</time></trkpt><trkpt lat="47.78106764604974" lon="11.831418407193949"><ele>716.0</ele><time>2026-04-18T15:24:56Z</time></trkpt><trkpt lat="47.78096767567141" lon="11.831280225914291"><ele>716.0</ele><time>2026-04-18T15:24:57Z</time></trkpt><trkpt lat="47.780869523373276" lon="11.831145783419108"><ele>716.25</ele><time>2026-04-18T15:24:58Z</time></trkpt><trkpt lat="47.78077934875463" lon="11.830990152363611"><ele>716.5</ele><time>2026-04-18T15:24:59Z</time></trkpt><trkpt lat="47.78067494659055" lon="11.83085884432083"><ele>716.75</ele><time>2026-04-18T15:25:00Z</time></trkpt><trkpt lat="47.78055665893879" lon="11.830751126558953"><ele>717.0</ele><time>2026-04-18T15:25:01Z</time></trkpt><trkpt lat="47.78045816805743" lon="11.830606409512198"><ele>717.25</ele><time>2026-04-18T15:25:02Z</time></trkpt><trkpt lat="47.78034487907592" lon="11.830484597089875"><ele>717.5</ele><time>2026-04-18T15:25:03Z</time></trkpt><trkpt lat="47.78022082778482" lon="11.830387028137581"><ele>717.75</ele><time>2026-04-18T15:25:04Z</time></trkpt><trkpt lat="47.780107245387114" lon="11.830269880854585"><ele>718.0</ele><time>2026-04-18T15:25:05Z</time></trkpt><trkpt lat="47.77999066492149" lon="11.830155555519786"><ele>718.75</ele><time>2026-04-18T15:25:06Z</time></trkpt><trkpt lat="47.779871778601404" lon="11.830041793326568"><ele>719.5</ele><time>2026-04-18T15:25:07Z</time></trkpt><trkpt lat="47.77975308033401" lon="11.829928901024156"><ele>720.25</ele><time>2026-04-18T15:25:08Z</time></trkpt><trkpt lat="47.77963391175847" lon="11.82982174022447"><ele>721.0</ele><time>2026-04-18T15:25:09Z</time></trkpt><trkpt lat="47.779512431124154" lon="11.829718947957558"><ele>721.0</ele><time>2026-04-18T15:25:09.999Z</time></trkpt><trkpt lat="47.77938833926969" lon="11.829621807730485"><ele>721.0</ele><time>2026-04-18T15:25:10.999Z</time></trkpt><trkpt lat="47.77926338571672" lon="11.829529610394038"><ele>721.0</ele><time>2026-04-18T15:25:11.999Z</time></trkpt><trkpt lat="47.779142395897885" lon="11.829440517228386"><ele>721.0</ele><time>2026-04-18T15:25:12.999Z</time></trkpt><trkpt lat="47.77901959893179" lon="11.829350190520767"><ele>721.25</ele><time>2026-04-18T15:25:13.999Z</time></trkpt><trkpt lat="47.778894791889726" lon="11.829265933660254"><ele>721.5</ele><time>2026-04-18T15:25:14.999Z</time></trkpt><trkpt lat="47.77877156460665" lon="11.829188210563297"><ele>721.75</ele><time>2026-04-18T15:25:15.999Z</time></trkpt><trkpt lat="47.77864263129557" lon="11.829111047373546"><ele>722.0</ele><time>2026-04-18T15:25:16.999Z</time></trkpt><trkpt lat="47.77851389835559" lon="11.829038290537309"><ele>722.0</ele><time>2026-04-18T15:25:17.999Z</time></trkpt><trkpt lat="47.77838411780423" lon="11.828970391282976"><ele>722.0</ele><time>2026-04-18T15:25:18.999Z</time></trkpt><trkpt lat="47.7782548081516" lon="11.828905443439167"><ele>722.0</ele><time>2026-04-18T15:25:19.999Z</time></trkpt><trkpt lat="47.778123632237474" lon="11.82884427294006"><ele>722.0</ele><time>2026-04-18T15:25:20.999Z</time></trkpt><trkpt lat="47.77799161440144" lon="11.828787158120512"><ele>722.0</ele><time>2026-04-18T15:25:21.999Z</time></trkpt><trkpt lat="47.777860644080064" lon="11.828734470645362"><ele>722.0</ele><time>2026-04-18T15:25:22.999Z</time></trkpt><trkpt lat="47.77773116704391" lon="11.828685054474715"><ele>722.0</ele><time>2026-04-18T15:25:23.999Z</time></trkpt><trkpt lat="47.77760012291396" lon="11.828641432463696"><ele>722.0</ele><time>2026-04-18T15:25:24.999Z</time></trkpt><trkpt lat="47.77746973139965" lon="11.828601036628642"><ele>722.0</ele><time>2026-04-18T15:25:25.999Z</time></trkpt><trkpt lat="47.77733943772978" lon="11.828564519774343"><ele>722.0</ele><time>2026-04-18T15:25:26.999Z</time></trkpt><trkpt lat="47.77721017112848" lon="11.82853436142033"><ele>722.0</ele><time>2026-04-18T15:25:27.999Z</time></trkpt><trkpt lat="47.77707172610151" lon="11.828499788284798"><ele>722.0</ele><time>2026-04-18T15:25:28.999Z</time></trkpt><trkpt lat="47.77693550180854" lon="11.828463414159293"><ele>722.5</ele><time>2026-04-18T15:25:29.999Z</time></trkpt><trkpt lat="47.7767953232799" lon="11.828423315813794"><ele>723.0</ele><time>2026-04-18T15:25:30.999Z</time></trkpt><trkpt lat="47.77666423425227" lon="11.828424872691066"><ele>723.5</ele><time>2026-04-18T15:25:31.999Z</time></trkpt><trkpt lat="47.77650798838366" lon="11.828400896491402"><ele>724.0</ele><time>2026-04-18T15:25:32.999Z</time></trkpt><trkpt lat="47.776338607276934" lon="11.828374929607612"><ele>724.0</ele><time>2026-04-18T15:25:33.999Z</time></trkpt><trkpt lat="47.776169293451055" lon="11.828355485216866"><ele>724.0</ele><time>2026-04-18T15:25:34.999Z</time></trkpt><trkpt lat="47.77600030979995" lon="11.828337330055515"><ele>724.0</ele><time>2026-04-18T15:25:35.999Z</time></trkpt><trkpt lat="47.775831912715894" lon="11.82832130209455"><ele>723.6666666666667</ele><time>2026-04-18T15:25:36.999Z</time></trkpt><trkpt lat="47.77566154092279" lon="11.828305475819347"><ele>723.3333333333334</ele><time>2026-04-18T15:25:37.999Z</time></trkpt><trkpt lat="47.77548996912727" lon="11.828285547852563"><ele>723.0</ele><time>2026-04-18T15:25:38.999Z</time></trkpt><trkpt lat="47.77531886917486" lon="11.828261678172348"><ele>723.3333333333334</ele><time>2026-04-18T15:25:39.999Z</time></trkpt><trkpt lat="47.77514895773865" lon="11.828232799604681"><ele>723.6666666666667</ele><time>2026-04-18T15:25:40.999Z</time></trkpt><trkpt lat="47.77497807665118" lon="11.828211424628876"><ele>724.0</ele><time>2026-04-18T15:25:42Z</time></trkpt><trkpt lat="47.774807684117135" lon="11.828193459267736"><ele>724.0</ele><time>2026-04-18T15:25:43Z</time></trkpt><trkpt lat="47.77464028394342" lon="11.828170230560255"><ele>724.0</ele><time>2026-04-18T15:25:44Z</time></trkpt><trkpt lat="47.77446780516692" lon="11.828146602080439"><ele>724.0</ele><time>2026-04-18T15:25:45Z</time></trkpt><trkpt lat="47.7742883186301" lon="11.828110204193926"><ele>724.6666666666667</ele><time>2026-04-18T15:25:46Z</time></trkpt><trkpt lat="47.77410084693449" lon="11.828054820154328"><ele>725.3333333333334</ele><time>2026-04-18T15:25:47Z</time></trkpt><trkpt lat="47.77391588032172" lon="11.82798485138605"><ele>726.0</ele><time>2026-04-18T15:25:48Z</time></trkpt><trkpt lat="47.77373560974755" lon="11.827896936637115"><ele>726.0</ele><time>2026-04-18T15:25:49Z</time></trkpt><trkpt lat="47.773558573782566" lon="11.82779730944592"><ele>726.0</ele><time>2026-04-18T15:25:50Z</time></trkpt><trkpt lat="47.77338492655827" lon="11.82768453038672"><ele>726.0</ele><time>2026-04-18T15:25:51Z</time></trkpt><trkpt lat="47.773215434769746" lon="11.827566692682128"><ele>727.0</ele><time>2026-04-18T15:25:52Z</time></trkpt><trkpt lat="47.77305173561424" lon="11.827444692755314"><ele>728.0</ele><time>2026-04-18T15:25:53Z</time></trkpt><trkpt lat="47.77289730912205" lon="11.827328159401628"><ele>729.0</ele><time>2026-04-18T15:25:54Z</time></trkpt><trkpt lat="47.77276234659286" lon="11.82722823862188"><ele>729.0</ele><time>2026-04-18T15:25:55Z</time></trkpt><trkpt lat="47.77263975025355" lon="11.827142793312596"><ele>729.0</ele><time>2026-04-18T15:25:56Z</time></trkpt><trkpt lat="47.77252193668516" lon="11.827069757172307"><ele>729.0</ele><time>2026-04-18T15:25:57Z</time></trkpt><trkpt lat="47.77241129096997" lon="11.827003555672405"><ele>729.0</ele><time>2026-04-18T15:25:58Z</time></trkpt><trkpt lat="47.772305730404305" lon="11.826941805157634"><ele>729.0</ele><time>2026-04-18T15:25:59Z</time></trkpt><trkpt lat="47.77220344689576" lon="11.826887484097341"><ele>729.0</ele><time>2026-04-18T15:26:00Z</time></trkpt><trkpt lat="47.77210240090371" lon="11.826831822870801"><ele>729.0</ele><time>2026-04-18T15:26:01Z</time></trkpt><trkpt lat="47.77199974809027" lon="11.826776444265567"><ele>729.0</ele><time>2026-04-18T15:26:02Z</time></trkpt><trkpt lat="47.77189200085358" lon="11.826723524618977"><ele>729.0</ele><time>2026-04-18T15:26:03Z</time></trkpt><trkpt lat="47.771778889658854" lon="11.826680939161797"><ele>728.25</ele><time>2026-04-18T15:26:04Z</time></trkpt><trkpt lat="47.771659378257375" lon="11.82663106144048"><ele>727.5</ele><time>2026-04-18T15:26:05Z</time></trkpt><trkpt lat="47.77153488691334" lon="11.826590733518948"><ele>726.75</ele><time>2026-04-18T15:26:06Z</time></trkpt><trkpt lat="47.77141078873815" lon="11.826555567928072"><ele>726.0</ele><time>2026-04-18T15:26:07Z</time></trkpt><trkpt lat="47.771283389858624" lon="11.826522646154052"><ele>726.0</ele><time>2026-04-18T15:26:08Z</time></trkpt><trkpt lat="47.77115460276741" lon="11.826486063145843"><ele>726.0</ele><time>2026-04-18T15:26:09Z</time></trkpt><trkpt lat="47.771027003024344" lon="11.826451764189853"><ele>726.0</ele><time>2026-04-18T15:26:10Z</time></trkpt><trkpt lat="47.770900129593166" lon="11.826420451775196"><ele>726.0</ele><time>2026-04-18T15:26:11Z</time></trkpt><trkpt lat="47.77077486349209" lon="11.826382457546867"><ele>727.25</ele><time>2026-04-18T15:26:12Z</time></trkpt><trkpt lat="47.770649765405956" lon="11.826341396929733"><ele>728.5</ele><time>2026-04-18T15:26:13Z</time></trkpt><trkpt lat="47.770526935069675" lon="11.826298695584592"><ele>729.75</ele><time>2026-04-18T15:26:14Z</time></trkpt><trkpt lat="47.77040540412139" lon="11.826251787059997"><ele>731.0</ele><time>2026-04-18T15:26:15Z</time></trkpt><trkpt lat="47.77028358681586" lon="11.826200089370309"><ele>731.25</ele><time>2026-04-18T15:26:16Z</time></trkpt><trkpt lat="47.77016014680251" lon="11.826147339304795"><ele>731.5</ele><time>2026-04-18T15:26:17Z</time></trkpt><trkpt lat="47.77004008824464" lon="11.826098191455687"><ele>731.75</ele><time>2026-04-18T15:26:18Z</time></trkpt><trkpt lat="47.76992303390082" lon="11.82604948273238"><ele>732.0</ele><time>2026-04-18T15:26:19Z</time></trkpt><trkpt lat="47.76980926183976" lon="11.826001501576636"><ele>729.75</ele><time>2026-04-18T15:26:20Z</time></trkpt><trkpt lat="47.76969593974884" lon="11.82595370675305"><ele>727.5</ele><time>2026-04-18T15:26:21Z</time></trkpt><trkpt lat="47.76958487209231" lon="11.825905978794486"><ele>725.25</ele><time>2026-04-18T15:26:22Z</time></trkpt><trkpt lat="47.769472989015874" lon="11.825854602810423"><ele>723.0</ele><time>2026-04-18T15:26:23Z</time></trkpt><trkpt lat="47.76936051996723" lon="11.825801526612938"><ele>724.0</ele><time>2026-04-18T15:26:24Z</time></trkpt><trkpt lat="47.76924578314425" lon="11.825750815203792"><ele>725.0</ele><time>2026-04-18T15:26:25Z</time></trkpt><trkpt lat="47.76912997833163" lon="11.825704230891633"><ele>726.0</ele><time>2026-04-18T15:26:26Z</time></trkpt><trkpt lat="47.76901331109095" lon="11.825661056236278"><ele>727.0</ele><time>2026-04-18T15:26:27Z</time></trkpt><trkpt lat="47.76889795626739" lon="11.825619415864475"><ele>727.0</ele><time>2026-04-18T15:26:28Z</time></trkpt><trkpt lat="47.76878766212146" lon="11.82558346624596"><ele>727.0</ele><time>2026-04-18T15:26:29Z</time></trkpt><trkpt lat="47.7686834767769" lon="11.825561548999882"><ele>727.0</ele><time>2026-04-18T15:26:30Z</time></trkpt><trkpt lat="47.76857587190408" lon="11.825541867647347"><ele>727.0</ele><time>2026-04-18T15:26:31Z</time></trkpt><trkpt lat="47.76846547482525" lon="11.825534132969986"><ele>727.0</ele><time>2026-04-18T15:26:32Z</time></trkpt><trkpt lat="47.7683520844907" lon="11.825535533906862"><ele>726.8</ele><time>2026-04-18T15:26:33Z</time></trkpt><trkpt lat="47.768238089992835" lon="11.825535829043744"><ele>726.6</ele><time>2026-04-18T15:26:34Z</time></trkpt><trkpt lat="47.76813040685074" lon="11.82554088035952"><ele>726.4</ele><time>2026-04-18T15:26:35Z</time></trkpt><trkpt lat="47.76802447552544" lon="11.825543318470116"><ele>726.1999999999999</ele><time>2026-04-18T15:26:36Z</time></trkpt><trkpt lat="47.76792233363294" lon="11.825539611156454"><ele>726.0</ele><time>2026-04-18T15:26:37Z</time></trkpt><trkpt lat="47.76782374413752" lon="11.82552766438613"><ele>726.0</ele><time>2026-04-18T15:26:38Z</time></trkpt><trkpt lat="47.76772557325175" lon="11.825503203275725"><ele>726.0</ele><time>2026-04-18T15:26:39Z</time></trkpt><trkpt lat="47.767624137430346" lon="11.825478022470497"><ele>726.0</ele><time>2026-04-18T15:26:40Z</time></trkpt><trkpt lat="47.76751795523426" lon="11.825456569005524"><ele>726.0</ele><time>2026-04-18T15:26:41Z</time></trkpt><trkpt lat="47.767409141351045" lon="11.82543232437355"><ele>726.0</ele><time>2026-04-18T15:26:42Z</time></trkpt><trkpt lat="47.7673015002359" lon="11.825405718985735"><ele>726.4</ele><time>2026-04-18T15:26:43Z</time></trkpt><trkpt lat="47.76719414083911" lon="11.82538176895494"><ele>726.8</ele><time>2026-04-18T15:26:44Z</time></trkpt><trkpt lat="47.767091500686504" lon="11.825367177814265"><ele>727.1999999999999</ele><time>2026-04-18T15:26:45Z</time></trkpt><trkpt lat="47.76699060361824" lon="11.82536397426764"><ele>727.5999999999999</ele><time>2026-04-18T15:26:46Z</time></trkpt><trkpt lat="47.76688543198262" lon="11.825361293133057"><ele>728.0</ele><time>2026-04-18T15:26:47Z</time></trkpt><trkpt lat="47.766775668654276" lon="11.82536947409855"><ele>728.0</ele><time>2026-04-18T15:26:48Z</time></trkpt><trkpt lat="47.76666510577352" lon="11.825382762471278"><ele>728.0</ele><time>2026-04-18T15:26:49Z</time></trkpt><trkpt lat="47.76655506282428" lon="11.825397748821302"><ele>728.0</ele><time>2026-04-18T15:26:50Z</time></trkpt><trkpt lat="47.76644637065309" lon="11.825422476041222"><ele>728.0</ele><time>2026-04-18T15:26:51Z</time></trkpt><trkpt lat="47.766341082144514" lon="11.82545804121891"><ele>728.0</ele><time>2026-04-18T15:26:52Z</time></trkpt><trkpt lat="47.766240714372024" lon="11.82550020244775"><ele>728.0</ele><time>2026-04-18T15:26:53Z</time></trkpt><trkpt lat="47.766138695979876" lon="11.825549380398643"><ele>728.0</ele><time>2026-04-18T15:26:54Z</time></trkpt><trkpt lat="47.76603025006248" lon="11.825597820049467"><ele>728.0</ele><time>2026-04-18T15:26:55Z</time></trkpt><trkpt lat="47.76592379503194" lon="11.825644867031233"><ele>728.0</ele><time>2026-04-18T15:26:56Z</time></trkpt><trkpt lat="47.76581218173368" lon="11.825690871830666"><ele>728.0</ele><time>2026-04-18T15:26:57Z</time></trkpt><trkpt lat="47.76569662197136" lon="11.82573578126407"><ele>727.75</ele><time>2026-04-18T15:26:58Z</time></trkpt><trkpt lat="47.765582421080204" lon="11.825783775604231"><ele>727.5</ele><time>2026-04-18T15:26:59Z</time></trkpt><trkpt lat="47.7654708220385" lon="11.825828869219409"><ele>727.25</ele><time>2026-04-18T15:27:00Z</time></trkpt><trkpt lat="47.76536004076298" lon="11.825863931378544"><ele>727.0</ele><time>2026-04-18T15:27:01Z</time></trkpt><trkpt lat="47.765246979982344" lon="11.825901382258895"><ele>727.25</ele><time>2026-04-18T15:27:02Z</time></trkpt><trkpt lat="47.76513718184115" lon="11.825947209930025"><ele>727.5</ele><time>2026-04-18T15:27:03Z</time></trkpt><trkpt lat="47.7650255579076" lon="11.8259998094585"><ele>727.75</ele><time>2026-04-18T15:27:04Z</time></trkpt><trkpt lat="47.764917112956056" lon="11.826055924726296"><ele>728.0</ele><time>2026-04-18T15:27:05Z</time></trkpt><trkpt lat="47.7648119474161" lon="11.826102826777944"><ele>728.4</ele><time>2026-04-18T15:27:06Z</time></trkpt><trkpt lat="47.76470747515738" lon="11.826144526678616"><ele>728.8</ele><time>2026-04-18T15:27:07Z</time></trkpt><trkpt lat="47.76460335167071" lon="11.826190097860284"><ele>729.2</ele><time>2026-04-18T15:27:08Z</time></trkpt><trkpt lat="47.76449396639856" lon="11.826235103300355"><ele>729.6</ele><time>2026-04-18T15:27:09Z</time></trkpt><trkpt lat="47.76438478216329" lon="11.826284377526312"><ele>730.0</ele><time>2026-04-18T15:27:10Z</time></trkpt><trkpt lat="47.76427770098735" lon="11.826330675965654"><ele>730.8</ele><time>2026-04-18T15:27:11Z</time></trkpt><trkpt lat="47.76417247359216" lon="11.826374913597272"><ele>731.6</ele><time>2026-04-18T15:27:12Z</time></trkpt><trkpt lat="47.76407487680833" lon="11.826413308812228"><ele>732.4000000000001</ele><time>2026-04-18T15:27:13Z</time></trkpt><trkpt lat="47.7639809640517" lon="11.826452072287092"><ele>733.2</ele><time>2026-04-18T15:27:14Z</time></trkpt><trkpt lat="47.763879174219554" lon="11.826489844485438"><ele>734.0</ele><time>2026-04-18T15:27:14.999Z</time></trkpt><trkpt lat="47.76376685700183" lon="11.826529273369257"><ele>734.0</ele><time>2026-04-18T15:27:15.999Z</time></trkpt><trkpt lat="47.76364402927654" lon="11.826574770584543"><ele>734.0</ele><time>2026-04-18T15:27:16.999Z</time></trkpt><trkpt lat="47.76354093504777" lon="11.826607846912644"><ele>734.0</ele><time>2026-04-18T15:27:17.999Z</time></trkpt><trkpt lat="47.76344982085325" lon="11.826635208183301"><ele>734.0</ele><time>2026-04-18T15:27:18.999Z</time></trkpt><trkpt lat="47.76336437137718" lon="11.826657176243776"><ele>734.0</ele><time>2026-04-18T15:27:19.999Z</time></trkpt><trkpt lat="47.763286903604794" lon="11.826674580212606"><ele>734.2857142857142</ele><time>2026-04-18T15:27:20.999Z</time></trkpt><trkpt lat="47.763217153644455" lon="11.826685844197025"><ele>734.5714285714287</ele><time>2026-04-18T15:27:21.999Z</time></trkpt><trkpt lat="47.76311165959199" lon="11.826685902307105"><ele>734.8571428571429</ele><time>2026-04-18T15:27:23.999Z</time></trkpt><trkpt lat="47.76305173395068" lon="11.826652249833165"><ele>735.1428571428571</ele><time>2026-04-18T15:27:24.999Z</time></trkpt><trkpt lat="47.76299724296553" lon="11.82658653716317"><ele>735.4285714285713</ele><time>2026-04-18T15:27:25.999Z</time></trkpt><trkpt lat="47.7629455997415" lon="11.826515630462026"><ele>735.7142857142858</ele><time>2026-04-18T15:27:26.999Z</time></trkpt><trkpt lat="47.76287889408565" lon="11.826492598863968"><ele>736.0</ele><time>2026-04-18T15:27:27.999Z</time></trkpt><trkpt lat="47.762813237316784" lon="11.826513463978431"><ele>736.0</ele><time>2026-04-18T15:27:28.999Z</time></trkpt><trkpt lat="47.762757653518655" lon="11.826566928280872"><ele>736.0</ele><time>2026-04-18T15:27:29.999Z</time></trkpt><trkpt lat="47.76271801809832" lon="11.826643250217419"><ele>736.0</ele><time>2026-04-18T15:27:30.999Z</time></trkpt><trkpt lat="47.76261945842593" lon="11.826747246433852"><ele>736.0</ele><time>2026-04-18T15:27:32.999Z</time></trkpt><trkpt lat="47.76254425930732" lon="11.826777274905613"><ele>736.0</ele><time>2026-04-18T15:27:33.999Z</time></trkpt><trkpt lat="47.76246267414365" lon="11.826805752774138"><ele>736.0</ele><time>2026-04-18T15:27:34.999Z</time></trkpt><trkpt lat="47.7623744351639" lon="11.826822919921964"><ele>736.8</ele><time>2026-04-18T15:27:35.999Z</time></trkpt><trkpt lat="47.762279139857164" lon="11.826834179665093"><ele>737.5999999999999</ele><time>2026-04-18T15:27:36.999Z</time></trkpt><trkpt lat="47.76218003041609" lon="11.826842097504048"><ele>738.4</ele><time>2026-04-18T15:27:37.999Z</time></trkpt><trkpt lat="47.76207583577459" lon="11.82685078147913"><ele>739.2</ele><time>2026-04-18T15:27:38.999Z</time></trkpt><trkpt lat="47.76196655933188" lon="11.82685912048525"><ele>740.0</ele><time>2026-04-18T15:27:39.999Z</time></trkpt><trkpt lat="47.76184394998929" lon="11.826864294070008"><ele>740.5</ele><time>2026-04-18T15:27:40.999Z</time></trkpt><trkpt lat="47.76171605615811" lon="11.826864433747213"><ele>741.0</ele><time>2026-04-18T15:27:41.999Z</time></trkpt><trkpt lat="47.761597370391556" lon="11.826868492903252"><ele>741.5</ele><time>2026-04-18T15:27:42.999Z</time></trkpt><trkpt lat="47.76147924031181" lon="11.826880186069388"><ele>742.0</ele><time>2026-04-18T15:27:43.999Z</time></trkpt><trkpt lat="47.76136227267229" lon="11.826912369529598"><ele>742.0</ele><time>2026-04-18T15:27:44.999Z</time></trkpt><trkpt lat="47.761249003550176" lon="11.826959337104055"><ele>742.0</ele><time>2026-04-18T15:27:45.999Z</time></trkpt><trkpt lat="47.76113173654038" lon="11.827017226332336"><ele>742.0</ele><time>2026-04-18T15:27:46.999Z</time></trkpt><trkpt lat="47.761021099287255" lon="11.827080297689339"><ele>742.0</ele><time>2026-04-18T15:27:48Z</time></trkpt><trkpt lat="47.76091498434318" lon="11.827142869290002"><ele>742.0</ele><time>2026-04-18T15:27:49Z</time></trkpt><trkpt lat="47.76081150305759" lon="11.827200159735726"><ele>742.0</ele><time>2026-04-18T15:27:50Z</time></trkpt><trkpt lat="47.76071363835694" lon="11.827254571019495"><ele>742.0</ele><time>2026-04-18T15:27:51Z</time></trkpt><trkpt lat="47.76062073792261" lon="11.827308701978831"><ele>742.0</ele><time>2026-04-18T15:27:52Z</time></trkpt><trkpt lat="47.760533437173926" lon="11.827361612067536"><ele>742.0</ele><time>2026-04-18T15:27:53Z</time></trkpt><trkpt lat="47.76045323081385" lon="11.827408450032975"><ele>742.0</ele><time>2026-04-18T15:27:54Z</time></trkpt><trkpt lat="47.76037864668097" lon="11.827458349441871"><ele>742.0</ele><time>2026-04-18T15:27:55Z</time></trkpt><trkpt lat="47.76030033449248" lon="11.827506733709857"><ele>742.0</ele><time>2026-04-18T15:27:56Z</time></trkpt><trkpt lat="47.760216043735284" lon="11.82755392681099"><ele>742.0</ele><time>2026-04-18T15:27:57Z</time></trkpt><trkpt lat="47.760122282142184" lon="11.82760735816519"><ele>742.0</ele><time>2026-04-18T15:27:58Z</time></trkpt><trkpt lat="47.760032640039526" lon="11.827661949493292"><ele>742.2</ele><time>2026-04-18T15:27:59Z</time></trkpt><trkpt lat="47.75994637827766" lon="11.827718063311162"><ele>742.4000000000001</ele><time>2026-04-18T15:28:00Z</time></trkpt><trkpt lat="47.759858847147356" lon="11.827775291925915"><ele>742.5999999999999</ele><time>2026-04-18T15:28:01Z</time></trkpt><trkpt lat="47.75977234457735" lon="11.827835057095248"><ele>742.8</ele><time>2026-04-18T15:28:02Z</time></trkpt><trkpt lat="47.75969023492058" lon="11.827895044574268"><ele>743.0</ele><time>2026-04-18T15:28:03Z</time></trkpt><trkpt lat="47.75960675620848" lon="11.827960266344846"><ele>743.0</ele><time>2026-04-18T15:28:04Z</time></trkpt><trkpt lat="47.759529438283586" lon="11.828017859880298"><ele>743.0</ele><time>2026-04-18T15:28:05Z</time></trkpt><trkpt lat="47.759450066439975" lon="11.828078104391814"><ele>743.0</ele><time>2026-04-18T15:28:05.999Z</time></trkpt><trkpt lat="47.759368318189026" lon="11.828135846070928"><ele>743.0</ele><time>2026-04-18T15:28:06.999Z</time></trkpt><trkpt lat="47.75928207614731" lon="11.828197389606625"><ele>743.0</ele><time>2026-04-18T15:28:07.999Z</time></trkpt><trkpt lat="47.759185208377026" lon="11.828270682015079"><ele>743.0</ele><time>2026-04-18T15:28:08.999Z</time></trkpt><trkpt lat="47.759081509336184" lon="11.828352293522068"><ele>743.0</ele><time>2026-04-18T15:28:09.999Z</time></trkpt><trkpt lat="47.758974688628186" lon="11.828436042830743"><ele>743.0</ele><time>2026-04-18T15:28:10.999Z</time></trkpt><trkpt lat="47.75886955929967" lon="11.828509313527055"><ele>743.0</ele><time>2026-04-18T15:28:11.999Z</time></trkpt><trkpt lat="47.75876710321831" lon="11.828584029485542"><ele>743.75</ele><time>2026-04-18T15:28:12.999Z</time></trkpt><trkpt lat="47.7586650922505" lon="11.82866170254811"><ele>744.5</ele><time>2026-04-18T15:28:13.999Z</time></trkpt><trkpt lat="47.75856334996514" lon="11.828744443242575"><ele>745.25</ele><time>2026-04-18T15:28:14.999Z</time></trkpt><trkpt lat="47.75846668128824" lon="11.828838043301955"><ele>746.0</ele><time>2026-04-18T15:28:15.998Z</time></trkpt><trkpt lat="47.758376053272094" lon="11.828938472601152"><ele>746.0</ele><time>2026-04-18T15:28:16.998Z</time></trkpt><trkpt lat="47.75828743464831" lon="11.829039672399304"><ele>746.0</ele><time>2026-04-18T15:28:17.998Z</time></trkpt><trkpt lat="47.75820284219654" lon="11.829151580541"><ele>746.0</ele><time>2026-04-18T15:28:18.998Z</time></trkpt><trkpt lat="47.75811987200862" lon="11.82927338290431"><ele>746.0</ele><time>2026-04-18T15:28:19.998Z</time></trkpt><trkpt lat="47.758034063328935" lon="11.82938273312573"><ele>746.1999999999999</ele><time>2026-04-18T15:28:20.998Z</time></trkpt><trkpt lat="47.75794774719964" lon="11.829490431198725"><ele>746.4</ele><time>2026-04-18T15:28:21.998Z</time></trkpt><trkpt lat="47.757863563263776" lon="11.829601593798714"><ele>746.6</ele><time>2026-04-18T15:28:22.998Z</time></trkpt><trkpt lat="47.75778113466445" lon="11.829711380710735"><ele>746.8</ele><time>2026-04-18T15:28:23.998Z</time></trkpt><trkpt lat="47.75769992920163" lon="11.829817676721797"><ele>747.0</ele><time>2026-04-18T15:28:24.998Z</time></trkpt><trkpt lat="47.75762047692134" lon="11.82992868673691"><ele>747.0</ele><time>2026-04-18T15:28:25.998Z</time></trkpt><trkpt lat="47.757541897296605" lon="11.830026653985106"><ele>747.0</ele><time>2026-04-18T15:28:26.998Z</time></trkpt><trkpt lat="47.75746042902428" lon="11.830129244573005"><ele>747.0</ele><time>2026-04-18T15:28:27.998Z</time></trkpt><trkpt lat="47.757375845997224" lon="11.830239493864847"><ele>747.0</ele><time>2026-04-18T15:28:28.998Z</time></trkpt><trkpt lat="47.757289660531924" lon="11.830353074332853"><ele>747.0</ele><time>2026-04-18T15:28:29.998Z</time></trkpt><trkpt lat="47.757205797424156" lon="11.830469558172702"><ele>748.5</ele><time>2026-04-18T15:28:30.998Z</time></trkpt><trkpt lat="47.7571257251378" lon="11.830582829087268"><ele>750.0</ele><time>2026-04-18T15:28:31.998Z</time></trkpt><trkpt lat="47.75704691678332" lon="11.830697082467315"><ele>751.5</ele><time>2026-04-18T15:28:32.998Z</time></trkpt><trkpt lat="47.75696335383389" lon="11.830818405695991"><ele>753.0</ele><time>2026-04-18T15:28:33.998Z</time></trkpt><trkpt lat="47.75688294125604" lon="11.830952073987682"><ele>754.0</ele><time>2026-04-18T15:28:34.998Z</time></trkpt><trkpt lat="47.75680849898795" lon="11.831097875109673"><ele>755.0</ele><time>2026-04-18T15:28:35.998Z</time></trkpt><trkpt lat="47.756737218498024" lon="11.831240318334197"><ele>756.0</ele><time>2026-04-18T15:28:36.998Z</time></trkpt><trkpt lat="47.756667605348646" lon="11.831384669544592"><ele>757.0</ele><time>2026-04-18T15:28:37.998Z</time></trkpt><trkpt lat="47.75660206704738" lon="11.831524617594917"><ele>757.0</ele><time>2026-04-18T15:28:38.998Z</time></trkpt><trkpt lat="47.75653336784476" lon="11.83167006814791"><ele>757.0</ele><time>2026-04-18T15:28:39.997Z</time></trkpt><trkpt lat="47.75646671780461" lon="11.831810148131803"><ele>757.0</ele><time>2026-04-18T15:28:40.997Z</time></trkpt><trkpt lat="47.75640427191768" lon="11.83195297592058"><ele>757.0</ele><time>2026-04-18T15:28:41.997Z</time></trkpt><trkpt lat="47.756351509633966" lon="11.832097630380058"><ele>759.0</ele><time>2026-04-18T15:28:42.997Z</time></trkpt><trkpt lat="47.75631052548123" lon="11.832243501112476"><ele>761.0</ele><time>2026-04-18T15:28:43.997Z</time></trkpt><trkpt lat="47.75626540723805" lon="11.832392902355856"><ele>763.0</ele><time>2026-04-18T15:28:44.997Z</time></trkpt><trkpt lat="47.7562139223941" lon="11.832549989971543"><ele>765.0</ele><time>2026-04-18T15:28:45.997Z</time></trkpt><trkpt lat="47.75615650357935" lon="11.83271953204469"><ele>766.25</ele><time>2026-04-18T15:28:46.997Z</time></trkpt><trkpt lat="47.75608746808107" lon="11.83287021989545"><ele>767.5</ele><time>2026-04-18T15:28:47.997Z</time></trkpt><trkpt lat="47.75600648033921" lon="11.833042141344047"><ele>768.75</ele><time>2026-04-18T15:28:48.997Z</time></trkpt><trkpt lat="47.75593646699684" lon="11.8332028671163"><ele>770.0</ele><time>2026-04-18T15:28:49.997Z</time></trkpt><trkpt lat="47.7558708967777" lon="11.833346700042757"><ele>767.25</ele><time>2026-04-18T15:28:50.997Z</time></trkpt><trkpt lat="47.755814358019784" lon="11.833478456899515"><ele>764.5</ele><time>2026-04-18T15:28:51.997Z</time></trkpt><trkpt lat="47.75575270773315" lon="11.833630927928883"><ele>761.75</ele><time>2026-04-18T15:28:52.997Z</time></trkpt><trkpt lat="47.75569760388606" lon="11.833781099929247"><ele>759.0</ele><time>2026-04-18T15:28:53.997Z</time></trkpt><trkpt lat="47.75564556828056" lon="11.833936473021922"><ele>759.0</ele><time>2026-04-18T15:28:54.997Z</time></trkpt><trkpt lat="47.75559737205336" lon="11.834093799514676"><ele>759.0</ele><time>2026-04-18T15:28:55.997Z</time></trkpt><trkpt lat="47.75554924404428" lon="11.834251764595749"><ele>759.0</ele><time>2026-04-18T15:28:56.997Z</time></trkpt><trkpt lat="47.755500281928676" lon="11.83441576766792"><ele>759.0</ele><time>2026-04-18T15:28:57.997Z</time></trkpt><trkpt lat="47.7554465604786" lon="11.834591353855709"><ele>760.25</ele><time>2026-04-18T15:28:58.997Z</time></trkpt><trkpt lat="47.755387757837596" lon="11.83476812840529"><ele>761.5</ele><time>2026-04-18T15:28:59.997Z</time></trkpt><trkpt lat="47.7553282667415" lon="11.83492988489909"><ele>762.75</ele><time>2026-04-18T15:29:00.997Z</time></trkpt><trkpt lat="47.755289658931936" lon="11.835087537348743"><ele>764.0</ele><time>2026-04-18T15:29:01.997Z</time></trkpt><trkpt lat="47.75520759168125" lon="11.835229353465243"><ele>762.25</ele><time>2026-04-18T15:29:02.997Z</time></trkpt><trkpt lat="47.755139267160835" lon="11.835346950096342"><ele>760.5</ele><time>2026-04-18T15:29:03.997Z</time></trkpt><trkpt lat="47.755079989369676" lon="11.835490319764194"><ele>758.75</ele><time>2026-04-18T15:29:04.997Z</time></trkpt><trkpt lat="47.75501349851176" lon="11.835639838370444"><ele>757.0</ele><time>2026-04-18T15:29:05.997Z</time></trkpt><trkpt lat="47.75494613362655" lon="11.835787075446284"><ele>757.0</ele><time>2026-04-18T15:29:06.997Z</time></trkpt><trkpt lat="47.754879944477246" lon="11.835925646751987"><ele>757.0</ele><time>2026-04-18T15:29:07.997Z</time></trkpt><trkpt lat="47.75481563868714" lon="11.836057790148818"><ele>757.0</ele><time>2026-04-18T15:29:08.997Z</time></trkpt><trkpt lat="47.75474969810481" lon="11.836190129609287"><ele>757.0</ele><time>2026-04-18T15:29:09.997Z</time></trkpt><trkpt lat="47.75467798833006" lon="11.836335594389379"><ele>758.5</ele><time>2026-04-18T15:29:10.997Z</time></trkpt><trkpt lat="47.75460742968107" lon="11.836479639129665"><ele>760.0</ele><time>2026-04-18T15:29:11.997Z</time></trkpt><trkpt lat="47.75454050294044" lon="11.83661748231306"><ele>761.5</ele><time>2026-04-18T15:29:12.997Z</time></trkpt><trkpt lat="47.754474604712" lon="11.836746698290456"><ele>763.0</ele><time>2026-04-18T15:29:13.997Z</time></trkpt><trkpt lat="47.754401879601865" lon="11.836870600701102"><ele>762.5</ele><time>2026-04-18T15:29:14.997Z</time></trkpt><trkpt lat="47.75432340383059" lon="11.836992186356742"><ele>762.0</ele><time>2026-04-18T15:29:15.997Z</time></trkpt><trkpt lat="47.75424120964505" lon="11.837118605366777"><ele>761.5</ele><time>2026-04-18T15:29:16.997Z</time></trkpt><trkpt lat="47.75415325078803" lon="11.837241921941398"><ele>761.0</ele><time>2026-04-18T15:29:17.997Z</time></trkpt><trkpt lat="47.754064535281834" lon="11.837366613606024"><ele>761.0</ele><time>2026-04-18T15:29:18.997Z</time></trkpt><trkpt lat="47.75397573099312" lon="11.837490350308899"><ele>761.0</ele><time>2026-04-18T15:29:19.997Z</time></trkpt><trkpt lat="47.75388702007742" lon="11.837608665439214"><ele>761.0</ele><time>2026-04-18T15:29:20.997Z</time></trkpt><trkpt lat="47.75379782666461" lon="11.837727862700614"><ele>761.0</ele><time>2026-04-18T15:29:21.997Z</time></trkpt><trkpt lat="47.75370332552645" lon="11.837836068686137"><ele>761.25</ele><time>2026-04-18T15:29:22.997Z</time></trkpt><trkpt lat="47.75359756476837" lon="11.83793365754142"><ele>761.5</ele><time>2026-04-18T15:29:23.997Z</time></trkpt><trkpt lat="47.75349126032491" lon="11.83802954159911"><ele>761.75</ele><time>2026-04-18T15:29:24.997Z</time></trkpt><trkpt lat="47.75338649828397" lon="11.83812824210917"><ele>762.0</ele><time>2026-04-18T15:29:25.997Z</time></trkpt><trkpt lat="47.75327620782067" lon="11.838224137203136"><ele>762.0</ele><time>2026-04-18T15:29:26.997Z</time></trkpt><trkpt lat="47.753164456703146" lon="11.838303345037694"><ele>762.0</ele><time>2026-04-18T15:29:27.997Z</time></trkpt><trkpt lat="47.75306106738983" lon="11.838386469408785"><ele>762.0</ele><time>2026-04-18T15:29:28.997Z</time></trkpt><trkpt lat="47.75296037947347" lon="11.838468360544079"><ele>762.0</ele><time>2026-04-18T15:29:29.997Z</time></trkpt><trkpt lat="47.7528632082363" lon="11.838542390045431"><ele>761.75</ele><time>2026-04-18T15:29:30.997Z</time></trkpt><trkpt lat="47.75276464562801" lon="11.838618680567103"><ele>761.5</ele><time>2026-04-18T15:29:31.997Z</time></trkpt><trkpt lat="47.75266718780302" lon="11.838689635057294"><ele>761.25</ele><time>2026-04-18T15:29:32.997Z</time></trkpt><trkpt lat="47.752565958974856" lon="11.83876659164376"><ele>761.0</ele><time>2026-04-18T15:29:33.997Z</time></trkpt><trkpt lat="47.75246108276398" lon="11.83884742345698"><ele>761.0</ele><time>2026-04-18T15:29:34.997Z</time></trkpt><trkpt lat="47.75235783788389" lon="11.838927461535919"><ele>761.0</ele><time>2026-04-18T15:29:35.997Z</time></trkpt><trkpt lat="47.75226166681435" lon="11.839007342313305"><ele>761.0</ele><time>2026-04-18T15:29:36.997Z</time></trkpt><trkpt lat="47.75217371712604" lon="11.839077045606501"><ele>761.0</ele><time>2026-04-18T15:29:37.997Z</time></trkpt><trkpt lat="47.75208795455775" lon="11.839147196343118"><ele>761.0</ele><time>2026-04-18T15:29:38.997Z</time></trkpt><trkpt lat="47.75199966642388" lon="11.839220258617102"><ele>761.0</ele><time>2026-04-18T15:29:39.997Z</time></trkpt><trkpt lat="47.75190449092621" lon="11.839297374428368"><ele>761.0</ele><time>2026-04-18T15:29:40.997Z</time></trkpt><trkpt lat="47.75180304068977" lon="11.839376870318265"><ele>761.0</ele><time>2026-04-18T15:29:41.997Z</time></trkpt><trkpt lat="47.751696854614714" lon="11.839461708164254"><ele>761.0</ele><time>2026-04-18T15:29:42.997Z</time></trkpt><trkpt lat="47.75158903172574" lon="11.839551908470042"><ele>761.5</ele><time>2026-04-18T15:29:43.997Z</time></trkpt><trkpt lat="47.75147609609068" lon="11.839641601912996"><ele>762.0</ele><time>2026-04-18T15:29:44.997Z</time></trkpt><trkpt lat="47.75136160919162" lon="11.839731878585923"><ele>762.5</ele><time>2026-04-18T15:29:45.997Z</time></trkpt><trkpt lat="47.751252525534134" lon="11.839815833388233"><ele>763.0</ele><time>2026-04-18T15:29:46.997Z</time></trkpt><trkpt lat="47.751150269301114" lon="11.839894456189558"><ele>763.0</ele><time>2026-04-18T15:29:47.997Z</time></trkpt><trkpt lat="47.751052264917696" lon="11.839965200186048"><ele>763.0</ele><time>2026-04-18T15:29:48.997Z</time></trkpt><trkpt lat="47.750955099213215" lon="11.840037121336112"><ele>763.0</ele><time>2026-04-18T15:29:49.997Z</time></trkpt><trkpt lat="47.75085161759986" lon="11.840117649892834"><ele>763.0</ele><time>2026-04-18T15:29:50.997Z</time></trkpt><trkpt lat="47.75074124445441" lon="11.840200469751915"><ele>763.25</ele><time>2026-04-18T15:29:51.997Z</time></trkpt><trkpt lat="47.75062494341983" lon="11.840284359528821"><ele>763.5</ele><time>2026-04-18T15:29:52.997Z</time></trkpt><trkpt lat="47.750516444788815" lon="11.840358433210374"><ele>763.75</ele><time>2026-04-18T15:29:53.998Z</time></trkpt><trkpt lat="47.75041036006956" lon="11.84044419032655"><ele>764.0</ele><time>2026-04-18T15:29:54.998Z</time></trkpt><trkpt lat="47.750309543707004" lon="11.840523417862078"><ele>764.0</ele><time>2026-04-18T15:29:55.998Z</time></trkpt><trkpt lat="47.75020821538332" lon="11.840601816791125"><ele>764.0</ele><time>2026-04-18T15:29:56.998Z</time></trkpt><trkpt lat="47.750100433586546" lon="11.840682101410108"><ele>764.0</ele><time>2026-04-18T15:29:57.998Z</time></trkpt><trkpt lat="47.749988420508984" lon="11.84077073734367"><ele>764.0</ele><time>2026-04-18T15:29:58.998Z</time></trkpt><trkpt lat="47.749877513707546" lon="11.84085754119005"><ele>764.0</ele><time>2026-04-18T15:29:59.998Z</time></trkpt><trkpt lat="47.74977354826695" lon="11.840939072572048"><ele>764.0</ele><time>2026-04-18T15:30:00.998Z</time></trkpt><trkpt lat="47.74967387601998" lon="11.841018783338274"><ele>764.0</ele><time>2026-04-18T15:30:01.998Z</time></trkpt><trkpt lat="47.74958134514674" lon="11.841086396592322"><ele>764.0</ele><time>2026-04-18T15:30:02.999Z</time></trkpt><trkpt lat="47.74948981018063" lon="11.841163645830381"><ele>764.0</ele><time>2026-04-18T15:30:03.999Z</time></trkpt><trkpt lat="47.7494051054165" lon="11.841221622745044"><ele>764.2</ele><time>2026-04-18T15:30:04.999Z</time></trkpt><trkpt lat="47.74931221111629" lon="11.841278695691825"><ele>764.4000000000001</ele><time>2026-04-18T15:30:05.999Z</time></trkpt><trkpt lat="47.74922264439687" lon="11.841351955843392"><ele>764.6</ele><time>2026-04-18T15:30:06.999Z</time></trkpt><trkpt lat="47.74912895374321" lon="11.841416612932711"><ele>764.8</ele><time>2026-04-18T15:30:07.999Z</time></trkpt><trkpt lat="47.74903475365657" lon="11.841482073110344"><ele>765.0</ele><time>2026-04-18T15:30:08.999Z</time></trkpt><trkpt lat="47.74894790183527" lon="11.841568746682636"><ele>765.0</ele><time>2026-04-18T15:30:09.999Z</time></trkpt><trkpt lat="47.748861109681684" lon="11.841649258887516"><ele>765.0</ele><time>2026-04-18T15:30:10.999Z</time></trkpt><trkpt lat="47.748756912126595" lon="11.841729277035533"><ele>765.0</ele><time>2026-04-18T15:30:11.999Z</time></trkpt><trkpt lat="47.748649276867596" lon="11.841813381572852"><ele>765.0</ele><time>2026-04-18T15:30:12.999Z</time></trkpt><trkpt lat="47.74854025916207" lon="11.841895620511087"><ele>765.0</ele><time>2026-04-18T15:30:13.999Z</time></trkpt><trkpt lat="47.74843562622153" lon="11.841972238099746"><ele>765.0</ele><time>2026-04-18T15:30:14.999Z</time></trkpt><trkpt lat="47.74833243341524" lon="11.842035975069878"><ele>765.0</ele><time>2026-04-18T15:30:15.999Z</time></trkpt><trkpt lat="47.74822777302957" lon="11.842080838336072"><ele>765.0</ele><time>2026-04-18T15:30:16.999Z</time></trkpt><trkpt lat="47.748126797866206" lon="11.84212945933389"><ele>765.0</ele><time>2026-04-18T15:30:17.999Z</time></trkpt><trkpt lat="47.748036354809955" lon="11.842202555043787"><ele>765.0</ele><time>2026-04-18T15:30:18.999Z</time></trkpt><trkpt lat="47.747947435266354" lon="11.842264773930275"><ele>765.0</ele><time>2026-04-18T15:30:20Z</time></trkpt><trkpt lat="47.747848893696144" lon="11.842347936774022"><ele>765.0</ele><time>2026-04-18T15:30:21Z</time></trkpt><trkpt lat="47.747744323617695" lon="11.84243210942979"><ele>765.0</ele><time>2026-04-18T15:30:22Z</time></trkpt><trkpt lat="47.74763239045168" lon="11.842508657599332"><ele>765.5</ele><time>2026-04-18T15:30:23Z</time></trkpt><trkpt lat="47.74755871034752" lon="11.842667566073393"><ele>766.0</ele><time>2026-04-18T15:30:24Z</time></trkpt><trkpt lat="47.747453272349276" lon="11.842721937921109"><ele>766.5</ele><time>2026-04-18T15:30:25Z</time></trkpt><trkpt lat="47.74737419353057" lon="11.84286213363041"><ele>767.0</ele><time>2026-04-18T15:30:26Z</time></trkpt><trkpt lat="47.747291779110334" lon="11.84296164026321"><ele>767.0</ele><time>2026-04-18T15:30:27Z</time></trkpt><trkpt lat="47.7471931079749" lon="11.84306692692852"><ele>767.0</ele><time>2026-04-18T15:30:28Z</time></trkpt><trkpt lat="47.7471052714839" lon="11.843148691073846"><ele>767.0</ele><time>2026-04-18T15:30:29Z</time></trkpt><trkpt lat="47.74702479949527" lon="11.84322131408784"><ele>767.0</ele><time>2026-04-18T15:30:30Z</time></trkpt><trkpt lat="47.74694177957245" lon="11.843303691800491"><ele>767.0</ele><time>2026-04-18T15:30:31Z</time></trkpt><trkpt lat="47.746852993457196" lon="11.843393690793915"><ele>767.0</ele><time>2026-04-18T15:30:32Z</time></trkpt><trkpt lat="47.74676588121239" lon="11.843478237823879"><ele>767.0</ele><time>2026-04-18T15:30:33Z</time></trkpt><trkpt lat="47.746675867536744" lon="11.84357276800295"><ele>767.0</ele><time>2026-04-18T15:30:34Z</time></trkpt><trkpt lat="47.746577914501074" lon="11.843680709118473"><ele>767.0</ele><time>2026-04-18T15:30:35Z</time></trkpt><trkpt lat="47.746492387466844" lon="11.843765378644214"><ele>767.0</ele><time>2026-04-18T15:30:36Z</time></trkpt><trkpt lat="47.746404986366315" lon="11.843847269082689"><ele>767.0</ele><time>2026-04-18T15:30:37Z</time></trkpt><trkpt lat="47.746337123529806" lon="11.84399688414365"><ele>767.0</ele><time>2026-04-18T15:30:38Z</time></trkpt><trkpt lat="47.74626135206353" lon="11.844095961914062"><ele>767.0</ele><time>2026-04-18T15:30:39Z</time></trkpt><trkpt lat="47.74617784379745" lon="11.844205883238411"><ele>767.0</ele><time>2026-04-18T15:30:40Z</time></trkpt><trkpt lat="47.74608665563851" lon="11.84432764392357"><ele>767.5</ele><time>2026-04-18T15:30:41Z</time></trkpt><trkpt lat="47.74599338251483" lon="11.844453962498447"><ele>768.0</ele><time>2026-04-18T15:30:42Z</time></trkpt><trkpt lat="47.74590178495574" lon="11.84457118809815"><ele>768.5</ele><time>2026-04-18T15:30:43Z</time></trkpt><trkpt lat="47.74580911219154" lon="11.84469609290578"><ele>769.0</ele><time>2026-04-18T15:30:44Z</time></trkpt><trkpt lat="47.745726094022395" lon="11.844786020200875"><ele>769.0</ele><time>2026-04-18T15:30:45Z</time></trkpt><trkpt lat="47.74563934241574" lon="11.844893735231471"><ele>769.0</ele><time>2026-04-18T15:30:46Z</time></trkpt><trkpt lat="47.745548951370154" lon="11.845003185937708"><ele>769.0</ele><time>2026-04-18T15:30:47Z</time></trkpt><trkpt lat="47.745452183174" lon="11.845117580422901"><ele>769.0</ele><time>2026-04-18T15:30:48Z</time></trkpt><trkpt lat="47.74534309399682" lon="11.845240454184948"><ele>769.0</ele><time>2026-04-18T15:30:49Z</time></trkpt><trkpt lat="47.74522830106376" lon="11.845390547191027"><ele>769.0</ele><time>2026-04-18T15:30:50Z</time></trkpt><trkpt lat="47.74507405770586" lon="11.845540786447692"><ele>769.0</ele><time>2026-04-18T15:30:51Z</time></trkpt><trkpt lat="47.74492703037552" lon="11.845690209751309"><ele>769.0</ele><time>2026-04-18T15:30:52Z</time></trkpt><trkpt lat="47.74479720638694" lon="11.845820483904085"><ele>769.0</ele><time>2026-04-18T15:30:53Z</time></trkpt><trkpt lat="47.74466759581827" lon="11.84594604146417"><ele>769.0</ele><time>2026-04-18T15:30:54Z</time></trkpt><trkpt lat="47.74452546015523" lon="11.846079249749874"><ele>769.3333333333333</ele><time>2026-04-18T15:30:55Z</time></trkpt><trkpt lat="47.74437664453341" lon="11.846221828095242"><ele>769.6666666666667</ele><time>2026-04-18T15:30:56Z</time></trkpt><trkpt lat="47.74423737446024" lon="11.846345042497488"><ele>770.0</ele><time>2026-04-18T15:30:57Z</time></trkpt><trkpt lat="47.744108601746035" lon="11.84645870278733"><ele>770.0</ele><time>2026-04-18T15:30:58Z</time></trkpt><trkpt lat="47.74397714371456" lon="11.846574979850208"><ele>770.0</ele><time>2026-04-18T15:30:59Z</time></trkpt><trkpt lat="47.74384646560646" lon="11.846688742112462"><ele>770.0</ele><time>2026-04-18T15:31:00Z</time></trkpt><trkpt lat="47.74371436810744" lon="11.846809589046101"><ele>771.0</ele><time>2026-04-18T15:31:01Z</time></trkpt><trkpt lat="47.74357814505432" lon="11.846940847423168"><ele>772.0</ele><time>2026-04-18T15:31:02Z</time></trkpt><trkpt lat="47.743444371401665" lon="11.847075063791426"><ele>773.0</ele><time>2026-04-18T15:31:03Z</time></trkpt><trkpt lat="47.74331361325574" lon="11.847213388824086"><ele>773.0</ele><time>2026-04-18T15:31:04Z</time></trkpt><trkpt lat="47.743174935156716" lon="11.847362885091771"><ele>773.0</ele><time>2026-04-18T15:31:05Z</time></trkpt><trkpt lat="47.74303121672685" lon="11.847528019198462"><ele>773.0</ele><time>2026-04-18T15:31:06Z</time></trkpt><trkpt lat="47.742882515429216" lon="11.847712536390455"><ele>774.3333333333334</ele><time>2026-04-18T15:31:07Z</time></trkpt><trkpt lat="47.74273990132657" lon="11.847907430309744"><ele>775.6666666666667</ele><time>2026-04-18T15:31:08Z</time></trkpt><trkpt lat="47.74260239421055" lon="11.848087957466026"><ele>777.0</ele><time>2026-04-18T15:31:09Z</time></trkpt><trkpt lat="47.7424668696158" lon="11.848267500775714"><ele>778.0</ele><time>2026-04-18T15:31:10Z</time></trkpt><trkpt lat="47.742333574477634" lon="11.848439630724549"><ele>779.0</ele><time>2026-04-18T15:31:11Z</time></trkpt><trkpt lat="47.742194770526766" lon="11.84860920054192"><ele>780.0</ele><time>2026-04-18T15:31:12Z</time></trkpt><trkpt lat="47.742058102689576" lon="11.848778862322153"><ele>781.3333333333333</ele><time>2026-04-18T15:31:13Z</time></trkpt><trkpt lat="47.74192404432374" lon="11.848944998624361"><ele>782.6666666666666</ele><time>2026-04-18T15:31:14Z</time></trkpt><trkpt lat="47.74178952976158" lon="11.849100528164982"><ele>784.0</ele><time>2026-04-18T15:31:15Z</time></trkpt><trkpt lat="47.74165812169275" lon="11.849243643207394"><ele>787.6666666666666</ele><time>2026-04-18T15:31:16Z</time></trkpt><trkpt lat="47.74152788796115" lon="11.84937731848959"><ele>791.3333333333333</ele><time>2026-04-18T15:31:17Z</time></trkpt><trkpt lat="47.74139330880788" lon="11.849507874566754"><ele>795.0</ele><time>2026-04-18T15:31:18Z</time></trkpt><trkpt lat="47.74125442981573" lon="11.84962361767028"><ele>795.0</ele><time>2026-04-18T15:31:19Z</time></trkpt><trkpt lat="47.74112117351826" lon="11.849737814419154"><ele>795.0</ele><time>2026-04-18T15:31:20Z</time></trkpt><trkpt lat="47.740989247919" lon="11.849848059857122"><ele>795.0</ele><time>2026-04-18T15:31:21Z</time></trkpt><trkpt lat="47.74086418522677" lon="11.849958974426658"><ele>793.75</ele><time>2026-04-18T15:31:22Z</time></trkpt><trkpt lat="47.74074299876682" lon="11.850065402749347"><ele>792.5</ele><time>2026-04-18T15:31:23Z</time></trkpt><trkpt lat="47.74062344185856" lon="11.850173641383964"><ele>791.25</ele><time>2026-04-18T15:31:24Z</time></trkpt><trkpt lat="47.740508776709085" lon="11.850288703214225"><ele>790.0</ele><time>2026-04-18T15:31:25Z</time></trkpt><trkpt lat="47.74040105258146" lon="11.850401717386667"><ele>790.0</ele><time>2026-04-18T15:31:26Z</time></trkpt><trkpt lat="47.74030489729938" lon="11.850515362675754"><ele>790.0</ele><time>2026-04-18T15:31:27Z</time></trkpt><trkpt lat="47.74021519607291" lon="11.850632019248666"><ele>790.0</ele><time>2026-04-18T15:31:28Z</time></trkpt><trkpt lat="47.740138703571425" lon="11.850749996602298"><ele>790.0</ele><time>2026-04-18T15:31:29Z</time></trkpt><trkpt lat="47.740064414950886" lon="11.850865841155349"><ele>789.0</ele><time>2026-04-18T15:31:30Z</time></trkpt><trkpt lat="47.739991623368255" lon="11.850983694343237"><ele>788.0</ele><time>2026-04-18T15:31:31Z</time></trkpt><trkpt lat="47.739919690579605" lon="11.851107583604064"><ele>787.0</ele><time>2026-04-18T15:31:32Z</time></trkpt><trkpt lat="47.73984508102746" lon="11.851238791204752"><ele>786.0</ele><time>2026-04-18T15:31:33Z</time></trkpt><trkpt lat="47.73976375582459" lon="11.851384805029287"><ele>786.0</ele><time>2026-04-18T15:31:34Z</time></trkpt><trkpt lat="47.739683146067556" lon="11.85153483035125"><ele>786.0</ele><time>2026-04-18T15:31:35Z</time></trkpt><trkpt lat="47.73960071358112" lon="11.851683076391884"><ele>786.0</ele><time>2026-04-18T15:31:36Z</time></trkpt><trkpt lat="47.73951786388944" lon="11.851832029313332"><ele>786.0</ele><time>2026-04-18T15:31:37Z</time></trkpt><trkpt lat="47.73943702247949" lon="11.851973361271227"><ele>784.75</ele><time>2026-04-18T15:31:38Z</time></trkpt><trkpt lat="47.73935319232576" lon="11.852105349140624"><ele>783.5</ele><time>2026-04-18T15:31:39Z</time></trkpt><trkpt lat="47.73926973957623" lon="11.852226736654385"><ele>782.25</ele><time>2026-04-18T15:31:40Z</time></trkpt><trkpt lat="47.73918651986339" lon="11.852340386072498"><ele>781.0</ele><time>2026-04-18T15:31:41Z</time></trkpt><trkpt lat="47.73910253456023" lon="11.85244731557862"><ele>781.0</ele><time>2026-04-18T15:31:42Z</time></trkpt><trkpt lat="47.739016896370224" lon="11.852549202613998"><ele>781.0</ele><time>2026-04-18T15:31:43Z</time></trkpt><trkpt lat="47.73893163090617" lon="11.852651251646055"><ele>781.0</ele><time>2026-04-18T15:31:44Z</time></trkpt><trkpt lat="47.73884422417635" lon="11.852745754007243"><ele>781.0</ele><time>2026-04-18T15:31:45Z</time></trkpt><trkpt lat="47.738757150374916" lon="11.852840194800823"><ele>781.0</ele><time>2026-04-18T15:31:46Z</time></trkpt><trkpt lat="47.73867697427621" lon="11.852928895740366"><ele>781.6666666666666</ele><time>2026-04-18T15:31:47Z</time></trkpt><trkpt lat="47.73860113083069" lon="11.853012358972707"><ele>782.3333333333333</ele><time>2026-04-18T15:31:48Z</time></trkpt><trkpt lat="47.73852691436087" lon="11.853089781764625"><ele>783.0</ele><time>2026-04-18T15:31:49Z</time></trkpt><trkpt lat="47.73845426229816" lon="11.85316253831528"><ele>783.6666666666667</ele><time>2026-04-18T15:31:50Z</time></trkpt><trkpt lat="47.73838404683638" lon="11.853231647471969"><ele>784.3333333333334</ele><time>2026-04-18T15:31:51Z</time></trkpt><trkpt lat="47.73831551861754" lon="11.853307865318508"><ele>785.0</ele><time>2026-04-18T15:31:52Z</time></trkpt><trkpt lat="47.73825046999456" lon="11.853382521976833"><ele>785.0000000000001</ele><time>2026-04-18T15:31:53Z</time></trkpt><trkpt lat="47.73819084098322" lon="11.8534476993743"><ele>785.0</ele><time>2026-04-18T15:31:54Z</time></trkpt><trkpt lat="47.73813562170583" lon="11.853505423017953"><ele>785.0</ele><time>2026-04-18T15:31:55Z</time></trkpt><trkpt lat="47.7380574019345" lon="11.853604645948042"><ele>785.0</ele><time>2026-04-18T15:31:57Z</time></trkpt><trkpt lat="47.738009645312204" lon="11.853677479828724"><ele>785.0000000000001</ele><time>2026-04-18T15:31:59Z</time></trkpt><trkpt lat="47.737969708621335" lon="11.853762484444264"><ele>785.0</ele><time>2026-04-18T15:32:02Z</time></trkpt><trkpt lat="47.737914056743065" lon="11.853862715133742"><ele>785.6</ele><time>2026-04-18T15:33:06Z</time></trkpt><trkpt lat="47.73784362541095" lon="11.854033719242617"><ele>786.2</ele><time>2026-04-18T15:33:08Z</time></trkpt><trkpt lat="47.737799355495184" lon="11.854149074601668"><ele>786.8</ele><time>2026-04-18T15:33:09Z</time></trkpt><trkpt lat="47.737752895252484" lon="11.85428491137673"><ele>787.4</ele><time>2026-04-18T15:33:10Z</time></trkpt><trkpt lat="47.7377157294514" lon="11.854436931256108"><ele>788.0</ele><time>2026-04-18T15:33:11Z</time></trkpt><trkpt lat="47.737693497892266" lon="11.8545819105354"><ele>788.0</ele><time>2026-04-18T15:33:12Z</time></trkpt><trkpt lat="47.737661478899604" lon="11.85468810818436"><ele>788.0</ele><time>2026-04-18T15:33:13Z</time></trkpt><trkpt lat="47.73764618631792" lon="11.854789378098317"><ele>788.0</ele><time>2026-04-18T15:33:14Z</time></trkpt><trkpt lat="47.737646179679345" lon="11.854896197103306"><ele>788.0</ele><time>2026-04-18T15:33:15Z</time></trkpt><trkpt lat="47.73762929255427" lon="11.855004017401633"><ele>788.0</ele><time>2026-04-18T15:33:16Z</time></trkpt><trkpt lat="47.737599583816646" lon="11.855107264407819"><ele>788.0</ele><time>2026-04-18T15:33:17Z</time></trkpt><trkpt lat="47.73758306471551" lon="11.855221018480327"><ele>788.0</ele><time>2026-04-18T15:33:18Z</time></trkpt><trkpt lat="47.73758013599159" lon="11.855350531657171"><ele>788.1666666666667</ele><time>2026-04-18T15:33:19Z</time></trkpt><trkpt lat="47.737581009728586" lon="11.855496402790365"><ele>788.3333333333334</ele><time>2026-04-18T15:33:20Z</time></trkpt><trkpt lat="47.73760219814112" lon="11.855640749071847"><ele>788.5</ele><time>2026-04-18T15:33:21Z</time></trkpt><trkpt lat="47.737608011425905" lon="11.855759132123453"><ele>788.6666666666667</ele><time>2026-04-18T15:33:22Z</time></trkpt><trkpt lat="47.73761206843389" lon="11.855861327311242"><ele>788.8333333333334</ele><time>2026-04-18T15:33:23Z</time></trkpt><trkpt lat="47.73761743370087" lon="11.855964903964772"><ele>789.0</ele><time>2026-04-18T15:33:24Z</time></trkpt><trkpt lat="47.73762621180997" lon="11.856136966307906"><ele>789.1666666666666</ele><time>2026-04-18T15:33:26Z</time></trkpt><trkpt lat="47.73764248737833" lon="11.856282970735892"><ele>789.3333333333333</ele><time>2026-04-18T15:33:28Z</time></trkpt><trkpt lat="47.737625172492685" lon="11.856430480289347"><ele>789.5</ele><time>2026-04-18T15:33:30Z</time></trkpt><trkpt lat="47.73764254075174" lon="11.856526263926662"><ele>789.6666666666666</ele><time>2026-04-18T15:33:33Z</time></trkpt><trkpt lat="47.737646995181436" lon="11.856626064803367"><ele>789.8333333333333</ele><time>2026-04-18T15:33:36Z</time></trkpt><trkpt lat="47.73764267047894" lon="11.856785202365007"><ele>790.0</ele><time>2026-04-18T15:33:38Z</time></trkpt><trkpt lat="47.7376290087578" lon="11.856951288330626"><ele>790.5</ele><time>2026-04-18T15:33:40Z</time></trkpt><trkpt lat="47.73758784047847" lon="11.857140304059463"><ele>791.0</ele><time>2026-04-18T15:33:42Z</time></trkpt><trkpt lat="47.737559284250885" lon="11.857287216914624"><ele>791.5</ele><time>2026-04-18T15:33:43Z</time></trkpt><trkpt lat="47.73751847963954" lon="11.85747696243867"><ele>792.0</ele><time>2026-04-18T15:33:44Z</time></trkpt><trkpt lat="47.73746249558157" lon="11.857600678409392"><ele>792.0</ele><time>2026-04-18T15:33:45Z</time></trkpt><trkpt lat="47.737424701556776" lon="11.857713212340157"><ele>792.0</ele><time>2026-04-18T15:33:46Z</time></trkpt><trkpt lat="47.73738425955712" lon="11.857829414754141"><ele>792.0</ele><time>2026-04-18T15:33:47Z</time></trkpt><trkpt lat="47.73734521269606" lon="11.857964731270043"><ele>792.0</ele><time>2026-04-18T15:33:48Z</time></trkpt><trkpt lat="47.73730051619186" lon="11.85813745223008"><ele>792.0</ele><time>2026-04-18T15:33:49Z</time></trkpt><trkpt lat="47.73725645224329" lon="11.85832039340649"><ele>792.4000000000001</ele><time>2026-04-18T15:33:50Z</time></trkpt><trkpt lat="47.73722490601876" lon="11.858481154542854"><ele>792.8000000000001</ele><time>2026-04-18T15:33:51Z</time></trkpt><trkpt lat="47.73719259425921" lon="11.858623548675187"><ele>793.2</ele><time>2026-04-18T15:33:52Z</time></trkpt><trkpt lat="47.73716132945653" lon="11.858758760903154"><ele>793.6</ele><time>2026-04-18T15:33:53Z</time></trkpt><trkpt lat="47.73712917959602" lon="11.858888036324329"><ele>794.0</ele><time>2026-04-18T15:33:54Z</time></trkpt><trkpt lat="47.737096453427704" lon="11.859025239020168"><ele>794.0</ele><time>2026-04-18T15:33:55Z</time></trkpt><trkpt lat="47.73706147394756" lon="11.859163416798854"><ele>794.0</ele><time>2026-04-18T15:33:56Z</time></trkpt><trkpt lat="47.73701747089939" lon="11.85929823554144"><ele>794.0</ele><time>2026-04-18T15:33:57Z</time></trkpt><trkpt lat="47.73697920048888" lon="11.8593981144454"><ele>794.0</ele><time>2026-04-18T15:33:58Z</time></trkpt><trkpt lat="47.73693112639099" lon="11.859531496123672"><ele>794.0</ele><time>2026-04-18T15:33:59Z</time></trkpt><trkpt lat="47.736868143645395" lon="11.859635141164457"><ele>793.8000000000001</ele><time>2026-04-18T15:34:00Z</time></trkpt><trkpt lat="47.736790027539094" lon="11.859770478206407"><ele>793.6</ele><time>2026-04-18T15:34:00.999Z</time></trkpt><trkpt lat="47.7367229891018" lon="11.859871823177222"><ele>793.4</ele><time>2026-04-18T15:34:01.999Z</time></trkpt><trkpt lat="47.7366513597917" lon="11.860009035683243"><ele>793.2</ele><time>2026-04-18T15:34:02.999Z</time></trkpt><trkpt lat="47.736588243443045" lon="11.860124691631986"><ele>793.0</ele><time>2026-04-18T15:34:03.999Z</time></trkpt><trkpt lat="47.73652275934653" lon="11.860234964591525"><ele>793.0</ele><time>2026-04-18T15:34:04.999Z</time></trkpt><trkpt lat="47.73645887623271" lon="11.86034405607307"><ele>793.0</ele><time>2026-04-18T15:34:06Z</time></trkpt><trkpt lat="47.73638827317459" lon="11.860451574063108"><ele>793.0</ele><time>2026-04-18T15:34:07Z</time></trkpt><trkpt lat="47.73632059977485" lon="11.860567596623484"><ele>793.0</ele><time>2026-04-18T15:34:08Z</time></trkpt><trkpt lat="47.73626615834126" lon="11.860686432095708"><ele>793.0</ele><time>2026-04-18T15:34:09Z</time></trkpt><trkpt lat="47.736200983530736" lon="11.860822807063634"><ele>793.0</ele><time>2026-04-18T15:34:10Z</time></trkpt><trkpt lat="47.73613403869565" lon="11.86096094950014"><ele>793.0</ele><time>2026-04-18T15:34:11Z</time></trkpt><trkpt lat="47.73606482436122" lon="11.86108389051238"><ele>793.0</ele><time>2026-04-18T15:34:12Z</time></trkpt><trkpt lat="47.73599902484163" lon="11.861226801054668"><ele>793.0</ele><time>2026-04-18T15:34:13Z</time></trkpt><trkpt lat="47.73593752310259" lon="11.861359091666337"><ele>793.0</ele><time>2026-04-18T15:34:14Z</time></trkpt><trkpt lat="47.73586888587626" lon="11.861488266285308"><ele>793.0</ele><time>2026-04-18T15:34:15Z</time></trkpt><trkpt lat="47.73580563951339" lon="11.861630531766888"><ele>793.0</ele><time>2026-04-18T15:34:16Z</time></trkpt><trkpt lat="47.73575099027896" lon="11.861784908410403"><ele>793.0</ele><time>2026-04-18T15:34:17Z</time></trkpt><trkpt lat="47.73570295293347" lon="11.861930698528274"><ele>793.0</ele><time>2026-04-18T15:34:18Z</time></trkpt><trkpt lat="47.735662816076335" lon="11.862057634327174"><ele>793.0</ele><time>2026-04-18T15:34:19Z</time></trkpt><trkpt lat="47.73562046149211" lon="11.862186861966643"><ele>792.9999999999999</ele><time>2026-04-18T15:34:20Z</time></trkpt><trkpt lat="47.73560409739601" lon="11.862332395331828"><ele>793.0</ele><time>2026-04-18T15:34:21Z</time></trkpt><trkpt lat="47.735591257072436" lon="11.862458421986663"><ele>793.0</ele><time>2026-04-18T15:34:22Z</time></trkpt><trkpt lat="47.735570904920955" lon="11.862573740564324"><ele>793.0</ele><time>2026-04-18T15:34:23Z</time></trkpt><trkpt lat="47.735546634112616" lon="11.86268351174718"><ele>792.9999999999999</ele><time>2026-04-18T15:34:24Z</time></trkpt><trkpt lat="47.73550251469629" lon="11.862827229498846"><ele>793.0</ele><time>2026-04-18T15:34:25Z</time></trkpt><trkpt lat="47.73545549675698" lon="11.862940685592841"><ele>793.4</ele><time>2026-04-18T15:34:26Z</time></trkpt><trkpt lat="47.735409028100364" lon="11.863060021490547"><ele>793.8</ele><time>2026-04-18T15:34:27Z</time></trkpt><trkpt lat="47.735364360021606" lon="11.863140081261129"><ele>794.2</ele><time>2026-04-18T15:34:28Z</time></trkpt><trkpt lat="47.735320119224426" lon="11.863218038290517"><ele>794.6</ele><time>2026-04-18T15:34:29Z</time></trkpt><trkpt lat="47.73522509845751" lon="11.863405906507861"><ele>795.0</ele><time>2026-04-18T15:34:31Z</time></trkpt><trkpt lat="47.735170832955944" lon="11.863510272392954"><ele>795.0</ele><time>2026-04-18T15:34:32Z</time></trkpt><trkpt lat="47.73512107545929" lon="11.863602677777607"><ele>795.0</ele><time>2026-04-18T15:34:33Z</time></trkpt><trkpt lat="47.73507045759209" lon="11.863672952454225"><ele>795.0</ele><time>2026-04-18T15:34:34Z</time></trkpt><trkpt lat="47.73497061269552" lon="11.863768157772983"><ele>795.0</ele><time>2026-04-18T15:34:36Z</time></trkpt><trkpt lat="47.73488946560548" lon="11.863927108325239"><ele>795.0</ele><time>2026-04-18T15:34:38Z</time></trkpt><trkpt lat="47.73484034332292" lon="11.864031388365735"><ele>795.0</ele><time>2026-04-18T15:34:39Z</time></trkpt><trkpt lat="47.73479798588955" lon="11.864116292410689"><ele>795.0</ele><time>2026-04-18T15:34:40Z</time></trkpt><trkpt lat="47.73475277387066" lon="11.864199740120265"><ele>795.0</ele><time>2026-04-18T15:34:41Z</time></trkpt><trkpt lat="47.73469486064707" lon="11.864290038266015"><ele>795.0</ele><time>2026-04-18T15:34:42Z</time></trkpt><trkpt lat="47.73462333659564" lon="11.864355286373502"><ele>795.0</ele><time>2026-04-18T15:34:43Z</time></trkpt><trkpt lat="47.73453954235322" lon="11.86443417994437"><ele>795.0</ele><time>2026-04-18T15:34:44Z</time></trkpt><trkpt lat="47.73446699808512" lon="11.864503029241538"><ele>794.6666666666666</ele><time>2026-04-18T15:34:45Z</time></trkpt><trkpt lat="47.73439708959117" lon="11.864578698795226"><ele>794.3333333333333</ele><time>2026-04-18T15:34:46Z</time></trkpt><trkpt lat="47.73433185949916" lon="11.864627639238664"><ele>794.0</ele><time>2026-04-18T15:34:47Z</time></trkpt><trkpt lat="47.73426540235628" lon="11.864683654812703"><ele>793.6666666666666</ele><time>2026-04-18T15:34:48Z</time></trkpt><trkpt lat="47.73419516742323" lon="11.864736289741908"><ele>793.3333333333333</ele><time>2026-04-18T15:34:49Z</time></trkpt><trkpt lat="47.73411967597899" lon="11.864764745533495"><ele>793.0</ele><time>2026-04-18T15:34:50Z</time></trkpt><trkpt lat="47.73403466905338" lon="11.864757239595324"><ele>792.9999999999999</ele><time>2026-04-18T15:34:51Z</time></trkpt><trkpt lat="47.73395572020885" lon="11.864735620997129"><ele>793.0</ele><time>2026-04-18T15:34:52Z</time></trkpt><trkpt lat="47.733875649020575" lon="11.864746905696238"><ele>793.0</ele><time>2026-04-18T15:34:53Z</time></trkpt><trkpt lat="47.73379369062723" lon="11.86480126068322"><ele>793.0</ele><time>2026-04-18T15:34:54Z</time></trkpt><trkpt lat="47.73372437896127" lon="11.864840831710183"><ele>792.9999999999999</ele><time>2026-04-18T15:34:55Z</time></trkpt><trkpt lat="47.733667482392235" lon="11.864906274004055"><ele>793.0</ele><time>2026-04-18T15:34:56Z</time></trkpt><trkpt lat="47.73356949072285" lon="11.864992303434674"><ele>792.4</ele><time>2026-04-18T15:34:57Z</time></trkpt><trkpt lat="47.73349382155766" lon="11.865071958376396"><ele>791.8</ele><time>2026-04-18T15:34:58Z</time></trkpt><trkpt lat="47.733426681258194" lon="11.86513752719648"><ele>791.2</ele><time>2026-04-18T15:34:59Z</time></trkpt><trkpt lat="47.73336047117962" lon="11.86520730319064"><ele>790.6</ele><time>2026-04-18T15:35:00Z</time></trkpt><trkpt lat="47.73325710741929" lon="11.865313546743621"><ele>790.0</ele><time>2026-04-18T15:35:02Z</time></trkpt><trkpt lat="47.73319990943514" lon="11.86540222044075"><ele>790.0</ele><time>2026-04-18T15:35:03Z</time></trkpt><trkpt lat="47.733135759696545" lon="11.86551196087839"><ele>790.0</ele><time>2026-04-18T15:35:04Z</time></trkpt><trkpt lat="47.73306163808527" lon="11.865644505258222"><ele>790.0</ele><time>2026-04-18T15:35:05Z</time></trkpt><trkpt lat="47.7329953667167" lon="11.865752285916502"><ele>790.0</ele><time>2026-04-18T15:35:06Z</time></trkpt><trkpt lat="47.732932374777285" lon="11.8658393691344"><ele>790.0</ele><time>2026-04-18T15:35:07Z</time></trkpt><trkpt lat="47.73287366977696" lon="11.865934512530858"><ele>789.3333333333333</ele><time>2026-04-18T15:35:08Z</time></trkpt><trkpt lat="47.732822865068364" lon="11.865994833786486"><ele>788.6666666666666</ele><time>2026-04-18T15:35:09Z</time></trkpt><trkpt lat="47.73275934896378" lon="11.866070107095117"><ele>788.0</ele><time>2026-04-18T15:35:10Z</time></trkpt><trkpt lat="47.732699517763336" lon="11.866155722235536"><ele>787.3333333333333</ele><time>2026-04-18T15:35:11Z</time></trkpt><trkpt lat="47.73263813331993" lon="11.866260131628005"><ele>786.6666666666666</ele><time>2026-04-18T15:35:12Z</time></trkpt><trkpt lat="47.73258865042175" lon="11.866368200480624"><ele>786.0</ele><time>2026-04-18T15:35:13Z</time></trkpt><trkpt lat="47.732551295277254" lon="11.86647384156"><ele>786.0000000000001</ele><time>2026-04-18T15:35:14Z</time></trkpt><trkpt lat="47.73251769888763" lon="11.866578101416408"><ele>786.0</ele><time>2026-04-18T15:35:15Z</time></trkpt><trkpt lat="47.732491562710884" lon="11.866686738955407"><ele>786.0</ele><time>2026-04-18T15:35:16Z</time></trkpt><trkpt lat="47.73246366343531" lon="11.866789728224303"><ele>786.0</ele><time>2026-04-18T15:35:17Z</time></trkpt><trkpt lat="47.732440268634754" lon="11.866890802763027"><ele>786.0</ele><time>2026-04-18T15:35:18Z</time></trkpt><trkpt lat="47.732420817860664" lon="11.866991679080197"><ele>786.0000000000001</ele><time>2026-04-18T15:35:19Z</time></trkpt><trkpt lat="47.73239549505036" lon="11.86709477596193"><ele>786.0</ele><time>2026-04-18T15:35:20Z</time></trkpt><trkpt lat="47.73236659852082" lon="11.86721401127458"><ele>786.0</ele><time>2026-04-18T15:35:21Z</time></trkpt><trkpt lat="47.73233000886243" lon="11.867302472852034"><ele>786.0</ele><time>2026-04-18T15:35:22Z</time></trkpt><trkpt lat="47.732256953691014" lon="11.867408111235017"><ele>786.0</ele><time>2026-04-18T15:35:23Z</time></trkpt><trkpt lat="47.73220112887411" lon="11.867555451524366"><ele>786.0</ele><time>2026-04-18T15:35:24Z</time></trkpt><trkpt lat="47.73215519064471" lon="11.86764814003617"><ele>786.0</ele><time>2026-04-18T15:35:25Z</time></trkpt><trkpt lat="47.73211416321711" lon="11.867730073164054"><ele>786.0</ele><time>2026-04-18T15:35:26Z</time></trkpt><trkpt lat="47.732059658823665" lon="11.867816906115007"><ele>786.0</ele><time>2026-04-18T15:35:27Z</time></trkpt><trkpt lat="47.73198195608686" lon="11.867931780922957"><ele>786.0</ele><time>2026-04-18T15:35:28Z</time></trkpt><trkpt lat="47.73187001766701" lon="11.868013097881512"><ele>786.0</ele><time>2026-04-18T15:35:29Z</time></trkpt><trkpt lat="47.731793341843556" lon="11.868063184262114"><ele>786.0</ele><time>2026-04-18T15:35:30Z</time></trkpt><trkpt lat="47.73171055872486" lon="11.868165887196248"><ele>786.0</ele><time>2026-04-18T15:35:31Z</time></trkpt><trkpt lat="47.731635310374564" lon="11.868240236959357"><ele>785.8</ele><time>2026-04-18T15:35:32Z</time></trkpt><trkpt lat="47.73155350191104" lon="11.868306536787086"><ele>785.5999999999999</ele><time>2026-04-18T15:35:33Z</time></trkpt><trkpt lat="47.7314663909636" lon="11.868367357158167"><ele>785.4</ele><time>2026-04-18T15:35:34Z</time></trkpt><trkpt lat="47.73136704224093" lon="11.868416405200664"><ele>785.2</ele><time>2026-04-18T15:35:35Z</time></trkpt><trkpt lat="47.73125525437847" lon="11.86842796849187"><ele>785.0</ele><time>2026-04-18T15:35:36Z</time></trkpt><trkpt lat="47.73115601809589" lon="11.86844324931119"><ele>784.6</ele><time>2026-04-18T15:35:37Z</time></trkpt><trkpt lat="47.73107368205818" lon="11.868441959772012"><ele>784.2</ele><time>2026-04-18T15:35:38Z</time></trkpt><trkpt lat="47.73098920247039" lon="11.868423691655746"><ele>783.8</ele><time>2026-04-18T15:35:39Z</time></trkpt><trkpt lat="47.73087850073893" lon="11.868383724935988"><ele>783.4</ele><time>2026-04-18T15:35:40Z</time></trkpt><trkpt lat="47.73076935834442" lon="11.868341261586965"><ele>783.0</ele><time>2026-04-18T15:35:41Z</time></trkpt><trkpt lat="47.73065997683589" lon="11.868299262107598"><ele>783.0</ele><time>2026-04-18T15:35:42Z</time></trkpt><trkpt lat="47.73055843763077" lon="11.868267942867917"><ele>783.0</ele><time>2026-04-18T15:35:43Z</time></trkpt><trkpt lat="47.7304581767972" lon="11.868231288053204"><ele>783.0</ele><time>2026-04-18T15:35:44Z</time></trkpt><trkpt lat="47.73035839359341" lon="11.868197505153676"><ele>783.0</ele><time>2026-04-18T15:35:45Z</time></trkpt><trkpt lat="47.730260008591586" lon="11.868163471036949"><ele>783.0</ele><time>2026-04-18T15:35:46Z</time></trkpt><trkpt lat="47.73015256112678" lon="11.868129438152955"><ele>782.75</ele><time>2026-04-18T15:35:47Z</time></trkpt><trkpt lat="47.73002736861718" lon="11.86808351282781"><ele>782.5</ele><time>2026-04-18T15:35:48Z</time></trkpt><trkpt lat="47.72989909514149" lon="11.868043721390785"><ele>782.25</ele><time>2026-04-18T15:35:49Z</time></trkpt><trkpt lat="47.72978259515615" lon="11.868002668922585"><ele>782.0</ele><time>2026-04-18T15:35:50Z</time></trkpt><trkpt lat="47.72966740629042" lon="11.867970170136976"><ele>782.0</ele><time>2026-04-18T15:35:51Z</time></trkpt><trkpt lat="47.72955554810789" lon="11.867957917481547"><ele>782.0</ele><time>2026-04-18T15:35:52Z</time></trkpt><trkpt lat="47.729443358258436" lon="11.867972359749183"><ele>782.0</ele><time>2026-04-18T15:35:53Z</time></trkpt><trkpt lat="47.729352454501566" lon="11.868031945213014"><ele>782.0</ele><time>2026-04-18T15:35:54Z</time></trkpt><trkpt lat="47.72924638722115" lon="11.868094601488849"><ele>782.0</ele><time>2026-04-18T15:35:55Z</time></trkpt><trkpt lat="47.72912198808569" lon="11.868171960731718"><ele>781.5</ele><time>2026-04-18T15:35:56Z</time></trkpt><trkpt lat="47.729049846595046" lon="11.868217407892336"><ele>781.0</ele><time>2026-04-18T15:35:57Z</time></trkpt><trkpt lat="47.72894738607048" lon="11.868280626557997"><ele>780.5</ele><time>2026-04-18T15:35:58Z</time></trkpt><trkpt lat="47.728824602078575" lon="11.86835474041947"><ele>780.0</ele><time>2026-04-18T15:35:59Z</time></trkpt><trkpt lat="47.728705338929224" lon="11.86842885002466"><ele>780.6</ele><time>2026-04-18T15:36:00Z</time></trkpt><trkpt lat="47.72860268192855" lon="11.868481564423286"><ele>781.2</ele><time>2026-04-18T15:36:01Z</time></trkpt><trkpt lat="47.728507245550745" lon="11.868516353303354"><ele>781.8</ele><time>2026-04-18T15:36:02Z</time></trkpt><trkpt lat="47.72840002070592" lon="11.86855378302138"><ele>782.4</ele><time>2026-04-18T15:36:03Z</time></trkpt><trkpt lat="47.72828341103709" lon="11.868583757637953"><ele>783.0</ele><time>2026-04-18T15:36:04Z</time></trkpt><trkpt lat="47.72816137810808" lon="11.868610173312945"><ele>783.25</ele><time>2026-04-18T15:36:05Z</time></trkpt><trkpt lat="47.72803324733401" lon="11.86862489994245"><ele>783.5</ele><time>2026-04-18T15:36:06Z</time></trkpt><trkpt lat="47.727904594531516" lon="11.868661709888734"><ele>783.75</ele><time>2026-04-18T15:36:07Z</time></trkpt><trkpt lat="47.72779658695973" lon="11.86871319846381"><ele>784.0</ele><time>2026-04-18T15:36:08Z</time></trkpt><trkpt lat="47.727676421016106" lon="11.868727028878915"><ele>784.0</ele><time>2026-04-18T15:36:09Z</time></trkpt><trkpt lat="47.72756429884256" lon="11.868754959490511"><ele>784.0</ele><time>2026-04-18T15:36:10Z</time></trkpt><trkpt lat="47.72745637450599" lon="11.86878806174014"><ele>784.0</ele><time>2026-04-18T15:36:11Z</time></trkpt><trkpt lat="47.7273500961284" lon="11.868827257589311"><ele>784.0</ele><time>2026-04-18T15:36:12Z</time></trkpt><trkpt lat="47.72724699710765" lon="11.868881169290619"><ele>784.0</ele><time>2026-04-18T15:36:13Z</time></trkpt><trkpt lat="47.72714434763038" lon="11.868942106480658"><ele>784.0</ele><time>2026-04-18T15:36:14Z</time></trkpt><trkpt lat="47.727039844234575" lon="11.869006018753504"><ele>784.0</ele><time>2026-04-18T15:36:15Z</time></trkpt><trkpt lat="47.72694373071138" lon="11.869057582604482"><ele>784.0</ele><time>2026-04-18T15:36:16Z</time></trkpt><trkpt lat="47.72684059880902" lon="11.86911571249677"><ele>784.0</ele><time>2026-04-18T15:36:17Z</time></trkpt><trkpt lat="47.72673662995988" lon="11.86917431401704"><ele>784.0</ele><time>2026-04-18T15:36:18Z</time></trkpt><trkpt lat="47.72662667718058" lon="11.869228477753238"><ele>784.8000000000001</ele><time>2026-04-18T15:36:19Z</time></trkpt><trkpt lat="47.72651722305021" lon="11.869278627091408"><ele>785.6</ele><time>2026-04-18T15:36:20Z</time></trkpt><trkpt lat="47.726410823060384" lon="11.869322414161871"><ele>786.4</ele><time>2026-04-18T15:36:21Z</time></trkpt><trkpt lat="47.72631026595857" lon="11.869346966963034"><ele>787.2</ele><time>2026-04-18T15:36:22Z</time></trkpt><trkpt lat="47.726204628740646" lon="11.869398867205177"><ele>788.0</ele><time>2026-04-18T15:36:23Z</time></trkpt><trkpt lat="47.7260998767537" lon="11.869432599074077"><ele>787.2</ele><time>2026-04-18T15:36:24Z</time></trkpt><trkpt lat="47.72599813090118" lon="11.869475153615012"><ele>786.4</ele><time>2026-04-18T15:36:25Z</time></trkpt><trkpt lat="47.725888115886555" lon="11.869499781351426"><ele>785.6</ele><time>2026-04-18T15:36:26Z</time></trkpt><trkpt lat="47.72578137869598" lon="11.869543400576234"><ele>784.8000000000001</ele><time>2026-04-18T15:36:27Z</time></trkpt><trkpt lat="47.72566456307887" lon="11.869575313510861"><ele>784.0</ele><time>2026-04-18T15:36:28Z</time></trkpt><trkpt lat="47.72554630324235" lon="11.869608700188865"><ele>784.0</ele><time>2026-04-18T15:36:29Z</time></trkpt><trkpt lat="47.725424540257904" lon="11.869640225915674"><ele>784.0</ele><time>2026-04-18T15:36:30Z</time></trkpt><trkpt lat="47.72528633941626" lon="11.869643471302137"><ele>784.0</ele><time>2026-04-18T15:36:31Z</time></trkpt><trkpt lat="47.72511976146485" lon="11.869608267727097"><ele>784.0</ele><time>2026-04-18T15:36:32Z</time></trkpt><trkpt lat="47.72496350935396" lon="11.869571955817106"><ele>783.0</ele><time>2026-04-18T15:36:33Z</time></trkpt><trkpt lat="47.72482118058232" lon="11.869539451935244"><ele>782.0</ele><time>2026-04-18T15:36:34Z</time></trkpt><trkpt lat="47.72468813515508" lon="11.869489439478228"><ele>781.0</ele><time>2026-04-18T15:36:35Z</time></trkpt><trkpt lat="47.72456229957145" lon="11.869432306907155"><ele>780.0</ele><time>2026-04-18T15:36:36Z</time></trkpt><trkpt lat="47.72444056018712" lon="11.869394254228753"><ele>780.5</ele><time>2026-04-18T15:36:37Z</time></trkpt><trkpt lat="47.7243097143958" lon="11.869382665748303"><ele>781.0</ele><time>2026-04-18T15:36:38Z</time></trkpt><trkpt lat="47.72417095633762" lon="11.869407620485047"><ele>781.5</ele><time>2026-04-18T15:36:39Z</time></trkpt><trkpt lat="47.72403360937777" lon="11.869444299510247"><ele>782.0</ele><time>2026-04-18T15:36:40Z</time></trkpt><trkpt lat="47.723915868677004" lon="11.869494658567561"><ele>782.0</ele><time>2026-04-18T15:36:41Z</time></trkpt><trkpt lat="47.72380700104666" lon="11.869548414302397"><ele>782.0</ele><time>2026-04-18T15:36:42Z</time></trkpt><trkpt lat="47.72371164984091" lon="11.869598275049087"><ele>782.0</ele><time>2026-04-18T15:36:43Z</time></trkpt><trkpt lat="47.723603857879375" lon="11.869612837501865"><ele>782.0</ele><time>2026-04-18T15:36:44Z</time></trkpt><trkpt lat="47.72348565870895" lon="11.869636606693291"><ele>782.0</ele><time>2026-04-18T15:36:45Z</time></trkpt><trkpt lat="47.72335790921697" lon="11.869650817197773"><ele>782.0</ele><time>2026-04-18T15:36:46Z</time></trkpt><trkpt lat="47.72321472752104" lon="11.869650141897543"><ele>782.0</ele><time>2026-04-18T15:36:47Z</time></trkpt><trkpt lat="47.723077034679356" lon="11.869653284885297"><ele>782.0</ele><time>2026-04-18T15:36:48Z</time></trkpt><trkpt lat="47.7229221204954" lon="11.869581785347723"><ele>782.0</ele><time>2026-04-18T15:36:49Z</time></trkpt><trkpt lat="47.72279606196731" lon="11.869495357903498"><ele>781.25</ele><time>2026-04-18T15:36:50Z</time></trkpt><trkpt lat="47.72267924531833" lon="11.869381341644955"><ele>780.5</ele><time>2026-04-18T15:36:51Z</time></trkpt><trkpt lat="47.72254062940217" lon="11.86942368251142"><ele>779.75</ele><time>2026-04-18T15:36:52Z</time></trkpt><trkpt lat="47.7224317299578" lon="11.869336527956888"><ele>779.0</ele><time>2026-04-18T15:36:53Z</time></trkpt><trkpt lat="47.72233192976422" lon="11.869235303692408"><ele>779.0</ele><time>2026-04-18T15:36:54Z</time></trkpt><trkpt lat="47.722224848684654" lon="11.869148896251016"><ele>779.0</ele><time>2026-04-18T15:36:55Z</time></trkpt><trkpt lat="47.72211012868289" lon="11.869075034532985"><ele>779.0</ele><time>2026-04-18T15:36:56Z</time></trkpt><trkpt lat="47.721984587016415" lon="11.869000810690004"><ele>779.0</ele><time>2026-04-18T15:36:57Z</time></trkpt><trkpt lat="47.721814497997784" lon="11.868969117228252"><ele>780.5</ele><time>2026-04-18T15:36:58Z</time></trkpt><trkpt lat="47.721676140461334" lon="11.868985732766328"><ele>782.0</ele><time>2026-04-18T15:36:59Z</time></trkpt><trkpt lat="47.721510612431125" lon="11.869002758230296"><ele>783.5</ele><time>2026-04-18T15:37:00Z</time></trkpt><trkpt lat="47.72136949456113" lon="11.869047141466988"><ele>785.0</ele><time>2026-04-18T15:37:01Z</time></trkpt><trkpt lat="47.721241251481295" lon="11.869071395871645"><ele>785.0</ele><time>2026-04-18T15:37:02Z</time></trkpt><trkpt lat="47.721115705797544" lon="11.86908998073473"><ele>785.0</ele><time>2026-04-18T15:37:03Z</time></trkpt><trkpt lat="47.72097736737312" lon="11.86908552563225"><ele>785.0</ele><time>2026-04-18T15:37:04Z</time></trkpt><trkpt lat="47.72082328091971" lon="11.869047983879165"><ele>785.0</ele><time>2026-04-18T15:37:05Z</time></trkpt><trkpt lat="47.720681683955966" lon="11.86900383067543"><ele>784.75</ele><time>2026-04-18T15:37:06Z</time></trkpt><trkpt lat="47.720550796658074" lon="11.868991351869676"><ele>784.5</ele><time>2026-04-18T15:37:07Z</time></trkpt><trkpt lat="47.72041961185085" lon="11.86901432595657"><ele>784.25</ele><time>2026-04-18T15:37:08Z</time></trkpt><trkpt lat="47.72028539803754" lon="11.86906906235578"><ele>784.0</ele><time>2026-04-18T15:37:09Z</time></trkpt><trkpt lat="47.72010965635393" lon="11.86915066392493"><ele>784.25</ele><time>2026-04-18T15:37:10Z</time></trkpt><trkpt lat="47.72001818400232" lon="11.869235162761255"><ele>784.5</ele><time>2026-04-18T15:37:11Z</time></trkpt><trkpt lat="47.71990601262283" lon="11.86931658802651"><ele>784.75</ele><time>2026-04-18T15:37:12Z</time></trkpt><trkpt lat="47.71979369595316" lon="11.869418035559871"><ele>785.0</ele><time>2026-04-18T15:37:13Z</time></trkpt><trkpt lat="47.719681300031745" lon="11.869529302174245"><ele>785.0</ele><time>2026-04-18T15:37:14Z</time></trkpt><trkpt lat="47.71955666766896" lon="11.86965480089167"><ele>785.0</ele><time>2026-04-18T15:37:15Z</time></trkpt><trkpt lat="47.71941431577293" lon="11.869774860166347"><ele>785.0</ele><time>2026-04-18T15:37:16Z</time></trkpt><trkpt lat="47.71927773797319" lon="11.86982070824173"><ele>784.75</ele><time>2026-04-18T15:37:17Z</time></trkpt><trkpt lat="47.719157519259724" lon="11.869884985510806"><ele>784.5</ele><time>2026-04-18T15:37:18Z</time></trkpt><trkpt lat="47.719033415134426" lon="11.86991531018764"><ele>784.25</ele><time>2026-04-18T15:37:19Z</time></trkpt><trkpt lat="47.71890521443088" lon="11.869939133254228"><ele>784.0</ele><time>2026-04-18T15:37:20Z</time></trkpt><trkpt lat="47.718768623829106" lon="11.869925842308605"><ele>784.0</ele><time>2026-04-18T15:37:21Z</time></trkpt><trkpt lat="47.71862954970709" lon="11.869923744940811"><ele>784.0</ele><time>2026-04-18T15:37:22Z</time></trkpt><trkpt lat="47.71848716829035" lon="11.869915781677292"><ele>784.0</ele><time>2026-04-18T15:37:23Z</time></trkpt><trkpt lat="47.718354642381414" lon="11.869892551578623"><ele>784.0</ele><time>2026-04-18T15:37:24Z</time></trkpt><trkpt lat="47.7182297443536" lon="11.869865442054941"><ele>783.75</ele><time>2026-04-18T15:37:25Z</time></trkpt><trkpt lat="47.71810875139371" lon="11.86983555667427"><ele>783.5</ele><time>2026-04-18T15:37:26Z</time></trkpt><trkpt lat="47.71798377341044" lon="11.869796967302033"><ele>783.25</ele><time>2026-04-18T15:37:27Z</time></trkpt><trkpt lat="47.717850638453314" lon="11.869744051331585"><ele>783.0</ele><time>2026-04-18T15:37:28Z</time></trkpt><trkpt lat="47.71768847237822" lon="11.869679818438263"><ele>783.0</ele><time>2026-04-18T15:37:29Z</time></trkpt><trkpt lat="47.71752163093835" lon="11.869613714142544"><ele>783.0</ele><time>2026-04-18T15:37:30Z</time></trkpt><trkpt lat="47.71737593117919" lon="11.869566281427929"><ele>783.0</ele><time>2026-04-18T15:37:31Z</time></trkpt><trkpt lat="47.71724006145479" lon="11.869524727182682"><ele>783.0</ele><time>2026-04-18T15:37:32Z</time></trkpt><trkpt lat="47.71710113289518" lon="11.869476463355516"><ele>783.0</ele><time>2026-04-18T15:37:33Z</time></trkpt><trkpt lat="47.71695418470064" lon="11.869427694610845"><ele>783.0</ele><time>2026-04-18T15:37:34Z</time></trkpt><trkpt lat="47.71680498004533" lon="11.869384165351876"><ele>783.0</ele><time>2026-04-18T15:37:35Z</time></trkpt><trkpt lat="47.71665984781417" lon="11.869349994629493"><ele>786.25</ele><time>2026-04-18T15:37:36Z</time></trkpt><trkpt lat="47.71652065723976" lon="11.86932581671406"><ele>789.5</ele><time>2026-04-18T15:37:37Z</time></trkpt><trkpt lat="47.71638261620474" lon="11.869311588888216"><ele>792.75</ele><time>2026-04-18T15:37:38Z</time></trkpt><trkpt lat="47.7162454514784" lon="11.869308066135629"><ele>796.0</ele><time>2026-04-18T15:37:39Z</time></trkpt><trkpt lat="47.716098317035566" lon="11.86931511245539"><ele>795.75</ele><time>2026-04-18T15:37:40Z</time></trkpt><trkpt lat="47.715946548105" lon="11.869348271273573"><ele>795.5</ele><time>2026-04-18T15:37:41Z</time></trkpt><trkpt lat="47.71580507008149" lon="11.869423942793802"><ele>795.25</ele><time>2026-04-18T15:37:42Z</time></trkpt><trkpt lat="47.715667589239295" lon="11.869490540240914"><ele>795.0</ele><time>2026-04-18T15:37:43Z</time></trkpt><trkpt lat="47.715538931246854" lon="11.869545627967593"><ele>795.0</ele><time>2026-04-18T15:37:44Z</time></trkpt><trkpt lat="47.715414154924126" lon="11.86964235990914"><ele>795.0</ele><time>2026-04-18T15:37:45Z</time></trkpt><trkpt lat="47.71530796618783" lon="11.869758696918742"><ele>795.0</ele><time>2026-04-18T15:37:46Z</time></trkpt><trkpt lat="47.71520888447064" lon="11.869889975939172"><ele>795.0</ele><time>2026-04-18T15:37:47Z</time></trkpt><trkpt lat="47.715106846711365" lon="11.87004048226977"><ele>793.75</ele><time>2026-04-18T15:37:48Z</time></trkpt><trkpt lat="47.71500055228805" lon="11.870213921593658"><ele>792.5</ele><time>2026-04-18T15:37:49Z</time></trkpt><trkpt lat="47.71490284758698" lon="11.87038370918336"><ele>791.25</ele><time>2026-04-18T15:37:50Z</time></trkpt><trkpt lat="47.71481203682993" lon="11.870525469733114"><ele>790.0</ele><time>2026-04-18T15:37:51Z</time></trkpt><trkpt lat="47.71470770332163" lon="11.870625431016977"><ele>790.0</ele><time>2026-04-18T15:37:52Z</time></trkpt><trkpt lat="47.71460019126983" lon="11.870713645265923"><ele>790.0</ele><time>2026-04-18T15:37:53Z</time></trkpt><trkpt lat="47.71448044338633" lon="11.87077883240862"><ele>790.0</ele><time>2026-04-18T15:37:54Z</time></trkpt><trkpt lat="47.714353016514586" lon="11.870821115204963"><ele>790.0</ele><time>2026-04-18T15:37:55Z</time></trkpt><trkpt lat="47.71422204435967" lon="11.870836955743737"><ele>788.0</ele><time>2026-04-18T15:37:56Z</time></trkpt><trkpt lat="47.71409250974983" lon="11.870807203297984"><ele>786.0</ele><time>2026-04-18T15:37:57Z</time></trkpt><trkpt lat="47.713967455368255" lon="11.870740555816687"><ele>784.0</ele><time>2026-04-18T15:37:58Z</time></trkpt><trkpt lat="47.713840123736915" lon="11.870685159537157"><ele>782.0</ele><time>2026-04-18T15:37:59Z</time></trkpt><trkpt lat="47.71372220798883" lon="11.870581024430928"><ele>782.0</ele><time>2026-04-18T15:38:00Z</time></trkpt><trkpt lat="47.71361033139893" lon="11.870470979793351"><ele>782.0</ele><time>2026-04-18T15:38:01Z</time></trkpt><trkpt lat="47.71349470513509" lon="11.870366043875277"><ele>782.0</ele><time>2026-04-18T15:38:02Z</time></trkpt><trkpt lat="47.71337432480576" lon="11.870254714992665"><ele>782.0</ele><time>2026-04-18T15:38:03Z</time></trkpt><trkpt lat="47.713248271455726" lon="11.870141308803964"><ele>781.25</ele><time>2026-04-18T15:38:04Z</time></trkpt><trkpt lat="47.71312258437239" lon="11.870026660382694"><ele>780.5</ele><time>2026-04-18T15:38:05Z</time></trkpt><trkpt lat="47.71300135763883" lon="11.869916752708681"><ele>779.75</ele><time>2026-04-18T15:38:06Z</time></trkpt><trkpt lat="47.712880401742346" lon="11.86982501063849"><ele>779.0</ele><time>2026-04-18T15:38:07Z</time></trkpt><trkpt lat="47.712760511779635" lon="11.869740230302977"><ele>779.5</ele><time>2026-04-18T15:38:08Z</time></trkpt><trkpt lat="47.71263975123991" lon="11.869674867146944"><ele>780.0</ele><time>2026-04-18T15:38:09Z</time></trkpt><trkpt lat="47.71251712388915" lon="11.869624681316736"><ele>780.5</ele><time>2026-04-18T15:38:10Z</time></trkpt><trkpt lat="47.71239276852753" lon="11.869593110478684"><ele>781.0</ele><time>2026-04-18T15:38:11Z</time></trkpt><trkpt lat="47.71226783106422" lon="11.869575713519048"><ele>781.0</ele><time>2026-04-18T15:38:12Z</time></trkpt><trkpt lat="47.7121410504065" lon="11.86957812296065"><ele>781.0</ele><time>2026-04-18T15:38:13Z</time></trkpt><trkpt lat="47.71201463424283" lon="11.869599913263094"><ele>781.0</ele><time>2026-04-18T15:38:14Z</time></trkpt><trkpt lat="47.71189045146608" lon="11.869652687018112"><ele>781.0</ele><time>2026-04-18T15:38:15Z</time></trkpt><trkpt lat="47.71177020142823" lon="11.869727853112465"><ele>781.75</ele><time>2026-04-18T15:38:16Z</time></trkpt><trkpt lat="47.711662667430375" lon="11.869817630591124"><ele>782.5</ele><time>2026-04-18T15:38:17Z</time></trkpt><trkpt lat="47.71155985533428" lon="11.869912043312237"><ele>783.25</ele><time>2026-04-18T15:38:18Z</time></trkpt><trkpt lat="47.71145710658023" lon="11.870016725023358"><ele>784.0</ele><time>2026-04-18T15:38:19Z</time></trkpt><trkpt lat="47.711357028206265" lon="11.870134270386725"><ele>784.75</ele><time>2026-04-18T15:38:20Z</time></trkpt><trkpt lat="47.711258792193554" lon="11.870270147000763"><ele>785.5</ele><time>2026-04-18T15:38:21Z</time></trkpt><trkpt lat="47.71116375876935" lon="11.87040519718408"><ele>786.25</ele><time>2026-04-18T15:38:22Z</time></trkpt><trkpt lat="47.711067440448176" lon="11.87054712390978"><ele>787.0</ele><time>2026-04-18T15:38:23Z</time></trkpt><trkpt lat="47.71097201647622" lon="11.870687627289483"><ele>787.0</ele><time>2026-04-18T15:38:24Z</time></trkpt><trkpt lat="47.710867273320126" lon="11.870837067113353"><ele>787.0</ele><time>2026-04-18T15:38:25Z</time></trkpt><trkpt lat="47.71076164384887" lon="11.870997086259338"><ele>787.0</ele><time>2026-04-18T15:38:26Z</time></trkpt><trkpt lat="47.7106549735451" lon="11.871163920702339"><ele>788.6666666666666</ele><time>2026-04-18T15:38:27Z</time></trkpt><trkpt lat="47.710544124004024" lon="11.871345381631837"><ele>790.3333333333333</ele><time>2026-04-18T15:38:28Z</time></trkpt><trkpt lat="47.71043898732333" lon="11.871504933947676"><ele>792.0</ele><time>2026-04-18T15:38:29Z</time></trkpt><trkpt lat="47.7103285537474" lon="11.8716337172367"><ele>791.75</ele><time>2026-04-18T15:38:30Z</time></trkpt><trkpt lat="47.71023701208666" lon="11.871762781946266"><ele>791.5</ele><time>2026-04-18T15:38:31Z</time></trkpt><trkpt lat="47.71014713567014" lon="11.871889498973554"><ele>791.25</ele><time>2026-04-18T15:38:32Z</time></trkpt><trkpt lat="47.710065684607606" lon="11.87202625544755"><ele>791.0</ele><time>2026-04-18T15:38:33Z</time></trkpt><trkpt lat="47.70996929495759" lon="11.872155437481958"><ele>791.5</ele><time>2026-04-18T15:38:34Z</time></trkpt><trkpt lat="47.70986822459794" lon="11.872265264538488"><ele>792.0</ele><time>2026-04-18T15:38:35Z</time></trkpt><trkpt lat="47.70975459073834" lon="11.872367404285928"><ele>792.5</ele><time>2026-04-18T15:38:36Z</time></trkpt><trkpt lat="47.70963268464457" lon="11.872464591669745"><ele>793.0</ele><time>2026-04-18T15:38:37Z</time></trkpt><trkpt lat="47.70950946088436" lon="11.872553239678576"><ele>793.25</ele><time>2026-04-18T15:38:38Z</time></trkpt><trkpt lat="47.709389913765165" lon="11.87264264071183"><ele>793.5</ele><time>2026-04-18T15:38:39Z</time></trkpt><trkpt lat="47.70928068502527" lon="11.87275114659593"><ele>793.75</ele><time>2026-04-18T15:38:40Z</time></trkpt><trkpt lat="47.70918464814456" lon="11.872879481118384"><ele>794.0</ele><time>2026-04-18T15:38:41Z</time></trkpt><trkpt lat="47.70909169537708" lon="11.873010542475567"><ele>794.0</ele><time>2026-04-18T15:38:42Z</time></trkpt><trkpt lat="47.708997519104685" lon="11.873138391417202"><ele>794.0</ele><time>2026-04-18T15:38:43Z</time></trkpt><trkpt lat="47.7089033036301" lon="11.87326630037109"><ele>794.0</ele><time>2026-04-18T15:38:44Z</time></trkpt><trkpt lat="47.70881127633264" lon="11.8733926616204"><ele>794.0</ele><time>2026-04-18T15:38:45Z</time></trkpt><trkpt lat="47.708733279549385" lon="11.873516165400616"><ele>795.25</ele><time>2026-04-18T15:38:46Z</time></trkpt><trkpt lat="47.70863708205539" lon="11.873638737606532"><ele>796.5</ele><time>2026-04-18T15:38:47Z</time></trkpt><trkpt lat="47.708536313647926" lon="11.873743859139797"><ele>797.75</ele><time>2026-04-18T15:38:48Z</time></trkpt><trkpt lat="47.70841703421742" lon="11.873814680369284"><ele>799.0</ele><time>2026-04-18T15:38:49Z</time></trkpt><trkpt lat="47.70828545895369" lon="11.87384570502004"><ele>799.25</ele><time>2026-04-18T15:38:50Z</time></trkpt><trkpt lat="47.70815281158347" lon="11.873849358207401"><ele>799.5</ele><time>2026-04-18T15:38:51Z</time></trkpt><trkpt lat="47.70802509870684" lon="11.873841090592387"><ele>799.75</ele><time>2026-04-18T15:38:52Z</time></trkpt><trkpt lat="47.707908735202885" lon="11.873829250096225"><ele>800.0</ele><time>2026-04-18T15:38:53Z</time></trkpt><trkpt lat="47.70780068497473" lon="11.873832778690398"><ele>800.3333333333334</ele><time>2026-04-18T15:38:54Z</time></trkpt><trkpt lat="47.7077026037329" lon="11.873842189988883"><ele>800.6666666666667</ele><time>2026-04-18T15:38:55Z</time></trkpt><trkpt lat="47.70761346274464" lon="11.873854553808412"><ele>801.0</ele><time>2026-04-18T15:38:56Z</time></trkpt><trkpt lat="47.70753126257815" lon="11.873869277981573"><ele>801.3333333333333</ele><time>2026-04-18T15:38:57Z</time></trkpt><trkpt lat="47.70745594371886" lon="11.873884527358777"><ele>801.6666666666666</ele><time>2026-04-18T15:38:58Z</time></trkpt><trkpt lat="47.70738329162536" lon="11.873909383328954"><ele>802.0</ele><time>2026-04-18T15:38:59Z</time></trkpt><trkpt lat="47.707318293340194" lon="11.873946752265125"><ele>802.0</ele><time>2026-04-18T15:39:00Z</time></trkpt><trkpt lat="47.70725752934391" lon="11.873983805442169"><ele>802.0</ele><time>2026-04-18T15:39:01Z</time></trkpt><trkpt lat="47.707202706573035" lon="11.874030158956783"><ele>802.0</ele><time>2026-04-18T15:39:02Z</time></trkpt><trkpt lat="47.7070926544747" lon="11.874112699321731"><ele>802.0</ele><time>2026-04-18T15:39:04Z</time></trkpt><trkpt lat="47.70698569513472" lon="11.874199541958244"><ele>802.0</ele><time>2026-04-18T15:39:06Z</time></trkpt><trkpt lat="47.706895502591344" lon="11.874274388124737"><ele>802.1666666666666</ele><time>2026-04-18T15:39:08Z</time></trkpt><trkpt lat="47.70682483997946" lon="11.874347295242398"><ele>802.3333333333333</ele><time>2026-04-18T15:39:10Z</time></trkpt><trkpt lat="47.706757956065076" lon="11.874412810207115"><ele>802.5</ele><time>2026-04-18T15:39:12Z</time></trkpt><trkpt lat="47.7066915280295" lon="11.874485096447659"><ele>802.6666666666667</ele><time>2026-04-18T15:39:14Z</time></trkpt><trkpt lat="47.70663520588977" lon="11.874550061267858"><ele>802.8333333333334</ele><time>2026-04-18T15:39:16Z</time></trkpt><trkpt lat="47.70657591090045" lon="11.874616658898255"><ele>803.0</ele><time>2026-04-18T15:39:19Z</time></trkpt><trkpt lat="47.706524184742584" lon="11.874678499120948"><ele>803.0</ele><time>2026-04-18T15:39:24Z</time></trkpt><trkpt lat="47.7064680706948" lon="11.874761252862625"><ele>803.0</ele><time>2026-04-18T15:39:32.999Z</time></trkpt><trkpt lat="47.706390841377086" lon="11.874873725675716"><ele>803.0</ele><time>2026-04-18T15:39:34.999Z</time></trkpt><trkpt lat="47.70632444407217" lon="11.874967573488238"><ele>803.0</ele><time>2026-04-18T15:39:36.999Z</time></trkpt><trkpt lat="47.706253586900026" lon="11.875054217118025"><ele>803.0</ele><time>2026-04-18T15:39:38.999Z</time></trkpt><trkpt lat="47.706165503938124" lon="11.875169986196704"><ele>803.8</ele><time>2026-04-18T15:39:40.999Z</time></trkpt><trkpt lat="47.70606784950644" lon="11.875288996804716"><ele>804.5999999999999</ele><time>2026-04-18T15:39:42.999Z</time></trkpt><trkpt lat="47.706020583788266" lon="11.87535330367354"><ele>805.4000000000001</ele><time>2026-04-18T15:39:43.999Z</time></trkpt><trkpt lat="47.70592783566092" lon="11.875437233390096"><ele>806.2</ele><time>2026-04-18T15:39:45.999Z</time></trkpt><trkpt lat="47.70586415368064" lon="11.875508977140235"><ele>807.0</ele><time>2026-04-18T15:39:46.999Z</time></trkpt><trkpt lat="47.70578199275183" lon="11.875614082007107"><ele>807.0</ele><time>2026-04-18T15:39:47.999Z</time></trkpt><trkpt lat="47.705668626980966" lon="11.875722541259293"><ele>807.0</ele><time>2026-04-18T15:39:48.999Z</time></trkpt><trkpt lat="47.70558191900559" lon="11.875832930785888"><ele>807.0</ele><time>2026-04-18T15:39:49.999Z</time></trkpt><trkpt lat="47.70551020312815" lon="11.875925646479034"><ele>807.0</ele><time>2026-04-18T15:39:50.999Z</time></trkpt><trkpt lat="47.7054523489243" lon="11.875999421642849"><ele>807.0</ele><time>2026-04-18T15:39:51.999Z</time></trkpt><trkpt lat="47.70540189781838" lon="11.876062148375844"><ele>807.3333333333334</ele><time>2026-04-18T15:39:52.999Z</time></trkpt><trkpt lat="47.70534461142538" lon="11.876130304208667"><ele>807.6666666666667</ele><time>2026-04-18T15:39:53.999Z</time></trkpt><trkpt lat="47.705284613223434" lon="11.87620572991733"><ele>808.0</ele><time>2026-04-18T15:39:54.999Z</time></trkpt><trkpt lat="47.705223274407665" lon="11.876289754215126"><ele>808.3333333333334</ele><time>2026-04-18T15:39:55.999Z</time></trkpt><trkpt lat="47.705156431324866" lon="11.876376442157317"><ele>808.6666666666667</ele><time>2026-04-18T15:39:56.999Z</time></trkpt><trkpt lat="47.70509033173255" lon="11.87646177674757"><ele>809.0</ele><time>2026-04-18T15:39:57.999Z</time></trkpt><trkpt lat="47.70502403788457" lon="11.876544069347815"><ele>809.0000000000001</ele><time>2026-04-18T15:39:58.999Z</time></trkpt><trkpt lat="47.704959721736444" lon="11.876626570261717"><ele>809.0</ele><time>2026-04-18T15:39:59.999Z</time></trkpt><trkpt lat="47.704900418836246" lon="11.87670869731531"><ele>809.0</ele><time>2026-04-18T15:40:00.999Z</time></trkpt><trkpt lat="47.70484158454691" lon="11.876785818992323"><ele>809.0</ele><time>2026-04-18T15:40:01.999Z</time></trkpt><trkpt lat="47.70478690064815" lon="11.876858247206272"><ele>809.0000000000001</ele><time>2026-04-18T15:40:02.999Z</time></trkpt><trkpt lat="47.70473544423589" lon="11.876929422711981"><ele>809.0</ele><time>2026-04-18T15:40:03.999Z</time></trkpt><trkpt lat="47.704685268185116" lon="11.876996511644808"><ele>809.1666666666667</ele><time>2026-04-18T15:40:04.999Z</time></trkpt><trkpt lat="47.7046381788446" lon="11.877064641984758"><ele>809.3333333333334</ele><time>2026-04-18T15:40:05.999Z</time></trkpt><trkpt lat="47.70455190422377" lon="11.877191628257062"><ele>809.5</ele><time>2026-04-18T15:40:07.999Z</time></trkpt><trkpt lat="47.704481387990384" lon="11.877292182953298"><ele>809.6666666666667</ele><time>2026-04-18T15:40:09.999Z</time></trkpt><trkpt lat="47.70443226602616" lon="11.877364014659053"><ele>809.8333333333334</ele><time>2026-04-18T15:40:11.999Z</time></trkpt><trkpt lat="47.704383581333595" lon="11.877430803345819"><ele>810.0</ele><time>2026-04-18T15:40:13.999Z</time></trkpt><trkpt lat="47.704327239392626" lon="11.877520555263938"><ele>810.1666666666666</ele><time>2026-04-18T15:40:16.999Z</time></trkpt><trkpt lat="47.70427009506815" lon="11.877609694121338"><ele>810.3333333333333</ele><time>2026-04-18T15:40:18.999Z</time></trkpt><trkpt lat="47.70422349132246" lon="11.877680805450243"><ele>810.5</ele><time>2026-04-18T15:40:19.999Z</time></trkpt><trkpt lat="47.70417531143845" lon="11.877746600391276"><ele>810.6666666666666</ele><time>2026-04-18T15:40:20.999Z</time></trkpt><trkpt lat="47.70412339502837" lon="11.877815764189304"><ele>810.8333333333333</ele><time>2026-04-18T15:40:21.999Z</time></trkpt><trkpt lat="47.70404419587315" lon="11.877939799596865"><ele>811.0</ele><time>2026-04-18T15:40:24Z</time></trkpt><trkpt lat="47.70395598295728" lon="11.878074755167638"><ele>811.0</ele><time>2026-04-18T15:40:26Z</time></trkpt><trkpt lat="47.703907229478" lon="11.878150068182961"><ele>811.0</ele><time>2026-04-18T15:40:27Z</time></trkpt><trkpt lat="47.70386162376867" lon="11.878221236158351"><ele>811.0</ele><time>2026-04-18T15:40:28Z</time></trkpt><trkpt lat="47.70377876186177" lon="11.878388380485129"><ele>811.0</ele><time>2026-04-18T15:40:30Z</time></trkpt><trkpt lat="47.703715706705765" lon="11.878534911567035"><ele>811.0</ele><time>2026-04-18T15:40:32Z</time></trkpt><trkpt lat="47.703679981961514" lon="11.878634790998579"><ele>811.1999999999999</ele><time>2026-04-18T15:40:33Z</time></trkpt><trkpt lat="47.70364079791229" lon="11.878753877249833"><ele>811.4</ele><time>2026-04-18T15:40:34Z</time></trkpt><trkpt lat="47.70360913522895" lon="11.878872916453275"><ele>811.6</ele><time>2026-04-18T15:40:35Z</time></trkpt><trkpt lat="47.7035639208966" lon="11.878982881853542"><ele>811.8</ele><time>2026-04-18T15:40:36Z</time></trkpt><trkpt lat="47.70354194504892" lon="11.879125289298647"><ele>812.0</ele><time>2026-04-18T15:40:37Z</time></trkpt><trkpt lat="47.703509135260404" lon="11.879277712525402"><ele>810.6</ele><time>2026-04-18T15:40:38Z</time></trkpt><trkpt lat="47.703474684303444" lon="11.879431411437293"><ele>809.2</ele><time>2026-04-18T15:40:39Z</time></trkpt><trkpt lat="47.703446359154164" lon="11.879596713050972"><ele>807.8</ele><time>2026-04-18T15:40:40Z</time></trkpt><trkpt lat="47.70342292820518" lon="11.879721300958433"><ele>806.4</ele><time>2026-04-18T15:40:41Z</time></trkpt><trkpt lat="47.703390868813855" lon="11.879871268072684"><ele>805.0</ele><time>2026-04-18T15:40:42Z</time></trkpt><trkpt lat="47.703361736362744" lon="11.880015961866702"><ele>804.6</ele><time>2026-04-18T15:40:43Z</time></trkpt><trkpt lat="47.703320447637424" lon="11.880141303237279"><ele>804.2</ele><time>2026-04-18T15:40:44Z</time></trkpt><trkpt lat="47.703297647229064" lon="11.880316081986942"><ele>803.8</ele><time>2026-04-18T15:40:45Z</time></trkpt><trkpt lat="47.70326068127187" lon="11.88046233344974"><ele>803.4</ele><time>2026-04-18T15:40:46Z</time></trkpt><trkpt lat="47.70322430457726" lon="11.880612922756004"><ele>803.0</ele><time>2026-04-18T15:40:47Z</time></trkpt><trkpt lat="47.703200616694744" lon="11.880797683199232"><ele>801.75</ele><time>2026-04-18T15:40:48Z</time></trkpt><trkpt lat="47.70317626020699" lon="11.880964627737516"><ele>800.5</ele><time>2026-04-18T15:40:49Z</time></trkpt><trkpt lat="47.70314450630956" lon="11.881125563949452"><ele>799.25</ele><time>2026-04-18T15:40:50Z</time></trkpt><trkpt lat="47.70311772879746" lon="11.881290535671978"><ele>798.0</ele><time>2026-04-18T15:40:51Z</time></trkpt><trkpt lat="47.70307791330784" lon="11.881470288363843"><ele>798.0</ele><time>2026-04-18T15:40:52Z</time></trkpt><trkpt lat="47.703044245730496" lon="11.881631792126589"><ele>798.0</ele><time>2026-04-18T15:40:53Z</time></trkpt><trkpt lat="47.70300861364453" lon="11.88178714328426"><ele>798.0</ele><time>2026-04-18T15:40:54Z</time></trkpt><trkpt lat="47.70297486932265" lon="11.881964042833038"><ele>798.0</ele><time>2026-04-18T15:40:55Z</time></trkpt><trkpt lat="47.70293769354926" lon="11.882131193753569"><ele>797.2</ele><time>2026-04-18T15:40:56Z</time></trkpt><trkpt lat="47.70291839736879" lon="11.882292229686735"><ele>796.4</ele><time>2026-04-18T15:40:57Z</time></trkpt><trkpt lat="47.70288590516897" lon="11.882475796402545"><ele>795.6</ele><time>2026-04-18T15:40:58Z</time></trkpt><trkpt lat="47.70285387737277" lon="11.882602165148068"><ele>794.8000000000001</ele><time>2026-04-18T15:40:59Z</time></trkpt><trkpt lat="47.702827919110234" lon="11.882719942407139"><ele>794.0</ele><time>2026-04-18T15:41:00Z</time></trkpt><trkpt lat="47.70279167602093" lon="11.882891416378952"><ele>793.8000000000001</ele><time>2026-04-18T15:41:01Z</time></trkpt><trkpt lat="47.70276267546151" lon="11.883058058450393"><ele>793.6</ele><time>2026-04-18T15:41:02Z</time></trkpt><trkpt lat="47.702729415572726" lon="11.883212999731068"><ele>793.4</ele><time>2026-04-18T15:41:03Z</time></trkpt><trkpt lat="47.70269738300381" lon="11.883371150051678"><ele>793.2</ele><time>2026-04-18T15:41:04Z</time></trkpt><trkpt lat="47.70266505699129" lon="11.883527972785494"><ele>793.0</ele><time>2026-04-18T15:41:04.999Z</time></trkpt><trkpt lat="47.7026355344611" lon="11.883686087150346"><ele>792.2</ele><time>2026-04-18T15:41:05.999Z</time></trkpt><trkpt lat="47.702603442939484" lon="11.883838037977707"><ele>791.4</ele><time>2026-04-18T15:41:06.999Z</time></trkpt><trkpt lat="47.702573164419185" lon="11.883998332426478"><ele>790.6</ele><time>2026-04-18T15:41:07.999Z</time></trkpt><trkpt lat="47.70254011008396" lon="11.884154125522647"><ele>789.8000000000001</ele><time>2026-04-18T15:41:08.999Z</time></trkpt><trkpt lat="47.702520274224945" lon="11.884308078180842"><ele>789.0</ele><time>2026-04-18T15:41:09.999Z</time></trkpt><trkpt lat="47.702481185946965" lon="11.884472964104171"><ele>788.6</ele><time>2026-04-18T15:41:10.999Z</time></trkpt><trkpt lat="47.70244401607461" lon="11.884643622744225"><ele>788.2</ele><time>2026-04-18T15:41:11.999Z</time></trkpt><trkpt lat="47.70242982643642" lon="11.884799625744874"><ele>787.8000000000001</ele><time>2026-04-18T15:41:12.999Z</time></trkpt><trkpt lat="47.702384633346966" lon="11.88494559367421"><ele>787.4000000000001</ele><time>2026-04-18T15:41:13.999Z</time></trkpt><trkpt lat="47.7023698377593" lon="11.885091560967908"><ele>787.0</ele><time>2026-04-18T15:41:14.999Z</time></trkpt><trkpt lat="47.702337260238544" lon="11.88523242268215"><ele>786.6</ele><time>2026-04-18T15:41:15.999Z</time></trkpt><trkpt lat="47.70230125393776" lon="11.88536516924398"><ele>786.2</ele><time>2026-04-18T15:41:16.999Z</time></trkpt><trkpt lat="47.70225959506391" lon="11.88551541646866"><ele>785.8</ele><time>2026-04-18T15:41:17.999Z</time></trkpt><trkpt lat="47.70220943235549" lon="11.885662739640768"><ele>785.4</ele><time>2026-04-18T15:41:18.999Z</time></trkpt><trkpt lat="47.7021413879048" lon="11.8858241209953"><ele>785.0</ele><time>2026-04-18T15:41:19.999Z</time></trkpt><trkpt lat="47.702106033833175" lon="11.885970606648467"><ele>784.4</ele><time>2026-04-18T15:41:20.999Z</time></trkpt><trkpt lat="47.70206163268598" lon="11.886118470460822"><ele>783.8</ele><time>2026-04-18T15:41:21.999Z</time></trkpt><trkpt lat="47.70202430536731" lon="11.886268167816025"><ele>783.2</ele><time>2026-04-18T15:41:22.999Z</time></trkpt><trkpt lat="47.70197982379175" lon="11.886424810792727"><ele>782.6</ele><time>2026-04-18T15:41:23.999Z</time></trkpt><trkpt lat="47.70193176741337" lon="11.886583463465726"><ele>782.0</ele><time>2026-04-18T15:41:24.999Z</time></trkpt><trkpt lat="47.701901835659044" lon="11.88675571286773"><ele>781.25</ele><time>2026-04-18T15:41:25.999Z</time></trkpt><trkpt lat="47.70185599440065" lon="11.886915772827273"><ele>780.5</ele><time>2026-04-18T15:41:26.999Z</time></trkpt><trkpt lat="47.70181327144432" lon="11.887110410184087"><ele>779.75</ele><time>2026-04-18T15:41:27.999Z</time></trkpt><trkpt lat="47.701778785351614" lon="11.887249743747468"><ele>779.0</ele><time>2026-04-18T15:41:28.999Z</time></trkpt><trkpt lat="47.701753637450594" lon="11.887401011837438"><ele>779.0</ele><time>2026-04-18T15:41:29.999Z</time></trkpt><trkpt lat="47.70172667174845" lon="11.887547252808107"><ele>779.0</ele><time>2026-04-18T15:41:30.999Z</time></trkpt><trkpt lat="47.70171386362146" lon="11.88771127438773"><ele>779.0</ele><time>2026-04-18T15:41:31.999Z</time></trkpt><trkpt lat="47.70168994449226" lon="11.887856622183461"><ele>779.0</ele><time>2026-04-18T15:41:32.999Z</time></trkpt><trkpt lat="47.70167307270758" lon="11.888024758848069"><ele>779.0</ele><time>2026-04-18T15:41:33.999Z</time></trkpt><trkpt lat="47.70165586153947" lon="11.888166574718193"><ele>779.0</ele><time>2026-04-18T15:41:34.999Z</time></trkpt><trkpt lat="47.701644334415285" lon="11.888322039578084"><ele>779.0</ele><time>2026-04-18T15:41:35.999Z</time></trkpt><trkpt lat="47.70163514317896" lon="11.888474306350926"><ele>779.0</ele><time>2026-04-18T15:41:36.999Z</time></trkpt><trkpt lat="47.70162733903287" lon="11.888647558242095"><ele>779.0</ele><time>2026-04-18T15:41:37.999Z</time></trkpt><trkpt lat="47.70162168580193" lon="11.888807392479022"><ele>779.0</ele><time>2026-04-18T15:41:38.999Z</time></trkpt><trkpt lat="47.70162955628592" lon="11.88897470830435"><ele>778.25</ele><time>2026-04-18T15:41:39.999Z</time></trkpt><trkpt lat="47.70163885047123" lon="11.88915299653011"><ele>777.5</ele><time>2026-04-18T15:41:40.999Z</time></trkpt><trkpt lat="47.70164827013882" lon="11.88933177504858"><ele>776.75</ele><time>2026-04-18T15:41:41.999Z</time></trkpt><trkpt lat="47.701658201719404" lon="11.88950189378904"><ele>776.0</ele><time>2026-04-18T15:41:42.999Z</time></trkpt><trkpt lat="47.701674678790816" lon="11.889665075867734"><ele>776.0</ele><time>2026-04-18T15:41:43.999Z</time></trkpt><trkpt lat="47.70170992287799" lon="11.889817140079623"><ele>776.0</ele><time>2026-04-18T15:41:44.999Z</time></trkpt><trkpt lat="47.701731700037925" lon="11.889976560735194"><ele>776.0</ele><time>2026-04-18T15:41:45.999Z</time></trkpt><trkpt lat="47.701756807071376" lon="11.890140081734597"><ele>776.0</ele><time>2026-04-18T15:41:46.999Z</time></trkpt><trkpt lat="47.701788586586154" lon="11.890318297796895"><ele>776.0</ele><time>2026-04-18T15:41:47.999Z</time></trkpt><trkpt lat="47.70183811243921" lon="11.890522447377752"><ele>776.0</ele><time>2026-04-18T15:41:48.999Z</time></trkpt><trkpt lat="47.701905472479616" lon="11.890751335433073"><ele>776.0</ele><time>2026-04-18T15:41:49.999Z</time></trkpt><trkpt lat="47.70197932399253" lon="11.891007363118971"><ele>776.3333333333334</ele><time>2026-04-18T15:41:50.999Z</time></trkpt><trkpt lat="47.70205233310015" lon="11.891278030672275"><ele>776.6666666666667</ele><time>2026-04-18T15:41:51.999Z</time></trkpt><trkpt lat="47.702122320998726" lon="11.891530627953982"><ele>777.0</ele><time>2026-04-18T15:41:52.999Z</time></trkpt><trkpt lat="47.702181761802485" lon="11.89176836391451"><ele>777.3333333333333</ele><time>2026-04-18T15:41:53.999Z</time></trkpt><trkpt lat="47.70225964095706" lon="11.89202803214187"><ele>777.6666666666666</ele><time>2026-04-18T15:41:54.999Z</time></trkpt><trkpt lat="47.70233895714397" lon="11.892310384713802"><ele>778.0</ele><time>2026-04-18T15:41:55.999Z</time></trkpt><trkpt lat="47.70241879218518" lon="11.89260467104272"><ele>778.0</ele><time>2026-04-18T15:41:56.999Z</time></trkpt><trkpt lat="47.70250083121769" lon="11.892908014248881"><ele>778.0</ele><time>2026-04-18T15:41:57.999Z</time></trkpt><trkpt lat="47.702580417125404" lon="11.893196809460559"><ele>778.0</ele><time>2026-04-18T15:41:58.999Z</time></trkpt><trkpt lat="47.702655283244816" lon="11.893462867498016"><ele>778.0</ele><time>2026-04-18T15:41:59.999Z</time></trkpt><trkpt lat="47.70272838306428" lon="11.893725913825843"><ele>778.0</ele><time>2026-04-18T15:42:00.999Z</time></trkpt><trkpt lat="47.70280194681342" lon="11.893997951388043"><ele>778.0</ele><time>2026-04-18T15:42:01.999Z</time></trkpt><trkpt lat="47.70287820285494" lon="11.894275838392486"><ele>777.3333333333333</ele><time>2026-04-18T15:42:02.999Z</time></trkpt><trkpt lat="47.70295258743974" lon="11.894556669536161"><ele>776.6666666666667</ele><time>2026-04-18T15:42:03.999Z</time></trkpt><trkpt lat="47.70302486660283" lon="11.894828105151257"><ele>776.0</ele><time>2026-04-18T15:42:04.999Z</time></trkpt><trkpt lat="47.70309345455819" lon="11.895099796214675"><ele>775.3333333333334</ele><time>2026-04-18T15:42:05.999Z</time></trkpt><trkpt lat="47.7031653752838" lon="11.89537588066664"><ele>774.6666666666667</ele><time>2026-04-18T15:42:06.999Z</time></trkpt><trkpt lat="47.703236955675486" lon="11.895674125501051"><ele>774.0</ele><time>2026-04-18T15:42:07.999Z</time></trkpt><trkpt lat="47.70330368148975" lon="11.895977122771184"><ele>773.6666666666667</ele><time>2026-04-18T15:42:08.999Z</time></trkpt><trkpt lat="47.7033625085429" lon="11.896282077527696"><ele>773.3333333333334</ele><time>2026-04-18T15:42:09.999Z</time></trkpt><trkpt lat="47.703408909453024" lon="11.896548557561173"><ele>773.0</ele><time>2026-04-18T15:42:10.999Z</time></trkpt><trkpt lat="47.70344983456571" lon="11.896818760645091"><ele>773.0</ele><time>2026-04-18T15:42:11.999Z</time></trkpt><trkpt lat="47.70348861541023" lon="11.897089629606318"><ele>773.0</ele><time>2026-04-18T15:42:12.999Z</time></trkpt><trkpt lat="47.703539808954964" lon="11.897382258006987"><ele>773.0</ele><time>2026-04-18T15:42:13.999Z</time></trkpt><trkpt lat="47.70359980233165" lon="11.897691765493155"><ele>776.5</ele><time>2026-04-18T15:42:14.999Z</time></trkpt><trkpt lat="47.70365853054197" lon="11.898029383582521"><ele>780.0</ele><time>2026-04-18T15:42:15.999Z</time></trkpt><trkpt lat="47.70371689806397" lon="11.898394833102325"><ele>780.0</ele><time>2026-04-18T15:42:16.999Z</time></trkpt><trkpt lat="47.703777574319474" lon="11.89877258521371"><ele>780.0</ele><time>2026-04-18T15:42:17.999Z</time></trkpt><trkpt lat="47.70383627929896" lon="11.899146817442334"><ele>780.0</ele><time>2026-04-18T15:42:18.999Z</time></trkpt><trkpt lat="47.70389249636954" lon="11.899509529567897"><ele>780.0</ele><time>2026-04-18T15:42:19.999Z</time></trkpt><trkpt lat="47.70394761679324" lon="11.899855984452175"><ele>779.0</ele><time>2026-04-18T15:42:20.999Z</time></trkpt><trkpt lat="47.70400201339234" lon="11.900203975747697"><ele>778.0</ele><time>2026-04-18T15:42:21.999Z</time></trkpt><trkpt lat="47.70405426726972" lon="11.900528630266042"><ele>778.0</ele><time>2026-04-18T15:42:22.999Z</time></trkpt><trkpt lat="47.70411065173192" lon="11.900870727960267"><ele>778.0</ele><time>2026-04-18T15:42:23.999Z</time></trkpt><trkpt lat="47.70416619763451" lon="11.901220973313203"><ele>777.0</ele><time>2026-04-18T15:42:24.999Z</time></trkpt><trkpt lat="47.70422168108345" lon="11.901575517053981"><ele>776.0</ele><time>2026-04-18T15:42:25.999Z</time></trkpt><trkpt lat="47.70427648820892" lon="11.901935573118442"><ele>775.5</ele><time>2026-04-18T15:42:26.999Z</time></trkpt><trkpt lat="47.70433770672934" lon="11.902316019119473"><ele>775.0</ele><time>2026-04-18T15:42:27.999Z</time></trkpt><trkpt lat="47.704392981571196" lon="11.902663846158399"><ele>777.5</ele><time>2026-04-18T15:42:28.999Z</time></trkpt><trkpt lat="47.70444987081735" lon="11.903023731898886"><ele>780.0</ele><time>2026-04-18T15:42:30Z</time></trkpt><trkpt lat="47.70450398362928" lon="11.903387827501025"><ele>779.0</ele><time>2026-04-18T15:42:31Z</time></trkpt><trkpt lat="47.70455832032511" lon="11.90374943467645"><ele>778.0</ele><time>2026-04-18T15:42:32Z</time></trkpt><trkpt lat="47.70461264342319" lon="11.904095928713463"><ele>777.5</ele><time>2026-04-18T15:42:33Z</time></trkpt><trkpt lat="47.70466711376583" lon="11.904431790849307"><ele>777.0</ele><time>2026-04-18T15:42:34Z</time></trkpt><trkpt lat="47.70471250424145" lon="11.90477842339213"><ele>776.5</ele><time>2026-04-18T15:42:35Z</time></trkpt><trkpt lat="47.70473576540654" lon="11.905127078069029"><ele>776.0</ele><time>2026-04-18T15:42:36Z</time></trkpt><trkpt lat="47.70474303898071" lon="11.90550382995585"><ele>776.0</ele><time>2026-04-18T15:42:37Z</time></trkpt><trkpt lat="47.70474148410779" lon="11.905835012219693"><ele>776.0</ele><time>2026-04-18T15:42:38Z</time></trkpt><trkpt lat="47.704721504746395" lon="11.906148843783603"><ele>776.0</ele><time>2026-04-18T15:42:39Z</time></trkpt><trkpt lat="47.70470396544195" lon="11.906449218992998"><ele>776.5</ele><time>2026-04-18T15:42:40Z</time></trkpt><trkpt lat="47.70469947421723" lon="11.906972364431605"><ele>777.0</ele><time>2026-04-18T15:42:41Z</time></trkpt><trkpt lat="47.70469459139231" lon="11.907332250406563"><ele>777.5</ele><time>2026-04-18T15:42:42Z</time></trkpt><trkpt lat="47.704686116572766" lon="11.907667348987472"><ele>778.0</ele><time>2026-04-18T15:42:43Z</time></trkpt><trkpt lat="47.704686353485634" lon="11.908005369658108"><ele>778.0</ele><time>2026-04-18T15:42:44Z</time></trkpt><trkpt lat="47.70470287056802" lon="11.908342147387243"><ele>778.0</ele><time>2026-04-18T15:42:45Z</time></trkpt><trkpt lat="47.70472665583373" lon="11.9086732280732"><ele>776.5</ele><time>2026-04-18T15:42:46Z</time></trkpt><trkpt lat="47.70477276935029" lon="11.90900916406835"><ele>775.0</ele><time>2026-04-18T15:42:47Z</time></trkpt><trkpt lat="47.70483326899504" lon="11.909349296374304"><ele>773.5</ele><time>2026-04-18T15:42:48Z</time></trkpt><trkpt lat="47.704899299269215" lon="11.909680568623438"><ele>772.0</ele><time>2026-04-18T15:42:49Z</time></trkpt><trkpt lat="47.70497566397388" lon="11.910037223443053"><ele>771.5</ele><time>2026-04-18T15:42:50Z</time></trkpt><trkpt lat="47.70505985690803" lon="11.910358293137387"><ele>771.0</ele><time>2026-04-18T15:42:51Z</time></trkpt><trkpt lat="47.70512387145315" lon="11.910705566776565"><ele>772.0</ele><time>2026-04-18T15:42:52Z</time></trkpt><trkpt lat="47.70523003530873" lon="11.911037375164149"><ele>773.0</ele><time>2026-04-18T15:42:53Z</time></trkpt><trkpt lat="47.70532420984485" lon="11.911362691144852"><ele>773.6666666666667</ele><time>2026-04-18T15:42:54Z</time></trkpt><trkpt lat="47.70540726350618" lon="11.911670250396659"><ele>774.3333333333333</ele><time>2026-04-18T15:42:55Z</time></trkpt><trkpt lat="47.705485606266144" lon="11.911984065271694"><ele>775.0</ele><time>2026-04-18T15:42:56Z</time></trkpt><trkpt lat="47.705554612899256" lon="11.912282787275705"><ele>775.3333333333333</ele><time>2026-04-18T15:42:57Z</time></trkpt><trkpt lat="47.70561629723026" lon="11.912592211227675"><ele>775.6666666666667</ele><time>2026-04-18T15:42:58Z</time></trkpt><trkpt lat="47.70566624687893" lon="11.912906705069"><ele>776.0</ele><time>2026-04-18T15:42:59Z</time></trkpt><trkpt lat="47.705710635223326" lon="11.913239430134606"><ele>775.5</ele><time>2026-04-18T15:43:00Z</time></trkpt><trkpt lat="47.70574556989287" lon="11.913577206270919"><ele>775.0</ele><time>2026-04-18T15:43:01Z</time></trkpt><trkpt lat="47.7057693174652" lon="11.913925789772174"><ele>776.0</ele><time>2026-04-18T15:43:02Z</time></trkpt><trkpt lat="47.70577913005396" lon="11.914290861208194"><ele>777.0</ele><time>2026-04-18T15:43:03Z</time></trkpt><trkpt lat="47.705777981698226" lon="11.914650900673621"><ele>777.0</ele><time>2026-04-18T15:43:04Z</time></trkpt><trkpt lat="47.70578145983026" lon="11.915002950636236"><ele>777.0</ele><time>2026-04-18T15:43:05Z</time></trkpt><trkpt lat="47.70577095751781" lon="11.915344761438645"><ele>777.3333333333333</ele><time>2026-04-18T15:43:06Z</time></trkpt><trkpt lat="47.70575211669842" lon="11.915672085642226"><ele>777.6666666666666</ele><time>2026-04-18T15:43:07Z</time></trkpt><trkpt lat="47.705722281197154" lon="11.916004428100578"><ele>778.0</ele><time>2026-04-18T15:43:08Z</time></trkpt><trkpt lat="47.705693763145796" lon="11.91634828343799"><ele>778.0</ele><time>2026-04-18T15:43:09Z</time></trkpt><trkpt lat="47.70565419781237" lon="11.916694430330981"><ele>778.0</ele><time>2026-04-18T15:43:10Z</time></trkpt><trkpt lat="47.70560530394087" lon="11.917023914750677"><ele>778.0</ele><time>2026-04-18T15:43:11Z</time></trkpt><trkpt lat="47.705547759431425" lon="11.917343998335337"><ele>778.0</ele><time>2026-04-18T15:43:12Z</time></trkpt><trkpt lat="47.70548483072278" lon="11.917660505843202"><ele>778.0</ele><time>2026-04-18T15:43:13Z</time></trkpt><trkpt lat="47.7054147075562" lon="11.917970989376219"><ele>777.0</ele><time>2026-04-18T15:43:14Z</time></trkpt><trkpt lat="47.70533796616138" lon="11.918276634715264"><ele>776.0</ele><time>2026-04-18T15:43:15Z</time></trkpt><trkpt lat="47.705255793901195" lon="11.91857860604825"><ele>775.0</ele><time>2026-04-18T15:43:16Z</time></trkpt><trkpt lat="47.70516521190509" lon="11.918880455984159"><ele>775.0</ele><time>2026-04-18T15:43:17Z</time></trkpt><trkpt lat="47.70506782491224" lon="11.919203664598857"><ele>775.0</ele><time>2026-04-18T15:43:18Z</time></trkpt><trkpt lat="47.70495287805746" lon="11.91950072424876"><ele>775.6666666666666</ele><time>2026-04-18T15:43:19Z</time></trkpt><trkpt lat="47.704865393420924" lon="11.919800909898916"><ele>776.3333333333333</ele><time>2026-04-18T15:43:20Z</time></trkpt><trkpt lat="47.704793228728256" lon="11.92006783810511"><ele>777.0</ele><time>2026-04-18T15:43:21Z</time></trkpt><trkpt lat="47.70470160683578" lon="11.920298544273923"><ele>777.3333333333333</ele><time>2026-04-18T15:43:22Z</time></trkpt><trkpt lat="47.704544748758984" lon="11.920486865832242"><ele>777.6666666666666</ele><time>2026-04-18T15:43:22.999Z</time></trkpt><trkpt lat="47.704413652007524" lon="11.920676387512287"><ele>778.0</ele><time>2026-04-18T15:43:23.999Z</time></trkpt><trkpt lat="47.70433440043778" lon="11.920878173204505"><ele>775.6666666666666</ele><time>2026-04-18T15:43:24.999Z</time></trkpt><trkpt lat="47.70423619565321" lon="11.921064241327057"><ele>773.3333333333333</ele><time>2026-04-18T15:43:25.999Z</time></trkpt><trkpt lat="47.70414107391727" lon="11.92125393341107"><ele>771.0</ele><time>2026-04-18T15:43:26.999Z</time></trkpt><trkpt lat="47.70405208057245" lon="11.921426666933742"><ele>771.0</ele><time>2026-04-18T15:43:27.999Z</time></trkpt><trkpt lat="47.70396989618122" lon="11.921583416461191"><ele>771.0</ele><time>2026-04-18T15:43:28.999Z</time></trkpt><trkpt lat="47.70389725954348" lon="11.921727609904812"><ele>771.0</ele><time>2026-04-18T15:43:29.999Z</time></trkpt><trkpt lat="47.70382788173136" lon="11.921869369842964"><ele>771.0</ele><time>2026-04-18T15:43:30.999Z</time></trkpt><trkpt lat="47.703762283745064" lon="11.92201011651898"><ele>771.25</ele><time>2026-04-18T15:43:31.999Z</time></trkpt><trkpt lat="47.70370152686471" lon="11.922155470212841"><ele>771.5</ele><time>2026-04-18T15:43:32.999Z</time></trkpt><trkpt lat="47.70364723487363" lon="11.92230917661818"><ele>771.75</ele><time>2026-04-18T15:43:33.999Z</time></trkpt><trkpt lat="47.7035957828551" lon="11.922458583811267"><ele>772.0</ele><time>2026-04-18T15:43:34.999Z</time></trkpt><trkpt lat="47.70354370026103" lon="11.92261437426439"><ele>772.8</ele><time>2026-04-18T15:43:35.999Z</time></trkpt><trkpt lat="47.70350182135541" lon="11.92276489070499"><ele>773.6</ele><time>2026-04-18T15:43:36.999Z</time></trkpt><trkpt lat="47.70345886339884" lon="11.922916811810191"><ele>774.4</ele><time>2026-04-18T15:43:37.999Z</time></trkpt><trkpt lat="47.703419102364926" lon="11.923071368863669"><ele>775.1999999999999</ele><time>2026-04-18T15:43:38.999Z</time></trkpt><trkpt lat="47.703389283108606" lon="11.923222332707203"><ele>776.0</ele><time>2026-04-18T15:43:39.999Z</time></trkpt><trkpt lat="47.703362609739884" lon="11.923380480916741"><ele>775.75</ele><time>2026-04-18T15:43:40.999Z</time></trkpt><trkpt lat="47.70333303413064" lon="11.92353829238164"><ele>775.5</ele><time>2026-04-18T15:43:41.999Z</time></trkpt><trkpt lat="47.703302174045746" lon="11.92370312879955"><ele>775.25</ele><time>2026-04-18T15:43:42.999Z</time></trkpt><trkpt lat="47.703274650908426" lon="11.92387179052857"><ele>775.0</ele><time>2026-04-18T15:43:43.999Z</time></trkpt><trkpt lat="47.703241090899596" lon="11.924039193925399"><ele>775.0</ele><time>2026-04-18T15:43:44.999Z</time></trkpt><trkpt lat="47.70321330379408" lon="11.92420427758139"><ele>775.0</ele><time>2026-04-18T15:43:46Z</time></trkpt><trkpt lat="47.70318637853271" lon="11.924372107956897"><ele>775.0</ele><time>2026-04-18T15:43:46.999Z</time></trkpt><trkpt lat="47.70315914692476" lon="11.924536172042691"><ele>775.0</ele><time>2026-04-18T15:43:47.999Z</time></trkpt><trkpt lat="47.703133826921125" lon="11.924702434438291"><ele>774.75</ele><time>2026-04-18T15:43:48.999Z</time></trkpt><trkpt lat="47.70310821858364" lon="11.924866281621181"><ele>774.5</ele><time>2026-04-18T15:43:49.999Z</time></trkpt><trkpt lat="47.7030762040343" lon="11.92503730600202"><ele>774.25</ele><time>2026-04-18T15:43:50.999Z</time></trkpt><trkpt lat="47.703035567135" lon="11.925213051159322"><ele>774.0</ele><time>2026-04-18T15:43:51.999Z</time></trkpt><trkpt lat="47.70301039658998" lon="11.925399189329553"><ele>773.3333333333333</ele><time>2026-04-18T15:43:52.999Z</time></trkpt><trkpt lat="47.70297801131456" lon="11.925592422671947"><ele>772.6666666666666</ele><time>2026-04-18T15:43:53.999Z</time></trkpt><trkpt lat="47.702934837895796" lon="11.925819309348338"><ele>772.0</ele><time>2026-04-18T15:43:54.999Z</time></trkpt><trkpt lat="47.70288734256541" lon="11.926057482148838"><ele>771.3333333333333</ele><time>2026-04-18T15:43:55.999Z</time></trkpt><trkpt lat="47.70283792981709" lon="11.92630981528656"><ele>770.6666666666667</ele><time>2026-04-18T15:43:56.999Z</time></trkpt><trkpt lat="47.70278221076065" lon="11.926566329890981"><ele>770.0</ele><time>2026-04-18T15:43:57.999Z</time></trkpt><trkpt lat="47.70271723564546" lon="11.926826572680998"><ele>771.6666666666667</ele><time>2026-04-18T15:43:58.999Z</time></trkpt><trkpt lat="47.702646265942384" lon="11.927086308006963"><ele>773.3333333333333</ele><time>2026-04-18T15:43:59.999Z</time></trkpt><trkpt lat="47.70257612182151" lon="11.927322404996893"><ele>775.0</ele><time>2026-04-18T15:44:00.999Z</time></trkpt><trkpt lat="47.702501938343595" lon="11.927563562726371"><ele>775.0</ele><time>2026-04-18T15:44:01.999Z</time></trkpt><trkpt lat="47.70242046772071" lon="11.9278218616771"><ele>775.0</ele><time>2026-04-18T15:44:02.999Z</time></trkpt><trkpt lat="47.70233215653139" lon="11.928081245247538"><ele>775.0</ele><time>2026-04-18T15:44:03.999Z</time></trkpt><trkpt lat="47.70224373594276" lon="11.928336178328452"><ele>773.6666666666666</ele><time>2026-04-18T15:44:04.999Z</time></trkpt><trkpt lat="47.70216770857374" lon="11.928597987970045"><ele>772.3333333333333</ele><time>2026-04-18T15:44:05.999Z</time></trkpt><trkpt lat="47.702072625709135" lon="11.92884771919162"><ele>771.0</ele><time>2026-04-18T15:44:06.999Z</time></trkpt><trkpt lat="47.701983581006374" lon="11.929096114520135"><ele>771.0</ele><time>2026-04-18T15:44:07.999Z</time></trkpt><trkpt lat="47.7019023453298" lon="11.92936854359528"><ele>771.0</ele><time>2026-04-18T15:44:08.999Z</time></trkpt><trkpt lat="47.70180857810311" lon="11.929625201568985"><ele>771.0</ele><time>2026-04-18T15:44:09.999Z</time></trkpt><trkpt lat="47.70172935036069" lon="11.929877336836224"><ele>770.0</ele><time>2026-04-18T15:44:10.999Z</time></trkpt><trkpt lat="47.70163395780549" lon="11.930124057623212"><ele>769.0</ele><time>2026-04-18T15:44:11.999Z</time></trkpt><trkpt lat="47.701564289640864" lon="11.930385509762074"><ele>768.0</ele><time>2026-04-18T15:44:12.999Z</time></trkpt><trkpt lat="47.70146493397724" lon="11.930641099045655"><ele>768.5</ele><time>2026-04-18T15:44:13.999Z</time></trkpt><trkpt lat="47.70138558775584" lon="11.930925140320676"><ele>769.0</ele><time>2026-04-18T15:44:14.999Z</time></trkpt><trkpt lat="47.70128018994313" lon="11.931290265755813"><ele>769.0</ele><time>2026-04-18T15:44:15.999Z</time></trkpt><trkpt lat="47.70117657611273" lon="11.931621038511846"><ele>769.0</ele><time>2026-04-18T15:44:16.999Z</time></trkpt><trkpt lat="47.701155098497054" lon="11.931781562768405"><ele>769.0</ele><time>2026-04-18T15:44:17.999Z</time></trkpt><trkpt lat="47.70109938612608" lon="11.932055589549543"><ele>767.6666666666666</ele><time>2026-04-18T15:44:18.999Z</time></trkpt><trkpt lat="47.70105347938646" lon="11.93234437594909"><ele>766.3333333333333</ele><time>2026-04-18T15:44:19.999Z</time></trkpt><trkpt lat="47.70101595974241" lon="11.932620486243032"><ele>765.0</ele><time>2026-04-18T15:44:20.999Z</time></trkpt><trkpt lat="47.70096314531268" lon="11.932980513858945"><ele>764.0</ele><time>2026-04-18T15:44:21.999Z</time></trkpt><trkpt lat="47.700924459641584" lon="11.933227711748806"><ele>763.0</ele><time>2026-04-18T15:44:22.999Z</time></trkpt><trkpt lat="47.700859616894256" lon="11.933540701966372"><ele>762.0</ele><time>2026-04-18T15:44:23.999Z</time></trkpt><trkpt lat="47.70084057717862" lon="11.933766315288299"><ele>761.6666666666666</ele><time>2026-04-18T15:44:24.999Z</time></trkpt><trkpt lat="47.70077677516634" lon="11.934062036814927"><ele>761.3333333333333</ele><time>2026-04-18T15:44:25.999Z</time></trkpt><trkpt lat="47.70074369985721" lon="11.934338801489046"><ele>761.0</ele><time>2026-04-18T15:44:26.999Z</time></trkpt><trkpt lat="47.70070174048082" lon="11.934634705020303"><ele>760.3333333333333</ele><time>2026-04-18T15:44:27.999Z</time></trkpt><trkpt lat="47.70065643386072" lon="11.934917903626424"><ele>759.6666666666666</ele><time>2026-04-18T15:44:28.999Z</time></trkpt><trkpt lat="47.70059635084808" lon="11.935188437536953"><ele>759.0</ele><time>2026-04-18T15:44:29.999Z</time></trkpt><trkpt lat="47.700554015393834" lon="11.935448853622225"><ele>759.0</ele><time>2026-04-18T15:44:30.999Z</time></trkpt><trkpt lat="47.700511624862955" lon="11.935714431083719"><ele>759.0</ele><time>2026-04-18T15:44:31.999Z</time></trkpt><trkpt lat="47.70047525771928" lon="11.936003486784221"><ele>759.0</ele><time>2026-04-18T15:44:32.999Z</time></trkpt><trkpt lat="47.70042711333886" lon="11.936288926385693"><ele>759.6666666666666</ele><time>2026-04-18T15:44:33.999Z</time></trkpt><trkpt lat="47.70038407129218" lon="11.936570714873035"><ele>760.3333333333333</ele><time>2026-04-18T15:44:35Z</time></trkpt><trkpt lat="47.70033969273763" lon="11.936851349164254"><ele>761.0</ele><time>2026-04-18T15:44:36Z</time></trkpt><trkpt lat="47.700297083245964" lon="11.937117646943692"><ele>761.0</ele><time>2026-04-18T15:44:37Z</time></trkpt><trkpt lat="47.700256993693834" lon="11.937388105447427"><ele>761.0</ele><time>2026-04-18T15:44:38Z</time></trkpt><trkpt lat="47.700207170827376" lon="11.937659563281684"><ele>761.0</ele><time>2026-04-18T15:44:39Z</time></trkpt><trkpt lat="47.700165385989074" lon="11.937933989219001"><ele>761.0</ele><time>2026-04-18T15:44:40Z</time></trkpt><trkpt lat="47.70011337058155" lon="11.938215720523479"><ele>761.0</ele><time>2026-04-18T15:44:41Z</time></trkpt><trkpt lat="47.70005920480569" lon="11.938494426468102"><ele>761.0</ele><time>2026-04-18T15:44:42Z</time></trkpt><trkpt lat="47.70002671299104" lon="11.938778237148608"><ele>761.0</ele><time>2026-04-18T15:44:43Z</time></trkpt><trkpt lat="47.69997745043772" lon="11.939044328881034"><ele>761.0</ele><time>2026-04-18T15:44:44Z</time></trkpt><trkpt lat="47.69993002945833" lon="11.939315350767137"><ele>761.0</ele><time>2026-04-18T15:44:45Z</time></trkpt><trkpt lat="47.699879054691884" lon="11.939621916045676"><ele>760.6666666666666</ele><time>2026-04-18T15:44:46Z</time></trkpt><trkpt lat="47.69982553075227" lon="11.939912752552583"><ele>760.3333333333334</ele><time>2026-04-18T15:44:47Z</time></trkpt><trkpt lat="47.69975940794626" lon="11.940181736507197"><ele>760.0</ele><time>2026-04-18T15:44:48Z</time></trkpt><trkpt lat="47.69970074363961" lon="11.94046296364155"><ele>759.6666666666667</ele><time>2026-04-18T15:44:49Z</time></trkpt><trkpt lat="47.69962953576624" lon="11.940730553970779"><ele>759.3333333333334</ele><time>2026-04-18T15:44:50Z</time></trkpt><trkpt lat="47.69957167701883" lon="11.941014469537262"><ele>759.0</ele><time>2026-04-18T15:44:51Z</time></trkpt><trkpt lat="47.69949287170553" lon="11.941304304770563"><ele>760.5</ele><time>2026-04-18T15:44:52Z</time></trkpt><trkpt lat="47.69940585720112" lon="11.941612608768068"><ele>762.0</ele><time>2026-04-18T15:44:53Z</time></trkpt><trkpt lat="47.69931029624971" lon="11.941933309677262"><ele>762.0</ele><time>2026-04-18T15:44:54Z</time></trkpt><trkpt lat="47.6992165906925" lon="11.942248632593394"><ele>762.0</ele><time>2026-04-18T15:44:55Z</time></trkpt><trkpt lat="47.69910240271423" lon="11.942560699935791"><ele>761.3333333333334</ele><time>2026-04-18T15:44:56Z</time></trkpt><trkpt lat="47.69900494121443" lon="11.942851793715903"><ele>760.6666666666667</ele><time>2026-04-18T15:44:57Z</time></trkpt><trkpt lat="47.69889774210034" lon="11.943135576898108"><ele>760.0</ele><time>2026-04-18T15:44:58Z</time></trkpt><trkpt lat="47.69878733648207" lon="11.943417590470393"><ele>759.0</ele><time>2026-04-18T15:44:59Z</time></trkpt><trkpt lat="47.69866527725714" lon="11.943728375047796"><ele>758.0</ele><time>2026-04-18T15:45:00Z</time></trkpt><trkpt lat="47.698538869469424" lon="11.944005244675104"><ele>759.5</ele><time>2026-04-18T15:45:01Z</time></trkpt><trkpt lat="47.698401304824635" lon="11.94432174960846"><ele>761.0</ele><time>2026-04-18T15:45:02Z</time></trkpt><trkpt lat="47.69824794746531" lon="11.944649301806917"><ele>761.0</ele><time>2026-04-18T15:45:03Z</time></trkpt><trkpt lat="47.698093309932716" lon="11.944967468722215"><ele>761.0</ele><time>2026-04-18T15:45:04Z</time></trkpt><trkpt lat="47.69794499830119" lon="11.94524530208463"><ele>760.5</ele><time>2026-04-18T15:45:05Z</time></trkpt><trkpt lat="47.69779960525863" lon="11.945518705858937"><ele>760.0</ele><time>2026-04-18T15:45:06Z</time></trkpt><trkpt lat="47.69765759609002" lon="11.945790628506087"><ele>760.5</ele><time>2026-04-18T15:45:07Z</time></trkpt><trkpt lat="47.697517280485336" lon="11.946061784730446"><ele>761.0</ele><time>2026-04-18T15:45:08Z</time></trkpt><trkpt lat="47.697373639554876" lon="11.946340831222116"><ele>761.0</ele><time>2026-04-18T15:45:09Z</time></trkpt><trkpt lat="47.69722066049858" lon="11.946628773235362"><ele>761.0</ele><time>2026-04-18T15:45:10Z</time></trkpt><trkpt lat="47.697059503413065" lon="11.946904995877947"><ele>763.5</ele><time>2026-04-18T15:45:11Z</time></trkpt><trkpt lat="47.69689929062979" lon="11.947207501564185"><ele>766.0</ele><time>2026-04-18T15:45:12Z</time></trkpt><trkpt lat="47.696768374568705" lon="11.947490236893909"><ele>766.0</ele><time>2026-04-18T15:45:13Z</time></trkpt><trkpt lat="47.69662495047088" lon="11.947757939282031"><ele>766.0</ele><time>2026-04-18T15:45:14Z</time></trkpt><trkpt lat="47.69648629346738" lon="11.948026926641164"><ele>766.0</ele><time>2026-04-18T15:45:15Z</time></trkpt><trkpt lat="47.696350317159244" lon="11.948290423457467"><ele>766.0</ele><time>2026-04-18T15:45:16Z</time></trkpt><trkpt lat="47.696209902839236" lon="11.948562636605338"><ele>766.0</ele><time>2026-04-18T15:45:17Z</time></trkpt><trkpt lat="47.69606793966074" lon="11.9488450885963"><ele>766.0</ele><time>2026-04-18T15:45:18Z</time></trkpt><trkpt lat="47.69592643069112" lon="11.949131798681899"><ele>765.5</ele><time>2026-04-18T15:45:19Z</time></trkpt><trkpt lat="47.69579416632184" lon="11.949414028470821"><ele>765.0</ele><time>2026-04-18T15:45:20Z</time></trkpt><trkpt lat="47.69566579560432" lon="11.949700124747284"><ele>765.0</ele><time>2026-04-18T15:45:21Z</time></trkpt><trkpt lat="47.69554190222088" lon="11.949999560469733"><ele>765.0</ele><time>2026-04-18T15:45:22Z</time></trkpt><trkpt lat="47.6954253280383" lon="11.950299474960905"><ele>765.0</ele><time>2026-04-18T15:45:23Z</time></trkpt><trkpt lat="47.69531238734319" lon="11.950601890915816"><ele>765.0</ele><time>2026-04-18T15:45:24Z</time></trkpt><trkpt lat="47.69520834721118" lon="11.950897477727127"><ele>765.0</ele><time>2026-04-18T15:45:25Z</time></trkpt><trkpt lat="47.69510560768845" lon="11.951186346660037"><ele>765.0</ele><time>2026-04-18T15:45:26Z</time></trkpt><trkpt lat="47.695003424446114" lon="11.951469027938847"><ele>765.0</ele><time>2026-04-18T15:45:27Z</time></trkpt><trkpt lat="47.694902531012815" lon="11.951752055347823"><ele>765.3333333333334</ele><time>2026-04-18T15:45:28Z</time></trkpt><trkpt lat="47.69480200594642" lon="11.952034622500504"><ele>765.6666666666667</ele><time>2026-04-18T15:45:29Z</time></trkpt><trkpt lat="47.69468312826291" lon="11.952319577813457"><ele>766.0</ele><time>2026-04-18T15:45:30Z</time></trkpt><trkpt lat="47.69455184159362" lon="11.952635665324303"><ele>767.5</ele><time>2026-04-18T15:45:31Z</time></trkpt><trkpt lat="47.694469853990995" lon="11.952950256523025"><ele>769.0</ele><time>2026-04-18T15:45:32Z</time></trkpt><trkpt lat="47.69436336520046" lon="11.953258089463192"><ele>766.5</ele><time>2026-04-18T15:45:33Z</time></trkpt><trkpt lat="47.69425261199148" lon="11.953570075555087"><ele>764.0</ele><time>2026-04-18T15:45:34Z</time></trkpt><trkpt lat="47.694139416683775" lon="11.953884320969733"><ele>764.0</ele><time>2026-04-18T15:45:35Z</time></trkpt><trkpt lat="47.69402979397836" lon="11.954186699166527"><ele>764.0</ele><time>2026-04-18T15:45:36Z</time></trkpt><trkpt lat="47.69392600872247" lon="11.954493018568343"><ele>764.0</ele><time>2026-04-18T15:45:37Z</time></trkpt><trkpt lat="47.69381966903187" lon="11.95479412194398"><ele>764.0</ele><time>2026-04-18T15:45:38Z</time></trkpt><trkpt lat="47.69371591625171" lon="11.955090827482648"><ele>764.0</ele><time>2026-04-18T15:45:39Z</time></trkpt><trkpt lat="47.69361090718169" lon="11.95538871000734"><ele>764.0</ele><time>2026-04-18T15:45:40Z</time></trkpt><trkpt lat="47.69350873617478" lon="11.955684994420228"><ele>765.0</ele><time>2026-04-18T15:45:41Z</time></trkpt><trkpt lat="47.693406028271674" lon="11.955979649595049"><ele>766.0</ele><time>2026-04-18T15:45:42Z</time></trkpt><trkpt lat="47.693302512349476" lon="11.956270489635065"><ele>767.0</ele><time>2026-04-18T15:45:43Z</time></trkpt><trkpt lat="47.69319705394619" lon="11.956560692850926"><ele>766.6666666666666</ele><time>2026-04-18T15:45:44Z</time></trkpt><trkpt lat="47.69309728184691" lon="11.956836132984938"><ele>766.3333333333334</ele><time>2026-04-18T15:45:45Z</time></trkpt><trkpt lat="47.69300632104999" lon="11.957098597814639"><ele>766.0</ele><time>2026-04-18T15:45:46Z</time></trkpt><trkpt lat="47.69292290654225" lon="11.957340349879958"><ele>766.3333333333334</ele><time>2026-04-18T15:45:47Z</time></trkpt><trkpt lat="47.69284197407092" lon="11.957566931858798"><ele>766.6666666666666</ele><time>2026-04-18T15:45:48Z</time></trkpt><trkpt lat="47.69276081395141" lon="11.957796060724412"><ele>767.0</ele><time>2026-04-18T15:45:49Z</time></trkpt><trkpt lat="47.69267373285169" lon="11.95804220849107"><ele>767.0</ele><time>2026-04-18T15:45:50Z</time></trkpt><trkpt lat="47.69258547374786" lon="11.958291718168924"><ele>767.0</ele><time>2026-04-18T15:45:51Z</time></trkpt><trkpt lat="47.69249787050553" lon="11.958531083528662"><ele>767.0</ele><time>2026-04-18T15:45:52Z</time></trkpt><trkpt lat="47.692406782527144" lon="11.958793900489631"><ele>767.0</ele><time>2026-04-18T15:45:53Z</time></trkpt><trkpt lat="47.692321780642665" lon="11.959037187093418"><ele>767.0</ele><time>2026-04-18T15:45:54Z</time></trkpt><trkpt lat="47.69223463656445" lon="11.95928396418848"><ele>767.0</ele><time>2026-04-18T15:45:55Z</time></trkpt><trkpt lat="47.69214622830324" lon="11.959539233936418"><ele>767.0</ele><time>2026-04-18T15:45:56Z</time></trkpt><trkpt lat="47.69205638477346" lon="11.959795076482516"><ele>767.0</ele><time>2026-04-18T15:45:57Z</time></trkpt><trkpt lat="47.691962337635644" lon="11.960055398402224"><ele>767.0</ele><time>2026-04-18T15:45:58Z</time></trkpt><trkpt lat="47.69187395098469" lon="11.960318501686112"><ele>767.6666666666666</ele><time>2026-04-18T15:45:59Z</time></trkpt><trkpt lat="47.69178680957626" lon="11.96057824280836"><ele>768.3333333333333</ele><time>2026-04-18T15:46:00Z</time></trkpt><trkpt lat="47.69169568727473" lon="11.960831883468405"><ele>769.0</ele><time>2026-04-18T15:46:01Z</time></trkpt><trkpt lat="47.69161274515381" lon="11.961093574885357"><ele>769.6666666666666</ele><time>2026-04-18T15:46:02Z</time></trkpt><trkpt lat="47.69154084396692" lon="11.961362261064885"><ele>770.3333333333333</ele><time>2026-04-18T15:46:03Z</time></trkpt><trkpt lat="47.6914751269902" lon="11.961634589337057"><ele>771.0</ele><time>2026-04-18T15:46:04Z</time></trkpt><trkpt lat="47.69141229482416" lon="11.961909813655634"><ele>771.0</ele><time>2026-04-18T15:46:05Z</time></trkpt><trkpt lat="47.69135658107387" lon="11.96218805323132"><ele>771.0</ele><time>2026-04-18T15:46:06Z</time></trkpt><trkpt lat="47.691303437948676" lon="11.962467218497812"><ele>771.0</ele><time>2026-04-18T15:46:07Z</time></trkpt><trkpt lat="47.691256079642116" lon="11.962746137369917"><ele>771.0</ele><time>2026-04-18T15:46:08Z</time></trkpt><trkpt lat="47.69121545488061" lon="11.963025247698582"><ele>771.0</ele><time>2026-04-18T15:46:09Z</time></trkpt><trkpt lat="47.691182294927295" lon="11.963309880444433"><ele>771.0</ele><time>2026-04-18T15:46:10Z</time></trkpt><trkpt lat="47.69115299302223" lon="11.963596507109981"><ele>771.0</ele><time>2026-04-18T15:46:11Z</time></trkpt><trkpt lat="47.69112622592201" lon="11.963876758201113"><ele>771.0</ele><time>2026-04-18T15:46:12Z</time></trkpt><trkpt lat="47.69110559530238" lon="11.964151444413616"><ele>771.0</ele><time>2026-04-18T15:46:13Z</time></trkpt><trkpt lat="47.69109169675129" lon="11.964419019057598"><ele>771.0</ele><time>2026-04-18T15:46:14Z</time></trkpt><trkpt lat="47.69108199156806" lon="11.964693425303706"><ele>771.0</ele><time>2026-04-18T15:46:15Z</time></trkpt><trkpt lat="47.691074703051726" lon="11.964974877522764"><ele>771.0</ele><time>2026-04-18T15:46:16Z</time></trkpt><trkpt lat="47.69106931906545" lon="11.965259371424295"><ele>770.6666666666667</ele><time>2026-04-18T15:46:17Z</time></trkpt><trkpt lat="47.691069354429295" lon="11.965539036759912"><ele>770.3333333333334</ele><time>2026-04-18T15:46:18Z</time></trkpt><trkpt lat="47.69106617154662" lon="11.9658269762108"><ele>770.0</ele><time>2026-04-18T15:46:19Z</time></trkpt><trkpt lat="47.69106358114414" lon="11.966111941466433"><ele>769.6666666666667</ele><time>2026-04-18T15:46:20Z</time></trkpt><trkpt lat="47.691061065565265" lon="11.966393910923527"><ele>769.3333333333333</ele><time>2026-04-18T15:46:20.999Z</time></trkpt><trkpt lat="47.69105838265835" lon="11.966672787935812"><ele>769.0</ele><time>2026-04-18T15:46:21.999Z</time></trkpt><trkpt lat="47.69105699355516" lon="11.966947345946878"><ele>770.0</ele><time>2026-04-18T15:46:22.999Z</time></trkpt><trkpt lat="47.69105392070888" lon="11.967221092651165"><ele>771.0</ele><time>2026-04-18T15:46:23.999Z</time></trkpt><trkpt lat="47.6910518246239" lon="11.967494072532562"><ele>772.0</ele><time>2026-04-18T15:46:24.999Z</time></trkpt><trkpt lat="47.69105059869213" lon="11.967767634049189"><ele>772.3333333333333</ele><time>2026-04-18T15:46:25.999Z</time></trkpt><trkpt lat="47.69104680207383" lon="11.968037963290772"><ele>772.6666666666667</ele><time>2026-04-18T15:46:26.999Z</time></trkpt><trkpt lat="47.69103815914095" lon="11.96831485095063"><ele>773.0</ele><time>2026-04-18T15:46:27.999Z</time></trkpt><trkpt lat="47.69102894468694" lon="11.968589956277233"><ele>773.0</ele><time>2026-04-18T15:46:28.999Z</time></trkpt><trkpt lat="47.691002118250125" lon="11.968873409956613"><ele>773.0</ele><time>2026-04-18T15:46:29.999Z</time></trkpt><trkpt lat="47.69096307487992" lon="11.96915618943369"><ele>773.0</ele><time>2026-04-18T15:46:30.999Z</time></trkpt><trkpt lat="47.69090981020815" lon="11.969440493988973"><ele>773.0</ele><time>2026-04-18T15:46:31.999Z</time></trkpt><trkpt lat="47.69084488353887" lon="11.969712317753078"><ele>773.0</ele><time>2026-04-18T15:46:32.999Z</time></trkpt><trkpt lat="47.69077241006996" lon="11.969981613127937"><ele>773.0</ele><time>2026-04-18T15:46:33.999Z</time></trkpt><trkpt lat="47.690692980723824" lon="11.970250944522109"><ele>772.6666666666667</ele><time>2026-04-18T15:46:34.999Z</time></trkpt><trkpt lat="47.69060694729815" lon="11.970522580221973"><ele>772.3333333333333</ele><time>2026-04-18T15:46:35.999Z</time></trkpt><trkpt lat="47.69051987561365" lon="11.970806351379702"><ele>772.0</ele><time>2026-04-18T15:46:36.999Z</time></trkpt><trkpt lat="47.690432381157656" lon="11.971104516817537"><ele>773.0</ele><time>2026-04-18T15:46:37.999Z</time></trkpt><trkpt lat="47.69033832463256" lon="11.97141931930615"><ele>774.0</ele><time>2026-04-18T15:46:38.999Z</time></trkpt><trkpt lat="47.69023971358318" lon="11.971755604201645"><ele>774.0</ele><time>2026-04-18T15:46:39.999Z</time></trkpt><trkpt lat="47.69013829674015" lon="11.972107570908875"><ele>774.0</ele><time>2026-04-18T15:46:41Z</time></trkpt><trkpt lat="47.69004235966601" lon="11.972445904230877"><ele>775.0</ele><time>2026-04-18T15:46:42Z</time></trkpt><trkpt lat="47.689947865912444" lon="11.972770858321347"><ele>776.0</ele><time>2026-04-18T15:46:43Z</time></trkpt><trkpt lat="47.68985971747735" lon="11.973086750947388"><ele>777.5</ele><time>2026-04-18T15:46:44Z</time></trkpt><trkpt lat="47.68976741207416" lon="11.973395958324677"><ele>779.0</ele><time>2026-04-18T15:46:45Z</time></trkpt><trkpt lat="47.68967396894004" lon="11.973697354009369"><ele>779.0</ele><time>2026-04-18T15:46:46Z</time></trkpt><trkpt lat="47.68957936471481" lon="11.973996727549848"><ele>779.0</ele><time>2026-04-18T15:46:47Z</time></trkpt><trkpt lat="47.68948463892348" lon="11.974300195063314"><ele>779.0</ele><time>2026-04-18T15:46:48Z</time></trkpt><trkpt lat="47.68938184577433" lon="11.974610110590426"><ele>777.5</ele><time>2026-04-18T15:46:49Z</time></trkpt><trkpt lat="47.6892718129053" lon="11.974929485229971"><ele>776.0</ele><time>2026-04-18T15:46:50Z</time></trkpt><trkpt lat="47.68916138031827" lon="11.975254323043123"><ele>776.0</ele><time>2026-04-18T15:46:51Z</time></trkpt><trkpt lat="47.68904909218909" lon="11.975575020414743"><ele>776.0</ele><time>2026-04-18T15:46:52Z</time></trkpt><trkpt lat="47.68894448643491" lon="11.97586851022188"><ele>776.0</ele><time>2026-04-18T15:46:53Z</time></trkpt><trkpt lat="47.68884852276194" lon="11.97614597951988"><ele>776.0</ele><time>2026-04-18T15:46:54Z</time></trkpt><trkpt lat="47.68875718736008" lon="11.976411382931339"><ele>776.0</ele><time>2026-04-18T15:46:55Z</time></trkpt><trkpt lat="47.68866681673779" lon="11.976668985006167"><ele>776.3333333333334</ele><time>2026-04-18T15:46:56Z</time></trkpt><trkpt lat="47.688574995253255" lon="11.976934938097113"><ele>776.6666666666667</ele><time>2026-04-18T15:46:57Z</time></trkpt><trkpt lat="47.68848213036328" lon="11.977208350893997"><ele>777.0</ele><time>2026-04-18T15:46:58Z</time></trkpt><trkpt lat="47.68838541650386" lon="11.977483905471209"><ele>777.6666666666667</ele><time>2026-04-18T15:46:59Z</time></trkpt><trkpt lat="47.688290841207156" lon="11.97775531507007"><ele>778.3333333333334</ele><time>2026-04-18T15:47:00Z</time></trkpt><trkpt lat="47.68819885244012" lon="11.9780192215906"><ele>779.0</ele><time>2026-04-18T15:47:01Z</time></trkpt><trkpt lat="47.688103586992625" lon="11.978271319105541"><ele>780.0</ele><time>2026-04-18T15:47:02Z</time></trkpt><trkpt lat="47.68800739840723" lon="11.9785242079529"><ele>781.0</ele><time>2026-04-18T15:47:03Z</time></trkpt><trkpt lat="47.6879329919175" lon="11.978747491203055"><ele>782.0</ele><time>2026-04-18T15:47:04Z</time></trkpt><trkpt lat="47.6878433608649" lon="11.979025497396924"><ele>782.6666666666667</ele><time>2026-04-18T15:47:05Z</time></trkpt><trkpt lat="47.687749442749585" lon="11.979314440845354"><ele>783.3333333333333</ele><time>2026-04-18T15:47:06Z</time></trkpt><trkpt lat="47.68765627559059" lon="11.979587268292322"><ele>784.0</ele><time>2026-04-18T15:47:07Z</time></trkpt><trkpt lat="47.68756539214186" lon="11.97984531287072"><ele>786.0</ele><time>2026-04-18T15:47:08Z</time></trkpt><trkpt lat="47.68747724752368" lon="11.98008384361867"><ele>788.0</ele><time>2026-04-18T15:47:09Z</time></trkpt><trkpt lat="47.68742501210014" lon="11.980314497575474"><ele>790.0</ele><time>2026-04-18T15:47:10Z</time></trkpt><trkpt lat="47.68731472343262" lon="11.980533420517995"><ele>790.0</ele><time>2026-04-18T15:47:11Z</time></trkpt><trkpt lat="47.68721800283567" lon="11.98074093378725"><ele>790.0</ele><time>2026-04-18T15:47:12Z</time></trkpt><trkpt lat="47.68712755525628" lon="11.980967577948107"><ele>790.0</ele><time>2026-04-18T15:47:13Z</time></trkpt><trkpt lat="47.68703614544877" lon="11.981164227755361"><ele>790.0</ele><time>2026-04-18T15:47:14Z</time></trkpt><trkpt lat="47.68695063898281" lon="11.98137194745398"><ele>790.0</ele><time>2026-04-18T15:47:15Z</time></trkpt><trkpt lat="47.68686942981222" lon="11.981555870286401"><ele>790.0</ele><time>2026-04-18T15:47:16Z</time></trkpt><trkpt lat="47.68678583750484" lon="11.981789176900078"><ele>790.0</ele><time>2026-04-18T15:47:17Z</time></trkpt><trkpt lat="47.68670064648742" lon="11.982001691891243"><ele>790.0</ele><time>2026-04-18T15:47:18Z</time></trkpt><trkpt lat="47.68660280817528" lon="11.982252855293375"><ele>790.0</ele><time>2026-04-18T15:47:19Z</time></trkpt><trkpt lat="47.68650960206811" lon="11.982483174237315"><ele>791.0</ele><time>2026-04-18T15:47:20Z</time></trkpt><trkpt lat="47.68641779147185" lon="11.982711241443214"><ele>792.0</ele><time>2026-04-18T15:47:21Z</time></trkpt><trkpt lat="47.6863267781611" lon="11.982920428634609"><ele>793.0</ele><time>2026-04-18T15:47:22Z</time></trkpt><trkpt lat="47.686241024428" lon="11.983155374762037"><ele>793.6666666666666</ele><time>2026-04-18T15:47:23Z</time></trkpt><trkpt lat="47.68615323057399" lon="11.983380322926509"><ele>794.3333333333333</ele><time>2026-04-18T15:47:24Z</time></trkpt><trkpt lat="47.68606559376558" lon="11.983600048017678"><ele>795.0</ele><time>2026-04-18T15:47:25Z</time></trkpt><trkpt lat="47.685982933972866" lon="11.983819232342046"><ele>794.0</ele><time>2026-04-18T15:47:26Z</time></trkpt><trkpt lat="47.68589090467165" lon="11.984045607978006"><ele>793.0</ele><time>2026-04-18T15:47:27Z</time></trkpt><trkpt lat="47.68579779360006" lon="11.984274373703832"><ele>792.0</ele><time>2026-04-18T15:47:28Z</time></trkpt><trkpt lat="47.68570705084036" lon="11.984508232878953"><ele>792.0</ele><time>2026-04-18T15:47:29Z</time></trkpt><trkpt lat="47.68561147252763" lon="11.98476615805961"><ele>792.0</ele><time>2026-04-18T15:47:30Z</time></trkpt><trkpt lat="47.68551522641576" lon="11.984993526417496"><ele>792.0</ele><time>2026-04-18T15:47:31Z</time></trkpt><trkpt lat="47.68541923764489" lon="11.985229906152076"><ele>792.0</ele><time>2026-04-18T15:47:32Z</time></trkpt><trkpt lat="47.685322441312834" lon="11.985461831148463"><ele>792.0</ele><time>2026-04-18T15:47:33Z</time></trkpt><trkpt lat="47.68522872053876" lon="11.985689055926757"><ele>792.0</ele><time>2026-04-18T15:47:34Z</time></trkpt><trkpt lat="47.685139064357564" lon="11.985909762202917"><ele>791.6666666666667</ele><time>2026-04-18T15:47:35Z</time></trkpt><trkpt lat="47.68505323433497" lon="11.986127110316195"><ele>791.3333333333334</ele><time>2026-04-18T15:47:36Z</time></trkpt><trkpt lat="47.68496984325404" lon="11.986337846420742"><ele>791.0</ele><time>2026-04-18T15:47:37Z</time></trkpt><trkpt lat="47.68488769373375" lon="11.986547081675095"><ele>791.3333333333334</ele><time>2026-04-18T15:47:38Z</time></trkpt><trkpt lat="47.68480359791698" lon="11.986751389050452"><ele>791.6666666666667</ele><time>2026-04-18T15:47:39Z</time></trkpt><trkpt lat="47.68471713037073" lon="11.986954879683479"><ele>792.0</ele><time>2026-04-18T15:47:40Z</time></trkpt><trkpt lat="47.684634622678296" lon="11.987174348790704"><ele>792.0</ele><time>2026-04-18T15:47:41Z</time></trkpt><trkpt lat="47.68455561153428" lon="11.987447795552166"><ele>792.0</ele><time>2026-04-18T15:47:42Z</time></trkpt><trkpt lat="47.68447362996701" lon="11.987713629227338"><ele>792.0</ele><time>2026-04-18T15:47:43Z</time></trkpt><trkpt lat="47.68439073531551" lon="11.987933436275068"><ele>791.0</ele><time>2026-04-18T15:47:44Z</time></trkpt><trkpt lat="47.684311758741394" lon="11.988195642270977"><ele>790.0</ele><time>2026-04-18T15:47:45Z</time></trkpt><trkpt lat="47.68422630624358" lon="11.988479381430286"><ele>789.0</ele><time>2026-04-18T15:47:46Z</time></trkpt><trkpt lat="47.68416499418205" lon="11.9887510101192"><ele>789.0</ele><time>2026-04-18T15:47:47Z</time></trkpt><trkpt lat="47.68410345151258" lon="11.989023445428254"><ele>789.0</ele><time>2026-04-18T15:47:48Z</time></trkpt><trkpt lat="47.68404863218275" lon="11.989292938095213"><ele>789.0</ele><time>2026-04-18T15:47:49Z</time></trkpt><trkpt lat="47.68399562366408" lon="11.98956241407847"><ele>788.0</ele><time>2026-04-18T15:47:50Z</time></trkpt><trkpt lat="47.68394196545804" lon="11.989830643631734"><ele>787.0</ele><time>2026-04-18T15:47:51Z</time></trkpt><trkpt lat="47.683890186460175" lon="11.990129639437285"><ele>786.0</ele><time>2026-04-18T15:47:52Z</time></trkpt><trkpt lat="47.68383550146907" lon="11.990392744051043"><ele>785.6666666666667</ele><time>2026-04-18T15:47:53Z</time></trkpt><trkpt lat="47.683778576636705" lon="11.990670088464372"><ele>785.3333333333334</ele><time>2026-04-18T15:47:54Z</time></trkpt><trkpt lat="47.6837151425867" lon="11.990946458335065"><ele>785.0</ele><time>2026-04-18T15:47:55Z</time></trkpt><trkpt lat="47.683647133823776" lon="11.991215909048208"><ele>785.0</ele><time>2026-04-18T15:47:56Z</time></trkpt><trkpt lat="47.68357215312788" lon="11.991485378615629"><ele>785.0</ele><time>2026-04-18T15:47:57Z</time></trkpt><trkpt lat="47.683495985781974" lon="11.99175154287103"><ele>785.0</ele><time>2026-04-18T15:47:58Z</time></trkpt><trkpt lat="47.68341279707045" lon="11.992012964745806"><ele>785.0</ele><time>2026-04-18T15:47:59Z</time></trkpt><trkpt lat="47.68332517562282" lon="11.992270890214389"><ele>785.0</ele><time>2026-04-18T15:48:00Z</time></trkpt><trkpt lat="47.68323805583412" lon="11.992526872265058"><ele>785.0</ele><time>2026-04-18T15:48:01Z</time></trkpt><trkpt lat="47.683153751786755" lon="11.99277990954865"><ele>785.0</ele><time>2026-04-18T15:48:02Z</time></trkpt><trkpt lat="47.683071325252435" lon="11.99303521746101"><ele>785.0</ele><time>2026-04-18T15:48:03Z</time></trkpt><trkpt lat="47.68299220915123" lon="11.993294368735054"><ele>785.0</ele><time>2026-04-18T15:48:04Z</time></trkpt><trkpt lat="47.68290170853578" lon="11.9935398985342"><ele>785.0</ele><time>2026-04-18T15:48:05Z</time></trkpt><trkpt lat="47.68281712371693" lon="11.993791765169377"><ele>785.0</ele><time>2026-04-18T15:48:06Z</time></trkpt><trkpt lat="47.68273535723381" lon="11.994037488155296"><ele>785.0</ele><time>2026-04-18T15:48:07Z</time></trkpt><trkpt lat="47.682649743391124" lon="11.994286200269144"><ele>785.3333333333334</ele><time>2026-04-18T15:48:08Z</time></trkpt><trkpt lat="47.68256532821774" lon="11.994536665390433"><ele>785.6666666666667</ele><time>2026-04-18T15:48:09Z</time></trkpt><trkpt lat="47.68248237880935" lon="11.994787143615138"><ele>786.0</ele><time>2026-04-18T15:48:10Z</time></trkpt><trkpt lat="47.6823953102744" lon="11.995039556175685"><ele>789.0</ele><time>2026-04-18T15:48:11Z</time></trkpt><trkpt lat="47.68230289609079" lon="11.995285792262912"><ele>792.0</ele><time>2026-04-18T15:48:12Z</time></trkpt><trkpt lat="47.68222340973661" lon="11.995535451037016"><ele>795.0</ele><time>2026-04-18T15:48:13Z</time></trkpt><trkpt lat="47.68213928265433" lon="11.995782263970133"><ele>792.3333333333333</ele><time>2026-04-18T15:48:14Z</time></trkpt><trkpt lat="47.68205084743301" lon="11.996022257704348"><ele>789.6666666666666</ele><time>2026-04-18T15:48:15Z</time></trkpt><trkpt lat="47.6819621250512" lon="11.996258659954629"><ele>787.0</ele><time>2026-04-18T15:48:16Z</time></trkpt><trkpt lat="47.6818712232786" lon="11.996495108977362"><ele>788.6666666666666</ele><time>2026-04-18T15:48:17Z</time></trkpt><trkpt lat="47.6817799922324" lon="11.996730111299492"><ele>790.3333333333333</ele><time>2026-04-18T15:48:18Z</time></trkpt><trkpt lat="47.6816889986307" lon="11.996971591465176"><ele>792.0</ele><time>2026-04-18T15:48:19Z</time></trkpt><trkpt lat="47.68159585533265" lon="11.997215749781189"><ele>792.0</ele><time>2026-04-18T15:48:20Z</time></trkpt><trkpt lat="47.68149464966444" lon="11.997465235441158"><ele>792.0</ele><time>2026-04-18T15:48:21Z</time></trkpt><trkpt lat="47.681392252741446" lon="11.997711786192914"><ele>792.0</ele><time>2026-04-18T15:48:22Z</time></trkpt><trkpt lat="47.681289090920004" lon="11.997949308294992"><ele>790.0</ele><time>2026-04-18T15:48:23Z</time></trkpt><trkpt lat="47.68118680222174" lon="11.998180665982252"><ele>788.0</ele><time>2026-04-18T15:48:24Z</time></trkpt><trkpt lat="47.68108554481716" lon="11.998411972063819"><ele>786.0</ele><time>2026-04-18T15:48:25Z</time></trkpt><trkpt lat="47.68097931741558" lon="11.998674587076826"><ele>786.0</ele><time>2026-04-18T15:48:26Z</time></trkpt><trkpt lat="47.680869748783905" lon="11.998935649019375"><ele>786.0</ele><time>2026-04-18T15:48:27Z</time></trkpt><trkpt lat="47.68076759003647" lon="11.999137949642714"><ele>786.0</ele><time>2026-04-18T15:48:28Z</time></trkpt><trkpt lat="47.6806558266074" lon="11.999371826483356"><ele>788.0</ele><time>2026-04-18T15:48:29Z</time></trkpt><trkpt lat="47.680555236880096" lon="11.999608652799362"><ele>790.0</ele><time>2026-04-18T15:48:30Z</time></trkpt><trkpt lat="47.68043934673606" lon="11.999826935461599"><ele>792.0</ele><time>2026-04-18T15:48:31Z</time></trkpt><trkpt lat="47.68032885153438" lon="12.000047728533643"><ele>790.6666666666667</ele><time>2026-04-18T15:48:32Z</time></trkpt><trkpt lat="47.680215995147904" lon="12.000265890091635"><ele>789.3333333333334</ele><time>2026-04-18T15:48:33Z</time></trkpt><trkpt lat="47.68010275369875" lon="12.00048627560124"><ele>788.0</ele><time>2026-04-18T15:48:34Z</time></trkpt><trkpt lat="47.67998763837966" lon="12.000712551859877"><ele>787.6666666666667</ele><time>2026-04-18T15:48:35Z</time></trkpt><trkpt lat="47.679871129159004" lon="12.000939336533623"><ele>787.3333333333333</ele><time>2026-04-18T15:48:36Z</time></trkpt><trkpt lat="47.67975470490189" lon="12.0011614865335"><ele>787.0</ele><time>2026-04-18T15:48:37Z</time></trkpt><trkpt lat="47.6796381947727" lon="12.00137606062933"><ele>787.0</ele><time>2026-04-18T15:48:38Z</time></trkpt><trkpt lat="47.67952117219932" lon="12.001582578353341"><ele>787.0</ele><time>2026-04-18T15:48:39Z</time></trkpt><trkpt lat="47.67940771981993" lon="12.001741718735882"><ele>787.0</ele><time>2026-04-18T15:48:40Z</time></trkpt><trkpt lat="47.67929452257977" lon="12.001900817621948"><ele>787.0</ele><time>2026-04-18T15:48:41Z</time></trkpt><trkpt lat="47.67920522496309" lon="12.002103589698248"><ele>787.0</ele><time>2026-04-18T15:48:42Z</time></trkpt><trkpt lat="47.67910860326462" lon="12.002261004963652"><ele>787.0</ele><time>2026-04-18T15:48:43Z</time></trkpt><trkpt lat="47.67901217159406" lon="12.002409553740208"><ele>787.0</ele><time>2026-04-18T15:48:44Z</time></trkpt><trkpt lat="47.67891401405468" lon="12.002565143679805"><ele>787.0</ele><time>2026-04-18T15:48:45Z</time></trkpt><trkpt lat="47.678809147668304" lon="12.002734936080985"><ele>787.0</ele><time>2026-04-18T15:48:46.001Z</time></trkpt><trkpt lat="47.678706148032425" lon="12.002911172643438"><ele>787.0</ele><time>2026-04-18T15:48:47.001Z</time></trkpt><trkpt lat="47.67861600806588" lon="12.0030561890384"><ele>787.0</ele><time>2026-04-18T15:48:48.001Z</time></trkpt><trkpt lat="47.67854401630489" lon="12.003166199211565"><ele>787.0</ele><time>2026-04-18T15:48:49.001Z</time></trkpt><trkpt lat="47.67848248048461" lon="12.003253064679697"><ele>787.0</ele><time>2026-04-18T15:48:50.001Z</time></trkpt><trkpt lat="47.67841238036106" lon="12.00334690975686"><ele>787.0</ele><time>2026-04-18T15:48:52.001Z</time></trkpt><trkpt lat="47.678400257675165" lon="12.003485814354866"><ele>787.0</ele><time>2026-04-18T15:48:54.001Z</time></trkpt><trkpt lat="47.67840435062867" lon="12.003665707720003"><ele>787.0</ele><time>2026-04-18T15:48:56.001Z</time></trkpt><trkpt lat="47.678327969238005" lon="12.003793850756198"><ele>787.4000000000001</ele><time>2026-04-18T15:48:58.001Z</time></trkpt><trkpt lat="47.678256985271695" lon="12.003905912476156"><ele>787.8000000000001</ele><time>2026-04-18T15:49:00.001Z</time></trkpt><trkpt lat="47.678188919343825" lon="12.004033737360057"><ele>788.2</ele><time>2026-04-18T15:49:02.001Z</time></trkpt><trkpt lat="47.67810563097292" lon="12.004186346852098"><ele>788.6</ele><time>2026-04-18T15:49:04.001Z</time></trkpt><trkpt lat="47.67805386045162" lon="12.004281034213701"><ele>789.0</ele><time>2026-04-18T15:49:05.001Z</time></trkpt><trkpt lat="47.67800421126827" lon="12.004364420978915"><ele>789.0</ele><time>2026-04-18T15:49:06.001Z</time></trkpt><trkpt lat="47.67794655057479" lon="12.004457491193792"><ele>789.0</ele><time>2026-04-18T15:49:07.001Z</time></trkpt><trkpt lat="47.677898446654446" lon="12.004553874311542"><ele>789.0</ele><time>2026-04-18T15:49:08.001Z</time></trkpt><trkpt lat="47.67786018304065" lon="12.00463807442934"><ele>789.0</ele><time>2026-04-18T15:49:09Z</time></trkpt><trkpt lat="47.677814797482135" lon="12.004712869061551"><ele>789.0</ele><time>2026-04-18T15:49:10Z</time></trkpt><trkpt lat="47.67777860322049" lon="12.004807783666193"><ele>789.0</ele><time>2026-04-18T15:49:11Z</time></trkpt><trkpt lat="47.677735423940064" lon="12.004990886282904"><ele>789.2857142857142</ele><time>2026-04-18T15:49:13Z</time></trkpt><trkpt lat="47.67770981892502" lon="12.00509217378815"><ele>789.5714285714286</ele><time>2026-04-18T15:49:14Z</time></trkpt><trkpt lat="47.67768427198752" lon="12.005193446684329"><ele>789.8571428571429</ele><time>2026-04-18T15:49:15Z</time></trkpt><trkpt lat="47.677658664004944" lon="12.005291775866779"><ele>790.1428571428571</ele><time>2026-04-18T15:49:16Z</time></trkpt><trkpt lat="47.67763492827009" lon="12.005389162685995"><ele>790.4285714285714</ele><time>2026-04-18T15:49:17Z</time></trkpt><trkpt lat="47.67760728463149" lon="12.005483540860508"><ele>790.7142857142857</ele><time>2026-04-18T15:49:18Z</time></trkpt><trkpt lat="47.67757148363333" lon="12.005576099780017"><ele>791.0</ele><time>2026-04-18T15:49:19Z</time></trkpt><trkpt lat="47.677528566039015" lon="12.005666923979353"><ele>791.0000000000001</ele><time>2026-04-18T15:49:20Z</time></trkpt><trkpt lat="47.677473344239445" lon="12.005756664240126"><ele>791.0</ele><time>2026-04-18T15:49:21Z</time></trkpt><trkpt lat="47.677397765680155" lon="12.00582560954068"><ele>791.0</ele><time>2026-04-18T15:49:22Z</time></trkpt><trkpt lat="47.67734223129729" lon="12.005910996333574"><ele>791.0</ele><time>2026-04-18T15:49:23Z</time></trkpt><trkpt lat="47.67728718034317" lon="12.005976754547675"><ele>791.0000000000001</ele><time>2026-04-18T15:49:24Z</time></trkpt><trkpt lat="47.677235606768306" lon="12.006036721962328"><ele>791.0</ele><time>2026-04-18T15:49:25Z</time></trkpt><trkpt lat="47.677186057741" lon="12.006103750137543"><ele>791.3333333333334</ele><time>2026-04-18T15:49:26Z</time></trkpt><trkpt lat="47.67713650720989" lon="12.006174453888756"><ele>791.6666666666667</ele><time>2026-04-18T15:49:27Z</time></trkpt><trkpt lat="47.677081134697794" lon="12.0062485078667"><ele>792.0</ele><time>2026-04-18T15:49:28Z</time></trkpt><trkpt lat="47.677022623335965" lon="12.0063112785389"><ele>792.3333333333333</ele><time>2026-04-18T15:49:29Z</time></trkpt><trkpt lat="47.67696474378667" lon="12.006385849352043"><ele>792.6666666666666</ele><time>2026-04-18T15:49:30Z</time></trkpt><trkpt lat="47.67691018898664" lon="12.006468162094984"><ele>793.0</ele><time>2026-04-18T15:49:31Z</time></trkpt><trkpt lat="47.6768562902922" lon="12.006555488213161"><ele>793.0000000000001</ele><time>2026-04-18T15:49:32Z</time></trkpt><trkpt lat="47.676805201699324" lon="12.006640069537546"><ele>793.0</ele><time>2026-04-18T15:49:33Z</time></trkpt><trkpt lat="47.67675366877152" lon="12.006724628013373"><ele>793.0</ele><time>2026-04-18T15:49:34Z</time></trkpt><trkpt lat="47.676704393514086" lon="12.006801867085299"><ele>793.0</ele><time>2026-04-18T15:49:35Z</time></trkpt><trkpt lat="47.67665552121676" lon="12.006878951787822"><ele>793.0</ele><time>2026-04-18T15:49:36Z</time></trkpt><trkpt lat="47.67660972594758" lon="12.00695635728299"><ele>793.0000000000001</ele><time>2026-04-18T15:49:37Z</time></trkpt><trkpt lat="47.676572671381614" lon="12.007033908144853"><ele>793.0</ele><time>2026-04-18T15:49:38Z</time></trkpt><trkpt lat="47.67654012356484" lon="12.007121423694121"><ele>793.5714285714287</ele><time>2026-04-18T15:49:39Z</time></trkpt><trkpt lat="47.67651182138099" lon="12.007209210824392"><ele>794.1428571428571</ele><time>2026-04-18T15:49:40Z</time></trkpt><trkpt lat="47.67647984523363" lon="12.00729490511511"><ele>794.7142857142858</ele><time>2026-04-18T15:49:41Z</time></trkpt><trkpt lat="47.67644684930172" lon="12.00737991885454"><ele>795.2857142857143</ele><time>2026-04-18T15:49:42Z</time></trkpt><trkpt lat="47.67641673302632" lon="12.007465097269714"><ele>795.8571428571429</ele><time>2026-04-18T15:49:43Z</time></trkpt><trkpt lat="47.676387296125796" lon="12.007551373254907"><ele>796.4285714285714</ele><time>2026-04-18T15:49:44Z</time></trkpt><trkpt lat="47.67635275473343" lon="12.007640966979105"><ele>797.0</ele><time>2026-04-18T15:49:45Z</time></trkpt><trkpt lat="47.67632098611897" lon="12.007738514282103"><ele>797.5000000000001</ele><time>2026-04-18T15:49:46Z</time></trkpt><trkpt lat="47.67628854858357" lon="12.007835899595511"><ele>798.0</ele><time>2026-04-18T15:49:47Z</time></trkpt><trkpt lat="47.676255698983006" lon="12.007929486501187"><ele>798.5</ele><time>2026-04-18T15:49:48Z</time></trkpt><trkpt lat="47.67620119821021" lon="12.008073899501024"><ele>799.0</ele><time>2026-04-18T15:49:50Z</time></trkpt><trkpt lat="47.67618090110394" lon="12.008179230074079"><ele>799.5000000000001</ele><time>2026-04-18T15:49:51Z</time></trkpt><trkpt lat="47.67614669891031" lon="12.008284864843333"><ele>800.0</ele><time>2026-04-18T15:49:52Z</time></trkpt><trkpt lat="47.67610977794082" lon="12.00839670094304"><ele>799.8</ele><time>2026-04-18T15:49:53Z</time></trkpt><trkpt lat="47.67608009784192" lon="12.008561613123561"><ele>799.6</ele><time>2026-04-18T15:49:55Z</time></trkpt><trkpt lat="47.6760497495683" lon="12.008733821012006"><ele>799.4000000000001</ele><time>2026-04-18T15:49:57Z</time></trkpt><trkpt lat="47.67603191611292" lon="12.008831123947557"><ele>799.2</ele><time>2026-04-18T15:49:58Z</time></trkpt><trkpt lat="47.675992814091956" lon="12.008999589652614"><ele>799.0</ele><time>2026-04-18T15:50:00Z</time></trkpt><trkpt lat="47.67597667342901" lon="12.009105841266459"><ele>799.4999999999999</ele><time>2026-04-18T15:50:01Z</time></trkpt><trkpt lat="47.675948253074324" lon="12.00923654289514"><ele>800.0</ele><time>2026-04-18T15:50:02Z</time></trkpt><trkpt lat="47.675916665987344" lon="12.009355892929616"><ele>800.5</ele><time>2026-04-18T15:50:03Z</time></trkpt><trkpt lat="47.675884159599946" lon="12.009456026313522"><ele>801.0</ele><time>2026-04-18T15:50:04Z</time></trkpt><trkpt lat="47.675854184868896" lon="12.009546980743242"><ele>801.4999999999999</ele><time>2026-04-18T15:50:05Z</time></trkpt><trkpt lat="47.67581963256811" lon="12.009632153722773"><ele>802.0</ele><time>2026-04-18T15:50:06Z</time></trkpt><trkpt lat="47.67577453272689" lon="12.00970829733127"><ele>802.0</ele><time>2026-04-18T15:50:07Z</time></trkpt><trkpt lat="47.67572241231984" lon="12.009783583021951"><ele>802.0</ele><time>2026-04-18T15:50:08Z</time></trkpt><trkpt lat="47.67566876514796" lon="12.009859860388227"><ele>802.0</ele><time>2026-04-18T15:50:09Z</time></trkpt><trkpt lat="47.67560650726733" lon="12.009920382087236"><ele>802.0</ele><time>2026-04-18T15:50:10Z</time></trkpt><trkpt lat="47.67554278801975" lon="12.009970032579243"><ele>802.0</ele><time>2026-04-18T15:50:11Z</time></trkpt><trkpt lat="47.67547988542533" lon="12.010018490622919"><ele>802.0</ele><time>2026-04-18T15:50:12Z</time></trkpt><trkpt lat="47.67541369822604" lon="12.01007475526517"><ele>802.0</ele><time>2026-04-18T15:50:13Z</time></trkpt><trkpt lat="47.67534769278181" lon="12.010126041199069"><ele>801.9999999999999</ele><time>2026-04-18T15:50:14Z</time></trkpt><trkpt lat="47.67528771288719" lon="12.010171261122977"><ele>802.0</ele><time>2026-04-18T15:50:15Z</time></trkpt><trkpt lat="47.67516946900183" lon="12.010259748354216"><ele>802.0</ele><time>2026-04-18T15:50:17Z</time></trkpt><trkpt lat="47.67510564998764" lon="12.010314911943759"><ele>802.0</ele><time>2026-04-18T15:50:18Z</time></trkpt><trkpt lat="47.67505009528224" lon="12.010376122550511"><ele>801.9999999999999</ele><time>2026-04-18T15:50:19Z</time></trkpt><trkpt lat="47.674991376351" lon="12.010443715417267"><ele>802.0</ele><time>2026-04-18T15:50:20Z</time></trkpt><trkpt lat="47.674945040338606" lon="12.010531250302968"><ele>802.1428571428571</ele><time>2026-04-18T15:50:21Z</time></trkpt><trkpt lat="47.67490526408545" lon="12.010629589821157"><ele>802.2857142857143</ele><time>2026-04-18T15:50:22Z</time></trkpt><trkpt lat="47.674864760706306" lon="12.010728566044394"><ele>802.4285714285713</ele><time>2026-04-18T15:50:23Z</time></trkpt><trkpt lat="47.67482645743742" lon="12.01081966844144"><ele>802.5714285714286</ele><time>2026-04-18T15:50:24Z</time></trkpt><trkpt lat="47.6747904699609" lon="12.010904594698847"><ele>802.7142857142857</ele><time>2026-04-18T15:50:25Z</time></trkpt><trkpt lat="47.674758098462036" lon="12.010987466590409"><ele>802.8571428571428</ele><time>2026-04-18T15:50:26Z</time></trkpt><trkpt lat="47.674728892836846" lon="12.011074826740984"><ele>803.0</ele><time>2026-04-18T15:50:27Z</time></trkpt><trkpt lat="47.67470076271289" lon="12.011170375322456"><ele>803.2857142857142</ele><time>2026-04-18T15:50:28Z</time></trkpt><trkpt lat="47.674671333045474" lon="12.011280433809866"><ele>803.5714285714286</ele><time>2026-04-18T15:50:29Z</time></trkpt><trkpt lat="47.67464625050707" lon="12.011381932800932"><ele>803.8571428571429</ele><time>2026-04-18T15:50:30Z</time></trkpt><trkpt lat="47.674621587818955" lon="12.011473871241623"><ele>804.1428571428571</ele><time>2026-04-18T15:50:31Z</time></trkpt><trkpt lat="47.67459490665705" lon="12.011565942117658"><ele>804.4285714285714</ele><time>2026-04-18T15:50:32Z</time></trkpt><trkpt lat="47.67457151168285" lon="12.011663750676115"><ele>804.7142857142857</ele><time>2026-04-18T15:50:33Z</time></trkpt><trkpt lat="47.674547494284404" lon="12.01176579840036"><ele>805.0</ele><time>2026-04-18T15:50:34Z</time></trkpt><trkpt lat="47.6745263220201" lon="12.011865710913762"><ele>805.1428571428571</ele><time>2026-04-18T15:50:35Z</time></trkpt><trkpt lat="47.67450398636655" lon="12.011964996625423"><ele>805.2857142857142</ele><time>2026-04-18T15:50:36Z</time></trkpt><trkpt lat="47.67447726496633" lon="12.01205593657855"><ele>805.4285714285714</ele><time>2026-04-18T15:50:37Z</time></trkpt><trkpt lat="47.67445049965417" lon="12.012142853017671"><ele>805.5714285714286</ele><time>2026-04-18T15:50:38Z</time></trkpt><trkpt lat="47.67442819364901" lon="12.012244463396232"><ele>805.7142857142857</ele><time>2026-04-18T15:50:39Z</time></trkpt><trkpt lat="47.674403942661016" lon="12.01234068617021"><ele>805.8571428571429</ele><time>2026-04-18T15:50:40Z</time></trkpt><trkpt lat="47.674380033372636" lon="12.012427629862774"><ele>806.0</ele><time>2026-04-18T15:50:41Z</time></trkpt><trkpt lat="47.67435151526905" lon="12.012549929076066"><ele>805.4285714285714</ele><time>2026-04-18T15:50:43Z</time></trkpt><trkpt lat="47.674321936193145" lon="12.012654465435949"><ele>804.8571428571428</ele><time>2026-04-18T15:50:46Z</time></trkpt><trkpt lat="47.67425344690542" lon="12.0126774940296"><ele>804.2857142857142</ele><time>2026-04-18T15:50:49Z</time></trkpt><trkpt lat="47.674198142258284" lon="12.012611021943343"><ele>803.7142857142858</ele><time>2026-04-18T15:50:51Z</time></trkpt><trkpt lat="47.67413300553068" lon="12.012561480059562"><ele>803.1428571428571</ele><time>2026-04-18T15:50:54.001Z</time></trkpt><trkpt lat="47.674072436682806" lon="12.012517411083369"><ele>802.5714285714286</ele><time>2026-04-18T15:50:56.001Z</time></trkpt><trkpt lat="47.67400887415048" lon="12.012471481864537"><ele>802.0</ele><time>2026-04-18T15:50:59.001Z</time></trkpt><trkpt lat="47.6739510513793" lon="12.012419053916071"><ele>801.9999999999999</ele><time>2026-04-18T15:51:01.001Z</time></trkpt><trkpt lat="47.67385319529987" lon="12.012343561263073"><ele>802.0</ele><time>2026-04-18T15:51:03.001Z</time></trkpt><trkpt lat="47.67378547627747" lon="12.012283500808861"><ele>802.0</ele><time>2026-04-18T15:51:05.001Z</time></trkpt><trkpt lat="47.67371178270452" lon="12.012198327485672"><ele>802.0</ele><time>2026-04-18T15:51:09.001Z</time></trkpt><trkpt lat="47.673647112553375" lon="12.012137556683305"><ele>801.9999999999999</ele><time>2026-04-18T15:51:12Z</time></trkpt><trkpt lat="47.673577007514375" lon="12.012081855730619"><ele>802.0</ele><time>2026-04-18T15:51:15Z</time></trkpt><trkpt lat="47.673523753007565" lon="12.012005180005197"><ele>801.9999999999999</ele><time>2026-04-18T15:51:18Z</time></trkpt><trkpt lat="47.67344400851569" lon="12.012031362075723"><ele>802.0</ele><time>2026-04-18T15:52:00Z</time></trkpt><trkpt lat="47.67340603771331" lon="12.012175072279339"><ele>802.0</ele><time>2026-04-18T15:54:30Z</time></trkpt><trkpt lat="47.67342507615618" lon="12.01207760139777"><ele>802.0</ele><time>2026-04-18T15:54:33Z</time></trkpt><trkpt lat="47.67348369787754" lon="12.012029441462051"><ele>801.9999999999999</ele><time>2026-04-18T15:54:42Z</time></trkpt><trkpt lat="47.673559657487914" lon="12.01206364094223"><ele>802.0</ele><time>2026-04-18T15:55:02.999Z</time></trkpt><trkpt lat="47.67361707057622" lon="12.012120079821663"><ele>801.9999999999999</ele><time>2026-04-18T15:55:10.999Z</time></trkpt><trkpt lat="47.67367481182069" lon="12.01216091050651"><ele>802.0</ele><time>2026-04-18T15:55:18.999Z</time></trkpt><trkpt lat="47.67371088209192" lon="12.012081422679385"><ele>802.0</ele><time>2026-04-18T15:55:29.999Z</time></trkpt><trkpt lat="47.67369496788664" lon="12.01197452079687"><ele>802.0</ele><time>2026-04-18T15:55:46.999Z</time></trkpt><trkpt lat="47.67362039301459" lon="12.011955107240354"><ele>801.9999999999999</ele><time>2026-04-18T15:55:50.999Z</time></trkpt><trkpt lat="47.67354346320752" lon="12.011905673072873"><ele>802.0</ele><time>2026-04-18T15:55:53.999Z</time></trkpt><trkpt lat="47.673438616405384" lon="12.0118575351502"><ele>801.2</ele><time>2026-04-18T15:55:57.999Z</time></trkpt><trkpt lat="47.67336825455985" lon="12.011831173897159"><ele>800.4000000000001</ele><time>2026-04-18T15:56:01.999Z</time></trkpt><trkpt lat="47.67331163361997" lon="12.011720379021824"><ele>799.5999999999999</ele><time>2026-04-18T15:56:06.999Z</time></trkpt><trkpt lat="47.67342975174605" lon="12.011747429785697"><ele>798.8</ele><time>2026-04-18T15:56:08.999Z</time></trkpt><trkpt lat="47.67346786909312" lon="12.01184678102387"><ele>798.0</ele><time>2026-04-18T15:56:09.999Z</time></trkpt><trkpt lat="47.67357119369168" lon="12.011963288534533"><ele>798.0</ele><time>2026-04-18T15:56:11.999Z</time></trkpt><trkpt lat="47.673643842085184" lon="12.01209070573747"><ele>798.0</ele><time>2026-04-18T15:56:14.999Z</time></trkpt><trkpt lat="47.6735909617694" lon="12.011976088510151"><ele>798.0</ele><time>2026-04-18T15:56:16.999Z</time></trkpt><trkpt lat="47.67364823386804" lon="12.012032582727343"><ele>798.0</ele><time>2026-04-18T15:56:40.999Z</time></trkpt><trkpt lat="47.6737001387381" lon="12.011825122474416"><ele>798.0</ele><time>2026-04-18T15:56:47.999Z</time></trkpt><trkpt lat="47.67365792703764" lon="12.011749595324627"><ele>798.6666666666666</ele><time>2026-04-18T16:27:05.999Z</time></trkpt><trkpt lat="47.67378353204293" lon="12.011786837237542"><ele>799.3333333333333</ele><time>2026-04-18T16:56:39Z</time></trkpt><trkpt lat="47.67382764111333" lon="12.011888850813204"><ele>800.0</ele><time>2026-04-18T16:56:41Z</time></trkpt><trkpt lat="47.673766133529774" lon="12.011815697246355"><ele>800.6666666666666</ele><time>2026-04-18T16:56:42Z</time></trkpt><trkpt lat="47.673698604780945" lon="12.011858420691915"><ele>801.3333333333333</ele><time>2026-04-18T16:56:44Z</time></trkpt><trkpt lat="47.67370860412318" lon="12.011764215840689"><ele>802.0</ele><time>2026-04-18T16:56:47Z</time></trkpt><trkpt lat="47.67373970287524" lon="12.011679204100895"><ele>802.0</ele><time>2026-04-18T16:56:50Z</time></trkpt><trkpt lat="47.673674507670874" lon="12.011682837696023"><ele>802.0</ele><time>2026-04-18T16:57:07Z</time></trkpt><trkpt lat="47.673736361887364" lon="12.011708959199836"><ele>802.0</ele><time>2026-04-18T17:00:38.999Z</time></trkpt><trkpt lat="47.6737079217931" lon="12.011797353925948"><ele>802.0</ele><time>2026-04-18T17:02:02.998Z</time></trkpt><trkpt lat="47.673722141759576" lon="12.011896456863104"><ele>802.0</ele><time>2026-04-18T17:02:17.999Z</time></trkpt><trkpt lat="47.67377549729584" lon="12.0118084429658"><ele>802.0</ele><time>2026-04-18T17:19:26Z</time></trkpt></trkseg></trk></gpx>